<?xml version="1.0" encoding="UTF-8"?>
<gpx creator="Garmin Connect" version="1.1"
  xsi:schemaLocation="http://www.topografix.com/GPX/1/1 http://www.topografix.com/GPX/11.xsd"
  xmlns="http://www.topografix.com/GPX/1/1"
  xmlns:ns3="http://www.garmin.com/xmlschemas/TrackPointExtension/v1"
  xmlns:ns2="http://www.garmin.com/xmlschemas/GpxExtensions/v3" xmlns:xsi="http://www.w3.org/2001/XMLSchema-instance">
  <metadata>
    <link href="connect.garmin.com">
      <text>Garmin Connect</text>
    </link>
    <time>2017-08-04T04:14:58.000Z</time>
  </metadata>
  <trk>
    <name>Cycling</name>
    <type>cycling</type>
    <trkseg>
      <trkpt lat="31.6812512464821338653564453125" lon="35.00382366590201854705810546875">
        <ele>326.399993896484375</ele>
        <time>2017-08-04T04:14:58.000Z</time>
        <extensions>
          <ns3:TrackPointExtension>
            <ns3:atemp>26.0</ns3:atemp>
          </ns3:TrackPointExtension>
        </extensions>
      </trkpt>
      <trkpt lat="31.68125065974891185760498046875" lon="35.00386339612305164337158203125">
        <ele>326.600006103515625</ele>
        <time>2017-08-04T04:15:02.000Z</time>
        <extensions>
          <ns3:TrackPointExtension>
            <ns3:atemp>26.0</ns3:atemp>
          </ns3:TrackPointExtension>
        </extensions>
      </trkpt>
      <trkpt lat="31.68127530254423618316650390625" lon="35.00386138446629047393798828125">
        <ele>326.600006103515625</ele>
        <time>2017-08-04T04:15:04.000Z</time>
        <extensions>
          <ns3:TrackPointExtension>
            <ns3:atemp>26.0</ns3:atemp>
          </ns3:TrackPointExtension>
        </extensions>
      </trkpt>
      <trkpt lat="31.681316457688808441162109375" lon="35.00383104197680950164794921875">
        <ele>327</ele>
        <time>2017-08-04T04:15:08.000Z</time>
        <extensions>
          <ns3:TrackPointExtension>
            <ns3:atemp>26.0</ns3:atemp>
          </ns3:TrackPointExtension>
        </extensions>
      </trkpt>
      <trkpt lat="31.68132090009748935699462890625" lon="35.0038141943514347076416015625">
        <ele>327</ele>
        <time>2017-08-04T04:15:09.000Z</time>
        <extensions>
          <ns3:TrackPointExtension>
            <ns3:atemp>26.0</ns3:atemp>
          </ns3:TrackPointExtension>
        </extensions>
      </trkpt>
      <trkpt lat="31.6812851093709468841552734375" lon="35.00376516021788120269775390625">
        <ele>326.79998779296875</ele>
        <time>2017-08-04T04:15:14.000Z</time>
        <extensions>
          <ns3:TrackPointExtension>
            <ns3:atemp>26.0</ns3:atemp>
          </ns3:TrackPointExtension>
        </extensions>
      </trkpt>
      <trkpt lat="31.68127580545842647552490234375" lon="35.0037659145891666412353515625">
        <ele>326.79998779296875</ele>
        <time>2017-08-04T04:15:15.000Z</time>
        <extensions>
          <ns3:TrackPointExtension>
            <ns3:atemp>26.0</ns3:atemp>
          </ns3:TrackPointExtension>
        </extensions>
      </trkpt>
      <trkpt lat="31.68126457370817661285400390625" lon="35.003770776093006134033203125">
        <ele>326.600006103515625</ele>
        <time>2017-08-04T04:15:16.000Z</time>
        <extensions>
          <ns3:TrackPointExtension>
            <ns3:atemp>26.0</ns3:atemp>
          </ns3:TrackPointExtension>
        </extensions>
      </trkpt>
      <trkpt lat="31.68124973773956298828125" lon="35.0038296170532703399658203125">
        <ele>326.399993896484375</ele>
        <time>2017-08-04T04:15:19.000Z</time>
        <extensions>
          <ns3:TrackPointExtension>
            <ns3:atemp>26.0</ns3:atemp>
          </ns3:TrackPointExtension>
        </extensions>
      </trkpt>
      <trkpt lat="31.6811982728540897369384765625" lon="35.003998763859272003173828125">
        <ele>326.20001220703125</ele>
        <time>2017-08-04T04:15:25.000Z</time>
        <extensions>
          <ns3:TrackPointExtension>
            <ns3:atemp>26.0</ns3:atemp>
          </ns3:TrackPointExtension>
        </extensions>
      </trkpt>
      <trkpt lat="31.68109618127346038818359375" lon="35.00422172248363494873046875">
        <ele>327.20001220703125</ele>
        <time>2017-08-04T04:15:33.000Z</time>
        <extensions>
          <ns3:TrackPointExtension>
            <ns3:atemp>26.0</ns3:atemp>
          </ns3:TrackPointExtension>
        </extensions>
      </trkpt>
      <trkpt lat="31.68109039776027202606201171875" lon="35.00425214879214763641357421875">
        <ele>327.399993896484375</ele>
        <time>2017-08-04T04:15:34.000Z</time>
        <extensions>
          <ns3:TrackPointExtension>
            <ns3:atemp>26.0</ns3:atemp>
          </ns3:TrackPointExtension>
        </extensions>
      </trkpt>
      <trkpt lat="31.68107782490551471710205078125" lon="35.00434049405157566070556640625">
        <ele>327.600006103515625</ele>
        <time>2017-08-04T04:15:37.000Z</time>
        <extensions>
          <ns3:TrackPointExtension>
            <ns3:atemp>26.0</ns3:atemp>
          </ns3:TrackPointExtension>
        </extensions>
      </trkpt>
      <trkpt lat="31.681054942309856414794921875" lon="35.004490278661251068115234375">
        <ele>328.600006103515625</ele>
        <time>2017-08-04T04:15:42.000Z</time>
        <extensions>
          <ns3:TrackPointExtension>
            <ns3:atemp>26.0</ns3:atemp>
          </ns3:TrackPointExtension>
        </extensions>
      </trkpt>
      <trkpt lat="31.68103985488414764404296875" lon="35.00455272383987903594970703125">
        <ele>328.79998779296875</ele>
        <time>2017-08-04T04:15:44.000Z</time>
        <extensions>
          <ns3:TrackPointExtension>
            <ns3:atemp>26.0</ns3:atemp>
          </ns3:TrackPointExtension>
        </extensions>
      </trkpt>
      <trkpt lat="31.68097338639199733734130859375" lon="35.0047199428081512451171875">
        <ele>329.600006103515625</ele>
        <time>2017-08-04T04:15:50.000Z</time>
        <extensions>
          <ns3:TrackPointExtension>
            <ns3:atemp>26.0</ns3:atemp>
          </ns3:TrackPointExtension>
        </extensions>
      </trkpt>
      <trkpt lat="31.68091655708849430084228515625" lon="35.0049162469804286956787109375">
        <ele>330.600006103515625</ele>
        <time>2017-08-04T04:15:56.000Z</time>
        <extensions>
          <ns3:TrackPointExtension>
            <ns3:atemp>26.0</ns3:atemp>
          </ns3:TrackPointExtension>
        </extensions>
      </trkpt>
      <trkpt lat="31.68084849603474140167236328125" lon="35.005117245018482208251953125">
        <ele>331.20001220703125</ele>
        <time>2017-08-04T04:16:02.000Z</time>
        <extensions>
          <ns3:TrackPointExtension>
            <ns3:atemp>26.0</ns3:atemp>
          </ns3:TrackPointExtension>
        </extensions>
      </trkpt>
      <trkpt lat="31.68082620017230510711669921875" lon="35.00524238683283329010009765625">
        <ele>331.600006103515625</ele>
        <time>2017-08-04T04:16:06.000Z</time>
        <extensions>
          <ns3:TrackPointExtension>
            <ns3:atemp>26.0</ns3:atemp>
          </ns3:TrackPointExtension>
        </extensions>
      </trkpt>
      <trkpt lat="31.68081496842205524444580078125" lon="35.005297958850860595703125">
        <ele>332.79998779296875</ele>
        <time>2017-08-04T04:16:08.000Z</time>
        <extensions>
          <ns3:TrackPointExtension>
            <ns3:atemp>26.0</ns3:atemp>
          </ns3:TrackPointExtension>
        </extensions>
      </trkpt>
      <trkpt lat="31.6808049939572811126708984375" lon="35.00535822473466396331787109375">
        <ele>332.20001220703125</ele>
        <time>2017-08-04T04:16:10.000Z</time>
        <extensions>
          <ns3:TrackPointExtension>
            <ns3:atemp>26.0</ns3:atemp>
          </ns3:TrackPointExtension>
        </extensions>
      </trkpt>
      <trkpt lat="31.68076417408883571624755859375" lon="35.00557263381779193878173828125">
        <ele>332.79998779296875</ele>
        <time>2017-08-04T04:16:17.000Z</time>
        <extensions>
          <ns3:TrackPointExtension>
            <ns3:atemp>26.0</ns3:atemp>
          </ns3:TrackPointExtension>
        </extensions>
      </trkpt>
      <trkpt lat="31.68071807362139225006103515625" lon="35.0058057345449924468994140625">
        <ele>333.399993896484375</ele>
        <time>2017-08-04T04:16:24.000Z</time>
        <extensions>
          <ns3:TrackPointExtension>
            <ns3:atemp>26.0</ns3:atemp>
          </ns3:TrackPointExtension>
        </extensions>
      </trkpt>
      <trkpt lat="31.6806494258344173431396484375" lon="35.006006062030792236328125">
        <ele>333.399993896484375</ele>
        <time>2017-08-04T04:16:30.000Z</time>
        <extensions>
          <ns3:TrackPointExtension>
            <ns3:atemp>26.0</ns3:atemp>
          </ns3:TrackPointExtension>
        </extensions>
      </trkpt>
      <trkpt lat="31.680563427507877349853515625" lon="35.006231367588043212890625">
        <ele>333.600006103515625</ele>
        <time>2017-08-04T04:16:36.000Z</time>
        <extensions>
          <ns3:TrackPointExtension>
            <ns3:atemp>26.0</ns3:atemp>
          </ns3:TrackPointExtension>
        </extensions>
      </trkpt>
      <trkpt lat="31.680504418909549713134765625" lon="35.00634133815765380859375">
        <ele>333.79998779296875</ele>
        <time>2017-08-04T04:16:40.000Z</time>
        <extensions>
          <ns3:TrackPointExtension>
            <ns3:atemp>26.0</ns3:atemp>
          </ns3:TrackPointExtension>
        </extensions>
      </trkpt>
      <trkpt lat="31.68050366453826427459716796875" lon="35.006340332329273223876953125">
        <ele>334.20001220703125</ele>
        <time>2017-08-04T04:16:42.000Z</time>
        <extensions>
          <ns3:TrackPointExtension>
            <ns3:atemp>26.0</ns3:atemp>
          </ns3:TrackPointExtension>
        </extensions>
      </trkpt>
      <trkpt lat="31.6804965399205684661865234375" lon="35.006347708404064178466796875">
        <ele>334.399993896484375</ele>
        <time>2017-08-04T04:16:48.000Z</time>
        <extensions>
          <ns3:TrackPointExtension>
            <ns3:atemp>26.0</ns3:atemp>
          </ns3:TrackPointExtension>
        </extensions>
      </trkpt>
      <trkpt lat="31.68043593876063823699951171875" lon="35.0064662285149097442626953125">
        <ele>333.79998779296875</ele>
        <time>2017-08-04T04:16:53.000Z</time>
        <extensions>
          <ns3:TrackPointExtension>
            <ns3:atemp>26.0</ns3:atemp>
          </ns3:TrackPointExtension>
        </extensions>
      </trkpt>
      <trkpt lat="31.680372655391693115234375" lon="35.0066103972494602203369140625">
        <ele>332.79998779296875</ele>
        <time>2017-08-04T04:16:56.000Z</time>
        <extensions>
          <ns3:TrackPointExtension>
            <ns3:atemp>26.0</ns3:atemp>
          </ns3:TrackPointExtension>
        </extensions>
      </trkpt>
      <trkpt lat="31.68032362125813961029052734375" lon="35.00671290792524814605712890625">
        <ele>332.79998779296875</ele>
        <time>2017-08-04T04:16:58.000Z</time>
        <extensions>
          <ns3:TrackPointExtension>
            <ns3:atemp>26.0</ns3:atemp>
          </ns3:TrackPointExtension>
        </extensions>
      </trkpt>
      <trkpt lat="31.680265031754970550537109375" lon="35.0068142451345920562744140625">
        <ele>332.399993896484375</ele>
        <time>2017-08-04T04:17:00.000Z</time>
        <extensions>
          <ns3:TrackPointExtension>
            <ns3:atemp>26.0</ns3:atemp>
          </ns3:TrackPointExtension>
        </extensions>
      </trkpt>
      <trkpt lat="31.6802023351192474365234375" lon="35.006919689476490020751953125">
        <ele>331.600006103515625</ele>
        <time>2017-08-04T04:17:02.000Z</time>
        <extensions>
          <ns3:TrackPointExtension>
            <ns3:atemp>26.0</ns3:atemp>
          </ns3:TrackPointExtension>
        </extensions>
      </trkpt>
      <trkpt lat="31.68014072813093662261962890625" lon="35.0070140697062015533447265625">
        <ele>331</ele>
        <time>2017-08-04T04:17:04.000Z</time>
        <extensions>
          <ns3:TrackPointExtension>
            <ns3:atemp>26.0</ns3:atemp>
          </ns3:TrackPointExtension>
        </extensions>
      </trkpt>
      <trkpt lat="31.68007300235331058502197265625" lon="35.00711624510586261749267578125">
        <ele>330.399993896484375</ele>
        <time>2017-08-04T04:17:06.000Z</time>
        <extensions>
          <ns3:TrackPointExtension>
            <ns3:atemp>25.0</ns3:atemp>
          </ns3:TrackPointExtension>
        </extensions>
      </trkpt>
      <trkpt lat="31.67993151582777500152587890625" lon="35.00735320150852203369140625">
        <ele>329</ele>
        <time>2017-08-04T04:17:10.000Z</time>
        <extensions>
          <ns3:TrackPointExtension>
            <ns3:atemp>25.0</ns3:atemp>
          </ns3:TrackPointExtension>
        </extensions>
      </trkpt>
      <trkpt lat="31.6799067892134189605712890625" lon="35.00742151401937007904052734375">
        <ele>328.399993896484375</ele>
        <time>2017-08-04T04:17:11.000Z</time>
        <extensions>
          <ns3:TrackPointExtension>
            <ns3:atemp>25.0</ns3:atemp>
          </ns3:TrackPointExtension>
        </extensions>
      </trkpt>
      <trkpt lat="31.6798739321529865264892578125" lon="35.00756685622036457061767578125">
        <ele>327.79998779296875</ele>
        <time>2017-08-04T04:17:13.000Z</time>
        <extensions>
          <ns3:TrackPointExtension>
            <ns3:atemp>25.0</ns3:atemp>
          </ns3:TrackPointExtension>
        </extensions>
      </trkpt>
      <trkpt lat="31.6798648796975612640380859375" lon="35.00763927586376667022705078125">
        <ele>327.600006103515625</ele>
        <time>2017-08-04T04:17:14.000Z</time>
        <extensions>
          <ns3:TrackPointExtension>
            <ns3:atemp>25.0</ns3:atemp>
          </ns3:TrackPointExtension>
        </extensions>
      </trkpt>
      <trkpt lat="31.6798645444214344024658203125" lon="35.007855109870433807373046875">
        <ele>327.20001220703125</ele>
        <time>2017-08-04T04:17:17.000Z</time>
        <extensions>
          <ns3:TrackPointExtension>
            <ns3:atemp>25.0</ns3:atemp>
          </ns3:TrackPointExtension>
        </extensions>
      </trkpt>
      <trkpt lat="31.67987854219973087310791015625" lon="35.00798578374087810516357421875">
        <ele>327.600006103515625</ele>
        <time>2017-08-04T04:17:19.000Z</time>
        <extensions>
          <ns3:TrackPointExtension>
            <ns3:atemp>25.0</ns3:atemp>
          </ns3:TrackPointExtension>
        </extensions>
      </trkpt>
      <trkpt lat="31.6799064539372920989990234375" lon="35.00838761217892169952392578125">
        <ele>329</ele>
        <time>2017-08-04T04:17:26.000Z</time>
        <extensions>
          <ns3:TrackPointExtension>
            <ns3:atemp>25.0</ns3:atemp>
          </ns3:TrackPointExtension>
        </extensions>
      </trkpt>
      <trkpt lat="31.6799081303179264068603515625" lon="35.00859112478792667388916015625">
        <ele>329.79998779296875</ele>
        <time>2017-08-04T04:17:30.000Z</time>
        <extensions>
          <ns3:TrackPointExtension>
            <ns3:atemp>25.0</ns3:atemp>
          </ns3:TrackPointExtension>
        </extensions>
      </trkpt>
      <trkpt lat="31.6799031011760234832763671875" lon="35.00863487832248210906982421875">
        <ele>330.20001220703125</ele>
        <time>2017-08-04T04:17:31.000Z</time>
        <extensions>
          <ns3:TrackPointExtension>
            <ns3:atemp>25.0</ns3:atemp>
          </ns3:TrackPointExtension>
        </extensions>
      </trkpt>
      <trkpt lat="31.67988742701709270477294921875" lon="35.0087223015725612640380859375">
        <ele>330.600006103515625</ele>
        <time>2017-08-04T04:17:33.000Z</time>
        <extensions>
          <ns3:TrackPointExtension>
            <ns3:atemp>25.0</ns3:atemp>
          </ns3:TrackPointExtension>
        </extensions>
      </trkpt>
      <trkpt lat="31.67983151972293853759765625" lon="35.00899546779692173004150390625">
        <ele>331.20001220703125</ele>
        <time>2017-08-04T04:17:39.000Z</time>
        <extensions>
          <ns3:TrackPointExtension>
            <ns3:atemp>25.0</ns3:atemp>
          </ns3:TrackPointExtension>
        </extensions>
      </trkpt>
      <trkpt lat="31.6798072122037410736083984375" lon="35.009075514972209930419921875">
        <ele>331.20001220703125</ele>
        <time>2017-08-04T04:17:41.000Z</time>
        <extensions>
          <ns3:TrackPointExtension>
            <ns3:atemp>25.0</ns3:atemp>
          </ns3:TrackPointExtension>
        </extensions>
      </trkpt>
      <trkpt lat="31.6797408275306224822998046875" lon="35.00931389629840850830078125">
        <ele>332</ele>
        <time>2017-08-04T04:17:47.000Z</time>
        <extensions>
          <ns3:TrackPointExtension>
            <ns3:atemp>25.0</ns3:atemp>
          </ns3:TrackPointExtension>
        </extensions>
      </trkpt>
      <trkpt lat="31.67971978895366191864013671875" lon="35.0093891657888889312744140625">
        <ele>332.20001220703125</ele>
        <time>2017-08-04T04:17:49.000Z</time>
        <extensions>
          <ns3:TrackPointExtension>
            <ns3:atemp>25.0</ns3:atemp>
          </ns3:TrackPointExtension>
        </extensions>
      </trkpt>
      <trkpt lat="31.6796617023646831512451171875" lon="35.00962461344897747039794921875">
        <ele>332.399993896484375</ele>
        <time>2017-08-04T04:17:55.000Z</time>
        <extensions>
          <ns3:TrackPointExtension>
            <ns3:atemp>25.0</ns3:atemp>
          </ns3:TrackPointExtension>
        </extensions>
      </trkpt>
      <trkpt lat="31.6795389913022518157958984375" lon="35.00989233143627643585205078125">
        <ele>332</ele>
        <time>2017-08-04T04:18:01.000Z</time>
        <extensions>
          <ns3:TrackPointExtension>
            <ns3:atemp>25.0</ns3:atemp>
          </ns3:TrackPointExtension>
        </extensions>
      </trkpt>
      <trkpt lat="31.679410748183727264404296875" lon="35.0102136097848415374755859375">
        <ele>333</ele>
        <time>2017-08-04T04:18:09.000Z</time>
        <extensions>
          <ns3:TrackPointExtension>
            <ns3:atemp>25.0</ns3:atemp>
          </ns3:TrackPointExtension>
        </extensions>
      </trkpt>
      <trkpt lat="31.67938149534165859222412109375" lon="35.01032517291605472564697265625">
        <ele>333.20001220703125</ele>
        <time>2017-08-04T04:18:12.000Z</time>
        <extensions>
          <ns3:TrackPointExtension>
            <ns3:atemp>25.0</ns3:atemp>
          </ns3:TrackPointExtension>
        </extensions>
      </trkpt>
      <trkpt lat="31.67935852892696857452392578125" lon="35.01039138995110988616943359375">
        <ele>333.600006103515625</ele>
        <time>2017-08-04T04:18:14.000Z</time>
        <extensions>
          <ns3:TrackPointExtension>
            <ns3:atemp>25.0</ns3:atemp>
          </ns3:TrackPointExtension>
        </extensions>
      </trkpt>
      <trkpt lat="31.679330952465534210205078125" lon="35.01059792004525661468505859375">
        <ele>334.399993896484375</ele>
        <time>2017-08-04T04:18:19.000Z</time>
        <extensions>
          <ns3:TrackPointExtension>
            <ns3:atemp>25.0</ns3:atemp>
          </ns3:TrackPointExtension>
        </extensions>
      </trkpt>
      <trkpt lat="31.679335646331310272216796875" lon="35.01068157143890857696533203125">
        <ele>334.399993896484375</ele>
        <time>2017-08-04T04:18:21.000Z</time>
        <extensions>
          <ns3:TrackPointExtension>
            <ns3:atemp>25.0</ns3:atemp>
          </ns3:TrackPointExtension>
        </extensions>
      </trkpt>
      <trkpt lat="31.67933723889291286468505859375" lon="35.01096605323255062103271484375">
        <ele>335.399993896484375</ele>
        <time>2017-08-04T04:18:28.000Z</time>
        <extensions>
          <ns3:TrackPointExtension>
            <ns3:atemp>25.0</ns3:atemp>
          </ns3:TrackPointExtension>
        </extensions>
      </trkpt>
      <trkpt lat="31.6793354786932468414306640625" lon="35.0110108964145183563232421875">
        <ele>335.399993896484375</ele>
        <time>2017-08-04T04:18:29.000Z</time>
        <extensions>
          <ns3:TrackPointExtension>
            <ns3:atemp>25.0</ns3:atemp>
          </ns3:TrackPointExtension>
        </extensions>
      </trkpt>
      <trkpt lat="31.6792684234678745269775390625" lon="35.011171996593475341796875">
        <ele>335.399993896484375</ele>
        <time>2017-08-04T04:18:33.000Z</time>
        <extensions>
          <ns3:TrackPointExtension>
            <ns3:atemp>25.0</ns3:atemp>
          </ns3:TrackPointExtension>
        </extensions>
      </trkpt>
      <trkpt lat="31.67915820144116878509521484375" lon="35.01136444509029388427734375">
        <ele>335.399993896484375</ele>
        <time>2017-08-04T04:18:38.000Z</time>
        <extensions>
          <ns3:TrackPointExtension>
            <ns3:atemp>25.0</ns3:atemp>
          </ns3:TrackPointExtension>
        </extensions>
      </trkpt>
      <trkpt lat="31.6791401803493499755859375" lon="35.01140895299613475799560546875">
        <ele>335.399993896484375</ele>
        <time>2017-08-04T04:18:39.000Z</time>
        <extensions>
          <ns3:TrackPointExtension>
            <ns3:atemp>24.0</ns3:atemp>
          </ns3:TrackPointExtension>
        </extensions>
      </trkpt>
      <trkpt lat="31.67905560694634914398193359375" lon="35.01160676591098308563232421875">
        <ele>336.20001220703125</ele>
        <time>2017-08-04T04:18:45.000Z</time>
        <extensions>
          <ns3:TrackPointExtension>
            <ns3:atemp>24.0</ns3:atemp>
          </ns3:TrackPointExtension>
        </extensions>
      </trkpt>
      <trkpt lat="31.679031886160373687744140625" lon="35.0116677023470401763916015625">
        <ele>336.600006103515625</ele>
        <time>2017-08-04T04:18:47.000Z</time>
        <extensions>
          <ns3:TrackPointExtension>
            <ns3:atemp>24.0</ns3:atemp>
          </ns3:TrackPointExtension>
        </extensions>
      </trkpt>
      <trkpt lat="31.67897145263850688934326171875" lon="35.01180969178676605224609375">
        <ele>337.20001220703125</ele>
        <time>2017-08-04T04:18:52.000Z</time>
        <extensions>
          <ns3:TrackPointExtension>
            <ns3:atemp>24.0</ns3:atemp>
          </ns3:TrackPointExtension>
        </extensions>
      </trkpt>
      <trkpt lat="31.67894932441413402557373046875" lon="35.011860989034175872802734375">
        <ele>338</ele>
        <time>2017-08-04T04:18:54.000Z</time>
        <extensions>
          <ns3:TrackPointExtension>
            <ns3:atemp>24.0</ns3:atemp>
          </ns3:TrackPointExtension>
        </extensions>
      </trkpt>
      <trkpt lat="31.6788865439593791961669921875" lon="35.01199074089527130126953125">
        <ele>339</ele>
        <time>2017-08-04T04:18:59.000Z</time>
        <extensions>
          <ns3:TrackPointExtension>
            <ns3:atemp>24.0</ns3:atemp>
          </ns3:TrackPointExtension>
        </extensions>
      </trkpt>
      <trkpt lat="31.67887154035270214080810546875" lon="35.01201756298542022705078125">
        <ele>339.20001220703125</ele>
        <time>2017-08-04T04:19:00.000Z</time>
        <extensions>
          <ns3:TrackPointExtension>
            <ns3:atemp>24.0</ns3:atemp>
          </ns3:TrackPointExtension>
        </extensions>
      </trkpt>
      <trkpt lat="31.678801216185092926025390625" lon="35.01213281415402889251708984375">
        <ele>340</ele>
        <time>2017-08-04T04:19:04.000Z</time>
        <extensions>
          <ns3:TrackPointExtension>
            <ns3:atemp>24.0</ns3:atemp>
          </ns3:TrackPointExtension>
        </extensions>
      </trkpt>
      <trkpt lat="31.67873986065387725830078125" lon="35.0122113525867462158203125">
        <ele>340.399993896484375</ele>
        <time>2017-08-04T04:19:07.000Z</time>
        <extensions>
          <ns3:TrackPointExtension>
            <ns3:atemp>24.0</ns3:atemp>
          </ns3:TrackPointExtension>
        </extensions>
      </trkpt>
      <trkpt lat="31.67858202941715717315673828125" lon="35.01240019686520099639892578125">
        <ele>340.79998779296875</ele>
        <time>2017-08-04T04:19:14.000Z</time>
        <extensions>
          <ns3:TrackPointExtension>
            <ns3:atemp>24.0</ns3:atemp>
          </ns3:TrackPointExtension>
        </extensions>
      </trkpt>
      <trkpt lat="31.6785274632275104522705078125" lon="35.01245954073965549468994140625">
        <ele>341</ele>
        <time>2017-08-04T04:19:16.000Z</time>
        <extensions>
          <ns3:TrackPointExtension>
            <ns3:atemp>24.0</ns3:atemp>
          </ns3:TrackPointExtension>
        </extensions>
      </trkpt>
      <trkpt lat="31.67845445685088634490966796875" lon="35.012555681169033050537109375">
        <ele>340.600006103515625</ele>
        <time>2017-08-04T04:19:19.000Z</time>
        <extensions>
          <ns3:TrackPointExtension>
            <ns3:atemp>24.0</ns3:atemp>
          </ns3:TrackPointExtension>
        </extensions>
      </trkpt>
      <trkpt lat="31.67840232141315937042236328125" lon="35.01262483187019824981689453125">
        <ele>340.600006103515625</ele>
        <time>2017-08-04T04:19:21.000Z</time>
        <extensions>
          <ns3:TrackPointExtension>
            <ns3:atemp>24.0</ns3:atemp>
          </ns3:TrackPointExtension>
        </extensions>
      </trkpt>
      <trkpt lat="31.67823703028261661529541015625" lon="35.01286505721509456634521484375">
        <ele>341</ele>
        <time>2017-08-04T04:19:28.000Z</time>
        <extensions>
          <ns3:TrackPointExtension>
            <ns3:atemp>24.0</ns3:atemp>
          </ns3:TrackPointExtension>
        </extensions>
      </trkpt>
      <trkpt lat="31.6781638562679290771484375" lon="35.012973435223102569580078125">
        <ele>341</ele>
        <time>2017-08-04T04:19:31.000Z</time>
        <extensions>
          <ns3:TrackPointExtension>
            <ns3:atemp>24.0</ns3:atemp>
          </ns3:TrackPointExtension>
        </extensions>
      </trkpt>
      <trkpt lat="31.678048186004161834716796875" lon="35.01313277520239353179931640625">
        <ele>340.20001220703125</ele>
        <time>2017-08-04T04:19:35.000Z</time>
        <extensions>
          <ns3:TrackPointExtension>
            <ns3:atemp>24.0</ns3:atemp>
          </ns3:TrackPointExtension>
        </extensions>
      </trkpt>
      <trkpt lat="31.678003929555416107177734375" lon="35.01321810297667980194091796875">
        <ele>340.20001220703125</ele>
        <time>2017-08-04T04:19:37.000Z</time>
        <extensions>
          <ns3:TrackPointExtension>
            <ns3:atemp>24.0</ns3:atemp>
          </ns3:TrackPointExtension>
        </extensions>
      </trkpt>
      <trkpt lat="31.6779675520956516265869140625" lon="35.01330343075096607208251953125">
        <ele>340.20001220703125</ele>
        <time>2017-08-04T04:19:39.000Z</time>
        <extensions>
          <ns3:TrackPointExtension>
            <ns3:atemp>24.0</ns3:atemp>
          </ns3:TrackPointExtension>
        </extensions>
      </trkpt>
      <trkpt lat="31.67793964035809040069580078125" lon="35.01339630223810672760009765625">
        <ele>340</ele>
        <time>2017-08-04T04:19:41.000Z</time>
        <extensions>
          <ns3:TrackPointExtension>
            <ns3:atemp>24.0</ns3:atemp>
          </ns3:TrackPointExtension>
        </extensions>
      </trkpt>
      <trkpt lat="31.6779239661991596221923828125" lon="35.0135439075529575347900390625">
        <ele>340</ele>
        <time>2017-08-04T04:19:44.000Z</time>
        <extensions>
          <ns3:TrackPointExtension>
            <ns3:atemp>24.0</ns3:atemp>
          </ns3:TrackPointExtension>
        </extensions>
      </trkpt>
      <trkpt lat="31.67793595232069492340087890625" lon="35.01368028111755847930908203125">
        <ele>340.399993896484375</ele>
        <time>2017-08-04T04:19:47.000Z</time>
        <extensions>
          <ns3:TrackPointExtension>
            <ns3:atemp>24.0</ns3:atemp>
          </ns3:TrackPointExtension>
        </extensions>
      </trkpt>
      <trkpt lat="31.6779621876776218414306640625" lon="35.013846494257450103759765625">
        <ele>341.20001220703125</ele>
        <time>2017-08-04T04:19:51.000Z</time>
        <extensions>
          <ns3:TrackPointExtension>
            <ns3:atemp>24.0</ns3:atemp>
          </ns3:TrackPointExtension>
        </extensions>
      </trkpt>
      <trkpt lat="31.677979119122028350830078125" lon="35.01396610401570796966552734375">
        <ele>342</ele>
        <time>2017-08-04T04:19:54.000Z</time>
        <extensions>
          <ns3:TrackPointExtension>
            <ns3:atemp>24.0</ns3:atemp>
          </ns3:TrackPointExtension>
        </extensions>
      </trkpt>
      <trkpt lat="31.67798507027328014373779296875" lon="35.01405076123774051666259765625">
        <ele>342.20001220703125</ele>
        <time>2017-08-04T04:19:56.000Z</time>
        <extensions>
          <ns3:TrackPointExtension>
            <ns3:atemp>24.0</ns3:atemp>
          </ns3:TrackPointExtension>
        </extensions>
      </trkpt>
      <trkpt lat="31.67796243913471698760986328125" lon="35.014266259968280792236328125">
        <ele>343</ele>
        <time>2017-08-04T04:20:01.000Z</time>
        <extensions>
          <ns3:TrackPointExtension>
            <ns3:atemp>24.0</ns3:atemp>
          </ns3:TrackPointExtension>
        </extensions>
      </trkpt>
      <trkpt lat="31.67788666673004627227783203125" lon="35.01444001682102680206298828125">
        <ele>342.399993896484375</ele>
        <time>2017-08-04T04:20:05.000Z</time>
        <extensions>
          <ns3:TrackPointExtension>
            <ns3:atemp>24.0</ns3:atemp>
          </ns3:TrackPointExtension>
        </extensions>
      </trkpt>
      <trkpt lat="31.677831597626209259033203125" lon="35.01451813615858554840087890625">
        <ele>342.600006103515625</ele>
        <time>2017-08-04T04:20:07.000Z</time>
        <extensions>
          <ns3:TrackPointExtension>
            <ns3:atemp>24.0</ns3:atemp>
          </ns3:TrackPointExtension>
        </extensions>
      </trkpt>
      <trkpt lat="31.67776999063789844512939453125" lon="35.01458737067878246307373046875">
        <ele>342.20001220703125</ele>
        <time>2017-08-04T04:20:09.000Z</time>
        <extensions>
          <ns3:TrackPointExtension>
            <ns3:atemp>24.0</ns3:atemp>
          </ns3:TrackPointExtension>
        </extensions>
      </trkpt>
      <trkpt lat="31.677696146070957183837890625" lon="35.0146513245999813079833984375">
        <ele>342</ele>
        <time>2017-08-04T04:20:11.000Z</time>
        <extensions>
          <ns3:TrackPointExtension>
            <ns3:atemp>24.0</ns3:atemp>
          </ns3:TrackPointExtension>
        </extensions>
      </trkpt>
      <trkpt lat="31.6776078008115291595458984375" lon="35.01469968818128108978271484375">
        <ele>341.20001220703125</ele>
        <time>2017-08-04T04:20:13.000Z</time>
        <extensions>
          <ns3:TrackPointExtension>
            <ns3:atemp>23.0</ns3:atemp>
          </ns3:TrackPointExtension>
        </extensions>
      </trkpt>
      <trkpt lat="31.67750529013574123382568359375" lon="35.01473958604037761688232421875">
        <ele>340.600006103515625</ele>
        <time>2017-08-04T04:20:15.000Z</time>
        <extensions>
          <ns3:TrackPointExtension>
            <ns3:atemp>23.0</ns3:atemp>
          </ns3:TrackPointExtension>
        </extensions>
      </trkpt>
      <trkpt lat="31.67744879610836505889892578125" lon="35.01475634984672069549560546875">
        <ele>340.20001220703125</ele>
        <time>2017-08-04T04:20:16.000Z</time>
        <extensions>
          <ns3:TrackPointExtension>
            <ns3:atemp>23.0</ns3:atemp>
          </ns3:TrackPointExtension>
        </extensions>
      </trkpt>
      <trkpt lat="31.67732440866529941558837890625" lon="35.01478157937526702880859375">
        <ele>339.20001220703125</ele>
        <time>2017-08-04T04:20:18.000Z</time>
        <extensions>
          <ns3:TrackPointExtension>
            <ns3:atemp>23.0</ns3:atemp>
          </ns3:TrackPointExtension>
        </extensions>
      </trkpt>
      <trkpt lat="31.67725835926830768585205078125" lon="35.01479876227676868438720703125">
        <ele>338.79998779296875</ele>
        <time>2017-08-04T04:20:19.000Z</time>
        <extensions>
          <ns3:TrackPointExtension>
            <ns3:atemp>23.0</ns3:atemp>
          </ns3:TrackPointExtension>
        </extensions>
      </trkpt>
      <trkpt lat="31.67719490826129913330078125" lon="35.0148333795368671417236328125">
        <ele>338.600006103515625</ele>
        <time>2017-08-04T04:20:20.000Z</time>
        <extensions>
          <ns3:TrackPointExtension>
            <ns3:atemp>23.0</ns3:atemp>
          </ns3:TrackPointExtension>
        </extensions>
      </trkpt>
      <trkpt lat="31.67713497765362262725830078125" lon="35.01488073728978633880615234375">
        <ele>337.79998779296875</ele>
        <time>2017-08-04T04:20:21.000Z</time>
        <extensions>
          <ns3:TrackPointExtension>
            <ns3:atemp>23.0</ns3:atemp>
          </ns3:TrackPointExtension>
        </extensions>
      </trkpt>
      <trkpt lat="31.67708032764494419097900390625" lon="35.014938823878765106201171875">
        <ele>337</ele>
        <time>2017-08-04T04:20:22.000Z</time>
        <extensions>
          <ns3:TrackPointExtension>
            <ns3:atemp>23.0</ns3:atemp>
          </ns3:TrackPointExtension>
        </extensions>
      </trkpt>
      <trkpt lat="31.6770344786345958709716796875" lon="35.0150050409138202667236328125">
        <ele>336.20001220703125</ele>
        <time>2017-08-04T04:20:23.000Z</time>
        <extensions>
          <ns3:TrackPointExtension>
            <ns3:atemp>23.0</ns3:atemp>
          </ns3:TrackPointExtension>
        </extensions>
      </trkpt>
      <trkpt lat="31.67692576535046100616455078125" lon="35.0152058713138103485107421875">
        <ele>335.600006103515625</ele>
        <time>2017-08-04T04:20:26.000Z</time>
        <extensions>
          <ns3:TrackPointExtension>
            <ns3:atemp>23.0</ns3:atemp>
          </ns3:TrackPointExtension>
        </extensions>
      </trkpt>
      <trkpt lat="31.67689894326031208038330078125" lon="35.01526898704469203948974609375">
        <ele>335.600006103515625</ele>
        <time>2017-08-04T04:20:27.000Z</time>
        <extensions>
          <ns3:TrackPointExtension>
            <ns3:atemp>23.0</ns3:atemp>
          </ns3:TrackPointExtension>
        </extensions>
      </trkpt>
      <trkpt lat="31.676855273544788360595703125" lon="35.01539069227874279022216796875">
        <ele>336</ele>
        <time>2017-08-04T04:20:29.000Z</time>
        <extensions>
          <ns3:TrackPointExtension>
            <ns3:atemp>23.0</ns3:atemp>
          </ns3:TrackPointExtension>
        </extensions>
      </trkpt>
      <trkpt lat="31.67680221609771251678466796875" lon="35.01556721515953540802001953125">
        <ele>336.399993896484375</ele>
        <time>2017-08-04T04:20:32.000Z</time>
        <extensions>
          <ns3:TrackPointExtension>
            <ns3:atemp>23.0</ns3:atemp>
          </ns3:TrackPointExtension>
        </extensions>
      </trkpt>
      <trkpt lat="31.67678654193878173828125" lon="35.0156776048243045806884765625">
        <ele>336.79998779296875</ele>
        <time>2017-08-04T04:20:34.000Z</time>
        <extensions>
          <ns3:TrackPointExtension>
            <ns3:atemp>23.0</ns3:atemp>
          </ns3:TrackPointExtension>
        </extensions>
      </trkpt>
      <trkpt lat="31.67677740566432476043701171875" lon="35.0157768465578556060791015625">
        <ele>337.20001220703125</ele>
        <time>2017-08-04T04:20:36.000Z</time>
        <extensions>
          <ns3:TrackPointExtension>
            <ns3:atemp>23.0</ns3:atemp>
          </ns3:TrackPointExtension>
        </extensions>
      </trkpt>
      <trkpt lat="31.67677539400756359100341796875" lon="35.01582185737788677215576171875">
        <ele>337.79998779296875</ele>
        <time>2017-08-04T04:20:37.000Z</time>
        <extensions>
          <ns3:TrackPointExtension>
            <ns3:atemp>23.0</ns3:atemp>
          </ns3:TrackPointExtension>
        </extensions>
      </trkpt>
      <trkpt lat="31.6767709515988826751708984375" lon="35.015895701944828033447265625">
        <ele>338.399993896484375</ele>
        <time>2017-08-04T04:20:39.000Z</time>
        <extensions>
          <ns3:TrackPointExtension>
            <ns3:atemp>23.0</ns3:atemp>
          </ns3:TrackPointExtension>
        </extensions>
      </trkpt>
      <trkpt lat="31.67676650919020175933837890625" lon="35.0160346738994121551513671875">
        <ele>339.20001220703125</ele>
        <time>2017-08-04T04:20:43.000Z</time>
        <extensions>
          <ns3:TrackPointExtension>
            <ns3:atemp>23.0</ns3:atemp>
          </ns3:TrackPointExtension>
        </extensions>
      </trkpt>
      <trkpt lat="31.67676131241023540496826171875" lon="35.01607012934982776641845703125">
        <ele>339.600006103515625</ele>
        <time>2017-08-04T04:20:44.000Z</time>
        <extensions>
          <ns3:TrackPointExtension>
            <ns3:atemp>23.0</ns3:atemp>
          </ns3:TrackPointExtension>
        </extensions>
      </trkpt>
      <trkpt lat="31.67675008065998554229736328125" lon="35.01627732999622821807861328125">
        <ele>340.20001220703125</ele>
        <time>2017-08-04T04:20:50.000Z</time>
        <extensions>
          <ns3:TrackPointExtension>
            <ns3:atemp>23.0</ns3:atemp>
          </ns3:TrackPointExtension>
        </extensions>
      </trkpt>
      <trkpt lat="31.67674153111875057220458984375" lon="35.016348659992218017578125">
        <ele>340.600006103515625</ele>
        <time>2017-08-04T04:20:52.000Z</time>
        <extensions>
          <ns3:TrackPointExtension>
            <ns3:atemp>23.0</ns3:atemp>
          </ns3:TrackPointExtension>
        </extensions>
      </trkpt>
      <trkpt lat="31.67672459967434406280517578125" lon="35.01641915179789066314697265625">
        <ele>341</ele>
        <time>2017-08-04T04:20:54.000Z</time>
        <extensions>
          <ns3:TrackPointExtension>
            <ns3:atemp>23.0</ns3:atemp>
          </ns3:TrackPointExtension>
        </extensions>
      </trkpt>
      <trkpt lat="31.67670481838285923004150390625" lon="35.01653012819588184356689453125">
        <ele>341.399993896484375</ele>
        <time>2017-08-04T04:20:57.000Z</time>
        <extensions>
          <ns3:TrackPointExtension>
            <ns3:atemp>23.0</ns3:atemp>
          </ns3:TrackPointExtension>
        </extensions>
      </trkpt>
      <trkpt lat="31.67667933739721775054931640625" lon="35.01666038297116756439208984375">
        <ele>341.600006103515625</ele>
        <time>2017-08-04T04:21:01.000Z</time>
        <extensions>
          <ns3:TrackPointExtension>
            <ns3:atemp>23.0</ns3:atemp>
          </ns3:TrackPointExtension>
        </extensions>
      </trkpt>
      <trkpt lat="31.67665201239287853240966796875" lon="35.0167793221771717071533203125">
        <ele>342</ele>
        <time>2017-08-04T04:21:05.000Z</time>
        <extensions>
          <ns3:TrackPointExtension>
            <ns3:atemp>23.0</ns3:atemp>
          </ns3:TrackPointExtension>
        </extensions>
      </trkpt>
      <trkpt lat="31.67663273401558399200439453125" lon="35.01690597273409366607666015625">
        <ele>342.79998779296875</ele>
        <time>2017-08-04T04:21:09.000Z</time>
        <extensions>
          <ns3:TrackPointExtension>
            <ns3:atemp>23.0</ns3:atemp>
          </ns3:TrackPointExtension>
        </extensions>
      </trkpt>
      <trkpt lat="31.6766251064836978912353515625" lon="35.016968585550785064697265625">
        <ele>342.79998779296875</ele>
        <time>2017-08-04T04:21:11.000Z</time>
        <extensions>
          <ns3:TrackPointExtension>
            <ns3:atemp>23.0</ns3:atemp>
          </ns3:TrackPointExtension>
        </extensions>
      </trkpt>
      <trkpt lat="31.67660004459321498870849609375" lon="35.017226748168468475341796875">
        <ele>343.79998779296875</ele>
        <time>2017-08-04T04:21:19.000Z</time>
        <extensions>
          <ns3:TrackPointExtension>
            <ns3:atemp>23.0</ns3:atemp>
          </ns3:TrackPointExtension>
        </extensions>
      </trkpt>
      <trkpt lat="31.67659786529839038848876953125" lon="35.0172579288482666015625">
        <ele>343.79998779296875</ele>
        <time>2017-08-04T04:21:20.000Z</time>
        <extensions>
          <ns3:TrackPointExtension>
            <ns3:atemp>23.0</ns3:atemp>
          </ns3:TrackPointExtension>
        </extensions>
      </trkpt>
      <trkpt lat="31.676583029329776763916015625" lon="35.0174847431480884552001953125">
        <ele>344.79998779296875</ele>
        <time>2017-08-04T04:21:27.000Z</time>
        <extensions>
          <ns3:TrackPointExtension>
            <ns3:atemp>23.0</ns3:atemp>
          </ns3:TrackPointExtension>
        </extensions>
      </trkpt>
      <trkpt lat="31.6765805147588253021240234375" lon="35.01751919277012348175048828125">
        <ele>345</ele>
        <time>2017-08-04T04:21:28.000Z</time>
        <extensions>
          <ns3:TrackPointExtension>
            <ns3:atemp>23.0</ns3:atemp>
          </ns3:TrackPointExtension>
        </extensions>
      </trkpt>
      <trkpt lat="31.676561571657657623291015625" lon="35.0177643634378910064697265625">
        <ele>346</ele>
        <time>2017-08-04T04:21:36.000Z</time>
        <extensions>
          <ns3:TrackPointExtension>
            <ns3:atemp>23.0</ns3:atemp>
          </ns3:TrackPointExtension>
        </extensions>
      </trkpt>
      <trkpt lat="31.67656115256249904632568359375" lon="35.0179132260382175445556640625">
        <ele>347.20001220703125</ele>
        <time>2017-08-04T04:21:41.000Z</time>
        <extensions>
          <ns3:TrackPointExtension>
            <ns3:atemp>23.0</ns3:atemp>
          </ns3:TrackPointExtension>
        </extensions>
      </trkpt>
      <trkpt lat="31.6765550337731838226318359375" lon="35.0179434008896350860595703125">
        <ele>347.600006103515625</ele>
        <time>2017-08-04T04:21:42.000Z</time>
        <extensions>
          <ns3:TrackPointExtension>
            <ns3:atemp>23.0</ns3:atemp>
          </ns3:TrackPointExtension>
        </extensions>
      </trkpt>
      <trkpt lat="31.6765292175114154815673828125" lon="35.0180647708475589752197265625">
        <ele>348.399993896484375</ele>
        <time>2017-08-04T04:21:46.000Z</time>
        <extensions>
          <ns3:TrackPointExtension>
            <ns3:atemp>23.0</ns3:atemp>
          </ns3:TrackPointExtension>
        </extensions>
      </trkpt>
      <trkpt lat="31.6765158064663410186767578125" lon="35.01812084577977657318115234375">
        <ele>348.600006103515625</ele>
        <time>2017-08-04T04:21:48.000Z</time>
        <extensions>
          <ns3:TrackPointExtension>
            <ns3:atemp>23.0</ns3:atemp>
          </ns3:TrackPointExtension>
        </extensions>
      </trkpt>
      <trkpt lat="31.6764713823795318603515625" lon="35.0183402001857757568359375">
        <ele>349.20001220703125</ele>
        <time>2017-08-04T04:21:55.000Z</time>
        <extensions>
          <ns3:TrackPointExtension>
            <ns3:atemp>23.0</ns3:atemp>
          </ns3:TrackPointExtension>
        </extensions>
      </trkpt>
      <trkpt lat="31.67646576650440692901611328125" lon="35.0183668546378612518310546875">
        <ele>349.399993896484375</ele>
        <time>2017-08-04T04:21:56.000Z</time>
        <extensions>
          <ns3:TrackPointExtension>
            <ns3:atemp>23.0</ns3:atemp>
          </ns3:TrackPointExtension>
        </extensions>
      </trkpt>
      <trkpt lat="31.6764417104423046112060546875" lon="35.01852267421782016754150390625">
        <ele>349.79998779296875</ele>
        <time>2017-08-04T04:22:01.000Z</time>
        <extensions>
          <ns3:TrackPointExtension>
            <ns3:atemp>23.0</ns3:atemp>
          </ns3:TrackPointExtension>
        </extensions>
      </trkpt>
      <trkpt lat="31.6764246113598346710205078125" lon="35.01871294341981410980224609375">
        <ele>350.20001220703125</ele>
        <time>2017-08-04T04:22:07.000Z</time>
        <extensions>
          <ns3:TrackPointExtension>
            <ns3:atemp>23.0</ns3:atemp>
          </ns3:TrackPointExtension>
        </extensions>
      </trkpt>
      <trkpt lat="31.6764192469418048858642578125" lon="35.0187953375279903411865234375">
        <ele>350.399993896484375</ele>
        <time>2017-08-04T04:22:10.000Z</time>
        <extensions>
          <ns3:TrackPointExtension>
            <ns3:atemp>23.0</ns3:atemp>
          </ns3:TrackPointExtension>
        </extensions>
      </trkpt>
      <trkpt lat="31.67640172876417636871337890625" lon="35.01888401806354522705078125">
        <ele>350.600006103515625</ele>
        <time>2017-08-04T04:22:13.000Z</time>
        <extensions>
          <ns3:TrackPointExtension>
            <ns3:atemp>23.0</ns3:atemp>
          </ns3:TrackPointExtension>
        </extensions>
      </trkpt>
      <trkpt lat="31.6764011420309543609619140625" lon="35.0190682522952556610107421875">
        <ele>351</ele>
        <time>2017-08-04T04:22:19.000Z</time>
        <extensions>
          <ns3:TrackPointExtension>
            <ns3:atemp>23.0</ns3:atemp>
          </ns3:TrackPointExtension>
        </extensions>
      </trkpt>
      <trkpt lat="31.67638094164431095123291015625" lon="35.01927821896970272064208984375">
        <ele>350.399993896484375</ele>
        <time>2017-08-04T04:22:25.000Z</time>
        <extensions>
          <ns3:TrackPointExtension>
            <ns3:atemp>23.0</ns3:atemp>
          </ns3:TrackPointExtension>
        </extensions>
      </trkpt>
      <trkpt lat="31.67636786587536334991455078125" lon="35.0195332802832126617431640625">
        <ele>350.399993896484375</ele>
        <time>2017-08-04T04:22:32.000Z</time>
        <extensions>
          <ns3:TrackPointExtension>
            <ns3:atemp>22.0</ns3:atemp>
          </ns3:TrackPointExtension>
        </extensions>
      </trkpt>
      <trkpt lat="31.6763399541378021240234375" lon="35.01981767825782299041748046875">
        <ele>349.399993896484375</ele>
        <time>2017-08-04T04:22:39.000Z</time>
        <extensions>
          <ns3:TrackPointExtension>
            <ns3:atemp>22.0</ns3:atemp>
          </ns3:TrackPointExtension>
        </extensions>
      </trkpt>
      <trkpt lat="31.67633567936718463897705078125" lon="35.01986025832593441009521484375">
        <ele>349.20001220703125</ele>
        <time>2017-08-04T04:22:40.000Z</time>
        <extensions>
          <ns3:TrackPointExtension>
            <ns3:atemp>22.0</ns3:atemp>
          </ns3:TrackPointExtension>
        </extensions>
      </trkpt>
      <trkpt lat="31.67633417062461376190185546875" lon="35.02015681006014347076416015625">
        <ele>348.399993896484375</ele>
        <time>2017-08-04T04:22:47.000Z</time>
        <extensions>
          <ns3:TrackPointExtension>
            <ns3:atemp>22.0</ns3:atemp>
          </ns3:TrackPointExtension>
        </extensions>
      </trkpt>
      <trkpt lat="31.6763481684029102325439453125" lon="35.02021397463977336883544921875">
        <ele>347.79998779296875</ele>
        <time>2017-08-04T04:22:48.000Z</time>
        <extensions>
          <ns3:TrackPointExtension>
            <ns3:atemp>22.0</ns3:atemp>
          </ns3:TrackPointExtension>
        </extensions>
      </trkpt>
      <trkpt lat="31.676408015191555023193359375" lon="35.02033668570220470428466796875">
        <ele>346.600006103515625</ele>
        <time>2017-08-04T04:22:50.000Z</time>
        <extensions>
          <ns3:TrackPointExtension>
            <ns3:atemp>22.0</ns3:atemp>
          </ns3:TrackPointExtension>
        </extensions>
      </trkpt>
      <trkpt lat="31.6764494217932224273681640625" lon="35.02040239982306957244873046875">
        <ele>346</ele>
        <time>2017-08-04T04:22:51.000Z</time>
        <extensions>
          <ns3:TrackPointExtension>
            <ns3:atemp>22.0</ns3:atemp>
          </ns3:TrackPointExtension>
        </extensions>
      </trkpt>
      <trkpt lat="31.67648118920624256134033203125" lon="35.0204673595726490020751953125">
        <ele>345.600006103515625</ele>
        <time>2017-08-04T04:22:52.000Z</time>
        <extensions>
          <ns3:TrackPointExtension>
            <ns3:atemp>22.0</ns3:atemp>
          </ns3:TrackPointExtension>
        </extensions>
      </trkpt>
      <trkpt lat="31.6765399463474750518798828125" lon="35.0206772424280643463134765625">
        <ele>344.600006103515625</ele>
        <time>2017-08-04T04:22:55.000Z</time>
        <extensions>
          <ns3:TrackPointExtension>
            <ns3:atemp>22.0</ns3:atemp>
          </ns3:TrackPointExtension>
        </extensions>
      </trkpt>
      <trkpt lat="31.676604487001895904541015625" lon="35.020803473889827728271484375">
        <ele>346</ele>
        <time>2017-08-04T04:22:58.000Z</time>
        <extensions>
          <ns3:TrackPointExtension>
            <ns3:atemp>22.0</ns3:atemp>
          </ns3:TrackPointExtension>
        </extensions>
      </trkpt>
      <trkpt lat="31.67666575871407985687255859375" lon="35.02085217274725437164306640625">
        <ele>346.20001220703125</ele>
        <time>2017-08-04T04:23:00.000Z</time>
        <extensions>
          <ns3:TrackPointExtension>
            <ns3:atemp>22.0</ns3:atemp>
          </ns3:TrackPointExtension>
        </extensions>
      </trkpt>
      <trkpt lat="31.67675259523093700408935546875" lon="35.0209461338818073272705078125">
        <ele>346.399993896484375</ele>
        <time>2017-08-04T04:23:03.000Z</time>
        <extensions>
          <ns3:TrackPointExtension>
            <ns3:atemp>22.0</ns3:atemp>
          </ns3:TrackPointExtension>
        </extensions>
      </trkpt>
      <trkpt lat="31.676845885813236236572265625" lon="35.0210939906537532806396484375">
        <ele>346.600006103515625</ele>
        <time>2017-08-04T04:23:07.000Z</time>
        <extensions>
          <ns3:TrackPointExtension>
            <ns3:atemp>22.0</ns3:atemp>
          </ns3:TrackPointExtension>
        </extensions>
      </trkpt>
      <trkpt lat="31.67688469402492046356201171875" lon="35.0211556814610958099365234375">
        <ele>347</ele>
        <time>2017-08-04T04:23:09.000Z</time>
        <extensions>
          <ns3:TrackPointExtension>
            <ns3:atemp>22.0</ns3:atemp>
          </ns3:TrackPointExtension>
        </extensions>
      </trkpt>
      <trkpt lat="31.67695594020187854766845703125" lon="35.02123271115124225616455078125">
        <ele>347.79998779296875</ele>
        <time>2017-08-04T04:23:12.000Z</time>
        <extensions>
          <ns3:TrackPointExtension>
            <ns3:atemp>22.0</ns3:atemp>
          </ns3:TrackPointExtension>
        </extensions>
      </trkpt>
      <trkpt lat="31.677019558846950531005859375" lon="35.0212834216654300689697265625">
        <ele>349</ele>
        <time>2017-08-04T04:23:15.000Z</time>
        <extensions>
          <ns3:TrackPointExtension>
            <ns3:atemp>22.0</ns3:atemp>
          </ns3:TrackPointExtension>
        </extensions>
      </trkpt>
      <trkpt lat="31.67712391354143619537353515625" lon="35.0213451124727725982666015625">
        <ele>350.20001220703125</ele>
        <time>2017-08-04T04:23:19.000Z</time>
        <extensions>
          <ns3:TrackPointExtension>
            <ns3:atemp>22.0</ns3:atemp>
          </ns3:TrackPointExtension>
        </extensions>
      </trkpt>
      <trkpt lat="31.67717705480754375457763671875" lon="35.0213702581822872161865234375">
        <ele>350.600006103515625</ele>
        <time>2017-08-04T04:23:21.000Z</time>
        <extensions>
          <ns3:TrackPointExtension>
            <ns3:atemp>22.0</ns3:atemp>
          </ns3:TrackPointExtension>
        </extensions>
      </trkpt>
      <trkpt lat="31.67724980972707271575927734375" lon="35.02141308970749378204345703125">
        <ele>351.20001220703125</ele>
        <time>2017-08-04T04:23:24.000Z</time>
        <extensions>
          <ns3:TrackPointExtension>
            <ns3:atemp>22.0</ns3:atemp>
          </ns3:TrackPointExtension>
        </extensions>
      </trkpt>
      <trkpt lat="31.67738107033073902130126953125" lon="35.02147427760064601898193359375">
        <ele>352.399993896484375</ele>
        <time>2017-08-04T04:23:29.000Z</time>
        <extensions>
          <ns3:TrackPointExtension>
            <ns3:atemp>22.0</ns3:atemp>
          </ns3:TrackPointExtension>
        </extensions>
      </trkpt>
      <trkpt lat="31.67747654020786285400390625" lon="35.02152339555323123931884765625">
        <ele>353.399993896484375</ele>
        <time>2017-08-04T04:23:33.000Z</time>
        <extensions>
          <ns3:TrackPointExtension>
            <ns3:atemp>22.0</ns3:atemp>
          </ns3:TrackPointExtension>
        </extensions>
      </trkpt>
      <trkpt lat="31.677568070590496063232421875" lon="35.02155910246074199676513671875">
        <ele>354.399993896484375</ele>
        <time>2017-08-04T04:23:37.000Z</time>
        <extensions>
          <ns3:TrackPointExtension>
            <ns3:atemp>22.0</ns3:atemp>
          </ns3:TrackPointExtension>
        </extensions>
      </trkpt>
      <trkpt lat="31.6776691563427448272705078125" lon="35.021614842116832733154296875">
        <ele>355.79998779296875</ele>
        <time>2017-08-04T04:23:42.000Z</time>
        <extensions>
          <ns3:TrackPointExtension>
            <ns3:atemp>22.0</ns3:atemp>
          </ns3:TrackPointExtension>
        </extensions>
      </trkpt>
      <trkpt lat="31.6776869259774684906005859375" lon="35.0216294266283512115478515625">
        <ele>356.399993896484375</ele>
        <time>2017-08-04T04:23:43.000Z</time>
        <extensions>
          <ns3:TrackPointExtension>
            <ns3:atemp>22.0</ns3:atemp>
          </ns3:TrackPointExtension>
        </extensions>
      </trkpt>
      <trkpt lat="31.6777266561985015869140625" lon="35.02166219986975193023681640625">
        <ele>356.79998779296875</ele>
        <time>2017-08-04T04:23:45.000Z</time>
        <extensions>
          <ns3:TrackPointExtension>
            <ns3:atemp>22.0</ns3:atemp>
          </ns3:TrackPointExtension>
        </extensions>
      </trkpt>
      <trkpt lat="31.6778017580509185791015625" lon="35.02172472886741161346435546875">
        <ele>356.79998779296875</ele>
        <time>2017-08-04T04:23:49.000Z</time>
        <extensions>
          <ns3:TrackPointExtension>
            <ns3:atemp>22.0</ns3:atemp>
          </ns3:TrackPointExtension>
        </extensions>
      </trkpt>
      <trkpt lat="31.677936203777790069580078125" lon="35.02177887596189975738525390625">
        <ele>356</ele>
        <time>2017-08-04T04:23:54.000Z</time>
        <extensions>
          <ns3:TrackPointExtension>
            <ns3:atemp>22.0</ns3:atemp>
          </ns3:TrackPointExtension>
        </extensions>
      </trkpt>
      <trkpt lat="31.67797367088496685028076171875" lon="35.02177317626774311065673828125">
        <ele>355.79998779296875</ele>
        <time>2017-08-04T04:23:57.000Z</time>
        <extensions>
          <ns3:TrackPointExtension>
            <ns3:atemp>22.0</ns3:atemp>
          </ns3:TrackPointExtension>
        </extensions>
      </trkpt>
      <trkpt lat="31.677972413599491119384765625" lon="35.02175892703235149383544921875">
        <ele>355.79998779296875</ele>
        <time>2017-08-04T04:23:58.000Z</time>
        <extensions>
          <ns3:TrackPointExtension>
            <ns3:atemp>22.0</ns3:atemp>
          </ns3:TrackPointExtension>
        </extensions>
      </trkpt>
      <trkpt lat="31.6779675520956516265869140625" lon="35.02174819819629192352294921875">
        <ele>355.600006103515625</ele>
        <time>2017-08-04T04:24:03.000Z</time>
        <extensions>
          <ns3:TrackPointExtension>
            <ns3:atemp>22.0</ns3:atemp>
          </ns3:TrackPointExtension>
        </extensions>
      </trkpt>
      <trkpt lat="31.6779675520956516265869140625" lon="35.02174819819629192352294921875">
        <ele>355.600006103515625</ele>
        <time>2017-08-04T04:24:22.000Z</time>
        <extensions>
          <ns3:TrackPointExtension>
            <ns3:atemp>22.0</ns3:atemp>
          </ns3:TrackPointExtension>
        </extensions>
      </trkpt>
      <trkpt lat="31.6779675520956516265869140625" lon="35.02174819819629192352294921875">
        <ele>355.600006103515625</ele>
        <time>2017-08-04T04:24:36.000Z</time>
        <extensions>
          <ns3:TrackPointExtension>
            <ns3:atemp>22.0</ns3:atemp>
          </ns3:TrackPointExtension>
        </extensions>
      </trkpt>
      <trkpt lat="31.67796470224857330322265625" lon="35.0217380560934543609619140625">
        <ele>355.600006103515625</ele>
        <time>2017-08-04T04:24:48.000Z</time>
        <extensions>
          <ns3:TrackPointExtension>
            <ns3:atemp>22.0</ns3:atemp>
          </ns3:TrackPointExtension>
        </extensions>
      </trkpt>
      <trkpt lat="31.6779707372188568115234375" lon="35.021717436611652374267578125">
        <ele>355.600006103515625</ele>
        <time>2017-08-04T04:24:49.000Z</time>
        <extensions>
          <ns3:TrackPointExtension>
            <ns3:atemp>22.0</ns3:atemp>
          </ns3:TrackPointExtension>
        </extensions>
      </trkpt>
      <trkpt lat="31.67803770862519741058349609375" lon="35.021672509610652923583984375">
        <ele>355</ele>
        <time>2017-08-04T04:24:51.000Z</time>
        <extensions>
          <ns3:TrackPointExtension>
            <ns3:atemp>22.0</ns3:atemp>
          </ns3:TrackPointExtension>
        </extensions>
      </trkpt>
      <trkpt lat="31.6780825518071651458740234375" lon="35.0216569192707538604736328125">
        <ele>354.600006103515625</ele>
        <time>2017-08-04T04:24:52.000Z</time>
        <extensions>
          <ns3:TrackPointExtension>
            <ns3:atemp>22.0</ns3:atemp>
          </ns3:TrackPointExtension>
        </extensions>
      </trkpt>
      <trkpt lat="31.67812697589397430419921875" lon="35.0216398201882839202880859375">
        <ele>354</ele>
        <time>2017-08-04T04:24:53.000Z</time>
        <extensions>
          <ns3:TrackPointExtension>
            <ns3:atemp>22.0</ns3:atemp>
          </ns3:TrackPointExtension>
        </extensions>
      </trkpt>
      <trkpt lat="31.67822043411433696746826171875" lon="35.02158558927476406097412109375">
        <ele>353.20001220703125</ele>
        <time>2017-08-04T04:24:55.000Z</time>
        <extensions>
          <ns3:TrackPointExtension>
            <ns3:atemp>22.0</ns3:atemp>
          </ns3:TrackPointExtension>
        </extensions>
      </trkpt>
      <trkpt lat="31.678390167653560638427734375" lon="35.021402947604656219482421875">
        <ele>353.399993896484375</ele>
        <time>2017-08-04T04:25:00.000Z</time>
        <extensions>
          <ns3:TrackPointExtension>
            <ns3:atemp>22.0</ns3:atemp>
          </ns3:TrackPointExtension>
        </extensions>
      </trkpt>
      <trkpt lat="31.678430400788784027099609375" lon="35.0213233195245265960693359375">
        <ele>354</ele>
        <time>2017-08-04T04:25:02.000Z</time>
        <extensions>
          <ns3:TrackPointExtension>
            <ns3:atemp>22.0</ns3:atemp>
          </ns3:TrackPointExtension>
        </extensions>
      </trkpt>
      <trkpt lat="31.67844607494771480560302734375" lon="35.0212817452847957611083984375">
        <ele>354.399993896484375</ele>
        <time>2017-08-04T04:25:03.000Z</time>
        <extensions>
          <ns3:TrackPointExtension>
            <ns3:atemp>22.0</ns3:atemp>
          </ns3:TrackPointExtension>
        </extensions>
      </trkpt>
      <trkpt lat="31.678472645580768585205078125" lon="35.02121410332620143890380859375">
        <ele>354.79998779296875</ele>
        <time>2017-08-04T04:25:05.000Z</time>
        <extensions>
          <ns3:TrackPointExtension>
            <ns3:atemp>22.0</ns3:atemp>
          </ns3:TrackPointExtension>
        </extensions>
      </trkpt>
      <trkpt lat="31.678484044969081878662109375" lon="35.0211546756327152252197265625">
        <ele>355.399993896484375</ele>
        <time>2017-08-04T04:25:07.000Z</time>
        <extensions>
          <ns3:TrackPointExtension>
            <ns3:atemp>22.0</ns3:atemp>
          </ns3:TrackPointExtension>
        </extensions>
      </trkpt>
      <trkpt lat="31.67850256897509098052978515625" lon="35.02103271894156932830810546875">
        <ele>356.399993896484375</ele>
        <time>2017-08-04T04:25:11.000Z</time>
        <extensions>
          <ns3:TrackPointExtension>
            <ns3:atemp>22.0</ns3:atemp>
          </ns3:TrackPointExtension>
        </extensions>
      </trkpt>
      <trkpt lat="31.67850240133702754974365234375" lon="35.020999275147914886474609375">
        <ele>356.600006103515625</ele>
        <time>2017-08-04T04:25:12.000Z</time>
        <extensions>
          <ns3:TrackPointExtension>
            <ns3:atemp>22.0</ns3:atemp>
          </ns3:TrackPointExtension>
        </extensions>
      </trkpt>
      <trkpt lat="31.67845814488828182220458984375" lon="35.02085871063172817230224609375">
        <ele>357</ele>
        <time>2017-08-04T04:25:16.000Z</time>
        <extensions>
          <ns3:TrackPointExtension>
            <ns3:atemp>22.0</ns3:atemp>
          </ns3:TrackPointExtension>
        </extensions>
      </trkpt>
      <trkpt lat="31.6783242858946323394775390625" lon="35.020694173872470855712890625">
        <ele>357.600006103515625</ele>
        <time>2017-08-04T04:25:22.000Z</time>
        <extensions>
          <ns3:TrackPointExtension>
            <ns3:atemp>22.0</ns3:atemp>
          </ns3:TrackPointExtension>
        </extensions>
      </trkpt>
      <trkpt lat="31.6782981343567371368408203125" lon="35.0206728838384151458740234375">
        <ele>357.79998779296875</ele>
        <time>2017-08-04T04:25:23.000Z</time>
        <extensions>
          <ns3:TrackPointExtension>
            <ns3:atemp>22.0</ns3:atemp>
          </ns3:TrackPointExtension>
        </extensions>
      </trkpt>
      <trkpt lat="31.67815916240215301513671875" lon="35.0205749832093715667724609375">
        <ele>358.600006103515625</ele>
        <time>2017-08-04T04:25:28.000Z</time>
        <extensions>
          <ns3:TrackPointExtension>
            <ns3:atemp>22.0</ns3:atemp>
          </ns3:TrackPointExtension>
        </extensions>
      </trkpt>
      <trkpt lat="31.6779571585357189178466796875" lon="35.0204854644834995269775390625">
        <ele>359.79998779296875</ele>
        <time>2017-08-04T04:25:35.000Z</time>
        <extensions>
          <ns3:TrackPointExtension>
            <ns3:atemp>22.0</ns3:atemp>
          </ns3:TrackPointExtension>
        </extensions>
      </trkpt>
      <trkpt lat="31.67782145552337169647216796875" lon="35.02041153609752655029296875">
        <ele>360.20001220703125</ele>
        <time>2017-08-04T04:25:40.000Z</time>
        <extensions>
          <ns3:TrackPointExtension>
            <ns3:atemp>22.0</ns3:atemp>
          </ns3:TrackPointExtension>
        </extensions>
      </trkpt>
      <trkpt lat="31.67773126624524593353271484375" lon="35.02038739621639251708984375">
        <ele>361</ele>
        <time>2017-08-04T04:25:43.000Z</time>
        <extensions>
          <ns3:TrackPointExtension>
            <ns3:atemp>22.0</ns3:atemp>
          </ns3:TrackPointExtension>
        </extensions>
      </trkpt>
      <trkpt lat="31.67762079276144504547119140625" lon="35.02037440426647663116455078125">
        <ele>361.399993896484375</ele>
        <time>2017-08-04T04:25:47.000Z</time>
        <extensions>
          <ns3:TrackPointExtension>
            <ns3:atemp>22.0</ns3:atemp>
          </ns3:TrackPointExtension>
        </extensions>
      </trkpt>
      <trkpt lat="31.67751467786729335784912109375" lon="35.02034858800470829010009765625">
        <ele>362.20001220703125</ele>
        <time>2017-08-04T04:25:51.000Z</time>
        <extensions>
          <ns3:TrackPointExtension>
            <ns3:atemp>22.0</ns3:atemp>
          </ns3:TrackPointExtension>
        </extensions>
      </trkpt>
      <trkpt lat="31.677458100020885467529296875" lon="35.02032226882874965667724609375">
        <ele>362.600006103515625</ele>
        <time>2017-08-04T04:25:53.000Z</time>
        <extensions>
          <ns3:TrackPointExtension>
            <ns3:atemp>22.0</ns3:atemp>
          </ns3:TrackPointExtension>
        </extensions>
      </trkpt>
      <trkpt lat="31.6773281805217266082763671875" lon="35.020259320735931396484375">
        <ele>363.20001220703125</ele>
        <time>2017-08-04T04:25:58.000Z</time>
        <extensions>
          <ns3:TrackPointExtension>
            <ns3:atemp>22.0</ns3:atemp>
          </ns3:TrackPointExtension>
        </extensions>
      </trkpt>
      <trkpt lat="31.67725450359284877777099609375" lon="35.02021975815296173095703125">
        <ele>363.79998779296875</ele>
        <time>2017-08-04T04:26:01.000Z</time>
        <extensions>
          <ns3:TrackPointExtension>
            <ns3:atemp>22.0</ns3:atemp>
          </ns3:TrackPointExtension>
        </extensions>
      </trkpt>
      <trkpt lat="31.67717437259852886199951171875" lon="35.02013669349253177642822265625">
        <ele>364.20001220703125</ele>
        <time>2017-08-04T04:26:05.000Z</time>
        <extensions>
          <ns3:TrackPointExtension>
            <ns3:atemp>22.0</ns3:atemp>
          </ns3:TrackPointExtension>
        </extensions>
      </trkpt>
      <trkpt lat="31.6771231591701507568359375" lon="35.02006092108786106109619140625">
        <ele>365</ele>
        <time>2017-08-04T04:26:08.000Z</time>
        <extensions>
          <ns3:TrackPointExtension>
            <ns3:atemp>22.0</ns3:atemp>
          </ns3:TrackPointExtension>
        </extensions>
      </trkpt>
      <trkpt lat="31.677089966833591461181640625" lon="35.0200085341930389404296875">
        <ele>365.399993896484375</ele>
        <time>2017-08-04T04:26:10.000Z</time>
        <extensions>
          <ns3:TrackPointExtension>
            <ns3:atemp>22.0</ns3:atemp>
          </ns3:TrackPointExtension>
        </extensions>
      </trkpt>
      <trkpt lat="31.677044369280338287353515625" lon="35.01986562274396419525146484375">
        <ele>366</ele>
        <time>2017-08-04T04:26:15.000Z</time>
        <extensions>
          <ns3:TrackPointExtension>
            <ns3:atemp>22.0</ns3:atemp>
          </ns3:TrackPointExtension>
        </extensions>
      </trkpt>
      <trkpt lat="31.67703070677816867828369140625" lon="35.01977409236133098602294921875">
        <ele>366.399993896484375</ele>
        <time>2017-08-04T04:26:18.000Z</time>
        <extensions>
          <ns3:TrackPointExtension>
            <ns3:atemp>22.0</ns3:atemp>
          </ns3:TrackPointExtension>
        </extensions>
      </trkpt>
      <trkpt lat="31.6770227439701557159423828125" lon="35.01961919479072093963623046875">
        <ele>367</ele>
        <time>2017-08-04T04:26:23.000Z</time>
        <extensions>
          <ns3:TrackPointExtension>
            <ns3:atemp>22.0</ns3:atemp>
          </ns3:TrackPointExtension>
        </extensions>
      </trkpt>
      <trkpt lat="31.6770281083881855010986328125" lon="35.01952774822711944580078125">
        <ele>367.399993896484375</ele>
        <time>2017-08-04T04:26:26.000Z</time>
        <extensions>
          <ns3:TrackPointExtension>
            <ns3:atemp>22.0</ns3:atemp>
          </ns3:TrackPointExtension>
        </extensions>
      </trkpt>
      <trkpt lat="31.6770388372242450714111328125" lon="35.01933538354933261871337890625">
        <ele>368.399993896484375</ele>
        <time>2017-08-04T04:26:32.000Z</time>
        <extensions>
          <ns3:TrackPointExtension>
            <ns3:atemp>22.0</ns3:atemp>
          </ns3:TrackPointExtension>
        </extensions>
      </trkpt>
      <trkpt lat="31.67707286775112152099609375" lon="35.01913991756737232208251953125">
        <ele>369.600006103515625</ele>
        <time>2017-08-04T04:26:39.000Z</time>
        <extensions>
          <ns3:TrackPointExtension>
            <ns3:atemp>22.0</ns3:atemp>
          </ns3:TrackPointExtension>
        </extensions>
      </trkpt>
      <trkpt lat="31.67713095434010028839111328125" lon="35.01897160895168781280517578125">
        <ele>370.600006103515625</ele>
        <time>2017-08-04T04:26:45.000Z</time>
        <extensions>
          <ns3:TrackPointExtension>
            <ns3:atemp>22.0</ns3:atemp>
          </ns3:TrackPointExtension>
        </extensions>
      </trkpt>
      <trkpt lat="31.6771565191447734832763671875" lon="35.01892156898975372314453125">
        <ele>371</ele>
        <time>2017-08-04T04:26:47.000Z</time>
        <extensions>
          <ns3:TrackPointExtension>
            <ns3:atemp>22.0</ns3:atemp>
          </ns3:TrackPointExtension>
        </extensions>
      </trkpt>
      <trkpt lat="31.67720270343124866485595703125" lon="35.0188042223453521728515625">
        <ele>371.600006103515625</ele>
        <time>2017-08-04T04:26:51.000Z</time>
        <extensions>
          <ns3:TrackPointExtension>
            <ns3:atemp>22.0</ns3:atemp>
          </ns3:TrackPointExtension>
        </extensions>
      </trkpt>
      <trkpt lat="31.6772440262138843536376953125" lon="35.0187597982585430145263671875">
        <ele>372</ele>
        <time>2017-08-04T04:26:53.000Z</time>
        <extensions>
          <ns3:TrackPointExtension>
            <ns3:atemp>22.0</ns3:atemp>
          </ns3:TrackPointExtension>
        </extensions>
      </trkpt>
      <trkpt lat="31.67729859240353107452392578125" lon="35.01869366504251956939697265625">
        <ele>372.79998779296875</ele>
        <time>2017-08-04T04:26:56.000Z</time>
        <extensions>
          <ns3:TrackPointExtension>
            <ns3:atemp>22.0</ns3:atemp>
          </ns3:TrackPointExtension>
        </extensions>
      </trkpt>
      <trkpt lat="31.67733966372907161712646484375" lon="35.0186672620475292205810546875">
        <ele>373.20001220703125</ele>
        <time>2017-08-04T04:26:58.000Z</time>
        <extensions>
          <ns3:TrackPointExtension>
            <ns3:atemp>22.0</ns3:atemp>
          </ns3:TrackPointExtension>
        </extensions>
      </trkpt>
      <trkpt lat="31.677427925169467926025390625" lon="35.01860565505921840667724609375">
        <ele>373.79998779296875</ele>
        <time>2017-08-04T04:27:02.000Z</time>
        <extensions>
          <ns3:TrackPointExtension>
            <ns3:atemp>22.0</ns3:atemp>
          </ns3:TrackPointExtension>
        </extensions>
      </trkpt>
      <trkpt lat="31.67749539948999881744384765625" lon="35.01856961287558078765869140625">
        <ele>374.399993896484375</ele>
        <time>2017-08-04T04:27:05.000Z</time>
        <extensions>
          <ns3:TrackPointExtension>
            <ns3:atemp>22.0</ns3:atemp>
          </ns3:TrackPointExtension>
        </extensions>
      </trkpt>
      <trkpt lat="31.6775722615420818328857421875" lon="35.0185586325824260711669921875">
        <ele>375</ele>
        <time>2017-08-04T04:27:08.000Z</time>
        <extensions>
          <ns3:TrackPointExtension>
            <ns3:atemp>22.0</ns3:atemp>
          </ns3:TrackPointExtension>
        </extensions>
      </trkpt>
      <trkpt lat="31.677644513547420501708984375" lon="35.01855771057307720184326171875">
        <ele>375.600006103515625</ele>
        <time>2017-08-04T04:27:11.000Z</time>
        <extensions>
          <ns3:TrackPointExtension>
            <ns3:atemp>22.0</ns3:atemp>
          </ns3:TrackPointExtension>
        </extensions>
      </trkpt>
      <trkpt lat="31.6776909492909908294677734375" lon="35.01856458373367786407470703125">
        <ele>376.20001220703125</ele>
        <time>2017-08-04T04:27:13.000Z</time>
        <extensions>
          <ns3:TrackPointExtension>
            <ns3:atemp>22.0</ns3:atemp>
          </ns3:TrackPointExtension>
        </extensions>
      </trkpt>
      <trkpt lat="31.6778267361223697662353515625" lon="35.01862116158008575439453125">
        <ele>377.20001220703125</ele>
        <time>2017-08-04T04:27:19.000Z</time>
        <extensions>
          <ns3:TrackPointExtension>
            <ns3:atemp>22.0</ns3:atemp>
          </ns3:TrackPointExtension>
        </extensions>
      </trkpt>
      <trkpt lat="31.67792849242687225341796875" lon="35.0187017954885959625244140625">
        <ele>378.20001220703125</ele>
        <time>2017-08-04T04:27:25.000Z</time>
        <extensions>
          <ns3:TrackPointExtension>
            <ns3:atemp>22.0</ns3:atemp>
          </ns3:TrackPointExtension>
        </extensions>
      </trkpt>
      <trkpt lat="31.67794852517545223236083984375" lon="35.01870967447757720947265625">
        <ele>378.399993896484375</ele>
        <time>2017-08-04T04:27:26.000Z</time>
        <extensions>
          <ns3:TrackPointExtension>
            <ns3:atemp>22.0</ns3:atemp>
          </ns3:TrackPointExtension>
        </extensions>
      </trkpt>
      <trkpt lat="31.678081043064594268798828125" lon="35.01881369389593601226806640625">
        <ele>379.399993896484375</ele>
        <time>2017-08-04T04:27:33.000Z</time>
        <extensions>
          <ns3:TrackPointExtension>
            <ns3:atemp>22.0</ns3:atemp>
          </ns3:TrackPointExtension>
        </extensions>
      </trkpt>
      <trkpt lat="31.67809881269931793212890625" lon="35.0188258476555347442626953125">
        <ele>379.600006103515625</ele>
        <time>2017-08-04T04:27:34.000Z</time>
        <extensions>
          <ns3:TrackPointExtension>
            <ns3:atemp>22.0</ns3:atemp>
          </ns3:TrackPointExtension>
        </extensions>
      </trkpt>
      <trkpt lat="31.6781908459961414337158203125" lon="35.0188855268061161041259765625">
        <ele>380.399993896484375</ele>
        <time>2017-08-04T04:27:39.000Z</time>
        <extensions>
          <ns3:TrackPointExtension>
            <ns3:atemp>22.0</ns3:atemp>
          </ns3:TrackPointExtension>
        </extensions>
      </trkpt>
      <trkpt lat="31.67826603166759014129638671875" lon="35.01893623732030391693115234375">
        <ele>381.399993896484375</ele>
        <time>2017-08-04T04:27:43.000Z</time>
        <extensions>
          <ns3:TrackPointExtension>
            <ns3:atemp>22.0</ns3:atemp>
          </ns3:TrackPointExtension>
        </extensions>
      </trkpt>
      <trkpt lat="31.67835286818444728851318359375" lon="35.01901502721011638641357421875">
        <ele>382.399993896484375</ele>
        <time>2017-08-04T04:27:49.000Z</time>
        <extensions>
          <ns3:TrackPointExtension>
            <ns3:atemp>22.0</ns3:atemp>
          </ns3:TrackPointExtension>
        </extensions>
      </trkpt>
      <trkpt lat="31.67836644686758518218994140625" lon="35.01902944408357143402099609375">
        <ele>382.600006103515625</ele>
        <time>2017-08-04T04:27:50.000Z</time>
        <extensions>
          <ns3:TrackPointExtension>
            <ns3:atemp>22.0</ns3:atemp>
          </ns3:TrackPointExtension>
        </extensions>
      </trkpt>
      <trkpt lat="31.67844213545322418212890625" lon="35.019071437418460845947265625">
        <ele>383.600006103515625</ele>
        <time>2017-08-04T04:27:55.000Z</time>
        <extensions>
          <ns3:TrackPointExtension>
            <ns3:atemp>22.0</ns3:atemp>
          </ns3:TrackPointExtension>
        </extensions>
      </trkpt>
      <trkpt lat="31.6784728132188320159912109375" lon="35.01908845268189907073974609375">
        <ele>384</ele>
        <time>2017-08-04T04:27:57.000Z</time>
        <extensions>
          <ns3:TrackPointExtension>
            <ns3:atemp>22.0</ns3:atemp>
          </ns3:TrackPointExtension>
        </extensions>
      </trkpt>
      <trkpt lat="31.6784899123013019561767578125" lon="35.01908786594867706298828125">
        <ele>384</ele>
        <time>2017-08-04T04:27:58.000Z</time>
        <extensions>
          <ns3:TrackPointExtension>
            <ns3:atemp>22.0</ns3:atemp>
          </ns3:TrackPointExtension>
        </extensions>
      </trkpt>
      <trkpt lat="31.67855939827859401702880859375" lon="35.01913614571094512939453125">
        <ele>384.600006103515625</ele>
        <time>2017-08-04T04:28:02.000Z</time>
        <extensions>
          <ns3:TrackPointExtension>
            <ns3:atemp>22.0</ns3:atemp>
          </ns3:TrackPointExtension>
        </extensions>
      </trkpt>
      <trkpt lat="31.6785744018852710723876953125" lon="35.0191467069089412689208984375">
        <ele>384.79998779296875</ele>
        <time>2017-08-04T04:28:03.000Z</time>
        <extensions>
          <ns3:TrackPointExtension>
            <ns3:atemp>22.0</ns3:atemp>
          </ns3:TrackPointExtension>
        </extensions>
      </trkpt>
      <trkpt lat="31.67864539660513401031494140625" lon="35.01920479349792003631591796875">
        <ele>385.79998779296875</ele>
        <time>2017-08-04T04:28:08.000Z</time>
        <extensions>
          <ns3:TrackPointExtension>
            <ns3:atemp>22.0</ns3:atemp>
          </ns3:TrackPointExtension>
        </extensions>
      </trkpt>
      <trkpt lat="31.67866081930696964263916015625" lon="35.019218288362026214599609375">
        <ele>386</ele>
        <time>2017-08-04T04:28:09.000Z</time>
        <extensions>
          <ns3:TrackPointExtension>
            <ns3:atemp>22.0</ns3:atemp>
          </ns3:TrackPointExtension>
        </extensions>
      </trkpt>
      <trkpt lat="31.67875939048826694488525390625" lon="35.0193093158304691314697265625">
        <ele>387</ele>
        <time>2017-08-04T04:28:16.000Z</time>
        <extensions>
          <ns3:TrackPointExtension>
            <ns3:atemp>22.0</ns3:atemp>
          </ns3:TrackPointExtension>
        </extensions>
      </trkpt>
      <trkpt lat="31.67887506075203418731689453125" lon="35.01943781040608882904052734375">
        <ele>388</ele>
        <time>2017-08-04T04:28:25.000Z</time>
        <extensions>
          <ns3:TrackPointExtension>
            <ns3:atemp>22.0</ns3:atemp>
          </ns3:TrackPointExtension>
        </extensions>
      </trkpt>
      <trkpt lat="31.67888738214969635009765625" lon="35.01945004798471927642822265625">
        <ele>388.20001220703125</ele>
        <time>2017-08-04T04:28:26.000Z</time>
        <extensions>
          <ns3:TrackPointExtension>
            <ns3:atemp>22.0</ns3:atemp>
          </ns3:TrackPointExtension>
        </extensions>
      </trkpt>
      <trkpt lat="31.67894907295703887939453125" lon="35.01952012069523334503173828125">
        <ele>389</ele>
        <time>2017-08-04T04:28:31.000Z</time>
        <extensions>
          <ns3:TrackPointExtension>
            <ns3:atemp>22.0</ns3:atemp>
          </ns3:TrackPointExtension>
        </extensions>
      </trkpt>
      <trkpt lat="31.67897480539977550506591796875" lon="35.01955213956534862518310546875">
        <ele>389.399993896484375</ele>
        <time>2017-08-04T04:28:33.000Z</time>
        <extensions>
          <ns3:TrackPointExtension>
            <ns3:atemp>22.0</ns3:atemp>
          </ns3:TrackPointExtension>
        </extensions>
      </trkpt>
      <trkpt lat="31.67903280816972255706787109375" lon="35.01962522976100444793701171875">
        <ele>390.20001220703125</ele>
        <time>2017-08-04T04:28:38.000Z</time>
        <extensions>
          <ns3:TrackPointExtension>
            <ns3:atemp>22.0</ns3:atemp>
          </ns3:TrackPointExtension>
        </extensions>
      </trkpt>
      <trkpt lat="31.6790945827960968017578125" lon="35.01969379372894763946533203125">
        <ele>391</ele>
        <time>2017-08-04T04:28:43.000Z</time>
        <extensions>
          <ns3:TrackPointExtension>
            <ns3:atemp>22.0</ns3:atemp>
          </ns3:TrackPointExtension>
        </extensions>
      </trkpt>
      <trkpt lat="31.67911729775369167327880859375" lon="35.01972614787518978118896484375">
        <ele>391.20001220703125</ele>
        <time>2017-08-04T04:28:45.000Z</time>
        <extensions>
          <ns3:TrackPointExtension>
            <ns3:atemp>22.0</ns3:atemp>
          </ns3:TrackPointExtension>
        </extensions>
      </trkpt>
      <trkpt lat="31.67917764745652675628662109375" lon="35.0198020040988922119140625">
        <ele>391.79998779296875</ele>
        <time>2017-08-04T04:28:50.000Z</time>
        <extensions>
          <ns3:TrackPointExtension>
            <ns3:atemp>22.0</ns3:atemp>
          </ns3:TrackPointExtension>
        </extensions>
      </trkpt>
      <trkpt lat="31.67919592000544071197509765625" lon="35.01983712427318096160888671875">
        <ele>392.20001220703125</ele>
        <time>2017-08-04T04:28:52.000Z</time>
        <extensions>
          <ns3:TrackPointExtension>
            <ns3:atemp>22.0</ns3:atemp>
          </ns3:TrackPointExtension>
        </extensions>
      </trkpt>
      <trkpt lat="31.6792555153369903564453125" lon="35.0199386291205883026123046875">
        <ele>393</ele>
        <time>2017-08-04T04:28:58.000Z</time>
        <extensions>
          <ns3:TrackPointExtension>
            <ns3:atemp>22.0</ns3:atemp>
          </ns3:TrackPointExtension>
        </extensions>
      </trkpt>
      <trkpt lat="31.679272949695587158203125" lon="35.01998263411223888397216796875">
        <ele>393.20001220703125</ele>
        <time>2017-08-04T04:29:00.000Z</time>
        <extensions>
          <ns3:TrackPointExtension>
            <ns3:atemp>22.0</ns3:atemp>
          </ns3:TrackPointExtension>
        </extensions>
      </trkpt>
      <trkpt lat="31.67932860553264617919921875" lon="35.0200794450938701629638671875">
        <ele>394</ele>
        <time>2017-08-04T04:29:05.000Z</time>
        <extensions>
          <ns3:TrackPointExtension>
            <ns3:atemp>22.0</ns3:atemp>
          </ns3:TrackPointExtension>
        </extensions>
      </trkpt>
      <trkpt lat="31.67938317172229290008544921875" lon="35.02024163492023944854736328125">
        <ele>394.399993896484375</ele>
        <time>2017-08-04T04:29:12.000Z</time>
        <extensions>
          <ns3:TrackPointExtension>
            <ns3:atemp>22.0</ns3:atemp>
          </ns3:TrackPointExtension>
        </extensions>
      </trkpt>
      <trkpt lat="31.67939038015902042388916015625" lon="35.020262338221073150634765625">
        <ele>394.600006103515625</ele>
        <time>2017-08-04T04:29:13.000Z</time>
        <extensions>
          <ns3:TrackPointExtension>
            <ns3:atemp>22.0</ns3:atemp>
          </ns3:TrackPointExtension>
        </extensions>
      </trkpt>
      <trkpt lat="31.67942374013364315032958984375" lon="35.02034640870988368988037109375">
        <ele>395.399993896484375</ele>
        <time>2017-08-04T04:29:17.000Z</time>
        <extensions>
          <ns3:TrackPointExtension>
            <ns3:atemp>22.0</ns3:atemp>
          </ns3:TrackPointExtension>
        </extensions>
      </trkpt>
      <trkpt lat="31.6794712655246257781982421875" lon="35.02045755274593830108642578125">
        <ele>396.20001220703125</ele>
        <time>2017-08-04T04:29:22.000Z</time>
        <extensions>
          <ns3:TrackPointExtension>
            <ns3:atemp>22.0</ns3:atemp>
          </ns3:TrackPointExtension>
        </extensions>
      </trkpt>
      <trkpt lat="31.67950236238539218902587890625" lon="35.02052661962807178497314453125">
        <ele>396.399993896484375</ele>
        <time>2017-08-04T04:29:25.000Z</time>
        <extensions>
          <ns3:TrackPointExtension>
            <ns3:atemp>22.0</ns3:atemp>
          </ns3:TrackPointExtension>
        </extensions>
      </trkpt>
      <trkpt lat="31.67957025580108165740966796875" lon="35.02065972425043582916259765625">
        <ele>397</ele>
        <time>2017-08-04T04:29:31.000Z</time>
        <extensions>
          <ns3:TrackPointExtension>
            <ns3:atemp>22.0</ns3:atemp>
          </ns3:TrackPointExtension>
        </extensions>
      </trkpt>
      <trkpt lat="31.6796095669269561767578125" lon="35.02072124741971492767333984375">
        <ele>397.600006103515625</ele>
        <time>2017-08-04T04:29:34.000Z</time>
        <extensions>
          <ns3:TrackPointExtension>
            <ns3:atemp>22.0</ns3:atemp>
          </ns3:TrackPointExtension>
        </extensions>
      </trkpt>
      <trkpt lat="31.6796566732227802276611328125" lon="35.0208418630063533782958984375">
        <ele>398.20001220703125</ele>
        <time>2017-08-04T04:29:39.000Z</time>
        <extensions>
          <ns3:TrackPointExtension>
            <ns3:atemp>22.0</ns3:atemp>
          </ns3:TrackPointExtension>
        </extensions>
      </trkpt>
      <trkpt lat="31.67968559078872203826904296875" lon="35.02091218717396259307861328125">
        <ele>398.600006103515625</ele>
        <time>2017-08-04T04:29:42.000Z</time>
        <extensions>
          <ns3:TrackPointExtension>
            <ns3:atemp>22.0</ns3:atemp>
          </ns3:TrackPointExtension>
        </extensions>
      </trkpt>
      <trkpt lat="31.6797277517616748809814453125" lon="35.0210071541368961334228515625">
        <ele>399.20001220703125</ele>
        <time>2017-08-04T04:29:46.000Z</time>
        <extensions>
          <ns3:TrackPointExtension>
            <ns3:atemp>22.0</ns3:atemp>
          </ns3:TrackPointExtension>
        </extensions>
      </trkpt>
      <trkpt lat="31.6797713376581668853759765625" lon="35.02113011665642261505126953125">
        <ele>399.600006103515625</ele>
        <time>2017-08-04T04:29:51.000Z</time>
        <extensions>
          <ns3:TrackPointExtension>
            <ns3:atemp>22.0</ns3:atemp>
          </ns3:TrackPointExtension>
        </extensions>
      </trkpt>
      <trkpt lat="31.67981634847819805145263671875" lon="35.02122650854289531707763671875">
        <ele>400.20001220703125</ele>
        <time>2017-08-04T04:29:55.000Z</time>
        <extensions>
          <ns3:TrackPointExtension>
            <ns3:atemp>22.0</ns3:atemp>
          </ns3:TrackPointExtension>
        </extensions>
      </trkpt>
      <trkpt lat="31.67985456995666027069091796875" lon="35.0213243253529071807861328125">
        <ele>400.79998779296875</ele>
        <time>2017-08-04T04:29:59.000Z</time>
        <extensions>
          <ns3:TrackPointExtension>
            <ns3:atemp>22.0</ns3:atemp>
          </ns3:TrackPointExtension>
        </extensions>
      </trkpt>
      <trkpt lat="31.6799024306237697601318359375" lon="35.02144946716725826263427734375">
        <ele>401.399993896484375</ele>
        <time>2017-08-04T04:30:04.000Z</time>
        <extensions>
          <ns3:TrackPointExtension>
            <ns3:atemp>22.0</ns3:atemp>
          </ns3:TrackPointExtension>
        </extensions>
      </trkpt>
      <trkpt lat="31.67993671260774135589599609375" lon="35.0215191207826137542724609375">
        <ele>402.20001220703125</ele>
        <time>2017-08-04T04:30:07.000Z</time>
        <extensions>
          <ns3:TrackPointExtension>
            <ns3:atemp>22.0</ns3:atemp>
          </ns3:TrackPointExtension>
        </extensions>
      </trkpt>
      <trkpt lat="31.67996068485081195831298828125" lon="35.02159439027309417724609375">
        <ele>402.600006103515625</ele>
        <time>2017-08-04T04:30:10.000Z</time>
        <extensions>
          <ns3:TrackPointExtension>
            <ns3:atemp>22.0</ns3:atemp>
          </ns3:TrackPointExtension>
        </extensions>
      </trkpt>
      <trkpt lat="31.67998482473194599151611328125" lon="35.02165834419429302215576171875">
        <ele>403.20001220703125</ele>
        <time>2017-08-04T04:30:13.000Z</time>
        <extensions>
          <ns3:TrackPointExtension>
            <ns3:atemp>22.0</ns3:atemp>
          </ns3:TrackPointExtension>
        </extensions>
      </trkpt>
      <trkpt lat="31.6800107248127460479736328125" lon="35.02172322012484073638916015625">
        <ele>403.79998779296875</ele>
        <time>2017-08-04T04:30:16.000Z</time>
        <extensions>
          <ns3:TrackPointExtension>
            <ns3:atemp>22.0</ns3:atemp>
          </ns3:TrackPointExtension>
        </extensions>
      </trkpt>
      <trkpt lat="31.680067218840122222900390625" lon="35.02186269499361515045166015625">
        <ele>404.399993896484375</ele>
        <time>2017-08-04T04:30:22.000Z</time>
        <extensions>
          <ns3:TrackPointExtension>
            <ns3:atemp>22.0</ns3:atemp>
          </ns3:TrackPointExtension>
        </extensions>
      </trkpt>
      <trkpt lat="31.68010837398469448089599609375" lon="35.0219372101128101348876953125">
        <ele>405.20001220703125</ele>
        <time>2017-08-04T04:30:26.000Z</time>
        <extensions>
          <ns3:TrackPointExtension>
            <ns3:atemp>22.0</ns3:atemp>
          </ns3:TrackPointExtension>
        </extensions>
      </trkpt>
      <trkpt lat="31.68011809699237346649169921875" lon="35.021952800452709197998046875">
        <ele>405.600006103515625</ele>
        <time>2017-08-04T04:30:27.000Z</time>
        <extensions>
          <ns3:TrackPointExtension>
            <ns3:atemp>22.0</ns3:atemp>
          </ns3:TrackPointExtension>
        </extensions>
      </trkpt>
      <trkpt lat="31.6801770217716693878173828125" lon="35.0220475159585475921630859375">
        <ele>406.399993896484375</ele>
        <time>2017-08-04T04:30:32.000Z</time>
        <extensions>
          <ns3:TrackPointExtension>
            <ns3:atemp>22.0</ns3:atemp>
          </ns3:TrackPointExtension>
        </extensions>
      </trkpt>
      <trkpt lat="31.68020434677600860595703125" lon="35.0220864079892635345458984375">
        <ele>406.600006103515625</ele>
        <time>2017-08-04T04:30:34.000Z</time>
        <extensions>
          <ns3:TrackPointExtension>
            <ns3:atemp>22.0</ns3:atemp>
          </ns3:TrackPointExtension>
        </extensions>
      </trkpt>
      <trkpt lat="31.68028271757066249847412109375" lon="35.022174753248691558837890625">
        <ele>407.600006103515625</ele>
        <time>2017-08-04T04:30:39.000Z</time>
        <extensions>
          <ns3:TrackPointExtension>
            <ns3:atemp>22.0</ns3:atemp>
          </ns3:TrackPointExtension>
        </extensions>
      </trkpt>
      <trkpt lat="31.6803004033863544464111328125" lon="35.02218849956989288330078125">
        <ele>407.79998779296875</ele>
        <time>2017-08-04T04:30:40.000Z</time>
        <extensions>
          <ns3:TrackPointExtension>
            <ns3:atemp>22.0</ns3:atemp>
          </ns3:TrackPointExtension>
        </extensions>
      </trkpt>
      <trkpt lat="31.6804008185863494873046875" lon="35.0222798623144626617431640625">
        <ele>408.600006103515625</ele>
        <time>2017-08-04T04:30:46.000Z</time>
        <extensions>
          <ns3:TrackPointExtension>
            <ns3:atemp>22.0</ns3:atemp>
          </ns3:TrackPointExtension>
        </extensions>
      </trkpt>
      <trkpt lat="31.680420935153961181640625" lon="35.022292770445346832275390625">
        <ele>409</ele>
        <time>2017-08-04T04:30:47.000Z</time>
        <extensions>
          <ns3:TrackPointExtension>
            <ns3:atemp>22.0</ns3:atemp>
          </ns3:TrackPointExtension>
        </extensions>
      </trkpt>
      <trkpt lat="31.6805376112461090087890625" lon="35.02233828417956829071044921875">
        <ele>410</ele>
        <time>2017-08-04T04:30:53.000Z</time>
        <extensions>
          <ns3:TrackPointExtension>
            <ns3:atemp>23.0</ns3:atemp>
          </ns3:TrackPointExtension>
        </extensions>
      </trkpt>
      <trkpt lat="31.68055747635662555694580078125" lon="35.0223455764353275299072265625">
        <ele>410</ele>
        <time>2017-08-04T04:30:54.000Z</time>
        <extensions>
          <ns3:TrackPointExtension>
            <ns3:atemp>23.0</ns3:atemp>
          </ns3:TrackPointExtension>
        </extensions>
      </trkpt>
      <trkpt lat="31.68067507445812225341796875" lon="35.0223858095705509185791015625">
        <ele>411</ele>
        <time>2017-08-04T04:31:00.000Z</time>
        <extensions>
          <ns3:TrackPointExtension>
            <ns3:atemp>23.0</ns3:atemp>
          </ns3:TrackPointExtension>
        </extensions>
      </trkpt>
      <trkpt lat="31.6806893236935138702392578125" lon="35.0223824568092823028564453125">
        <ele>411.20001220703125</ele>
        <time>2017-08-04T04:31:01.000Z</time>
        <extensions>
          <ns3:TrackPointExtension>
            <ns3:atemp>23.0</ns3:atemp>
          </ns3:TrackPointExtension>
        </extensions>
      </trkpt>
      <trkpt lat="31.68081882409751415252685546875" lon="35.02241908572614192962646484375">
        <ele>411.79998779296875</ele>
        <time>2017-08-04T04:31:08.000Z</time>
        <extensions>
          <ns3:TrackPointExtension>
            <ns3:atemp>23.0</ns3:atemp>
          </ns3:TrackPointExtension>
        </extensions>
      </trkpt>
      <trkpt lat="31.68083868920803070068359375" lon="35.02241405658423900604248046875">
        <ele>412</ele>
        <time>2017-08-04T04:31:09.000Z</time>
        <extensions>
          <ns3:TrackPointExtension>
            <ns3:atemp>23.0</ns3:atemp>
          </ns3:TrackPointExtension>
        </extensions>
      </trkpt>
      <trkpt lat="31.6808583028614521026611328125" lon="35.022418163716793060302734375">
        <ele>412.20001220703125</ele>
        <time>2017-08-04T04:31:10.000Z</time>
        <extensions>
          <ns3:TrackPointExtension>
            <ns3:atemp>23.0</ns3:atemp>
          </ns3:TrackPointExtension>
        </extensions>
      </trkpt>
      <trkpt lat="31.68091571889817714691162109375" lon="35.0224230252206325531005859375">
        <ele>412.600006103515625</ele>
        <time>2017-08-04T04:31:13.000Z</time>
        <extensions>
          <ns3:TrackPointExtension>
            <ns3:atemp>23.0</ns3:atemp>
          </ns3:TrackPointExtension>
        </extensions>
      </trkpt>
      <trkpt lat="31.6809776611626148223876953125" lon="35.02242562361061573028564453125">
        <ele>413.20001220703125</ele>
        <time>2017-08-04T04:31:16.000Z</time>
        <extensions>
          <ns3:TrackPointExtension>
            <ns3:atemp>23.0</ns3:atemp>
          </ns3:TrackPointExtension>
        </extensions>
      </trkpt>
      <trkpt lat="31.68108067475259304046630859375" lon="35.0224407948553562164306640625">
        <ele>413.79998779296875</ele>
        <time>2017-08-04T04:31:21.000Z</time>
        <extensions>
          <ns3:TrackPointExtension>
            <ns3:atemp>23.0</ns3:atemp>
          </ns3:TrackPointExtension>
        </extensions>
      </trkpt>
      <trkpt lat="31.68114135973155498504638671875" lon="35.022447668015956878662109375">
        <ele>414.20001220703125</ele>
        <time>2017-08-04T04:31:24.000Z</time>
        <extensions>
          <ns3:TrackPointExtension>
            <ns3:atemp>23.0</ns3:atemp>
          </ns3:TrackPointExtension>
        </extensions>
      </trkpt>
      <trkpt lat="31.681263148784637451171875" lon="35.022462420165538787841796875">
        <ele>415.20001220703125</ele>
        <time>2017-08-04T04:31:30.000Z</time>
        <extensions>
          <ns3:TrackPointExtension>
            <ns3:atemp>23.0</ns3:atemp>
          </ns3:TrackPointExtension>
        </extensions>
      </trkpt>
      <trkpt lat="31.6812827624380588531494140625" lon="35.022460408508777618408203125">
        <ele>415.399993896484375</ele>
        <time>2017-08-04T04:31:31.000Z</time>
        <extensions>
          <ns3:TrackPointExtension>
            <ns3:atemp>23.0</ns3:atemp>
          </ns3:TrackPointExtension>
        </extensions>
      </trkpt>
      <trkpt lat="31.6813991032540798187255859375" lon="35.022496618330478668212890625">
        <ele>416.20001220703125</ele>
        <time>2017-08-04T04:31:37.000Z</time>
        <extensions>
          <ns3:TrackPointExtension>
            <ns3:atemp>23.0</ns3:atemp>
          </ns3:TrackPointExtension>
        </extensions>
      </trkpt>
      <trkpt lat="31.68143874965608119964599609375" lon="35.022514723241329193115234375">
        <ele>416.399993896484375</ele>
        <time>2017-08-04T04:31:39.000Z</time>
        <extensions>
          <ns3:TrackPointExtension>
            <ns3:atemp>23.0</ns3:atemp>
          </ns3:TrackPointExtension>
        </extensions>
      </trkpt>
      <trkpt lat="31.6815000213682651519775390625" lon="35.02252369187772274017333984375">
        <ele>417</ele>
        <time>2017-08-04T04:31:42.000Z</time>
        <extensions>
          <ns3:TrackPointExtension>
            <ns3:atemp>23.0</ns3:atemp>
          </ns3:TrackPointExtension>
        </extensions>
      </trkpt>
      <trkpt lat="31.68153740465641021728515625" lon="35.0225326605141162872314453125">
        <ele>417.600006103515625</ele>
        <time>2017-08-04T04:31:44.000Z</time>
        <extensions>
          <ns3:TrackPointExtension>
            <ns3:atemp>23.0</ns3:atemp>
          </ns3:TrackPointExtension>
        </extensions>
      </trkpt>
      <trkpt lat="31.6816629655659198760986328125" lon="35.02255596220493316650390625">
        <ele>418.600006103515625</ele>
        <time>2017-08-04T04:31:50.000Z</time>
        <extensions>
          <ns3:TrackPointExtension>
            <ns3:atemp>23.0</ns3:atemp>
          </ns3:TrackPointExtension>
        </extensions>
      </trkpt>
      <trkpt lat="31.68179196305572986602783203125" lon="35.022589825093746185302734375">
        <ele>419.600006103515625</ele>
        <time>2017-08-04T04:31:57.000Z</time>
        <extensions>
          <ns3:TrackPointExtension>
            <ns3:atemp>23.0</ns3:atemp>
          </ns3:TrackPointExtension>
        </extensions>
      </trkpt>
      <trkpt lat="31.68181140907108783721923828125" lon="35.0225916691124439239501953125">
        <ele>419.600006103515625</ele>
        <time>2017-08-04T04:31:58.000Z</time>
        <extensions>
          <ns3:TrackPointExtension>
            <ns3:atemp>23.0</ns3:atemp>
          </ns3:TrackPointExtension>
        </extensions>
      </trkpt>
      <trkpt lat="31.68193110264837741851806640625" lon="35.0226263701915740966796875">
        <ele>420.600006103515625</ele>
        <time>2017-08-04T04:32:04.000Z</time>
        <extensions>
          <ns3:TrackPointExtension>
            <ns3:atemp>23.0</ns3:atemp>
          </ns3:TrackPointExtension>
        </extensions>
      </trkpt>
      <trkpt lat="31.6819509677588939666748046875" lon="35.02263550646603107452392578125">
        <ele>420.79998779296875</ele>
        <time>2017-08-04T04:32:05.000Z</time>
        <extensions>
          <ns3:TrackPointExtension>
            <ns3:atemp>23.0</ns3:atemp>
          </ns3:TrackPointExtension>
        </extensions>
      </trkpt>
      <trkpt lat="31.682074181735515594482421875" lon="35.02267532050609588623046875">
        <ele>422</ele>
        <time>2017-08-04T04:32:11.000Z</time>
        <extensions>
          <ns3:TrackPointExtension>
            <ns3:atemp>23.0</ns3:atemp>
          </ns3:TrackPointExtension>
        </extensions>
      </trkpt>
      <trkpt lat="31.68211634270846843719482421875" lon="35.02269552089273929595947265625">
        <ele>422.20001220703125</ele>
        <time>2017-08-04T04:32:13.000Z</time>
        <extensions>
          <ns3:TrackPointExtension>
            <ns3:atemp>23.0</ns3:atemp>
          </ns3:TrackPointExtension>
        </extensions>
      </trkpt>
      <trkpt lat="31.682231426239013671875" lon="35.02275419421494007110595703125">
        <ele>423</ele>
        <time>2017-08-04T04:32:19.000Z</time>
        <extensions>
          <ns3:TrackPointExtension>
            <ns3:atemp>23.0</ns3:atemp>
          </ns3:TrackPointExtension>
        </extensions>
      </trkpt>
      <trkpt lat="31.68227224610745906829833984375" lon="35.02277347259223461151123046875">
        <ele>423.600006103515625</ele>
        <time>2017-08-04T04:32:21.000Z</time>
        <extensions>
          <ns3:TrackPointExtension>
            <ns3:atemp>23.0</ns3:atemp>
          </ns3:TrackPointExtension>
        </extensions>
      </trkpt>
      <trkpt lat="31.68235019780695438385009765625" lon="35.02281437627971172332763671875">
        <ele>424.20001220703125</ele>
        <time>2017-08-04T04:32:25.000Z</time>
        <extensions>
          <ns3:TrackPointExtension>
            <ns3:atemp>23.0</ns3:atemp>
          </ns3:TrackPointExtension>
        </extensions>
      </trkpt>
      <trkpt lat="31.68242278508841991424560546875" lon="35.022854693233966827392578125">
        <ele>424.600006103515625</ele>
        <time>2017-08-04T04:32:29.000Z</time>
        <extensions>
          <ns3:TrackPointExtension>
            <ns3:atemp>23.0</ns3:atemp>
          </ns3:TrackPointExtension>
        </extensions>
      </trkpt>
      <trkpt lat="31.68249771930277347564697265625" lon="35.02290875650942325592041015625">
        <ele>425.20001220703125</ele>
        <time>2017-08-04T04:32:33.000Z</time>
        <extensions>
          <ns3:TrackPointExtension>
            <ns3:atemp>23.0</ns3:atemp>
          </ns3:TrackPointExtension>
        </extensions>
      </trkpt>
      <trkpt lat="31.6825695522129535675048828125" lon="35.02294731326401233673095703125">
        <ele>426</ele>
        <time>2017-08-04T04:32:37.000Z</time>
        <extensions>
          <ns3:TrackPointExtension>
            <ns3:atemp>23.0</ns3:atemp>
          </ns3:TrackPointExtension>
        </extensions>
      </trkpt>
      <trkpt lat="31.68262059800326824188232421875" lon="35.02298989333212375640869140625">
        <ele>426.20001220703125</ele>
        <time>2017-08-04T04:32:40.000Z</time>
        <extensions>
          <ns3:TrackPointExtension>
            <ns3:atemp>23.0</ns3:atemp>
          </ns3:TrackPointExtension>
        </extensions>
      </trkpt>
      <trkpt lat="31.6827083565294742584228515625" lon="35.02306315116584300994873046875">
        <ele>427.20001220703125</ele>
        <time>2017-08-04T04:32:45.000Z</time>
        <extensions>
          <ns3:TrackPointExtension>
            <ns3:atemp>23.0</ns3:atemp>
          </ns3:TrackPointExtension>
        </extensions>
      </trkpt>
      <trkpt lat="31.68276107870042324066162109375" lon="35.02309642732143402099609375">
        <ele>427.399993896484375</ele>
        <time>2017-08-04T04:32:48.000Z</time>
        <extensions>
          <ns3:TrackPointExtension>
            <ns3:atemp>23.0</ns3:atemp>
          </ns3:TrackPointExtension>
        </extensions>
      </trkpt>
      <trkpt lat="31.68285227380692958831787109375" lon="35.02315811812877655029296875">
        <ele>428</ele>
        <time>2017-08-04T04:32:53.000Z</time>
        <extensions>
          <ns3:TrackPointExtension>
            <ns3:atemp>23.0</ns3:atemp>
          </ns3:TrackPointExtension>
        </extensions>
      </trkpt>
      <trkpt lat="31.68288412503898143768310546875" lon="35.02319273538887500762939453125">
        <ele>428.399993896484375</ele>
        <time>2017-08-04T04:32:55.000Z</time>
        <extensions>
          <ns3:TrackPointExtension>
            <ns3:atemp>23.0</ns3:atemp>
          </ns3:TrackPointExtension>
        </extensions>
      </trkpt>
      <trkpt lat="31.6829775832593441009521484375" lon="35.0232766382396221160888671875">
        <ele>429.399993896484375</ele>
        <time>2017-08-04T04:33:01.000Z</time>
        <extensions>
          <ns3:TrackPointExtension>
            <ns3:atemp>23.0</ns3:atemp>
          </ns3:TrackPointExtension>
        </extensions>
      </trkpt>
      <trkpt lat="31.68301387690007686614990234375" lon="35.023301281034946441650390625">
        <ele>429.600006103515625</ele>
        <time>2017-08-04T04:33:03.000Z</time>
        <extensions>
          <ns3:TrackPointExtension>
            <ns3:atemp>23.0</ns3:atemp>
          </ns3:TrackPointExtension>
        </extensions>
      </trkpt>
      <trkpt lat="31.683140359818935394287109375" lon="35.02338417805731296539306640625">
        <ele>430.600006103515625</ele>
        <time>2017-08-04T04:33:10.000Z</time>
        <extensions>
          <ns3:TrackPointExtension>
            <ns3:atemp>23.0</ns3:atemp>
          </ns3:TrackPointExtension>
        </extensions>
      </trkpt>
      <trkpt lat="31.68315804563462734222412109375" lon="35.02339608035981655120849609375">
        <ele>430.79998779296875</ele>
        <time>2017-08-04T04:33:11.000Z</time>
        <extensions>
          <ns3:TrackPointExtension>
            <ns3:atemp>23.0</ns3:atemp>
          </ns3:TrackPointExtension>
        </extensions>
      </trkpt>
      <trkpt lat="31.68325142003595829010009765625" lon="35.0234808214008808135986328125">
        <ele>431.79998779296875</ele>
        <time>2017-08-04T04:33:17.000Z</time>
        <extensions>
          <ns3:TrackPointExtension>
            <ns3:atemp>23.0</ns3:atemp>
          </ns3:TrackPointExtension>
        </extensions>
      </trkpt>
      <trkpt lat="31.6832662560045719146728515625" lon="35.0234912149608135223388671875">
        <ele>432</ele>
        <time>2017-08-04T04:33:18.000Z</time>
        <extensions>
          <ns3:TrackPointExtension>
            <ns3:atemp>23.0</ns3:atemp>
          </ns3:TrackPointExtension>
        </extensions>
      </trkpt>
      <trkpt lat="31.68335971422493457794189453125" lon="35.02357813529670238494873046875">
        <ele>432.79998779296875</ele>
        <time>2017-08-04T04:33:24.000Z</time>
        <extensions>
          <ns3:TrackPointExtension>
            <ns3:atemp>23.0</ns3:atemp>
          </ns3:TrackPointExtension>
        </extensions>
      </trkpt>
      <trkpt lat="31.6834121011197566986083984375" lon="35.0236223079264163970947265625">
        <ele>433</ele>
        <time>2017-08-04T04:33:27.000Z</time>
        <extensions>
          <ns3:TrackPointExtension>
            <ns3:atemp>23.0</ns3:atemp>
          </ns3:TrackPointExtension>
        </extensions>
      </trkpt>
      <trkpt lat="31.68349399231374263763427734375" lon="35.02364200539886951446533203125">
        <ele>433.79998779296875</ele>
        <time>2017-08-04T04:33:32.000Z</time>
        <extensions>
          <ns3:TrackPointExtension>
            <ns3:atemp>23.0</ns3:atemp>
          </ns3:TrackPointExtension>
        </extensions>
      </trkpt>
      <trkpt lat="31.68351419270038604736328125" lon="35.02363546751439571380615234375">
        <ele>434.20001220703125</ele>
        <time>2017-08-04T04:33:33.000Z</time>
        <extensions>
          <ns3:TrackPointExtension>
            <ns3:atemp>23.0</ns3:atemp>
          </ns3:TrackPointExtension>
        </extensions>
      </trkpt>
      <trkpt lat="31.68360672891139984130859375" lon="35.02363161183893680572509765625">
        <ele>434.399993896484375</ele>
        <time>2017-08-04T04:33:38.000Z</time>
        <extensions>
          <ns3:TrackPointExtension>
            <ns3:atemp>23.0</ns3:atemp>
          </ns3:TrackPointExtension>
        </extensions>
      </trkpt>
      <trkpt lat="31.6836739517748355865478515625" lon="35.02357981167733669281005859375">
        <ele>434.79998779296875</ele>
        <time>2017-08-04T04:33:42.000Z</time>
        <extensions>
          <ns3:TrackPointExtension>
            <ns3:atemp>23.0</ns3:atemp>
          </ns3:TrackPointExtension>
        </extensions>
      </trkpt>
      <trkpt lat="31.68368585407733917236328125" lon="35.02355500124394893646240234375">
        <ele>434.79998779296875</ele>
        <time>2017-08-04T04:33:43.000Z</time>
        <extensions>
          <ns3:TrackPointExtension>
            <ns3:atemp>23.0</ns3:atemp>
          </ns3:TrackPointExtension>
        </extensions>
      </trkpt>
      <trkpt lat="31.68369297869503498077392578125" lon="35.02340446226298809051513671875">
        <ele>434.399993896484375</ele>
        <time>2017-08-04T04:33:48.000Z</time>
        <extensions>
          <ns3:TrackPointExtension>
            <ns3:atemp>23.0</ns3:atemp>
          </ns3:TrackPointExtension>
        </extensions>
      </trkpt>
      <trkpt lat="31.6837051324546337127685546875" lon="35.02322391606867313385009765625">
        <ele>434</ele>
        <time>2017-08-04T04:33:54.000Z</time>
        <extensions>
          <ns3:TrackPointExtension>
            <ns3:atemp>23.0</ns3:atemp>
          </ns3:TrackPointExtension>
        </extensions>
      </trkpt>
      <trkpt lat="31.6836843453347682952880859375" lon="35.02300514839589595794677734375">
        <ele>434.600006103515625</ele>
        <time>2017-08-04T04:34:01.000Z</time>
        <extensions>
          <ns3:TrackPointExtension>
            <ns3:atemp>23.0</ns3:atemp>
          </ns3:TrackPointExtension>
        </extensions>
      </trkpt>
      <trkpt lat="31.68360061012208461761474609375" lon="35.0228945910930633544921875">
        <ele>435.20001220703125</ele>
        <time>2017-08-04T04:34:06.000Z</time>
        <extensions>
          <ns3:TrackPointExtension>
            <ns3:atemp>23.0</ns3:atemp>
          </ns3:TrackPointExtension>
        </extensions>
      </trkpt>
      <trkpt lat="31.68357227928936481475830078125" lon="35.0228699482977390289306640625">
        <ele>436</ele>
        <time>2017-08-04T04:34:08.000Z</time>
        <extensions>
          <ns3:TrackPointExtension>
            <ns3:atemp>23.0</ns3:atemp>
          </ns3:TrackPointExtension>
        </extensions>
      </trkpt>
      <trkpt lat="31.6835110075771808624267578125" lon="35.02282761968672275543212890625">
        <ele>437.20001220703125</ele>
        <time>2017-08-04T04:34:12.000Z</time>
        <extensions>
          <ns3:TrackPointExtension>
            <ns3:atemp>23.0</ns3:atemp>
          </ns3:TrackPointExtension>
        </extensions>
      </trkpt>
      <trkpt lat="31.68343515135347843170166015625" lon="35.0227794237434864044189453125">
        <ele>438.20001220703125</ele>
        <time>2017-08-04T04:34:17.000Z</time>
        <extensions>
          <ns3:TrackPointExtension>
            <ns3:atemp>23.0</ns3:atemp>
          </ns3:TrackPointExtension>
        </extensions>
      </trkpt>
      <trkpt lat="31.6834191419184207916259765625" lon="35.02276626415550708770751953125">
        <ele>438.20001220703125</ele>
        <time>2017-08-04T04:34:18.000Z</time>
        <extensions>
          <ns3:TrackPointExtension>
            <ns3:atemp>23.0</ns3:atemp>
          </ns3:TrackPointExtension>
        </extensions>
      </trkpt>
      <trkpt lat="31.68336507864296436309814453125" lon="35.02265796996653079986572265625">
        <ele>439.20001220703125</ele>
        <time>2017-08-04T04:34:24.000Z</time>
        <extensions>
          <ns3:TrackPointExtension>
            <ns3:atemp>23.0</ns3:atemp>
          </ns3:TrackPointExtension>
        </extensions>
      </trkpt>
      <trkpt lat="31.68329232372343540191650390625" lon="35.0225673615932464599609375">
        <ele>439.79998779296875</ele>
        <time>2017-08-04T04:34:30.000Z</time>
        <extensions>
          <ns3:TrackPointExtension>
            <ns3:atemp>23.0</ns3:atemp>
          </ns3:TrackPointExtension>
        </extensions>
      </trkpt>
      <trkpt lat="31.68325426988303661346435546875" lon="35.02253525890409946441650390625">
        <ele>440</ele>
        <time>2017-08-04T04:34:32.000Z</time>
        <extensions>
          <ns3:TrackPointExtension>
            <ns3:atemp>23.0</ns3:atemp>
          </ns3:TrackPointExtension>
        </extensions>
      </trkpt>
      <trkpt lat="31.6831371746957302093505859375" lon="35.02242495305836200714111328125">
        <ele>440.20001220703125</ele>
        <time>2017-08-04T04:34:38.000Z</time>
        <extensions>
          <ns3:TrackPointExtension>
            <ns3:atemp>23.0</ns3:atemp>
          </ns3:TrackPointExtension>
        </extensions>
      </trkpt>
      <trkpt lat="31.68311647139489650726318359375" lon="35.02238807268440723419189453125">
        <ele>440.399993896484375</ele>
        <time>2017-08-04T04:34:40.000Z</time>
        <extensions>
          <ns3:TrackPointExtension>
            <ns3:atemp>23.0</ns3:atemp>
          </ns3:TrackPointExtension>
        </extensions>
      </trkpt>
      <trkpt lat="31.683046817779541015625" lon="35.02231028862297534942626953125">
        <ele>440.600006103515625</ele>
        <time>2017-08-04T04:34:44.000Z</time>
        <extensions>
          <ns3:TrackPointExtension>
            <ns3:atemp>23.0</ns3:atemp>
          </ns3:TrackPointExtension>
        </extensions>
      </trkpt>
      <trkpt lat="31.6829933412373065948486328125" lon="35.02218388952314853668212890625">
        <ele>441.399993896484375</ele>
        <time>2017-08-04T04:34:50.000Z</time>
        <extensions>
          <ns3:TrackPointExtension>
            <ns3:atemp>23.0</ns3:atemp>
          </ns3:TrackPointExtension>
        </extensions>
      </trkpt>
      <trkpt lat="31.68297397904098033905029296875" lon="35.02209194004535675048828125">
        <ele>442.20001220703125</ele>
        <time>2017-08-04T04:34:54.000Z</time>
        <extensions>
          <ns3:TrackPointExtension>
            <ns3:atemp>23.0</ns3:atemp>
          </ns3:TrackPointExtension>
        </extensions>
      </trkpt>
      <trkpt lat="31.68296006508171558380126953125" lon="35.02208121120929718017578125">
        <ele>442.399993896484375</ele>
        <time>2017-08-04T04:34:55.000Z</time>
        <extensions>
          <ns3:TrackPointExtension>
            <ns3:atemp>23.0</ns3:atemp>
          </ns3:TrackPointExtension>
        </extensions>
      </trkpt>
      <trkpt lat="31.68294212780892848968505859375" lon="35.02206637524068355560302734375">
        <ele>442.399993896484375</ele>
        <time>2017-08-04T04:34:56.000Z</time>
        <extensions>
          <ns3:TrackPointExtension>
            <ns3:atemp>23.0</ns3:atemp>
          </ns3:TrackPointExtension>
        </extensions>
      </trkpt>
      <trkpt lat="31.682918071746826171875" lon="35.02202815376222133636474609375">
        <ele>442.399993896484375</ele>
        <time>2017-08-04T04:34:58.000Z</time>
        <extensions>
          <ns3:TrackPointExtension>
            <ns3:atemp>23.0</ns3:atemp>
          </ns3:TrackPointExtension>
        </extensions>
      </trkpt>
      <trkpt lat="31.68286375701427459716796875" lon="35.02196495421230792999267578125">
        <ele>442.600006103515625</ele>
        <time>2017-08-04T04:35:02.000Z</time>
        <extensions>
          <ns3:TrackPointExtension>
            <ns3:atemp>23.0</ns3:atemp>
          </ns3:TrackPointExtension>
        </extensions>
      </trkpt>
      <trkpt lat="31.682850681245326995849609375" lon="35.02190795727074146270751953125">
        <ele>442.600006103515625</ele>
        <time>2017-08-04T04:35:04.000Z</time>
        <extensions>
          <ns3:TrackPointExtension>
            <ns3:atemp>23.0</ns3:atemp>
          </ns3:TrackPointExtension>
        </extensions>
      </trkpt>
      <trkpt lat="31.682844646275043487548828125" lon="35.02181810326874256134033203125">
        <ele>442.79998779296875</ele>
        <time>2017-08-04T04:35:07.000Z</time>
        <extensions>
          <ns3:TrackPointExtension>
            <ns3:atemp>23.0</ns3:atemp>
          </ns3:TrackPointExtension>
        </extensions>
      </trkpt>
      <trkpt lat="31.68285545893013477325439453125" lon="35.021793209016323089599609375">
        <ele>442.79998779296875</ele>
        <time>2017-08-04T04:35:08.000Z</time>
        <extensions>
          <ns3:TrackPointExtension>
            <ns3:atemp>23.0</ns3:atemp>
          </ns3:TrackPointExtension>
        </extensions>
      </trkpt>
      <trkpt lat="31.6828944347798824310302734375" lon="35.0217534787952899932861328125">
        <ele>443.20001220703125</ele>
        <time>2017-08-04T04:35:11.000Z</time>
        <extensions>
          <ns3:TrackPointExtension>
            <ns3:atemp>23.0</ns3:atemp>
          </ns3:TrackPointExtension>
        </extensions>
      </trkpt>
      <trkpt lat="31.6829118691384792327880859375" lon="35.02174668945372104644775390625">
        <ele>443.600006103515625</ele>
        <time>2017-08-04T04:35:12.000Z</time>
        <extensions>
          <ns3:TrackPointExtension>
            <ns3:atemp>23.0</ns3:atemp>
          </ns3:TrackPointExtension>
        </extensions>
      </trkpt>
      <trkpt lat="31.68296341784298419952392578125" lon="35.02168986015021800994873046875">
        <ele>444.600006103515625</ele>
        <time>2017-08-04T04:35:16.000Z</time>
        <extensions>
          <ns3:TrackPointExtension>
            <ns3:atemp>23.0</ns3:atemp>
          </ns3:TrackPointExtension>
        </extensions>
      </trkpt>
      <trkpt lat="31.68301236815750598907470703125" lon="35.02163822762668132781982421875">
        <ele>445.79998779296875</ele>
        <time>2017-08-04T04:35:20.000Z</time>
        <extensions>
          <ns3:TrackPointExtension>
            <ns3:atemp>23.0</ns3:atemp>
          </ns3:TrackPointExtension>
        </extensions>
      </trkpt>
      <trkpt lat="31.6830481588840484619140625" lon="35.02160654403269290924072265625">
        <ele>446.399993896484375</ele>
        <time>2017-08-04T04:35:23.000Z</time>
        <extensions>
          <ns3:TrackPointExtension>
            <ns3:atemp>23.0</ns3:atemp>
          </ns3:TrackPointExtension>
        </extensions>
      </trkpt>
      <trkpt lat="31.6831076703965663909912109375" lon="35.02158860675990581512451171875">
        <ele>447</ele>
        <time>2017-08-04T04:35:27.000Z</time>
        <extensions>
          <ns3:TrackPointExtension>
            <ns3:atemp>23.0</ns3:atemp>
          </ns3:TrackPointExtension>
        </extensions>
      </trkpt>
      <trkpt lat="31.68312032707035541534423828125" lon="35.021589361131191253662109375">
        <ele>447.20001220703125</ele>
        <time>2017-08-04T04:35:28.000Z</time>
        <extensions>
          <ns3:TrackPointExtension>
            <ns3:atemp>23.0</ns3:atemp>
          </ns3:TrackPointExtension>
        </extensions>
      </trkpt>
      <trkpt lat="31.6831864602863788604736328125" lon="35.02160704694688320159912109375">
        <ele>447.79998779296875</ele>
        <time>2017-08-04T04:35:32.000Z</time>
        <extensions>
          <ns3:TrackPointExtension>
            <ns3:atemp>23.0</ns3:atemp>
          </ns3:TrackPointExtension>
        </extensions>
      </trkpt>
      <trkpt lat="31.68321940116584300994873046875" lon="35.02161844633519649505615234375">
        <ele>448.20001220703125</ele>
        <time>2017-08-04T04:35:34.000Z</time>
        <extensions>
          <ns3:TrackPointExtension>
            <ns3:atemp>23.0</ns3:atemp>
          </ns3:TrackPointExtension>
        </extensions>
      </trkpt>
      <trkpt lat="31.68323080055415630340576171875" lon="35.02162682823836803436279296875">
        <ele>448.399993896484375</ele>
        <time>2017-08-04T04:35:35.000Z</time>
        <extensions>
          <ns3:TrackPointExtension>
            <ns3:atemp>23.0</ns3:atemp>
          </ns3:TrackPointExtension>
        </extensions>
      </trkpt>
      <trkpt lat="31.68327840976417064666748046875" lon="35.0216502137482166290283203125">
        <ele>449</ele>
        <time>2017-08-04T04:35:39.000Z</time>
        <extensions>
          <ns3:TrackPointExtension>
            <ns3:atemp>23.0</ns3:atemp>
          </ns3:TrackPointExtension>
        </extensions>
      </trkpt>
      <trkpt lat="31.68328930623829364776611328125" lon="35.02163906581699848175048828125">
        <ele>449</ele>
        <time>2017-08-04T04:35:40.000Z</time>
        <extensions>
          <ns3:TrackPointExtension>
            <ns3:atemp>23.0</ns3:atemp>
          </ns3:TrackPointExtension>
        </extensions>
      </trkpt>
      <trkpt lat="31.68327941559255123138427734375" lon="35.021602772176265716552734375">
        <ele>449.20001220703125</ele>
        <time>2017-08-04T04:35:42.000Z</time>
        <extensions>
          <ns3:TrackPointExtension>
            <ns3:atemp>23.0</ns3:atemp>
          </ns3:TrackPointExtension>
        </extensions>
      </trkpt>
      <trkpt lat="31.68326030485332012176513671875" lon="35.02159715630114078521728515625">
        <ele>449.20001220703125</ele>
        <time>2017-08-04T04:35:43.000Z</time>
        <extensions>
          <ns3:TrackPointExtension>
            <ns3:atemp>23.0</ns3:atemp>
          </ns3:TrackPointExtension>
        </extensions>
      </trkpt>
      <trkpt lat="31.683139689266681671142578125" lon="35.0216042809188365936279296875">
        <ele>448</ele>
        <time>2017-08-04T04:35:47.000Z</time>
        <extensions>
          <ns3:TrackPointExtension>
            <ns3:atemp>23.0</ns3:atemp>
          </ns3:TrackPointExtension>
        </extensions>
      </trkpt>
      <trkpt lat="31.68309601955115795135498046875" lon="35.02159866504371166229248046875">
        <ele>447.399993896484375</ele>
        <time>2017-08-04T04:35:48.000Z</time>
        <extensions>
          <ns3:TrackPointExtension>
            <ns3:atemp>23.0</ns3:atemp>
          </ns3:TrackPointExtension>
        </extensions>
      </trkpt>
      <trkpt lat="31.68304908089339733123779296875" lon="35.02160201780498027801513671875">
        <ele>446.79998779296875</ele>
        <time>2017-08-04T04:35:49.000Z</time>
        <extensions>
          <ns3:TrackPointExtension>
            <ns3:atemp>23.0</ns3:atemp>
          </ns3:TrackPointExtension>
        </extensions>
      </trkpt>
      <trkpt lat="31.6829665191471576690673828125" lon="35.02166789956390857696533203125">
        <ele>445.600006103515625</ele>
        <time>2017-08-04T04:35:51.000Z</time>
        <extensions>
          <ns3:TrackPointExtension>
            <ns3:atemp>23.0</ns3:atemp>
          </ns3:TrackPointExtension>
        </extensions>
      </trkpt>
      <trkpt lat="31.68292402289807796478271484375" lon="35.02171584405004978179931640625">
        <ele>445</ele>
        <time>2017-08-04T04:35:52.000Z</time>
        <extensions>
          <ns3:TrackPointExtension>
            <ns3:atemp>23.0</ns3:atemp>
          </ns3:TrackPointExtension>
        </extensions>
      </trkpt>
      <trkpt lat="31.68288848362863063812255859375" lon="35.0217729248106479644775390625">
        <ele>444.20001220703125</ele>
        <time>2017-08-04T04:35:53.000Z</time>
        <extensions>
          <ns3:TrackPointExtension>
            <ns3:atemp>23.0</ns3:atemp>
          </ns3:TrackPointExtension>
        </extensions>
      </trkpt>
      <trkpt lat="31.68285160325467586517333984375" lon="35.02182648517191410064697265625">
        <ele>443.399993896484375</ele>
        <time>2017-08-04T04:35:54.000Z</time>
        <extensions>
          <ns3:TrackPointExtension>
            <ns3:atemp>23.0</ns3:atemp>
          </ns3:TrackPointExtension>
        </extensions>
      </trkpt>
      <trkpt lat="31.68283685110509395599365234375" lon="35.02188482321798801422119140625">
        <ele>442.600006103515625</ele>
        <time>2017-08-04T04:35:55.000Z</time>
        <extensions>
          <ns3:TrackPointExtension>
            <ns3:atemp>23.0</ns3:atemp>
          </ns3:TrackPointExtension>
        </extensions>
      </trkpt>
      <trkpt lat="31.68284271843731403350830078125" lon="35.0219519622623920440673828125">
        <ele>442</ele>
        <time>2017-08-04T04:35:56.000Z</time>
        <extensions>
          <ns3:TrackPointExtension>
            <ns3:atemp>23.0</ns3:atemp>
          </ns3:TrackPointExtension>
        </extensions>
      </trkpt>
      <trkpt lat="31.6829086840152740478515625" lon="35.02205078490078449249267578125">
        <ele>441.600006103515625</ele>
        <time>2017-08-04T04:35:58.000Z</time>
        <extensions>
          <ns3:TrackPointExtension>
            <ns3:atemp>23.0</ns3:atemp>
          </ns3:TrackPointExtension>
        </extensions>
      </trkpt>
      <trkpt lat="31.68295092880725860595703125" lon="35.02207559533417224884033203125">
        <ele>441.20001220703125</ele>
        <time>2017-08-04T04:35:59.000Z</time>
        <extensions>
          <ns3:TrackPointExtension>
            <ns3:atemp>23.0</ns3:atemp>
          </ns3:TrackPointExtension>
        </extensions>
      </trkpt>
      <trkpt lat="31.68299677781760692596435546875" lon="35.022243820130825042724609375">
        <ele>441.600006103515625</ele>
        <time>2017-08-04T04:36:02.000Z</time>
        <extensions>
          <ns3:TrackPointExtension>
            <ns3:atemp>23.0</ns3:atemp>
          </ns3:TrackPointExtension>
        </extensions>
      </trkpt>
      <trkpt lat="31.683060228824615478515625" lon="35.0223472528159618377685546875">
        <ele>440.399993896484375</ele>
        <time>2017-08-04T04:36:04.000Z</time>
        <extensions>
          <ns3:TrackPointExtension>
            <ns3:atemp>23.0</ns3:atemp>
          </ns3:TrackPointExtension>
        </extensions>
      </trkpt>
      <trkpt lat="31.68309886939823627471923828125" lon="35.02239444293081760406494140625">
        <ele>439.79998779296875</ele>
        <time>2017-08-04T04:36:05.000Z</time>
        <extensions>
          <ns3:TrackPointExtension>
            <ns3:atemp>23.0</ns3:atemp>
          </ns3:TrackPointExtension>
        </extensions>
      </trkpt>
      <trkpt lat="31.68318168260157108306884765625" lon="35.02247876487672328948974609375">
        <ele>438.600006103515625</ele>
        <time>2017-08-04T04:36:07.000Z</time>
        <extensions>
          <ns3:TrackPointExtension>
            <ns3:atemp>23.0</ns3:atemp>
          </ns3:TrackPointExtension>
        </extensions>
      </trkpt>
      <trkpt lat="31.68331168591976165771484375" lon="35.0225806050002574920654296875">
        <ele>438.600006103515625</ele>
        <time>2017-08-04T04:36:10.000Z</time>
        <extensions>
          <ns3:TrackPointExtension>
            <ns3:atemp>23.0</ns3:atemp>
          </ns3:TrackPointExtension>
        </extensions>
      </trkpt>
      <trkpt lat="31.68333088047802448272705078125" lon="35.02259074710309505462646484375">
        <ele>439.600006103515625</ele>
        <time>2017-08-04T04:36:12.000Z</time>
        <extensions>
          <ns3:TrackPointExtension>
            <ns3:atemp>23.0</ns3:atemp>
          </ns3:TrackPointExtension>
        </extensions>
      </trkpt>
      <trkpt lat="31.68332199566066265106201171875" lon="35.022587813436985015869140625">
        <ele>440</ele>
        <time>2017-08-04T04:36:13.000Z</time>
        <extensions>
          <ns3:TrackPointExtension>
            <ns3:atemp>23.0</ns3:atemp>
          </ns3:TrackPointExtension>
        </extensions>
      </trkpt>
      <trkpt lat="31.68332702480256557464599609375" lon="35.022587813436985015869140625">
        <ele>440.20001220703125</ele>
        <time>2017-08-04T04:36:27.000Z</time>
        <extensions>
          <ns3:TrackPointExtension>
            <ns3:atemp>23.0</ns3:atemp>
          </ns3:TrackPointExtension>
        </extensions>
      </trkpt>
      <trkpt lat="31.68332702480256557464599609375" lon="35.022587813436985015869140625">
        <ele>440</ele>
        <time>2017-08-04T04:36:37.000Z</time>
        <extensions>
          <ns3:TrackPointExtension>
            <ns3:atemp>23.0</ns3:atemp>
          </ns3:TrackPointExtension>
        </extensions>
      </trkpt>
      <trkpt lat="31.68332417495548725128173828125" lon="35.022596530616283416748046875">
        <ele>440.20001220703125</ele>
        <time>2017-08-04T04:36:47.000Z</time>
        <extensions>
          <ns3:TrackPointExtension>
            <ns3:atemp>23.0</ns3:atemp>
          </ns3:TrackPointExtension>
        </extensions>
      </trkpt>
      <trkpt lat="31.683324091136455535888671875" lon="35.02261036075651645660400390625">
        <ele>440.20001220703125</ele>
        <time>2017-08-04T04:36:48.000Z</time>
        <extensions>
          <ns3:TrackPointExtension>
            <ns3:atemp>23.0</ns3:atemp>
          </ns3:TrackPointExtension>
        </extensions>
      </trkpt>
      <trkpt lat="31.68332484550774097442626953125" lon="35.0226107798516750335693359375">
        <ele>439.79998779296875</ele>
        <time>2017-08-04T04:36:52.000Z</time>
        <extensions>
          <ns3:TrackPointExtension>
            <ns3:atemp>23.0</ns3:atemp>
          </ns3:TrackPointExtension>
        </extensions>
      </trkpt>
      <trkpt lat="31.683329455554485321044921875" lon="35.02261522226035594940185546875">
        <ele>439.79998779296875</ele>
        <time>2017-08-04T04:37:00.000Z</time>
        <extensions>
          <ns3:TrackPointExtension>
            <ns3:atemp>23.0</ns3:atemp>
          </ns3:TrackPointExtension>
        </extensions>
      </trkpt>
      <trkpt lat="31.68332920409739017486572265625" lon="35.022614635527133941650390625">
        <ele>440</ele>
        <time>2017-08-04T04:37:08.000Z</time>
        <extensions>
          <ns3:TrackPointExtension>
            <ns3:atemp>24.0</ns3:atemp>
          </ns3:TrackPointExtension>
        </extensions>
      </trkpt>
      <trkpt lat="31.68332149274647235870361328125" lon="35.0226168148219585418701171875">
        <ele>439.79998779296875</ele>
        <time>2017-08-04T04:37:10.000Z</time>
        <extensions>
          <ns3:TrackPointExtension>
            <ns3:atemp>24.0</ns3:atemp>
          </ns3:TrackPointExtension>
        </extensions>
      </trkpt>
      <trkpt lat="31.68332182802259922027587890625" lon="35.02261186949908733367919921875">
        <ele>440</ele>
        <time>2017-08-04T04:37:13.000Z</time>
        <extensions>
          <ns3:TrackPointExtension>
            <ns3:atemp>24.0</ns3:atemp>
          </ns3:TrackPointExtension>
        </extensions>
      </trkpt>
      <trkpt lat="31.68332031928002834320068359375" lon="35.02260499633848667144775390625">
        <ele>440.20001220703125</ele>
        <time>2017-08-04T04:37:15.000Z</time>
        <extensions>
          <ns3:TrackPointExtension>
            <ns3:atemp>24.0</ns3:atemp>
          </ns3:TrackPointExtension>
        </extensions>
      </trkpt>
      <trkpt lat="31.68329115025699138641357421875" lon="35.02257482148706912994384765625">
        <ele>440</ele>
        <time>2017-08-04T04:37:18.000Z</time>
        <extensions>
          <ns3:TrackPointExtension>
            <ns3:atemp>24.0</ns3:atemp>
          </ns3:TrackPointExtension>
        </extensions>
      </trkpt>
      <trkpt lat="31.6831857897341251373291015625" lon="35.02247675321996212005615234375">
        <ele>439.79998779296875</ele>
        <time>2017-08-04T04:37:23.000Z</time>
        <extensions>
          <ns3:TrackPointExtension>
            <ns3:atemp>24.0</ns3:atemp>
          </ns3:TrackPointExtension>
        </extensions>
      </trkpt>
      <trkpt lat="31.68306249193847179412841796875" lon="35.0223340094089508056640625">
        <ele>440.20001220703125</ele>
        <time>2017-08-04T04:37:29.000Z</time>
        <extensions>
          <ns3:TrackPointExtension>
            <ns3:atemp>24.0</ns3:atemp>
          </ns3:TrackPointExtension>
        </extensions>
      </trkpt>
      <trkpt lat="31.683004237711429595947265625" lon="35.02221473492681980133056640625">
        <ele>440.79998779296875</ele>
        <time>2017-08-04T04:37:33.000Z</time>
        <extensions>
          <ns3:TrackPointExtension>
            <ns3:atemp>24.0</ns3:atemp>
          </ns3:TrackPointExtension>
        </extensions>
      </trkpt>
      <trkpt lat="31.682991497218608856201171875" lon="35.02215539105236530303955078125">
        <ele>441.399993896484375</ele>
        <time>2017-08-04T04:37:35.000Z</time>
        <extensions>
          <ns3:TrackPointExtension>
            <ns3:atemp>24.0</ns3:atemp>
          </ns3:TrackPointExtension>
        </extensions>
      </trkpt>
      <trkpt lat="31.68296643532812595367431640625" lon="35.02209772355854511260986328125">
        <ele>442</ele>
        <time>2017-08-04T04:37:37.000Z</time>
        <extensions>
          <ns3:TrackPointExtension>
            <ns3:atemp>24.0</ns3:atemp>
          </ns3:TrackPointExtension>
        </extensions>
      </trkpt>
      <trkpt lat="31.68291061185300350189208984375" lon="35.02203150652348995208740234375">
        <ele>442.20001220703125</ele>
        <time>2017-08-04T04:37:40.000Z</time>
        <extensions>
          <ns3:TrackPointExtension>
            <ns3:atemp>24.0</ns3:atemp>
          </ns3:TrackPointExtension>
        </extensions>
      </trkpt>
      <trkpt lat="31.68285529129207134246826171875" lon="35.02189856953918933868408203125">
        <ele>442.399993896484375</ele>
        <time>2017-08-04T04:37:44.000Z</time>
        <extensions>
          <ns3:TrackPointExtension>
            <ns3:atemp>24.0</ns3:atemp>
          </ns3:TrackPointExtension>
        </extensions>
      </trkpt>
      <trkpt lat="31.68287306092679500579833984375" lon="35.021788515150547027587890625">
        <ele>442.600006103515625</ele>
        <time>2017-08-04T04:37:47.000Z</time>
        <extensions>
          <ns3:TrackPointExtension>
            <ns3:atemp>24.0</ns3:atemp>
          </ns3:TrackPointExtension>
        </extensions>
      </trkpt>
      <trkpt lat="31.68289351277053356170654296875" lon="35.02176127396523952484130859375">
        <ele>443.20001220703125</ele>
        <time>2017-08-04T04:37:48.000Z</time>
        <extensions>
          <ns3:TrackPointExtension>
            <ns3:atemp>24.0</ns3:atemp>
          </ns3:TrackPointExtension>
        </extensions>
      </trkpt>
      <trkpt lat="31.6829447261989116668701171875" lon="35.021696649491786956787109375">
        <ele>444.20001220703125</ele>
        <time>2017-08-04T04:37:51.000Z</time>
        <extensions>
          <ns3:TrackPointExtension>
            <ns3:atemp>24.0</ns3:atemp>
          </ns3:TrackPointExtension>
        </extensions>
      </trkpt>
      <trkpt lat="31.6829816065728664398193359375" lon="35.02165080048143863677978515625">
        <ele>445.399993896484375</ele>
        <time>2017-08-04T04:37:54.000Z</time>
        <extensions>
          <ns3:TrackPointExtension>
            <ns3:atemp>24.0</ns3:atemp>
          </ns3:TrackPointExtension>
        </extensions>
      </trkpt>
      <trkpt lat="31.6830858774483203887939453125" lon="35.02157955430448055267333984375">
        <ele>446.600006103515625</ele>
        <time>2017-08-04T04:38:00.000Z</time>
        <extensions>
          <ns3:TrackPointExtension>
            <ns3:atemp>24.0</ns3:atemp>
          </ns3:TrackPointExtension>
        </extensions>
      </trkpt>
      <trkpt lat="31.6831053234636783599853515625" lon="35.021576620638370513916015625">
        <ele>446.79998779296875</ele>
        <time>2017-08-04T04:38:01.000Z</time>
        <extensions>
          <ns3:TrackPointExtension>
            <ns3:atemp>24.0</ns3:atemp>
          </ns3:TrackPointExtension>
        </extensions>
      </trkpt>
      <trkpt lat="31.68317514471709728240966796875" lon="35.0216072984039783477783203125">
        <ele>447.600006103515625</ele>
        <time>2017-08-04T04:38:05.000Z</time>
        <extensions>
          <ns3:TrackPointExtension>
            <ns3:atemp>24.0</ns3:atemp>
          </ns3:TrackPointExtension>
        </extensions>
      </trkpt>
      <trkpt lat="31.68320951052010059356689453125" lon="35.0216207094490528106689453125">
        <ele>448.20001220703125</ele>
        <time>2017-08-04T04:38:07.000Z</time>
        <extensions>
          <ns3:TrackPointExtension>
            <ns3:atemp>24.0</ns3:atemp>
          </ns3:TrackPointExtension>
        </extensions>
      </trkpt>
      <trkpt lat="31.68323784135282039642333984375" lon="35.0216297619044780731201171875">
        <ele>448.600006103515625</ele>
        <time>2017-08-04T04:38:09.000Z</time>
        <extensions>
          <ns3:TrackPointExtension>
            <ns3:atemp>24.0</ns3:atemp>
          </ns3:TrackPointExtension>
        </extensions>
      </trkpt>
      <trkpt lat="31.68327706865966320037841796875" lon="35.02165666781365871429443359375">
        <ele>449</ele>
        <time>2017-08-04T04:38:12.000Z</time>
        <extensions>
          <ns3:TrackPointExtension>
            <ns3:atemp>24.0</ns3:atemp>
          </ns3:TrackPointExtension>
        </extensions>
      </trkpt>
      <trkpt lat="31.68336667120456695556640625" lon="35.02176982350647449493408203125">
        <ele>449</ele>
        <time>2017-08-04T04:38:18.000Z</time>
        <extensions>
          <ns3:TrackPointExtension>
            <ns3:atemp>24.0</ns3:atemp>
          </ns3:TrackPointExtension>
        </extensions>
      </trkpt>
      <trkpt lat="31.68344085104763507843017578125" lon="35.02179513685405254364013671875">
        <ele>449.399993896484375</ele>
        <time>2017-08-04T04:38:22.000Z</time>
        <extensions>
          <ns3:TrackPointExtension>
            <ns3:atemp>24.0</ns3:atemp>
          </ns3:TrackPointExtension>
        </extensions>
      </trkpt>
      <trkpt lat="31.6834603808820247650146484375" lon="35.021801255643367767333984375">
        <ele>449.600006103515625</ele>
        <time>2017-08-04T04:38:24.000Z</time>
        <extensions>
          <ns3:TrackPointExtension>
            <ns3:atemp>24.0</ns3:atemp>
          </ns3:TrackPointExtension>
        </extensions>
      </trkpt>
      <trkpt lat="31.68345996178686618804931640625" lon="35.0218017585575580596923828125">
        <ele>449.79998779296875</ele>
        <time>2017-08-04T04:38:25.000Z</time>
        <extensions>
          <ns3:TrackPointExtension>
            <ns3:atemp>24.0</ns3:atemp>
          </ns3:TrackPointExtension>
        </extensions>
      </trkpt>
      <trkpt lat="31.68346901424229145050048828125" lon="35.02181458286941051483154296875">
        <ele>449.79998779296875</ele>
        <time>2017-08-04T04:38:29.000Z</time>
        <extensions>
          <ns3:TrackPointExtension>
            <ns3:atemp>24.0</ns3:atemp>
          </ns3:TrackPointExtension>
        </extensions>
      </trkpt>
      <trkpt lat="31.68347060680389404296875" lon="35.02181910909712314605712890625">
        <ele>450</ele>
        <time>2017-08-04T04:38:43.000Z</time>
        <extensions>
          <ns3:TrackPointExtension>
            <ns3:atemp>24.0</ns3:atemp>
          </ns3:TrackPointExtension>
        </extensions>
      </trkpt>
      <trkpt lat="31.68347060680389404296875" lon="35.02181910909712314605712890625">
        <ele>450</ele>
        <time>2017-08-04T04:38:56.000Z</time>
        <extensions>
          <ns3:TrackPointExtension>
            <ns3:atemp>24.0</ns3:atemp>
          </ns3:TrackPointExtension>
        </extensions>
      </trkpt>
      <trkpt lat="31.68347261846065521240234375" lon="35.02181760035455226898193359375">
        <ele>449.79998779296875</ele>
        <time>2017-08-04T04:39:14.000Z</time>
        <extensions>
          <ns3:TrackPointExtension>
            <ns3:atemp>24.0</ns3:atemp>
          </ns3:TrackPointExtension>
        </extensions>
      </trkpt>
      <trkpt lat="31.68347261846065521240234375" lon="35.02181760035455226898193359375">
        <ele>450</ele>
        <time>2017-08-04T04:39:19.000Z</time>
        <extensions>
          <ns3:TrackPointExtension>
            <ns3:atemp>24.0</ns3:atemp>
          </ns3:TrackPointExtension>
        </extensions>
      </trkpt>
      <trkpt lat="31.68347261846065521240234375" lon="35.02181760035455226898193359375">
        <ele>449.79998779296875</ele>
        <time>2017-08-04T04:39:24.000Z</time>
        <extensions>
          <ns3:TrackPointExtension>
            <ns3:atemp>24.0</ns3:atemp>
          </ns3:TrackPointExtension>
        </extensions>
      </trkpt>
      <trkpt lat="31.68347261846065521240234375" lon="35.02181760035455226898193359375">
        <ele>449.79998779296875</ele>
        <time>2017-08-04T04:39:41.000Z</time>
        <extensions>
          <ns3:TrackPointExtension>
            <ns3:atemp>24.0</ns3:atemp>
          </ns3:TrackPointExtension>
        </extensions>
      </trkpt>
      <trkpt lat="31.68347060680389404296875" lon="35.02181592397391796112060546875">
        <ele>449.79998779296875</ele>
        <time>2017-08-04T04:39:59.000Z</time>
        <extensions>
          <ns3:TrackPointExtension>
            <ns3:atemp>24.0</ns3:atemp>
          </ns3:TrackPointExtension>
        </extensions>
      </trkpt>
      <trkpt lat="31.68347060680389404296875" lon="35.02181592397391796112060546875">
        <ele>449.79998779296875</ele>
        <time>2017-08-04T04:40:13.000Z</time>
        <extensions>
          <ns3:TrackPointExtension>
            <ns3:atemp>24.0</ns3:atemp>
          </ns3:TrackPointExtension>
        </extensions>
      </trkpt>
      <trkpt lat="31.68347060680389404296875" lon="35.02181592397391796112060546875">
        <ele>449.79998779296875</ele>
        <time>2017-08-04T04:40:24.000Z</time>
        <extensions>
          <ns3:TrackPointExtension>
            <ns3:atemp>25.0</ns3:atemp>
          </ns3:TrackPointExtension>
        </extensions>
      </trkpt>
      <trkpt lat="31.68347060680389404296875" lon="35.0218144990503787994384765625">
        <ele>449.600006103515625</ele>
        <time>2017-08-04T04:40:31.000Z</time>
        <extensions>
          <ns3:TrackPointExtension>
            <ns3:atemp>25.0</ns3:atemp>
          </ns3:TrackPointExtension>
        </extensions>
      </trkpt>
      <trkpt lat="31.68347060680389404296875" lon="35.0218144990503787994384765625">
        <ele>449.79998779296875</ele>
        <time>2017-08-04T04:40:44.000Z</time>
        <extensions>
          <ns3:TrackPointExtension>
            <ns3:atemp>25.0</ns3:atemp>
          </ns3:TrackPointExtension>
        </extensions>
      </trkpt>
      <trkpt lat="31.68347060680389404296875" lon="35.0218144990503787994384765625">
        <ele>449.600006103515625</ele>
        <time>2017-08-04T04:40:59.000Z</time>
        <extensions>
          <ns3:TrackPointExtension>
            <ns3:atemp>25.0</ns3:atemp>
          </ns3:TrackPointExtension>
        </extensions>
      </trkpt>
      <trkpt lat="31.683470271527767181396484375" lon="35.021811984479427337646484375">
        <ele>449.600006103515625</ele>
        <time>2017-08-04T04:41:16.000Z</time>
        <extensions>
          <ns3:TrackPointExtension>
            <ns3:atemp>25.0</ns3:atemp>
          </ns3:TrackPointExtension>
        </extensions>
      </trkpt>
      <trkpt lat="31.683470271527767181396484375" lon="35.021811984479427337646484375">
        <ele>449.600006103515625</ele>
        <time>2017-08-04T04:41:28.000Z</time>
        <extensions>
          <ns3:TrackPointExtension>
            <ns3:atemp>25.0</ns3:atemp>
          </ns3:TrackPointExtension>
        </extensions>
      </trkpt>
      <trkpt lat="31.683470271527767181396484375" lon="35.021811984479427337646484375">
        <ele>449.79998779296875</ele>
        <time>2017-08-04T04:41:36.000Z</time>
        <extensions>
          <ns3:TrackPointExtension>
            <ns3:atemp>25.0</ns3:atemp>
          </ns3:TrackPointExtension>
        </extensions>
      </trkpt>
      <trkpt lat="31.683470271527767181396484375" lon="35.021811984479427337646484375">
        <ele>449.600006103515625</ele>
        <time>2017-08-04T04:41:46.000Z</time>
        <extensions>
          <ns3:TrackPointExtension>
            <ns3:atemp>25.0</ns3:atemp>
          </ns3:TrackPointExtension>
        </extensions>
      </trkpt>
      <trkpt lat="31.6834704391658306121826171875" lon="35.02181609161198139190673828125">
        <ele>449.600006103515625</ele>
        <time>2017-08-04T04:41:51.000Z</time>
        <extensions>
          <ns3:TrackPointExtension>
            <ns3:atemp>25.0</ns3:atemp>
          </ns3:TrackPointExtension>
        </extensions>
      </trkpt>
      <trkpt lat="31.6834704391658306121826171875" lon="35.02181609161198139190673828125">
        <ele>449.600006103515625</ele>
        <time>2017-08-04T04:42:01.000Z</time>
        <extensions>
          <ns3:TrackPointExtension>
            <ns3:atemp>25.0</ns3:atemp>
          </ns3:TrackPointExtension>
        </extensions>
      </trkpt>
      <trkpt lat="31.6834704391658306121826171875" lon="35.02181609161198139190673828125">
        <ele>449.79998779296875</ele>
        <time>2017-08-04T04:42:15.000Z</time>
        <extensions>
          <ns3:TrackPointExtension>
            <ns3:atemp>25.0</ns3:atemp>
          </ns3:TrackPointExtension>
        </extensions>
      </trkpt>
      <trkpt lat="31.6834694333374500274658203125" lon="35.02182430587708950042724609375">
        <ele>449.600006103515625</ele>
        <time>2017-08-04T04:42:29.000Z</time>
        <extensions>
          <ns3:TrackPointExtension>
            <ns3:atemp>25.0</ns3:atemp>
          </ns3:TrackPointExtension>
        </extensions>
      </trkpt>
      <trkpt lat="31.6834694333374500274658203125" lon="35.02182430587708950042724609375">
        <ele>449.600006103515625</ele>
        <time>2017-08-04T04:42:46.000Z</time>
        <extensions>
          <ns3:TrackPointExtension>
            <ns3:atemp>25.0</ns3:atemp>
          </ns3:TrackPointExtension>
        </extensions>
      </trkpt>
      <trkpt lat="31.6834694333374500274658203125" lon="35.02182430587708950042724609375">
        <ele>449.79998779296875</ele>
        <time>2017-08-04T04:43:00.000Z</time>
        <extensions>
          <ns3:TrackPointExtension>
            <ns3:atemp>26.0</ns3:atemp>
          </ns3:TrackPointExtension>
        </extensions>
      </trkpt>
      <trkpt lat="31.6834778152406215667724609375" lon="35.02182967029511928558349609375">
        <ele>449.79998779296875</ele>
        <time>2017-08-04T04:43:15.000Z</time>
        <extensions>
          <ns3:TrackPointExtension>
            <ns3:atemp>26.0</ns3:atemp>
          </ns3:TrackPointExtension>
        </extensions>
      </trkpt>
      <trkpt lat="31.6834778152406215667724609375" lon="35.02182967029511928558349609375">
        <ele>449.79998779296875</ele>
        <time>2017-08-04T04:43:28.000Z</time>
        <extensions>
          <ns3:TrackPointExtension>
            <ns3:atemp>26.0</ns3:atemp>
          </ns3:TrackPointExtension>
        </extensions>
      </trkpt>
      <trkpt lat="31.6834778152406215667724609375" lon="35.02182967029511928558349609375">
        <ele>449.600006103515625</ele>
        <time>2017-08-04T04:43:45.000Z</time>
        <extensions>
          <ns3:TrackPointExtension>
            <ns3:atemp>26.0</ns3:atemp>
          </ns3:TrackPointExtension>
        </extensions>
      </trkpt>
      <trkpt lat="31.68347555212676525115966796875" lon="35.02183201722800731658935546875">
        <ele>449.79998779296875</ele>
        <time>2017-08-04T04:43:59.000Z</time>
        <extensions>
          <ns3:TrackPointExtension>
            <ns3:atemp>26.0</ns3:atemp>
          </ns3:TrackPointExtension>
        </extensions>
      </trkpt>
      <trkpt lat="31.68347555212676525115966796875" lon="35.02183201722800731658935546875">
        <ele>449.79998779296875</ele>
        <time>2017-08-04T04:44:10.000Z</time>
        <extensions>
          <ns3:TrackPointExtension>
            <ns3:atemp>26.0</ns3:atemp>
          </ns3:TrackPointExtension>
        </extensions>
      </trkpt>
      <trkpt lat="31.68347555212676525115966796875" lon="35.02183201722800731658935546875">
        <ele>449.79998779296875</ele>
        <time>2017-08-04T04:44:19.000Z</time>
        <extensions>
          <ns3:TrackPointExtension>
            <ns3:atemp>26.0</ns3:atemp>
          </ns3:TrackPointExtension>
        </extensions>
      </trkpt>
      <trkpt lat="31.683474965393543243408203125" lon="35.0218386389315128326416015625">
        <ele>449.79998779296875</ele>
        <time>2017-08-04T04:44:31.000Z</time>
        <extensions>
          <ns3:TrackPointExtension>
            <ns3:atemp>26.0</ns3:atemp>
          </ns3:TrackPointExtension>
        </extensions>
      </trkpt>
      <trkpt lat="31.683474965393543243408203125" lon="35.0218386389315128326416015625">
        <ele>449.600006103515625</ele>
        <time>2017-08-04T04:44:49.000Z</time>
        <extensions>
          <ns3:TrackPointExtension>
            <ns3:atemp>26.0</ns3:atemp>
          </ns3:TrackPointExtension>
        </extensions>
      </trkpt>
      <trkpt lat="31.683474965393543243408203125" lon="35.0218386389315128326416015625">
        <ele>449.79998779296875</ele>
        <time>2017-08-04T04:45:03.000Z</time>
        <extensions>
          <ns3:TrackPointExtension>
            <ns3:atemp>26.0</ns3:atemp>
          </ns3:TrackPointExtension>
        </extensions>
      </trkpt>
      <trkpt lat="31.68347395956516265869140625" lon="35.0218426622450351715087890625">
        <ele>449.600006103515625</ele>
        <time>2017-08-04T04:45:21.000Z</time>
        <extensions>
          <ns3:TrackPointExtension>
            <ns3:atemp>26.0</ns3:atemp>
          </ns3:TrackPointExtension>
        </extensions>
      </trkpt>
      <trkpt lat="31.68347395956516265869140625" lon="35.0218426622450351715087890625">
        <ele>449.600006103515625</ele>
        <time>2017-08-04T04:45:35.000Z</time>
        <extensions>
          <ns3:TrackPointExtension>
            <ns3:atemp>27.0</ns3:atemp>
          </ns3:TrackPointExtension>
        </extensions>
      </trkpt>
      <trkpt lat="31.68347337283194065093994140625" lon="35.02184023149311542510986328125">
        <ele>449.600006103515625</ele>
        <time>2017-08-04T04:45:47.000Z</time>
        <extensions>
          <ns3:TrackPointExtension>
            <ns3:atemp>27.0</ns3:atemp>
          </ns3:TrackPointExtension>
        </extensions>
      </trkpt>
      <trkpt lat="31.68345116078853607177734375" lon="35.021820031106472015380859375">
        <ele>449.600006103515625</ele>
        <time>2017-08-04T04:45:53.000Z</time>
        <extensions>
          <ns3:TrackPointExtension>
            <ns3:atemp>27.0</ns3:atemp>
          </ns3:TrackPointExtension>
        </extensions>
      </trkpt>
      <trkpt lat="31.68344856239855289459228515625" lon="35.02182262949645519256591796875">
        <ele>449.399993896484375</ele>
        <time>2017-08-04T04:46:00.000Z</time>
        <extensions>
          <ns3:TrackPointExtension>
            <ns3:atemp>27.0</ns3:atemp>
          </ns3:TrackPointExtension>
        </extensions>
      </trkpt>
      <trkpt lat="31.68344856239855289459228515625" lon="35.02182262949645519256591796875">
        <ele>449.399993896484375</ele>
        <time>2017-08-04T04:46:10.000Z</time>
        <extensions>
          <ns3:TrackPointExtension>
            <ns3:atemp>27.0</ns3:atemp>
          </ns3:TrackPointExtension>
        </extensions>
      </trkpt>
      <trkpt lat="31.68344856239855289459228515625" lon="35.02182262949645519256591796875">
        <ele>449.399993896484375</ele>
        <time>2017-08-04T04:46:20.000Z</time>
        <extensions>
          <ns3:TrackPointExtension>
            <ns3:atemp>27.0</ns3:atemp>
          </ns3:TrackPointExtension>
        </extensions>
      </trkpt>
      <trkpt lat="31.68340866453945636749267578125" lon="35.02180569805204868316650390625">
        <ele>449.20001220703125</ele>
        <time>2017-08-04T04:46:30.000Z</time>
        <extensions>
          <ns3:TrackPointExtension>
            <ns3:atemp>27.0</ns3:atemp>
          </ns3:TrackPointExtension>
        </extensions>
      </trkpt>
      <trkpt lat="31.683349572122097015380859375" lon="35.0217856653034687042236328125">
        <ele>449.20001220703125</ele>
        <time>2017-08-04T04:46:36.000Z</time>
        <extensions>
          <ns3:TrackPointExtension>
            <ns3:atemp>27.0</ns3:atemp>
          </ns3:TrackPointExtension>
        </extensions>
      </trkpt>
      <trkpt lat="31.68331394903361797332763671875" lon="35.0217484496533870697021484375">
        <ele>449.20001220703125</ele>
        <time>2017-08-04T04:46:40.000Z</time>
        <extensions>
          <ns3:TrackPointExtension>
            <ns3:atemp>27.0</ns3:atemp>
          </ns3:TrackPointExtension>
        </extensions>
      </trkpt>
      <trkpt lat="31.68330405838787555694580078125" lon="35.02173059619963169097900390625">
        <ele>449.20001220703125</ele>
        <time>2017-08-04T04:46:41.000Z</time>
        <extensions>
          <ns3:TrackPointExtension>
            <ns3:atemp>27.0</ns3:atemp>
          </ns3:TrackPointExtension>
        </extensions>
      </trkpt>
      <trkpt lat="31.6832840256392955780029296875" lon="35.02167619764804840087890625">
        <ele>449</ele>
        <time>2017-08-04T04:46:44.000Z</time>
        <extensions>
          <ns3:TrackPointExtension>
            <ns3:atemp>27.0</ns3:atemp>
          </ns3:TrackPointExtension>
        </extensions>
      </trkpt>
      <trkpt lat="31.6832484863698482513427734375" lon="35.02163420431315898895263671875">
        <ele>448.600006103515625</ele>
        <time>2017-08-04T04:46:47.000Z</time>
        <extensions>
          <ns3:TrackPointExtension>
            <ns3:atemp>27.0</ns3:atemp>
          </ns3:TrackPointExtension>
        </extensions>
      </trkpt>
      <trkpt lat="31.6832333989441394805908203125" lon="35.0216240622103214263916015625">
        <ele>448.600006103515625</ele>
        <time>2017-08-04T04:46:48.000Z</time>
        <extensions>
          <ns3:TrackPointExtension>
            <ns3:atemp>27.0</ns3:atemp>
          </ns3:TrackPointExtension>
        </extensions>
      </trkpt>
      <trkpt lat="31.68321269564330577850341796875" lon="35.02161945216357707977294921875">
        <ele>448.600006103515625</ele>
        <time>2017-08-04T04:46:49.000Z</time>
        <extensions>
          <ns3:TrackPointExtension>
            <ns3:atemp>27.0</ns3:atemp>
          </ns3:TrackPointExtension>
        </extensions>
      </trkpt>
      <trkpt lat="31.683108508586883544921875" lon="35.02160754986107349395751953125">
        <ele>447.600006103515625</ele>
        <time>2017-08-04T04:46:52.000Z</time>
        <extensions>
          <ns3:TrackPointExtension>
            <ns3:atemp>27.0</ns3:atemp>
          </ns3:TrackPointExtension>
        </extensions>
      </trkpt>
      <trkpt lat="31.683066599071025848388671875" lon="35.02160780131816864013671875">
        <ele>447</ele>
        <time>2017-08-04T04:46:53.000Z</time>
        <extensions>
          <ns3:TrackPointExtension>
            <ns3:atemp>27.0</ns3:atemp>
          </ns3:TrackPointExtension>
        </extensions>
      </trkpt>
      <trkpt lat="31.68303072452545166015625" lon="35.0216197036206722259521484375">
        <ele>446.600006103515625</ele>
        <time>2017-08-04T04:46:54.000Z</time>
        <extensions>
          <ns3:TrackPointExtension>
            <ns3:atemp>27.0</ns3:atemp>
          </ns3:TrackPointExtension>
        </extensions>
      </trkpt>
      <trkpt lat="31.6829624958336353302001953125" lon="35.021678544580936431884765625">
        <ele>445.20001220703125</ele>
        <time>2017-08-04T04:46:56.000Z</time>
        <extensions>
          <ns3:TrackPointExtension>
            <ns3:atemp>27.0</ns3:atemp>
          </ns3:TrackPointExtension>
        </extensions>
      </trkpt>
      <trkpt lat="31.6829272918403148651123046875" lon="35.021718777716159820556640625">
        <ele>444.600006103515625</ele>
        <time>2017-08-04T04:46:57.000Z</time>
        <extensions>
          <ns3:TrackPointExtension>
            <ns3:atemp>27.0</ns3:atemp>
          </ns3:TrackPointExtension>
        </extensions>
      </trkpt>
      <trkpt lat="31.68289166875183582305908203125" lon="35.0217642076313495635986328125">
        <ele>443.79998779296875</ele>
        <time>2017-08-04T04:46:58.000Z</time>
        <extensions>
          <ns3:TrackPointExtension>
            <ns3:atemp>27.0</ns3:atemp>
          </ns3:TrackPointExtension>
        </extensions>
      </trkpt>
      <trkpt lat="31.68286082334816455841064453125" lon="35.02181625925004482269287109375">
        <ele>443</ele>
        <time>2017-08-04T04:46:59.000Z</time>
        <extensions>
          <ns3:TrackPointExtension>
            <ns3:atemp>27.0</ns3:atemp>
          </ns3:TrackPointExtension>
        </extensions>
      </trkpt>
      <trkpt lat="31.68284422717988491058349609375" lon="35.02187711186707019805908203125">
        <ele>442.399993896484375</ele>
        <time>2017-08-04T04:47:00.000Z</time>
        <extensions>
          <ns3:TrackPointExtension>
            <ns3:atemp>27.0</ns3:atemp>
          </ns3:TrackPointExtension>
        </extensions>
      </trkpt>
      <trkpt lat="31.6828652657568454742431640625" lon="35.02199680544435977935791015625">
        <ele>441.399993896484375</ele>
        <time>2017-08-04T04:47:02.000Z</time>
        <extensions>
          <ns3:TrackPointExtension>
            <ns3:atemp>27.0</ns3:atemp>
          </ns3:TrackPointExtension>
        </extensions>
      </trkpt>
      <trkpt lat="31.68290222994983196258544921875" lon="35.02203821204602718353271484375">
        <ele>441</ele>
        <time>2017-08-04T04:47:03.000Z</time>
        <extensions>
          <ns3:TrackPointExtension>
            <ns3:atemp>27.0</ns3:atemp>
          </ns3:TrackPointExtension>
        </extensions>
      </trkpt>
      <trkpt lat="31.6830077581107616424560546875" lon="35.02225647680461406707763671875">
        <ele>440.399993896484375</ele>
        <time>2017-08-04T04:47:07.000Z</time>
        <extensions>
          <ns3:TrackPointExtension>
            <ns3:atemp>27.0</ns3:atemp>
          </ns3:TrackPointExtension>
        </extensions>
      </trkpt>
      <trkpt lat="31.6830406151711940765380859375" lon="35.0223194248974323272705078125">
        <ele>440</ele>
        <time>2017-08-04T04:47:08.000Z</time>
        <extensions>
          <ns3:TrackPointExtension>
            <ns3:atemp>27.0</ns3:atemp>
          </ns3:TrackPointExtension>
        </extensions>
      </trkpt>
      <trkpt lat="31.68317581526935100555419921875" lon="35.02248178236186504364013671875">
        <ele>438.600006103515625</ele>
        <time>2017-08-04T04:47:11.000Z</time>
        <extensions>
          <ns3:TrackPointExtension>
            <ns3:atemp>27.0</ns3:atemp>
          </ns3:TrackPointExtension>
        </extensions>
      </trkpt>
      <trkpt lat="31.68327807448804378509521484375" lon="35.02255688421428203582763671875">
        <ele>438.20001220703125</ele>
        <time>2017-08-04T04:47:13.000Z</time>
        <extensions>
          <ns3:TrackPointExtension>
            <ns3:atemp>27.0</ns3:atemp>
          </ns3:TrackPointExtension>
        </extensions>
      </trkpt>
      <trkpt lat="31.68332149274647235870361328125" lon="35.0225968658924102783203125">
        <ele>438.20001220703125</ele>
        <time>2017-08-04T04:47:14.000Z</time>
        <extensions>
          <ns3:TrackPointExtension>
            <ns3:atemp>27.0</ns3:atemp>
          </ns3:TrackPointExtension>
        </extensions>
      </trkpt>
      <trkpt lat="31.68335870839655399322509765625" lon="35.02264992333948612213134765625">
        <ele>438.600006103515625</ele>
        <time>2017-08-04T04:47:15.000Z</time>
        <extensions>
          <ns3:TrackPointExtension>
            <ns3:atemp>27.0</ns3:atemp>
          </ns3:TrackPointExtension>
        </extensions>
      </trkpt>
      <trkpt lat="31.6835148632526397705078125" lon="35.02284287475049495697021484375">
        <ele>437.20001220703125</ele>
        <time>2017-08-04T04:47:19.000Z</time>
        <extensions>
          <ns3:TrackPointExtension>
            <ns3:atemp>27.0</ns3:atemp>
          </ns3:TrackPointExtension>
        </extensions>
      </trkpt>
      <trkpt lat="31.68357009999454021453857421875" lon="35.02288453280925750732421875">
        <ele>435.600006103515625</ele>
        <time>2017-08-04T04:47:20.000Z</time>
        <extensions>
          <ns3:TrackPointExtension>
            <ns3:atemp>27.0</ns3:atemp>
          </ns3:TrackPointExtension>
        </extensions>
      </trkpt>
      <trkpt lat="31.68362550437450408935546875" lon="35.0229463912546634674072265625">
        <ele>434.399993896484375</ele>
        <time>2017-08-04T04:47:21.000Z</time>
        <extensions>
          <ns3:TrackPointExtension>
            <ns3:atemp>27.0</ns3:atemp>
          </ns3:TrackPointExtension>
        </extensions>
      </trkpt>
      <trkpt lat="31.68366598896682262420654296875" lon="35.02302543260157108306884765625">
        <ele>433.399993896484375</ele>
        <time>2017-08-04T04:47:22.000Z</time>
        <extensions>
          <ns3:TrackPointExtension>
            <ns3:atemp>27.0</ns3:atemp>
          </ns3:TrackPointExtension>
        </extensions>
      </trkpt>
      <trkpt lat="31.6836863569915294647216796875" lon="35.02311495132744312286376953125">
        <ele>432.600006103515625</ele>
        <time>2017-08-04T04:47:23.000Z</time>
        <extensions>
          <ns3:TrackPointExtension>
            <ns3:atemp>27.0</ns3:atemp>
          </ns3:TrackPointExtension>
        </extensions>
      </trkpt>
      <trkpt lat="31.68367906473577022552490234375" lon="35.0232913903892040252685546875">
        <ele>432</ele>
        <time>2017-08-04T04:47:25.000Z</time>
        <extensions>
          <ns3:TrackPointExtension>
            <ns3:atemp>27.0</ns3:atemp>
          </ns3:TrackPointExtension>
        </extensions>
      </trkpt>
      <trkpt lat="31.683677472174167633056640625" lon="35.023456513881683349609375">
        <ele>431.600006103515625</ele>
        <time>2017-08-04T04:47:27.000Z</time>
        <extensions>
          <ns3:TrackPointExtension>
            <ns3:atemp>27.0</ns3:atemp>
          </ns3:TrackPointExtension>
        </extensions>
      </trkpt>
      <trkpt lat="31.68369968421757221221923828125" lon="35.02359339036047458648681640625">
        <ele>432</ele>
        <time>2017-08-04T04:47:29.000Z</time>
        <extensions>
          <ns3:TrackPointExtension>
            <ns3:atemp>27.0</ns3:atemp>
          </ns3:TrackPointExtension>
        </extensions>
      </trkpt>
      <trkpt lat="31.6837400011718273162841796875" lon="35.0236886925995349884033203125">
        <ele>433.600006103515625</ele>
        <time>2017-08-04T04:47:31.000Z</time>
        <extensions>
          <ns3:TrackPointExtension>
            <ns3:atemp>27.0</ns3:atemp>
          </ns3:TrackPointExtension>
        </extensions>
      </trkpt>
      <trkpt lat="31.683779060840606689453125" lon="35.02375314943492412567138671875">
        <ele>434.79998779296875</ele>
        <time>2017-08-04T04:47:33.000Z</time>
        <extensions>
          <ns3:TrackPointExtension>
            <ns3:atemp>27.0</ns3:atemp>
          </ns3:TrackPointExtension>
        </extensions>
      </trkpt>
      <trkpt lat="31.683790124952793121337890625" lon="35.02377645112574100494384765625">
        <ele>435.20001220703125</ele>
        <time>2017-08-04T04:47:34.000Z</time>
        <extensions>
          <ns3:TrackPointExtension>
            <ns3:atemp>26.0</ns3:atemp>
          </ns3:TrackPointExtension>
        </extensions>
      </trkpt>
      <trkpt lat="31.68380764313042163848876953125" lon="35.02382439561188220977783203125">
        <ele>435.79998779296875</ele>
        <time>2017-08-04T04:47:36.000Z</time>
        <extensions>
          <ns3:TrackPointExtension>
            <ns3:atemp>26.0</ns3:atemp>
          </ns3:TrackPointExtension>
        </extensions>
      </trkpt>
      <trkpt lat="31.68381887488067150115966796875" lon="35.0238734297454357147216796875">
        <ele>436.20001220703125</ele>
        <time>2017-08-04T04:47:38.000Z</time>
        <extensions>
          <ns3:TrackPointExtension>
            <ns3:atemp>26.0</ns3:atemp>
          </ns3:TrackPointExtension>
        </extensions>
      </trkpt>
      <trkpt lat="31.6838379018008708953857421875" lon="35.02394677139818668365478515625">
        <ele>436.79998779296875</ele>
        <time>2017-08-04T04:47:41.000Z</time>
        <extensions>
          <ns3:TrackPointExtension>
            <ns3:atemp>26.0</ns3:atemp>
          </ns3:TrackPointExtension>
        </extensions>
      </trkpt>
      <trkpt lat="31.68385860510170459747314453125" lon="35.02398918382823467254638671875">
        <ele>438.20001220703125</ele>
        <time>2017-08-04T04:47:44.000Z</time>
        <extensions>
          <ns3:TrackPointExtension>
            <ns3:atemp>26.0</ns3:atemp>
          </ns3:TrackPointExtension>
        </extensions>
      </trkpt>
      <trkpt lat="31.68390981853008270263671875" lon="35.02402757294476032257080078125">
        <ele>438.79998779296875</ele>
        <time>2017-08-04T04:47:49.000Z</time>
        <extensions>
          <ns3:TrackPointExtension>
            <ns3:atemp>26.0</ns3:atemp>
          </ns3:TrackPointExtension>
        </extensions>
      </trkpt>
      <trkpt lat="31.6838972456753253936767578125" lon="35.024109967052936553955078125">
        <ele>439</ele>
        <time>2017-08-04T04:47:54.000Z</time>
        <extensions>
          <ns3:TrackPointExtension>
            <ns3:atemp>26.0</ns3:atemp>
          </ns3:TrackPointExtension>
        </extensions>
      </trkpt>
      <trkpt lat="31.68389565311372280120849609375" lon="35.02413234673440456390380859375">
        <ele>439</ele>
        <time>2017-08-04T04:47:55.000Z</time>
        <extensions>
          <ns3:TrackPointExtension>
            <ns3:atemp>26.0</ns3:atemp>
          </ns3:TrackPointExtension>
        </extensions>
      </trkpt>
      <trkpt lat="31.68388970196247100830078125" lon="35.02415732480585575103759765625">
        <ele>439.20001220703125</ele>
        <time>2017-08-04T04:47:56.000Z</time>
        <extensions>
          <ns3:TrackPointExtension>
            <ns3:atemp>26.0</ns3:atemp>
          </ns3:TrackPointExtension>
        </extensions>
      </trkpt>
      <trkpt lat="31.68387369252741336822509765625" lon="35.02426092512905597686767578125">
        <ele>440</ele>
        <time>2017-08-04T04:48:00.000Z</time>
        <extensions>
          <ns3:TrackPointExtension>
            <ns3:atemp>26.0</ns3:atemp>
          </ns3:TrackPointExtension>
        </extensions>
      </trkpt>
      <trkpt lat="31.68386044912040233612060546875" lon="35.0244031660258769989013671875">
        <ele>440.399993896484375</ele>
        <time>2017-08-04T04:48:05.000Z</time>
        <extensions>
          <ns3:TrackPointExtension>
            <ns3:atemp>26.0</ns3:atemp>
          </ns3:TrackPointExtension>
        </extensions>
      </trkpt>
      <trkpt lat="31.68386464007198810577392578125" lon="35.02453266642987728118896484375">
        <ele>441.600006103515625</ele>
        <time>2017-08-04T04:48:10.000Z</time>
        <extensions>
          <ns3:TrackPointExtension>
            <ns3:atemp>26.0</ns3:atemp>
          </ns3:TrackPointExtension>
        </extensions>
      </trkpt>
      <trkpt lat="31.6838687472045421600341796875" lon="35.0245570577681064605712890625">
        <ele>441.79998779296875</ele>
        <time>2017-08-04T04:48:11.000Z</time>
        <extensions>
          <ns3:TrackPointExtension>
            <ns3:atemp>26.0</ns3:atemp>
          </ns3:TrackPointExtension>
        </extensions>
      </trkpt>
      <trkpt lat="31.68389012105762958526611328125" lon="35.02463199198246002197265625">
        <ele>442.600006103515625</ele>
        <time>2017-08-04T04:48:14.000Z</time>
        <extensions>
          <ns3:TrackPointExtension>
            <ns3:atemp>26.0</ns3:atemp>
          </ns3:TrackPointExtension>
        </extensions>
      </trkpt>
      <trkpt lat="31.68394544161856174468994140625" lon="35.02471446990966796875">
        <ele>443.399993896484375</ele>
        <time>2017-08-04T04:48:18.000Z</time>
        <extensions>
          <ns3:TrackPointExtension>
            <ns3:atemp>26.0</ns3:atemp>
          </ns3:TrackPointExtension>
        </extensions>
      </trkpt>
      <trkpt lat="31.68396388180553913116455078125" lon="35.02473416738212108612060546875">
        <ele>443.600006103515625</ele>
        <time>2017-08-04T04:48:19.000Z</time>
        <extensions>
          <ns3:TrackPointExtension>
            <ns3:atemp>26.0</ns3:atemp>
          </ns3:TrackPointExtension>
        </extensions>
      </trkpt>
      <trkpt lat="31.6840833239257335662841796875" lon="35.02483122982084751129150390625">
        <ele>444.600006103515625</ele>
        <time>2017-08-04T04:48:25.000Z</time>
        <extensions>
          <ns3:TrackPointExtension>
            <ns3:atemp>26.0</ns3:atemp>
          </ns3:TrackPointExtension>
        </extensions>
      </trkpt>
      <trkpt lat="31.68410427868366241455078125" lon="35.02484430558979511260986328125">
        <ele>445</ele>
        <time>2017-08-04T04:48:26.000Z</time>
        <extensions>
          <ns3:TrackPointExtension>
            <ns3:atemp>26.0</ns3:atemp>
          </ns3:TrackPointExtension>
        </extensions>
      </trkpt>
      <trkpt lat="31.6841969825327396392822265625" lon="35.02492862753570079803466796875">
        <ele>445.79998779296875</ele>
        <time>2017-08-04T04:48:31.000Z</time>
        <extensions>
          <ns3:TrackPointExtension>
            <ns3:atemp>26.0</ns3:atemp>
          </ns3:TrackPointExtension>
        </extensions>
      </trkpt>
      <trkpt lat="31.68421584181487560272216796875" lon="35.02494354732334613800048828125">
        <ele>446.20001220703125</ele>
        <time>2017-08-04T04:48:32.000Z</time>
        <extensions>
          <ns3:TrackPointExtension>
            <ns3:atemp>26.0</ns3:atemp>
          </ns3:TrackPointExtension>
        </extensions>
      </trkpt>
      <trkpt lat="31.684336960315704345703125" lon="35.02500272355973720550537109375">
        <ele>447</ele>
        <time>2017-08-04T04:48:38.000Z</time>
        <extensions>
          <ns3:TrackPointExtension>
            <ns3:atemp>26.0</ns3:atemp>
          </ns3:TrackPointExtension>
        </extensions>
      </trkpt>
      <trkpt lat="31.68437593616545200347900390625" lon="35.02501931972801685333251953125">
        <ele>447.399993896484375</ele>
        <time>2017-08-04T04:48:40.000Z</time>
        <extensions>
          <ns3:TrackPointExtension>
            <ns3:atemp>26.0</ns3:atemp>
          </ns3:TrackPointExtension>
        </extensions>
      </trkpt>
      <trkpt lat="31.68443511240184307098388671875" lon="35.025045387446880340576171875">
        <ele>448.399993896484375</ele>
        <time>2017-08-04T04:48:43.000Z</time>
        <extensions>
          <ns3:TrackPointExtension>
            <ns3:atemp>26.0</ns3:atemp>
          </ns3:TrackPointExtension>
        </extensions>
      </trkpt>
      <trkpt lat="31.68445891700685024261474609375" lon="35.0250457227230072021484375">
        <ele>448.600006103515625</ele>
        <time>2017-08-04T04:48:44.000Z</time>
        <extensions>
          <ns3:TrackPointExtension>
            <ns3:atemp>26.0</ns3:atemp>
          </ns3:TrackPointExtension>
        </extensions>
      </trkpt>
      <trkpt lat="31.68454952538013458251953125" lon="35.0250847823917865753173828125">
        <ele>449.600006103515625</ele>
        <time>2017-08-04T04:48:49.000Z</time>
        <extensions>
          <ns3:TrackPointExtension>
            <ns3:atemp>26.0</ns3:atemp>
          </ns3:TrackPointExtension>
        </extensions>
      </trkpt>
      <trkpt lat="31.68465253897011280059814453125" lon="35.02517941407859325408935546875">
        <ele>450.79998779296875</ele>
        <time>2017-08-04T04:48:55.000Z</time>
        <extensions>
          <ns3:TrackPointExtension>
            <ns3:atemp>26.0</ns3:atemp>
          </ns3:TrackPointExtension>
        </extensions>
      </trkpt>
      <trkpt lat="31.684682630002498626708984375" lon="35.025214366614818572998046875">
        <ele>451</ele>
        <time>2017-08-04T04:48:57.000Z</time>
        <extensions>
          <ns3:TrackPointExtension>
            <ns3:atemp>26.0</ns3:atemp>
          </ns3:TrackPointExtension>
        </extensions>
      </trkpt>
      <trkpt lat="31.68477105908095836639404296875" lon="35.0253764726221561431884765625">
        <ele>451.79998779296875</ele>
        <time>2017-08-04T04:49:04.000Z</time>
        <extensions>
          <ns3:TrackPointExtension>
            <ns3:atemp>26.0</ns3:atemp>
          </ns3:TrackPointExtension>
        </extensions>
      </trkpt>
      <trkpt lat="31.6848407126963138580322265625" lon="35.0255072303116321563720703125">
        <ele>452.600006103515625</ele>
        <time>2017-08-04T04:49:10.000Z</time>
        <extensions>
          <ns3:TrackPointExtension>
            <ns3:atemp>26.0</ns3:atemp>
          </ns3:TrackPointExtension>
        </extensions>
      </trkpt>
      <trkpt lat="31.684852279722690582275390625" lon="35.0255333818495273590087890625">
        <ele>452.79998779296875</ele>
        <time>2017-08-04T04:49:11.000Z</time>
        <extensions>
          <ns3:TrackPointExtension>
            <ns3:atemp>26.0</ns3:atemp>
          </ns3:TrackPointExtension>
        </extensions>
      </trkpt>
      <trkpt lat="31.68490483425557613372802734375" lon="35.02568534575402736663818359375">
        <ele>454</ele>
        <time>2017-08-04T04:49:17.000Z</time>
        <extensions>
          <ns3:TrackPointExtension>
            <ns3:atemp>26.0</ns3:atemp>
          </ns3:TrackPointExtension>
        </extensions>
      </trkpt>
      <trkpt lat="31.6849141381680965423583984375" lon="35.0257087312638759613037109375">
        <ele>454</ele>
        <time>2017-08-04T04:49:18.000Z</time>
        <extensions>
          <ns3:TrackPointExtension>
            <ns3:atemp>26.0</ns3:atemp>
          </ns3:TrackPointExtension>
        </extensions>
      </trkpt>
      <trkpt lat="31.68497071601450443267822265625" lon="35.0258445180952548980712890625">
        <ele>455.20001220703125</ele>
        <time>2017-08-04T04:49:24.000Z</time>
        <extensions>
          <ns3:TrackPointExtension>
            <ns3:atemp>26.0</ns3:atemp>
          </ns3:TrackPointExtension>
        </extensions>
      </trkpt>
      <trkpt lat="31.68498781509697437286376953125" lon="35.0258914567530155181884765625">
        <ele>455.399993896484375</ele>
        <time>2017-08-04T04:49:26.000Z</time>
        <extensions>
          <ns3:TrackPointExtension>
            <ns3:atemp>26.0</ns3:atemp>
          </ns3:TrackPointExtension>
        </extensions>
      </trkpt>
      <trkpt lat="31.68504380621016025543212890625" lon="35.026006288826465606689453125">
        <ele>456.20001220703125</ele>
        <time>2017-08-04T04:49:32.000Z</time>
        <extensions>
          <ns3:TrackPointExtension>
            <ns3:atemp>26.0</ns3:atemp>
          </ns3:TrackPointExtension>
        </extensions>
      </trkpt>
      <trkpt lat="31.685087643563747406005859375" lon="35.02611600793898105621337890625">
        <ele>457.399993896484375</ele>
        <time>2017-08-04T04:49:37.000Z</time>
        <extensions>
          <ns3:TrackPointExtension>
            <ns3:atemp>26.0</ns3:atemp>
          </ns3:TrackPointExtension>
        </extensions>
      </trkpt>
      <trkpt lat="31.6851027309894561767578125" lon="35.02618406899273395538330078125">
        <ele>457.600006103515625</ele>
        <time>2017-08-04T04:49:40.000Z</time>
        <extensions>
          <ns3:TrackPointExtension>
            <ns3:atemp>26.0</ns3:atemp>
          </ns3:TrackPointExtension>
        </extensions>
      </trkpt>
      <trkpt lat="31.68512242846190929412841796875" lon="35.02627945505082607269287109375">
        <ele>458.399993896484375</ele>
        <time>2017-08-04T04:49:44.000Z</time>
        <extensions>
          <ns3:TrackPointExtension>
            <ns3:atemp>26.0</ns3:atemp>
          </ns3:TrackPointExtension>
        </extensions>
      </trkpt>
      <trkpt lat="31.68512829579412937164306640625" lon="35.02630376257002353668212890625">
        <ele>458.399993896484375</ele>
        <time>2017-08-04T04:49:45.000Z</time>
        <extensions>
          <ns3:TrackPointExtension>
            <ns3:atemp>26.0</ns3:atemp>
          </ns3:TrackPointExtension>
        </extensions>
      </trkpt>
      <trkpt lat="31.68517540208995342254638671875" lon="35.02645379863679409027099609375">
        <ele>459.600006103515625</ele>
        <time>2017-08-04T04:49:52.000Z</time>
        <extensions>
          <ns3:TrackPointExtension>
            <ns3:atemp>26.0</ns3:atemp>
          </ns3:TrackPointExtension>
        </extensions>
      </trkpt>
      <trkpt lat="31.68521462939679622650146484375" lon="35.02657248638570308685302734375">
        <ele>460.399993896484375</ele>
        <time>2017-08-04T04:49:58.000Z</time>
        <extensions>
          <ns3:TrackPointExtension>
            <ns3:atemp>26.0</ns3:atemp>
          </ns3:TrackPointExtension>
        </extensions>
      </trkpt>
      <trkpt lat="31.6852180659770965576171875" lon="35.0265948660671710968017578125">
        <ele>460.600006103515625</ele>
        <time>2017-08-04T04:49:59.000Z</time>
        <extensions>
          <ns3:TrackPointExtension>
            <ns3:atemp>26.0</ns3:atemp>
          </ns3:TrackPointExtension>
        </extensions>
      </trkpt>
      <trkpt lat="31.68526341207325458526611328125" lon="35.0267527811229228973388671875">
        <ele>461.600006103515625</ele>
        <time>2017-08-04T04:50:06.000Z</time>
        <extensions>
          <ns3:TrackPointExtension>
            <ns3:atemp>26.0</ns3:atemp>
          </ns3:TrackPointExtension>
        </extensions>
      </trkpt>
      <trkpt lat="31.68529693968594074249267578125" lon="35.0269190780818462371826171875">
        <ele>462.399993896484375</ele>
        <time>2017-08-04T04:50:13.000Z</time>
        <extensions>
          <ns3:TrackPointExtension>
            <ns3:atemp>26.0</ns3:atemp>
          </ns3:TrackPointExtension>
        </extensions>
      </trkpt>
      <trkpt lat="31.685306914150714874267578125" lon="35.02694229595363140106201171875">
        <ele>462.600006103515625</ele>
        <time>2017-08-04T04:50:14.000Z</time>
        <extensions>
          <ns3:TrackPointExtension>
            <ns3:atemp>26.0</ns3:atemp>
          </ns3:TrackPointExtension>
        </extensions>
      </trkpt>
      <trkpt lat="31.68534639291465282440185546875" lon="35.02705134451389312744140625">
        <ele>463.79998779296875</ele>
        <time>2017-08-04T04:50:19.000Z</time>
        <extensions>
          <ns3:TrackPointExtension>
            <ns3:atemp>26.0</ns3:atemp>
          </ns3:TrackPointExtension>
        </extensions>
      </trkpt>
      <trkpt lat="31.685350500047206878662109375" lon="35.02706651575863361358642578125">
        <ele>463.79998779296875</ele>
        <time>2017-08-04T04:50:20.000Z</time>
        <extensions>
          <ns3:TrackPointExtension>
            <ns3:atemp>26.0</ns3:atemp>
          </ns3:TrackPointExtension>
        </extensions>
      </trkpt>
      <trkpt lat="31.685393415391445159912109375" lon="35.027214623987674713134765625">
        <ele>464.20001220703125</ele>
        <time>2017-08-04T04:50:26.000Z</time>
        <extensions>
          <ns3:TrackPointExtension>
            <ns3:atemp>26.0</ns3:atemp>
          </ns3:TrackPointExtension>
        </extensions>
      </trkpt>
      <trkpt lat="31.68544546701014041900634765625" lon="35.02736457623541355133056640625">
        <ele>464.600006103515625</ele>
        <time>2017-08-04T04:50:32.000Z</time>
        <extensions>
          <ns3:TrackPointExtension>
            <ns3:atemp>26.0</ns3:atemp>
          </ns3:TrackPointExtension>
        </extensions>
      </trkpt>
      <trkpt lat="31.68545418418943881988525390625" lon="35.0273887999355792999267578125">
        <ele>464.79998779296875</ele>
        <time>2017-08-04T04:50:33.000Z</time>
        <extensions>
          <ns3:TrackPointExtension>
            <ns3:atemp>26.0</ns3:atemp>
          </ns3:TrackPointExtension>
        </extensions>
      </trkpt>
      <trkpt lat="31.6855229996144771575927734375" lon="35.02758904360234737396240234375">
        <ele>465.79998779296875</ele>
        <time>2017-08-04T04:50:41.000Z</time>
        <extensions>
          <ns3:TrackPointExtension>
            <ns3:atemp>26.0</ns3:atemp>
          </ns3:TrackPointExtension>
        </extensions>
      </trkpt>
      <trkpt lat="31.68556801043450832366943359375" lon="35.02773321233689785003662109375">
        <ele>467</ele>
        <time>2017-08-04T04:50:47.000Z</time>
        <extensions>
          <ns3:TrackPointExtension>
            <ns3:atemp>26.0</ns3:atemp>
          </ns3:TrackPointExtension>
        </extensions>
      </trkpt>
      <trkpt lat="31.68557538650929927825927734375" lon="35.02775584347546100616455078125">
        <ele>467</ele>
        <time>2017-08-04T04:50:48.000Z</time>
        <extensions>
          <ns3:TrackPointExtension>
            <ns3:atemp>26.0</ns3:atemp>
          </ns3:TrackPointExtension>
        </extensions>
      </trkpt>
      <trkpt lat="31.685613691806793212890625" lon="35.02785391174256801605224609375">
        <ele>467.600006103515625</ele>
        <time>2017-08-04T04:50:53.000Z</time>
        <extensions>
          <ns3:TrackPointExtension>
            <ns3:atemp>26.0</ns3:atemp>
          </ns3:TrackPointExtension>
        </extensions>
      </trkpt>
      <trkpt lat="31.68563942424952983856201171875" lon="35.027930103242397308349609375">
        <ele>468.20001220703125</ele>
        <time>2017-08-04T04:50:56.000Z</time>
        <extensions>
          <ns3:TrackPointExtension>
            <ns3:atemp>26.0</ns3:atemp>
          </ns3:TrackPointExtension>
        </extensions>
      </trkpt>
      <trkpt lat="31.685656942427158355712890625" lon="35.02798098139464855194091796875">
        <ele>468.20001220703125</ele>
        <time>2017-08-04T04:50:58.000Z</time>
        <extensions>
          <ns3:TrackPointExtension>
            <ns3:atemp>26.0</ns3:atemp>
          </ns3:TrackPointExtension>
        </extensions>
      </trkpt>
      <trkpt lat="31.68570362962782382965087890625" lon="35.0281421653926372528076171875">
        <ele>469</ele>
        <time>2017-08-04T04:51:05.000Z</time>
        <extensions>
          <ns3:TrackPointExtension>
            <ns3:atemp>26.0</ns3:atemp>
          </ns3:TrackPointExtension>
        </extensions>
      </trkpt>
      <trkpt lat="31.68571821413934230804443359375" lon="35.0281894393265247344970703125">
        <ele>469.20001220703125</ele>
        <time>2017-08-04T04:51:07.000Z</time>
        <extensions>
          <ns3:TrackPointExtension>
            <ns3:atemp>26.0</ns3:atemp>
          </ns3:TrackPointExtension>
        </extensions>
      </trkpt>
      <trkpt lat="31.68577152304351329803466796875" lon="35.028348863124847412109375">
        <ele>469.79998779296875</ele>
        <time>2017-08-04T04:51:14.000Z</time>
        <extensions>
          <ns3:TrackPointExtension>
            <ns3:atemp>26.0</ns3:atemp>
          </ns3:TrackPointExtension>
        </extensions>
      </trkpt>
      <trkpt lat="31.685846038162708282470703125" lon="35.0284814648330211639404296875">
        <ele>470.600006103515625</ele>
        <time>2017-08-04T04:51:20.000Z</time>
        <extensions>
          <ns3:TrackPointExtension>
            <ns3:atemp>26.0</ns3:atemp>
          </ns3:TrackPointExtension>
        </extensions>
      </trkpt>
      <trkpt lat="31.68585400097072124481201171875" lon="35.0285092927515506744384765625">
        <ele>470.79998779296875</ele>
        <time>2017-08-04T04:51:21.000Z</time>
        <extensions>
          <ns3:TrackPointExtension>
            <ns3:atemp>26.0</ns3:atemp>
          </ns3:TrackPointExtension>
        </extensions>
      </trkpt>
      <trkpt lat="31.685914099216461181640625" lon="35.02871858887374401092529296875">
        <ele>471.399993896484375</ele>
        <time>2017-08-04T04:51:29.000Z</time>
        <extensions>
          <ns3:TrackPointExtension>
            <ns3:atemp>26.0</ns3:atemp>
          </ns3:TrackPointExtension>
        </extensions>
      </trkpt>
      <trkpt lat="31.68594368733465671539306640625" lon="35.0288321636617183685302734375">
        <ele>471.79998779296875</ele>
        <time>2017-08-04T04:51:33.000Z</time>
        <extensions>
          <ns3:TrackPointExtension>
            <ns3:atemp>26.0</ns3:atemp>
          </ns3:TrackPointExtension>
        </extensions>
      </trkpt>
      <trkpt lat="31.685984842479228973388671875" lon="35.028959400951862335205078125">
        <ele>472.20001220703125</ele>
        <time>2017-08-04T04:51:38.000Z</time>
        <extensions>
          <ns3:TrackPointExtension>
            <ns3:atemp>26.0</ns3:atemp>
          </ns3:TrackPointExtension>
        </extensions>
      </trkpt>
      <trkpt lat="31.68603605590760707855224609375" lon="35.02915880642831325531005859375">
        <ele>472.600006103515625</ele>
        <time>2017-08-04T04:51:45.000Z</time>
        <extensions>
          <ns3:TrackPointExtension>
            <ns3:atemp>26.0</ns3:atemp>
          </ns3:TrackPointExtension>
        </extensions>
      </trkpt>
      <trkpt lat="31.686043180525302886962890625" lon="35.029186047613620758056640625">
        <ele>472.79998779296875</ele>
        <time>2017-08-04T04:51:46.000Z</time>
        <extensions>
          <ns3:TrackPointExtension>
            <ns3:atemp>26.0</ns3:atemp>
          </ns3:TrackPointExtension>
        </extensions>
      </trkpt>
      <trkpt lat="31.68609489686787128448486328125" lon="35.02935762517154216766357421875">
        <ele>473.20001220703125</ele>
        <time>2017-08-04T04:51:52.000Z</time>
        <extensions>
          <ns3:TrackPointExtension>
            <ns3:atemp>26.0</ns3:atemp>
          </ns3:TrackPointExtension>
        </extensions>
      </trkpt>
      <trkpt lat="31.68613127432763576507568359375" lon="35.02946935594081878662109375">
        <ele>473.79998779296875</ele>
        <time>2017-08-04T04:51:56.000Z</time>
        <extensions>
          <ns3:TrackPointExtension>
            <ns3:atemp>26.0</ns3:atemp>
          </ns3:TrackPointExtension>
        </extensions>
      </trkpt>
      <trkpt lat="31.686190702021121978759765625" lon="35.02961687743663787841796875">
        <ele>474.600006103515625</ele>
        <time>2017-08-04T04:52:02.000Z</time>
        <extensions>
          <ns3:TrackPointExtension>
            <ns3:atemp>26.0</ns3:atemp>
          </ns3:TrackPointExtension>
        </extensions>
      </trkpt>
      <trkpt lat="31.68620436452329158782958984375" lon="35.02966909669339656829833984375">
        <ele>474.79998779296875</ele>
        <time>2017-08-04T04:52:04.000Z</time>
        <extensions>
          <ns3:TrackPointExtension>
            <ns3:atemp>26.0</ns3:atemp>
          </ns3:TrackPointExtension>
        </extensions>
      </trkpt>
      <trkpt lat="31.6862488724291324615478515625" lon="35.0297970883548259735107421875">
        <ele>475.600006103515625</ele>
        <time>2017-08-04T04:52:09.000Z</time>
        <extensions>
          <ns3:TrackPointExtension>
            <ns3:atemp>26.0</ns3:atemp>
          </ns3:TrackPointExtension>
        </extensions>
      </trkpt>
      <trkpt lat="31.6862683184444904327392578125" lon="35.0298487208783626556396484375">
        <ele>476</ele>
        <time>2017-08-04T04:52:11.000Z</time>
        <extensions>
          <ns3:TrackPointExtension>
            <ns3:atemp>26.0</ns3:atemp>
          </ns3:TrackPointExtension>
        </extensions>
      </trkpt>
      <trkpt lat="31.68634015135467052459716796875" lon="35.0300307758152484893798828125">
        <ele>476.600006103515625</ele>
        <time>2017-08-04T04:52:18.000Z</time>
        <extensions>
          <ns3:TrackPointExtension>
            <ns3:atemp>26.0</ns3:atemp>
          </ns3:TrackPointExtension>
        </extensions>
      </trkpt>
      <trkpt lat="31.68639220297336578369140625" lon="35.0301296822726726531982421875">
        <ele>477</ele>
        <time>2017-08-04T04:52:22.000Z</time>
        <extensions>
          <ns3:TrackPointExtension>
            <ns3:atemp>26.0</ns3:atemp>
          </ns3:TrackPointExtension>
        </extensions>
      </trkpt>
      <trkpt lat="31.68641860596835613250732421875" lon="35.03020553849637508392333984375">
        <ele>477.20001220703125</ele>
        <time>2017-08-04T04:52:25.000Z</time>
        <extensions>
          <ns3:TrackPointExtension>
            <ns3:atemp>26.0</ns3:atemp>
          </ns3:TrackPointExtension>
        </extensions>
      </trkpt>
      <trkpt lat="31.68647560290992259979248046875" lon="35.03039932809770107269287109375">
        <ele>478</ele>
        <time>2017-08-04T04:52:32.000Z</time>
        <extensions>
          <ns3:TrackPointExtension>
            <ns3:atemp>26.0</ns3:atemp>
          </ns3:TrackPointExtension>
        </extensions>
      </trkpt>
      <trkpt lat="31.68656143359839916229248046875" lon="35.03059362061321735382080078125">
        <ele>479.20001220703125</ele>
        <time>2017-08-04T04:52:40.000Z</time>
        <extensions>
          <ns3:TrackPointExtension>
            <ns3:atemp>26.0</ns3:atemp>
          </ns3:TrackPointExtension>
        </extensions>
      </trkpt>
      <trkpt lat="31.68666184879839420318603515625" lon="35.0307888351380825042724609375">
        <ele>479.79998779296875</ele>
        <time>2017-08-04T04:52:48.000Z</time>
        <extensions>
          <ns3:TrackPointExtension>
            <ns3:atemp>26.0</ns3:atemp>
          </ns3:TrackPointExtension>
        </extensions>
      </trkpt>
      <trkpt lat="31.6867108829319477081298828125" lon="35.03085480071604251861572265625">
        <ele>480.20001220703125</ele>
        <time>2017-08-04T04:52:51.000Z</time>
        <extensions>
          <ns3:TrackPointExtension>
            <ns3:atemp>26.0</ns3:atemp>
          </ns3:TrackPointExtension>
        </extensions>
      </trkpt>
      <trkpt lat="31.6867517866194248199462890625" lon="35.03093040548264980316162109375">
        <ele>480.600006103515625</ele>
        <time>2017-08-04T04:52:54.000Z</time>
        <extensions>
          <ns3:TrackPointExtension>
            <ns3:atemp>26.0</ns3:atemp>
          </ns3:TrackPointExtension>
        </extensions>
      </trkpt>
      <trkpt lat="31.6868118010461330413818359375" lon="35.0310520268976688385009765625">
        <ele>481.20001220703125</ele>
        <time>2017-08-04T04:52:59.000Z</time>
        <extensions>
          <ns3:TrackPointExtension>
            <ns3:atemp>26.0</ns3:atemp>
          </ns3:TrackPointExtension>
        </extensions>
      </trkpt>
      <trkpt lat="31.6868332587182521820068359375" lon="35.03110282123088836669921875">
        <ele>481.20001220703125</ele>
        <time>2017-08-04T04:53:01.000Z</time>
        <extensions>
          <ns3:TrackPointExtension>
            <ns3:atemp>26.0</ns3:atemp>
          </ns3:TrackPointExtension>
        </extensions>
      </trkpt>
      <trkpt lat="31.68689645826816558837890625" lon="35.0312850438058376312255859375">
        <ele>482.20001220703125</ele>
        <time>2017-08-04T04:53:08.000Z</time>
        <extensions>
          <ns3:TrackPointExtension>
            <ns3:atemp>26.0</ns3:atemp>
          </ns3:TrackPointExtension>
        </extensions>
      </trkpt>
      <trkpt lat="31.68694649823009967803955078125" lon="35.03143667243421077728271484375">
        <ele>482.79998779296875</ele>
        <time>2017-08-04T04:53:14.000Z</time>
        <extensions>
          <ns3:TrackPointExtension>
            <ns3:atemp>26.0</ns3:atemp>
          </ns3:TrackPointExtension>
        </extensions>
      </trkpt>
      <trkpt lat="31.68699033558368682861328125" lon="35.0315271131694316864013671875">
        <ele>483.399993896484375</ele>
        <time>2017-08-04T04:53:18.000Z</time>
        <extensions>
          <ns3:TrackPointExtension>
            <ns3:atemp>26.0</ns3:atemp>
          </ns3:TrackPointExtension>
        </extensions>
      </trkpt>
      <trkpt lat="31.68700668029487133026123046875" lon="35.03157447092235088348388671875">
        <ele>484.20001220703125</ele>
        <time>2017-08-04T04:53:20.000Z</time>
        <extensions>
          <ns3:TrackPointExtension>
            <ns3:atemp>26.0</ns3:atemp>
          </ns3:TrackPointExtension>
        </extensions>
      </trkpt>
      <trkpt lat="31.687055714428424835205078125" lon="35.0317096710205078125">
        <ele>484.399993896484375</ele>
        <time>2017-08-04T04:53:25.000Z</time>
        <extensions>
          <ns3:TrackPointExtension>
            <ns3:atemp>26.0</ns3:atemp>
          </ns3:TrackPointExtension>
        </extensions>
      </trkpt>
      <trkpt lat="31.68707524426281452178955078125" lon="35.03175920806825160980224609375">
        <ele>485</ele>
        <time>2017-08-04T04:53:27.000Z</time>
        <extensions>
          <ns3:TrackPointExtension>
            <ns3:atemp>26.0</ns3:atemp>
          </ns3:TrackPointExtension>
        </extensions>
      </trkpt>
      <trkpt lat="31.68710893951356410980224609375" lon="35.031830370426177978515625">
        <ele>485.399993896484375</ele>
        <time>2017-08-04T04:53:30.000Z</time>
        <extensions>
          <ns3:TrackPointExtension>
            <ns3:atemp>26.0</ns3:atemp>
          </ns3:TrackPointExtension>
        </extensions>
      </trkpt>
      <trkpt lat="31.68716467916965484619140625" lon="35.03190019167959690093994140625">
        <ele>486.20001220703125</ele>
        <time>2017-08-04T04:53:34.000Z</time>
        <extensions>
          <ns3:TrackPointExtension>
            <ns3:atemp>26.0</ns3:atemp>
          </ns3:TrackPointExtension>
        </extensions>
      </trkpt>
      <trkpt lat="31.68719376437366008758544921875" lon="35.031937658786773681640625">
        <ele>486.600006103515625</ele>
        <time>2017-08-04T04:53:36.000Z</time>
        <extensions>
          <ns3:TrackPointExtension>
            <ns3:atemp>26.0</ns3:atemp>
          </ns3:TrackPointExtension>
        </extensions>
      </trkpt>
      <trkpt lat="31.6872386075556278228759765625" lon="35.03203195519745349884033203125">
        <ele>487</ele>
        <time>2017-08-04T04:53:40.000Z</time>
        <extensions>
          <ns3:TrackPointExtension>
            <ns3:atemp>26.0</ns3:atemp>
          </ns3:TrackPointExtension>
        </extensions>
      </trkpt>
      <trkpt lat="31.68728001415729522705078125" lon="35.032120048999786376953125">
        <ele>487.600006103515625</ele>
        <time>2017-08-04T04:53:44.000Z</time>
        <extensions>
          <ns3:TrackPointExtension>
            <ns3:atemp>26.0</ns3:atemp>
          </ns3:TrackPointExtension>
        </extensions>
      </trkpt>
      <trkpt lat="31.6873130388557910919189453125" lon="35.0321852602064609527587890625">
        <ele>488</ele>
        <time>2017-08-04T04:53:47.000Z</time>
        <extensions>
          <ns3:TrackPointExtension>
            <ns3:atemp>26.0</ns3:atemp>
          </ns3:TrackPointExtension>
        </extensions>
      </trkpt>
      <trkpt lat="31.6873385198414325714111328125" lon="35.03226195462048053741455078125">
        <ele>488.600006103515625</ele>
        <time>2017-08-04T04:53:51.000Z</time>
        <extensions>
          <ns3:TrackPointExtension>
            <ns3:atemp>26.0</ns3:atemp>
          </ns3:TrackPointExtension>
        </extensions>
      </trkpt>
      <trkpt lat="31.68736458756029605865478515625" lon="35.0322928838431835174560546875">
        <ele>488.79998779296875</ele>
        <time>2017-08-04T04:53:53.000Z</time>
        <extensions>
          <ns3:TrackPointExtension>
            <ns3:atemp>26.0</ns3:atemp>
          </ns3:TrackPointExtension>
        </extensions>
      </trkpt>
      <trkpt lat="31.68739979155361652374267578125" lon="35.03233395516872406005859375">
        <ele>489.399993896484375</ele>
        <time>2017-08-04T04:53:56.000Z</time>
        <extensions>
          <ns3:TrackPointExtension>
            <ns3:atemp>26.0</ns3:atemp>
          </ns3:TrackPointExtension>
        </extensions>
      </trkpt>
      <trkpt lat="31.687419153749942779541015625" lon="35.03236454911530017852783203125">
        <ele>489.600006103515625</ele>
        <time>2017-08-04T04:53:58.000Z</time>
        <extensions>
          <ns3:TrackPointExtension>
            <ns3:atemp>26.0</ns3:atemp>
          </ns3:TrackPointExtension>
        </extensions>
      </trkpt>
      <trkpt lat="31.6874263621866703033447265625" lon="35.0323770381510257720947265625">
        <ele>489.600006103515625</ele>
        <time>2017-08-04T04:53:59.000Z</time>
        <extensions>
          <ns3:TrackPointExtension>
            <ns3:atemp>26.0</ns3:atemp>
          </ns3:TrackPointExtension>
        </extensions>
      </trkpt>
      <trkpt lat="31.6874370910227298736572265625" lon="35.03238533623516559600830078125">
        <ele>489.79998779296875</ele>
        <time>2017-08-04T04:54:00.000Z</time>
        <extensions>
          <ns3:TrackPointExtension>
            <ns3:atemp>26.0</ns3:atemp>
          </ns3:TrackPointExtension>
        </extensions>
      </trkpt>
      <trkpt lat="31.68745880015194416046142578125" lon="35.03237913362681865692138671875">
        <ele>490</ele>
        <time>2017-08-04T04:54:03.000Z</time>
        <extensions>
          <ns3:TrackPointExtension>
            <ns3:atemp>26.0</ns3:atemp>
          </ns3:TrackPointExtension>
        </extensions>
      </trkpt>
      <trkpt lat="31.6852718777954578399658203125" lon="35.0179336778819561004638671875">
        <ele>362.600006103515625</ele>
        <time>2017-08-04T05:00:20.000Z</time>
        <extensions>
          <ns3:TrackPointExtension>
            <ns3:atemp>24.0</ns3:atemp>
          </ns3:TrackPointExtension>
        </extensions>
      </trkpt>
      <trkpt lat="31.6852718777954578399658203125" lon="35.0179336778819561004638671875">
        <ele>363</ele>
        <time>2017-08-04T05:00:35.000Z</time>
        <extensions>
          <ns3:TrackPointExtension>
            <ns3:atemp>24.0</ns3:atemp>
          </ns3:TrackPointExtension>
        </extensions>
      </trkpt>
      <trkpt lat="31.68527263216674327850341796875" lon="35.0179330073297023773193359375">
        <ele>363</ele>
        <time>2017-08-04T05:00:45.000Z</time>
        <extensions>
          <ns3:TrackPointExtension>
            <ns3:atemp>24.0</ns3:atemp>
          </ns3:TrackPointExtension>
        </extensions>
      </trkpt>
      <trkpt lat="31.68527263216674327850341796875" lon="35.0179330073297023773193359375">
        <ele>363</ele>
        <time>2017-08-04T05:00:58.000Z</time>
        <extensions>
          <ns3:TrackPointExtension>
            <ns3:atemp>24.0</ns3:atemp>
          </ns3:TrackPointExtension>
        </extensions>
      </trkpt>
      <trkpt lat="31.68527263216674327850341796875" lon="35.0179330073297023773193359375">
        <ele>363</ele>
        <time>2017-08-04T05:01:08.000Z</time>
        <extensions>
          <ns3:TrackPointExtension>
            <ns3:atemp>24.0</ns3:atemp>
          </ns3:TrackPointExtension>
        </extensions>
      </trkpt>
      <trkpt lat="31.6852743923664093017578125" lon="35.01793124713003635406494140625">
        <ele>363</ele>
        <time>2017-08-04T05:01:22.000Z</time>
        <extensions>
          <ns3:TrackPointExtension>
            <ns3:atemp>24.0</ns3:atemp>
          </ns3:TrackPointExtension>
        </extensions>
      </trkpt>
      <trkpt lat="31.6852743923664093017578125" lon="35.01793124713003635406494140625">
        <ele>363</ele>
        <time>2017-08-04T05:01:34.000Z</time>
        <extensions>
          <ns3:TrackPointExtension>
            <ns3:atemp>24.0</ns3:atemp>
          </ns3:TrackPointExtension>
        </extensions>
      </trkpt>
      <trkpt lat="31.6852743923664093017578125" lon="35.01793124713003635406494140625">
        <ele>362.79998779296875</ele>
        <time>2017-08-04T05:01:45.000Z</time>
        <extensions>
          <ns3:TrackPointExtension>
            <ns3:atemp>24.0</ns3:atemp>
          </ns3:TrackPointExtension>
        </extensions>
      </trkpt>
      <trkpt lat="31.6852743923664093017578125" lon="35.01793124713003635406494140625">
        <ele>363</ele>
        <time>2017-08-04T05:01:57.000Z</time>
        <extensions>
          <ns3:TrackPointExtension>
            <ns3:atemp>24.0</ns3:atemp>
          </ns3:TrackPointExtension>
        </extensions>
      </trkpt>
      <trkpt lat="31.68527548201382160186767578125" lon="35.017931498587131500244140625">
        <ele>363</ele>
        <time>2017-08-04T05:02:07.000Z</time>
        <extensions>
          <ns3:TrackPointExtension>
            <ns3:atemp>24.0</ns3:atemp>
          </ns3:TrackPointExtension>
        </extensions>
      </trkpt>
      <trkpt lat="31.68527548201382160186767578125" lon="35.017931498587131500244140625">
        <ele>362.79998779296875</ele>
        <time>2017-08-04T05:02:20.000Z</time>
        <extensions>
          <ns3:TrackPointExtension>
            <ns3:atemp>25.0</ns3:atemp>
          </ns3:TrackPointExtension>
        </extensions>
      </trkpt>
      <trkpt lat="31.68527548201382160186767578125" lon="35.017931498587131500244140625">
        <ele>363</ele>
        <time>2017-08-04T05:02:30.000Z</time>
        <extensions>
          <ns3:TrackPointExtension>
            <ns3:atemp>25.0</ns3:atemp>
          </ns3:TrackPointExtension>
        </extensions>
      </trkpt>
      <trkpt lat="31.68527548201382160186767578125" lon="35.017931498587131500244140625">
        <ele>363</ele>
        <time>2017-08-04T05:02:33.000Z</time>
        <extensions>
          <ns3:TrackPointExtension>
            <ns3:atemp>25.0</ns3:atemp>
          </ns3:TrackPointExtension>
        </extensions>
      </trkpt>
      <trkpt lat="31.68527699075639247894287109375" lon="35.0179298222064971923828125">
        <ele>363.20001220703125</ele>
        <time>2017-08-04T05:02:39.000Z</time>
        <extensions>
          <ns3:TrackPointExtension>
            <ns3:atemp>25.0</ns3:atemp>
          </ns3:TrackPointExtension>
        </extensions>
      </trkpt>
      <trkpt lat="31.6852717101573944091796875" lon="35.01789134927093982696533203125">
        <ele>362.79998779296875</ele>
        <time>2017-08-04T05:02:41.000Z</time>
        <extensions>
          <ns3:TrackPointExtension>
            <ns3:atemp>25.0</ns3:atemp>
          </ns3:TrackPointExtension>
        </extensions>
      </trkpt>
      <trkpt lat="31.68526492081582546234130859375" lon="35.01787005923688411712646484375">
        <ele>362.600006103515625</ele>
        <time>2017-08-04T05:02:42.000Z</time>
        <extensions>
          <ns3:TrackPointExtension>
            <ns3:atemp>25.0</ns3:atemp>
          </ns3:TrackPointExtension>
        </extensions>
      </trkpt>
      <trkpt lat="31.68523927219212055206298828125" lon="35.0176899321377277374267578125">
        <ele>361.79998779296875</ele>
        <time>2017-08-04T05:02:47.000Z</time>
        <extensions>
          <ns3:TrackPointExtension>
            <ns3:atemp>25.0</ns3:atemp>
          </ns3:TrackPointExtension>
        </extensions>
      </trkpt>
      <trkpt lat="31.68523809872567653656005859375" lon="35.017641484737396240234375">
        <ele>361.600006103515625</ele>
        <time>2017-08-04T05:02:48.000Z</time>
        <extensions>
          <ns3:TrackPointExtension>
            <ns3:atemp>25.0</ns3:atemp>
          </ns3:TrackPointExtension>
        </extensions>
      </trkpt>
      <trkpt lat="31.68524798937141895294189453125" lon="35.017466805875301361083984375">
        <ele>360.79998779296875</ele>
        <time>2017-08-04T05:02:51.000Z</time>
        <extensions>
          <ns3:TrackPointExtension>
            <ns3:atemp>25.0</ns3:atemp>
          </ns3:TrackPointExtension>
        </extensions>
      </trkpt>
      <trkpt lat="31.685248911380767822265625" lon="35.01740620471537113189697265625">
        <ele>360.399993896484375</ele>
        <time>2017-08-04T05:02:52.000Z</time>
        <extensions>
          <ns3:TrackPointExtension>
            <ns3:atemp>25.0</ns3:atemp>
          </ns3:TrackPointExtension>
        </extensions>
      </trkpt>
      <trkpt lat="31.68524899519979953765869140625" lon="35.01726572401821613311767578125">
        <ele>359.399993896484375</ele>
        <time>2017-08-04T05:02:54.000Z</time>
        <extensions>
          <ns3:TrackPointExtension>
            <ns3:atemp>25.0</ns3:atemp>
          </ns3:TrackPointExtension>
        </extensions>
      </trkpt>
      <trkpt lat="31.68525100685656070709228515625" lon="35.01710931770503520965576171875">
        <ele>358.20001220703125</ele>
        <time>2017-08-04T05:02:56.000Z</time>
        <extensions>
          <ns3:TrackPointExtension>
            <ns3:atemp>25.0</ns3:atemp>
          </ns3:TrackPointExtension>
        </extensions>
      </trkpt>
      <trkpt lat="31.6852502524852752685546875" lon="35.01702818088233470916748046875">
        <ele>356.600006103515625</ele>
        <time>2017-08-04T05:02:57.000Z</time>
        <extensions>
          <ns3:TrackPointExtension>
            <ns3:atemp>25.0</ns3:atemp>
          </ns3:TrackPointExtension>
        </extensions>
      </trkpt>
      <trkpt lat="31.68526072986423969268798828125" lon="35.01685358583927154541015625">
        <ele>355.20001220703125</ele>
        <time>2017-08-04T05:02:59.000Z</time>
        <extensions>
          <ns3:TrackPointExtension>
            <ns3:atemp>25.0</ns3:atemp>
          </ns3:TrackPointExtension>
        </extensions>
      </trkpt>
      <trkpt lat="31.6852826066315174102783203125" lon="35.01660187728703022003173828125">
        <ele>354.399993896484375</ele>
        <time>2017-08-04T05:03:02.000Z</time>
        <extensions>
          <ns3:TrackPointExtension>
            <ns3:atemp>25.0</ns3:atemp>
          </ns3:TrackPointExtension>
        </extensions>
      </trkpt>
      <trkpt lat="31.68529610149562358856201171875" lon="35.01652090810239315032958984375">
        <ele>354</ele>
        <time>2017-08-04T05:03:03.000Z</time>
        <extensions>
          <ns3:TrackPointExtension>
            <ns3:atemp>25.0</ns3:atemp>
          </ns3:TrackPointExtension>
        </extensions>
      </trkpt>
      <trkpt lat="31.68533809483051300048828125" lon="35.01618512906134128570556640625">
        <ele>353</ele>
        <time>2017-08-04T05:03:07.000Z</time>
        <extensions>
          <ns3:TrackPointExtension>
            <ns3:atemp>25.0</ns3:atemp>
          </ns3:TrackPointExtension>
        </extensions>
      </trkpt>
      <trkpt lat="31.68537388555705547332763671875" lon="35.01592461951076984405517578125">
        <ele>351.79998779296875</ele>
        <time>2017-08-04T05:03:10.000Z</time>
        <extensions>
          <ns3:TrackPointExtension>
            <ns3:atemp>25.0</ns3:atemp>
          </ns3:TrackPointExtension>
        </extensions>
      </trkpt>
      <trkpt lat="31.68541244231164455413818359375" lon="35.01565405167639255523681640625">
        <ele>350.600006103515625</ele>
        <time>2017-08-04T05:03:13.000Z</time>
        <extensions>
          <ns3:TrackPointExtension>
            <ns3:atemp>25.0</ns3:atemp>
          </ns3:TrackPointExtension>
        </extensions>
      </trkpt>
      <trkpt lat="31.68549500405788421630859375" lon="35.0152100622653961181640625">
        <ele>349.399993896484375</ele>
        <time>2017-08-04T05:03:18.000Z</time>
        <extensions>
          <ns3:TrackPointExtension>
            <ns3:atemp>25.0</ns3:atemp>
          </ns3:TrackPointExtension>
        </extensions>
      </trkpt>
      <trkpt lat="31.68552190996706485748291015625" lon="35.01512465067207813262939453125">
        <ele>348.600006103515625</ele>
        <time>2017-08-04T05:03:19.000Z</time>
        <extensions>
          <ns3:TrackPointExtension>
            <ns3:atemp>25.0</ns3:atemp>
          </ns3:TrackPointExtension>
        </extensions>
      </trkpt>
      <trkpt lat="31.68555736541748046875" lon="35.01504519023001194000244140625">
        <ele>348.20001220703125</ele>
        <time>2017-08-04T05:03:20.000Z</time>
        <extensions>
          <ns3:TrackPointExtension>
            <ns3:atemp>25.0</ns3:atemp>
          </ns3:TrackPointExtension>
        </extensions>
      </trkpt>
      <trkpt lat="31.6856259293854236602783203125" lon="35.01488861627876758575439453125">
        <ele>348</ele>
        <time>2017-08-04T05:03:22.000Z</time>
        <extensions>
          <ns3:TrackPointExtension>
            <ns3:atemp>25.0</ns3:atemp>
          </ns3:TrackPointExtension>
        </extensions>
      </trkpt>
      <trkpt lat="31.6856579482555389404296875" lon="35.014720223844051361083984375">
        <ele>347.20001220703125</ele>
        <time>2017-08-04T05:03:24.000Z</time>
        <extensions>
          <ns3:TrackPointExtension>
            <ns3:atemp>25.0</ns3:atemp>
          </ns3:TrackPointExtension>
        </extensions>
      </trkpt>
      <trkpt lat="31.68567110784351825714111328125" lon="35.0146375782787799835205078125">
        <ele>347</ele>
        <time>2017-08-04T05:03:25.000Z</time>
        <extensions>
          <ns3:TrackPointExtension>
            <ns3:atemp>25.0</ns3:atemp>
          </ns3:TrackPointExtension>
        </extensions>
      </trkpt>
      <trkpt lat="31.68567077256739139556884765625" lon="35.01455417834222316741943359375">
        <ele>346.79998779296875</ele>
        <time>2017-08-04T05:03:26.000Z</time>
        <extensions>
          <ns3:TrackPointExtension>
            <ns3:atemp>25.0</ns3:atemp>
          </ns3:TrackPointExtension>
        </extensions>
      </trkpt>
      <trkpt lat="31.685633473098278045654296875" lon="35.0142996199429035186767578125">
        <ele>346</ele>
        <time>2017-08-04T05:03:29.000Z</time>
        <extensions>
          <ns3:TrackPointExtension>
            <ns3:atemp>25.0</ns3:atemp>
          </ns3:TrackPointExtension>
        </extensions>
      </trkpt>
      <trkpt lat="31.68560564517974853515625" lon="35.014216639101505279541015625">
        <ele>345.600006103515625</ele>
        <time>2017-08-04T05:03:30.000Z</time>
        <extensions>
          <ns3:TrackPointExtension>
            <ns3:atemp>25.0</ns3:atemp>
          </ns3:TrackPointExtension>
        </extensions>
      </trkpt>
      <trkpt lat="31.68557689525187015533447265625" lon="35.01413458026945590972900390625">
        <ele>345.399993896484375</ele>
        <time>2017-08-04T05:03:31.000Z</time>
        <extensions>
          <ns3:TrackPointExtension>
            <ns3:atemp>25.0</ns3:atemp>
          </ns3:TrackPointExtension>
        </extensions>
      </trkpt>
      <trkpt lat="31.685504727065563201904296875" lon="35.0139868073165416717529296875">
        <ele>345</ele>
        <time>2017-08-04T05:03:33.000Z</time>
        <extensions>
          <ns3:TrackPointExtension>
            <ns3:atemp>25.0</ns3:atemp>
          </ns3:TrackPointExtension>
        </extensions>
      </trkpt>
      <trkpt lat="31.68546684086322784423828125" lon="35.0139197520911693572998046875">
        <ele>344.79998779296875</ele>
        <time>2017-08-04T05:03:34.000Z</time>
        <extensions>
          <ns3:TrackPointExtension>
            <ns3:atemp>25.0</ns3:atemp>
          </ns3:TrackPointExtension>
        </extensions>
      </trkpt>
      <trkpt lat="31.68542166240513324737548828125" lon="35.01386082731187343597412109375">
        <ele>344.600006103515625</ele>
        <time>2017-08-04T05:03:35.000Z</time>
        <extensions>
          <ns3:TrackPointExtension>
            <ns3:atemp>25.0</ns3:atemp>
          </ns3:TrackPointExtension>
        </extensions>
      </trkpt>
      <trkpt lat="31.685061156749725341796875" lon="35.0134959630668163299560546875">
        <ele>344.399993896484375</ele>
        <time>2017-08-04T05:03:42.000Z</time>
        <extensions>
          <ns3:TrackPointExtension>
            <ns3:atemp>25.0</ns3:atemp>
          </ns3:TrackPointExtension>
        </extensions>
      </trkpt>
      <trkpt lat="31.6848708875477313995361328125" lon="35.01338683068752288818359375">
        <ele>343.79998779296875</ele>
        <time>2017-08-04T05:03:45.000Z</time>
        <extensions>
          <ns3:TrackPointExtension>
            <ns3:atemp>25.0</ns3:atemp>
          </ns3:TrackPointExtension>
        </extensions>
      </trkpt>
      <trkpt lat="31.68473660945892333984375" lon="35.01331382431089878082275390625">
        <ele>343</ele>
        <time>2017-08-04T05:03:47.000Z</time>
        <extensions>
          <ns3:TrackPointExtension>
            <ns3:atemp>25.0</ns3:atemp>
          </ns3:TrackPointExtension>
        </extensions>
      </trkpt>
      <trkpt lat="31.684668548405170440673828125" lon="35.01326839439570903778076171875">
        <ele>342.600006103515625</ele>
        <time>2017-08-04T05:03:48.000Z</time>
        <extensions>
          <ns3:TrackPointExtension>
            <ns3:atemp>25.0</ns3:atemp>
          </ns3:TrackPointExtension>
        </extensions>
      </trkpt>
      <trkpt lat="31.6845315881073474884033203125" lon="35.0131702423095703125">
        <ele>341.399993896484375</ele>
        <time>2017-08-04T05:03:50.000Z</time>
        <extensions>
          <ns3:TrackPointExtension>
            <ns3:atemp>25.0</ns3:atemp>
          </ns3:TrackPointExtension>
        </extensions>
      </trkpt>
      <trkpt lat="31.6843274049460887908935546875" lon="35.01302682794630527496337890625">
        <ele>340.399993896484375</ele>
        <time>2017-08-04T05:03:53.000Z</time>
        <extensions>
          <ns3:TrackPointExtension>
            <ns3:atemp>25.0</ns3:atemp>
          </ns3:TrackPointExtension>
        </extensions>
      </trkpt>
      <trkpt lat="31.68402892537415027618408203125" lon="35.01275273971259593963623046875">
        <ele>339.600006103515625</ele>
        <time>2017-08-04T05:03:58.000Z</time>
        <extensions>
          <ns3:TrackPointExtension>
            <ns3:atemp>25.0</ns3:atemp>
          </ns3:TrackPointExtension>
        </extensions>
      </trkpt>
      <trkpt lat="31.6840102337300777435302734375" lon="35.012664310634136199951171875">
        <ele>339.20001220703125</ele>
        <time>2017-08-04T05:03:59.000Z</time>
        <extensions>
          <ns3:TrackPointExtension>
            <ns3:atemp>25.0</ns3:atemp>
          </ns3:TrackPointExtension>
        </extensions>
      </trkpt>
      <trkpt lat="31.684010736644268035888671875" lon="35.0123925693333148956298828125">
        <ele>338</ele>
        <time>2017-08-04T05:04:02.000Z</time>
        <extensions>
          <ns3:TrackPointExtension>
            <ns3:atemp>25.0</ns3:atemp>
          </ns3:TrackPointExtension>
        </extensions>
      </trkpt>
      <trkpt lat="31.68400428257882595062255859375" lon="35.012207664549350738525390625">
        <ele>336.79998779296875</ele>
        <time>2017-08-04T05:04:04.000Z</time>
        <extensions>
          <ns3:TrackPointExtension>
            <ns3:atemp>25.0</ns3:atemp>
          </ns3:TrackPointExtension>
        </extensions>
      </trkpt>
      <trkpt lat="31.68399631977081298828125" lon="35.01183919608592987060546875">
        <ele>335.79998779296875</ele>
        <time>2017-08-04T05:04:08.000Z</time>
        <extensions>
          <ns3:TrackPointExtension>
            <ns3:atemp>25.0</ns3:atemp>
          </ns3:TrackPointExtension>
        </extensions>
      </trkpt>
      <trkpt lat="31.68398316018283367156982421875" lon="35.01165370456874370574951171875">
        <ele>335.20001220703125</ele>
        <time>2017-08-04T05:04:10.000Z</time>
        <extensions>
          <ns3:TrackPointExtension>
            <ns3:atemp>25.0</ns3:atemp>
          </ns3:TrackPointExtension>
        </extensions>
      </trkpt>
      <trkpt lat="31.68397762812674045562744140625" lon="35.01146896742284297943115234375">
        <ele>334.600006103515625</ele>
        <time>2017-08-04T05:04:12.000Z</time>
        <extensions>
          <ns3:TrackPointExtension>
            <ns3:atemp>25.0</ns3:atemp>
          </ns3:TrackPointExtension>
        </extensions>
      </trkpt>
      <trkpt lat="31.6839337907731533050537109375" lon="35.01119454391300678253173828125">
        <ele>333.600006103515625</ele>
        <time>2017-08-04T05:04:15.000Z</time>
        <extensions>
          <ns3:TrackPointExtension>
            <ns3:atemp>25.0</ns3:atemp>
          </ns3:TrackPointExtension>
        </extensions>
      </trkpt>
      <trkpt lat="31.68391929008066654205322265625" lon="35.01110368408262729644775390625">
        <ele>333.399993896484375</ele>
        <time>2017-08-04T05:04:16.000Z</time>
        <extensions>
          <ns3:TrackPointExtension>
            <ns3:atemp>25.0</ns3:atemp>
          </ns3:TrackPointExtension>
        </extensions>
      </trkpt>
      <trkpt lat="31.68388727121055126190185546875" lon="35.0109233893454074859619140625">
        <ele>332.600006103515625</ele>
        <time>2017-08-04T05:04:18.000Z</time>
        <extensions>
          <ns3:TrackPointExtension>
            <ns3:atemp>25.0</ns3:atemp>
          </ns3:TrackPointExtension>
        </extensions>
      </trkpt>
      <trkpt lat="31.683839745819568634033203125" lon="35.010659694671630859375">
        <ele>331.600006103515625</ele>
        <time>2017-08-04T05:04:21.000Z</time>
        <extensions>
          <ns3:TrackPointExtension>
            <ns3:atemp>25.0</ns3:atemp>
          </ns3:TrackPointExtension>
        </extensions>
      </trkpt>
      <trkpt lat="31.68375651352107524871826171875" lon="35.010313689708709716796875">
        <ele>330.399993896484375</ele>
        <time>2017-08-04T05:04:25.000Z</time>
        <extensions>
          <ns3:TrackPointExtension>
            <ns3:atemp>25.0</ns3:atemp>
          </ns3:TrackPointExtension>
        </extensions>
      </trkpt>
      <trkpt lat="31.683572866022586822509765625" lon="35.0097053311765193939208984375">
        <ele>329.600006103515625</ele>
        <time>2017-08-04T05:04:32.000Z</time>
        <extensions>
          <ns3:TrackPointExtension>
            <ns3:atemp>25.0</ns3:atemp>
          </ns3:TrackPointExtension>
        </extensions>
      </trkpt>
      <trkpt lat="31.68354235589504241943359375" lon="35.0096189975738525390625">
        <ele>329.20001220703125</ele>
        <time>2017-08-04T05:04:33.000Z</time>
        <extensions>
          <ns3:TrackPointExtension>
            <ns3:atemp>25.0</ns3:atemp>
          </ns3:TrackPointExtension>
        </extensions>
      </trkpt>
      <trkpt lat="31.6835200600326061248779296875" lon="35.0095306523144245147705078125">
        <ele>329.20001220703125</ele>
        <time>2017-08-04T05:04:34.000Z</time>
        <extensions>
          <ns3:TrackPointExtension>
            <ns3:atemp>25.0</ns3:atemp>
          </ns3:TrackPointExtension>
        </extensions>
      </trkpt>
      <trkpt lat="31.68351846747100353240966796875" lon="35.00935790129005908966064453125">
        <ele>329</ele>
        <time>2017-08-04T05:04:36.000Z</time>
        <extensions>
          <ns3:TrackPointExtension>
            <ns3:atemp>25.0</ns3:atemp>
          </ns3:TrackPointExtension>
        </extensions>
      </trkpt>
      <trkpt lat="31.68358770199120044708251953125" lon="35.0091273151338100433349609375">
        <ele>328.79998779296875</ele>
        <time>2017-08-04T05:04:39.000Z</time>
        <extensions>
          <ns3:TrackPointExtension>
            <ns3:atemp>25.0</ns3:atemp>
          </ns3:TrackPointExtension>
        </extensions>
      </trkpt>
      <trkpt lat="31.68360270559787750244140625" lon="35.00904458574950695037841796875">
        <ele>328.600006103515625</ele>
        <time>2017-08-04T05:04:40.000Z</time>
        <extensions>
          <ns3:TrackPointExtension>
            <ns3:atemp>25.0</ns3:atemp>
          </ns3:TrackPointExtension>
        </extensions>
      </trkpt>
      <trkpt lat="31.68361770920455455780029296875" lon="35.00896143727004528045654296875">
        <ele>328.20001220703125</ele>
        <time>2017-08-04T05:04:41.000Z</time>
        <extensions>
          <ns3:TrackPointExtension>
            <ns3:atemp>25.0</ns3:atemp>
          </ns3:TrackPointExtension>
        </extensions>
      </trkpt>
      <trkpt lat="31.6836597025394439697265625" lon="35.0088007561862468719482421875">
        <ele>327.20001220703125</ele>
        <time>2017-08-04T05:04:43.000Z</time>
        <extensions>
          <ns3:TrackPointExtension>
            <ns3:atemp>25.0</ns3:atemp>
          </ns3:TrackPointExtension>
        </extensions>
      </trkpt>
      <trkpt lat="31.683676131069660186767578125" lon="35.0087192840874195098876953125">
        <ele>327</ele>
        <time>2017-08-04T05:04:44.000Z</time>
        <extensions>
          <ns3:TrackPointExtension>
            <ns3:atemp>25.0</ns3:atemp>
          </ns3:TrackPointExtension>
        </extensions>
      </trkpt>
      <trkpt lat="31.6836806572973728179931640625" lon="35.008636973798274993896484375">
        <ele>327</ele>
        <time>2017-08-04T05:04:45.000Z</time>
        <extensions>
          <ns3:TrackPointExtension>
            <ns3:atemp>25.0</ns3:atemp>
          </ns3:TrackPointExtension>
        </extensions>
      </trkpt>
      <trkpt lat="31.68367445468902587890625" lon="35.0084765441715717315673828125">
        <ele>326.600006103515625</ele>
        <time>2017-08-04T05:04:47.000Z</time>
        <extensions>
          <ns3:TrackPointExtension>
            <ns3:atemp>25.0</ns3:atemp>
          </ns3:TrackPointExtension>
        </extensions>
      </trkpt>
      <trkpt lat="31.68366598896682262420654296875" lon="35.00807748176157474517822265625">
        <ele>326.20001220703125</ele>
        <time>2017-08-04T05:04:52.000Z</time>
        <extensions>
          <ns3:TrackPointExtension>
            <ns3:atemp>25.0</ns3:atemp>
          </ns3:TrackPointExtension>
        </extensions>
      </trkpt>
      <trkpt lat="31.6836612112820148468017578125" lon="35.00799684785306453704833984375">
        <ele>326</ele>
        <time>2017-08-04T05:04:53.000Z</time>
        <extensions>
          <ns3:TrackPointExtension>
            <ns3:atemp>25.0</ns3:atemp>
          </ns3:TrackPointExtension>
        </extensions>
      </trkpt>
      <trkpt lat="31.6836541704833507537841796875" lon="35.00791654922068119049072265625">
        <ele>326</ele>
        <time>2017-08-04T05:04:54.000Z</time>
        <extensions>
          <ns3:TrackPointExtension>
            <ns3:atemp>25.0</ns3:atemp>
          </ns3:TrackPointExtension>
        </extensions>
      </trkpt>
      <trkpt lat="31.6836246661841869354248046875" lon="35.00759501941502094268798828125">
        <ele>324.79998779296875</ele>
        <time>2017-08-04T05:04:58.000Z</time>
        <extensions>
          <ns3:TrackPointExtension>
            <ns3:atemp>25.0</ns3:atemp>
          </ns3:TrackPointExtension>
        </extensions>
      </trkpt>
      <trkpt lat="31.6836099140346050262451171875" lon="35.00743760727345943450927734375">
        <ele>324.79998779296875</ele>
        <time>2017-08-04T05:05:00.000Z</time>
        <extensions>
          <ns3:TrackPointExtension>
            <ns3:atemp>25.0</ns3:atemp>
          </ns3:TrackPointExtension>
        </extensions>
      </trkpt>
      <trkpt lat="31.68361871503293514251708984375" lon="35.00710182823240756988525390625">
        <ele>324.399993896484375</ele>
        <time>2017-08-04T05:05:04.000Z</time>
        <extensions>
          <ns3:TrackPointExtension>
            <ns3:atemp>25.0</ns3:atemp>
          </ns3:TrackPointExtension>
        </extensions>
      </trkpt>
      <trkpt lat="31.68364050798118114471435546875" lon="35.00701968558132648468017578125">
        <ele>324.20001220703125</ele>
        <time>2017-08-04T05:05:05.000Z</time>
        <extensions>
          <ns3:TrackPointExtension>
            <ns3:atemp>25.0</ns3:atemp>
          </ns3:TrackPointExtension>
        </extensions>
      </trkpt>
      <trkpt lat="31.683665402233600616455078125" lon="35.00693938694894313812255859375">
        <ele>323.79998779296875</ele>
        <time>2017-08-04T05:05:06.000Z</time>
        <extensions>
          <ns3:TrackPointExtension>
            <ns3:atemp>25.0</ns3:atemp>
          </ns3:TrackPointExtension>
        </extensions>
      </trkpt>
      <trkpt lat="31.6837530769407749176025390625" lon="35.006713159382343292236328125">
        <ele>323</ele>
        <time>2017-08-04T05:05:09.000Z</time>
        <extensions>
          <ns3:TrackPointExtension>
            <ns3:atemp>25.0</ns3:atemp>
          </ns3:TrackPointExtension>
        </extensions>
      </trkpt>
      <trkpt lat="31.68378719128668308258056640625" lon="35.00664182938635349273681640625">
        <ele>323</ele>
        <time>2017-08-04T05:05:10.000Z</time>
        <extensions>
          <ns3:TrackPointExtension>
            <ns3:atemp>25.0</ns3:atemp>
          </ns3:TrackPointExtension>
        </extensions>
      </trkpt>
      <trkpt lat="31.6839026100933551788330078125" lon="35.00642825849354267120361328125">
        <ele>322.399993896484375</ele>
        <time>2017-08-04T05:05:13.000Z</time>
        <extensions>
          <ns3:TrackPointExtension>
            <ns3:atemp>25.0</ns3:atemp>
          </ns3:TrackPointExtension>
        </extensions>
      </trkpt>
      <trkpt lat="31.68401174247264862060546875" lon="35.006200857460498809814453125">
        <ele>321</ele>
        <time>2017-08-04T05:05:16.000Z</time>
        <extensions>
          <ns3:TrackPointExtension>
            <ns3:atemp>25.0</ns3:atemp>
          </ns3:TrackPointExtension>
        </extensions>
      </trkpt>
      <trkpt lat="31.68404988013207912445068359375" lon="35.00612583942711353302001953125">
        <ele>320.79998779296875</ele>
        <time>2017-08-04T05:05:17.000Z</time>
        <extensions>
          <ns3:TrackPointExtension>
            <ns3:atemp>25.0</ns3:atemp>
          </ns3:TrackPointExtension>
        </extensions>
      </trkpt>
      <trkpt lat="31.684192121028900146484375" lon="35.00583917833864688873291015625">
        <ele>320</ele>
        <time>2017-08-04T05:05:21.000Z</time>
        <extensions>
          <ns3:TrackPointExtension>
            <ns3:atemp>25.0</ns3:atemp>
          </ns3:TrackPointExtension>
        </extensions>
      </trkpt>
      <trkpt lat="31.6842345334589481353759765625" lon="35.00577530823647975921630859375">
        <ele>319.79998779296875</ele>
        <time>2017-08-04T05:05:22.000Z</time>
        <extensions>
          <ns3:TrackPointExtension>
            <ns3:atemp>25.0</ns3:atemp>
          </ns3:TrackPointExtension>
        </extensions>
      </trkpt>
      <trkpt lat="31.6843290813267230987548828125" lon="35.00566340982913970947265625">
        <ele>319.399993896484375</ele>
        <time>2017-08-04T05:05:24.000Z</time>
        <extensions>
          <ns3:TrackPointExtension>
            <ns3:atemp>25.0</ns3:atemp>
          </ns3:TrackPointExtension>
        </extensions>
      </trkpt>
      <trkpt lat="31.68452630750834941864013671875" lon="35.0054516829550266265869140625">
        <ele>319</ele>
        <time>2017-08-04T05:05:28.000Z</time>
        <extensions>
          <ns3:TrackPointExtension>
            <ns3:atemp>25.0</ns3:atemp>
          </ns3:TrackPointExtension>
        </extensions>
      </trkpt>
      <trkpt lat="31.684590764343738555908203125" lon="35.005425699055194854736328125">
        <ele>318.79998779296875</ele>
        <time>2017-08-04T05:05:29.000Z</time>
        <extensions>
          <ns3:TrackPointExtension>
            <ns3:atemp>25.0</ns3:atemp>
          </ns3:TrackPointExtension>
        </extensions>
      </trkpt>
      <trkpt lat="31.6847253777086734771728515625" lon="35.00539711676537990570068359375">
        <ele>318.600006103515625</ele>
        <time>2017-08-04T05:05:31.000Z</time>
        <extensions>
          <ns3:TrackPointExtension>
            <ns3:atemp>25.0</ns3:atemp>
          </ns3:TrackPointExtension>
        </extensions>
      </trkpt>
      <trkpt lat="31.68486879207193851470947265625" lon="35.0053970329463481903076171875">
        <ele>317.79998779296875</ele>
        <time>2017-08-04T05:05:33.000Z</time>
        <extensions>
          <ns3:TrackPointExtension>
            <ns3:atemp>25.0</ns3:atemp>
          </ns3:TrackPointExtension>
        </extensions>
      </trkpt>
      <trkpt lat="31.6849309019744396209716796875" lon="35.0053933449089527130126953125">
        <ele>317.79998779296875</ele>
        <time>2017-08-04T05:05:34.000Z</time>
        <extensions>
          <ns3:TrackPointExtension>
            <ns3:atemp>25.0</ns3:atemp>
          </ns3:TrackPointExtension>
        </extensions>
      </trkpt>
      <trkpt lat="31.68498664163053035736083984375" lon="35.00538135878741741180419921875">
        <ele>317.79998779296875</ele>
        <time>2017-08-04T05:05:35.000Z</time>
        <extensions>
          <ns3:TrackPointExtension>
            <ns3:atemp>25.0</ns3:atemp>
          </ns3:TrackPointExtension>
        </extensions>
      </trkpt>
      <trkpt lat="31.685045398771762847900390625" lon="35.005364008247852325439453125">
        <ele>319.20001220703125</ele>
        <time>2017-08-04T05:05:37.000Z</time>
        <extensions>
          <ns3:TrackPointExtension>
            <ns3:atemp>25.0</ns3:atemp>
          </ns3:TrackPointExtension>
        </extensions>
      </trkpt>
      <trkpt lat="31.68506576679646968841552734375" lon="35.0053732283413410186767578125">
        <ele>320</ele>
        <time>2017-08-04T05:05:38.000Z</time>
        <extensions>
          <ns3:TrackPointExtension>
            <ns3:atemp>25.0</ns3:atemp>
          </ns3:TrackPointExtension>
        </extensions>
      </trkpt>
      <trkpt lat="31.68508269824087619781494140625" lon="35.0053832866251468658447265625">
        <ele>320.399993896484375</ele>
        <time>2017-08-04T05:05:39.000Z</time>
        <extensions>
          <ns3:TrackPointExtension>
            <ns3:atemp>25.0</ns3:atemp>
          </ns3:TrackPointExtension>
        </extensions>
      </trkpt>
      <trkpt lat="31.685105077922344207763671875" lon="35.005404911935329437255859375">
        <ele>320.79998779296875</ele>
        <time>2017-08-04T05:05:41.000Z</time>
        <extensions>
          <ns3:TrackPointExtension>
            <ns3:atemp>25.0</ns3:atemp>
          </ns3:TrackPointExtension>
        </extensions>
      </trkpt>
      <trkpt lat="31.6852172277867794036865234375" lon="35.00546383671462535858154296875">
        <ele>320.79998779296875</ele>
        <time>2017-08-04T05:05:45.000Z</time>
        <extensions>
          <ns3:TrackPointExtension>
            <ns3:atemp>25.0</ns3:atemp>
          </ns3:TrackPointExtension>
        </extensions>
      </trkpt>
      <trkpt lat="31.685450412333011627197265625" lon="35.0055831111967563629150390625">
        <ele>321.20001220703125</ele>
        <time>2017-08-04T05:05:50.000Z</time>
        <extensions>
          <ns3:TrackPointExtension>
            <ns3:atemp>25.0</ns3:atemp>
          </ns3:TrackPointExtension>
        </extensions>
      </trkpt>
      <trkpt lat="31.68577034957706928253173828125" lon="35.0057178921997547149658203125">
        <ele>320.79998779296875</ele>
        <time>2017-08-04T05:05:56.000Z</time>
        <extensions>
          <ns3:TrackPointExtension>
            <ns3:atemp>25.0</ns3:atemp>
          </ns3:TrackPointExtension>
        </extensions>
      </trkpt>
      <trkpt lat="31.68582181446254253387451171875" lon="35.0057525932788848876953125">
        <ele>320.600006103515625</ele>
        <time>2017-08-04T05:05:57.000Z</time>
        <extensions>
          <ns3:TrackPointExtension>
            <ns3:atemp>25.0</ns3:atemp>
          </ns3:TrackPointExtension>
        </extensions>
      </trkpt>
      <trkpt lat="31.685945950448513031005859375" lon="35.0059016235172748565673828125">
        <ele>320.79998779296875</ele>
        <time>2017-08-04T05:06:00.000Z</time>
        <extensions>
          <ns3:TrackPointExtension>
            <ns3:atemp>25.0</ns3:atemp>
          </ns3:TrackPointExtension>
        </extensions>
      </trkpt>
      <trkpt lat="31.6859783045947551727294921875" lon="35.00595711171627044677734375">
        <ele>320.79998779296875</ele>
        <time>2017-08-04T05:06:01.000Z</time>
        <extensions>
          <ns3:TrackPointExtension>
            <ns3:atemp>25.0</ns3:atemp>
          </ns3:TrackPointExtension>
        </extensions>
      </trkpt>
      <trkpt lat="31.6861434280872344970703125" lon="35.0062124244868755340576171875">
        <ele>321.600006103515625</ele>
        <time>2017-08-04T05:06:06.000Z</time>
        <extensions>
          <ns3:TrackPointExtension>
            <ns3:atemp>25.0</ns3:atemp>
          </ns3:TrackPointExtension>
        </extensions>
      </trkpt>
      <trkpt lat="31.68624409474432468414306640625" lon="35.00636120326817035675048828125">
        <ele>322.600006103515625</ele>
        <time>2017-08-04T05:06:09.000Z</time>
        <extensions>
          <ns3:TrackPointExtension>
            <ns3:atemp>25.0</ns3:atemp>
          </ns3:TrackPointExtension>
        </extensions>
      </trkpt>
      <trkpt lat="31.6862803883850574493408203125" lon="35.00640613026916980743408203125">
        <ele>322.79998779296875</ele>
        <time>2017-08-04T05:06:10.000Z</time>
        <extensions>
          <ns3:TrackPointExtension>
            <ns3:atemp>25.0</ns3:atemp>
          </ns3:TrackPointExtension>
        </extensions>
      </trkpt>
      <trkpt lat="31.68641097843647003173828125" lon="35.00662900507450103759765625">
        <ele>324</ele>
        <time>2017-08-04T05:06:15.000Z</time>
        <extensions>
          <ns3:TrackPointExtension>
            <ns3:atemp>25.0</ns3:atemp>
          </ns3:TrackPointExtension>
        </extensions>
      </trkpt>
      <trkpt lat="31.68649052269756793975830078125" lon="35.0067951343953609466552734375">
        <ele>325</ele>
        <time>2017-08-04T05:06:19.000Z</time>
        <extensions>
          <ns3:TrackPointExtension>
            <ns3:atemp>25.0</ns3:atemp>
          </ns3:TrackPointExtension>
        </extensions>
      </trkpt>
      <trkpt lat="31.686548776924610137939453125" lon="35.00692807137966156005859375">
        <ele>325.600006103515625</ele>
        <time>2017-08-04T05:06:22.000Z</time>
        <extensions>
          <ns3:TrackPointExtension>
            <ns3:atemp>25.0</ns3:atemp>
          </ns3:TrackPointExtension>
        </extensions>
      </trkpt>
      <trkpt lat="31.6865740902721881866455078125" lon="35.0069691427052021026611328125">
        <ele>325.79998779296875</ele>
        <time>2017-08-04T05:06:23.000Z</time>
        <extensions>
          <ns3:TrackPointExtension>
            <ns3:atemp>25.0</ns3:atemp>
          </ns3:TrackPointExtension>
        </extensions>
      </trkpt>
      <trkpt lat="31.68663402087986469268798828125" lon="35.0070346891880035400390625">
        <ele>326</ele>
        <time>2017-08-04T05:06:25.000Z</time>
        <extensions>
          <ns3:TrackPointExtension>
            <ns3:atemp>25.0</ns3:atemp>
          </ns3:TrackPointExtension>
        </extensions>
      </trkpt>
      <trkpt lat="31.6866978071630001068115234375" lon="35.0070931948721408843994140625">
        <ele>326.20001220703125</ele>
        <time>2017-08-04T05:06:27.000Z</time>
        <extensions>
          <ns3:TrackPointExtension>
            <ns3:atemp>25.0</ns3:atemp>
          </ns3:TrackPointExtension>
        </extensions>
      </trkpt>
      <trkpt lat="31.68685161508619785308837890625" lon="35.00725655816495418548583984375">
        <ele>327.20001220703125</ele>
        <time>2017-08-04T05:06:32.000Z</time>
        <extensions>
          <ns3:TrackPointExtension>
            <ns3:atemp>25.0</ns3:atemp>
          </ns3:TrackPointExtension>
        </extensions>
      </trkpt>
      <trkpt lat="31.686945743858814239501953125" lon="35.0073436461389064788818359375">
        <ele>328</ele>
        <time>2017-08-04T05:06:35.000Z</time>
        <extensions>
          <ns3:TrackPointExtension>
            <ns3:atemp>25.0</ns3:atemp>
          </ns3:TrackPointExtension>
        </extensions>
      </trkpt>
      <trkpt lat="31.6870015673339366912841796875" lon="35.00740106217563152313232421875">
        <ele>328.399993896484375</ele>
        <time>2017-08-04T05:06:37.000Z</time>
        <extensions>
          <ns3:TrackPointExtension>
            <ns3:atemp>25.0</ns3:atemp>
          </ns3:TrackPointExtension>
        </extensions>
      </trkpt>
      <trkpt lat="31.68717985041439533233642578125" lon="35.00751438550651073455810546875">
        <ele>329</ele>
        <time>2017-08-04T05:06:42.000Z</time>
        <extensions>
          <ns3:TrackPointExtension>
            <ns3:atemp>25.0</ns3:atemp>
          </ns3:TrackPointExtension>
        </extensions>
      </trkpt>
      <trkpt lat="31.687269620597362518310546875" lon="35.0075367651879787445068359375">
        <ele>329</ele>
        <time>2017-08-04T05:06:44.000Z</time>
        <extensions>
          <ns3:TrackPointExtension>
            <ns3:atemp>25.0</ns3:atemp>
          </ns3:TrackPointExtension>
        </extensions>
      </trkpt>
      <trkpt lat="31.68740515597164630889892578125" lon="35.00753735192120075225830078125">
        <ele>328.600006103515625</ele>
        <time>2017-08-04T05:06:47.000Z</time>
        <extensions>
          <ns3:TrackPointExtension>
            <ns3:atemp>25.0</ns3:atemp>
          </ns3:TrackPointExtension>
        </extensions>
      </trkpt>
      <trkpt lat="31.6875971853733062744140625" lon="35.00754757784307003021240234375">
        <ele>328.600006103515625</ele>
        <time>2017-08-04T05:06:51.000Z</time>
        <extensions>
          <ns3:TrackPointExtension>
            <ns3:atemp>25.0</ns3:atemp>
          </ns3:TrackPointExtension>
        </extensions>
      </trkpt>
      <trkpt lat="31.687645129859447479248046875" lon="35.00756484456360340118408203125">
        <ele>328.399993896484375</ele>
        <time>2017-08-04T05:06:52.000Z</time>
        <extensions>
          <ns3:TrackPointExtension>
            <ns3:atemp>25.0</ns3:atemp>
          </ns3:TrackPointExtension>
        </extensions>
      </trkpt>
      <trkpt lat="31.6879577748477458953857421875" lon="35.00771370716392993927001953125">
        <ele>329.20001220703125</ele>
        <time>2017-08-04T05:06:59.000Z</time>
        <extensions>
          <ns3:TrackPointExtension>
            <ns3:atemp>25.0</ns3:atemp>
          </ns3:TrackPointExtension>
        </extensions>
      </trkpt>
      <trkpt lat="31.68803329579532146453857421875" lon="35.0077808462083339691162109375">
        <ele>329.399993896484375</ele>
        <time>2017-08-04T05:07:01.000Z</time>
        <extensions>
          <ns3:TrackPointExtension>
            <ns3:atemp>25.0</ns3:atemp>
          </ns3:TrackPointExtension>
        </extensions>
      </trkpt>
      <trkpt lat="31.68812868185341358184814453125" lon="35.00790414400398731231689453125">
        <ele>330</ele>
        <time>2017-08-04T05:07:04.000Z</time>
        <extensions>
          <ns3:TrackPointExtension>
            <ns3:atemp>25.0</ns3:atemp>
          </ns3:TrackPointExtension>
        </extensions>
      </trkpt>
      <trkpt lat="31.68819020502269268035888671875" lon="35.0079860351979732513427734375">
        <ele>330.399993896484375</ele>
        <time>2017-08-04T05:07:06.000Z</time>
        <extensions>
          <ns3:TrackPointExtension>
            <ns3:atemp>25.0</ns3:atemp>
          </ns3:TrackPointExtension>
        </extensions>
      </trkpt>
      <trkpt lat="31.6884040273725986480712890625" lon="35.00822952948510646820068359375">
        <ele>331.399993896484375</ele>
        <time>2017-08-04T05:07:13.000Z</time>
        <extensions>
          <ns3:TrackPointExtension>
            <ns3:atemp>25.0</ns3:atemp>
          </ns3:TrackPointExtension>
        </extensions>
      </trkpt>
      <trkpt lat="31.68843738734722137451171875" lon="35.00826322473585605621337890625">
        <ele>331.600006103515625</ele>
        <time>2017-08-04T05:07:14.000Z</time>
        <extensions>
          <ns3:TrackPointExtension>
            <ns3:atemp>25.0</ns3:atemp>
          </ns3:TrackPointExtension>
        </extensions>
      </trkpt>
      <trkpt lat="31.68870083056390285491943359375" lon="35.00851728022098541259765625">
        <ele>332.20001220703125</ele>
        <time>2017-08-04T05:07:22.000Z</time>
        <extensions>
          <ns3:TrackPointExtension>
            <ns3:atemp>25.0</ns3:atemp>
          </ns3:TrackPointExtension>
        </extensions>
      </trkpt>
      <trkpt lat="31.68905563652515411376953125" lon="35.008767060935497283935546875">
        <ele>332</ele>
        <time>2017-08-04T05:07:31.000Z</time>
        <extensions>
          <ns3:TrackPointExtension>
            <ns3:atemp>25.0</ns3:atemp>
          </ns3:TrackPointExtension>
        </extensions>
      </trkpt>
      <trkpt lat="31.68935713358223438262939453125" lon="35.00894106924533843994140625">
        <ele>330.79998779296875</ele>
        <time>2017-08-04T05:07:38.000Z</time>
        <extensions>
          <ns3:TrackPointExtension>
            <ns3:atemp>25.0</ns3:atemp>
          </ns3:TrackPointExtension>
        </extensions>
      </trkpt>
      <trkpt lat="31.68939619325101375579833984375" lon="35.00897585414350032806396484375">
        <ele>330.79998779296875</ele>
        <time>2017-08-04T05:07:39.000Z</time>
        <extensions>
          <ns3:TrackPointExtension>
            <ns3:atemp>25.0</ns3:atemp>
          </ns3:TrackPointExtension>
        </extensions>
      </trkpt>
      <trkpt lat="31.68954019434750080108642578125" lon="35.0091350264847278594970703125">
        <ele>330.79998779296875</ele>
        <time>2017-08-04T05:07:43.000Z</time>
        <extensions>
          <ns3:TrackPointExtension>
            <ns3:atemp>25.0</ns3:atemp>
          </ns3:TrackPointExtension>
        </extensions>
      </trkpt>
      <trkpt lat="31.68956534005701541900634765625" lon="35.009182803332805633544921875">
        <ele>330.79998779296875</ele>
        <time>2017-08-04T05:07:44.000Z</time>
        <extensions>
          <ns3:TrackPointExtension>
            <ns3:atemp>25.0</ns3:atemp>
          </ns3:TrackPointExtension>
        </extensions>
      </trkpt>
      <trkpt lat="31.68963423930108547210693359375" lon="35.0093013234436511993408203125">
        <ele>331.600006103515625</ele>
        <time>2017-08-04T05:07:48.000Z</time>
        <extensions>
          <ns3:TrackPointExtension>
            <ns3:atemp>25.0</ns3:atemp>
          </ns3:TrackPointExtension>
        </extensions>
      </trkpt>
      <trkpt lat="31.68977488763630390167236328125" lon="35.00940199010074138641357421875">
        <ele>331.20001220703125</ele>
        <time>2017-08-04T05:07:53.000Z</time>
        <extensions>
          <ns3:TrackPointExtension>
            <ns3:atemp>25.0</ns3:atemp>
          </ns3:TrackPointExtension>
        </extensions>
      </trkpt>
      <trkpt lat="31.689941771328449249267578125" lon="35.0095138885080814361572265625">
        <ele>331.20001220703125</ele>
        <time>2017-08-04T05:08:00.000Z</time>
        <extensions>
          <ns3:TrackPointExtension>
            <ns3:atemp>25.0</ns3:atemp>
          </ns3:TrackPointExtension>
        </extensions>
      </trkpt>
      <trkpt lat="31.69003665447235107421875" lon="35.00959879718720912933349609375">
        <ele>330.600006103515625</ele>
        <time>2017-08-04T05:08:04.000Z</time>
        <extensions>
          <ns3:TrackPointExtension>
            <ns3:atemp>24.0</ns3:atemp>
          </ns3:TrackPointExtension>
        </extensions>
      </trkpt>
      <trkpt lat="31.69007965363562107086181640625" lon="35.00964506529271602630615234375">
        <ele>330.399993896484375</ele>
        <time>2017-08-04T05:08:06.000Z</time>
        <extensions>
          <ns3:TrackPointExtension>
            <ns3:atemp>24.0</ns3:atemp>
          </ns3:TrackPointExtension>
        </extensions>
      </trkpt>
      <trkpt lat="31.6901216469705104827880859375" lon="35.009725950658321380615234375">
        <ele>330.399993896484375</ele>
        <time>2017-08-04T05:08:11.000Z</time>
        <extensions>
          <ns3:TrackPointExtension>
            <ns3:atemp>24.0</ns3:atemp>
          </ns3:TrackPointExtension>
        </extensions>
      </trkpt>
      <trkpt lat="31.69012960977852344512939453125" lon="35.00973039306700229644775390625">
        <ele>330.600006103515625</ele>
        <time>2017-08-04T05:08:17.000Z</time>
        <extensions>
          <ns3:TrackPointExtension>
            <ns3:atemp>24.0</ns3:atemp>
          </ns3:TrackPointExtension>
        </extensions>
      </trkpt>
      <trkpt lat="31.69013430364429950714111328125" lon="35.009755454957485198974609375">
        <ele>330.399993896484375</ele>
        <time>2017-08-04T05:08:19.000Z</time>
        <extensions>
          <ns3:TrackPointExtension>
            <ns3:atemp>24.0</ns3:atemp>
          </ns3:TrackPointExtension>
        </extensions>
      </trkpt>
      <trkpt lat="31.69014804996550083160400390625" lon="35.00980130396783351898193359375">
        <ele>330.399993896484375</ele>
        <time>2017-08-04T05:08:21.000Z</time>
        <extensions>
          <ns3:TrackPointExtension>
            <ns3:atemp>24.0</ns3:atemp>
          </ns3:TrackPointExtension>
        </extensions>
      </trkpt>
      <trkpt lat="31.69018845073878765106201171875" lon="35.00996290706098079681396484375">
        <ele>330.20001220703125</ele>
        <time>2017-08-04T05:08:25.000Z</time>
        <extensions>
          <ns3:TrackPointExtension>
            <ns3:atemp>24.0</ns3:atemp>
          </ns3:TrackPointExtension>
        </extensions>
      </trkpt>
      <trkpt lat="31.69019616208970546722412109375" lon="35.01001034863293170928955078125">
        <ele>330.20001220703125</ele>
        <time>2017-08-04T05:08:26.000Z</time>
        <extensions>
          <ns3:TrackPointExtension>
            <ns3:atemp>24.0</ns3:atemp>
          </ns3:TrackPointExtension>
        </extensions>
      </trkpt>
      <trkpt lat="31.69029305689036846160888671875" lon="35.01036188565194606781005859375">
        <ele>331.600006103515625</ele>
        <time>2017-08-04T05:08:34.000Z</time>
        <extensions>
          <ns3:TrackPointExtension>
            <ns3:atemp>24.0</ns3:atemp>
          </ns3:TrackPointExtension>
        </extensions>
      </trkpt>
      <trkpt lat="31.69031049124896526336669921875" lon="35.01039960421621799468994140625">
        <ele>331.79998779296875</ele>
        <time>2017-08-04T05:08:35.000Z</time>
        <extensions>
          <ns3:TrackPointExtension>
            <ns3:atemp>24.0</ns3:atemp>
          </ns3:TrackPointExtension>
        </extensions>
      </trkpt>
      <trkpt lat="31.69046807102859020233154296875" lon="35.01059674657881259918212890625">
        <ele>332.79998779296875</ele>
        <time>2017-08-04T05:08:41.000Z</time>
        <extensions>
          <ns3:TrackPointExtension>
            <ns3:atemp>24.0</ns3:atemp>
          </ns3:TrackPointExtension>
        </extensions>
      </trkpt>
      <trkpt lat="31.69078700244426727294921875" lon="35.01088525168597698211669921875">
        <ele>332.20001220703125</ele>
        <time>2017-08-04T05:08:51.000Z</time>
        <extensions>
          <ns3:TrackPointExtension>
            <ns3:atemp>25.0</ns3:atemp>
          </ns3:TrackPointExtension>
        </extensions>
      </trkpt>
      <trkpt lat="31.6910144872963428497314453125" lon="35.01112799160182476043701171875">
        <ele>332</ele>
        <time>2017-08-04T05:08:58.000Z</time>
        <extensions>
          <ns3:TrackPointExtension>
            <ns3:atemp>25.0</ns3:atemp>
          </ns3:TrackPointExtension>
        </extensions>
      </trkpt>
      <trkpt lat="31.6910352744162082672119140625" lon="35.0112807936966419219970703125">
        <ele>333</ele>
        <time>2017-08-04T05:09:02.000Z</time>
        <extensions>
          <ns3:TrackPointExtension>
            <ns3:atemp>25.0</ns3:atemp>
          </ns3:TrackPointExtension>
        </extensions>
      </trkpt>
      <trkpt lat="31.69103284366428852081298828125" lon="35.0113183446228504180908203125">
        <ele>333</ele>
        <time>2017-08-04T05:09:03.000Z</time>
        <extensions>
          <ns3:TrackPointExtension>
            <ns3:atemp>25.0</ns3:atemp>
          </ns3:TrackPointExtension>
        </extensions>
      </trkpt>
      <trkpt lat="31.69099914841353893280029296875" lon="35.011465363204479217529296875">
        <ele>333.79998779296875</ele>
        <time>2017-08-04T05:09:07.000Z</time>
        <extensions>
          <ns3:TrackPointExtension>
            <ns3:atemp>25.0</ns3:atemp>
          </ns3:TrackPointExtension>
        </extensions>
      </trkpt>
      <trkpt lat="31.69098682701587677001953125" lon="35.01150215975940227508544921875">
        <ele>334</ele>
        <time>2017-08-04T05:09:08.000Z</time>
        <extensions>
          <ns3:TrackPointExtension>
            <ns3:atemp>25.0</ns3:atemp>
          </ns3:TrackPointExtension>
        </extensions>
      </trkpt>
      <trkpt lat="31.6909016668796539306640625" lon="35.01165554858744144439697265625">
        <ele>335.20001220703125</ele>
        <time>2017-08-04T05:09:13.000Z</time>
        <extensions>
          <ns3:TrackPointExtension>
            <ns3:atemp>25.0</ns3:atemp>
          </ns3:TrackPointExtension>
        </extensions>
      </trkpt>
      <trkpt lat="31.6908498667180538177490234375" lon="35.0116958655416965484619140625">
        <ele>335.600006103515625</ele>
        <time>2017-08-04T05:09:15.000Z</time>
        <extensions>
          <ns3:TrackPointExtension>
            <ns3:atemp>25.0</ns3:atemp>
          </ns3:TrackPointExtension>
        </extensions>
      </trkpt>
      <trkpt lat="31.69077032245695590972900390625" lon="35.0117786787450313568115234375">
        <ele>336.399993896484375</ele>
        <time>2017-08-04T05:09:19.000Z</time>
        <extensions>
          <ns3:TrackPointExtension>
            <ns3:atemp>25.0</ns3:atemp>
          </ns3:TrackPointExtension>
        </extensions>
      </trkpt>
      <trkpt lat="31.6907626949250698089599609375" lon="35.01180055551230907440185546875">
        <ele>336.600006103515625</ele>
        <time>2017-08-04T05:09:20.000Z</time>
        <extensions>
          <ns3:TrackPointExtension>
            <ns3:atemp>25.0</ns3:atemp>
          </ns3:TrackPointExtension>
        </extensions>
      </trkpt>
      <trkpt lat="31.690765880048274993896484375" lon="35.01182176172733306884765625">
        <ele>337.20001220703125</ele>
        <time>2017-08-04T05:09:21.000Z</time>
        <extensions>
          <ns3:TrackPointExtension>
            <ns3:atemp>25.0</ns3:atemp>
          </ns3:TrackPointExtension>
        </extensions>
      </trkpt>
      <trkpt lat="31.69076043181121349334716796875" lon="35.0118460692465305328369140625">
        <ele>337.399993896484375</ele>
        <time>2017-08-04T05:09:22.000Z</time>
        <extensions>
          <ns3:TrackPointExtension>
            <ns3:atemp>25.0</ns3:atemp>
          </ns3:TrackPointExtension>
        </extensions>
      </trkpt>
      <trkpt lat="31.69074685312807559967041015625" lon="35.01191572286188602447509765625">
        <ele>337.600006103515625</ele>
        <time>2017-08-04T05:09:24.000Z</time>
        <extensions>
          <ns3:TrackPointExtension>
            <ns3:atemp>25.0</ns3:atemp>
          </ns3:TrackPointExtension>
        </extensions>
      </trkpt>
      <trkpt lat="31.69074601493775844573974609375" lon="35.011990405619144439697265625">
        <ele>337.399993896484375</ele>
        <time>2017-08-04T05:09:26.000Z</time>
        <extensions>
          <ns3:TrackPointExtension>
            <ns3:atemp>25.0</ns3:atemp>
          </ns3:TrackPointExtension>
        </extensions>
      </trkpt>
      <trkpt lat="31.690781302750110626220703125" lon="35.01209794543683528900146484375">
        <ele>337.79998779296875</ele>
        <time>2017-08-04T05:09:30.000Z</time>
        <extensions>
          <ns3:TrackPointExtension>
            <ns3:atemp>25.0</ns3:atemp>
          </ns3:TrackPointExtension>
        </extensions>
      </trkpt>
      <trkpt lat="31.69085514731705188751220703125" lon="35.0121903978288173675537109375">
        <ele>338</ele>
        <time>2017-08-04T05:09:36.000Z</time>
        <extensions>
          <ns3:TrackPointExtension>
            <ns3:atemp>25.0</ns3:atemp>
          </ns3:TrackPointExtension>
        </extensions>
      </trkpt>
      <trkpt lat="31.69096126221120357513427734375" lon="35.0123561918735504150390625">
        <ele>337.600006103515625</ele>
        <time>2017-08-04T05:09:42.000Z</time>
        <extensions>
          <ns3:TrackPointExtension>
            <ns3:atemp>25.0</ns3:atemp>
          </ns3:TrackPointExtension>
        </extensions>
      </trkpt>
      <trkpt lat="31.691041477024555206298828125" lon="35.0124847702682018280029296875">
        <ele>338.399993896484375</ele>
        <time>2017-08-04T05:09:47.000Z</time>
        <extensions>
          <ns3:TrackPointExtension>
            <ns3:atemp>25.0</ns3:atemp>
          </ns3:TrackPointExtension>
        </extensions>
      </trkpt>
      <trkpt lat="31.69108070433139801025390625" lon="35.01254570670425891876220703125">
        <ele>338.600006103515625</ele>
        <time>2017-08-04T05:09:49.000Z</time>
        <extensions>
          <ns3:TrackPointExtension>
            <ns3:atemp>25.0</ns3:atemp>
          </ns3:TrackPointExtension>
        </extensions>
      </trkpt>
      <trkpt lat="31.6911537945270538330078125" lon="35.01272977329790592193603515625">
        <ele>339.20001220703125</ele>
        <time>2017-08-04T05:09:55.000Z</time>
        <extensions>
          <ns3:TrackPointExtension>
            <ns3:atemp>25.0</ns3:atemp>
          </ns3:TrackPointExtension>
        </extensions>
      </trkpt>
      <trkpt lat="31.69116728939116001129150390625" lon="35.0127928890287876129150390625">
        <ele>339.600006103515625</ele>
        <time>2017-08-04T05:09:57.000Z</time>
        <extensions>
          <ns3:TrackPointExtension>
            <ns3:atemp>25.0</ns3:atemp>
          </ns3:TrackPointExtension>
        </extensions>
      </trkpt>
      <trkpt lat="31.69122193939983844757080078125" lon="35.01291434280574321746826171875">
        <ele>340.20001220703125</ele>
        <time>2017-08-04T05:10:01.000Z</time>
        <extensions>
          <ns3:TrackPointExtension>
            <ns3:atemp>25.0</ns3:atemp>
          </ns3:TrackPointExtension>
        </extensions>
      </trkpt>
      <trkpt lat="31.6912501864135265350341796875" lon="35.012973435223102569580078125">
        <ele>340.79998779296875</ele>
        <time>2017-08-04T05:10:03.000Z</time>
        <extensions>
          <ns3:TrackPointExtension>
            <ns3:atemp>25.0</ns3:atemp>
          </ns3:TrackPointExtension>
        </extensions>
      </trkpt>
      <trkpt lat="31.69133819639682769775390625" lon="35.0131422467529773712158203125">
        <ele>341.79998779296875</ele>
        <time>2017-08-04T05:10:09.000Z</time>
        <extensions>
          <ns3:TrackPointExtension>
            <ns3:atemp>25.0</ns3:atemp>
          </ns3:TrackPointExtension>
        </extensions>
      </trkpt>
      <trkpt lat="31.691353283822536468505859375" lon="35.0131727568805217742919921875">
        <ele>342</ele>
        <time>2017-08-04T05:10:10.000Z</time>
        <extensions>
          <ns3:TrackPointExtension>
            <ns3:atemp>25.0</ns3:atemp>
          </ns3:TrackPointExtension>
        </extensions>
      </trkpt>
      <trkpt lat="31.691396199166774749755859375" lon="35.01333930529654026031494140625">
        <ele>342.20001220703125</ele>
        <time>2017-08-04T05:10:15.000Z</time>
        <extensions>
          <ns3:TrackPointExtension>
            <ns3:atemp>25.0</ns3:atemp>
          </ns3:TrackPointExtension>
        </extensions>
      </trkpt>
      <trkpt lat="31.69141463935375213623046875" lon="35.013586990535259246826171875">
        <ele>342</ele>
        <time>2017-08-04T05:10:21.000Z</time>
        <extensions>
          <ns3:TrackPointExtension>
            <ns3:atemp>25.0</ns3:atemp>
          </ns3:TrackPointExtension>
        </extensions>
      </trkpt>
      <trkpt lat="31.69141790829598903656005859375" lon="35.01383031718432903289794921875">
        <ele>341.79998779296875</ele>
        <time>2017-08-04T05:10:27.000Z</time>
        <extensions>
          <ns3:TrackPointExtension>
            <ns3:atemp>25.0</ns3:atemp>
          </ns3:TrackPointExtension>
        </extensions>
      </trkpt>
      <trkpt lat="31.69141438789665699005126953125" lon="35.0139328278601169586181640625">
        <ele>343</ele>
        <time>2017-08-04T05:10:30.000Z</time>
        <extensions>
          <ns3:TrackPointExtension>
            <ns3:atemp>25.0</ns3:atemp>
          </ns3:TrackPointExtension>
        </extensions>
      </trkpt>
      <trkpt lat="31.6914171539247035980224609375" lon="35.014038942754268646240234375">
        <ele>344</ele>
        <time>2017-08-04T05:10:33.000Z</time>
        <extensions>
          <ns3:TrackPointExtension>
            <ns3:atemp>25.0</ns3:atemp>
          </ns3:TrackPointExtension>
        </extensions>
      </trkpt>
      <trkpt lat="31.691418997943401336669921875" lon="35.0140712969005107879638671875">
        <ele>344.20001220703125</ele>
        <time>2017-08-04T05:10:34.000Z</time>
        <extensions>
          <ns3:TrackPointExtension>
            <ns3:atemp>25.0</ns3:atemp>
          </ns3:TrackPointExtension>
        </extensions>
      </trkpt>
      <trkpt lat="31.69148043729364871978759765625" lon="35.0142551958560943603515625">
        <ele>344.600006103515625</ele>
        <time>2017-08-04T05:10:40.000Z</time>
        <extensions>
          <ns3:TrackPointExtension>
            <ns3:atemp>25.0</ns3:atemp>
          </ns3:TrackPointExtension>
        </extensions>
      </trkpt>
      <trkpt lat="31.69151522219181060791015625" lon="35.0144136138260364532470703125">
        <ele>345</ele>
        <time>2017-08-04T05:10:45.000Z</time>
        <extensions>
          <ns3:TrackPointExtension>
            <ns3:atemp>25.0</ns3:atemp>
          </ns3:TrackPointExtension>
        </extensions>
      </trkpt>
      <trkpt lat="31.69154296629130840301513671875" lon="35.0144992768764495849609375">
        <ele>345.600006103515625</ele>
        <time>2017-08-04T05:10:48.000Z</time>
        <extensions>
          <ns3:TrackPointExtension>
            <ns3:atemp>25.0</ns3:atemp>
          </ns3:TrackPointExtension>
        </extensions>
      </trkpt>
      <trkpt lat="31.69162360019981861114501953125" lon="35.01466297544538974761962890625">
        <ele>345.79998779296875</ele>
        <time>2017-08-04T05:10:54.000Z</time>
        <extensions>
          <ns3:TrackPointExtension>
            <ns3:atemp>25.0</ns3:atemp>
          </ns3:TrackPointExtension>
        </extensions>
      </trkpt>
      <trkpt lat="31.69166165404021739959716796875" lon="35.014888532459735870361328125">
        <ele>344.79998779296875</ele>
        <time>2017-08-04T05:11:00.000Z</time>
        <extensions>
          <ns3:TrackPointExtension>
            <ns3:atemp>25.0</ns3:atemp>
          </ns3:TrackPointExtension>
        </extensions>
      </trkpt>
      <trkpt lat="31.69167171232402324676513671875" lon="35.01501652412116527557373046875">
        <ele>343.79998779296875</ele>
        <time>2017-08-04T05:11:03.000Z</time>
        <extensions>
          <ns3:TrackPointExtension>
            <ns3:atemp>25.0</ns3:atemp>
          </ns3:TrackPointExtension>
        </extensions>
      </trkpt>
      <trkpt lat="31.691684536635875701904296875" lon="35.01511693932116031646728515625">
        <ele>343.20001220703125</ele>
        <time>2017-08-04T05:11:05.000Z</time>
        <extensions>
          <ns3:TrackPointExtension>
            <ns3:atemp>25.0</ns3:atemp>
          </ns3:TrackPointExtension>
        </extensions>
      </trkpt>
      <trkpt lat="31.69167540036141872406005859375" lon="35.0151673145592212677001953125">
        <ele>342.79998779296875</ele>
        <time>2017-08-04T05:11:06.000Z</time>
        <extensions>
          <ns3:TrackPointExtension>
            <ns3:atemp>25.0</ns3:atemp>
          </ns3:TrackPointExtension>
        </extensions>
      </trkpt>
      <trkpt lat="31.69167053885757923126220703125" lon="35.0152172707021236419677734375">
        <ele>342.79998779296875</ele>
        <time>2017-08-04T05:11:07.000Z</time>
        <extensions>
          <ns3:TrackPointExtension>
            <ns3:atemp>25.0</ns3:atemp>
          </ns3:TrackPointExtension>
        </extensions>
      </trkpt>
      <trkpt lat="31.69165897183120250701904296875" lon="35.0153066217899322509765625">
        <ele>342.600006103515625</ele>
        <time>2017-08-04T05:11:09.000Z</time>
        <extensions>
          <ns3:TrackPointExtension>
            <ns3:atemp>25.0</ns3:atemp>
          </ns3:TrackPointExtension>
        </extensions>
      </trkpt>
      <trkpt lat="31.691609434783458709716796875" lon="35.0155052728950977325439453125">
        <ele>343.399993896484375</ele>
        <time>2017-08-04T05:11:14.000Z</time>
        <extensions>
          <ns3:TrackPointExtension>
            <ns3:atemp>25.0</ns3:atemp>
          </ns3:TrackPointExtension>
        </extensions>
      </trkpt>
      <trkpt lat="31.6915529407560825347900390625" lon="35.0156874954700469970703125">
        <ele>343.79998779296875</ele>
        <time>2017-08-04T05:11:19.000Z</time>
        <extensions>
          <ns3:TrackPointExtension>
            <ns3:atemp>25.0</ns3:atemp>
          </ns3:TrackPointExtension>
        </extensions>
      </trkpt>
      <trkpt lat="31.69154497794806957244873046875" lon="35.01571674831211566925048828125">
        <ele>344</ele>
        <time>2017-08-04T05:11:20.000Z</time>
        <extensions>
          <ns3:TrackPointExtension>
            <ns3:atemp>25.0</ns3:atemp>
          </ns3:TrackPointExtension>
        </extensions>
      </trkpt>
      <trkpt lat="31.6915405355393886566162109375" lon="35.01579654403030872344970703125">
        <ele>344</ele>
        <time>2017-08-04T05:11:23.000Z</time>
        <extensions>
          <ns3:TrackPointExtension>
            <ns3:atemp>25.0</ns3:atemp>
          </ns3:TrackPointExtension>
        </extensions>
      </trkpt>
      <trkpt lat="31.6915680281817913055419921875" lon="35.01580794341862201690673828125">
        <ele>343.79998779296875</ele>
        <time>2017-08-04T05:11:24.000Z</time>
        <extensions>
          <ns3:TrackPointExtension>
            <ns3:atemp>25.0</ns3:atemp>
          </ns3:TrackPointExtension>
        </extensions>
      </trkpt>
      <trkpt lat="31.69162292964756488800048828125" lon="35.0157744996249675750732421875">
        <ele>343.399993896484375</ele>
        <time>2017-08-04T05:11:28.000Z</time>
        <extensions>
          <ns3:TrackPointExtension>
            <ns3:atemp>25.0</ns3:atemp>
          </ns3:TrackPointExtension>
        </extensions>
      </trkpt>
      <trkpt lat="31.691680513322353363037109375" lon="35.0157278962433338165283203125">
        <ele>343</ele>
        <time>2017-08-04T05:11:33.000Z</time>
        <extensions>
          <ns3:TrackPointExtension>
            <ns3:atemp>25.0</ns3:atemp>
          </ns3:TrackPointExtension>
        </extensions>
      </trkpt>
      <trkpt lat="31.69169132597744464874267578125" lon="35.01570702530443668365478515625">
        <ele>342.79998779296875</ele>
        <time>2017-08-04T05:11:35.000Z</time>
        <extensions>
          <ns3:TrackPointExtension>
            <ns3:atemp>25.0</ns3:atemp>
          </ns3:TrackPointExtension>
        </extensions>
      </trkpt>
      <trkpt lat="31.69169283472001552581787109375" lon="35.0157030858099460601806640625">
        <ele>342.399993896484375</ele>
        <time>2017-08-04T05:11:39.000Z</time>
        <extensions>
          <ns3:TrackPointExtension>
            <ns3:atemp>25.0</ns3:atemp>
          </ns3:TrackPointExtension>
        </extensions>
      </trkpt>
      <trkpt lat="31.69169283472001552581787109375" lon="35.0157030858099460601806640625">
        <ele>342.399993896484375</ele>
        <time>2017-08-04T05:11:48.000Z</time>
        <extensions>
          <ns3:TrackPointExtension>
            <ns3:atemp>25.0</ns3:atemp>
          </ns3:TrackPointExtension>
        </extensions>
      </trkpt>
      <trkpt lat="31.6917256079614162445068359375" lon="35.01564131118357181549072265625">
        <ele>342</ele>
        <time>2017-08-04T05:11:56.000Z</time>
        <extensions>
          <ns3:TrackPointExtension>
            <ns3:atemp>25.0</ns3:atemp>
          </ns3:TrackPointExtension>
        </extensions>
      </trkpt>
      <trkpt lat="31.691738851368427276611328125" lon="35.01556788571178913116455078125">
        <ele>341.399993896484375</ele>
        <time>2017-08-04T05:11:58.000Z</time>
        <extensions>
          <ns3:TrackPointExtension>
            <ns3:atemp>25.0</ns3:atemp>
          </ns3:TrackPointExtension>
        </extensions>
      </trkpt>
      <trkpt lat="31.69175838120281696319580078125" lon="35.01545322127640247344970703125">
        <ele>340.79998779296875</ele>
        <time>2017-08-04T05:12:01.000Z</time>
        <extensions>
          <ns3:TrackPointExtension>
            <ns3:atemp>25.0</ns3:atemp>
          </ns3:TrackPointExtension>
        </extensions>
      </trkpt>
      <trkpt lat="31.6918352432548999786376953125" lon="35.0152266584336757659912109375">
        <ele>340.79998779296875</ele>
        <time>2017-08-04T05:12:07.000Z</time>
        <extensions>
          <ns3:TrackPointExtension>
            <ns3:atemp>25.0</ns3:atemp>
          </ns3:TrackPointExtension>
        </extensions>
      </trkpt>
      <trkpt lat="31.69187036342918872833251953125" lon="35.01513118855655193328857421875">
        <ele>339.600006103515625</ele>
        <time>2017-08-04T05:12:09.000Z</time>
        <extensions>
          <ns3:TrackPointExtension>
            <ns3:atemp>25.0</ns3:atemp>
          </ns3:TrackPointExtension>
        </extensions>
      </trkpt>
      <trkpt lat="31.69191889464855194091796875" lon="35.0150580145418643951416015625">
        <ele>339.399993896484375</ele>
        <time>2017-08-04T05:12:11.000Z</time>
        <extensions>
          <ns3:TrackPointExtension>
            <ns3:atemp>25.0</ns3:atemp>
          </ns3:TrackPointExtension>
        </extensions>
      </trkpt>
      <trkpt lat="31.69205040670931339263916015625" lon="35.01496053300797939300537109375">
        <ele>339.20001220703125</ele>
        <time>2017-08-04T05:12:16.000Z</time>
        <extensions>
          <ns3:TrackPointExtension>
            <ns3:atemp>25.0</ns3:atemp>
          </ns3:TrackPointExtension>
        </extensions>
      </trkpt>
      <trkpt lat="31.69212668202817440032958984375" lon="35.0150251574814319610595703125">
        <ele>338.399993896484375</ele>
        <time>2017-08-04T05:12:19.000Z</time>
        <extensions>
          <ns3:TrackPointExtension>
            <ns3:atemp>25.0</ns3:atemp>
          </ns3:TrackPointExtension>
        </extensions>
      </trkpt>
      <trkpt lat="31.6921467147767543792724609375" lon="35.01504845917224884033203125">
        <ele>338.20001220703125</ele>
        <time>2017-08-04T05:12:20.000Z</time>
        <extensions>
          <ns3:TrackPointExtension>
            <ns3:atemp>25.0</ns3:atemp>
          </ns3:TrackPointExtension>
        </extensions>
      </trkpt>
      <trkpt lat="31.692249476909637451171875" lon="35.01509631983935832977294921875">
        <ele>339</ele>
        <time>2017-08-04T05:12:24.000Z</time>
        <extensions>
          <ns3:TrackPointExtension>
            <ns3:atemp>25.0</ns3:atemp>
          </ns3:TrackPointExtension>
        </extensions>
      </trkpt>
      <trkpt lat="31.6922768019139766693115234375" lon="35.0150821544229984283447265625">
        <ele>339.20001220703125</ele>
        <time>2017-08-04T05:12:25.000Z</time>
        <extensions>
          <ns3:TrackPointExtension>
            <ns3:atemp>25.0</ns3:atemp>
          </ns3:TrackPointExtension>
        </extensions>
      </trkpt>
      <trkpt lat="31.6924092359840869903564453125" lon="35.015005879104137420654296875">
        <ele>339</ele>
        <time>2017-08-04T05:12:29.000Z</time>
        <extensions>
          <ns3:TrackPointExtension>
            <ns3:atemp>25.0</ns3:atemp>
          </ns3:TrackPointExtension>
        </extensions>
      </trkpt>
      <trkpt lat="31.69244988821446895599365234375" lon="35.014983750879764556884765625">
        <ele>338.79998779296875</ele>
        <time>2017-08-04T05:12:30.000Z</time>
        <extensions>
          <ns3:TrackPointExtension>
            <ns3:atemp>25.0</ns3:atemp>
          </ns3:TrackPointExtension>
        </extensions>
      </trkpt>
      <trkpt lat="31.69259925372898578643798828125" lon="35.014959275722503662109375">
        <ele>339.399993896484375</ele>
        <time>2017-08-04T05:12:34.000Z</time>
        <extensions>
          <ns3:TrackPointExtension>
            <ns3:atemp>25.0</ns3:atemp>
          </ns3:TrackPointExtension>
        </extensions>
      </trkpt>
      <trkpt lat="31.69262741692364215850830078125" lon="35.0149634666740894317626953125">
        <ele>340</ele>
        <time>2017-08-04T05:12:35.000Z</time>
        <extensions>
          <ns3:TrackPointExtension>
            <ns3:atemp>25.0</ns3:atemp>
          </ns3:TrackPointExtension>
        </extensions>
      </trkpt>
      <trkpt lat="31.692648790776729583740234375" lon="35.01496254466474056243896484375">
        <ele>340.600006103515625</ele>
        <time>2017-08-04T05:12:36.000Z</time>
        <extensions>
          <ns3:TrackPointExtension>
            <ns3:atemp>25.0</ns3:atemp>
          </ns3:TrackPointExtension>
        </extensions>
      </trkpt>
      <trkpt lat="31.6926861740648746490478515625" lon="35.0149701721966266632080078125">
        <ele>341.20001220703125</ele>
        <time>2017-08-04T05:12:38.000Z</time>
        <extensions>
          <ns3:TrackPointExtension>
            <ns3:atemp>25.0</ns3:atemp>
          </ns3:TrackPointExtension>
        </extensions>
      </trkpt>
      <trkpt lat="31.6926995851099491119384765625" lon="35.0149715133011341094970703125">
        <ele>341.399993896484375</ele>
        <time>2017-08-04T05:12:39.000Z</time>
        <extensions>
          <ns3:TrackPointExtension>
            <ns3:atemp>25.0</ns3:atemp>
          </ns3:TrackPointExtension>
        </extensions>
      </trkpt>
      <trkpt lat="31.69271592982113361358642578125" lon="35.0149634666740894317626953125">
        <ele>341.79998779296875</ele>
        <time>2017-08-04T05:12:40.000Z</time>
        <extensions>
          <ns3:TrackPointExtension>
            <ns3:atemp>25.0</ns3:atemp>
          </ns3:TrackPointExtension>
        </extensions>
      </trkpt>
      <trkpt lat="31.69277862645685672760009765625" lon="35.0148933939635753631591796875">
        <ele>342.20001220703125</ele>
        <time>2017-08-04T05:12:43.000Z</time>
        <extensions>
          <ns3:TrackPointExtension>
            <ns3:atemp>25.0</ns3:atemp>
          </ns3:TrackPointExtension>
        </extensions>
      </trkpt>
      <trkpt lat="31.69280695728957653045654296875" lon="35.014830194413661956787109375">
        <ele>342.399993896484375</ele>
        <time>2017-08-04T05:12:45.000Z</time>
        <extensions>
          <ns3:TrackPointExtension>
            <ns3:atemp>25.0</ns3:atemp>
          </ns3:TrackPointExtension>
        </extensions>
      </trkpt>
      <trkpt lat="31.69286965392529964447021484375" lon="35.01473673619329929351806640625">
        <ele>342.600006103515625</ele>
        <time>2017-08-04T05:12:48.000Z</time>
        <extensions>
          <ns3:TrackPointExtension>
            <ns3:atemp>25.0</ns3:atemp>
          </ns3:TrackPointExtension>
        </extensions>
      </trkpt>
      <trkpt lat="31.69294727034866809844970703125" lon="35.01459307037293910980224609375">
        <ele>342.79998779296875</ele>
        <time>2017-08-04T05:12:52.000Z</time>
        <extensions>
          <ns3:TrackPointExtension>
            <ns3:atemp>25.0</ns3:atemp>
          </ns3:TrackPointExtension>
        </extensions>
      </trkpt>
      <trkpt lat="31.69301818124949932098388671875" lon="35.0144491530954837799072265625">
        <ele>343</ele>
        <time>2017-08-04T05:12:56.000Z</time>
        <extensions>
          <ns3:TrackPointExtension>
            <ns3:atemp>25.0</ns3:atemp>
          </ns3:TrackPointExtension>
        </extensions>
      </trkpt>
      <trkpt lat="31.69309495948255062103271484375" lon="35.014137513935565948486328125">
        <ele>343</ele>
        <time>2017-08-04T05:13:03.000Z</time>
        <extensions>
          <ns3:TrackPointExtension>
            <ns3:atemp>25.0</ns3:atemp>
          </ns3:TrackPointExtension>
        </extensions>
      </trkpt>
      <trkpt lat="31.69316612184047698974609375" lon="35.0136548839509487152099609375">
        <ele>342.20001220703125</ele>
        <time>2017-08-04T05:13:12.000Z</time>
        <extensions>
          <ns3:TrackPointExtension>
            <ns3:atemp>25.0</ns3:atemp>
          </ns3:TrackPointExtension>
        </extensions>
      </trkpt>
      <trkpt lat="31.69318648986518383026123046875" lon="35.013543069362640380859375">
        <ele>341.79998779296875</ele>
        <time>2017-08-04T05:13:14.000Z</time>
        <extensions>
          <ns3:TrackPointExtension>
            <ns3:atemp>25.0</ns3:atemp>
          </ns3:TrackPointExtension>
        </extensions>
      </trkpt>
      <trkpt lat="31.69322839938104152679443359375" lon="35.01330326311290264129638671875">
        <ele>341.399993896484375</ele>
        <time>2017-08-04T05:13:18.000Z</time>
        <extensions>
          <ns3:TrackPointExtension>
            <ns3:atemp>25.0</ns3:atemp>
          </ns3:TrackPointExtension>
        </extensions>
      </trkpt>
      <trkpt lat="31.6932846419513225555419921875" lon="35.01311617903411388397216796875">
        <ele>340.600006103515625</ele>
        <time>2017-08-04T05:13:21.000Z</time>
        <extensions>
          <ns3:TrackPointExtension>
            <ns3:atemp>25.0</ns3:atemp>
          </ns3:TrackPointExtension>
        </extensions>
      </trkpt>
      <trkpt lat="31.693371646106243133544921875" lon="35.01293580047786235809326171875">
        <ele>340.20001220703125</ele>
        <time>2017-08-04T05:13:24.000Z</time>
        <extensions>
          <ns3:TrackPointExtension>
            <ns3:atemp>25.0</ns3:atemp>
          </ns3:TrackPointExtension>
        </extensions>
      </trkpt>
      <trkpt lat="31.693472564220428466796875" lon="35.01275978051126003265380859375">
        <ele>340</ele>
        <time>2017-08-04T05:13:27.000Z</time>
        <extensions>
          <ns3:TrackPointExtension>
            <ns3:atemp>25.0</ns3:atemp>
          </ns3:TrackPointExtension>
        </extensions>
      </trkpt>
      <trkpt lat="31.69358714483678340911865234375" lon="35.0126074813306331634521484375">
        <ele>339.399993896484375</ele>
        <time>2017-08-04T05:13:30.000Z</time>
        <extensions>
          <ns3:TrackPointExtension>
            <ns3:atemp>25.0</ns3:atemp>
          </ns3:TrackPointExtension>
        </extensions>
      </trkpt>
      <trkpt lat="31.693692170083522796630859375" lon="35.0124455429613590240478515625">
        <ele>339</ele>
        <time>2017-08-04T05:13:33.000Z</time>
        <extensions>
          <ns3:TrackPointExtension>
            <ns3:atemp>25.0</ns3:atemp>
          </ns3:TrackPointExtension>
        </extensions>
      </trkpt>
      <trkpt lat="31.6937711276113986968994140625" lon="35.0122614763677120208740234375">
        <ele>338.79998779296875</ele>
        <time>2017-08-04T05:13:36.000Z</time>
        <extensions>
          <ns3:TrackPointExtension>
            <ns3:atemp>25.0</ns3:atemp>
          </ns3:TrackPointExtension>
        </extensions>
      </trkpt>
      <trkpt lat="31.693789400160312652587890625" lon="35.0121947564184665679931640625">
        <ele>338.600006103515625</ele>
        <time>2017-08-04T05:13:37.000Z</time>
        <extensions>
          <ns3:TrackPointExtension>
            <ns3:atemp>25.0</ns3:atemp>
          </ns3:TrackPointExtension>
        </extensions>
      </trkpt>
      <trkpt lat="31.6938049905002117156982421875" lon="35.01212376169860363006591796875">
        <ele>338.399993896484375</ele>
        <time>2017-08-04T05:13:38.000Z</time>
        <extensions>
          <ns3:TrackPointExtension>
            <ns3:atemp>25.0</ns3:atemp>
          </ns3:TrackPointExtension>
        </extensions>
      </trkpt>
      <trkpt lat="31.69384949840605258941650390625" lon="35.0119067542254924774169921875">
        <ele>337.399993896484375</ele>
        <time>2017-08-04T05:13:41.000Z</time>
        <extensions>
          <ns3:TrackPointExtension>
            <ns3:atemp>25.0</ns3:atemp>
          </ns3:TrackPointExtension>
        </extensions>
      </trkpt>
      <trkpt lat="31.69388202019035816192626953125" lon="35.0117438100278377532958984375">
        <ele>336.399993896484375</ele>
        <time>2017-08-04T05:13:43.000Z</time>
        <extensions>
          <ns3:TrackPointExtension>
            <ns3:atemp>25.0</ns3:atemp>
          </ns3:TrackPointExtension>
        </extensions>
      </trkpt>
      <trkpt lat="31.693912111222743988037109375" lon="35.01157675869762897491455078125">
        <ele>335.20001220703125</ele>
        <time>2017-08-04T05:13:45.000Z</time>
        <extensions>
          <ns3:TrackPointExtension>
            <ns3:atemp>25.0</ns3:atemp>
          </ns3:TrackPointExtension>
        </extensions>
      </trkpt>
      <trkpt lat="31.69391118921339511871337890625" lon="35.0114092044532299041748046875">
        <ele>334.399993896484375</ele>
        <time>2017-08-04T05:13:47.000Z</time>
        <extensions>
          <ns3:TrackPointExtension>
            <ns3:atemp>25.0</ns3:atemp>
          </ns3:TrackPointExtension>
        </extensions>
      </trkpt>
      <trkpt lat="31.6938861273229122161865234375" lon="35.011248774826526641845703125">
        <ele>334.20001220703125</ele>
        <time>2017-08-04T05:13:49.000Z</time>
        <extensions>
          <ns3:TrackPointExtension>
            <ns3:atemp>25.0</ns3:atemp>
          </ns3:TrackPointExtension>
        </extensions>
      </trkpt>
      <trkpt lat="31.69384011067450046539306640625" lon="35.0110142491757869720458984375">
        <ele>333.600006103515625</ele>
        <time>2017-08-04T05:13:52.000Z</time>
        <extensions>
          <ns3:TrackPointExtension>
            <ns3:atemp>25.0</ns3:atemp>
          </ns3:TrackPointExtension>
        </extensions>
      </trkpt>
      <trkpt lat="31.69382753781974315643310546875" lon="35.01085557974874973297119140625">
        <ele>333</ele>
        <time>2017-08-04T05:13:54.000Z</time>
        <extensions>
          <ns3:TrackPointExtension>
            <ns3:atemp>25.0</ns3:atemp>
          </ns3:TrackPointExtension>
        </extensions>
      </trkpt>
      <trkpt lat="31.69388989917933940887451171875" lon="35.01063622534275054931640625">
        <ele>332.600006103515625</ele>
        <time>2017-08-04T05:13:57.000Z</time>
        <extensions>
          <ns3:TrackPointExtension>
            <ns3:atemp>25.0</ns3:atemp>
          </ns3:TrackPointExtension>
        </extensions>
      </trkpt>
      <trkpt lat="31.69406005181372165679931640625" lon="35.01043950207531452178955078125">
        <ele>333</ele>
        <time>2017-08-04T05:14:01.000Z</time>
        <extensions>
          <ns3:TrackPointExtension>
            <ns3:atemp>25.0</ns3:atemp>
          </ns3:TrackPointExtension>
        </extensions>
      </trkpt>
      <trkpt lat="31.69408922083675861358642578125" lon="35.0104090757668018341064453125">
        <ele>333.399993896484375</ele>
        <time>2017-08-04T05:14:02.000Z</time>
        <extensions>
          <ns3:TrackPointExtension>
            <ns3:atemp>25.0</ns3:atemp>
          </ns3:TrackPointExtension>
        </extensions>
      </trkpt>
      <trkpt lat="31.69411428272724151611328125" lon="35.01036255620419979095458984375">
        <ele>334</ele>
        <time>2017-08-04T05:14:04.000Z</time>
        <extensions>
          <ns3:TrackPointExtension>
            <ns3:atemp>25.0</ns3:atemp>
          </ns3:TrackPointExtension>
        </extensions>
      </trkpt>
      <trkpt lat="31.69412543065845966339111328125" lon="35.01034847460687160491943359375">
        <ele>334.20001220703125</ele>
        <time>2017-08-04T05:14:05.000Z</time>
        <extensions>
          <ns3:TrackPointExtension>
            <ns3:atemp>25.0</ns3:atemp>
          </ns3:TrackPointExtension>
        </extensions>
      </trkpt>
      <trkpt lat="31.694136746227741241455078125" lon="35.010345876216888427734375">
        <ele>334.399993896484375</ele>
        <time>2017-08-04T05:14:06.000Z</time>
        <extensions>
          <ns3:TrackPointExtension>
            <ns3:atemp>25.0</ns3:atemp>
          </ns3:TrackPointExtension>
        </extensions>
      </trkpt>
      <trkpt lat="31.69417756609618663787841796875" lon="35.010303296148777008056640625">
        <ele>334.600006103515625</ele>
        <time>2017-08-04T05:14:08.000Z</time>
        <extensions>
          <ns3:TrackPointExtension>
            <ns3:atemp>25.0</ns3:atemp>
          </ns3:TrackPointExtension>
        </extensions>
      </trkpt>
      <trkpt lat="31.69426809065043926239013671875" lon="35.010238923132419586181640625">
        <ele>334.399993896484375</ele>
        <time>2017-08-04T05:14:11.000Z</time>
        <extensions>
          <ns3:TrackPointExtension>
            <ns3:atemp>25.0</ns3:atemp>
          </ns3:TrackPointExtension>
        </extensions>
      </trkpt>
      <trkpt lat="31.69430069625377655029296875" lon="35.01021738164126873016357421875">
        <ele>334.399993896484375</ele>
        <time>2017-08-04T05:14:13.000Z</time>
        <extensions>
          <ns3:TrackPointExtension>
            <ns3:atemp>25.0</ns3:atemp>
          </ns3:TrackPointExtension>
        </extensions>
      </trkpt>
      <trkpt lat="31.6943394206464290618896484375" lon="35.01020514406263828277587890625">
        <ele>334.399993896484375</ele>
        <time>2017-08-04T05:14:16.000Z</time>
        <extensions>
          <ns3:TrackPointExtension>
            <ns3:atemp>25.0</ns3:atemp>
          </ns3:TrackPointExtension>
        </extensions>
      </trkpt>
      <trkpt lat="31.69435643590986728668212890625" lon="35.01023112796247005462646484375">
        <ele>334.600006103515625</ele>
        <time>2017-08-04T05:14:18.000Z</time>
        <extensions>
          <ns3:TrackPointExtension>
            <ns3:atemp>25.0</ns3:atemp>
          </ns3:TrackPointExtension>
        </extensions>
      </trkpt>
      <trkpt lat="31.69431821443140506744384765625" lon="35.01024638302624225616455078125">
        <ele>334.399993896484375</ele>
        <time>2017-08-04T05:14:21.000Z</time>
        <extensions>
          <ns3:TrackPointExtension>
            <ns3:atemp>25.0</ns3:atemp>
          </ns3:TrackPointExtension>
        </extensions>
      </trkpt>
      <trkpt lat="31.694308407604694366455078125" lon="35.01023867167532444000244140625">
        <ele>334.399993896484375</ele>
        <time>2017-08-04T05:14:22.000Z</time>
        <extensions>
          <ns3:TrackPointExtension>
            <ns3:atemp>25.0</ns3:atemp>
          </ns3:TrackPointExtension>
        </extensions>
      </trkpt>
      <trkpt lat="31.69425250031054019927978515625" lon="35.010220818221569061279296875">
        <ele>334.20001220703125</ele>
        <time>2017-08-04T05:14:27.000Z</time>
        <extensions>
          <ns3:TrackPointExtension>
            <ns3:atemp>25.0</ns3:atemp>
          </ns3:TrackPointExtension>
        </extensions>
      </trkpt>
      <trkpt lat="31.69428485445678234100341796875" lon="35.01025308854877948760986328125">
        <ele>334.399993896484375</ele>
        <time>2017-08-04T05:14:31.000Z</time>
        <extensions>
          <ns3:TrackPointExtension>
            <ns3:atemp>25.0</ns3:atemp>
          </ns3:TrackPointExtension>
        </extensions>
      </trkpt>
      <trkpt lat="31.694352328777313232421875" lon="35.0102126039564609527587890625">
        <ele>334.600006103515625</ele>
        <time>2017-08-04T05:14:36.000Z</time>
        <extensions>
          <ns3:TrackPointExtension>
            <ns3:atemp>25.0</ns3:atemp>
          </ns3:TrackPointExtension>
        </extensions>
      </trkpt>
      <trkpt lat="31.6943444497883319854736328125" lon="35.01026079989969730377197265625">
        <ele>334.399993896484375</ele>
        <time>2017-08-04T05:14:40.000Z</time>
        <extensions>
          <ns3:TrackPointExtension>
            <ns3:atemp>25.0</ns3:atemp>
          </ns3:TrackPointExtension>
        </extensions>
      </trkpt>
      <trkpt lat="31.69437470845878124237060546875" lon="35.0102729536592960357666015625">
        <ele>334.79998779296875</ele>
        <time>2017-08-04T05:14:45.000Z</time>
        <extensions>
          <ns3:TrackPointExtension>
            <ns3:atemp>25.0</ns3:atemp>
          </ns3:TrackPointExtension>
        </extensions>
      </trkpt>
      <trkpt lat="31.69435928575694561004638671875" lon="35.0102229975163936614990234375">
        <ele>334.79998779296875</ele>
        <time>2017-08-04T05:14:49.000Z</time>
        <extensions>
          <ns3:TrackPointExtension>
            <ns3:atemp>25.0</ns3:atemp>
          </ns3:TrackPointExtension>
        </extensions>
      </trkpt>
      <trkpt lat="31.694286949932575225830078125" lon="35.01024286262691020965576171875">
        <ele>334.20001220703125</ele>
        <time>2017-08-04T05:14:54.000Z</time>
        <extensions>
          <ns3:TrackPointExtension>
            <ns3:atemp>25.0</ns3:atemp>
          </ns3:TrackPointExtension>
        </extensions>
      </trkpt>
      <trkpt lat="31.6943437792360782623291015625" lon="35.010245628654956817626953125">
        <ele>334.600006103515625</ele>
        <time>2017-08-04T05:14:57.000Z</time>
        <extensions>
          <ns3:TrackPointExtension>
            <ns3:atemp>25.0</ns3:atemp>
          </ns3:TrackPointExtension>
        </extensions>
      </trkpt>
      <trkpt lat="31.69443103484809398651123046875" lon="35.01013926230370998382568359375">
        <ele>334.20001220703125</ele>
        <time>2017-08-04T05:15:01.000Z</time>
        <extensions>
          <ns3:TrackPointExtension>
            <ns3:atemp>25.0</ns3:atemp>
          </ns3:TrackPointExtension>
        </extensions>
      </trkpt>
      <trkpt lat="31.69445500709116458892822265625" lon="35.01011763699352741241455078125">
        <ele>334.399993896484375</ele>
        <time>2017-08-04T05:15:02.000Z</time>
        <extensions>
          <ns3:TrackPointExtension>
            <ns3:atemp>25.0</ns3:atemp>
          </ns3:TrackPointExtension>
        </extensions>
      </trkpt>
      <trkpt lat="31.69453949667513370513916015625" lon="35.0101059861481189727783203125">
        <ele>334.399993896484375</ele>
        <time>2017-08-04T05:15:05.000Z</time>
        <extensions>
          <ns3:TrackPointExtension>
            <ns3:atemp>25.0</ns3:atemp>
          </ns3:TrackPointExtension>
        </extensions>
      </trkpt>
      <trkpt lat="31.6945655643939971923828125" lon="35.01012132503092288970947265625">
        <ele>334.399993896484375</ele>
        <time>2017-08-04T05:15:06.000Z</time>
        <extensions>
          <ns3:TrackPointExtension>
            <ns3:atemp>25.0</ns3:atemp>
          </ns3:TrackPointExtension>
        </extensions>
      </trkpt>
      <trkpt lat="31.69461493380367755889892578125" lon="35.01012870110571384429931640625">
        <ele>334.600006103515625</ele>
        <time>2017-08-04T05:15:08.000Z</time>
        <extensions>
          <ns3:TrackPointExtension>
            <ns3:atemp>25.0</ns3:atemp>
          </ns3:TrackPointExtension>
        </extensions>
      </trkpt>
      <trkpt lat="31.6946931369602680206298828125" lon="35.0101592950522899627685546875">
        <ele>334.79998779296875</ele>
        <time>2017-08-04T05:15:11.000Z</time>
        <extensions>
          <ns3:TrackPointExtension>
            <ns3:atemp>25.0</ns3:atemp>
          </ns3:TrackPointExtension>
        </extensions>
      </trkpt>
      <trkpt lat="31.69474326074123382568359375" lon="35.01018184237182140350341796875">
        <ele>334.399993896484375</ele>
        <time>2017-08-04T05:15:13.000Z</time>
        <extensions>
          <ns3:TrackPointExtension>
            <ns3:atemp>25.0</ns3:atemp>
          </ns3:TrackPointExtension>
        </extensions>
      </trkpt>
      <trkpt lat="31.69479866512119770050048828125" lon="35.01018502749502658843994140625">
        <ele>334.600006103515625</ele>
        <time>2017-08-04T05:15:15.000Z</time>
        <extensions>
          <ns3:TrackPointExtension>
            <ns3:atemp>25.0</ns3:atemp>
          </ns3:TrackPointExtension>
        </extensions>
      </trkpt>
      <trkpt lat="31.69496898539364337921142578125" lon="35.0101784057915210723876953125">
        <ele>334.79998779296875</ele>
        <time>2017-08-04T05:15:20.000Z</time>
        <extensions>
          <ns3:TrackPointExtension>
            <ns3:atemp>25.0</ns3:atemp>
          </ns3:TrackPointExtension>
        </extensions>
      </trkpt>
      <trkpt lat="31.69517685659229755401611328125" lon="35.01016139052808284759521484375">
        <ele>335.20001220703125</ele>
        <time>2017-08-04T05:15:26.000Z</time>
        <extensions>
          <ns3:TrackPointExtension>
            <ns3:atemp>25.0</ns3:atemp>
          </ns3:TrackPointExtension>
        </extensions>
      </trkpt>
      <trkpt lat="31.69521273113787174224853515625" lon="35.01016289927065372467041015625">
        <ele>335.399993896484375</ele>
        <time>2017-08-04T05:15:27.000Z</time>
        <extensions>
          <ns3:TrackPointExtension>
            <ns3:atemp>25.0</ns3:atemp>
          </ns3:TrackPointExtension>
        </extensions>
      </trkpt>
      <trkpt lat="31.69539344497025012969970703125" lon="35.01013155095279216766357421875">
        <ele>335.20001220703125</ele>
        <time>2017-08-04T05:15:32.000Z</time>
        <extensions>
          <ns3:TrackPointExtension>
            <ns3:atemp>25.0</ns3:atemp>
          </ns3:TrackPointExtension>
        </extensions>
      </trkpt>
      <trkpt lat="31.6956429742276668548583984375" lon="35.01007036305963993072509765625">
        <ele>336.20001220703125</ele>
        <time>2017-08-04T05:15:39.000Z</time>
        <extensions>
          <ns3:TrackPointExtension>
            <ns3:atemp>25.0</ns3:atemp>
          </ns3:TrackPointExtension>
        </extensions>
      </trkpt>
      <trkpt lat="31.69578756205737590789794921875" lon="35.0100583769381046295166015625">
        <ele>336.399993896484375</ele>
        <time>2017-08-04T05:15:43.000Z</time>
        <extensions>
          <ns3:TrackPointExtension>
            <ns3:atemp>25.0</ns3:atemp>
          </ns3:TrackPointExtension>
        </extensions>
      </trkpt>
      <trkpt lat="31.69582511298358440399169921875" lon="35.01005058176815509796142578125">
        <ele>336.600006103515625</ele>
        <time>2017-08-04T05:15:44.000Z</time>
        <extensions>
          <ns3:TrackPointExtension>
            <ns3:atemp>25.0</ns3:atemp>
          </ns3:TrackPointExtension>
        </extensions>
      </trkpt>
      <trkpt lat="31.6960754804313182830810546875" lon="35.0100097618997097015380859375">
        <ele>337.399993896484375</ele>
        <time>2017-08-04T05:15:51.000Z</time>
        <extensions>
          <ns3:TrackPointExtension>
            <ns3:atemp>25.0</ns3:atemp>
          </ns3:TrackPointExtension>
        </extensions>
      </trkpt>
      <trkpt lat="31.69610942713916301727294921875" lon="35.0099985301494598388671875">
        <ele>337.600006103515625</ele>
        <time>2017-08-04T05:15:52.000Z</time>
        <extensions>
          <ns3:TrackPointExtension>
            <ns3:atemp>25.0</ns3:atemp>
          </ns3:TrackPointExtension>
        </extensions>
      </trkpt>
      <trkpt lat="31.696307659149169921875" lon="35.00992082990705966949462890625">
        <ele>338.20001220703125</ele>
        <time>2017-08-04T05:15:58.000Z</time>
        <extensions>
          <ns3:TrackPointExtension>
            <ns3:atemp>25.0</ns3:atemp>
          </ns3:TrackPointExtension>
        </extensions>
      </trkpt>
      <trkpt lat="31.69646783731877803802490234375" lon="35.00984757207334041595458984375">
        <ele>338.600006103515625</ele>
        <time>2017-08-04T05:16:03.000Z</time>
        <extensions>
          <ns3:TrackPointExtension>
            <ns3:atemp>25.0</ns3:atemp>
          </ns3:TrackPointExtension>
        </extensions>
      </trkpt>
      <trkpt lat="31.69654595665633678436279296875" lon="35.00981270335614681243896484375">
        <ele>339.20001220703125</ele>
        <time>2017-08-04T05:16:06.000Z</time>
        <extensions>
          <ns3:TrackPointExtension>
            <ns3:atemp>25.0</ns3:atemp>
          </ns3:TrackPointExtension>
        </extensions>
      </trkpt>
      <trkpt lat="31.69671694748103618621826171875" lon="35.00977984629571437835693359375">
        <ele>339.79998779296875</ele>
        <time>2017-08-04T05:16:12.000Z</time>
        <extensions>
          <ns3:TrackPointExtension>
            <ns3:atemp>25.0</ns3:atemp>
          </ns3:TrackPointExtension>
        </extensions>
      </trkpt>
      <trkpt lat="31.69676363468170166015625" lon="35.0097904913127422332763671875">
        <ele>340.399993896484375</ele>
        <time>2017-08-04T05:16:14.000Z</time>
        <extensions>
          <ns3:TrackPointExtension>
            <ns3:atemp>25.0</ns3:atemp>
          </ns3:TrackPointExtension>
        </extensions>
      </trkpt>
      <trkpt lat="31.696770675480365753173828125" lon="35.00984095036983489990234375">
        <ele>340.79998779296875</ele>
        <time>2017-08-04T05:16:16.000Z</time>
        <extensions>
          <ns3:TrackPointExtension>
            <ns3:atemp>25.0</ns3:atemp>
          </ns3:TrackPointExtension>
        </extensions>
      </trkpt>
      <trkpt lat="31.6967644728720188140869140625" lon="35.0099859572947025299072265625">
        <ele>340.399993896484375</ele>
        <time>2017-08-04T05:16:21.000Z</time>
        <extensions>
          <ns3:TrackPointExtension>
            <ns3:atemp>25.0</ns3:atemp>
          </ns3:TrackPointExtension>
        </extensions>
      </trkpt>
      <trkpt lat="31.69677277095615863800048828125" lon="35.0101022981107234954833984375">
        <ele>340.20001220703125</ele>
        <time>2017-08-04T05:16:26.000Z</time>
        <extensions>
          <ns3:TrackPointExtension>
            <ns3:atemp>25.0</ns3:atemp>
          </ns3:TrackPointExtension>
        </extensions>
      </trkpt>
      <trkpt lat="31.696751229465007781982421875" lon="35.01013155095279216766357421875">
        <ele>339.600006103515625</ele>
        <time>2017-08-04T05:16:27.000Z</time>
        <extensions>
          <ns3:TrackPointExtension>
            <ns3:atemp>25.0</ns3:atemp>
          </ns3:TrackPointExtension>
        </extensions>
      </trkpt>
      <trkpt lat="31.69674226082861423492431640625" lon="35.0101619772613048553466796875">
        <ele>338.79998779296875</ele>
        <time>2017-08-04T05:16:29.000Z</time>
        <extensions>
          <ns3:TrackPointExtension>
            <ns3:atemp>25.0</ns3:atemp>
          </ns3:TrackPointExtension>
        </extensions>
      </trkpt>
      <trkpt lat="31.696756593883037567138671875" lon="35.0101809203624725341796875">
        <ele>339</ele>
        <time>2017-08-04T05:16:33.000Z</time>
        <extensions>
          <ns3:TrackPointExtension>
            <ns3:atemp>25.0</ns3:atemp>
          </ns3:TrackPointExtension>
        </extensions>
      </trkpt>
      <trkpt lat="31.69676271267235279083251953125" lon="35.01018636859953403472900390625">
        <ele>339.20001220703125</ele>
        <time>2017-08-04T05:16:41.000Z</time>
        <extensions>
          <ns3:TrackPointExtension>
            <ns3:atemp>26.0</ns3:atemp>
          </ns3:TrackPointExtension>
        </extensions>
      </trkpt>
      <trkpt lat="31.69679556973278522491455078125" lon="35.0102360732853412628173828125">
        <ele>339.20001220703125</ele>
        <time>2017-08-04T05:16:49.000Z</time>
        <extensions>
          <ns3:TrackPointExtension>
            <ns3:atemp>26.0</ns3:atemp>
          </ns3:TrackPointExtension>
        </extensions>
      </trkpt>
      <trkpt lat="31.6968680731952190399169921875" lon="35.0103664956986904144287109375">
        <ele>339.79998779296875</ele>
        <time>2017-08-04T05:17:05.000Z</time>
        <extensions>
          <ns3:TrackPointExtension>
            <ns3:atemp>26.0</ns3:atemp>
          </ns3:TrackPointExtension>
        </extensions>
      </trkpt>
      <trkpt lat="31.69705909676849842071533203125" lon="35.01047872938215732574462890625">
        <ele>340</ele>
        <time>2017-08-04T05:17:20.000Z</time>
        <extensions>
          <ns3:TrackPointExtension>
            <ns3:atemp>26.0</ns3:atemp>
          </ns3:TrackPointExtension>
        </extensions>
      </trkpt>
      <trkpt lat="31.6971155069768428802490234375" lon="35.0104952417314052581787109375">
        <ele>340.600006103515625</ele>
        <time>2017-08-04T05:17:25.000Z</time>
        <extensions>
          <ns3:TrackPointExtension>
            <ns3:atemp>26.0</ns3:atemp>
          </ns3:TrackPointExtension>
        </extensions>
      </trkpt>
      <trkpt lat="31.69713922776281833648681640625" lon="35.0105106644332408905029296875">
        <ele>341.20001220703125</ele>
        <time>2017-08-04T05:17:27.000Z</time>
        <extensions>
          <ns3:TrackPointExtension>
            <ns3:atemp>26.0</ns3:atemp>
          </ns3:TrackPointExtension>
        </extensions>
      </trkpt>
      <trkpt lat="31.69715850614011287689208984375" lon="35.0105203874409198760986328125">
        <ele>341.399993896484375</ele>
        <time>2017-08-04T05:17:30.000Z</time>
        <extensions>
          <ns3:TrackPointExtension>
            <ns3:atemp>26.0</ns3:atemp>
          </ns3:TrackPointExtension>
        </extensions>
      </trkpt>
      <trkpt lat="31.69717443175613880157470703125" lon="35.01051443628966808319091796875">
        <ele>341.399993896484375</ele>
        <time>2017-08-04T05:17:33.000Z</time>
        <extensions>
          <ns3:TrackPointExtension>
            <ns3:atemp>26.0</ns3:atemp>
          </ns3:TrackPointExtension>
        </extensions>
      </trkpt>
      <trkpt lat="31.6971765272319316864013671875" lon="35.01051577739417552947998046875">
        <ele>341.399993896484375</ele>
        <time>2017-08-04T05:17:41.000Z</time>
        <extensions>
          <ns3:TrackPointExtension>
            <ns3:atemp>26.0</ns3:atemp>
          </ns3:TrackPointExtension>
        </extensions>
      </trkpt>
      <trkpt lat="31.69717661105096340179443359375" lon="35.0105108320713043212890625">
        <ele>341.399993896484375</ele>
        <time>2017-08-04T05:17:52.000Z</time>
        <extensions>
          <ns3:TrackPointExtension>
            <ns3:atemp>26.0</ns3:atemp>
          </ns3:TrackPointExtension>
        </extensions>
      </trkpt>
      <trkpt lat="31.6971792094409465789794921875" lon="35.01051242463290691375732421875">
        <ele>341.600006103515625</ele>
        <time>2017-08-04T05:18:00.000Z</time>
        <extensions>
          <ns3:TrackPointExtension>
            <ns3:atemp>26.0</ns3:atemp>
          </ns3:TrackPointExtension>
        </extensions>
      </trkpt>
      <trkpt lat="31.69718138873577117919921875" lon="35.01051560975611209869384765625">
        <ele>341.600006103515625</ele>
        <time>2017-08-04T05:18:07.000Z</time>
        <extensions>
          <ns3:TrackPointExtension>
            <ns3:atemp>26.0</ns3:atemp>
          </ns3:TrackPointExtension>
        </extensions>
      </trkpt>
      <trkpt lat="31.697181053459644317626953125" lon="35.01051309518516063690185546875">
        <ele>340.79998779296875</ele>
        <time>2017-08-04T05:18:13.000Z</time>
        <extensions>
          <ns3:TrackPointExtension>
            <ns3:atemp>26.0</ns3:atemp>
          </ns3:TrackPointExtension>
        </extensions>
      </trkpt>
      <trkpt lat="31.697181053459644317626953125" lon="35.01051309518516063690185546875">
        <ele>340.79998779296875</ele>
        <time>2017-08-04T05:18:22.000Z</time>
        <extensions>
          <ns3:TrackPointExtension>
            <ns3:atemp>26.0</ns3:atemp>
          </ns3:TrackPointExtension>
        </extensions>
      </trkpt>
      <trkpt lat="31.697181053459644317626953125" lon="35.01051309518516063690185546875">
        <ele>340.79998779296875</ele>
        <time>2017-08-04T05:18:24.000Z</time>
        <extensions>
          <ns3:TrackPointExtension>
            <ns3:atemp>26.0</ns3:atemp>
          </ns3:TrackPointExtension>
        </extensions>
      </trkpt>
      <trkpt lat="31.6971688158810138702392578125" lon="35.0105250813066959381103515625">
        <ele>341.399993896484375</ele>
        <time>2017-08-04T05:18:30.000Z</time>
        <extensions>
          <ns3:TrackPointExtension>
            <ns3:atemp>26.0</ns3:atemp>
          </ns3:TrackPointExtension>
        </extensions>
      </trkpt>
      <trkpt lat="31.69717409648001194000244140625" lon="35.0105351395905017852783203125">
        <ele>341.399993896484375</ele>
        <time>2017-08-04T05:18:37.000Z</time>
        <extensions>
          <ns3:TrackPointExtension>
            <ns3:atemp>26.0</ns3:atemp>
          </ns3:TrackPointExtension>
        </extensions>
      </trkpt>
      <trkpt lat="31.6972036845982074737548828125" lon="35.01049750484526157379150390625">
        <ele>341.20001220703125</ele>
        <time>2017-08-04T05:18:42.000Z</time>
        <extensions>
          <ns3:TrackPointExtension>
            <ns3:atemp>26.0</ns3:atemp>
          </ns3:TrackPointExtension>
        </extensions>
      </trkpt>
      <trkpt lat="31.697211563587188720703125" lon="35.01048224978148937225341796875">
        <ele>341.20001220703125</ele>
        <time>2017-08-04T05:18:43.000Z</time>
        <extensions>
          <ns3:TrackPointExtension>
            <ns3:atemp>26.0</ns3:atemp>
          </ns3:TrackPointExtension>
        </extensions>
      </trkpt>
      <trkpt lat="31.69722572900354862213134765625" lon="35.01047034747898578643798828125">
        <ele>341</ele>
        <time>2017-08-04T05:18:44.000Z</time>
        <extensions>
          <ns3:TrackPointExtension>
            <ns3:atemp>26.0</ns3:atemp>
          </ns3:TrackPointExtension>
        </extensions>
      </trkpt>
      <trkpt lat="31.6972885094583034515380859375" lon="35.0104303658008575439453125">
        <ele>340.79998779296875</ele>
        <time>2017-08-04T05:18:47.000Z</time>
        <extensions>
          <ns3:TrackPointExtension>
            <ns3:atemp>26.0</ns3:atemp>
          </ns3:TrackPointExtension>
        </extensions>
      </trkpt>
      <trkpt lat="31.69738699682056903839111328125" lon="35.01045626588165760040283203125">
        <ele>341.79998779296875</ele>
        <time>2017-08-04T05:18:51.000Z</time>
        <extensions>
          <ns3:TrackPointExtension>
            <ns3:atemp>26.0</ns3:atemp>
          </ns3:TrackPointExtension>
        </extensions>
      </trkpt>
      <trkpt lat="31.697448603808879852294921875" lon="35.01054544933140277862548828125">
        <ele>342</ele>
        <time>2017-08-04T05:18:55.000Z</time>
        <extensions>
          <ns3:TrackPointExtension>
            <ns3:atemp>26.0</ns3:atemp>
          </ns3:TrackPointExtension>
        </extensions>
      </trkpt>
      <trkpt lat="31.6975198499858379364013671875" lon="35.01052835024893283843994140625">
        <ele>341.79998779296875</ele>
        <time>2017-08-04T05:18:58.000Z</time>
        <extensions>
          <ns3:TrackPointExtension>
            <ns3:atemp>26.0</ns3:atemp>
          </ns3:TrackPointExtension>
        </extensions>
      </trkpt>
      <trkpt lat="31.69768455438315868377685546875" lon="35.0104947388172149658203125">
        <ele>342.399993896484375</ele>
        <time>2017-08-04T05:19:04.000Z</time>
        <extensions>
          <ns3:TrackPointExtension>
            <ns3:atemp>26.0</ns3:atemp>
          </ns3:TrackPointExtension>
        </extensions>
      </trkpt>
      <trkpt lat="31.6977314092218875885009765625" lon="35.0104915536940097808837890625">
        <ele>343.20001220703125</ele>
        <time>2017-08-04T05:19:06.000Z</time>
        <extensions>
          <ns3:TrackPointExtension>
            <ns3:atemp>26.0</ns3:atemp>
          </ns3:TrackPointExtension>
        </extensions>
      </trkpt>
      <trkpt lat="31.69775378890335559844970703125" lon="35.0104717724025249481201171875">
        <ele>343.600006103515625</ele>
        <time>2017-08-04T05:19:07.000Z</time>
        <extensions>
          <ns3:TrackPointExtension>
            <ns3:atemp>26.0</ns3:atemp>
          </ns3:TrackPointExtension>
        </extensions>
      </trkpt>
      <trkpt lat="31.69777424074709415435791015625" lon="35.01044738106429576873779296875">
        <ele>343.79998779296875</ele>
        <time>2017-08-04T05:19:08.000Z</time>
        <extensions>
          <ns3:TrackPointExtension>
            <ns3:atemp>26.0</ns3:atemp>
          </ns3:TrackPointExtension>
        </extensions>
      </trkpt>
      <trkpt lat="31.69783710502088069915771484375" lon="35.01039792783558368682861328125">
        <ele>344.20001220703125</ele>
        <time>2017-08-04T05:19:11.000Z</time>
        <extensions>
          <ns3:TrackPointExtension>
            <ns3:atemp>26.0</ns3:atemp>
          </ns3:TrackPointExtension>
        </extensions>
      </trkpt>
      <trkpt lat="31.69788018800318241119384765625" lon="35.01038677990436553955078125">
        <ele>344.600006103515625</ele>
        <time>2017-08-04T05:19:13.000Z</time>
        <extensions>
          <ns3:TrackPointExtension>
            <ns3:atemp>26.0</ns3:atemp>
          </ns3:TrackPointExtension>
        </extensions>
      </trkpt>
      <trkpt lat="31.69800843112170696258544921875" lon="35.01034378074109554290771484375">
        <ele>345.399993896484375</ele>
        <time>2017-08-04T05:19:18.000Z</time>
        <extensions>
          <ns3:TrackPointExtension>
            <ns3:atemp>26.0</ns3:atemp>
          </ns3:TrackPointExtension>
        </extensions>
      </trkpt>
      <trkpt lat="31.6981065832078456878662109375" lon="35.01033053733408451080322265625">
        <ele>346.399993896484375</ele>
        <time>2017-08-04T05:19:22.000Z</time>
        <extensions>
          <ns3:TrackPointExtension>
            <ns3:atemp>26.0</ns3:atemp>
          </ns3:TrackPointExtension>
        </extensions>
      </trkpt>
      <trkpt lat="31.69817673973739147186279296875" lon="35.01031301915645599365234375">
        <ele>346.79998779296875</ele>
        <time>2017-08-04T05:19:25.000Z</time>
        <extensions>
          <ns3:TrackPointExtension>
            <ns3:atemp>26.0</ns3:atemp>
          </ns3:TrackPointExtension>
        </extensions>
      </trkpt>
      <trkpt lat="31.69830163009464740753173828125" lon="35.01027588732540607452392578125">
        <ele>347.399993896484375</ele>
        <time>2017-08-04T05:19:30.000Z</time>
        <extensions>
          <ns3:TrackPointExtension>
            <ns3:atemp>26.0</ns3:atemp>
          </ns3:TrackPointExtension>
        </extensions>
      </trkpt>
      <trkpt lat="31.69843188486993312835693359375" lon="35.01024194061756134033203125">
        <ele>348.20001220703125</ele>
        <time>2017-08-04T05:19:35.000Z</time>
        <extensions>
          <ns3:TrackPointExtension>
            <ns3:atemp>26.0</ns3:atemp>
          </ns3:TrackPointExtension>
        </extensions>
      </trkpt>
      <trkpt lat="31.698624752461910247802734375" lon="35.0101928226649761199951171875">
        <ele>348.20001220703125</ele>
        <time>2017-08-04T05:19:42.000Z</time>
        <extensions>
          <ns3:TrackPointExtension>
            <ns3:atemp>26.0</ns3:atemp>
          </ns3:TrackPointExtension>
        </extensions>
      </trkpt>
      <trkpt lat="31.6988421790301799774169921875" lon="35.01015636138617992401123046875">
        <ele>348</ele>
        <time>2017-08-04T05:19:48.000Z</time>
        <extensions>
          <ns3:TrackPointExtension>
            <ns3:atemp>26.0</ns3:atemp>
          </ns3:TrackPointExtension>
        </extensions>
      </trkpt>
      <trkpt lat="31.6990879364311695098876953125" lon="35.01009098254144191741943359375">
        <ele>347.399993896484375</ele>
        <time>2017-08-04T05:19:54.000Z</time>
        <extensions>
          <ns3:TrackPointExtension>
            <ns3:atemp>26.0</ns3:atemp>
          </ns3:TrackPointExtension>
        </extensions>
      </trkpt>
      <trkpt lat="31.6991700790822505950927734375" lon="35.01009265892207622528076171875">
        <ele>347.399993896484375</ele>
        <time>2017-08-04T05:19:56.000Z</time>
        <extensions>
          <ns3:TrackPointExtension>
            <ns3:atemp>26.0</ns3:atemp>
          </ns3:TrackPointExtension>
        </extensions>
      </trkpt>
      <trkpt lat="31.6992766968905925750732421875" lon="35.01009936444461345672607421875">
        <ele>347.600006103515625</ele>
        <time>2017-08-04T05:19:59.000Z</time>
        <extensions>
          <ns3:TrackPointExtension>
            <ns3:atemp>26.0</ns3:atemp>
          </ns3:TrackPointExtension>
        </extensions>
      </trkpt>
      <trkpt lat="31.69937116093933582305908203125" lon="35.01013222150504589080810546875">
        <ele>347.79998779296875</ele>
        <time>2017-08-04T05:20:02.000Z</time>
        <extensions>
          <ns3:TrackPointExtension>
            <ns3:atemp>26.0</ns3:atemp>
          </ns3:TrackPointExtension>
        </extensions>
      </trkpt>
      <trkpt lat="31.69943368993699550628662109375" lon="35.01014194451272487640380859375">
        <ele>347.600006103515625</ele>
        <time>2017-08-04T05:20:04.000Z</time>
        <extensions>
          <ns3:TrackPointExtension>
            <ns3:atemp>26.0</ns3:atemp>
          </ns3:TrackPointExtension>
        </extensions>
      </trkpt>
      <trkpt lat="31.69966201297938823699951171875" lon="35.010143704712390899658203125">
        <ele>348</ele>
        <time>2017-08-04T05:20:10.000Z</time>
        <extensions>
          <ns3:TrackPointExtension>
            <ns3:atemp>26.0</ns3:atemp>
          </ns3:TrackPointExtension>
        </extensions>
      </trkpt>
      <trkpt lat="31.69983618892729282379150390625" lon="35.01009441912174224853515625">
        <ele>348.600006103515625</ele>
        <time>2017-08-04T05:20:15.000Z</time>
        <extensions>
          <ns3:TrackPointExtension>
            <ns3:atemp>26.0</ns3:atemp>
          </ns3:TrackPointExtension>
        </extensions>
      </trkpt>
      <trkpt lat="31.6998691298067569732666015625" lon="35.0100875459611415863037109375">
        <ele>348.600006103515625</ele>
        <time>2017-08-04T05:20:16.000Z</time>
        <extensions>
          <ns3:TrackPointExtension>
            <ns3:atemp>26.0</ns3:atemp>
          </ns3:TrackPointExtension>
        </extensions>
      </trkpt>
      <trkpt lat="31.7000800184905529022216796875" lon="35.0100204907357692718505859375">
        <ele>349.20001220703125</ele>
        <time>2017-08-04T05:20:22.000Z</time>
        <extensions>
          <ns3:TrackPointExtension>
            <ns3:atemp>26.0</ns3:atemp>
          </ns3:TrackPointExtension>
        </extensions>
      </trkpt>
      <trkpt lat="31.70029945671558380126953125" lon="35.009944550693035125732421875">
        <ele>348.79998779296875</ele>
        <time>2017-08-04T05:20:28.000Z</time>
        <extensions>
          <ns3:TrackPointExtension>
            <ns3:atemp>26.0</ns3:atemp>
          </ns3:TrackPointExtension>
        </extensions>
      </trkpt>
      <trkpt lat="31.7004691064357757568359375" lon="35.00992418266832828521728515625">
        <ele>349.399993896484375</ele>
        <time>2017-08-04T05:20:33.000Z</time>
        <extensions>
          <ns3:TrackPointExtension>
            <ns3:atemp>26.0</ns3:atemp>
          </ns3:TrackPointExtension>
        </extensions>
      </trkpt>
      <trkpt lat="31.70054127462208271026611328125" lon="35.0099212490022182464599609375">
        <ele>349.600006103515625</ele>
        <time>2017-08-04T05:20:35.000Z</time>
        <extensions>
          <ns3:TrackPointExtension>
            <ns3:atemp>26.0</ns3:atemp>
          </ns3:TrackPointExtension>
        </extensions>
      </trkpt>
      <trkpt lat="31.70063582248985767364501953125" lon="35.009902305901050567626953125">
        <ele>349.600006103515625</ele>
        <time>2017-08-04T05:20:38.000Z</time>
        <extensions>
          <ns3:TrackPointExtension>
            <ns3:atemp>26.0</ns3:atemp>
          </ns3:TrackPointExtension>
        </extensions>
      </trkpt>
      <trkpt lat="31.7006898857653141021728515625" lon="35.00988646410405635833740234375">
        <ele>349.79998779296875</ele>
        <time>2017-08-04T05:20:42.000Z</time>
        <extensions>
          <ns3:TrackPointExtension>
            <ns3:atemp>26.0</ns3:atemp>
          </ns3:TrackPointExtension>
        </extensions>
      </trkpt>
      <trkpt lat="31.7007113434374332427978515625" lon="35.0099395215511322021484375">
        <ele>350.600006103515625</ele>
        <time>2017-08-04T05:20:46.000Z</time>
        <extensions>
          <ns3:TrackPointExtension>
            <ns3:atemp>26.0</ns3:atemp>
          </ns3:TrackPointExtension>
        </extensions>
      </trkpt>
      <trkpt lat="31.7007368244230747222900390625" lon="35.0100908987224102020263671875">
        <ele>351.600006103515625</ele>
        <time>2017-08-04T05:20:53.000Z</time>
        <extensions>
          <ns3:TrackPointExtension>
            <ns3:atemp>26.0</ns3:atemp>
          </ns3:TrackPointExtension>
        </extensions>
      </trkpt>
      <trkpt lat="31.70077345333993434906005859375" lon="35.0102023780345916748046875">
        <ele>352.79998779296875</ele>
        <time>2017-08-04T05:20:58.000Z</time>
        <extensions>
          <ns3:TrackPointExtension>
            <ns3:atemp>26.0</ns3:atemp>
          </ns3:TrackPointExtension>
        </extensions>
      </trkpt>
      <trkpt lat="31.70077831484377384185791015625" lon="35.0102840177714824676513671875">
        <ele>353</ele>
        <time>2017-08-04T05:21:01.000Z</time>
        <extensions>
          <ns3:TrackPointExtension>
            <ns3:atemp>26.0</ns3:atemp>
          </ns3:TrackPointExtension>
        </extensions>
      </trkpt>
      <trkpt lat="31.7008025385439395904541015625" lon="35.01041988842189311981201171875">
        <ele>353.79998779296875</ele>
        <time>2017-08-04T05:21:06.000Z</time>
        <extensions>
          <ns3:TrackPointExtension>
            <ns3:atemp>26.0</ns3:atemp>
          </ns3:TrackPointExtension>
        </extensions>
      </trkpt>
      <trkpt lat="31.7008266784250736236572265625" lon="35.0104640610516071319580078125">
        <ele>354.399993896484375</ele>
        <time>2017-08-04T05:21:08.000Z</time>
        <extensions>
          <ns3:TrackPointExtension>
            <ns3:atemp>26.0</ns3:atemp>
          </ns3:TrackPointExtension>
        </extensions>
      </trkpt>
      <trkpt lat="31.70085039921104907989501953125" lon="35.01050806604325771331787109375">
        <ele>355</ele>
        <time>2017-08-04T05:21:10.000Z</time>
        <extensions>
          <ns3:TrackPointExtension>
            <ns3:atemp>26.0</ns3:atemp>
          </ns3:TrackPointExtension>
        </extensions>
      </trkpt>
      <trkpt lat="31.700902618467807769775390625" lon="35.0106181204319000244140625">
        <ele>356</ele>
        <time>2017-08-04T05:21:15.000Z</time>
        <extensions>
          <ns3:TrackPointExtension>
            <ns3:atemp>26.0</ns3:atemp>
          </ns3:TrackPointExtension>
        </extensions>
      </trkpt>
      <trkpt lat="31.70091007836163043975830078125" lon="35.0106400810182094573974609375">
        <ele>356.399993896484375</ele>
        <time>2017-08-04T05:21:16.000Z</time>
        <extensions>
          <ns3:TrackPointExtension>
            <ns3:atemp>26.0</ns3:atemp>
          </ns3:TrackPointExtension>
        </extensions>
      </trkpt>
      <trkpt lat="31.7009304463863372802734375" lon="35.010681487619876861572265625">
        <ele>357</ele>
        <time>2017-08-04T05:21:18.000Z</time>
        <extensions>
          <ns3:TrackPointExtension>
            <ns3:atemp>26.0</ns3:atemp>
          </ns3:TrackPointExtension>
        </extensions>
      </trkpt>
      <trkpt lat="31.7009814083576202392578125" lon="35.010770000517368316650390625">
        <ele>358</ele>
        <time>2017-08-04T05:21:22.000Z</time>
        <extensions>
          <ns3:TrackPointExtension>
            <ns3:atemp>26.0</ns3:atemp>
          </ns3:TrackPointExtension>
        </extensions>
      </trkpt>
      <trkpt lat="31.70104444026947021484375" lon="35.01090176403522491455078125">
        <ele>359.20001220703125</ele>
        <time>2017-08-04T05:21:28.000Z</time>
        <extensions>
          <ns3:TrackPointExtension>
            <ns3:atemp>26.0</ns3:atemp>
          </ns3:TrackPointExtension>
        </extensions>
      </trkpt>
      <trkpt lat="31.7010627128183841705322265625" lon="35.01094409264624118804931640625">
        <ele>359.399993896484375</ele>
        <time>2017-08-04T05:21:30.000Z</time>
        <extensions>
          <ns3:TrackPointExtension>
            <ns3:atemp>26.0</ns3:atemp>
          </ns3:TrackPointExtension>
        </extensions>
      </trkpt>
      <trkpt lat="31.70109808444976806640625" lon="35.01101282425224781036376953125">
        <ele>360.20001220703125</ele>
        <time>2017-08-04T05:21:33.000Z</time>
        <extensions>
          <ns3:TrackPointExtension>
            <ns3:atemp>26.0</ns3:atemp>
          </ns3:TrackPointExtension>
        </extensions>
      </trkpt>
      <trkpt lat="31.70114812441170215606689453125" lon="35.011126063764095306396484375">
        <ele>361.20001220703125</ele>
        <time>2017-08-04T05:21:38.000Z</time>
        <extensions>
          <ns3:TrackPointExtension>
            <ns3:atemp>26.0</ns3:atemp>
          </ns3:TrackPointExtension>
        </extensions>
      </trkpt>
      <trkpt lat="31.7011852562427520751953125" lon="35.01123947091400623321533203125">
        <ele>362.399993896484375</ele>
        <time>2017-08-04T05:21:43.000Z</time>
        <extensions>
          <ns3:TrackPointExtension>
            <ns3:atemp>26.0</ns3:atemp>
          </ns3:TrackPointExtension>
        </extensions>
      </trkpt>
      <trkpt lat="31.70121283270418643951416015625" lon="35.0113069452345371246337890625">
        <ele>363.20001220703125</ele>
        <time>2017-08-04T05:21:46.000Z</time>
        <extensions>
          <ns3:TrackPointExtension>
            <ns3:atemp>26.0</ns3:atemp>
          </ns3:TrackPointExtension>
        </extensions>
      </trkpt>
      <trkpt lat="31.70123563148081302642822265625" lon="35.01137240789830684661865234375">
        <ele>363.399993896484375</ele>
        <time>2017-08-04T05:21:49.000Z</time>
        <extensions>
          <ns3:TrackPointExtension>
            <ns3:atemp>26.0</ns3:atemp>
          </ns3:TrackPointExtension>
        </extensions>
      </trkpt>
      <trkpt lat="31.701288856565952301025390625" lon="35.011468045413494110107421875">
        <ele>364.600006103515625</ele>
        <time>2017-08-04T05:21:54.000Z</time>
        <extensions>
          <ns3:TrackPointExtension>
            <ns3:atemp>26.0</ns3:atemp>
          </ns3:TrackPointExtension>
        </extensions>
      </trkpt>
      <trkpt lat="31.70129447244107723236083984375" lon="35.01148338429629802703857421875">
        <ele>364.79998779296875</ele>
        <time>2017-08-04T05:21:55.000Z</time>
        <extensions>
          <ns3:TrackPointExtension>
            <ns3:atemp>26.0</ns3:atemp>
          </ns3:TrackPointExtension>
        </extensions>
      </trkpt>
      <trkpt lat="31.70131676830351352691650390625" lon="35.011529736220836639404296875">
        <ele>365.79998779296875</ele>
        <time>2017-08-04T05:21:58.000Z</time>
        <extensions>
          <ns3:TrackPointExtension>
            <ns3:atemp>26.0</ns3:atemp>
          </ns3:TrackPointExtension>
        </extensions>
      </trkpt>
      <trkpt lat="31.70136152766644954681396484375" lon="35.01157709397375583648681640625">
        <ele>366.79998779296875</ele>
        <time>2017-08-04T05:22:02.000Z</time>
        <extensions>
          <ns3:TrackPointExtension>
            <ns3:atemp>26.0</ns3:atemp>
          </ns3:TrackPointExtension>
        </extensions>
      </trkpt>
      <trkpt lat="31.701390445232391357421875" lon="35.011597461998462677001953125">
        <ele>367.20001220703125</ele>
        <time>2017-08-04T05:22:04.000Z</time>
        <extensions>
          <ns3:TrackPointExtension>
            <ns3:atemp>26.0</ns3:atemp>
          </ns3:TrackPointExtension>
        </extensions>
      </trkpt>
      <trkpt lat="31.701431684195995330810546875" lon="35.0116294808685779571533203125">
        <ele>368</ele>
        <time>2017-08-04T05:22:07.000Z</time>
        <extensions>
          <ns3:TrackPointExtension>
            <ns3:atemp>26.0</ns3:atemp>
          </ns3:TrackPointExtension>
        </extensions>
      </trkpt>
      <trkpt lat="31.70149764977395534515380859375" lon="35.011666528880596160888671875">
        <ele>369</ele>
        <time>2017-08-04T05:22:12.000Z</time>
        <extensions>
          <ns3:TrackPointExtension>
            <ns3:atemp>26.0</ns3:atemp>
          </ns3:TrackPointExtension>
        </extensions>
      </trkpt>
      <trkpt lat="31.7015344463288784027099609375" lon="35.0116871483623981475830078125">
        <ele>369.600006103515625</ele>
        <time>2017-08-04T05:22:15.000Z</time>
        <extensions>
          <ns3:TrackPointExtension>
            <ns3:atemp>26.0</ns3:atemp>
          </ns3:TrackPointExtension>
        </extensions>
      </trkpt>
      <trkpt lat="31.701557077467441558837890625" lon="35.01169946976006031036376953125">
        <ele>370</ele>
        <time>2017-08-04T05:22:17.000Z</time>
        <extensions>
          <ns3:TrackPointExtension>
            <ns3:atemp>26.0</ns3:atemp>
          </ns3:TrackPointExtension>
        </extensions>
      </trkpt>
      <trkpt lat="31.70160912908613681793212890625" lon="35.0117277167737483978271484375">
        <ele>370.79998779296875</ele>
        <time>2017-08-04T05:22:21.000Z</time>
        <extensions>
          <ns3:TrackPointExtension>
            <ns3:atemp>26.0</ns3:atemp>
          </ns3:TrackPointExtension>
        </extensions>
      </trkpt>
      <trkpt lat="31.70162103138864040374755859375" lon="35.01173350028693675994873046875">
        <ele>371.20001220703125</ele>
        <time>2017-08-04T05:22:22.000Z</time>
        <extensions>
          <ns3:TrackPointExtension>
            <ns3:atemp>26.0</ns3:atemp>
          </ns3:TrackPointExtension>
        </extensions>
      </trkpt>
      <trkpt lat="31.7016787827014923095703125" lon="35.01175646670162677764892578125">
        <ele>372.20001220703125</ele>
        <time>2017-08-04T05:22:26.000Z</time>
        <extensions>
          <ns3:TrackPointExtension>
            <ns3:atemp>26.0</ns3:atemp>
          </ns3:TrackPointExtension>
        </extensions>
      </trkpt>
      <trkpt lat="31.7017175070941448211669921875" lon="35.01177038066089153289794921875">
        <ele>372.79998779296875</ele>
        <time>2017-08-04T05:22:29.000Z</time>
        <extensions>
          <ns3:TrackPointExtension>
            <ns3:atemp>26.0</ns3:atemp>
          </ns3:TrackPointExtension>
        </extensions>
      </trkpt>
      <trkpt lat="31.7017235420644283294677734375" lon="35.01178446225821971893310546875">
        <ele>373.20001220703125</ele>
        <time>2017-08-04T05:22:30.000Z</time>
        <extensions>
          <ns3:TrackPointExtension>
            <ns3:atemp>26.0</ns3:atemp>
          </ns3:TrackPointExtension>
        </extensions>
      </trkpt>
      <trkpt lat="31.70173401944339275360107421875" lon="35.01179250888526439666748046875">
        <ele>373.399993896484375</ele>
        <time>2017-08-04T05:22:31.000Z</time>
        <extensions>
          <ns3:TrackPointExtension>
            <ns3:atemp>26.0</ns3:atemp>
          </ns3:TrackPointExtension>
        </extensions>
      </trkpt>
      <trkpt lat="31.70173846185207366943359375" lon="35.011842548847198486328125">
        <ele>374.399993896484375</ele>
        <time>2017-08-04T05:22:34.000Z</time>
        <extensions>
          <ns3:TrackPointExtension>
            <ns3:atemp>26.0</ns3:atemp>
          </ns3:TrackPointExtension>
        </extensions>
      </trkpt>
      <trkpt lat="31.7017376236617565155029296875" lon="35.01185637898743152618408203125">
        <ele>374.399993896484375</ele>
        <time>2017-08-04T05:22:35.000Z</time>
        <extensions>
          <ns3:TrackPointExtension>
            <ns3:atemp>26.0</ns3:atemp>
          </ns3:TrackPointExtension>
        </extensions>
      </trkpt>
      <trkpt lat="31.70167811214923858642578125" lon="35.01195226795971393585205078125">
        <ele>374.600006103515625</ele>
        <time>2017-08-04T05:22:41.000Z</time>
        <extensions>
          <ns3:TrackPointExtension>
            <ns3:atemp>26.0</ns3:atemp>
          </ns3:TrackPointExtension>
        </extensions>
      </trkpt>
      <trkpt lat="31.70160979963839054107666015625" lon="35.01206575892865657806396484375">
        <ele>374.79998779296875</ele>
        <time>2017-08-04T05:22:47.000Z</time>
        <extensions>
          <ns3:TrackPointExtension>
            <ns3:atemp>26.0</ns3:atemp>
          </ns3:TrackPointExtension>
        </extensions>
      </trkpt>
      <trkpt lat="31.70160493813455104827880859375" lon="35.01223121769726276397705078125">
        <ele>375.399993896484375</ele>
        <time>2017-08-04T05:22:54.000Z</time>
        <extensions>
          <ns3:TrackPointExtension>
            <ns3:atemp>26.0</ns3:atemp>
          </ns3:TrackPointExtension>
        </extensions>
      </trkpt>
      <trkpt lat="31.70162119902670383453369140625" lon="35.01224915497004985809326171875">
        <ele>375.600006103515625</ele>
        <time>2017-08-04T05:22:55.000Z</time>
        <extensions>
          <ns3:TrackPointExtension>
            <ns3:atemp>26.0</ns3:atemp>
          </ns3:TrackPointExtension>
        </extensions>
      </trkpt>
      <trkpt lat="31.7016950435936450958251953125" lon="35.01233096234500408172607421875">
        <ele>376.399993896484375</ele>
        <time>2017-08-04T05:23:00.000Z</time>
        <extensions>
          <ns3:TrackPointExtension>
            <ns3:atemp>26.0</ns3:atemp>
          </ns3:TrackPointExtension>
        </extensions>
      </trkpt>
      <trkpt lat="31.70172982849180698394775390625" lon="35.0123583711683750152587890625">
        <ele>376.600006103515625</ele>
        <time>2017-08-04T05:23:02.000Z</time>
        <extensions>
          <ns3:TrackPointExtension>
            <ns3:atemp>26.0</ns3:atemp>
          </ns3:TrackPointExtension>
        </extensions>
      </trkpt>
      <trkpt lat="31.7018268071115016937255859375" lon="35.0124602951109409332275390625">
        <ele>377.20001220703125</ele>
        <time>2017-08-04T05:23:08.000Z</time>
        <extensions>
          <ns3:TrackPointExtension>
            <ns3:atemp>26.0</ns3:atemp>
          </ns3:TrackPointExtension>
        </extensions>
      </trkpt>
      <trkpt lat="31.70184348709881305694580078125" lon="35.0125518254935741424560546875">
        <ele>377.79998779296875</ele>
        <time>2017-08-04T05:23:12.000Z</time>
        <extensions>
          <ns3:TrackPointExtension>
            <ns3:atemp>26.0</ns3:atemp>
          </ns3:TrackPointExtension>
        </extensions>
      </trkpt>
      <trkpt lat="31.70182923786342144012451171875" lon="35.01257068477571010589599609375">
        <ele>378</ele>
        <time>2017-08-04T05:23:13.000Z</time>
        <extensions>
          <ns3:TrackPointExtension>
            <ns3:atemp>26.0</ns3:atemp>
          </ns3:TrackPointExtension>
        </extensions>
      </trkpt>
      <trkpt lat="31.70174944214522838592529296875" lon="35.01279003918170928955078125">
        <ele>378.20001220703125</ele>
        <time>2017-08-04T05:23:21.000Z</time>
        <extensions>
          <ns3:TrackPointExtension>
            <ns3:atemp>26.0</ns3:atemp>
          </ns3:TrackPointExtension>
        </extensions>
      </trkpt>
      <trkpt lat="31.7017570696771144866943359375" lon="35.01293160952627658843994140625">
        <ele>379</ele>
        <time>2017-08-04T05:23:26.000Z</time>
        <extensions>
          <ns3:TrackPointExtension>
            <ns3:atemp>26.0</ns3:atemp>
          </ns3:TrackPointExtension>
        </extensions>
      </trkpt>
      <trkpt lat="31.70175589621067047119140625" lon="35.01296027563512325286865234375">
        <ele>379</ele>
        <time>2017-08-04T05:23:27.000Z</time>
        <extensions>
          <ns3:TrackPointExtension>
            <ns3:atemp>26.0</ns3:atemp>
          </ns3:TrackPointExtension>
        </extensions>
      </trkpt>
      <trkpt lat="31.70173988677561283111572265625" lon="35.01306856982409954071044921875">
        <ele>380</ele>
        <time>2017-08-04T05:23:32.000Z</time>
        <extensions>
          <ns3:TrackPointExtension>
            <ns3:atemp>26.0</ns3:atemp>
          </ns3:TrackPointExtension>
        </extensions>
      </trkpt>
      <trkpt lat="31.70172932557761669158935546875" lon="35.01309019513428211212158203125">
        <ele>380</ele>
        <time>2017-08-04T05:23:33.000Z</time>
        <extensions>
          <ns3:TrackPointExtension>
            <ns3:atemp>26.0</ns3:atemp>
          </ns3:TrackPointExtension>
        </extensions>
      </trkpt>
      <trkpt lat="31.7017379589378833770751953125" lon="35.0131809711456298828125">
        <ele>380.79998779296875</ele>
        <time>2017-08-04T05:23:39.000Z</time>
        <extensions>
          <ns3:TrackPointExtension>
            <ns3:atemp>26.0</ns3:atemp>
          </ns3:TrackPointExtension>
        </extensions>
      </trkpt>
      <trkpt lat="31.70175665058195590972900390625" lon="35.01318390481173992156982421875">
        <ele>381</ele>
        <time>2017-08-04T05:23:40.000Z</time>
        <extensions>
          <ns3:TrackPointExtension>
            <ns3:atemp>26.0</ns3:atemp>
          </ns3:TrackPointExtension>
        </extensions>
      </trkpt>
      <trkpt lat="31.70176872052252292633056640625" lon="35.01318608410656452178955078125">
        <ele>381</ele>
        <time>2017-08-04T05:23:41.000Z</time>
        <extensions>
          <ns3:TrackPointExtension>
            <ns3:atemp>26.0</ns3:atemp>
          </ns3:TrackPointExtension>
        </extensions>
      </trkpt>
      <trkpt lat="31.70180995948612689971923828125" lon="35.013179965317249298095703125">
        <ele>381.20001220703125</ele>
        <time>2017-08-04T05:23:43.000Z</time>
        <extensions>
          <ns3:TrackPointExtension>
            <ns3:atemp>26.0</ns3:atemp>
          </ns3:TrackPointExtension>
        </extensions>
      </trkpt>
      <trkpt lat="31.7018821276724338531494140625" lon="35.01316487789154052734375">
        <ele>381.600006103515625</ele>
        <time>2017-08-04T05:23:48.000Z</time>
        <extensions>
          <ns3:TrackPointExtension>
            <ns3:atemp>26.0</ns3:atemp>
          </ns3:TrackPointExtension>
        </extensions>
      </trkpt>
      <trkpt lat="31.70189511962234973907470703125" lon="35.01316345296800136566162109375">
        <ele>381.79998779296875</ele>
        <time>2017-08-04T05:23:49.000Z</time>
        <extensions>
          <ns3:TrackPointExtension>
            <ns3:atemp>26.0</ns3:atemp>
          </ns3:TrackPointExtension>
        </extensions>
      </trkpt>
      <trkpt lat="31.70191976241767406463623046875" lon="35.01318164169788360595703125">
        <ele>381.79998779296875</ele>
        <time>2017-08-04T05:23:52.000Z</time>
        <extensions>
          <ns3:TrackPointExtension>
            <ns3:atemp>26.0</ns3:atemp>
          </ns3:TrackPointExtension>
        </extensions>
      </trkpt>
      <trkpt lat="31.70191573910415172576904296875" lon="35.0132015906274318695068359375">
        <ele>381.79998779296875</ele>
        <time>2017-08-04T05:23:53.000Z</time>
        <extensions>
          <ns3:TrackPointExtension>
            <ns3:atemp>26.0</ns3:atemp>
          </ns3:TrackPointExtension>
        </extensions>
      </trkpt>
      <trkpt lat="31.70190568082034587860107421875" lon="35.0132123194634914398193359375">
        <ele>381.79998779296875</ele>
        <time>2017-08-04T05:23:54.000Z</time>
        <extensions>
          <ns3:TrackPointExtension>
            <ns3:atemp>26.0</ns3:atemp>
          </ns3:TrackPointExtension>
        </extensions>
      </trkpt>
      <trkpt lat="31.70184801332652568817138671875" lon="35.0131925381720066070556640625">
        <ele>381.79998779296875</ele>
        <time>2017-08-04T05:23:57.000Z</time>
        <extensions>
          <ns3:TrackPointExtension>
            <ns3:atemp>26.0</ns3:atemp>
          </ns3:TrackPointExtension>
        </extensions>
      </trkpt>
      <trkpt lat="31.70182873494923114776611328125" lon="35.01319228671491146087646484375">
        <ele>381.600006103515625</ele>
        <time>2017-08-04T05:23:58.000Z</time>
        <extensions>
          <ns3:TrackPointExtension>
            <ns3:atemp>26.0</ns3:atemp>
          </ns3:TrackPointExtension>
        </extensions>
      </trkpt>
      <trkpt lat="31.70181063003838062286376953125" lon="35.01320268027484416961669921875">
        <ele>381.399993896484375</ele>
        <time>2017-08-04T05:23:59.000Z</time>
        <extensions>
          <ns3:TrackPointExtension>
            <ns3:atemp>26.0</ns3:atemp>
          </ns3:TrackPointExtension>
        </extensions>
      </trkpt>
      <trkpt lat="31.70173980295658111572265625" lon="35.01321290619671344757080078125">
        <ele>381.20001220703125</ele>
        <time>2017-08-04T05:24:03.000Z</time>
        <extensions>
          <ns3:TrackPointExtension>
            <ns3:atemp>26.0</ns3:atemp>
          </ns3:TrackPointExtension>
        </extensions>
      </trkpt>
      <trkpt lat="31.7017242126166820526123046875" lon="35.013212151825428009033203125">
        <ele>381.20001220703125</ele>
        <time>2017-08-04T05:24:04.000Z</time>
        <extensions>
          <ns3:TrackPointExtension>
            <ns3:atemp>26.0</ns3:atemp>
          </ns3:TrackPointExtension>
        </extensions>
      </trkpt>
      <trkpt lat="31.70171591453254222869873046875" lon="35.0131796300411224365234375">
        <ele>381</ele>
        <time>2017-08-04T05:24:07.000Z</time>
        <extensions>
          <ns3:TrackPointExtension>
            <ns3:atemp>26.0</ns3:atemp>
          </ns3:TrackPointExtension>
        </extensions>
      </trkpt>
      <trkpt lat="31.7017404735088348388671875" lon="35.01317636109888553619384765625">
        <ele>381.20001220703125</ele>
        <time>2017-08-04T05:24:09.000Z</time>
        <extensions>
          <ns3:TrackPointExtension>
            <ns3:atemp>26.0</ns3:atemp>
          </ns3:TrackPointExtension>
        </extensions>
      </trkpt>
      <trkpt lat="31.701793111860752105712890625" lon="35.0131689012050628662109375">
        <ele>381.20001220703125</ele>
        <time>2017-08-04T05:24:13.000Z</time>
        <extensions>
          <ns3:TrackPointExtension>
            <ns3:atemp>26.0</ns3:atemp>
          </ns3:TrackPointExtension>
        </extensions>
      </trkpt>
      <trkpt lat="31.70181632973253726959228515625" lon="35.01317837275564670562744140625">
        <ele>381.20001220703125</ele>
        <time>2017-08-04T05:24:15.000Z</time>
        <extensions>
          <ns3:TrackPointExtension>
            <ns3:atemp>26.0</ns3:atemp>
          </ns3:TrackPointExtension>
        </extensions>
      </trkpt>
      <trkpt lat="31.7018566466867923736572265625" lon="35.0131714157760143280029296875">
        <ele>381.399993896484375</ele>
        <time>2017-08-04T05:24:18.000Z</time>
        <extensions>
          <ns3:TrackPointExtension>
            <ns3:atemp>26.0</ns3:atemp>
          </ns3:TrackPointExtension>
        </extensions>
      </trkpt>
      <trkpt lat="31.70186846517026424407958984375" lon="35.013175271451473236083984375">
        <ele>381.399993896484375</ele>
        <time>2017-08-04T05:24:19.000Z</time>
        <extensions>
          <ns3:TrackPointExtension>
            <ns3:atemp>26.0</ns3:atemp>
          </ns3:TrackPointExtension>
        </extensions>
      </trkpt>
      <trkpt lat="31.70196108520030975341796875" lon="35.0131717510521411895751953125">
        <ele>382</ele>
        <time>2017-08-04T05:24:26.000Z</time>
        <extensions>
          <ns3:TrackPointExtension>
            <ns3:atemp>26.0</ns3:atemp>
          </ns3:TrackPointExtension>
        </extensions>
      </trkpt>
      <trkpt lat="31.70197986066341400146484375" lon="35.01318038441240787506103515625">
        <ele>382</ele>
        <time>2017-08-04T05:24:27.000Z</time>
        <extensions>
          <ns3:TrackPointExtension>
            <ns3:atemp>26.0</ns3:atemp>
          </ns3:TrackPointExtension>
        </extensions>
      </trkpt>
      <trkpt lat="31.7020853050053119659423828125" lon="35.01321122981607913970947265625">
        <ele>382.600006103515625</ele>
        <time>2017-08-04T05:24:33.000Z</time>
        <extensions>
          <ns3:TrackPointExtension>
            <ns3:atemp>26.0</ns3:atemp>
          </ns3:TrackPointExtension>
        </extensions>
      </trkpt>
      <trkpt lat="31.70211992226541042327880859375" lon="35.0132200308144092559814453125">
        <ele>383.20001220703125</ele>
        <time>2017-08-04T05:24:35.000Z</time>
        <extensions>
          <ns3:TrackPointExtension>
            <ns3:atemp>26.0</ns3:atemp>
          </ns3:TrackPointExtension>
        </extensions>
      </trkpt>
      <trkpt lat="31.70221011154353618621826171875" lon="35.01327107660472393035888671875">
        <ele>383.600006103515625</ele>
        <time>2017-08-04T05:24:40.000Z</time>
        <extensions>
          <ns3:TrackPointExtension>
            <ns3:atemp>26.0</ns3:atemp>
          </ns3:TrackPointExtension>
        </extensions>
      </trkpt>
      <trkpt lat="31.70225881040096282958984375" lon="35.013295300304889678955078125">
        <ele>384.20001220703125</ele>
        <time>2017-08-04T05:24:43.000Z</time>
        <extensions>
          <ns3:TrackPointExtension>
            <ns3:atemp>26.0</ns3:atemp>
          </ns3:TrackPointExtension>
        </extensions>
      </trkpt>
      <trkpt lat="31.70233030803501605987548828125" lon="35.013349950313568115234375">
        <ele>384.600006103515625</ele>
        <time>2017-08-04T05:24:47.000Z</time>
        <extensions>
          <ns3:TrackPointExtension>
            <ns3:atemp>26.0</ns3:atemp>
          </ns3:TrackPointExtension>
        </extensions>
      </trkpt>
      <trkpt lat="31.7024276219308376312255859375" lon="35.01340418122708797454833984375">
        <ele>385.399993896484375</ele>
        <time>2017-08-04T05:24:52.000Z</time>
        <extensions>
          <ns3:TrackPointExtension>
            <ns3:atemp>26.0</ns3:atemp>
          </ns3:TrackPointExtension>
        </extensions>
      </trkpt>
      <trkpt lat="31.702544130384922027587890625" lon="35.01346821896731853485107421875">
        <ele>386</ele>
        <time>2017-08-04T05:24:58.000Z</time>
        <extensions>
          <ns3:TrackPointExtension>
            <ns3:atemp>26.0</ns3:atemp>
          </ns3:TrackPointExtension>
        </extensions>
      </trkpt>
      <trkpt lat="31.70262836851179599761962890625" lon="35.0135202705860137939453125">
        <ele>386.399993896484375</ele>
        <time>2017-08-04T05:25:03.000Z</time>
        <extensions>
          <ns3:TrackPointExtension>
            <ns3:atemp>26.0</ns3:atemp>
          </ns3:TrackPointExtension>
        </extensions>
      </trkpt>
      <trkpt lat="31.70266248285770416259765625" lon="35.0135375373065471649169921875">
        <ele>386.600006103515625</ele>
        <time>2017-08-04T05:25:05.000Z</time>
        <extensions>
          <ns3:TrackPointExtension>
            <ns3:atemp>26.0</ns3:atemp>
          </ns3:TrackPointExtension>
        </extensions>
      </trkpt>
      <trkpt lat="31.70279164798557758331298828125" lon="35.01360853202641010284423828125">
        <ele>387.399993896484375</ele>
        <time>2017-08-04T05:25:12.000Z</time>
        <extensions>
          <ns3:TrackPointExtension>
            <ns3:atemp>26.0</ns3:atemp>
          </ns3:TrackPointExtension>
        </extensions>
      </trkpt>
      <trkpt lat="31.70293045230209827423095703125" lon="35.01368497498333454132080078125">
        <ele>388.20001220703125</ele>
        <time>2017-08-04T05:25:20.000Z</time>
        <extensions>
          <ns3:TrackPointExtension>
            <ns3:atemp>26.0</ns3:atemp>
          </ns3:TrackPointExtension>
        </extensions>
      </trkpt>
      <trkpt lat="31.70295995660126209259033203125" lon="35.01370073296129703521728515625">
        <ele>388.600006103515625</ele>
        <time>2017-08-04T05:25:22.000Z</time>
        <extensions>
          <ns3:TrackPointExtension>
            <ns3:atemp>26.0</ns3:atemp>
          </ns3:TrackPointExtension>
        </extensions>
      </trkpt>
      <trkpt lat="31.703029610216617584228515625" lon="35.01373979263007640838623046875">
        <ele>389</ele>
        <time>2017-08-04T05:25:26.000Z</time>
        <extensions>
          <ns3:TrackPointExtension>
            <ns3:atemp>26.0</ns3:atemp>
          </ns3:TrackPointExtension>
        </extensions>
      </trkpt>
      <trkpt lat="31.70312918722629547119140625" lon="35.01379125751554965972900390625">
        <ele>389.79998779296875</ele>
        <time>2017-08-04T05:25:31.000Z</time>
        <extensions>
          <ns3:TrackPointExtension>
            <ns3:atemp>26.0</ns3:atemp>
          </ns3:TrackPointExtension>
        </extensions>
      </trkpt>
      <trkpt lat="31.70314419083297252655029296875" lon="35.013804249465465545654296875">
        <ele>389.79998779296875</ele>
        <time>2017-08-04T05:25:32.000Z</time>
        <extensions>
          <ns3:TrackPointExtension>
            <ns3:atemp>26.0</ns3:atemp>
          </ns3:TrackPointExtension>
        </extensions>
      </trkpt>
      <trkpt lat="31.70325659215450286865234375" lon="35.0138662755489349365234375">
        <ele>390.600006103515625</ele>
        <time>2017-08-04T05:25:38.000Z</time>
        <extensions>
          <ns3:TrackPointExtension>
            <ns3:atemp>26.0</ns3:atemp>
          </ns3:TrackPointExtension>
        </extensions>
      </trkpt>
      <trkpt lat="31.70329657383263111114501953125" lon="35.01388748176395893096923828125">
        <ele>390.79998779296875</ele>
        <time>2017-08-04T05:25:40.000Z</time>
        <extensions>
          <ns3:TrackPointExtension>
            <ns3:atemp>26.0</ns3:atemp>
          </ns3:TrackPointExtension>
        </extensions>
      </trkpt>
      <trkpt lat="31.703346781432628631591796875" lon="35.01392184756696224212646484375">
        <ele>390.79998779296875</ele>
        <time>2017-08-04T05:25:43.000Z</time>
        <extensions>
          <ns3:TrackPointExtension>
            <ns3:atemp>26.0</ns3:atemp>
          </ns3:TrackPointExtension>
        </extensions>
      </trkpt>
      <trkpt lat="31.70342699624598026275634765625" lon="35.0139630027115345001220703125">
        <ele>391.79998779296875</ele>
        <time>2017-08-04T05:25:48.000Z</time>
        <extensions>
          <ns3:TrackPointExtension>
            <ns3:atemp>26.0</ns3:atemp>
          </ns3:TrackPointExtension>
        </extensions>
      </trkpt>
      <trkpt lat="31.70344275422394275665283203125" lon="35.01396945677697658538818359375">
        <ele>392</ele>
        <time>2017-08-04T05:25:49.000Z</time>
        <extensions>
          <ns3:TrackPointExtension>
            <ns3:atemp>26.0</ns3:atemp>
          </ns3:TrackPointExtension>
        </extensions>
      </trkpt>
      <trkpt lat="31.7035437561571598052978515625" lon="35.0140267051756381988525390625">
        <ele>392.600006103515625</ele>
        <time>2017-08-04T05:25:55.000Z</time>
        <extensions>
          <ns3:TrackPointExtension>
            <ns3:atemp>26.0</ns3:atemp>
          </ns3:TrackPointExtension>
        </extensions>
      </trkpt>
      <trkpt lat="31.7035813070833683013916015625" lon="35.0140471570193767547607421875">
        <ele>392.79998779296875</ele>
        <time>2017-08-04T05:25:57.000Z</time>
        <extensions>
          <ns3:TrackPointExtension>
            <ns3:atemp>26.0</ns3:atemp>
          </ns3:TrackPointExtension>
        </extensions>
      </trkpt>
      <trkpt lat="31.7036644555628299713134765625" lon="35.01409099437296390533447265625">
        <ele>393</ele>
        <time>2017-08-04T05:26:02.000Z</time>
        <extensions>
          <ns3:TrackPointExtension>
            <ns3:atemp>26.0</ns3:atemp>
          </ns3:TrackPointExtension>
        </extensions>
      </trkpt>
      <trkpt lat="31.70375389046967029571533203125" lon="35.01413022167980670928955078125">
        <ele>394</ele>
        <time>2017-08-04T05:26:08.000Z</time>
        <extensions>
          <ns3:TrackPointExtension>
            <ns3:atemp>26.0</ns3:atemp>
          </ns3:TrackPointExtension>
        </extensions>
      </trkpt>
      <trkpt lat="31.70384575612843036651611328125" lon="35.014178752899169921875">
        <ele>394.399993896484375</ele>
        <time>2017-08-04T05:26:13.000Z</time>
        <extensions>
          <ns3:TrackPointExtension>
            <ns3:atemp>26.0</ns3:atemp>
          </ns3:TrackPointExtension>
        </extensions>
      </trkpt>
      <trkpt lat="31.7038924433290958404541015625" lon="35.01419174484908580780029296875">
        <ele>395</ele>
        <time>2017-08-04T05:26:16.000Z</time>
        <extensions>
          <ns3:TrackPointExtension>
            <ns3:atemp>26.0</ns3:atemp>
          </ns3:TrackPointExtension>
        </extensions>
      </trkpt>
      <trkpt lat="31.703969724476337432861328125" lon="35.01423365436494350433349609375">
        <ele>395.399993896484375</ele>
        <time>2017-08-04T05:26:21.000Z</time>
        <extensions>
          <ns3:TrackPointExtension>
            <ns3:atemp>26.0</ns3:atemp>
          </ns3:TrackPointExtension>
        </extensions>
      </trkpt>
      <trkpt lat="31.7040342651307582855224609375" lon="35.0142686069011688232421875">
        <ele>396</ele>
        <time>2017-08-04T05:26:25.000Z</time>
        <extensions>
          <ns3:TrackPointExtension>
            <ns3:atemp>26.0</ns3:atemp>
          </ns3:TrackPointExtension>
        </extensions>
      </trkpt>
      <trkpt lat="31.704068295657634735107421875" lon="35.014281682670116424560546875">
        <ele>396.20001220703125</ele>
        <time>2017-08-04T05:26:27.000Z</time>
        <extensions>
          <ns3:TrackPointExtension>
            <ns3:atemp>26.0</ns3:atemp>
          </ns3:TrackPointExtension>
        </extensions>
      </trkpt>
      <trkpt lat="31.704087071120738983154296875" lon="35.014285035431385040283203125">
        <ele>396.20001220703125</ele>
        <time>2017-08-04T05:26:28.000Z</time>
        <extensions>
          <ns3:TrackPointExtension>
            <ns3:atemp>26.0</ns3:atemp>
          </ns3:TrackPointExtension>
        </extensions>
      </trkpt>
      <trkpt lat="31.70418656431138515472412109375" lon="35.0143016315996646881103515625">
        <ele>397.20001220703125</ele>
        <time>2017-08-04T05:26:34.000Z</time>
        <extensions>
          <ns3:TrackPointExtension>
            <ns3:atemp>25.0</ns3:atemp>
          </ns3:TrackPointExtension>
        </extensions>
      </trkpt>
      <trkpt lat="31.704202406108379364013671875" lon="35.01430087722837924957275390625">
        <ele>397.20001220703125</ele>
        <time>2017-08-04T05:26:35.000Z</time>
        <extensions>
          <ns3:TrackPointExtension>
            <ns3:atemp>25.0</ns3:atemp>
          </ns3:TrackPointExtension>
        </extensions>
      </trkpt>
      <trkpt lat="31.70430290512740612030029296875" lon="35.01430221833288669586181640625">
        <ele>397.79998779296875</ele>
        <time>2017-08-04T05:26:41.000Z</time>
        <extensions>
          <ns3:TrackPointExtension>
            <ns3:atemp>25.0</ns3:atemp>
          </ns3:TrackPointExtension>
        </extensions>
      </trkpt>
      <trkpt lat="31.7043413780629634857177734375" lon="35.01429635100066661834716796875">
        <ele>398.20001220703125</ele>
        <time>2017-08-04T05:26:44.000Z</time>
        <extensions>
          <ns3:TrackPointExtension>
            <ns3:atemp>25.0</ns3:atemp>
          </ns3:TrackPointExtension>
        </extensions>
      </trkpt>
      <trkpt lat="31.70438135974109172821044921875" lon="35.014283359050750732421875">
        <ele>398.600006103515625</ele>
        <time>2017-08-04T05:26:47.000Z</time>
        <extensions>
          <ns3:TrackPointExtension>
            <ns3:atemp>25.0</ns3:atemp>
          </ns3:TrackPointExtension>
        </extensions>
      </trkpt>
      <trkpt lat="31.70439259149134159088134765625" lon="35.014280341565608978271484375">
        <ele>398.79998779296875</ele>
        <time>2017-08-04T05:26:48.000Z</time>
        <extensions>
          <ns3:TrackPointExtension>
            <ns3:atemp>25.0</ns3:atemp>
          </ns3:TrackPointExtension>
        </extensions>
      </trkpt>
      <trkpt lat="31.70442896895110607147216796875" lon="35.0142684392631053924560546875">
        <ele>399.20001220703125</ele>
        <time>2017-08-04T05:26:50.000Z</time>
        <extensions>
          <ns3:TrackPointExtension>
            <ns3:atemp>25.0</ns3:atemp>
          </ns3:TrackPointExtension>
        </extensions>
      </trkpt>
      <trkpt lat="31.7044543661177158355712890625" lon="35.014257542788982391357421875">
        <ele>399</ele>
        <time>2017-08-04T05:26:51.000Z</time>
        <extensions>
          <ns3:TrackPointExtension>
            <ns3:atemp>25.0</ns3:atemp>
          </ns3:TrackPointExtension>
        </extensions>
      </trkpt>
      <trkpt lat="31.70452100224792957305908203125" lon="35.014231391251087188720703125">
        <ele>399.399993896484375</ele>
        <time>2017-08-04T05:26:55.000Z</time>
        <extensions>
          <ns3:TrackPointExtension>
            <ns3:atemp>25.0</ns3:atemp>
          </ns3:TrackPointExtension>
        </extensions>
      </trkpt>
      <trkpt lat="31.70457514934241771697998046875" lon="35.01419979147613048553466796875">
        <ele>400.20001220703125</ele>
        <time>2017-08-04T05:26:58.000Z</time>
        <extensions>
          <ns3:TrackPointExtension>
            <ns3:atemp>25.0</ns3:atemp>
          </ns3:TrackPointExtension>
        </extensions>
      </trkpt>
      <trkpt lat="31.704604066908359527587890625" lon="35.0141909904778003692626953125">
        <ele>400.399993896484375</ele>
        <time>2017-08-04T05:27:00.000Z</time>
        <extensions>
          <ns3:TrackPointExtension>
            <ns3:atemp>25.0</ns3:atemp>
          </ns3:TrackPointExtension>
        </extensions>
      </trkpt>
      <trkpt lat="31.70461806468665599822998046875" lon="35.01418688334524631500244140625">
        <ele>400.600006103515625</ele>
        <time>2017-08-04T05:27:01.000Z</time>
        <extensions>
          <ns3:TrackPointExtension>
            <ns3:atemp>25.0</ns3:atemp>
          </ns3:TrackPointExtension>
        </extensions>
      </trkpt>
      <trkpt lat="31.7046719603240489959716796875" lon="35.01417347230017185211181640625">
        <ele>401</ele>
        <time>2017-08-04T05:27:05.000Z</time>
        <extensions>
          <ns3:TrackPointExtension>
            <ns3:atemp>25.0</ns3:atemp>
          </ns3:TrackPointExtension>
        </extensions>
      </trkpt>
      <trkpt lat="31.7047014646232128143310546875" lon="35.01417011953890323638916015625">
        <ele>401.20001220703125</ele>
        <time>2017-08-04T05:27:07.000Z</time>
        <extensions>
          <ns3:TrackPointExtension>
            <ns3:atemp>25.0</ns3:atemp>
          </ns3:TrackPointExtension>
        </extensions>
      </trkpt>
      <trkpt lat="31.70471847988665103912353515625" lon="35.01416601240634918212890625">
        <ele>401.20001220703125</ele>
        <time>2017-08-04T05:27:08.000Z</time>
        <extensions>
          <ns3:TrackPointExtension>
            <ns3:atemp>25.0</ns3:atemp>
          </ns3:TrackPointExtension>
        </extensions>
      </trkpt>
      <trkpt lat="31.70483046211302280426025390625" lon="35.014128796756267547607421875">
        <ele>402</ele>
        <time>2017-08-04T05:27:15.000Z</time>
        <extensions>
          <ns3:TrackPointExtension>
            <ns3:atemp>25.0</ns3:atemp>
          </ns3:TrackPointExtension>
        </extensions>
      </trkpt>
      <trkpt lat="31.70485745184123516082763671875" lon="35.014114044606685638427734375">
        <ele>402.399993896484375</ele>
        <time>2017-08-04T05:27:17.000Z</time>
        <extensions>
          <ns3:TrackPointExtension>
            <ns3:atemp>25.0</ns3:atemp>
          </ns3:TrackPointExtension>
        </extensions>
      </trkpt>
      <trkpt lat="31.7049281112849712371826171875" lon="35.0140974484384059906005859375">
        <ele>402.79998779296875</ele>
        <time>2017-08-04T05:27:21.000Z</time>
        <extensions>
          <ns3:TrackPointExtension>
            <ns3:atemp>25.0</ns3:atemp>
          </ns3:TrackPointExtension>
        </extensions>
      </trkpt>
      <trkpt lat="31.70499625615775585174560546875" lon="35.014066435396671295166015625">
        <ele>403.399993896484375</ele>
        <time>2017-08-04T05:27:26.000Z</time>
        <extensions>
          <ns3:TrackPointExtension>
            <ns3:atemp>25.0</ns3:atemp>
          </ns3:TrackPointExtension>
        </extensions>
      </trkpt>
      <trkpt lat="31.70502240769565105438232421875" lon="35.01405780203640460968017578125">
        <ele>403.600006103515625</ele>
        <time>2017-08-04T05:27:28.000Z</time>
        <extensions>
          <ns3:TrackPointExtension>
            <ns3:atemp>25.0</ns3:atemp>
          </ns3:TrackPointExtension>
        </extensions>
      </trkpt>
      <trkpt lat="31.70508275739848613739013671875" lon="35.014032907783985137939453125">
        <ele>404.399993896484375</ele>
        <time>2017-08-04T05:27:32.000Z</time>
        <extensions>
          <ns3:TrackPointExtension>
            <ns3:atemp>25.0</ns3:atemp>
          </ns3:TrackPointExtension>
        </extensions>
      </trkpt>
      <trkpt lat="31.7050970904529094696044921875" lon="35.01402729190886020660400390625">
        <ele>404.399993896484375</ele>
        <time>2017-08-04T05:27:33.000Z</time>
        <extensions>
          <ns3:TrackPointExtension>
            <ns3:atemp>25.0</ns3:atemp>
          </ns3:TrackPointExtension>
        </extensions>
      </trkpt>
      <trkpt lat="31.7051388323307037353515625" lon="35.0140193291008472442626953125">
        <ele>404.600006103515625</ele>
        <time>2017-08-04T05:27:35.000Z</time>
        <extensions>
          <ns3:TrackPointExtension>
            <ns3:atemp>25.0</ns3:atemp>
          </ns3:TrackPointExtension>
        </extensions>
      </trkpt>
      <trkpt lat="31.705209575593471527099609375" lon="35.01398873515427112579345703125">
        <ele>405</ele>
        <time>2017-08-04T05:27:40.000Z</time>
        <extensions>
          <ns3:TrackPointExtension>
            <ns3:atemp>25.0</ns3:atemp>
          </ns3:TrackPointExtension>
        </extensions>
      </trkpt>
      <trkpt lat="31.70522625558078289031982421875" lon="35.0139817781746387481689453125">
        <ele>405</ele>
        <time>2017-08-04T05:27:41.000Z</time>
        <extensions>
          <ns3:TrackPointExtension>
            <ns3:atemp>25.0</ns3:atemp>
          </ns3:TrackPointExtension>
        </extensions>
      </trkpt>
      <trkpt lat="31.705270595848560333251953125" lon="35.01396593637764453887939453125">
        <ele>405.600006103515625</ele>
        <time>2017-08-04T05:27:45.000Z</time>
        <extensions>
          <ns3:TrackPointExtension>
            <ns3:atemp>25.0</ns3:atemp>
          </ns3:TrackPointExtension>
        </extensions>
      </trkpt>
      <trkpt lat="31.70529398135840892791748046875" lon="35.01395545899868011474609375">
        <ele>406.20001220703125</ele>
        <time>2017-08-04T05:27:47.000Z</time>
        <extensions>
          <ns3:TrackPointExtension>
            <ns3:atemp>25.0</ns3:atemp>
          </ns3:TrackPointExtension>
        </extensions>
      </trkpt>
      <trkpt lat="31.7053150199353694915771484375" lon="35.01394112594425678253173828125">
        <ele>406.600006103515625</ele>
        <time>2017-08-04T05:27:49.000Z</time>
        <extensions>
          <ns3:TrackPointExtension>
            <ns3:atemp>25.0</ns3:atemp>
          </ns3:TrackPointExtension>
        </extensions>
      </trkpt>
      <trkpt lat="31.7053519003093242645263671875" lon="35.0139277987182140350341796875">
        <ele>406.79998779296875</ele>
        <time>2017-08-04T05:27:51.000Z</time>
        <extensions>
          <ns3:TrackPointExtension>
            <ns3:atemp>25.0</ns3:atemp>
          </ns3:TrackPointExtension>
        </extensions>
      </trkpt>
      <trkpt lat="31.70541199855506420135498046875" lon="35.01390055753290653228759765625">
        <ele>407.399993896484375</ele>
        <time>2017-08-04T05:27:54.000Z</time>
        <extensions>
          <ns3:TrackPointExtension>
            <ns3:atemp>25.0</ns3:atemp>
          </ns3:TrackPointExtension>
        </extensions>
      </trkpt>
      <trkpt lat="31.7054514773190021514892578125" lon="35.01389167271554470062255859375">
        <ele>407.600006103515625</ele>
        <time>2017-08-04T05:27:56.000Z</time>
        <extensions>
          <ns3:TrackPointExtension>
            <ns3:atemp>25.0</ns3:atemp>
          </ns3:TrackPointExtension>
        </extensions>
      </trkpt>
      <trkpt lat="31.70553722418844699859619140625" lon="35.01387155614793300628662109375">
        <ele>408.399993896484375</ele>
        <time>2017-08-04T05:28:01.000Z</time>
        <extensions>
          <ns3:TrackPointExtension>
            <ns3:atemp>25.0</ns3:atemp>
          </ns3:TrackPointExtension>
        </extensions>
      </trkpt>
      <trkpt lat="31.70556739903986454010009765625" lon="35.0138620845973491668701171875">
        <ele>408.79998779296875</ele>
        <time>2017-08-04T05:28:03.000Z</time>
        <extensions>
          <ns3:TrackPointExtension>
            <ns3:atemp>25.0</ns3:atemp>
          </ns3:TrackPointExtension>
        </extensions>
      </trkpt>
      <trkpt lat="31.7056499607861042022705078125" lon="35.01383878290653228759765625">
        <ele>409.399993896484375</ele>
        <time>2017-08-04T05:28:08.000Z</time>
        <extensions>
          <ns3:TrackPointExtension>
            <ns3:atemp>25.0</ns3:atemp>
          </ns3:TrackPointExtension>
        </extensions>
      </trkpt>
      <trkpt lat="31.7056791298091411590576171875" lon="35.01383082009851932525634765625">
        <ele>410</ele>
        <time>2017-08-04T05:28:10.000Z</time>
        <extensions>
          <ns3:TrackPointExtension>
            <ns3:atemp>25.0</ns3:atemp>
          </ns3:TrackPointExtension>
        </extensions>
      </trkpt>
      <trkpt lat="31.7057455144822597503662109375" lon="35.01381606794893741607666015625">
        <ele>410.399993896484375</ele>
        <time>2017-08-04T05:28:14.000Z</time>
        <extensions>
          <ns3:TrackPointExtension>
            <ns3:atemp>25.0</ns3:atemp>
          </ns3:TrackPointExtension>
        </extensions>
      </trkpt>
      <trkpt lat="31.70581013895571231842041015625" lon="35.01380181871354579925537109375">
        <ele>411</ele>
        <time>2017-08-04T05:28:18.000Z</time>
        <extensions>
          <ns3:TrackPointExtension>
            <ns3:atemp>25.0</ns3:atemp>
          </ns3:TrackPointExtension>
        </extensions>
      </trkpt>
      <trkpt lat="31.70582606457173824310302734375" lon="35.01379586756229400634765625">
        <ele>411.20001220703125</ele>
        <time>2017-08-04T05:28:19.000Z</time>
        <extensions>
          <ns3:TrackPointExtension>
            <ns3:atemp>25.0</ns3:atemp>
          </ns3:TrackPointExtension>
        </extensions>
      </trkpt>
      <trkpt lat="31.7059081234037876129150390625" lon="35.01376175321638584136962890625">
        <ele>412.20001220703125</ele>
        <time>2017-08-04T05:28:24.000Z</time>
        <extensions>
          <ns3:TrackPointExtension>
            <ns3:atemp>25.0</ns3:atemp>
          </ns3:TrackPointExtension>
        </extensions>
      </trkpt>
      <trkpt lat="31.70593972317874431610107421875" lon="35.01374750398099422454833984375">
        <ele>412.399993896484375</ele>
        <time>2017-08-04T05:28:26.000Z</time>
        <extensions>
          <ns3:TrackPointExtension>
            <ns3:atemp>25.0</ns3:atemp>
          </ns3:TrackPointExtension>
        </extensions>
      </trkpt>
      <trkpt lat="31.7060291580855846405029296875" lon="35.0136972963809967041015625">
        <ele>413.20001220703125</ele>
        <time>2017-08-04T05:28:32.000Z</time>
        <extensions>
          <ns3:TrackPointExtension>
            <ns3:atemp>25.0</ns3:atemp>
          </ns3:TrackPointExtension>
        </extensions>
      </trkpt>
      <trkpt lat="31.70604416169226169586181640625" lon="35.0136880762875080108642578125">
        <ele>413.600006103515625</ele>
        <time>2017-08-04T05:28:33.000Z</time>
        <extensions>
          <ns3:TrackPointExtension>
            <ns3:atemp>25.0</ns3:atemp>
          </ns3:TrackPointExtension>
        </extensions>
      </trkpt>
      <trkpt lat="31.70611809007823467254638671875" lon="35.01365262083709239959716796875">
        <ele>414.399993896484375</ele>
        <time>2017-08-04T05:28:38.000Z</time>
        <extensions>
          <ns3:TrackPointExtension>
            <ns3:atemp>25.0</ns3:atemp>
          </ns3:TrackPointExtension>
        </extensions>
      </trkpt>
      <trkpt lat="31.706132926046848297119140625" lon="35.01364507712423801422119140625">
        <ele>414.600006103515625</ele>
        <time>2017-08-04T05:28:39.000Z</time>
        <extensions>
          <ns3:TrackPointExtension>
            <ns3:atemp>25.0</ns3:atemp>
          </ns3:TrackPointExtension>
        </extensions>
      </trkpt>
      <trkpt lat="31.70622269622981548309326171875" lon="35.0136055983603000640869140625">
        <ele>414.79998779296875</ele>
        <time>2017-08-04T05:28:44.000Z</time>
        <extensions>
          <ns3:TrackPointExtension>
            <ns3:atemp>25.0</ns3:atemp>
          </ns3:TrackPointExtension>
        </extensions>
      </trkpt>
      <trkpt lat="31.70626879669725894927978515625" lon="35.0135978870093822479248046875">
        <ele>415.600006103515625</ele>
        <time>2017-08-04T05:28:47.000Z</time>
        <extensions>
          <ns3:TrackPointExtension>
            <ns3:atemp>25.0</ns3:atemp>
          </ns3:TrackPointExtension>
        </extensions>
      </trkpt>
      <trkpt lat="31.70629419386386871337890625" lon="35.01359377987682819366455078125">
        <ele>415.79998779296875</ele>
        <time>2017-08-04T05:28:49.000Z</time>
        <extensions>
          <ns3:TrackPointExtension>
            <ns3:atemp>25.0</ns3:atemp>
          </ns3:TrackPointExtension>
        </extensions>
      </trkpt>
      <trkpt lat="31.70630626380443572998046875" lon="35.01358925364911556243896484375">
        <ele>416</ele>
        <time>2017-08-04T05:28:50.000Z</time>
        <extensions>
          <ns3:TrackPointExtension>
            <ns3:atemp>25.0</ns3:atemp>
          </ns3:TrackPointExtension>
        </extensions>
      </trkpt>
      <trkpt lat="31.706366278231143951416015625" lon="35.01359277404844760894775390625">
        <ele>416.600006103515625</ele>
        <time>2017-08-04T05:28:54.000Z</time>
        <extensions>
          <ns3:TrackPointExtension>
            <ns3:atemp>25.0</ns3:atemp>
          </ns3:TrackPointExtension>
        </extensions>
      </trkpt>
      <trkpt lat="31.706397794187068939208984375" lon="35.01359780319035053253173828125">
        <ele>416.79998779296875</ele>
        <time>2017-08-04T05:28:56.000Z</time>
        <extensions>
          <ns3:TrackPointExtension>
            <ns3:atemp>25.0</ns3:atemp>
          </ns3:TrackPointExtension>
        </extensions>
      </trkpt>
      <trkpt lat="31.7064477503299713134765625" lon="35.01360082067549228668212890625">
        <ele>417.20001220703125</ele>
        <time>2017-08-04T05:28:59.000Z</time>
        <extensions>
          <ns3:TrackPointExtension>
            <ns3:atemp>25.0</ns3:atemp>
          </ns3:TrackPointExtension>
        </extensions>
      </trkpt>
      <trkpt lat="31.70648035593330860137939453125" lon="35.01359914429485797882080078125">
        <ele>417.600006103515625</ele>
        <time>2017-08-04T05:29:01.000Z</time>
        <extensions>
          <ns3:TrackPointExtension>
            <ns3:atemp>25.0</ns3:atemp>
          </ns3:TrackPointExtension>
        </extensions>
      </trkpt>
      <trkpt lat="31.70649846084415912628173828125" lon="35.0136009044945240020751953125">
        <ele>417.79998779296875</ele>
        <time>2017-08-04T05:29:02.000Z</time>
        <extensions>
          <ns3:TrackPointExtension>
            <ns3:atemp>25.0</ns3:atemp>
          </ns3:TrackPointExtension>
        </extensions>
      </trkpt>
      <trkpt lat="31.70651455409824848175048828125" lon="35.01360249705612659454345703125">
        <ele>417.79998779296875</ele>
        <time>2017-08-04T05:29:03.000Z</time>
        <extensions>
          <ns3:TrackPointExtension>
            <ns3:atemp>25.0</ns3:atemp>
          </ns3:TrackPointExtension>
        </extensions>
      </trkpt>
      <trkpt lat="31.706620752811431884765625" lon="35.01362395472824573516845703125">
        <ele>418.600006103515625</ele>
        <time>2017-08-04T05:29:09.000Z</time>
        <extensions>
          <ns3:TrackPointExtension>
            <ns3:atemp>25.0</ns3:atemp>
          </ns3:TrackPointExtension>
        </extensions>
      </trkpt>
      <trkpt lat="31.70666165649890899658203125" lon="35.01362194307148456573486328125">
        <ele>419</ele>
        <time>2017-08-04T05:29:12.000Z</time>
        <extensions>
          <ns3:TrackPointExtension>
            <ns3:atemp>25.0</ns3:atemp>
          </ns3:TrackPointExtension>
        </extensions>
      </trkpt>
      <trkpt lat="31.70668219216167926788330078125" lon="35.01361875794827938079833984375">
        <ele>419.399993896484375</ele>
        <time>2017-08-04T05:29:14.000Z</time>
        <extensions>
          <ns3:TrackPointExtension>
            <ns3:atemp>25.0</ns3:atemp>
          </ns3:TrackPointExtension>
        </extensions>
      </trkpt>
      <trkpt lat="31.706696860492229461669921875" lon="35.01362361945211887359619140625">
        <ele>419.600006103515625</ele>
        <time>2017-08-04T05:29:15.000Z</time>
        <extensions>
          <ns3:TrackPointExtension>
            <ns3:atemp>25.0</ns3:atemp>
          </ns3:TrackPointExtension>
        </extensions>
      </trkpt>
      <trkpt lat="31.7067117802798748016357421875" lon="35.01363200135529041290283203125">
        <ele>419.600006103515625</ele>
        <time>2017-08-04T05:29:16.000Z</time>
        <extensions>
          <ns3:TrackPointExtension>
            <ns3:atemp>25.0</ns3:atemp>
          </ns3:TrackPointExtension>
        </extensions>
      </trkpt>
      <trkpt lat="31.70680305920541286468505859375" lon="35.01367256976664066314697265625">
        <ele>420.20001220703125</ele>
        <time>2017-08-04T05:29:22.000Z</time>
        <extensions>
          <ns3:TrackPointExtension>
            <ns3:atemp>25.0</ns3:atemp>
          </ns3:TrackPointExtension>
        </extensions>
      </trkpt>
      <trkpt lat="31.706881932914257049560546875" lon="35.01371447928249835968017578125">
        <ele>420.79998779296875</ele>
        <time>2017-08-04T05:29:27.000Z</time>
        <extensions>
          <ns3:TrackPointExtension>
            <ns3:atemp>25.0</ns3:atemp>
          </ns3:TrackPointExtension>
        </extensions>
      </trkpt>
      <trkpt lat="31.70691110193729400634765625" lon="35.01373157836496829986572265625">
        <ele>421</ele>
        <time>2017-08-04T05:29:29.000Z</time>
        <extensions>
          <ns3:TrackPointExtension>
            <ns3:atemp>25.0</ns3:atemp>
          </ns3:TrackPointExtension>
        </extensions>
      </trkpt>
      <trkpt lat="31.7069528438150882720947265625" lon="35.01375437714159488677978515625">
        <ele>421.20001220703125</ele>
        <time>2017-08-04T05:29:32.000Z</time>
        <extensions>
          <ns3:TrackPointExtension>
            <ns3:atemp>25.0</ns3:atemp>
          </ns3:TrackPointExtension>
        </extensions>
      </trkpt>
      <trkpt lat="31.70699466951191425323486328125" lon="35.0137782655656337738037109375">
        <ele>421.600006103515625</ele>
        <time>2017-08-04T05:29:35.000Z</time>
        <extensions>
          <ns3:TrackPointExtension>
            <ns3:atemp>25.0</ns3:atemp>
          </ns3:TrackPointExtension>
        </extensions>
      </trkpt>
      <trkpt lat="31.70701042748987674713134765625" lon="35.01378689892590045928955078125">
        <ele>421.79998779296875</ele>
        <time>2017-08-04T05:29:36.000Z</time>
        <extensions>
          <ns3:TrackPointExtension>
            <ns3:atemp>25.0</ns3:atemp>
          </ns3:TrackPointExtension>
        </extensions>
      </trkpt>
      <trkpt lat="31.7070700228214263916015625" lon="35.01382260583341121673583984375">
        <ele>421.600006103515625</ele>
        <time>2017-08-04T05:29:39.000Z</time>
        <extensions>
          <ns3:TrackPointExtension>
            <ns3:atemp>25.0</ns3:atemp>
          </ns3:TrackPointExtension>
        </extensions>
      </trkpt>
      <trkpt lat="31.7070887982845306396484375" lon="35.0138285569846630096435546875">
        <ele>421.600006103515625</ele>
        <time>2017-08-04T05:29:40.000Z</time>
        <extensions>
          <ns3:TrackPointExtension>
            <ns3:atemp>25.0</ns3:atemp>
          </ns3:TrackPointExtension>
        </extensions>
      </trkpt>
      <trkpt lat="31.70715694315731525421142578125" lon="35.013855211436748504638671875">
        <ele>422.20001220703125</ele>
        <time>2017-08-04T05:29:44.000Z</time>
        <extensions>
          <ns3:TrackPointExtension>
            <ns3:atemp>25.0</ns3:atemp>
          </ns3:TrackPointExtension>
        </extensions>
      </trkpt>
      <trkpt lat="31.70717488043010234832763671875" lon="35.01386451534926891326904296875">
        <ele>422.399993896484375</ele>
        <time>2017-08-04T05:29:45.000Z</time>
        <extensions>
          <ns3:TrackPointExtension>
            <ns3:atemp>25.0</ns3:atemp>
          </ns3:TrackPointExtension>
        </extensions>
      </trkpt>
      <trkpt lat="31.7072282731533050537109375" lon="35.013896115124225616455078125">
        <ele>422.600006103515625</ele>
        <time>2017-08-04T05:29:48.000Z</time>
        <extensions>
          <ns3:TrackPointExtension>
            <ns3:atemp>25.0</ns3:atemp>
          </ns3:TrackPointExtension>
        </extensions>
      </trkpt>
      <trkpt lat="31.7073079012334346771240234375" lon="35.01394263468682765960693359375">
        <ele>422.79998779296875</ele>
        <time>2017-08-04T05:29:52.000Z</time>
        <extensions>
          <ns3:TrackPointExtension>
            <ns3:atemp>25.0</ns3:atemp>
          </ns3:TrackPointExtension>
        </extensions>
      </trkpt>
      <trkpt lat="31.7073498107492923736572265625" lon="35.01396493054926395416259765625">
        <ele>422.79998779296875</ele>
        <time>2017-08-04T05:29:54.000Z</time>
        <extensions>
          <ns3:TrackPointExtension>
            <ns3:atemp>25.0</ns3:atemp>
          </ns3:TrackPointExtension>
        </extensions>
      </trkpt>
      <trkpt lat="31.70745768584311008453369140625" lon="35.01402578316628932952880859375">
        <ele>423</ele>
        <time>2017-08-04T05:30:00.000Z</time>
        <extensions>
          <ns3:TrackPointExtension>
            <ns3:atemp>25.0</ns3:atemp>
          </ns3:TrackPointExtension>
        </extensions>
      </trkpt>
      <trkpt lat="31.70759129337966442108154296875" lon="35.01410029828548431396484375">
        <ele>422.79998779296875</ele>
        <time>2017-08-04T05:30:06.000Z</time>
        <extensions>
          <ns3:TrackPointExtension>
            <ns3:atemp>25.0</ns3:atemp>
          </ns3:TrackPointExtension>
        </extensions>
      </trkpt>
      <trkpt lat="31.707765050232410430908203125" lon="35.01421554945409297943115234375">
        <ele>422.20001220703125</ele>
        <time>2017-08-04T05:30:12.000Z</time>
        <extensions>
          <ns3:TrackPointExtension>
            <ns3:atemp>25.0</ns3:atemp>
          </ns3:TrackPointExtension>
        </extensions>
      </trkpt>
      <trkpt lat="31.70781768858432769775390625" lon="35.01426433213055133819580078125">
        <ele>421.79998779296875</ele>
        <time>2017-08-04T05:30:14.000Z</time>
        <extensions>
          <ns3:TrackPointExtension>
            <ns3:atemp>25.0</ns3:atemp>
          </ns3:TrackPointExtension>
        </extensions>
      </trkpt>
      <trkpt lat="31.70791801996529102325439453125" lon="35.01435779035091400146484375">
        <ele>421.20001220703125</ele>
        <time>2017-08-04T05:30:17.000Z</time>
        <extensions>
          <ns3:TrackPointExtension>
            <ns3:atemp>25.0</ns3:atemp>
          </ns3:TrackPointExtension>
        </extensions>
      </trkpt>
      <trkpt lat="31.7079559899866580963134765625" lon="35.01439156942069530487060546875">
        <ele>420.79998779296875</ele>
        <time>2017-08-04T05:30:18.000Z</time>
        <extensions>
          <ns3:TrackPointExtension>
            <ns3:atemp>25.0</ns3:atemp>
          </ns3:TrackPointExtension>
        </extensions>
      </trkpt>
      <trkpt lat="31.70809839852154254913330078125" lon="35.01452182419598102569580078125">
        <ele>420.399993896484375</ele>
        <time>2017-08-04T05:30:22.000Z</time>
        <extensions>
          <ns3:TrackPointExtension>
            <ns3:atemp>25.0</ns3:atemp>
          </ns3:TrackPointExtension>
        </extensions>
      </trkpt>
      <trkpt lat="31.7081618495285511016845703125" lon="35.01461402513086795806884765625">
        <ele>419.79998779296875</ele>
        <time>2017-08-04T05:30:24.000Z</time>
        <extensions>
          <ns3:TrackPointExtension>
            <ns3:atemp>25.0</ns3:atemp>
          </ns3:TrackPointExtension>
        </extensions>
      </trkpt>
      <trkpt lat="31.708259247243404388427734375" lon="35.01477043144404888153076171875">
        <ele>418.79998779296875</ele>
        <time>2017-08-04T05:30:27.000Z</time>
        <extensions>
          <ns3:TrackPointExtension>
            <ns3:atemp>25.0</ns3:atemp>
          </ns3:TrackPointExtension>
        </extensions>
      </trkpt>
      <trkpt lat="31.70838690362870693206787109375" lon="35.0149820744991302490234375">
        <ele>417.600006103515625</ele>
        <time>2017-08-04T05:30:31.000Z</time>
        <extensions>
          <ns3:TrackPointExtension>
            <ns3:atemp>25.0</ns3:atemp>
          </ns3:TrackPointExtension>
        </extensions>
      </trkpt>
      <trkpt lat="31.70842059887945652008056640625" lon="35.01502943225204944610595703125">
        <ele>417</ele>
        <time>2017-08-04T05:30:32.000Z</time>
        <extensions>
          <ns3:TrackPointExtension>
            <ns3:atemp>25.0</ns3:atemp>
          </ns3:TrackPointExtension>
        </extensions>
      </trkpt>
      <trkpt lat="31.70848715119063854217529296875" lon="35.01511677168309688568115234375">
        <ele>416.79998779296875</ele>
        <time>2017-08-04T05:30:34.000Z</time>
        <extensions>
          <ns3:TrackPointExtension>
            <ns3:atemp>25.0</ns3:atemp>
          </ns3:TrackPointExtension>
        </extensions>
      </trkpt>
      <trkpt lat="31.70851917006075382232666015625" lon="35.015168823301792144775390625">
        <ele>416.399993896484375</ele>
        <time>2017-08-04T05:30:35.000Z</time>
        <extensions>
          <ns3:TrackPointExtension>
            <ns3:atemp>25.0</ns3:atemp>
          </ns3:TrackPointExtension>
        </extensions>
      </trkpt>
      <trkpt lat="31.7085769213736057281494140625" lon="35.0152856670320034027099609375">
        <ele>415.79998779296875</ele>
        <time>2017-08-04T05:30:37.000Z</time>
        <extensions>
          <ns3:TrackPointExtension>
            <ns3:atemp>25.0</ns3:atemp>
          </ns3:TrackPointExtension>
        </extensions>
      </trkpt>
      <trkpt lat="31.70862075872719287872314453125" lon="35.01541265286505222320556640625">
        <ele>415.20001220703125</ele>
        <time>2017-08-04T05:30:39.000Z</time>
        <extensions>
          <ns3:TrackPointExtension>
            <ns3:atemp>25.0</ns3:atemp>
          </ns3:TrackPointExtension>
        </extensions>
      </trkpt>
      <trkpt lat="31.708644814789295196533203125" lon="35.01561784185469150543212890625">
        <ele>414.399993896484375</ele>
        <time>2017-08-04T05:30:42.000Z</time>
        <extensions>
          <ns3:TrackPointExtension>
            <ns3:atemp>25.0</ns3:atemp>
          </ns3:TrackPointExtension>
        </extensions>
      </trkpt>
      <trkpt lat="31.708637438714504241943359375" lon="35.01568087376654148101806640625">
        <ele>414.20001220703125</ele>
        <time>2017-08-04T05:30:43.000Z</time>
        <extensions>
          <ns3:TrackPointExtension>
            <ns3:atemp>25.0</ns3:atemp>
          </ns3:TrackPointExtension>
        </extensions>
      </trkpt>
      <trkpt lat="31.70862444676458835601806640625" lon="35.0157463364303112030029296875">
        <ele>414</ele>
        <time>2017-08-04T05:30:44.000Z</time>
        <extensions>
          <ns3:TrackPointExtension>
            <ns3:atemp>25.0</ns3:atemp>
          </ns3:TrackPointExtension>
        </extensions>
      </trkpt>
      <trkpt lat="31.70859997160732746124267578125" lon="35.01586116850376129150390625">
        <ele>413.600006103515625</ele>
        <time>2017-08-04T05:30:46.000Z</time>
        <extensions>
          <ns3:TrackPointExtension>
            <ns3:atemp>25.0</ns3:atemp>
          </ns3:TrackPointExtension>
        </extensions>
      </trkpt>
      <trkpt lat="31.708522774279117584228515625" lon="35.0161637552082538604736328125">
        <ele>413.20001220703125</ele>
        <time>2017-08-04T05:30:51.000Z</time>
        <extensions>
          <ns3:TrackPointExtension>
            <ns3:atemp>25.0</ns3:atemp>
          </ns3:TrackPointExtension>
        </extensions>
      </trkpt>
      <trkpt lat="31.7085008136928081512451171875" lon="35.01622318290174007415771484375">
        <ele>412.79998779296875</ele>
        <time>2017-08-04T05:30:52.000Z</time>
        <extensions>
          <ns3:TrackPointExtension>
            <ns3:atemp>25.0</ns3:atemp>
          </ns3:TrackPointExtension>
        </extensions>
      </trkpt>
      <trkpt lat="31.70845203101634979248046875" lon="35.0164090096950531005859375">
        <ele>412.399993896484375</ele>
        <time>2017-08-04T05:30:55.000Z</time>
        <extensions>
          <ns3:TrackPointExtension>
            <ns3:atemp>25.0</ns3:atemp>
          </ns3:TrackPointExtension>
        </extensions>
      </trkpt>
      <trkpt lat="31.7084379494190216064453125" lon="35.016521327197551727294921875">
        <ele>411.399993896484375</ele>
        <time>2017-08-04T05:30:57.000Z</time>
        <extensions>
          <ns3:TrackPointExtension>
            <ns3:atemp>25.0</ns3:atemp>
          </ns3:TrackPointExtension>
        </extensions>
      </trkpt>
      <trkpt lat="31.70843568630516529083251953125" lon="35.01660925336182117462158203125">
        <ele>412.79998779296875</ele>
        <time>2017-08-04T05:30:59.000Z</time>
        <extensions>
          <ns3:TrackPointExtension>
            <ns3:atemp>25.0</ns3:atemp>
          </ns3:TrackPointExtension>
        </extensions>
      </trkpt>
      <trkpt lat="31.70845806598663330078125" lon="35.01673246733844280242919921875">
        <ele>413</ele>
        <time>2017-08-04T05:31:02.000Z</time>
        <extensions>
          <ns3:TrackPointExtension>
            <ns3:atemp>25.0</ns3:atemp>
          </ns3:TrackPointExtension>
        </extensions>
      </trkpt>
      <trkpt lat="31.70853794552385807037353515625" lon="35.01688174903392791748046875">
        <ele>412.20001220703125</ele>
        <time>2017-08-04T05:31:06.000Z</time>
        <extensions>
          <ns3:TrackPointExtension>
            <ns3:atemp>25.0</ns3:atemp>
          </ns3:TrackPointExtension>
        </extensions>
      </trkpt>
      <trkpt lat="31.70862101018428802490234375" lon="35.01698476262390613555908203125">
        <ele>412</ele>
        <time>2017-08-04T05:31:09.000Z</time>
        <extensions>
          <ns3:TrackPointExtension>
            <ns3:atemp>25.0</ns3:atemp>
          </ns3:TrackPointExtension>
        </extensions>
      </trkpt>
      <trkpt lat="31.708650849759578704833984375" lon="35.01701426692306995391845703125">
        <ele>411.600006103515625</ele>
        <time>2017-08-04T05:31:10.000Z</time>
        <extensions>
          <ns3:TrackPointExtension>
            <ns3:atemp>25.0</ns3:atemp>
          </ns3:TrackPointExtension>
        </extensions>
      </trkpt>
      <trkpt lat="31.708675324916839599609375" lon="35.0170441903173923492431640625">
        <ele>411.600006103515625</ele>
        <time>2017-08-04T05:31:11.000Z</time>
        <extensions>
          <ns3:TrackPointExtension>
            <ns3:atemp>25.0</ns3:atemp>
          </ns3:TrackPointExtension>
        </extensions>
      </trkpt>
      <trkpt lat="31.70877791941165924072265625" lon="35.017104707658290863037109375">
        <ele>411.20001220703125</ele>
        <time>2017-08-04T05:31:14.000Z</time>
        <extensions>
          <ns3:TrackPointExtension>
            <ns3:atemp>25.0</ns3:atemp>
          </ns3:TrackPointExtension>
        </extensions>
      </trkpt>
      <trkpt lat="31.70881505124270915985107421875" lon="35.01712122000753879547119140625">
        <ele>410.79998779296875</ele>
        <time>2017-08-04T05:31:15.000Z</time>
        <extensions>
          <ns3:TrackPointExtension>
            <ns3:atemp>25.0</ns3:atemp>
          </ns3:TrackPointExtension>
        </extensions>
      </trkpt>
      <trkpt lat="31.70885897241532802581787109375" lon="35.01713966019451618194580078125">
        <ele>410.600006103515625</ele>
        <time>2017-08-04T05:31:16.000Z</time>
        <extensions>
          <ns3:TrackPointExtension>
            <ns3:atemp>25.0</ns3:atemp>
          </ns3:TrackPointExtension>
        </extensions>
      </trkpt>
      <trkpt lat="31.70895452611148357391357421875" lon="35.01717008650302886962890625">
        <ele>409.79998779296875</ele>
        <time>2017-08-04T05:31:18.000Z</time>
        <extensions>
          <ns3:TrackPointExtension>
            <ns3:atemp>25.0</ns3:atemp>
          </ns3:TrackPointExtension>
        </extensions>
      </trkpt>
      <trkpt lat="31.70899844728410243988037109375" lon="35.0171761214733123779296875">
        <ele>409.399993896484375</ele>
        <time>2017-08-04T05:31:19.000Z</time>
        <extensions>
          <ns3:TrackPointExtension>
            <ns3:atemp>25.0</ns3:atemp>
          </ns3:TrackPointExtension>
        </extensions>
      </trkpt>
      <trkpt lat="31.7090459726750850677490234375" lon="35.01718140207231044769287109375">
        <ele>409.399993896484375</ele>
        <time>2017-08-04T05:31:20.000Z</time>
        <extensions>
          <ns3:TrackPointExtension>
            <ns3:atemp>25.0</ns3:atemp>
          </ns3:TrackPointExtension>
        </extensions>
      </trkpt>
      <trkpt lat="31.709210760891437530517578125" lon="35.01714334823191165924072265625">
        <ele>407.399993896484375</ele>
        <time>2017-08-04T05:31:23.000Z</time>
        <extensions>
          <ns3:TrackPointExtension>
            <ns3:atemp>25.0</ns3:atemp>
          </ns3:TrackPointExtension>
        </extensions>
      </trkpt>
      <trkpt lat="31.7093269340693950653076171875" lon="35.01706941984593868255615234375">
        <ele>407.20001220703125</ele>
        <time>2017-08-04T05:31:26.000Z</time>
        <extensions>
          <ns3:TrackPointExtension>
            <ns3:atemp>25.0</ns3:atemp>
          </ns3:TrackPointExtension>
        </extensions>
      </trkpt>
      <trkpt lat="31.70934948138892650604248046875" lon="35.01704804599285125732421875">
        <ele>407.20001220703125</ele>
        <time>2017-08-04T05:31:27.000Z</time>
        <extensions>
          <ns3:TrackPointExtension>
            <ns3:atemp>25.0</ns3:atemp>
          </ns3:TrackPointExtension>
        </extensions>
      </trkpt>
      <trkpt lat="31.70946816913783550262451171875" lon="35.01694612205028533935546875">
        <ele>406.399993896484375</ele>
        <time>2017-08-04T05:31:31.000Z</time>
        <extensions>
          <ns3:TrackPointExtension>
            <ns3:atemp>25.0</ns3:atemp>
          </ns3:TrackPointExtension>
        </extensions>
      </trkpt>
      <trkpt lat="31.70948342420160770416259765625" lon="35.01692458055913448333740234375">
        <ele>406</ele>
        <time>2017-08-04T05:31:32.000Z</time>
        <extensions>
          <ns3:TrackPointExtension>
            <ns3:atemp>25.0</ns3:atemp>
          </ns3:TrackPointExtension>
        </extensions>
      </trkpt>
      <trkpt lat="31.70948023907840251922607421875" lon="35.01692307181656360626220703125">
        <ele>407</ele>
        <time>2017-08-04T05:31:35.000Z</time>
        <extensions>
          <ns3:TrackPointExtension>
            <ns3:atemp>25.0</ns3:atemp>
          </ns3:TrackPointExtension>
        </extensions>
      </trkpt>
      <trkpt lat="31.70948023907840251922607421875" lon="35.01692307181656360626220703125">
        <ele>407.20001220703125</ele>
        <time>2017-08-04T05:31:47.000Z</time>
        <extensions>
          <ns3:TrackPointExtension>
            <ns3:atemp>25.0</ns3:atemp>
          </ns3:TrackPointExtension>
        </extensions>
      </trkpt>
      <trkpt lat="31.70948023907840251922607421875" lon="35.01692307181656360626220703125">
        <ele>407.20001220703125</ele>
        <time>2017-08-04T05:32:02.000Z</time>
        <extensions>
          <ns3:TrackPointExtension>
            <ns3:atemp>25.0</ns3:atemp>
          </ns3:TrackPointExtension>
        </extensions>
      </trkpt>
      <trkpt lat="31.7094814963638782501220703125" lon="35.0169214792549610137939453125">
        <ele>407.20001220703125</ele>
        <time>2017-08-04T05:32:05.000Z</time>
        <extensions>
          <ns3:TrackPointExtension>
            <ns3:atemp>25.0</ns3:atemp>
          </ns3:TrackPointExtension>
        </extensions>
      </trkpt>
      <trkpt lat="31.70951209031045436859130859375" lon="35.01687110401690006256103515625">
        <ele>407</ele>
        <time>2017-08-04T05:32:07.000Z</time>
        <extensions>
          <ns3:TrackPointExtension>
            <ns3:atemp>25.0</ns3:atemp>
          </ns3:TrackPointExtension>
        </extensions>
      </trkpt>
      <trkpt lat="31.70960010029375553131103515625" lon="35.0166948325932025909423828125">
        <ele>405.20001220703125</ele>
        <time>2017-08-04T05:32:11.000Z</time>
        <extensions>
          <ns3:TrackPointExtension>
            <ns3:atemp>25.0</ns3:atemp>
          </ns3:TrackPointExtension>
        </extensions>
      </trkpt>
      <trkpt lat="31.70967302285134792327880859375" lon="35.0165305472910404205322265625">
        <ele>403.600006103515625</ele>
        <time>2017-08-04T05:32:14.000Z</time>
        <extensions>
          <ns3:TrackPointExtension>
            <ns3:atemp>25.0</ns3:atemp>
          </ns3:TrackPointExtension>
        </extensions>
      </trkpt>
      <trkpt lat="31.70970068313181400299072265625" lon="35.01646910794079303741455078125">
        <ele>402.399993896484375</ele>
        <time>2017-08-04T05:32:15.000Z</time>
        <extensions>
          <ns3:TrackPointExtension>
            <ns3:atemp>25.0</ns3:atemp>
          </ns3:TrackPointExtension>
        </extensions>
      </trkpt>
      <trkpt lat="31.7097259126603603363037109375" lon="35.016405321657657623291015625">
        <ele>402</ele>
        <time>2017-08-04T05:32:16.000Z</time>
        <extensions>
          <ns3:TrackPointExtension>
            <ns3:atemp>25.0</ns3:atemp>
          </ns3:TrackPointExtension>
        </extensions>
      </trkpt>
      <trkpt lat="31.7097946442663669586181640625" lon="35.01621178351342678070068359375">
        <ele>401.20001220703125</ele>
        <time>2017-08-04T05:32:19.000Z</time>
        <extensions>
          <ns3:TrackPointExtension>
            <ns3:atemp>25.0</ns3:atemp>
          </ns3:TrackPointExtension>
        </extensions>
      </trkpt>
      <trkpt lat="31.70988835394382476806640625" lon="35.01594104804098606109619140625">
        <ele>400.600006103515625</ele>
        <time>2017-08-04T05:32:23.000Z</time>
        <extensions>
          <ns3:TrackPointExtension>
            <ns3:atemp>25.0</ns3:atemp>
          </ns3:TrackPointExtension>
        </extensions>
      </trkpt>
      <trkpt lat="31.7099917866289615631103515625" lon="35.0157071091234683990478515625">
        <ele>399.600006103515625</ele>
        <time>2017-08-04T05:32:27.000Z</time>
        <extensions>
          <ns3:TrackPointExtension>
            <ns3:atemp>25.0</ns3:atemp>
          </ns3:TrackPointExtension>
        </extensions>
      </trkpt>
      <trkpt lat="31.710026822984218597412109375" lon="35.01565170474350452423095703125">
        <ele>399</ele>
        <time>2017-08-04T05:32:28.000Z</time>
        <extensions>
          <ns3:TrackPointExtension>
            <ns3:atemp>25.0</ns3:atemp>
          </ns3:TrackPointExtension>
        </extensions>
      </trkpt>
      <trkpt lat="31.710103265941143035888671875" lon="35.0155428238213062286376953125">
        <ele>398.600006103515625</ele>
        <time>2017-08-04T05:32:30.000Z</time>
        <extensions>
          <ns3:TrackPointExtension>
            <ns3:atemp>25.0</ns3:atemp>
          </ns3:TrackPointExtension>
        </extensions>
      </trkpt>
      <trkpt lat="31.71023628674447536468505859375" lon="35.0153852440416812896728515625">
        <ele>397.600006103515625</ele>
        <time>2017-08-04T05:32:33.000Z</time>
        <extensions>
          <ns3:TrackPointExtension>
            <ns3:atemp>25.0</ns3:atemp>
          </ns3:TrackPointExtension>
        </extensions>
      </trkpt>
      <trkpt lat="31.71028532087802886962890625" lon="35.01532631926238536834716796875">
        <ele>397.399993896484375</ele>
        <time>2017-08-04T05:32:34.000Z</time>
        <extensions>
          <ns3:TrackPointExtension>
            <ns3:atemp>25.0</ns3:atemp>
          </ns3:TrackPointExtension>
        </extensions>
      </trkpt>
      <trkpt lat="31.7103381268680095672607421875" lon="35.0152712501585483551025390625">
        <ele>396.399993896484375</ele>
        <time>2017-08-04T05:32:35.000Z</time>
        <extensions>
          <ns3:TrackPointExtension>
            <ns3:atemp>25.0</ns3:atemp>
          </ns3:TrackPointExtension>
        </extensions>
      </trkpt>
      <trkpt lat="31.71042219735682010650634765625" lon="35.0151461921632289886474609375">
        <ele>395.79998779296875</ele>
        <time>2017-08-04T05:32:37.000Z</time>
        <extensions>
          <ns3:TrackPointExtension>
            <ns3:atemp>25.0</ns3:atemp>
          </ns3:TrackPointExtension>
        </extensions>
      </trkpt>
      <trkpt lat="31.71049587428569793701171875" lon="35.0150120817124843597412109375">
        <ele>395.20001220703125</ele>
        <time>2017-08-04T05:32:39.000Z</time>
        <extensions>
          <ns3:TrackPointExtension>
            <ns3:atemp>25.0</ns3:atemp>
          </ns3:TrackPointExtension>
        </extensions>
      </trkpt>
      <trkpt lat="31.7105785198509693145751953125" lon="35.01489062793552875518798828125">
        <ele>394.79998779296875</ele>
        <time>2017-08-04T05:32:41.000Z</time>
        <extensions>
          <ns3:TrackPointExtension>
            <ns3:atemp>25.0</ns3:atemp>
          </ns3:TrackPointExtension>
        </extensions>
      </trkpt>
      <trkpt lat="31.71068153344094753265380859375" lon="35.0148008577525615692138671875">
        <ele>394.600006103515625</ele>
        <time>2017-08-04T05:32:43.000Z</time>
        <extensions>
          <ns3:TrackPointExtension>
            <ns3:atemp>25.0</ns3:atemp>
          </ns3:TrackPointExtension>
        </extensions>
      </trkpt>
      <trkpt lat="31.71086870133876800537109375" lon="35.01472600735723972320556640625">
        <ele>394</ele>
        <time>2017-08-04T05:32:46.000Z</time>
        <extensions>
          <ns3:TrackPointExtension>
            <ns3:atemp>25.0</ns3:atemp>
          </ns3:TrackPointExtension>
        </extensions>
      </trkpt>
      <trkpt lat="31.7109332419931888580322265625" lon="35.01471226103603839874267578125">
        <ele>393.79998779296875</ele>
        <time>2017-08-04T05:32:47.000Z</time>
        <extensions>
          <ns3:TrackPointExtension>
            <ns3:atemp>25.0</ns3:atemp>
          </ns3:TrackPointExtension>
        </extensions>
      </trkpt>
      <trkpt lat="31.71107363887131214141845703125" lon="35.0146843492984771728515625">
        <ele>393.20001220703125</ele>
        <time>2017-08-04T05:32:49.000Z</time>
        <extensions>
          <ns3:TrackPointExtension>
            <ns3:atemp>25.0</ns3:atemp>
          </ns3:TrackPointExtension>
        </extensions>
      </trkpt>
      <trkpt lat="31.71115175820887088775634765625" lon="35.01468862406909465789794921875">
        <ele>392.399993896484375</ele>
        <time>2017-08-04T05:32:50.000Z</time>
        <extensions>
          <ns3:TrackPointExtension>
            <ns3:atemp>25.0</ns3:atemp>
          </ns3:TrackPointExtension>
        </extensions>
      </trkpt>
      <trkpt lat="31.71123255975544452667236328125" lon="35.014705471694469451904296875">
        <ele>391.20001220703125</ele>
        <time>2017-08-04T05:32:51.000Z</time>
        <extensions>
          <ns3:TrackPointExtension>
            <ns3:atemp>25.0</ns3:atemp>
          </ns3:TrackPointExtension>
        </extensions>
      </trkpt>
      <trkpt lat="31.71138008125126361846923828125" lon="35.014758445322513580322265625">
        <ele>389.600006103515625</ele>
        <time>2017-08-04T05:32:53.000Z</time>
        <extensions>
          <ns3:TrackPointExtension>
            <ns3:atemp>25.0</ns3:atemp>
          </ns3:TrackPointExtension>
        </extensions>
      </trkpt>
      <trkpt lat="31.7114431969821453094482421875" lon="35.01481200568377971649169921875">
        <ele>388.79998779296875</ele>
        <time>2017-08-04T05:32:54.000Z</time>
        <extensions>
          <ns3:TrackPointExtension>
            <ns3:atemp>25.0</ns3:atemp>
          </ns3:TrackPointExtension>
        </extensions>
      </trkpt>
      <trkpt lat="31.711504720151424407958984375" lon="35.01487839035689830780029296875">
        <ele>388</ele>
        <time>2017-08-04T05:32:55.000Z</time>
        <extensions>
          <ns3:TrackPointExtension>
            <ns3:atemp>25.0</ns3:atemp>
          </ns3:TrackPointExtension>
        </extensions>
      </trkpt>
      <trkpt lat="31.71155400574207305908203125" lon="35.01494494266808032989501953125">
        <ele>386.79998779296875</ele>
        <time>2017-08-04T05:32:56.000Z</time>
        <extensions>
          <ns3:TrackPointExtension>
            <ns3:atemp>25.0</ns3:atemp>
          </ns3:TrackPointExtension>
        </extensions>
      </trkpt>
      <trkpt lat="31.71159750781953334808349609375" lon="35.0150137580931186676025390625">
        <ele>385.79998779296875</ele>
        <time>2017-08-04T05:32:57.000Z</time>
        <extensions>
          <ns3:TrackPointExtension>
            <ns3:atemp>25.0</ns3:atemp>
          </ns3:TrackPointExtension>
        </extensions>
      </trkpt>
      <trkpt lat="31.7116389982402324676513671875" lon="35.015088357031345367431640625">
        <ele>385.20001220703125</ele>
        <time>2017-08-04T05:32:58.000Z</time>
        <extensions>
          <ns3:TrackPointExtension>
            <ns3:atemp>25.0</ns3:atemp>
          </ns3:TrackPointExtension>
        </extensions>
      </trkpt>
      <trkpt lat="31.71178274787962436676025390625" lon="35.01540812663733959197998046875">
        <ele>384.79998779296875</ele>
        <time>2017-08-04T05:33:02.000Z</time>
        <extensions>
          <ns3:TrackPointExtension>
            <ns3:atemp>25.0</ns3:atemp>
          </ns3:TrackPointExtension>
        </extensions>
      </trkpt>
      <trkpt lat="31.71181661076843738555908203125" lon="35.015496052801609039306640625">
        <ele>384.399993896484375</ele>
        <time>2017-08-04T05:33:03.000Z</time>
        <extensions>
          <ns3:TrackPointExtension>
            <ns3:atemp>25.0</ns3:atemp>
          </ns3:TrackPointExtension>
        </extensions>
      </trkpt>
      <trkpt lat="31.71186556108295917510986328125" lon="35.0156849808990955352783203125">
        <ele>383.399993896484375</ele>
        <time>2017-08-04T05:33:05.000Z</time>
        <extensions>
          <ns3:TrackPointExtension>
            <ns3:atemp>25.0</ns3:atemp>
          </ns3:TrackPointExtension>
        </extensions>
      </trkpt>
      <trkpt lat="31.711880229413509368896484375" lon="35.015783049166202545166015625">
        <ele>383.20001220703125</ele>
        <time>2017-08-04T05:33:06.000Z</time>
        <extensions>
          <ns3:TrackPointExtension>
            <ns3:atemp>25.0</ns3:atemp>
          </ns3:TrackPointExtension>
        </extensions>
      </trkpt>
      <trkpt lat="31.71189020387828350067138671875" lon="35.015881955623626708984375">
        <ele>382.600006103515625</ele>
        <time>2017-08-04T05:33:07.000Z</time>
        <extensions>
          <ns3:TrackPointExtension>
            <ns3:atemp>25.0</ns3:atemp>
          </ns3:TrackPointExtension>
        </extensions>
      </trkpt>
      <trkpt lat="31.71190629713237285614013671875" lon="35.01606635749340057373046875">
        <ele>382.20001220703125</ele>
        <time>2017-08-04T05:33:09.000Z</time>
        <extensions>
          <ns3:TrackPointExtension>
            <ns3:atemp>25.0</ns3:atemp>
          </ns3:TrackPointExtension>
        </extensions>
      </trkpt>
      <trkpt lat="31.7119246535003185272216796875" lon="35.016237013041973114013671875">
        <ele>382.399993896484375</ele>
        <time>2017-08-04T05:33:11.000Z</time>
        <extensions>
          <ns3:TrackPointExtension>
            <ns3:atemp>25.0</ns3:atemp>
          </ns3:TrackPointExtension>
        </extensions>
      </trkpt>
      <trkpt lat="31.71193781308829784393310546875" lon="35.0164805911481380462646484375">
        <ele>382.399993896484375</ele>
        <time>2017-08-04T05:33:14.000Z</time>
        <extensions>
          <ns3:TrackPointExtension>
            <ns3:atemp>25.0</ns3:atemp>
          </ns3:TrackPointExtension>
        </extensions>
      </trkpt>
      <trkpt lat="31.71190612949430942535400390625" lon="35.01663657836616039276123046875">
        <ele>382.399993896484375</ele>
        <time>2017-08-04T05:33:16.000Z</time>
        <extensions>
          <ns3:TrackPointExtension>
            <ns3:atemp>25.0</ns3:atemp>
          </ns3:TrackPointExtension>
        </extensions>
      </trkpt>
      <trkpt lat="31.7117907106876373291015625" lon="35.0168668292462825775146484375">
        <ele>380.600006103515625</ele>
        <time>2017-08-04T05:33:19.000Z</time>
        <extensions>
          <ns3:TrackPointExtension>
            <ns3:atemp>25.0</ns3:atemp>
          </ns3:TrackPointExtension>
        </extensions>
      </trkpt>
      <trkpt lat="31.71174041926860809326171875" lon="35.0169452838599681854248046875">
        <ele>379.79998779296875</ele>
        <time>2017-08-04T05:33:20.000Z</time>
        <extensions>
          <ns3:TrackPointExtension>
            <ns3:atemp>25.0</ns3:atemp>
          </ns3:TrackPointExtension>
        </extensions>
      </trkpt>
      <trkpt lat="31.7116909660398960113525390625" lon="35.0170277617871761322021484375">
        <ele>379</ele>
        <time>2017-08-04T05:33:21.000Z</time>
        <extensions>
          <ns3:TrackPointExtension>
            <ns3:atemp>25.0</ns3:atemp>
          </ns3:TrackPointExtension>
        </extensions>
      </trkpt>
      <trkpt lat="31.71158778481185436248779296875" lon="35.01719783060252666473388671875">
        <ele>376.79998779296875</ele>
        <time>2017-08-04T05:33:23.000Z</time>
        <extensions>
          <ns3:TrackPointExtension>
            <ns3:atemp>25.0</ns3:atemp>
          </ns3:TrackPointExtension>
        </extensions>
      </trkpt>
      <trkpt lat="31.71148904599249362945556640625" lon="35.0173741020262241363525390625">
        <ele>375.600006103515625</ele>
        <time>2017-08-04T05:33:25.000Z</time>
        <extensions>
          <ns3:TrackPointExtension>
            <ns3:atemp>25.0</ns3:atemp>
          </ns3:TrackPointExtension>
        </extensions>
      </trkpt>
      <trkpt lat="31.711439676582813262939453125" lon="35.01746202819049358367919921875">
        <ele>375</ele>
        <time>2017-08-04T05:33:26.000Z</time>
        <extensions>
          <ns3:TrackPointExtension>
            <ns3:atemp>25.0</ns3:atemp>
          </ns3:TrackPointExtension>
        </extensions>
      </trkpt>
      <trkpt lat="31.711396761238574981689453125" lon="35.0175487808883190155029296875">
        <ele>374.399993896484375</ele>
        <time>2017-08-04T05:33:27.000Z</time>
        <extensions>
          <ns3:TrackPointExtension>
            <ns3:atemp>25.0</ns3:atemp>
          </ns3:TrackPointExtension>
        </extensions>
      </trkpt>
      <trkpt lat="31.71127882786095142364501953125" lon="35.01777383498847484588623046875">
        <ele>374.20001220703125</ele>
        <time>2017-08-04T05:33:30.000Z</time>
        <extensions>
          <ns3:TrackPointExtension>
            <ns3:atemp>25.0</ns3:atemp>
          </ns3:TrackPointExtension>
        </extensions>
      </trkpt>
      <trkpt lat="31.7111250199377536773681640625" lon="35.0180848874151706695556640625">
        <ele>372.79998779296875</ele>
        <time>2017-08-04T05:33:34.000Z</time>
        <extensions>
          <ns3:TrackPointExtension>
            <ns3:atemp>25.0</ns3:atemp>
          </ns3:TrackPointExtension>
        </extensions>
      </trkpt>
      <trkpt lat="31.7110879719257354736328125" lon="35.0182664394378662109375">
        <ele>372.20001220703125</ele>
        <time>2017-08-04T05:33:36.000Z</time>
        <extensions>
          <ns3:TrackPointExtension>
            <ns3:atemp>25.0</ns3:atemp>
          </ns3:TrackPointExtension>
        </extensions>
      </trkpt>
      <trkpt lat="31.711084954440593719482421875" lon="35.0183591432869434356689453125">
        <ele>371.399993896484375</ele>
        <time>2017-08-04T05:33:37.000Z</time>
        <extensions>
          <ns3:TrackPointExtension>
            <ns3:atemp>25.0</ns3:atemp>
          </ns3:TrackPointExtension>
        </extensions>
      </trkpt>
      <trkpt lat="31.7111069150269031524658203125" lon="35.0185448862612247467041015625">
        <ele>370.399993896484375</ele>
        <time>2017-08-04T05:33:39.000Z</time>
        <extensions>
          <ns3:TrackPointExtension>
            <ns3:atemp>25.0</ns3:atemp>
          </ns3:TrackPointExtension>
        </extensions>
      </trkpt>
      <trkpt lat="31.7111255228519439697265625" lon="35.01862811855971813201904296875">
        <ele>370</ele>
        <time>2017-08-04T05:33:40.000Z</time>
        <extensions>
          <ns3:TrackPointExtension>
            <ns3:atemp>25.0</ns3:atemp>
          </ns3:TrackPointExtension>
        </extensions>
      </trkpt>
      <trkpt lat="31.71119903214275836944580078125" lon="35.01877932809293270111083984375">
        <ele>368.79998779296875</ele>
        <time>2017-08-04T05:33:42.000Z</time>
        <extensions>
          <ns3:TrackPointExtension>
            <ns3:atemp>25.0</ns3:atemp>
          </ns3:TrackPointExtension>
        </extensions>
      </trkpt>
      <trkpt lat="31.7112554423511028289794921875" lon="35.01883816905319690704345703125">
        <ele>368.399993896484375</ele>
        <time>2017-08-04T05:33:43.000Z</time>
        <extensions>
          <ns3:TrackPointExtension>
            <ns3:atemp>25.0</ns3:atemp>
          </ns3:TrackPointExtension>
        </extensions>
      </trkpt>
      <trkpt lat="31.7113084159791469573974609375" lon="35.018881671130657196044921875">
        <ele>367.600006103515625</ele>
        <time>2017-08-04T05:33:44.000Z</time>
        <extensions>
          <ns3:TrackPointExtension>
            <ns3:atemp>25.0</ns3:atemp>
          </ns3:TrackPointExtension>
        </extensions>
      </trkpt>
      <trkpt lat="31.7113526724278926849365234375" lon="35.018912516534328460693359375">
        <ele>367.399993896484375</ele>
        <time>2017-08-04T05:33:45.000Z</time>
        <extensions>
          <ns3:TrackPointExtension>
            <ns3:atemp>25.0</ns3:atemp>
          </ns3:TrackPointExtension>
        </extensions>
      </trkpt>
      <trkpt lat="31.71138661913573741912841796875" lon="35.01894243992865085601806640625">
        <ele>367.399993896484375</ele>
        <time>2017-08-04T05:33:46.000Z</time>
        <extensions>
          <ns3:TrackPointExtension>
            <ns3:atemp>25.0</ns3:atemp>
          </ns3:TrackPointExtension>
        </extensions>
      </trkpt>
      <trkpt lat="31.71146976761519908905029296875" lon="35.01906062476336956024169921875">
        <ele>368</ele>
        <time>2017-08-04T05:33:49.000Z</time>
        <extensions>
          <ns3:TrackPointExtension>
            <ns3:atemp>25.0</ns3:atemp>
          </ns3:TrackPointExtension>
        </extensions>
      </trkpt>
      <trkpt lat="31.711518131196498870849609375" lon="35.01914151012897491455078125">
        <ele>367.79998779296875</ele>
        <time>2017-08-04T05:33:51.000Z</time>
        <extensions>
          <ns3:TrackPointExtension>
            <ns3:atemp>25.0</ns3:atemp>
          </ns3:TrackPointExtension>
        </extensions>
      </trkpt>
      <trkpt lat="31.711569093167781829833984375" lon="35.01923513598740100860595703125">
        <ele>367.399993896484375</ele>
        <time>2017-08-04T05:33:53.000Z</time>
        <extensions>
          <ns3:TrackPointExtension>
            <ns3:atemp>25.0</ns3:atemp>
          </ns3:TrackPointExtension>
        </extensions>
      </trkpt>
      <trkpt lat="31.71164444647729396820068359375" lon="35.01938986591994762420654296875">
        <ele>367</ele>
        <time>2017-08-04T05:33:56.000Z</time>
        <extensions>
          <ns3:TrackPointExtension>
            <ns3:atemp>25.0</ns3:atemp>
          </ns3:TrackPointExtension>
        </extensions>
      </trkpt>
      <trkpt lat="31.711746789515018463134765625" lon="35.01966143958270549774169921875">
        <ele>367.600006103515625</ele>
        <time>2017-08-04T05:34:01.000Z</time>
        <extensions>
          <ns3:TrackPointExtension>
            <ns3:atemp>25.0</ns3:atemp>
          </ns3:TrackPointExtension>
        </extensions>
      </trkpt>
      <trkpt lat="31.7117761261761188507080078125" lon="35.01977291889488697052001953125">
        <ele>367.79998779296875</ele>
        <time>2017-08-04T05:34:03.000Z</time>
        <extensions>
          <ns3:TrackPointExtension>
            <ns3:atemp>25.0</ns3:atemp>
          </ns3:TrackPointExtension>
        </extensions>
      </trkpt>
      <trkpt lat="31.71179967932403087615966796875" lon="35.01988456584513187408447265625">
        <ele>367.79998779296875</ele>
        <time>2017-08-04T05:34:05.000Z</time>
        <extensions>
          <ns3:TrackPointExtension>
            <ns3:atemp>25.0</ns3:atemp>
          </ns3:TrackPointExtension>
        </extensions>
      </trkpt>
      <trkpt lat="31.7118277586996555328369140625" lon="35.02004818059504032135009765625">
        <ele>367.399993896484375</ele>
        <time>2017-08-04T05:34:08.000Z</time>
        <extensions>
          <ns3:TrackPointExtension>
            <ns3:atemp>25.0</ns3:atemp>
          </ns3:TrackPointExtension>
        </extensions>
      </trkpt>
      <trkpt lat="31.71186924912035465240478515625" lon="35.0202004797756671905517578125">
        <ele>368.399993896484375</ele>
        <time>2017-08-04T05:34:11.000Z</time>
        <extensions>
          <ns3:TrackPointExtension>
            <ns3:atemp>25.0</ns3:atemp>
          </ns3:TrackPointExtension>
        </extensions>
      </trkpt>
      <trkpt lat="31.71188257634639739990234375" lon="35.02023962326347827911376953125">
        <ele>368.600006103515625</ele>
        <time>2017-08-04T05:34:12.000Z</time>
        <extensions>
          <ns3:TrackPointExtension>
            <ns3:atemp>25.0</ns3:atemp>
          </ns3:TrackPointExtension>
        </extensions>
      </trkpt>
      <trkpt lat="31.7118953168392181396484375" lon="35.0202725641429424285888671875">
        <ele>369.20001220703125</ele>
        <time>2017-08-04T05:34:13.000Z</time>
        <extensions>
          <ns3:TrackPointExtension>
            <ns3:atemp>25.0</ns3:atemp>
          </ns3:TrackPointExtension>
        </extensions>
      </trkpt>
      <trkpt lat="31.71194435097277164459228515625" lon="35.0203982926905155181884765625">
        <ele>370.20001220703125</ele>
        <time>2017-08-04T05:34:17.000Z</time>
        <extensions>
          <ns3:TrackPointExtension>
            <ns3:atemp>25.0</ns3:atemp>
          </ns3:TrackPointExtension>
        </extensions>
      </trkpt>
      <trkpt lat="31.71196304261684417724609375" lon="35.02046115696430206298828125">
        <ele>370.399993896484375</ele>
        <time>2017-08-04T05:34:19.000Z</time>
        <extensions>
          <ns3:TrackPointExtension>
            <ns3:atemp>25.0</ns3:atemp>
          </ns3:TrackPointExtension>
        </extensions>
      </trkpt>
      <trkpt lat="31.712022386491298675537109375" lon="35.0206299684941768646240234375">
        <ele>371.20001220703125</ele>
        <time>2017-08-04T05:34:25.000Z</time>
        <extensions>
          <ns3:TrackPointExtension>
            <ns3:atemp>25.0</ns3:atemp>
          </ns3:TrackPointExtension>
        </extensions>
      </trkpt>
      <trkpt lat="31.71206588856875896453857421875" lon="35.0207761488854885101318359375">
        <ele>372</ele>
        <time>2017-08-04T05:34:30.000Z</time>
        <extensions>
          <ns3:TrackPointExtension>
            <ns3:atemp>25.0</ns3:atemp>
          </ns3:TrackPointExtension>
        </extensions>
      </trkpt>
      <trkpt lat="31.71207259409129619598388671875" lon="35.0208193995058536529541015625">
        <ele>372.600006103515625</ele>
        <time>2017-08-04T05:34:32.000Z</time>
        <extensions>
          <ns3:TrackPointExtension>
            <ns3:atemp>25.0</ns3:atemp>
          </ns3:TrackPointExtension>
        </extensions>
      </trkpt>
      <trkpt lat="31.71208684332668781280517578125" lon="35.0208623148500919342041015625">
        <ele>372.600006103515625</ele>
        <time>2017-08-04T05:34:34.000Z</time>
        <extensions>
          <ns3:TrackPointExtension>
            <ns3:atemp>25.0</ns3:atemp>
          </ns3:TrackPointExtension>
        </extensions>
      </trkpt>
      <trkpt lat="31.712098158895969390869140625" lon="35.021011345088481903076171875">
        <ele>373.399993896484375</ele>
        <time>2017-08-04T05:34:40.000Z</time>
        <extensions>
          <ns3:TrackPointExtension>
            <ns3:atemp>25.0</ns3:atemp>
          </ns3:TrackPointExtension>
        </extensions>
      </trkpt>
      <trkpt lat="31.712096147239208221435546875" lon="35.02103741280734539031982421875">
        <ele>373.600006103515625</ele>
        <time>2017-08-04T05:34:41.000Z</time>
        <extensions>
          <ns3:TrackPointExtension>
            <ns3:atemp>25.0</ns3:atemp>
          </ns3:TrackPointExtension>
        </extensions>
      </trkpt>
      <trkpt lat="31.7120785452425479888916015625" lon="35.02116582356393337249755859375">
        <ele>374</ele>
        <time>2017-08-04T05:34:46.000Z</time>
        <extensions>
          <ns3:TrackPointExtension>
            <ns3:atemp>25.0</ns3:atemp>
          </ns3:TrackPointExtension>
        </extensions>
      </trkpt>
      <trkpt lat="31.71205080114305019378662109375" lon="35.0212503969669342041015625">
        <ele>374.79998779296875</ele>
        <time>2017-08-04T05:34:50.000Z</time>
        <extensions>
          <ns3:TrackPointExtension>
            <ns3:atemp>25.0</ns3:atemp>
          </ns3:TrackPointExtension>
        </extensions>
      </trkpt>
      <trkpt lat="31.712039820849895477294921875" lon="35.0212814100086688995361328125">
        <ele>374.79998779296875</ele>
        <time>2017-08-04T05:34:51.000Z</time>
        <extensions>
          <ns3:TrackPointExtension>
            <ns3:atemp>25.0</ns3:atemp>
          </ns3:TrackPointExtension>
        </extensions>
      </trkpt>
      <trkpt lat="31.7119838297367095947265625" lon="35.021402947604656219482421875">
        <ele>374.20001220703125</ele>
        <time>2017-08-04T05:34:55.000Z</time>
        <extensions>
          <ns3:TrackPointExtension>
            <ns3:atemp>25.0</ns3:atemp>
          </ns3:TrackPointExtension>
        </extensions>
      </trkpt>
      <trkpt lat="31.711947284638881683349609375" lon="35.021479390561580657958984375">
        <ele>376</ele>
        <time>2017-08-04T05:34:59.000Z</time>
        <extensions>
          <ns3:TrackPointExtension>
            <ns3:atemp>25.0</ns3:atemp>
          </ns3:TrackPointExtension>
        </extensions>
      </trkpt>
      <trkpt lat="31.71192440204322338104248046875" lon="35.02151065506041049957275390625">
        <ele>376.399993896484375</ele>
        <time>2017-08-04T05:35:01.000Z</time>
        <extensions>
          <ns3:TrackPointExtension>
            <ns3:atemp>25.0</ns3:atemp>
          </ns3:TrackPointExtension>
        </extensions>
      </trkpt>
      <trkpt lat="31.71182884834706783294677734375" lon="35.021602101624011993408203125">
        <ele>377.20001220703125</ele>
        <time>2017-08-04T05:35:08.000Z</time>
        <extensions>
          <ns3:TrackPointExtension>
            <ns3:atemp>25.0</ns3:atemp>
          </ns3:TrackPointExtension>
        </extensions>
      </trkpt>
      <trkpt lat="31.71180202625691890716552734375" lon="35.021629594266414642333984375">
        <ele>377.20001220703125</ele>
        <time>2017-08-04T05:35:10.000Z</time>
        <extensions>
          <ns3:TrackPointExtension>
            <ns3:atemp>25.0</ns3:atemp>
          </ns3:TrackPointExtension>
        </extensions>
      </trkpt>
      <trkpt lat="31.71175860799849033355712890625" lon="35.02167980186641216278076171875">
        <ele>377.79998779296875</ele>
        <time>2017-08-04T05:35:13.000Z</time>
        <extensions>
          <ns3:TrackPointExtension>
            <ns3:atemp>25.0</ns3:atemp>
          </ns3:TrackPointExtension>
        </extensions>
      </trkpt>
      <trkpt lat="31.71172357164323329925537109375" lon="35.0217095576226711273193359375">
        <ele>378.20001220703125</ele>
        <time>2017-08-04T05:35:15.000Z</time>
        <extensions>
          <ns3:TrackPointExtension>
            <ns3:atemp>25.0</ns3:atemp>
          </ns3:TrackPointExtension>
        </extensions>
      </trkpt>
      <trkpt lat="31.71165366657078266143798828125" lon="35.02176764421164989471435546875">
        <ele>378.79998779296875</ele>
        <time>2017-08-04T05:35:19.000Z</time>
        <extensions>
          <ns3:TrackPointExtension>
            <ns3:atemp>25.0</ns3:atemp>
          </ns3:TrackPointExtension>
        </extensions>
      </trkpt>
      <trkpt lat="31.71162399463355541229248046875" lon="35.02179865725338459014892578125">
        <ele>379.20001220703125</ele>
        <time>2017-08-04T05:35:21.000Z</time>
        <extensions>
          <ns3:TrackPointExtension>
            <ns3:atemp>25.0</ns3:atemp>
          </ns3:TrackPointExtension>
        </extensions>
      </trkpt>
      <trkpt lat="31.71155400574207305908203125" lon="35.02185330726206302642822265625">
        <ele>380</ele>
        <time>2017-08-04T05:35:25.000Z</time>
        <extensions>
          <ns3:TrackPointExtension>
            <ns3:atemp>25.0</ns3:atemp>
          </ns3:TrackPointExtension>
        </extensions>
      </trkpt>
      <trkpt lat="31.71153724193572998046875" lon="35.02186420373618602752685546875">
        <ele>380.399993896484375</ele>
        <time>2017-08-04T05:35:26.000Z</time>
        <extensions>
          <ns3:TrackPointExtension>
            <ns3:atemp>25.0</ns3:atemp>
          </ns3:TrackPointExtension>
        </extensions>
      </trkpt>
      <trkpt lat="31.71143741346895694732666015625" lon="35.02192757092416286468505859375">
        <ele>380.20001220703125</ele>
        <time>2017-08-04T05:35:30.000Z</time>
        <extensions>
          <ns3:TrackPointExtension>
            <ns3:atemp>25.0</ns3:atemp>
          </ns3:TrackPointExtension>
        </extensions>
      </trkpt>
      <trkpt lat="31.711347810924053192138671875" lon="35.0219697318971157073974609375">
        <ele>381.399993896484375</ele>
        <time>2017-08-04T05:35:35.000Z</time>
        <extensions>
          <ns3:TrackPointExtension>
            <ns3:atemp>25.0</ns3:atemp>
          </ns3:TrackPointExtension>
        </extensions>
      </trkpt>
      <trkpt lat="31.7112463898956775665283203125" lon="35.02204692922532558441162109375">
        <ele>382.399993896484375</ele>
        <time>2017-08-04T05:35:41.000Z</time>
        <extensions>
          <ns3:TrackPointExtension>
            <ns3:atemp>25.0</ns3:atemp>
          </ns3:TrackPointExtension>
        </extensions>
      </trkpt>
      <trkpt lat="31.711210347712039947509765625" lon="35.02207559533417224884033203125">
        <ele>383</ele>
        <time>2017-08-04T05:35:43.000Z</time>
        <extensions>
          <ns3:TrackPointExtension>
            <ns3:atemp>25.0</ns3:atemp>
          </ns3:TrackPointExtension>
        </extensions>
      </trkpt>
      <trkpt lat="31.7110894806683063507080078125" lon="35.02222043462097644805908203125">
        <ele>383.600006103515625</ele>
        <time>2017-08-04T05:35:50.000Z</time>
        <extensions>
          <ns3:TrackPointExtension>
            <ns3:atemp>25.0</ns3:atemp>
          </ns3:TrackPointExtension>
        </extensions>
      </trkpt>
      <trkpt lat="31.71104899607598781585693359375" lon="35.02231548540294170379638671875">
        <ele>384.600006103515625</ele>
        <time>2017-08-04T05:35:54.000Z</time>
        <extensions>
          <ns3:TrackPointExtension>
            <ns3:atemp>25.0</ns3:atemp>
          </ns3:TrackPointExtension>
        </extensions>
      </trkpt>
      <trkpt lat="31.71102963387966156005859375" lon="35.022367201745510101318359375">
        <ele>385.20001220703125</ele>
        <time>2017-08-04T05:35:56.000Z</time>
        <extensions>
          <ns3:TrackPointExtension>
            <ns3:atemp>25.0</ns3:atemp>
          </ns3:TrackPointExtension>
        </extensions>
      </trkpt>
      <trkpt lat="31.71100205741822719573974609375" lon="35.02244406379759311676025390625">
        <ele>385.79998779296875</ele>
        <time>2017-08-04T05:35:59.000Z</time>
        <extensions>
          <ns3:TrackPointExtension>
            <ns3:atemp>25.0</ns3:atemp>
          </ns3:TrackPointExtension>
        </extensions>
      </trkpt>
      <trkpt lat="31.71096794307231903076171875" lon="35.022540204226970672607421875">
        <ele>386.600006103515625</ele>
        <time>2017-08-04T05:36:03.000Z</time>
        <extensions>
          <ns3:TrackPointExtension>
            <ns3:atemp>25.0</ns3:atemp>
          </ns3:TrackPointExtension>
        </extensions>
      </trkpt>
      <trkpt lat="31.7109205015003681182861328125" lon="35.0226449780166149139404296875">
        <ele>386.399993896484375</ele>
        <time>2017-08-04T05:36:07.000Z</time>
        <extensions>
          <ns3:TrackPointExtension>
            <ns3:atemp>25.0</ns3:atemp>
          </ns3:TrackPointExtension>
        </extensions>
      </trkpt>
      <trkpt lat="31.710912287235260009765625" lon="35.0226667709648609161376953125">
        <ele>386.79998779296875</ele>
        <time>2017-08-04T05:36:08.000Z</time>
        <extensions>
          <ns3:TrackPointExtension>
            <ns3:atemp>25.0</ns3:atemp>
          </ns3:TrackPointExtension>
        </extensions>
      </trkpt>
      <trkpt lat="31.710890829563140869140625" lon="35.02279333770275115966796875">
        <ele>387.79998779296875</ele>
        <time>2017-08-04T05:36:13.000Z</time>
        <extensions>
          <ns3:TrackPointExtension>
            <ns3:atemp>25.0</ns3:atemp>
          </ns3:TrackPointExtension>
        </extensions>
      </trkpt>
      <trkpt lat="31.71088839881122112274169921875" lon="35.02281638793647289276123046875">
        <ele>388</ele>
        <time>2017-08-04T05:36:14.000Z</time>
        <extensions>
          <ns3:TrackPointExtension>
            <ns3:atemp>25.0</ns3:atemp>
          </ns3:TrackPointExtension>
        </extensions>
      </trkpt>
      <trkpt lat="31.71088479459285736083984375" lon="35.02295334823429584503173828125">
        <ele>388.79998779296875</ele>
        <time>2017-08-04T05:36:20.000Z</time>
        <extensions>
          <ns3:TrackPointExtension>
            <ns3:atemp>25.0</ns3:atemp>
          </ns3:TrackPointExtension>
        </extensions>
      </trkpt>
      <trkpt lat="31.7108846269547939300537109375" lon="35.02297799102962017059326171875">
        <ele>389</ele>
        <time>2017-08-04T05:36:21.000Z</time>
        <extensions>
          <ns3:TrackPointExtension>
            <ns3:atemp>25.0</ns3:atemp>
          </ns3:TrackPointExtension>
        </extensions>
      </trkpt>
      <trkpt lat="31.71089711599051952362060546875" lon="35.0230741314589977264404296875">
        <ele>390</ele>
        <time>2017-08-04T05:36:26.000Z</time>
        <extensions>
          <ns3:TrackPointExtension>
            <ns3:atemp>25.0</ns3:atemp>
          </ns3:TrackPointExtension>
        </extensions>
      </trkpt>
      <trkpt lat="31.71089686453342437744140625" lon="35.0230908952653408050537109375">
        <ele>390</ele>
        <time>2017-08-04T05:36:27.000Z</time>
        <extensions>
          <ns3:TrackPointExtension>
            <ns3:atemp>25.0</ns3:atemp>
          </ns3:TrackPointExtension>
        </extensions>
      </trkpt>
      <trkpt lat="31.7109188251197338104248046875" lon="35.023204050958156585693359375">
        <ele>391.20001220703125</ele>
        <time>2017-08-04T05:36:33.000Z</time>
        <extensions>
          <ns3:TrackPointExtension>
            <ns3:atemp>25.0</ns3:atemp>
          </ns3:TrackPointExtension>
        </extensions>
      </trkpt>
      <trkpt lat="31.7109265364706516265869140625" lon="35.0232203118503093719482421875">
        <ele>391.399993896484375</ele>
        <time>2017-08-04T05:36:34.000Z</time>
        <extensions>
          <ns3:TrackPointExtension>
            <ns3:atemp>25.0</ns3:atemp>
          </ns3:TrackPointExtension>
        </extensions>
      </trkpt>
      <trkpt lat="31.71093718148767948150634765625" lon="35.02331159077584743499755859375">
        <ele>392</ele>
        <time>2017-08-04T05:36:39.000Z</time>
        <extensions>
          <ns3:TrackPointExtension>
            <ns3:atemp>25.0</ns3:atemp>
          </ns3:TrackPointExtension>
        </extensions>
      </trkpt>
      <trkpt lat="31.71094522811472415924072265625" lon="35.02335165627300739288330078125">
        <ele>392.399993896484375</ele>
        <time>2017-08-04T05:36:41.000Z</time>
        <extensions>
          <ns3:TrackPointExtension>
            <ns3:atemp>25.0</ns3:atemp>
          </ns3:TrackPointExtension>
        </extensions>
      </trkpt>
      <trkpt lat="31.71096802689135074615478515625" lon="35.023457519710063934326171875">
        <ele>393.600006103515625</ele>
        <time>2017-08-04T05:36:47.000Z</time>
        <extensions>
          <ns3:TrackPointExtension>
            <ns3:atemp>25.0</ns3:atemp>
          </ns3:TrackPointExtension>
        </extensions>
      </trkpt>
      <trkpt lat="31.710970290005207061767578125" lon="35.023474283516407012939453125">
        <ele>393.79998779296875</ele>
        <time>2017-08-04T05:36:48.000Z</time>
        <extensions>
          <ns3:TrackPointExtension>
            <ns3:atemp>25.0</ns3:atemp>
          </ns3:TrackPointExtension>
        </extensions>
      </trkpt>
      <trkpt lat="31.71099920757114887237548828125" lon="35.02356388606131076812744140625">
        <ele>394.79998779296875</ele>
        <time>2017-08-04T05:36:53.000Z</time>
        <extensions>
          <ns3:TrackPointExtension>
            <ns3:atemp>25.0</ns3:atemp>
          </ns3:TrackPointExtension>
        </extensions>
      </trkpt>
      <trkpt lat="31.711008846759796142578125" lon="35.0236256606876850128173828125">
        <ele>395.20001220703125</ele>
        <time>2017-08-04T05:36:56.000Z</time>
        <extensions>
          <ns3:TrackPointExtension>
            <ns3:atemp>25.0</ns3:atemp>
          </ns3:TrackPointExtension>
        </extensions>
      </trkpt>
      <trkpt lat="31.71101362444460391998291015625" lon="35.02366916276514530181884765625">
        <ele>396</ele>
        <time>2017-08-04T05:36:59.000Z</time>
        <extensions>
          <ns3:TrackPointExtension>
            <ns3:atemp>25.0</ns3:atemp>
          </ns3:TrackPointExtension>
        </extensions>
      </trkpt>
      <trkpt lat="31.7110056616365909576416015625" lon="35.02373236231505870819091796875">
        <ele>396</ele>
        <time>2017-08-04T05:37:02.000Z</time>
        <extensions>
          <ns3:TrackPointExtension>
            <ns3:atemp>25.0</ns3:atemp>
          </ns3:TrackPointExtension>
        </extensions>
      </trkpt>
      <trkpt lat="31.7110261134803295135498046875" lon="35.02383613027632236480712890625">
        <ele>396.79998779296875</ele>
        <time>2017-08-04T05:37:08.000Z</time>
        <extensions>
          <ns3:TrackPointExtension>
            <ns3:atemp>25.0</ns3:atemp>
          </ns3:TrackPointExtension>
        </extensions>
      </trkpt>
      <trkpt lat="31.7110428772866725921630859375" lon="35.02386596985161304473876953125">
        <ele>397</ele>
        <time>2017-08-04T05:37:10.000Z</time>
        <extensions>
          <ns3:TrackPointExtension>
            <ns3:atemp>25.0</ns3:atemp>
          </ns3:TrackPointExtension>
        </extensions>
      </trkpt>
      <trkpt lat="31.7110777460038661956787109375" lon="35.02395817078649997711181640625">
        <ele>398</ele>
        <time>2017-08-04T05:37:15.000Z</time>
        <extensions>
          <ns3:TrackPointExtension>
            <ns3:atemp>25.0</ns3:atemp>
          </ns3:TrackPointExtension>
        </extensions>
      </trkpt>
      <trkpt lat="31.711117811501026153564453125" lon="35.024059005081653594970703125">
        <ele>399.20001220703125</ele>
        <time>2017-08-04T05:37:21.000Z</time>
        <extensions>
          <ns3:TrackPointExtension>
            <ns3:atemp>25.0</ns3:atemp>
          </ns3:TrackPointExtension>
        </extensions>
      </trkpt>
      <trkpt lat="31.7111246846616268157958984375" lon="35.0240752659738063812255859375">
        <ele>399.399993896484375</ele>
        <time>2017-08-04T05:37:22.000Z</time>
        <extensions>
          <ns3:TrackPointExtension>
            <ns3:atemp>25.0</ns3:atemp>
          </ns3:TrackPointExtension>
        </extensions>
      </trkpt>
      <trkpt lat="31.71116919256746768951416015625" lon="35.02415933646261692047119140625">
        <ele>400</ele>
        <time>2017-08-04T05:37:27.000Z</time>
        <extensions>
          <ns3:TrackPointExtension>
            <ns3:atemp>25.0</ns3:atemp>
          </ns3:TrackPointExtension>
        </extensions>
      </trkpt>
      <trkpt lat="31.71118008904159069061279296875" lon="35.0241909362375736236572265625">
        <ele>400.20001220703125</ele>
        <time>2017-08-04T05:37:29.000Z</time>
        <extensions>
          <ns3:TrackPointExtension>
            <ns3:atemp>25.0</ns3:atemp>
          </ns3:TrackPointExtension>
        </extensions>
      </trkpt>
      <trkpt lat="31.71120087616145610809326171875" lon="35.02422253601253032684326171875">
        <ele>400.600006103515625</ele>
        <time>2017-08-04T05:37:31.000Z</time>
        <extensions>
          <ns3:TrackPointExtension>
            <ns3:atemp>25.0</ns3:atemp>
          </ns3:TrackPointExtension>
        </extensions>
      </trkpt>
      <trkpt lat="31.71122736297547817230224609375" lon="35.0242730788886547088623046875">
        <ele>401.399993896484375</ele>
        <time>2017-08-04T05:37:34.000Z</time>
        <extensions>
          <ns3:TrackPointExtension>
            <ns3:atemp>25.0</ns3:atemp>
          </ns3:TrackPointExtension>
        </extensions>
      </trkpt>
      <trkpt lat="31.7112370021641254425048828125" lon="35.02428942359983921051025390625">
        <ele>401.600006103515625</ele>
        <time>2017-08-04T05:37:35.000Z</time>
        <extensions>
          <ns3:TrackPointExtension>
            <ns3:atemp>25.0</ns3:atemp>
          </ns3:TrackPointExtension>
        </extensions>
      </trkpt>
      <trkpt lat="31.71127648092806339263916015625" lon="35.02436955459415912628173828125">
        <ele>402.600006103515625</ele>
        <time>2017-08-04T05:37:41.000Z</time>
        <extensions>
          <ns3:TrackPointExtension>
            <ns3:atemp>25.0</ns3:atemp>
          </ns3:TrackPointExtension>
        </extensions>
      </trkpt>
      <trkpt lat="31.7112792469561100006103515625" lon="35.02438749186694622039794921875">
        <ele>402.79998779296875</ele>
        <time>2017-08-04T05:37:42.000Z</time>
        <extensions>
          <ns3:TrackPointExtension>
            <ns3:atemp>25.0</ns3:atemp>
          </ns3:TrackPointExtension>
        </extensions>
      </trkpt>
      <trkpt lat="31.71131403185427188873291015625" lon="35.0244973786175251007080078125">
        <ele>403</ele>
        <time>2017-08-04T05:37:47.000Z</time>
        <extensions>
          <ns3:TrackPointExtension>
            <ns3:atemp>25.0</ns3:atemp>
          </ns3:TrackPointExtension>
        </extensions>
      </trkpt>
      <trkpt lat="31.7113335616886615753173828125" lon="35.02454088069498538970947265625">
        <ele>403.79998779296875</ele>
        <time>2017-08-04T05:37:50.000Z</time>
        <extensions>
          <ns3:TrackPointExtension>
            <ns3:atemp>25.0</ns3:atemp>
          </ns3:TrackPointExtension>
        </extensions>
      </trkpt>
      <trkpt lat="31.71138041652739048004150390625" lon="35.024625621736049652099609375">
        <ele>404.600006103515625</ele>
        <time>2017-08-04T05:37:55.000Z</time>
        <extensions>
          <ns3:TrackPointExtension>
            <ns3:atemp>25.0</ns3:atemp>
          </ns3:TrackPointExtension>
        </extensions>
      </trkpt>
      <trkpt lat="31.7113915644586086273193359375" lon="35.02464012242853641510009765625">
        <ele>404.79998779296875</ele>
        <time>2017-08-04T05:37:56.000Z</time>
        <extensions>
          <ns3:TrackPointExtension>
            <ns3:atemp>25.0</ns3:atemp>
          </ns3:TrackPointExtension>
        </extensions>
      </trkpt>
      <trkpt lat="31.71143867075443267822265625" lon="35.02471958287060260772705078125">
        <ele>405.79998779296875</ele>
        <time>2017-08-04T05:38:01.000Z</time>
        <extensions>
          <ns3:TrackPointExtension>
            <ns3:atemp>25.0</ns3:atemp>
          </ns3:TrackPointExtension>
        </extensions>
      </trkpt>
      <trkpt lat="31.71144696883857250213623046875" lon="35.02473969943821430206298828125">
        <ele>406</ele>
        <time>2017-08-04T05:38:02.000Z</time>
        <extensions>
          <ns3:TrackPointExtension>
            <ns3:atemp>25.0</ns3:atemp>
          </ns3:TrackPointExtension>
        </extensions>
      </trkpt>
      <trkpt lat="31.71150916256010532379150390625" lon="35.02484044991433620452880859375">
        <ele>407</ele>
        <time>2017-08-04T05:38:08.000Z</time>
        <extensions>
          <ns3:TrackPointExtension>
            <ns3:atemp>25.0</ns3:atemp>
          </ns3:TrackPointExtension>
        </extensions>
      </trkpt>
      <trkpt lat="31.71153229661285877227783203125" lon="35.02489945851266384124755859375">
        <ele>408</ele>
        <time>2017-08-04T05:38:13.000Z</time>
        <extensions>
          <ns3:TrackPointExtension>
            <ns3:atemp>25.0</ns3:atemp>
          </ns3:TrackPointExtension>
        </extensions>
      </trkpt>
      <trkpt lat="31.71154185198247432708740234375" lon="35.0249060802161693572998046875">
        <ele>408.399993896484375</ele>
        <time>2017-08-04T05:38:14.000Z</time>
        <extensions>
          <ns3:TrackPointExtension>
            <ns3:atemp>25.0</ns3:atemp>
          </ns3:TrackPointExtension>
        </extensions>
      </trkpt>
      <trkpt lat="31.71159180812537670135498046875" lon="35.02497875131666660308837890625">
        <ele>408.600006103515625</ele>
        <time>2017-08-04T05:38:18.000Z</time>
        <extensions>
          <ns3:TrackPointExtension>
            <ns3:atemp>25.0</ns3:atemp>
          </ns3:TrackPointExtension>
        </extensions>
      </trkpt>
      <trkpt lat="31.71164008788764476776123046875" lon="35.0250760652124881744384765625">
        <ele>408.600006103515625</ele>
        <time>2017-08-04T05:38:23.000Z</time>
        <extensions>
          <ns3:TrackPointExtension>
            <ns3:atemp>25.0</ns3:atemp>
          </ns3:TrackPointExtension>
        </extensions>
      </trkpt>
      <trkpt lat="31.7116691730916500091552734375" lon="35.0251173041760921478271484375">
        <ele>409.600006103515625</ele>
        <time>2017-08-04T05:38:26.000Z</time>
        <extensions>
          <ns3:TrackPointExtension>
            <ns3:atemp>25.0</ns3:atemp>
          </ns3:TrackPointExtension>
        </extensions>
      </trkpt>
      <trkpt lat="31.71170446090400218963623046875" lon="35.02515845932066440582275390625">
        <ele>410.20001220703125</ele>
        <time>2017-08-04T05:38:29.000Z</time>
        <extensions>
          <ns3:TrackPointExtension>
            <ns3:atemp>25.0</ns3:atemp>
          </ns3:TrackPointExtension>
        </extensions>
      </trkpt>
      <trkpt lat="31.7117209732532501220703125" lon="35.0251893885433673858642578125">
        <ele>410.600006103515625</ele>
        <time>2017-08-04T05:38:31.000Z</time>
        <extensions>
          <ns3:TrackPointExtension>
            <ns3:atemp>25.0</ns3:atemp>
          </ns3:TrackPointExtension>
        </extensions>
      </trkpt>
      <trkpt lat="31.711765564978122711181640625" lon="35.02527798525989055633544921875">
        <ele>411.600006103515625</ele>
        <time>2017-08-04T05:38:36.000Z</time>
        <extensions>
          <ns3:TrackPointExtension>
            <ns3:atemp>25.0</ns3:atemp>
          </ns3:TrackPointExtension>
        </extensions>
      </trkpt>
      <trkpt lat="31.7117764614522457122802734375" lon="35.02529759891331195831298828125">
        <ele>411.79998779296875</ele>
        <time>2017-08-04T05:38:37.000Z</time>
        <extensions>
          <ns3:TrackPointExtension>
            <ns3:atemp>25.0</ns3:atemp>
          </ns3:TrackPointExtension>
        </extensions>
      </trkpt>
      <trkpt lat="31.71183639205992221832275390625" lon="35.02542668022215366363525390625">
        <ele>412.79998779296875</ele>
        <time>2017-08-04T05:38:44.000Z</time>
        <extensions>
          <ns3:TrackPointExtension>
            <ns3:atemp>25.0</ns3:atemp>
          </ns3:TrackPointExtension>
        </extensions>
      </trkpt>
      <trkpt lat="31.71189590357244014739990234375" lon="35.0255709327757358551025390625">
        <ele>413.79998779296875</ele>
        <time>2017-08-04T05:38:51.000Z</time>
        <extensions>
          <ns3:TrackPointExtension>
            <ns3:atemp>25.0</ns3:atemp>
          </ns3:TrackPointExtension>
        </extensions>
      </trkpt>
      <trkpt lat="31.71190202236175537109375" lon="35.02559063024818897247314453125">
        <ele>413.79998779296875</ele>
        <time>2017-08-04T05:38:52.000Z</time>
        <extensions>
          <ns3:TrackPointExtension>
            <ns3:atemp>25.0</ns3:atemp>
          </ns3:TrackPointExtension>
        </extensions>
      </trkpt>
      <trkpt lat="31.71193395741283893585205078125" lon="35.02567268908023834228515625">
        <ele>415</ele>
        <time>2017-08-04T05:38:57.000Z</time>
        <extensions>
          <ns3:TrackPointExtension>
            <ns3:atemp>25.0</ns3:atemp>
          </ns3:TrackPointExtension>
        </extensions>
      </trkpt>
      <trkpt lat="31.7119699157774448394775390625" lon="35.02577318809926509857177734375">
        <ele>414.600006103515625</ele>
        <time>2017-08-04T05:39:01.000Z</time>
        <extensions>
          <ns3:TrackPointExtension>
            <ns3:atemp>25.0</ns3:atemp>
          </ns3:TrackPointExtension>
        </extensions>
      </trkpt>
      <trkpt lat="31.7120517231523990631103515625" lon="35.0259001739323139190673828125">
        <ele>416.20001220703125</ele>
        <time>2017-08-04T05:39:08.000Z</time>
        <extensions>
          <ns3:TrackPointExtension>
            <ns3:atemp>25.0</ns3:atemp>
          </ns3:TrackPointExtension>
        </extensions>
      </trkpt>
      <trkpt lat="31.71206362545490264892578125" lon="35.0259182788431644439697265625">
        <ele>416.399993896484375</ele>
        <time>2017-08-04T05:39:09.000Z</time>
        <extensions>
          <ns3:TrackPointExtension>
            <ns3:atemp>25.0</ns3:atemp>
          </ns3:TrackPointExtension>
        </extensions>
      </trkpt>
      <trkpt lat="31.71215507201850414276123046875" lon="35.02605222165584564208984375">
        <ele>417.399993896484375</ele>
        <time>2017-08-04T05:39:17.000Z</time>
        <extensions>
          <ns3:TrackPointExtension>
            <ns3:atemp>25.0</ns3:atemp>
          </ns3:TrackPointExtension>
        </extensions>
      </trkpt>
      <trkpt lat="31.71218155883252620697021484375" lon="35.02608918584883213043212890625">
        <ele>417.79998779296875</ele>
        <time>2017-08-04T05:39:19.000Z</time>
        <extensions>
          <ns3:TrackPointExtension>
            <ns3:atemp>25.0</ns3:atemp>
          </ns3:TrackPointExtension>
        </extensions>
      </trkpt>
      <trkpt lat="31.7122252285480499267578125" lon="35.02615238539874553680419921875">
        <ele>418.399993896484375</ele>
        <time>2017-08-04T05:39:23.000Z</time>
        <extensions>
          <ns3:TrackPointExtension>
            <ns3:atemp>25.0</ns3:atemp>
          </ns3:TrackPointExtension>
        </extensions>
      </trkpt>
      <trkpt lat="31.7122606001794338226318359375" lon="35.0261963903903961181640625">
        <ele>419</ele>
        <time>2017-08-04T05:39:26.000Z</time>
        <extensions>
          <ns3:TrackPointExtension>
            <ns3:atemp>25.0</ns3:atemp>
          </ns3:TrackPointExtension>
        </extensions>
      </trkpt>
      <trkpt lat="31.7122958041727542877197265625" lon="35.02628364600241184234619140625">
        <ele>419.600006103515625</ele>
        <time>2017-08-04T05:39:30.000Z</time>
        <extensions>
          <ns3:TrackPointExtension>
            <ns3:atemp>25.0</ns3:atemp>
          </ns3:TrackPointExtension>
        </extensions>
      </trkpt>
      <trkpt lat="31.71232908032834529876708984375" lon="35.0263662077486515045166015625">
        <ele>420.20001220703125</ele>
        <time>2017-08-04T05:39:34.000Z</time>
        <extensions>
          <ns3:TrackPointExtension>
            <ns3:atemp>25.0</ns3:atemp>
          </ns3:TrackPointExtension>
        </extensions>
      </trkpt>
      <trkpt lat="31.71236176975071430206298828125" lon="35.026406943798065185546875">
        <ele>420.79998779296875</ele>
        <time>2017-08-04T05:39:37.000Z</time>
        <extensions>
          <ns3:TrackPointExtension>
            <ns3:atemp>25.0</ns3:atemp>
          </ns3:TrackPointExtension>
        </extensions>
      </trkpt>
      <trkpt lat="31.71238020993769168853759765625" lon="35.02643443644046783447265625">
        <ele>421.20001220703125</ele>
        <time>2017-08-04T05:39:39.000Z</time>
        <extensions>
          <ns3:TrackPointExtension>
            <ns3:atemp>25.0</ns3:atemp>
          </ns3:TrackPointExtension>
        </extensions>
      </trkpt>
      <trkpt lat="31.7124103009700775146484375" lon="35.026536025106906890869140625">
        <ele>421.399993896484375</ele>
        <time>2017-08-04T05:39:43.000Z</time>
        <extensions>
          <ns3:TrackPointExtension>
            <ns3:atemp>25.0</ns3:atemp>
          </ns3:TrackPointExtension>
        </extensions>
      </trkpt>
      <trkpt lat="31.71245011501014232635498046875" lon="35.02658355049788951873779296875">
        <ele>421.79998779296875</ele>
        <time>2017-08-04T05:39:47.000Z</time>
        <extensions>
          <ns3:TrackPointExtension>
            <ns3:atemp>25.0</ns3:atemp>
          </ns3:TrackPointExtension>
        </extensions>
      </trkpt>
      <trkpt lat="31.71250283718109130859375" lon="35.026702992618083953857421875">
        <ele>422.79998779296875</ele>
        <time>2017-08-04T05:39:54.000Z</time>
        <extensions>
          <ns3:TrackPointExtension>
            <ns3:atemp>25.0</ns3:atemp>
          </ns3:TrackPointExtension>
        </extensions>
      </trkpt>
      <trkpt lat="31.712566874921321868896484375" lon="35.0268265418708324432373046875">
        <ele>423.79998779296875</ele>
        <time>2017-08-04T05:40:01.000Z</time>
        <extensions>
          <ns3:TrackPointExtension>
            <ns3:atemp>25.0</ns3:atemp>
          </ns3:TrackPointExtension>
        </extensions>
      </trkpt>
      <trkpt lat="31.7125747539103031158447265625" lon="35.02684523351490497589111328125">
        <ele>424</ele>
        <time>2017-08-04T05:40:02.000Z</time>
        <extensions>
          <ns3:TrackPointExtension>
            <ns3:atemp>25.0</ns3:atemp>
          </ns3:TrackPointExtension>
        </extensions>
      </trkpt>
      <trkpt lat="31.71264256350696086883544921875" lon="35.02698697149753570556640625">
        <ele>425</ele>
        <time>2017-08-04T05:40:10.000Z</time>
        <extensions>
          <ns3:TrackPointExtension>
            <ns3:atemp>25.0</ns3:atemp>
          </ns3:TrackPointExtension>
        </extensions>
      </trkpt>
      <trkpt lat="31.71265262179076671600341796875" lon="35.02700432203710079193115234375">
        <ele>425.20001220703125</ele>
        <time>2017-08-04T05:40:11.000Z</time>
        <extensions>
          <ns3:TrackPointExtension>
            <ns3:atemp>25.0</ns3:atemp>
          </ns3:TrackPointExtension>
        </extensions>
      </trkpt>
      <trkpt lat="31.71270458959043025970458984375" lon="35.02714279107749462127685546875">
        <ele>426</ele>
        <time>2017-08-04T05:40:18.000Z</time>
        <extensions>
          <ns3:TrackPointExtension>
            <ns3:atemp>25.0</ns3:atemp>
          </ns3:TrackPointExtension>
        </extensions>
      </trkpt>
      <trkpt lat="31.71273476444184780120849609375" lon="35.0271956808865070343017578125">
        <ele>426.20001220703125</ele>
        <time>2017-08-04T05:40:21.000Z</time>
        <extensions>
          <ns3:TrackPointExtension>
            <ns3:atemp>25.0</ns3:atemp>
          </ns3:TrackPointExtension>
        </extensions>
      </trkpt>
      <trkpt lat="31.71276904642581939697265625" lon="35.02728980965912342071533203125">
        <ele>427.20001220703125</ele>
        <time>2017-08-04T05:40:26.000Z</time>
        <extensions>
          <ns3:TrackPointExtension>
            <ns3:atemp>25.0</ns3:atemp>
          </ns3:TrackPointExtension>
        </extensions>
      </trkpt>
      <trkpt lat="31.71277482993900775909423828125" lon="35.027310848236083984375">
        <ele>427.399993896484375</ele>
        <time>2017-08-04T05:40:27.000Z</time>
        <extensions>
          <ns3:TrackPointExtension>
            <ns3:atemp>25.0</ns3:atemp>
          </ns3:TrackPointExtension>
        </extensions>
      </trkpt>
      <trkpt lat="31.71281657181680202484130859375" lon="35.02741168253123760223388671875">
        <ele>427.79998779296875</ele>
        <time>2017-08-04T05:40:32.000Z</time>
        <extensions>
          <ns3:TrackPointExtension>
            <ns3:atemp>25.0</ns3:atemp>
          </ns3:TrackPointExtension>
        </extensions>
      </trkpt>
      <trkpt lat="31.71285294927656650543212890625" lon="35.02750874496996402740478515625">
        <ele>428.399993896484375</ele>
        <time>2017-08-04T05:40:37.000Z</time>
        <extensions>
          <ns3:TrackPointExtension>
            <ns3:atemp>25.0</ns3:atemp>
          </ns3:TrackPointExtension>
        </extensions>
      </trkpt>
      <trkpt lat="31.7128865607082843780517578125" lon="35.027629695832729339599609375">
        <ele>429</ele>
        <time>2017-08-04T05:40:43.000Z</time>
        <extensions>
          <ns3:TrackPointExtension>
            <ns3:atemp>25.0</ns3:atemp>
          </ns3:TrackPointExtension>
        </extensions>
      </trkpt>
      <trkpt lat="31.71290525235235691070556640625" lon="35.02768292091786861419677734375">
        <ele>429.399993896484375</ele>
        <time>2017-08-04T05:40:46.000Z</time>
        <extensions>
          <ns3:TrackPointExtension>
            <ns3:atemp>25.0</ns3:atemp>
          </ns3:TrackPointExtension>
        </extensions>
      </trkpt>
      <trkpt lat="31.71296107582747936248779296875" lon="35.027773864567279815673828125">
        <ele>430</ele>
        <time>2017-08-04T05:40:51.000Z</time>
        <extensions>
          <ns3:TrackPointExtension>
            <ns3:atemp>25.0</ns3:atemp>
          </ns3:TrackPointExtension>
        </extensions>
      </trkpt>
      <trkpt lat="31.71301019378006458282470703125" lon="35.027850978076457977294921875">
        <ele>430.600006103515625</ele>
        <time>2017-08-04T05:40:55.000Z</time>
        <extensions>
          <ns3:TrackPointExtension>
            <ns3:atemp>25.0</ns3:atemp>
          </ns3:TrackPointExtension>
        </extensions>
      </trkpt>
      <trkpt lat="31.71303969807922840118408203125" lon="35.02789749763906002044677734375">
        <ele>431.20001220703125</ele>
        <time>2017-08-04T05:40:58.000Z</time>
        <extensions>
          <ns3:TrackPointExtension>
            <ns3:atemp>25.0</ns3:atemp>
          </ns3:TrackPointExtension>
        </extensions>
      </trkpt>
      <trkpt lat="31.71306232921779155731201171875" lon="35.02794091589748859405517578125">
        <ele>431.600006103515625</ele>
        <time>2017-08-04T05:41:01.000Z</time>
        <extensions>
          <ns3:TrackPointExtension>
            <ns3:atemp>25.0</ns3:atemp>
          </ns3:TrackPointExtension>
        </extensions>
      </trkpt>
      <trkpt lat="31.71310566365718841552734375" lon="35.02798668108880519866943359375">
        <ele>431.399993896484375</ele>
        <time>2017-08-04T05:41:03.000Z</time>
        <extensions>
          <ns3:TrackPointExtension>
            <ns3:atemp>25.0</ns3:atemp>
          </ns3:TrackPointExtension>
        </extensions>
      </trkpt>
      <trkpt lat="31.713177748024463653564453125" lon="35.0280429236590862274169921875">
        <ele>431.79998779296875</ele>
        <time>2017-08-04T05:41:07.000Z</time>
        <extensions>
          <ns3:TrackPointExtension>
            <ns3:atemp>25.0</ns3:atemp>
          </ns3:TrackPointExtension>
        </extensions>
      </trkpt>
      <trkpt lat="31.7132449708878993988037109375" lon="35.0281247310340404510498046875">
        <ele>432.79998779296875</ele>
        <time>2017-08-04T05:41:12.000Z</time>
        <extensions>
          <ns3:TrackPointExtension>
            <ns3:atemp>25.0</ns3:atemp>
          </ns3:TrackPointExtension>
        </extensions>
      </trkpt>
      <trkpt lat="31.71325829811394214630126953125" lon="35.02814677543938159942626953125">
        <ele>432.79998779296875</ele>
        <time>2017-08-04T05:41:13.000Z</time>
        <extensions>
          <ns3:TrackPointExtension>
            <ns3:atemp>25.0</ns3:atemp>
          </ns3:TrackPointExtension>
        </extensions>
      </trkpt>
      <trkpt lat="31.71333775855600833892822265625" lon="35.0282657146453857421875">
        <ele>433.600006103515625</ele>
        <time>2017-08-04T05:41:20.000Z</time>
        <extensions>
          <ns3:TrackPointExtension>
            <ns3:atemp>25.0</ns3:atemp>
          </ns3:TrackPointExtension>
        </extensions>
      </trkpt>
      <trkpt lat="31.713349409401416778564453125" lon="35.02828381955623626708984375">
        <ele>433.79998779296875</ele>
        <time>2017-08-04T05:41:21.000Z</time>
        <extensions>
          <ns3:TrackPointExtension>
            <ns3:atemp>25.0</ns3:atemp>
          </ns3:TrackPointExtension>
        </extensions>
      </trkpt>
      <trkpt lat="31.7134119383990764617919921875" lon="35.02839219756424427032470703125">
        <ele>434.79998779296875</ele>
        <time>2017-08-04T05:41:27.000Z</time>
        <extensions>
          <ns3:TrackPointExtension>
            <ns3:atemp>25.0</ns3:atemp>
          </ns3:TrackPointExtension>
        </extensions>
      </trkpt>
      <trkpt lat="31.71342493034899234771728515625" lon="35.028406865894794464111328125">
        <ele>434.79998779296875</ele>
        <time>2017-08-04T05:41:28.000Z</time>
        <extensions>
          <ns3:TrackPointExtension>
            <ns3:atemp>25.0</ns3:atemp>
          </ns3:TrackPointExtension>
        </extensions>
      </trkpt>
      <trkpt lat="31.71347916126251220703125" lon="35.0285111367702484130859375">
        <ele>435.399993896484375</ele>
        <time>2017-08-04T05:41:33.000Z</time>
        <extensions>
          <ns3:TrackPointExtension>
            <ns3:atemp>25.0</ns3:atemp>
          </ns3:TrackPointExtension>
        </extensions>
      </trkpt>
      <trkpt lat="31.71352517791092395782470703125" lon="35.02859252505004405975341796875">
        <ele>436</ele>
        <time>2017-08-04T05:41:37.000Z</time>
        <extensions>
          <ns3:TrackPointExtension>
            <ns3:atemp>25.0</ns3:atemp>
          </ns3:TrackPointExtension>
        </extensions>
      </trkpt>
      <trkpt lat="31.71357102692127227783203125" lon="35.02866460941731929779052734375">
        <ele>436.20001220703125</ele>
        <time>2017-08-04T05:41:41.000Z</time>
        <extensions>
          <ns3:TrackPointExtension>
            <ns3:atemp>25.0</ns3:atemp>
          </ns3:TrackPointExtension>
        </extensions>
      </trkpt>
      <trkpt lat="31.71366699971258640289306640625" lon="35.0288375280797481536865234375">
        <ele>437</ele>
        <time>2017-08-04T05:41:50.000Z</time>
        <extensions>
          <ns3:TrackPointExtension>
            <ns3:atemp>25.0</ns3:atemp>
          </ns3:TrackPointExtension>
        </extensions>
      </trkpt>
      <trkpt lat="31.71373355202376842498779296875" lon="35.0289528630673885345458984375">
        <ele>438.20001220703125</ele>
        <time>2017-08-04T05:41:57.000Z</time>
        <extensions>
          <ns3:TrackPointExtension>
            <ns3:atemp>25.0</ns3:atemp>
          </ns3:TrackPointExtension>
        </extensions>
      </trkpt>
      <trkpt lat="31.71374402940273284912109375" lon="35.029073394834995269775390625">
        <ele>438.399993896484375</ele>
        <time>2017-08-04T05:42:02.000Z</time>
        <extensions>
          <ns3:TrackPointExtension>
            <ns3:atemp>25.0</ns3:atemp>
          </ns3:TrackPointExtension>
        </extensions>
      </trkpt>
      <trkpt lat="31.713745705783367156982421875" lon="35.0291630811989307403564453125">
        <ele>439.20001220703125</ele>
        <time>2017-08-04T05:42:06.000Z</time>
        <extensions>
          <ns3:TrackPointExtension>
            <ns3:atemp>25.0</ns3:atemp>
          </ns3:TrackPointExtension>
        </extensions>
      </trkpt>
      <trkpt lat="31.71375148929655551910400390625" lon="35.0292083434760570526123046875">
        <ele>439.399993896484375</ele>
        <time>2017-08-04T05:42:08.000Z</time>
        <extensions>
          <ns3:TrackPointExtension>
            <ns3:atemp>25.0</ns3:atemp>
          </ns3:TrackPointExtension>
        </extensions>
      </trkpt>
      <trkpt lat="31.71375065110623836517333984375" lon="35.0292753987014293670654296875">
        <ele>440.20001220703125</ele>
        <time>2017-08-04T05:42:11.000Z</time>
        <extensions>
          <ns3:TrackPointExtension>
            <ns3:atemp>25.0</ns3:atemp>
          </ns3:TrackPointExtension>
        </extensions>
      </trkpt>
      <trkpt lat="31.7137514054775238037109375" lon="35.02939282916486263275146484375">
        <ele>441</ele>
        <time>2017-08-04T05:42:16.000Z</time>
        <extensions>
          <ns3:TrackPointExtension>
            <ns3:atemp>25.0</ns3:atemp>
          </ns3:TrackPointExtension>
        </extensions>
      </trkpt>
      <trkpt lat="31.71375081874430179595947265625" lon="35.02946558408439159393310546875">
        <ele>441.399993896484375</ele>
        <time>2017-08-04T05:42:19.000Z</time>
        <extensions>
          <ns3:TrackPointExtension>
            <ns3:atemp>25.0</ns3:atemp>
          </ns3:TrackPointExtension>
        </extensions>
      </trkpt>
      <trkpt lat="31.7137512378394603729248046875" lon="35.02960883080959320068359375">
        <ele>442.20001220703125</ele>
        <time>2017-08-04T05:42:25.000Z</time>
        <extensions>
          <ns3:TrackPointExtension>
            <ns3:atemp>25.0</ns3:atemp>
          </ns3:TrackPointExtension>
        </extensions>
      </trkpt>
      <trkpt lat="31.7137532494962215423583984375" lon="35.0296311266720294952392578125">
        <ele>442.399993896484375</ele>
        <time>2017-08-04T05:42:26.000Z</time>
        <extensions>
          <ns3:TrackPointExtension>
            <ns3:atemp>25.0</ns3:atemp>
          </ns3:TrackPointExtension>
        </extensions>
      </trkpt>
      <trkpt lat="31.7137433588504791259765625" lon="35.02975895069539546966552734375">
        <ele>443.20001220703125</ele>
        <time>2017-08-04T05:42:32.000Z</time>
        <extensions>
          <ns3:TrackPointExtension>
            <ns3:atemp>25.0</ns3:atemp>
          </ns3:TrackPointExtension>
        </extensions>
      </trkpt>
      <trkpt lat="31.7137418501079082489013671875" lon="35.0297799892723560333251953125">
        <ele>443.399993896484375</ele>
        <time>2017-08-04T05:42:33.000Z</time>
        <extensions>
          <ns3:TrackPointExtension>
            <ns3:atemp>25.0</ns3:atemp>
          </ns3:TrackPointExtension>
        </extensions>
      </trkpt>
      <trkpt lat="31.7137294448912143707275390625" lon="35.0299355573952198028564453125">
        <ele>444.600006103515625</ele>
        <time>2017-08-04T05:42:40.000Z</time>
        <extensions>
          <ns3:TrackPointExtension>
            <ns3:atemp>25.0</ns3:atemp>
          </ns3:TrackPointExtension>
        </extensions>
      </trkpt>
      <trkpt lat="31.7137287743389606475830078125" lon="35.02995760180056095123291015625">
        <ele>444.79998779296875</ele>
        <time>2017-08-04T05:42:41.000Z</time>
        <extensions>
          <ns3:TrackPointExtension>
            <ns3:atemp>25.0</ns3:atemp>
          </ns3:TrackPointExtension>
        </extensions>
      </trkpt>
      <trkpt lat="31.7137053050100803375244140625" lon="35.03007017076015472412109375">
        <ele>445.600006103515625</ele>
        <time>2017-08-04T05:42:47.000Z</time>
        <extensions>
          <ns3:TrackPointExtension>
            <ns3:atemp>25.0</ns3:atemp>
          </ns3:TrackPointExtension>
        </extensions>
      </trkpt>
      <trkpt lat="31.7137004435062408447265625" lon="35.03008718602359294891357421875">
        <ele>445.79998779296875</ele>
        <time>2017-08-04T05:42:48.000Z</time>
        <extensions>
          <ns3:TrackPointExtension>
            <ns3:atemp>25.0</ns3:atemp>
          </ns3:TrackPointExtension>
        </extensions>
      </trkpt>
      <trkpt lat="31.713685691356658935546875" lon="35.03019162453711032867431640625">
        <ele>445.600006103515625</ele>
        <time>2017-08-04T05:42:52.000Z</time>
        <extensions>
          <ns3:TrackPointExtension>
            <ns3:atemp>25.0</ns3:atemp>
          </ns3:TrackPointExtension>
        </extensions>
      </trkpt>
      <trkpt lat="31.71368443407118320465087890625" lon="35.0303352065384387969970703125">
        <ele>446.79998779296875</ele>
        <time>2017-08-04T05:42:59.000Z</time>
        <extensions>
          <ns3:TrackPointExtension>
            <ns3:atemp>25.0</ns3:atemp>
          </ns3:TrackPointExtension>
        </extensions>
      </trkpt>
      <trkpt lat="31.713681332767009735107421875" lon="35.03035758621990680694580078125">
        <ele>447.20001220703125</ele>
        <time>2017-08-04T05:43:00.000Z</time>
        <extensions>
          <ns3:TrackPointExtension>
            <ns3:atemp>25.0</ns3:atemp>
          </ns3:TrackPointExtension>
        </extensions>
      </trkpt>
      <trkpt lat="31.713663227856159210205078125" lon="35.0304676406085491180419921875">
        <ele>447.79998779296875</ele>
        <time>2017-08-04T05:43:05.000Z</time>
        <extensions>
          <ns3:TrackPointExtension>
            <ns3:atemp>25.0</ns3:atemp>
          </ns3:TrackPointExtension>
        </extensions>
      </trkpt>
      <trkpt lat="31.7136513255536556243896484375" lon="35.0305145792663097381591796875">
        <ele>448</ele>
        <time>2017-08-04T05:43:07.000Z</time>
        <extensions>
          <ns3:TrackPointExtension>
            <ns3:atemp>25.0</ns3:atemp>
          </ns3:TrackPointExtension>
        </extensions>
      </trkpt>
      <trkpt lat="31.71360983513295650482177734375" lon="35.03067291341722011566162109375">
        <ele>448.79998779296875</ele>
        <time>2017-08-04T05:43:14.000Z</time>
        <extensions>
          <ns3:TrackPointExtension>
            <ns3:atemp>25.0</ns3:atemp>
          </ns3:TrackPointExtension>
        </extensions>
      </trkpt>
      <trkpt lat="31.7136030457913875579833984375" lon="35.0307174213230609893798828125">
        <ele>448.79998779296875</ele>
        <time>2017-08-04T05:43:16.000Z</time>
        <extensions>
          <ns3:TrackPointExtension>
            <ns3:atemp>25.0</ns3:atemp>
          </ns3:TrackPointExtension>
        </extensions>
      </trkpt>
      <trkpt lat="31.7135651595890522003173828125" lon="35.030841641128063201904296875">
        <ele>449.79998779296875</ele>
        <time>2017-08-04T05:43:22.000Z</time>
        <extensions>
          <ns3:TrackPointExtension>
            <ns3:atemp>25.0</ns3:atemp>
          </ns3:TrackPointExtension>
        </extensions>
      </trkpt>
      <trkpt lat="31.713557951152324676513671875" lon="35.030862428247928619384765625">
        <ele>450</ele>
        <time>2017-08-04T05:43:23.000Z</time>
        <extensions>
          <ns3:TrackPointExtension>
            <ns3:atemp>25.0</ns3:atemp>
          </ns3:TrackPointExtension>
        </extensions>
      </trkpt>
      <trkpt lat="31.713504977524280548095703125" lon="35.03098807297646999359130859375">
        <ele>451</ele>
        <time>2017-08-04T05:43:30.000Z</time>
        <extensions>
          <ns3:TrackPointExtension>
            <ns3:atemp>25.0</ns3:atemp>
          </ns3:TrackPointExtension>
        </extensions>
      </trkpt>
      <trkpt lat="31.7134890519082546234130859375" lon="35.03101891838014125823974609375">
        <ele>451.20001220703125</ele>
        <time>2017-08-04T05:43:32.000Z</time>
        <extensions>
          <ns3:TrackPointExtension>
            <ns3:atemp>25.0</ns3:atemp>
          </ns3:TrackPointExtension>
        </extensions>
      </trkpt>
      <trkpt lat="31.71342945657670497894287109375" lon="35.0311381928622722625732421875">
        <ele>452</ele>
        <time>2017-08-04T05:43:40.000Z</time>
        <extensions>
          <ns3:TrackPointExtension>
            <ns3:atemp>25.0</ns3:atemp>
          </ns3:TrackPointExtension>
        </extensions>
      </trkpt>
      <trkpt lat="31.71337581239640712738037109375" lon="35.03123433329164981842041015625">
        <ele>452</ele>
        <time>2017-08-04T05:43:45.000Z</time>
        <extensions>
          <ns3:TrackPointExtension>
            <ns3:atemp>25.0</ns3:atemp>
          </ns3:TrackPointExtension>
        </extensions>
      </trkpt>
      <trkpt lat="31.7133276164531707763671875" lon="35.03131127916276454925537109375">
        <ele>453.20001220703125</ele>
        <time>2017-08-04T05:43:50.000Z</time>
        <extensions>
          <ns3:TrackPointExtension>
            <ns3:atemp>25.0</ns3:atemp>
          </ns3:TrackPointExtension>
        </extensions>
      </trkpt>
      <trkpt lat="31.713305152952671051025390625" lon="35.03133340738713741302490234375">
        <ele>453.20001220703125</ele>
        <time>2017-08-04T05:43:52.000Z</time>
        <extensions>
          <ns3:TrackPointExtension>
            <ns3:atemp>25.0</ns3:atemp>
          </ns3:TrackPointExtension>
        </extensions>
      </trkpt>
      <trkpt lat="31.7132647521793842315673828125" lon="35.03138386644423007965087890625">
        <ele>454.20001220703125</ele>
        <time>2017-08-04T05:43:56.000Z</time>
        <extensions>
          <ns3:TrackPointExtension>
            <ns3:atemp>25.0</ns3:atemp>
          </ns3:TrackPointExtension>
        </extensions>
      </trkpt>
      <trkpt lat="31.7132429592311382293701171875" lon="35.03140859305858612060546875">
        <ele>454.600006103515625</ele>
        <time>2017-08-04T05:43:58.000Z</time>
        <extensions>
          <ns3:TrackPointExtension>
            <ns3:atemp>25.0</ns3:atemp>
          </ns3:TrackPointExtension>
        </extensions>
      </trkpt>
      <trkpt lat="31.7132013849914073944091796875" lon="35.03145645372569561004638671875">
        <ele>455.20001220703125</ele>
        <time>2017-08-04T05:44:02.000Z</time>
        <extensions>
          <ns3:TrackPointExtension>
            <ns3:atemp>25.0</ns3:atemp>
          </ns3:TrackPointExtension>
        </extensions>
      </trkpt>
      <trkpt lat="31.713127456605434417724609375" lon="35.0315313041210174560546875">
        <ele>456.399993896484375</ele>
        <time>2017-08-04T05:44:08.000Z</time>
        <extensions>
          <ns3:TrackPointExtension>
            <ns3:atemp>25.0</ns3:atemp>
          </ns3:TrackPointExtension>
        </extensions>
      </trkpt>
      <trkpt lat="31.71302109025418758392333984375" lon="35.0316276960074901580810546875">
        <ele>457.399993896484375</ele>
        <time>2017-08-04T05:44:16.000Z</time>
        <extensions>
          <ns3:TrackPointExtension>
            <ns3:atemp>25.0</ns3:atemp>
          </ns3:TrackPointExtension>
        </extensions>
      </trkpt>
      <trkpt lat="31.7130072601139545440673828125" lon="35.03163716755807399749755859375">
        <ele>457.600006103515625</ele>
        <time>2017-08-04T05:44:17.000Z</time>
        <extensions>
          <ns3:TrackPointExtension>
            <ns3:atemp>25.0</ns3:atemp>
          </ns3:TrackPointExtension>
        </extensions>
      </trkpt>
      <trkpt lat="31.71291363425552845001220703125" lon="35.03172014839947223663330078125">
        <ele>458.600006103515625</ele>
        <time>2017-08-04T05:44:24.000Z</time>
        <extensions>
          <ns3:TrackPointExtension>
            <ns3:atemp>25.0</ns3:atemp>
          </ns3:TrackPointExtension>
        </extensions>
      </trkpt>
      <trkpt lat="31.71289754100143909454345703125" lon="35.03172970376908779144287109375">
        <ele>458.600006103515625</ele>
        <time>2017-08-04T05:44:25.000Z</time>
        <extensions>
          <ns3:TrackPointExtension>
            <ns3:atemp>25.0</ns3:atemp>
          </ns3:TrackPointExtension>
        </extensions>
      </trkpt>
      <trkpt lat="31.7128107883036136627197265625" lon="35.0317914783954620361328125">
        <ele>459.20001220703125</ele>
        <time>2017-08-04T05:44:31.000Z</time>
        <extensions>
          <ns3:TrackPointExtension>
            <ns3:atemp>25.0</ns3:atemp>
          </ns3:TrackPointExtension>
        </extensions>
      </trkpt>
      <trkpt lat="31.712772063910961151123046875" lon="35.03183229826390743255615234375">
        <ele>459.600006103515625</ele>
        <time>2017-08-04T05:44:34.000Z</time>
        <extensions>
          <ns3:TrackPointExtension>
            <ns3:atemp>25.0</ns3:atemp>
          </ns3:TrackPointExtension>
        </extensions>
      </trkpt>
      <trkpt lat="31.712741889059543609619140625" lon="35.03186817280948162078857421875">
        <ele>460.20001220703125</ele>
        <time>2017-08-04T05:44:37.000Z</time>
        <extensions>
          <ns3:TrackPointExtension>
            <ns3:atemp>25.0</ns3:atemp>
          </ns3:TrackPointExtension>
        </extensions>
      </trkpt>
      <trkpt lat="31.71271448023617267608642578125" lon="35.031892396509647369384765625">
        <ele>460.600006103515625</ele>
        <time>2017-08-04T05:44:39.000Z</time>
        <extensions>
          <ns3:TrackPointExtension>
            <ns3:atemp>25.0</ns3:atemp>
          </ns3:TrackPointExtension>
        </extensions>
      </trkpt>
      <trkpt lat="31.7126485146582126617431640625" lon="35.031953416764736175537109375">
        <ele>461</ele>
        <time>2017-08-04T05:44:44.000Z</time>
        <extensions>
          <ns3:TrackPointExtension>
            <ns3:atemp>25.0</ns3:atemp>
          </ns3:TrackPointExtension>
        </extensions>
      </trkpt>
      <trkpt lat="31.71259143389761447906494140625" lon="35.03199641592800617218017578125">
        <ele>461.600006103515625</ele>
        <time>2017-08-04T05:44:48.000Z</time>
        <extensions>
          <ns3:TrackPointExtension>
            <ns3:atemp>25.0</ns3:atemp>
          </ns3:TrackPointExtension>
        </extensions>
      </trkpt>
      <trkpt lat="31.71255254186689853668212890625" lon="35.032031200826168060302734375">
        <ele>462</ele>
        <time>2017-08-04T05:44:51.000Z</time>
        <extensions>
          <ns3:TrackPointExtension>
            <ns3:atemp>25.0</ns3:atemp>
          </ns3:TrackPointExtension>
        </extensions>
      </trkpt>
      <trkpt lat="31.7124983109533786773681640625" lon="35.03208643756806850433349609375">
        <ele>462.79998779296875</ele>
        <time>2017-08-04T05:44:56.000Z</time>
        <extensions>
          <ns3:TrackPointExtension>
            <ns3:atemp>26.0</ns3:atemp>
          </ns3:TrackPointExtension>
        </extensions>
      </trkpt>
      <trkpt lat="31.71248280443251132965087890625" lon="35.032093562185764312744140625">
        <ele>462.79998779296875</ele>
        <time>2017-08-04T05:44:57.000Z</time>
        <extensions>
          <ns3:TrackPointExtension>
            <ns3:atemp>26.0</ns3:atemp>
          </ns3:TrackPointExtension>
        </extensions>
      </trkpt>
      <trkpt lat="31.71240703202784061431884765625" lon="35.0321396626532077789306640625">
        <ele>462.79998779296875</ele>
        <time>2017-08-04T05:45:01.000Z</time>
        <extensions>
          <ns3:TrackPointExtension>
            <ns3:atemp>26.0</ns3:atemp>
          </ns3:TrackPointExtension>
        </extensions>
      </trkpt>
      <trkpt lat="31.71232807449996471405029296875" lon="35.0322047062218189239501953125">
        <ele>463.79998779296875</ele>
        <time>2017-08-04T05:45:07.000Z</time>
        <extensions>
          <ns3:TrackPointExtension>
            <ns3:atemp>26.0</ns3:atemp>
          </ns3:TrackPointExtension>
        </extensions>
      </trkpt>
      <trkpt lat="31.71231952495872974395751953125" lon="35.03222205676138401031494140625">
        <ele>464</ele>
        <time>2017-08-04T05:45:08.000Z</time>
        <extensions>
          <ns3:TrackPointExtension>
            <ns3:atemp>26.0</ns3:atemp>
          </ns3:TrackPointExtension>
        </extensions>
      </trkpt>
      <trkpt lat="31.712300665676593780517578125" lon="35.03224669955670833587646484375">
        <ele>464.20001220703125</ele>
        <time>2017-08-04T05:45:10.000Z</time>
        <extensions>
          <ns3:TrackPointExtension>
            <ns3:atemp>26.0</ns3:atemp>
          </ns3:TrackPointExtension>
        </extensions>
      </trkpt>
      <trkpt lat="31.71225112862884998321533203125" lon="35.0322955660521984100341796875">
        <ele>464.79998779296875</ele>
        <time>2017-08-04T05:45:14.000Z</time>
        <extensions>
          <ns3:TrackPointExtension>
            <ns3:atemp>26.0</ns3:atemp>
          </ns3:TrackPointExtension>
        </extensions>
      </trkpt>
      <trkpt lat="31.71222581528127193450927734375" lon="35.0323230586946010589599609375">
        <ele>465.20001220703125</ele>
        <time>2017-08-04T05:45:16.000Z</time>
        <extensions>
          <ns3:TrackPointExtension>
            <ns3:atemp>26.0</ns3:atemp>
          </ns3:TrackPointExtension>
        </extensions>
      </trkpt>
      <trkpt lat="31.71215591020882129669189453125" lon="35.03238365985453128814697265625">
        <ele>466</ele>
        <time>2017-08-04T05:45:21.000Z</time>
        <extensions>
          <ns3:TrackPointExtension>
            <ns3:atemp>26.0</ns3:atemp>
          </ns3:TrackPointExtension>
        </extensions>
      </trkpt>
      <trkpt lat="31.712135374546051025390625" lon="35.032412074506282806396484375">
        <ele>466.399993896484375</ele>
        <time>2017-08-04T05:45:23.000Z</time>
        <extensions>
          <ns3:TrackPointExtension>
            <ns3:atemp>26.0</ns3:atemp>
          </ns3:TrackPointExtension>
        </extensions>
      </trkpt>
      <trkpt lat="31.71207443810999393463134765625" lon="35.03248139284551143646240234375">
        <ele>467</ele>
        <time>2017-08-04T05:45:28.000Z</time>
        <extensions>
          <ns3:TrackPointExtension>
            <ns3:atemp>26.0</ns3:atemp>
          </ns3:TrackPointExtension>
        </extensions>
      </trkpt>
      <trkpt lat="31.712066642940044403076171875" lon="35.03250134177505970001220703125">
        <ele>467.20001220703125</ele>
        <time>2017-08-04T05:45:29.000Z</time>
        <extensions>
          <ns3:TrackPointExtension>
            <ns3:atemp>26.0</ns3:atemp>
          </ns3:TrackPointExtension>
        </extensions>
      </trkpt>
      <trkpt lat="31.71205583028495311737060546875" lon="35.03251944668591022491455078125">
        <ele>467.399993896484375</ele>
        <time>2017-08-04T05:45:30.000Z</time>
        <extensions>
          <ns3:TrackPointExtension>
            <ns3:atemp>26.0</ns3:atemp>
          </ns3:TrackPointExtension>
        </extensions>
      </trkpt>
      <trkpt lat="31.71200218610465526580810546875" lon="35.03255984745919704437255859375">
        <ele>468</ele>
        <time>2017-08-04T05:45:34.000Z</time>
        <extensions>
          <ns3:TrackPointExtension>
            <ns3:atemp>26.0</ns3:atemp>
          </ns3:TrackPointExtension>
        </extensions>
      </trkpt>
      <trkpt lat="31.711990535259246826171875" lon="35.03257258795201778411865234375">
        <ele>468.20001220703125</ele>
        <time>2017-08-04T05:45:35.000Z</time>
        <extensions>
          <ns3:TrackPointExtension>
            <ns3:atemp>26.0</ns3:atemp>
          </ns3:TrackPointExtension>
        </extensions>
      </trkpt>
      <trkpt lat="31.71198408119380474090576171875" lon="35.0325879268348217010498046875">
        <ele>468.399993896484375</ele>
        <time>2017-08-04T05:45:36.000Z</time>
        <extensions>
          <ns3:TrackPointExtension>
            <ns3:atemp>26.0</ns3:atemp>
          </ns3:TrackPointExtension>
        </extensions>
      </trkpt>
      <trkpt lat="31.7119152657687664031982421875" lon="35.03266747109591960906982421875">
        <ele>468.399993896484375</ele>
        <time>2017-08-04T05:45:41.000Z</time>
        <extensions>
          <ns3:TrackPointExtension>
            <ns3:atemp>26.0</ns3:atemp>
          </ns3:TrackPointExtension>
        </extensions>
      </trkpt>
      <trkpt lat="31.711845360696315765380859375" lon="35.03276034258306026458740234375">
        <ele>469.399993896484375</ele>
        <time>2017-08-04T05:45:47.000Z</time>
        <extensions>
          <ns3:TrackPointExtension>
            <ns3:atemp>26.0</ns3:atemp>
          </ns3:TrackPointExtension>
        </extensions>
      </trkpt>
      <trkpt lat="31.71179004013538360595703125" lon="35.0328598357737064361572265625">
        <ele>470.399993896484375</ele>
        <time>2017-08-04T05:45:53.000Z</time>
        <extensions>
          <ns3:TrackPointExtension>
            <ns3:atemp>26.0</ns3:atemp>
          </ns3:TrackPointExtension>
        </extensions>
      </trkpt>
      <trkpt lat="31.711785010993480682373046875" lon="35.03287970088422298431396484375">
        <ele>470.399993896484375</ele>
        <time>2017-08-04T05:45:54.000Z</time>
        <extensions>
          <ns3:TrackPointExtension>
            <ns3:atemp>26.0</ns3:atemp>
          </ns3:TrackPointExtension>
        </extensions>
      </trkpt>
      <trkpt lat="31.71173731796443462371826171875" lon="35.03299972973763942718505859375">
        <ele>471.399993896484375</ele>
        <time>2017-08-04T05:46:02.000Z</time>
        <extensions>
          <ns3:TrackPointExtension>
            <ns3:atemp>26.0</ns3:atemp>
          </ns3:TrackPointExtension>
        </extensions>
      </trkpt>
      <trkpt lat="31.7117311991751194000244140625" lon="35.03301699645817279815673828125">
        <ele>471.399993896484375</ele>
        <time>2017-08-04T05:46:03.000Z</time>
        <extensions>
          <ns3:TrackPointExtension>
            <ns3:atemp>26.0</ns3:atemp>
          </ns3:TrackPointExtension>
        </extensions>
      </trkpt>
      <trkpt lat="31.711687780916690826416015625" lon="35.03316250629723072052001953125">
        <ele>472.399993896484375</ele>
        <time>2017-08-04T05:46:11.000Z</time>
        <extensions>
          <ns3:TrackPointExtension>
            <ns3:atemp>26.0</ns3:atemp>
          </ns3:TrackPointExtension>
        </extensions>
      </trkpt>
      <trkpt lat="31.71165366657078266143798828125" lon="35.033304579555988311767578125">
        <ele>473</ele>
        <time>2017-08-04T05:46:19.000Z</time>
        <extensions>
          <ns3:TrackPointExtension>
            <ns3:atemp>26.0</ns3:atemp>
          </ns3:TrackPointExtension>
        </extensions>
      </trkpt>
      <trkpt lat="31.7116566002368927001953125" lon="35.03338496200740337371826171875">
        <ele>473.399993896484375</ele>
        <time>2017-08-04T05:46:23.000Z</time>
        <extensions>
          <ns3:TrackPointExtension>
            <ns3:atemp>26.0</ns3:atemp>
          </ns3:TrackPointExtension>
        </extensions>
      </trkpt>
      <trkpt lat="31.711663305759429931640625" lon="35.03342167474329471588134765625">
        <ele>473.79998779296875</ele>
        <time>2017-08-04T05:46:25.000Z</time>
        <extensions>
          <ns3:TrackPointExtension>
            <ns3:atemp>26.0</ns3:atemp>
          </ns3:TrackPointExtension>
        </extensions>
      </trkpt>
      <trkpt lat="31.71166640706360340118408203125" lon="35.033443383872509002685546875">
        <ele>474</ele>
        <time>2017-08-04T05:46:26.000Z</time>
        <extensions>
          <ns3:TrackPointExtension>
            <ns3:atemp>26.0</ns3:atemp>
          </ns3:TrackPointExtension>
        </extensions>
      </trkpt>
      <trkpt lat="31.71167160384356975555419921875" lon="35.0335253588855266571044921875">
        <ele>474.600006103515625</ele>
        <time>2017-08-04T05:46:30.000Z</time>
        <extensions>
          <ns3:TrackPointExtension>
            <ns3:atemp>26.0</ns3:atemp>
          </ns3:TrackPointExtension>
        </extensions>
      </trkpt>
      <trkpt lat="31.7116809077560901641845703125" lon="35.033582188189029693603515625">
        <ele>475.20001220703125</ele>
        <time>2017-08-04T05:46:33.000Z</time>
        <extensions>
          <ns3:TrackPointExtension>
            <ns3:atemp>26.0</ns3:atemp>
          </ns3:TrackPointExtension>
        </extensions>
      </trkpt>
      <trkpt lat="31.71168602071702480316162109375" lon="35.0336608104407787322998046875">
        <ele>475.79998779296875</ele>
        <time>2017-08-04T05:46:37.000Z</time>
        <extensions>
          <ns3:TrackPointExtension>
            <ns3:atemp>26.0</ns3:atemp>
          </ns3:TrackPointExtension>
        </extensions>
      </trkpt>
      <trkpt lat="31.7116916365921497344970703125" lon="35.03371772356331348419189453125">
        <ele>476.20001220703125</ele>
        <time>2017-08-04T05:46:40.000Z</time>
        <extensions>
          <ns3:TrackPointExtension>
            <ns3:atemp>26.0</ns3:atemp>
          </ns3:TrackPointExtension>
        </extensions>
      </trkpt>
      <trkpt lat="31.71169373206794261932373046875" lon="35.03375644795596599578857421875">
        <ele>477</ele>
        <time>2017-08-04T05:46:43.000Z</time>
        <extensions>
          <ns3:TrackPointExtension>
            <ns3:atemp>26.0</ns3:atemp>
          </ns3:TrackPointExtension>
        </extensions>
      </trkpt>
      <trkpt lat="31.711690127849578857421875" lon="35.03380238078534603118896484375">
        <ele>477.399993896484375</ele>
        <time>2017-08-04T05:46:46.000Z</time>
        <extensions>
          <ns3:TrackPointExtension>
            <ns3:atemp>26.0</ns3:atemp>
          </ns3:TrackPointExtension>
        </extensions>
      </trkpt>
      <trkpt lat="31.71168736182153224945068359375" lon="35.03390329889953136444091796875">
        <ele>477.20001220703125</ele>
        <time>2017-08-04T05:46:50.000Z</time>
        <extensions>
          <ns3:TrackPointExtension>
            <ns3:atemp>26.0</ns3:atemp>
          </ns3:TrackPointExtension>
        </extensions>
      </trkpt>
      <trkpt lat="31.71170379035174846649169921875" lon="35.03402416594326496124267578125">
        <ele>478</ele>
        <time>2017-08-04T05:46:57.000Z</time>
        <extensions>
          <ns3:TrackPointExtension>
            <ns3:atemp>26.0</ns3:atemp>
          </ns3:TrackPointExtension>
        </extensions>
      </trkpt>
      <trkpt lat="31.71172432601451873779296875" lon="35.034128017723560333251953125">
        <ele>478.79998779296875</ele>
        <time>2017-08-04T05:47:03.000Z</time>
        <extensions>
          <ns3:TrackPointExtension>
            <ns3:atemp>27.0</ns3:atemp>
          </ns3:TrackPointExtension>
        </extensions>
      </trkpt>
      <trkpt lat="31.71176296658813953399658203125" lon="35.03422248177230358123779296875">
        <ele>479.20001220703125</ele>
        <time>2017-08-04T05:47:09.000Z</time>
        <extensions>
          <ns3:TrackPointExtension>
            <ns3:atemp>27.0</ns3:atemp>
          </ns3:TrackPointExtension>
        </extensions>
      </trkpt>
      <trkpt lat="31.71178400516510009765625" lon="35.034265480935573577880859375">
        <ele>479.79998779296875</ele>
        <time>2017-08-04T05:47:12.000Z</time>
        <extensions>
          <ns3:TrackPointExtension>
            <ns3:atemp>27.0</ns3:atemp>
          </ns3:TrackPointExtension>
        </extensions>
      </trkpt>
      <trkpt lat="31.71179599128663539886474609375" lon="35.03433731384575366973876953125">
        <ele>480.20001220703125</ele>
        <time>2017-08-04T05:47:16.000Z</time>
        <extensions>
          <ns3:TrackPointExtension>
            <ns3:atemp>27.0</ns3:atemp>
          </ns3:TrackPointExtension>
        </extensions>
      </trkpt>
      <trkpt lat="31.7118108272552490234375" lon="35.034383498132228851318359375">
        <ele>480.600006103515625</ele>
        <time>2017-08-04T05:47:19.000Z</time>
        <extensions>
          <ns3:TrackPointExtension>
            <ns3:atemp>27.0</ns3:atemp>
          </ns3:TrackPointExtension>
        </extensions>
      </trkpt>
      <trkpt lat="31.711851060390472412109375" lon="35.03448684699833393096923828125">
        <ele>481.20001220703125</ele>
        <time>2017-08-04T05:47:25.000Z</time>
        <extensions>
          <ns3:TrackPointExtension>
            <ns3:atemp>27.0</ns3:atemp>
          </ns3:TrackPointExtension>
        </extensions>
      </trkpt>
      <trkpt lat="31.7118632979691028594970703125" lon="35.03452138043940067291259765625">
        <ele>481.399993896484375</ele>
        <time>2017-08-04T05:47:27.000Z</time>
        <extensions>
          <ns3:TrackPointExtension>
            <ns3:atemp>27.0</ns3:atemp>
          </ns3:TrackPointExtension>
        </extensions>
      </trkpt>
      <trkpt lat="31.7118958197534084320068359375" lon="35.03462598659098148345947265625">
        <ele>482.20001220703125</ele>
        <time>2017-08-04T05:47:33.000Z</time>
        <extensions>
          <ns3:TrackPointExtension>
            <ns3:atemp>27.0</ns3:atemp>
          </ns3:TrackPointExtension>
        </extensions>
      </trkpt>
      <trkpt lat="31.711903698742389678955078125" lon="35.03466437570750713348388671875">
        <ele>482.399993896484375</ele>
        <time>2017-08-04T05:47:35.000Z</time>
        <extensions>
          <ns3:TrackPointExtension>
            <ns3:atemp>27.0</ns3:atemp>
          </ns3:TrackPointExtension>
        </extensions>
      </trkpt>
      <trkpt lat="31.71192071400582790374755859375" lon="35.0347420759499073028564453125">
        <ele>483.20001220703125</ele>
        <time>2017-08-04T05:47:40.000Z</time>
        <extensions>
          <ns3:TrackPointExtension>
            <ns3:atemp>27.0</ns3:atemp>
          </ns3:TrackPointExtension>
        </extensions>
      </trkpt>
      <trkpt lat="31.71195290051400661468505859375" lon="35.034841485321521759033203125">
        <ele>483.399993896484375</ele>
        <time>2017-08-04T05:47:45.000Z</time>
        <extensions>
          <ns3:TrackPointExtension>
            <ns3:atemp>27.0</ns3:atemp>
          </ns3:TrackPointExtension>
        </extensions>
      </trkpt>
      <trkpt lat="31.711996234953403472900390625" lon="35.0349419005215167999267578125">
        <ele>484.399993896484375</ele>
        <time>2017-08-04T05:47:52.000Z</time>
        <extensions>
          <ns3:TrackPointExtension>
            <ns3:atemp>27.0</ns3:atemp>
          </ns3:TrackPointExtension>
        </extensions>
      </trkpt>
      <trkpt lat="31.7120054550468921661376953125" lon="35.03495690412819385528564453125">
        <ele>484.600006103515625</ele>
        <time>2017-08-04T05:47:53.000Z</time>
        <extensions>
          <ns3:TrackPointExtension>
            <ns3:atemp>27.0</ns3:atemp>
          </ns3:TrackPointExtension>
        </extensions>
      </trkpt>
      <trkpt lat="31.7120523937046527862548828125" lon="35.03509260714054107666015625">
        <ele>485.600006103515625</ele>
        <time>2017-08-04T05:48:00.000Z</time>
        <extensions>
          <ns3:TrackPointExtension>
            <ns3:atemp>27.0</ns3:atemp>
          </ns3:TrackPointExtension>
        </extensions>
      </trkpt>
      <trkpt lat="31.71205700375139713287353515625" lon="35.03511297516524791717529296875">
        <ele>485.600006103515625</ele>
        <time>2017-08-04T05:48:01.000Z</time>
        <extensions>
          <ns3:TrackPointExtension>
            <ns3:atemp>27.0</ns3:atemp>
          </ns3:TrackPointExtension>
        </extensions>
      </trkpt>
      <trkpt lat="31.71210788190364837646484375" lon="35.0352461636066436767578125">
        <ele>486.399993896484375</ele>
        <time>2017-08-04T05:48:08.000Z</time>
        <extensions>
          <ns3:TrackPointExtension>
            <ns3:atemp>27.0</ns3:atemp>
          </ns3:TrackPointExtension>
        </extensions>
      </trkpt>
      <trkpt lat="31.71212070621550083160400390625" lon="35.0352892465889453887939453125">
        <ele>486.79998779296875</ele>
        <time>2017-08-04T05:48:10.000Z</time>
        <extensions>
          <ns3:TrackPointExtension>
            <ns3:atemp>27.0</ns3:atemp>
          </ns3:TrackPointExtension>
        </extensions>
      </trkpt>
      <trkpt lat="31.71215658076107501983642578125" lon="35.03539561294019222259521484375">
        <ele>487.399993896484375</ele>
        <time>2017-08-04T05:48:16.000Z</time>
        <extensions>
          <ns3:TrackPointExtension>
            <ns3:atemp>27.0</ns3:atemp>
          </ns3:TrackPointExtension>
        </extensions>
      </trkpt>
      <trkpt lat="31.71215490438044071197509765625" lon="35.0354478321969509124755859375">
        <ele>487.79998779296875</ele>
        <time>2017-08-04T05:48:19.000Z</time>
        <extensions>
          <ns3:TrackPointExtension>
            <ns3:atemp>27.0</ns3:atemp>
          </ns3:TrackPointExtension>
        </extensions>
      </trkpt>
      <trkpt lat="31.71215591020882129669189453125" lon="35.03547607921063899993896484375">
        <ele>488.399993896484375</ele>
        <time>2017-08-04T05:48:21.000Z</time>
        <extensions>
          <ns3:TrackPointExtension>
            <ns3:atemp>27.0</ns3:atemp>
          </ns3:TrackPointExtension>
        </extensions>
      </trkpt>
      <trkpt lat="31.7121559940278530120849609375" lon="35.03549217246472835540771484375">
        <ele>488.600006103515625</ele>
        <time>2017-08-04T05:48:22.000Z</time>
        <extensions>
          <ns3:TrackPointExtension>
            <ns3:atemp>27.0</ns3:atemp>
          </ns3:TrackPointExtension>
        </extensions>
      </trkpt>
      <trkpt lat="31.7121539823710918426513671875" lon="35.03550860099494457244873046875">
        <ele>488.79998779296875</ele>
        <time>2017-08-04T05:48:23.000Z</time>
        <extensions>
          <ns3:TrackPointExtension>
            <ns3:atemp>27.0</ns3:atemp>
          </ns3:TrackPointExtension>
        </extensions>
      </trkpt>
      <trkpt lat="31.71216554939746856689453125" lon="35.035578422248363494873046875">
        <ele>488.79998779296875</ele>
        <time>2017-08-04T05:48:26.000Z</time>
        <extensions>
          <ns3:TrackPointExtension>
            <ns3:atemp>27.0</ns3:atemp>
          </ns3:TrackPointExtension>
        </extensions>
      </trkpt>
      <trkpt lat="31.712171919643878936767578125" lon="35.0355960242450237274169921875">
        <ele>488.79998779296875</ele>
        <time>2017-08-04T05:48:27.000Z</time>
        <extensions>
          <ns3:TrackPointExtension>
            <ns3:atemp>27.0</ns3:atemp>
          </ns3:TrackPointExtension>
        </extensions>
      </trkpt>
      <trkpt lat="31.7121804691851139068603515625" lon="35.0356852076947689056396484375">
        <ele>489.79998779296875</ele>
        <time>2017-08-04T05:48:33.000Z</time>
        <extensions>
          <ns3:TrackPointExtension>
            <ns3:atemp>27.0</ns3:atemp>
          </ns3:TrackPointExtension>
        </extensions>
      </trkpt>
      <trkpt lat="31.7121849954128265380859375" lon="35.03570012748241424560546875">
        <ele>490</ele>
        <time>2017-08-04T05:48:34.000Z</time>
        <extensions>
          <ns3:TrackPointExtension>
            <ns3:atemp>27.0</ns3:atemp>
          </ns3:TrackPointExtension>
        </extensions>
      </trkpt>
      <trkpt lat="31.71219949610531330108642578125" lon="35.03576978109776973724365234375">
        <ele>491</ele>
        <time>2017-08-04T05:48:39.000Z</time>
        <extensions>
          <ns3:TrackPointExtension>
            <ns3:atemp>27.0</ns3:atemp>
          </ns3:TrackPointExtension>
        </extensions>
      </trkpt>
      <trkpt lat="31.71220050193369388580322265625" lon="35.03578889183700084686279296875">
        <ele>491.20001220703125</ele>
        <time>2017-08-04T05:48:40.000Z</time>
        <extensions>
          <ns3:TrackPointExtension>
            <ns3:atemp>27.0</ns3:atemp>
          </ns3:TrackPointExtension>
        </extensions>
      </trkpt>
      <trkpt lat="31.71220402233302593231201171875" lon="35.03589534200727939605712890625">
        <ele>492.20001220703125</ele>
        <time>2017-08-04T05:48:47.000Z</time>
        <extensions>
          <ns3:TrackPointExtension>
            <ns3:atemp>27.0</ns3:atemp>
          </ns3:TrackPointExtension>
        </extensions>
      </trkpt>
      <trkpt lat="31.7122091352939605712890625" lon="35.035906322300434112548828125">
        <ele>492.399993896484375</ele>
        <time>2017-08-04T05:48:48.000Z</time>
        <extensions>
          <ns3:TrackPointExtension>
            <ns3:atemp>27.0</ns3:atemp>
          </ns3:TrackPointExtension>
        </extensions>
      </trkpt>
      <trkpt lat="31.712216176092624664306640625" lon="35.0359182246029376983642578125">
        <ele>492.600006103515625</ele>
        <time>2017-08-04T05:48:54.000Z</time>
        <extensions>
          <ns3:TrackPointExtension>
            <ns3:atemp>27.0</ns3:atemp>
          </ns3:TrackPointExtension>
        </extensions>
      </trkpt>
      <trkpt lat="31.712216176092624664306640625" lon="35.0359182246029376983642578125">
        <ele>492.600006103515625</ele>
        <time>2017-08-04T05:49:05.000Z</time>
        <extensions>
          <ns3:TrackPointExtension>
            <ns3:atemp>27.0</ns3:atemp>
          </ns3:TrackPointExtension>
        </extensions>
      </trkpt>
      <trkpt lat="31.71221391297876834869384765625" lon="35.035923086106777191162109375">
        <ele>492.600006103515625</ele>
        <time>2017-08-04T05:49:10.000Z</time>
        <extensions>
          <ns3:TrackPointExtension>
            <ns3:atemp>27.0</ns3:atemp>
          </ns3:TrackPointExtension>
        </extensions>
      </trkpt>
      <trkpt lat="31.712207458913326263427734375" lon="35.03594898618757724761962890625">
        <ele>492.600006103515625</ele>
        <time>2017-08-04T05:49:12.000Z</time>
        <extensions>
          <ns3:TrackPointExtension>
            <ns3:atemp>27.0</ns3:atemp>
          </ns3:TrackPointExtension>
        </extensions>
      </trkpt>
      <trkpt lat="31.7122049443423748016357421875" lon="35.035968683660030364990234375">
        <ele>492.79998779296875</ele>
        <time>2017-08-04T05:49:13.000Z</time>
        <extensions>
          <ns3:TrackPointExtension>
            <ns3:atemp>27.0</ns3:atemp>
          </ns3:TrackPointExtension>
        </extensions>
      </trkpt>
      <trkpt lat="31.71219312585890293121337890625" lon="35.0360400974750518798828125">
        <ele>493.20001220703125</ele>
        <time>2017-08-04T05:49:16.000Z</time>
        <extensions>
          <ns3:TrackPointExtension>
            <ns3:atemp>27.0</ns3:atemp>
          </ns3:TrackPointExtension>
        </extensions>
      </trkpt>
      <trkpt lat="31.71219781972467899322509765625" lon="35.036058537662029266357421875">
        <ele>493.399993896484375</ele>
        <time>2017-08-04T05:49:17.000Z</time>
        <extensions>
          <ns3:TrackPointExtension>
            <ns3:atemp>27.0</ns3:atemp>
          </ns3:TrackPointExtension>
        </extensions>
      </trkpt>
      <trkpt lat="31.7122005857527256011962890625" lon="35.03609843552112579345703125">
        <ele>493.79998779296875</ele>
        <time>2017-08-04T05:49:19.000Z</time>
        <extensions>
          <ns3:TrackPointExtension>
            <ns3:atemp>27.0</ns3:atemp>
          </ns3:TrackPointExtension>
        </extensions>
      </trkpt>
      <trkpt lat="31.71219899319112300872802734375" lon="35.036161132156848907470703125">
        <ele>494.600006103515625</ele>
        <time>2017-08-04T05:49:22.000Z</time>
        <extensions>
          <ns3:TrackPointExtension>
            <ns3:atemp>27.0</ns3:atemp>
          </ns3:TrackPointExtension>
        </extensions>
      </trkpt>
      <trkpt lat="31.7121915332973003387451171875" lon="35.03622408024966716766357421875">
        <ele>495</ele>
        <time>2017-08-04T05:49:25.000Z</time>
        <extensions>
          <ns3:TrackPointExtension>
            <ns3:atemp>27.0</ns3:atemp>
          </ns3:TrackPointExtension>
        </extensions>
      </trkpt>
      <trkpt lat="31.71219237148761749267578125" lon="35.0362923927605152130126953125">
        <ele>495.600006103515625</ele>
        <time>2017-08-04T05:49:28.000Z</time>
        <extensions>
          <ns3:TrackPointExtension>
            <ns3:atemp>27.0</ns3:atemp>
          </ns3:TrackPointExtension>
        </extensions>
      </trkpt>
      <trkpt lat="31.712192036211490631103515625" lon="35.0363512337207794189453125">
        <ele>496</ele>
        <time>2017-08-04T05:49:31.000Z</time>
        <extensions>
          <ns3:TrackPointExtension>
            <ns3:atemp>27.0</ns3:atemp>
          </ns3:TrackPointExtension>
        </extensions>
      </trkpt>
      <trkpt lat="31.7121995799243450164794921875" lon="35.0364265032112598419189453125">
        <ele>496.600006103515625</ele>
        <time>2017-08-04T05:49:35.000Z</time>
        <extensions>
          <ns3:TrackPointExtension>
            <ns3:atemp>27.0</ns3:atemp>
          </ns3:TrackPointExtension>
        </extensions>
      </trkpt>
      <trkpt lat="31.712205111980438232421875" lon="35.0364928878843784332275390625">
        <ele>497.20001220703125</ele>
        <time>2017-08-04T05:49:38.000Z</time>
        <extensions>
          <ns3:TrackPointExtension>
            <ns3:atemp>27.0</ns3:atemp>
          </ns3:TrackPointExtension>
        </extensions>
      </trkpt>
      <trkpt lat="31.7122082971036434173583984375" lon="35.03658123314380645751953125">
        <ele>497.79998779296875</ele>
        <time>2017-08-04T05:49:42.000Z</time>
        <extensions>
          <ns3:TrackPointExtension>
            <ns3:atemp>27.0</ns3:atemp>
          </ns3:TrackPointExtension>
        </extensions>
      </trkpt>
      <trkpt lat="31.71218776144087314605712890625" lon="35.03665306605398654937744140625">
        <ele>498.399993896484375</ele>
        <time>2017-08-04T05:49:46.000Z</time>
        <extensions>
          <ns3:TrackPointExtension>
            <ns3:atemp>27.0</ns3:atemp>
          </ns3:TrackPointExtension>
        </extensions>
      </trkpt>
      <trkpt lat="31.7121823132038116455078125" lon="35.0367106497287750244140625">
        <ele>498.79998779296875</ele>
        <time>2017-08-04T05:49:48.000Z</time>
        <extensions>
          <ns3:TrackPointExtension>
            <ns3:atemp>27.0</ns3:atemp>
          </ns3:TrackPointExtension>
        </extensions>
      </trkpt>
      <trkpt lat="31.71218826435506343841552734375" lon="35.03676320426166057586669921875">
        <ele>498.79998779296875</ele>
        <time>2017-08-04T05:49:50.000Z</time>
        <extensions>
          <ns3:TrackPointExtension>
            <ns3:atemp>27.0</ns3:atemp>
          </ns3:TrackPointExtension>
        </extensions>
      </trkpt>
      <trkpt lat="31.71219128184020519256591796875" lon="35.0368650443851947784423828125">
        <ele>499.79998779296875</ele>
        <time>2017-08-04T05:49:55.000Z</time>
        <extensions>
          <ns3:TrackPointExtension>
            <ns3:atemp>27.0</ns3:atemp>
          </ns3:TrackPointExtension>
        </extensions>
      </trkpt>
      <trkpt lat="31.71219379641115665435791015625" lon="35.0368861667811870574951171875">
        <ele>500</ele>
        <time>2017-08-04T05:49:56.000Z</time>
        <extensions>
          <ns3:TrackPointExtension>
            <ns3:atemp>27.0</ns3:atemp>
          </ns3:TrackPointExtension>
        </extensions>
      </trkpt>
      <trkpt lat="31.7122012563049793243408203125" lon="35.0369753502309322357177734375">
        <ele>500.79998779296875</ele>
        <time>2017-08-04T05:50:00.000Z</time>
        <extensions>
          <ns3:TrackPointExtension>
            <ns3:atemp>27.0</ns3:atemp>
          </ns3:TrackPointExtension>
        </extensions>
      </trkpt>
      <trkpt lat="31.7122046090662479400634765625" lon="35.0370420701801776885986328125">
        <ele>501.20001220703125</ele>
        <time>2017-08-04T05:50:03.000Z</time>
        <extensions>
          <ns3:TrackPointExtension>
            <ns3:atemp>27.0</ns3:atemp>
          </ns3:TrackPointExtension>
        </extensions>
      </trkpt>
      <trkpt lat="31.7122091352939605712890625" lon="35.03711675293743610382080078125">
        <ele>502</ele>
        <time>2017-08-04T05:50:07.000Z</time>
        <extensions>
          <ns3:TrackPointExtension>
            <ns3:atemp>27.0</ns3:atemp>
          </ns3:TrackPointExtension>
        </extensions>
      </trkpt>
      <trkpt lat="31.71221307478845119476318359375" lon="35.03718280233442783355712890625">
        <ele>502.399993896484375</ele>
        <time>2017-08-04T05:50:10.000Z</time>
        <extensions>
          <ns3:TrackPointExtension>
            <ns3:atemp>27.0</ns3:atemp>
          </ns3:TrackPointExtension>
        </extensions>
      </trkpt>
      <trkpt lat="31.71221860684454441070556640625" lon="35.0372529588639736175537109375">
        <ele>503.20001220703125</ele>
        <time>2017-08-04T05:50:13.000Z</time>
        <extensions>
          <ns3:TrackPointExtension>
            <ns3:atemp>27.0</ns3:atemp>
          </ns3:TrackPointExtension>
        </extensions>
      </trkpt>
      <trkpt lat="31.71222430653870105743408203125" lon="35.03731003962457180023193359375">
        <ele>503.79998779296875</ele>
        <time>2017-08-04T05:50:16.000Z</time>
        <extensions>
          <ns3:TrackPointExtension>
            <ns3:atemp>27.0</ns3:atemp>
          </ns3:TrackPointExtension>
        </extensions>
      </trkpt>
      <trkpt lat="31.71223520301282405853271484375" lon="35.037346668541431427001953125">
        <ele>504.20001220703125</ele>
        <time>2017-08-04T05:50:18.000Z</time>
        <extensions>
          <ns3:TrackPointExtension>
            <ns3:atemp>27.0</ns3:atemp>
          </ns3:TrackPointExtension>
        </extensions>
      </trkpt>
      <trkpt lat="31.7122495360672473907470703125" lon="35.03747315146028995513916015625">
        <ele>505</ele>
        <time>2017-08-04T05:50:24.000Z</time>
        <extensions>
          <ns3:TrackPointExtension>
            <ns3:atemp>27.0</ns3:atemp>
          </ns3:TrackPointExtension>
        </extensions>
      </trkpt>
      <trkpt lat="31.7122545652091503143310546875" lon="35.03751036711037158966064453125">
        <ele>505.399993896484375</ele>
        <time>2017-08-04T05:50:26.000Z</time>
        <extensions>
          <ns3:TrackPointExtension>
            <ns3:atemp>27.0</ns3:atemp>
          </ns3:TrackPointExtension>
        </extensions>
      </trkpt>
      <trkpt lat="31.71230091713368892669677734375" lon="35.037669204175472259521484375">
        <ele>506.399993896484375</ele>
        <time>2017-08-04T05:50:34.000Z</time>
        <extensions>
          <ns3:TrackPointExtension>
            <ns3:atemp>27.0</ns3:atemp>
          </ns3:TrackPointExtension>
        </extensions>
      </trkpt>
      <trkpt lat="31.71230795793235301971435546875" lon="35.03768756054341793060302734375">
        <ele>506.600006103515625</ele>
        <time>2017-08-04T05:50:35.000Z</time>
        <extensions>
          <ns3:TrackPointExtension>
            <ns3:atemp>27.0</ns3:atemp>
          </ns3:TrackPointExtension>
        </extensions>
      </trkpt>
      <trkpt lat="31.71236805617809295654296875" lon="35.037824101746082305908203125">
        <ele>507.600006103515625</ele>
        <time>2017-08-04T05:50:42.000Z</time>
        <extensions>
          <ns3:TrackPointExtension>
            <ns3:atemp>27.0</ns3:atemp>
          </ns3:TrackPointExtension>
        </extensions>
      </trkpt>
      <trkpt lat="31.71243720687925815582275390625" lon="35.03796483390033245086669921875">
        <ele>508.399993896484375</ele>
        <time>2017-08-04T05:50:49.000Z</time>
        <extensions>
          <ns3:TrackPointExtension>
            <ns3:atemp>27.0</ns3:atemp>
          </ns3:TrackPointExtension>
        </extensions>
      </trkpt>
      <trkpt lat="31.71245246194303035736083984375" lon="35.03799752332270145416259765625">
        <ele>508.600006103515625</ele>
        <time>2017-08-04T05:50:51.000Z</time>
        <extensions>
          <ns3:TrackPointExtension>
            <ns3:atemp>27.0</ns3:atemp>
          </ns3:TrackPointExtension>
        </extensions>
      </trkpt>
      <trkpt lat="31.712486743927001953125" lon="35.03808653913438320159912109375">
        <ele>509.20001220703125</ele>
        <time>2017-08-04T05:50:55.000Z</time>
        <extensions>
          <ns3:TrackPointExtension>
            <ns3:atemp>27.0</ns3:atemp>
          </ns3:TrackPointExtension>
        </extensions>
      </trkpt>
      <trkpt lat="31.7125532962381839752197265625" lon="35.0382252596318721771240234375">
        <ele>510</ele>
        <time>2017-08-04T05:51:01.000Z</time>
        <extensions>
          <ns3:TrackPointExtension>
            <ns3:atemp>27.0</ns3:atemp>
          </ns3:TrackPointExtension>
        </extensions>
      </trkpt>
      <trkpt lat="31.7125626839697360992431640625" lon="35.03825224936008453369140625">
        <ele>510.20001220703125</ele>
        <time>2017-08-04T05:51:02.000Z</time>
        <extensions>
          <ns3:TrackPointExtension>
            <ns3:atemp>27.0</ns3:atemp>
          </ns3:TrackPointExtension>
        </extensions>
      </trkpt>
      <trkpt lat="31.71262479387223720550537109375" lon="35.03839968703687191009521484375">
        <ele>511</ele>
        <time>2017-08-04T05:51:08.000Z</time>
        <extensions>
          <ns3:TrackPointExtension>
            <ns3:atemp>27.0</ns3:atemp>
          </ns3:TrackPointExtension>
        </extensions>
      </trkpt>
      <trkpt lat="31.712637282907962799072265625" lon="35.0384234078228473663330078125">
        <ele>511</ele>
        <time>2017-08-04T05:51:09.000Z</time>
        <extensions>
          <ns3:TrackPointExtension>
            <ns3:atemp>27.0</ns3:atemp>
          </ns3:TrackPointExtension>
        </extensions>
      </trkpt>
      <trkpt lat="31.712693609297275543212890625" lon="35.03853513859212398529052734375">
        <ele>512.20001220703125</ele>
        <time>2017-08-04T05:51:14.000Z</time>
        <extensions>
          <ns3:TrackPointExtension>
            <ns3:atemp>27.0</ns3:atemp>
          </ns3:TrackPointExtension>
        </extensions>
      </trkpt>
      <trkpt lat="31.7127165757119655609130859375" lon="35.0385774672031402587890625">
        <ele>512.20001220703125</ele>
        <time>2017-08-04T05:51:16.000Z</time>
        <extensions>
          <ns3:TrackPointExtension>
            <ns3:atemp>27.0</ns3:atemp>
          </ns3:TrackPointExtension>
        </extensions>
      </trkpt>
      <trkpt lat="31.712768711149692535400390625" lon="35.03867645747959613800048828125">
        <ele>513</ele>
        <time>2017-08-04T05:51:21.000Z</time>
        <extensions>
          <ns3:TrackPointExtension>
            <ns3:atemp>27.0</ns3:atemp>
          </ns3:TrackPointExtension>
        </extensions>
      </trkpt>
      <trkpt lat="31.71277583576738834381103515625" lon="35.0386909581720829010009765625">
        <ele>513.4000244140625</ele>
        <time>2017-08-04T05:51:22.000Z</time>
        <extensions>
          <ns3:TrackPointExtension>
            <ns3:atemp>27.0</ns3:atemp>
          </ns3:TrackPointExtension>
        </extensions>
      </trkpt>
      <trkpt lat="31.71278270892798900604248046875" lon="35.0387142598628997802734375">
        <ele>513.5999755859375</ele>
        <time>2017-08-04T05:51:23.000Z</time>
        <extensions>
          <ns3:TrackPointExtension>
            <ns3:atemp>27.0</ns3:atemp>
          </ns3:TrackPointExtension>
        </extensions>
      </trkpt>
      <trkpt lat="31.71283333562314510345458984375" lon="35.03883839584887027740478515625">
        <ele>514</ele>
        <time>2017-08-04T05:51:28.000Z</time>
        <extensions>
          <ns3:TrackPointExtension>
            <ns3:atemp>27.0</ns3:atemp>
          </ns3:TrackPointExtension>
        </extensions>
      </trkpt>
      <trkpt lat="31.71286468394100666046142578125" lon="35.0389065407216548919677734375">
        <ele>514.5999755859375</ele>
        <time>2017-08-04T05:51:31.000Z</time>
        <extensions>
          <ns3:TrackPointExtension>
            <ns3:atemp>27.0</ns3:atemp>
          </ns3:TrackPointExtension>
        </extensions>
      </trkpt>
      <trkpt lat="31.71290676109492778778076171875" lon="35.0389967299997806549072265625">
        <ele>515.5999755859375</ele>
        <time>2017-08-04T05:51:35.000Z</time>
        <extensions>
          <ns3:TrackPointExtension>
            <ns3:atemp>27.0</ns3:atemp>
          </ns3:TrackPointExtension>
        </extensions>
      </trkpt>
      <trkpt lat="31.71291933394968509674072265625" lon="35.03901894204318523406982421875">
        <ele>515.79998779296875</ele>
        <time>2017-08-04T05:51:36.000Z</time>
        <extensions>
          <ns3:TrackPointExtension>
            <ns3:atemp>27.0</ns3:atemp>
          </ns3:TrackPointExtension>
        </extensions>
      </trkpt>
      <trkpt lat="31.71298152767121791839599609375" lon="35.03913176245987415313720703125">
        <ele>516.5999755859375</ele>
        <time>2017-08-04T05:51:41.000Z</time>
        <extensions>
          <ns3:TrackPointExtension>
            <ns3:atemp>27.0</ns3:atemp>
          </ns3:TrackPointExtension>
        </extensions>
      </trkpt>
      <trkpt lat="31.71300298534333705902099609375" lon="35.0391747616231441497802734375">
        <ele>517</ele>
        <time>2017-08-04T05:51:43.000Z</time>
        <extensions>
          <ns3:TrackPointExtension>
            <ns3:atemp>27.0</ns3:atemp>
          </ns3:TrackPointExtension>
        </extensions>
      </trkpt>
      <trkpt lat="31.71303198672831058502197265625" lon="35.0392367877066135406494140625">
        <ele>517.79998779296875</ele>
        <time>2017-08-04T05:51:46.000Z</time>
        <extensions>
          <ns3:TrackPointExtension>
            <ns3:atemp>27.0</ns3:atemp>
          </ns3:TrackPointExtension>
        </extensions>
      </trkpt>
      <trkpt lat="31.7130833677947521209716796875" lon="35.039344914257526397705078125">
        <ele>519</ele>
        <time>2017-08-04T05:51:51.000Z</time>
        <extensions>
          <ns3:TrackPointExtension>
            <ns3:atemp>27.0</ns3:atemp>
          </ns3:TrackPointExtension>
        </extensions>
      </trkpt>
      <trkpt lat="31.71317012049257755279541015625" lon="35.0394734926521778106689453125">
        <ele>520</ele>
        <time>2017-08-04T05:51:58.000Z</time>
        <extensions>
          <ns3:TrackPointExtension>
            <ns3:atemp>27.0</ns3:atemp>
          </ns3:TrackPointExtension>
        </extensions>
      </trkpt>
      <trkpt lat="31.71317984350025653839111328125" lon="35.03948564641177654266357421875">
        <ele>520.20001220703125</ele>
        <time>2017-08-04T05:51:59.000Z</time>
        <extensions>
          <ns3:TrackPointExtension>
            <ns3:atemp>27.0</ns3:atemp>
          </ns3:TrackPointExtension>
        </extensions>
      </trkpt>
      <trkpt lat="31.7132095992565155029296875" lon="35.0395412184298038482666015625">
        <ele>521</ele>
        <time>2017-08-04T05:52:02.000Z</time>
        <extensions>
          <ns3:TrackPointExtension>
            <ns3:atemp>27.0</ns3:atemp>
          </ns3:TrackPointExtension>
        </extensions>
      </trkpt>
      <trkpt lat="31.71323482878506183624267578125" lon="35.03959335386753082275390625">
        <ele>520.79998779296875</ele>
        <time>2017-08-04T05:52:04.000Z</time>
        <extensions>
          <ns3:TrackPointExtension>
            <ns3:atemp>27.0</ns3:atemp>
          </ns3:TrackPointExtension>
        </extensions>
      </trkpt>
      <trkpt lat="31.7133100144565105438232421875" lon="35.03973157145082950592041015625">
        <ele>521.5999755859375</ele>
        <time>2017-08-04T05:52:11.000Z</time>
        <extensions>
          <ns3:TrackPointExtension>
            <ns3:atemp>27.0</ns3:atemp>
          </ns3:TrackPointExtension>
        </extensions>
      </trkpt>
      <trkpt lat="31.71334831975400447845458984375" lon="35.03979929722845554351806640625">
        <ele>522.20001220703125</ele>
        <time>2017-08-04T05:52:14.000Z</time>
        <extensions>
          <ns3:TrackPointExtension>
            <ns3:atemp>27.0</ns3:atemp>
          </ns3:TrackPointExtension>
        </extensions>
      </trkpt>
      <trkpt lat="31.7134132795035839080810546875" lon="35.03988864831626415252685546875">
        <ele>523</ele>
        <time>2017-08-04T05:52:19.000Z</time>
        <extensions>
          <ns3:TrackPointExtension>
            <ns3:atemp>27.0</ns3:atemp>
          </ns3:TrackPointExtension>
        </extensions>
      </trkpt>
      <trkpt lat="31.7134421132504940032958984375" lon="35.0399241037666797637939453125">
        <ele>523.4000244140625</ele>
        <time>2017-08-04T05:52:21.000Z</time>
        <extensions>
          <ns3:TrackPointExtension>
            <ns3:atemp>27.0</ns3:atemp>
          </ns3:TrackPointExtension>
        </extensions>
      </trkpt>
      <trkpt lat="31.71350472606718540191650390625" lon="35.04002057947218418121337890625">
        <ele>524.20001220703125</ele>
        <time>2017-08-04T05:52:26.000Z</time>
        <extensions>
          <ns3:TrackPointExtension>
            <ns3:atemp>27.0</ns3:atemp>
          </ns3:TrackPointExtension>
        </extensions>
      </trkpt>
      <trkpt lat="31.71353154815733432769775390625" lon="35.0400528497993946075439453125">
        <ele>524.5999755859375</ele>
        <time>2017-08-04T05:52:28.000Z</time>
        <extensions>
          <ns3:TrackPointExtension>
            <ns3:atemp>27.0</ns3:atemp>
          </ns3:TrackPointExtension>
        </extensions>
      </trkpt>
      <trkpt lat="31.71361369080841541290283203125" lon="35.04015200771391391754150390625">
        <ele>525.5999755859375</ele>
        <time>2017-08-04T05:52:34.000Z</time>
        <extensions>
          <ns3:TrackPointExtension>
            <ns3:atemp>27.0</ns3:atemp>
          </ns3:TrackPointExtension>
        </extensions>
      </trkpt>
      <trkpt lat="31.7136503197252750396728515625" lon="35.04019509069621562957763671875">
        <ele>526.4000244140625</ele>
        <time>2017-08-04T05:52:37.000Z</time>
        <extensions>
          <ns3:TrackPointExtension>
            <ns3:atemp>27.0</ns3:atemp>
          </ns3:TrackPointExtension>
        </extensions>
      </trkpt>
      <trkpt lat="31.71367605216801166534423828125" lon="35.04023549146950244903564453125">
        <ele>526.20001220703125</ele>
        <time>2017-08-04T05:52:39.000Z</time>
        <extensions>
          <ns3:TrackPointExtension>
            <ns3:atemp>27.0</ns3:atemp>
          </ns3:TrackPointExtension>
        </extensions>
      </trkpt>
      <trkpt lat="31.71371184289455413818359375" lon="35.040282346308231353759765625">
        <ele>526.5999755859375</ele>
        <time>2017-08-04T05:52:42.000Z</time>
        <extensions>
          <ns3:TrackPointExtension>
            <ns3:atemp>27.0</ns3:atemp>
          </ns3:TrackPointExtension>
        </extensions>
      </trkpt>
      <trkpt lat="31.71373439021408557891845703125" lon="35.04031294025480747222900390625">
        <ele>527</ele>
        <time>2017-08-04T05:52:44.000Z</time>
        <extensions>
          <ns3:TrackPointExtension>
            <ns3:atemp>27.0</ns3:atemp>
          </ns3:TrackPointExtension>
        </extensions>
      </trkpt>
      <trkpt lat="31.71378300525248050689697265625" lon="35.04038603045046329498291015625">
        <ele>527.79998779296875</ele>
        <time>2017-08-04T05:52:48.000Z</time>
        <extensions>
          <ns3:TrackPointExtension>
            <ns3:atemp>27.0</ns3:atemp>
          </ns3:TrackPointExtension>
        </extensions>
      </trkpt>
      <trkpt lat="31.7138223163783550262451171875" lon="35.04043732769787311553955078125">
        <ele>528.4000244140625</ele>
        <time>2017-08-04T05:52:51.000Z</time>
        <extensions>
          <ns3:TrackPointExtension>
            <ns3:atemp>27.0</ns3:atemp>
          </ns3:TrackPointExtension>
        </extensions>
      </trkpt>
      <trkpt lat="31.71386179514229297637939453125" lon="35.04048678092658519744873046875">
        <ele>529</ele>
        <time>2017-08-04T05:52:54.000Z</time>
        <extensions>
          <ns3:TrackPointExtension>
            <ns3:atemp>27.0</ns3:atemp>
          </ns3:TrackPointExtension>
        </extensions>
      </trkpt>
      <trkpt lat="31.71392700634896755218505859375" lon="35.0405524112284183502197265625">
        <ele>529.5999755859375</ele>
        <time>2017-08-04T05:52:59.000Z</time>
        <extensions>
          <ns3:TrackPointExtension>
            <ns3:atemp>27.0</ns3:atemp>
          </ns3:TrackPointExtension>
        </extensions>
      </trkpt>
      <trkpt lat="31.71395081095397472381591796875" lon="35.040577389299869537353515625">
        <ele>530.20001220703125</ele>
        <time>2017-08-04T05:53:01.000Z</time>
        <extensions>
          <ns3:TrackPointExtension>
            <ns3:atemp>27.0</ns3:atemp>
          </ns3:TrackPointExtension>
        </extensions>
      </trkpt>
      <trkpt lat="31.71402054838836193084716796875" lon="35.04064251668751239776611328125">
        <ele>531</ele>
        <time>2017-08-04T05:53:06.000Z</time>
        <extensions>
          <ns3:TrackPointExtension>
            <ns3:atemp>27.0</ns3:atemp>
          </ns3:TrackPointExtension>
        </extensions>
      </trkpt>
      <trkpt lat="31.71404385007917881011962890625" lon="35.0406640581786632537841796875">
        <ele>531.20001220703125</ele>
        <time>2017-08-04T05:53:08.000Z</time>
        <extensions>
          <ns3:TrackPointExtension>
            <ns3:atemp>27.0</ns3:atemp>
          </ns3:TrackPointExtension>
        </extensions>
      </trkpt>
      <trkpt lat="31.71410134993493556976318359375" lon="35.040718205273151397705078125">
        <ele>531.79998779296875</ele>
        <time>2017-08-04T05:53:13.000Z</time>
        <extensions>
          <ns3:TrackPointExtension>
            <ns3:atemp>27.0</ns3:atemp>
          </ns3:TrackPointExtension>
        </extensions>
      </trkpt>
      <trkpt lat="31.71416471712291240692138671875" lon="35.04080361686646938323974609375">
        <ele>532</ele>
        <time>2017-08-04T05:53:18.000Z</time>
        <extensions>
          <ns3:TrackPointExtension>
            <ns3:atemp>27.0</ns3:atemp>
          </ns3:TrackPointExtension>
        </extensions>
      </trkpt>
      <trkpt lat="31.714189611375331878662109375" lon="35.0408310256898403167724609375">
        <ele>532.4000244140625</ele>
        <time>2017-08-04T05:53:20.000Z</time>
        <extensions>
          <ns3:TrackPointExtension>
            <ns3:atemp>27.0</ns3:atemp>
          </ns3:TrackPointExtension>
        </extensions>
      </trkpt>
      <trkpt lat="31.71425004489719867706298828125" lon="35.04091442562639713287353515625">
        <ele>533.5999755859375</ele>
        <time>2017-08-04T05:53:25.000Z</time>
        <extensions>
          <ns3:TrackPointExtension>
            <ns3:atemp>27.0</ns3:atemp>
          </ns3:TrackPointExtension>
        </extensions>
      </trkpt>
      <trkpt lat="31.71433277428150177001953125" lon="35.0409879349172115325927734375">
        <ele>534.4000244140625</ele>
        <time>2017-08-04T05:53:31.000Z</time>
        <extensions>
          <ns3:TrackPointExtension>
            <ns3:atemp>27.0</ns3:atemp>
          </ns3:TrackPointExtension>
        </extensions>
      </trkpt>
      <trkpt lat="31.71434392221271991729736328125" lon="35.0409973226487636566162109375">
        <ele>534.5999755859375</ele>
        <time>2017-08-04T05:53:32.000Z</time>
        <extensions>
          <ns3:TrackPointExtension>
            <ns3:atemp>27.0</ns3:atemp>
          </ns3:TrackPointExtension>
        </extensions>
      </trkpt>
      <trkpt lat="31.71442539431154727935791015625" lon="35.04108005203306674957275390625">
        <ele>535.20001220703125</ele>
        <time>2017-08-04T05:53:38.000Z</time>
        <extensions>
          <ns3:TrackPointExtension>
            <ns3:atemp>27.0</ns3:atemp>
          </ns3:TrackPointExtension>
        </extensions>
      </trkpt>
      <trkpt lat="31.71446395106613636016845703125" lon="35.04112095572054386138916015625">
        <ele>535.5999755859375</ele>
        <time>2017-08-04T05:53:41.000Z</time>
        <extensions>
          <ns3:TrackPointExtension>
            <ns3:atemp>27.0</ns3:atemp>
          </ns3:TrackPointExtension>
        </extensions>
      </trkpt>
      <trkpt lat="31.714533604681491851806640625" lon="35.041192285716533660888671875">
        <ele>536</ele>
        <time>2017-08-04T05:53:46.000Z</time>
        <extensions>
          <ns3:TrackPointExtension>
            <ns3:atemp>27.0</ns3:atemp>
          </ns3:TrackPointExtension>
        </extensions>
      </trkpt>
      <trkpt lat="31.7145743407309055328369140625" lon="35.0412363745272159576416015625">
        <ele>536.79998779296875</ele>
        <time>2017-08-04T05:53:49.000Z</time>
        <extensions>
          <ns3:TrackPointExtension>
            <ns3:atemp>27.0</ns3:atemp>
          </ns3:TrackPointExtension>
        </extensions>
      </trkpt>
      <trkpt lat="31.71462756581604480743408203125" lon="35.04129429347813129425048828125">
        <ele>537.20001220703125</ele>
        <time>2017-08-04T05:53:53.000Z</time>
        <extensions>
          <ns3:TrackPointExtension>
            <ns3:atemp>27.0</ns3:atemp>
          </ns3:TrackPointExtension>
        </extensions>
      </trkpt>
      <trkpt lat="31.71469713561236858367919921875" lon="35.04136838950216770172119140625">
        <ele>537.5999755859375</ele>
        <time>2017-08-04T05:53:58.000Z</time>
        <extensions>
          <ns3:TrackPointExtension>
            <ns3:atemp>27.0</ns3:atemp>
          </ns3:TrackPointExtension>
        </extensions>
      </trkpt>
      <trkpt lat="31.7147268913686275482177734375" lon="35.04140342585742473602294921875">
        <ele>537.79998779296875</ele>
        <time>2017-08-04T05:54:00.000Z</time>
        <extensions>
          <ns3:TrackPointExtension>
            <ns3:atemp>27.0</ns3:atemp>
          </ns3:TrackPointExtension>
        </extensions>
      </trkpt>
      <trkpt lat="31.7147785238921642303466796875" lon="35.0414670445024967193603515625">
        <ele>538.5999755859375</ele>
        <time>2017-08-04T05:54:04.000Z</time>
        <extensions>
          <ns3:TrackPointExtension>
            <ns3:atemp>27.0</ns3:atemp>
          </ns3:TrackPointExtension>
        </extensions>
      </trkpt>
      <trkpt lat="31.714797802269458770751953125" lon="35.041498728096485137939453125">
        <ele>539</ele>
        <time>2017-08-04T05:54:06.000Z</time>
        <extensions>
          <ns3:TrackPointExtension>
            <ns3:atemp>27.0</ns3:atemp>
          </ns3:TrackPointExtension>
        </extensions>
      </trkpt>
      <trkpt lat="31.7148378677666187286376953125" lon="35.04156209528446197509765625">
        <ele>539.79998779296875</ele>
        <time>2017-08-04T05:54:10.000Z</time>
        <extensions>
          <ns3:TrackPointExtension>
            <ns3:atemp>27.0</ns3:atemp>
          </ns3:TrackPointExtension>
        </extensions>
      </trkpt>
      <trkpt lat="31.71485454775393009185791015625" lon="35.04159637726843357086181640625">
        <ele>540.20001220703125</ele>
        <time>2017-08-04T05:54:12.000Z</time>
        <extensions>
          <ns3:TrackPointExtension>
            <ns3:atemp>27.0</ns3:atemp>
          </ns3:TrackPointExtension>
        </extensions>
      </trkpt>
      <trkpt lat="31.7148951999843120574951171875" lon="35.04166108556091785430908203125">
        <ele>541</ele>
        <time>2017-08-04T05:54:16.000Z</time>
        <extensions>
          <ns3:TrackPointExtension>
            <ns3:atemp>27.0</ns3:atemp>
          </ns3:TrackPointExtension>
        </extensions>
      </trkpt>
      <trkpt lat="31.71490349806845188140869140625" lon="35.04167734645307064056396484375">
        <ele>541.20001220703125</ele>
        <time>2017-08-04T05:54:17.000Z</time>
        <extensions>
          <ns3:TrackPointExtension>
            <ns3:atemp>27.0</ns3:atemp>
          </ns3:TrackPointExtension>
        </extensions>
      </trkpt>
      <trkpt lat="31.714951358735561370849609375" lon="35.0417741574347019195556640625">
        <ele>542.20001220703125</ele>
        <time>2017-08-04T05:54:23.000Z</time>
        <extensions>
          <ns3:TrackPointExtension>
            <ns3:atemp>27.0</ns3:atemp>
          </ns3:TrackPointExtension>
        </extensions>
      </trkpt>
      <trkpt lat="31.71500139869749546051025390625" lon="35.0418874807655811309814453125">
        <ele>543.20001220703125</ele>
        <time>2017-08-04T05:54:30.000Z</time>
        <extensions>
          <ns3:TrackPointExtension>
            <ns3:atemp>28.0</ns3:atemp>
          </ns3:TrackPointExtension>
        </extensions>
      </trkpt>
      <trkpt lat="31.71504347585141658782958984375" lon="35.041995607316493988037109375">
        <ele>544.5999755859375</ele>
        <time>2017-08-04T05:54:37.000Z</time>
        <extensions>
          <ns3:TrackPointExtension>
            <ns3:atemp>28.0</ns3:atemp>
          </ns3:TrackPointExtension>
        </extensions>
      </trkpt>
      <trkpt lat="31.7150584794580936431884765625" lon="35.04211538471281528472900390625">
        <ele>545</ele>
        <time>2017-08-04T05:54:43.000Z</time>
        <extensions>
          <ns3:TrackPointExtension>
            <ns3:atemp>28.0</ns3:atemp>
          </ns3:TrackPointExtension>
        </extensions>
      </trkpt>
      <trkpt lat="31.7150705493986606597900390625" lon="35.04223407246172428131103515625">
        <ele>545.79998779296875</ele>
        <time>2017-08-04T05:54:49.000Z</time>
        <extensions>
          <ns3:TrackPointExtension>
            <ns3:atemp>28.0</ns3:atemp>
          </ns3:TrackPointExtension>
        </extensions>
      </trkpt>
      <trkpt lat="31.7150755785405635833740234375" lon="35.04225670360028743743896484375">
        <ele>545.79998779296875</ele>
        <time>2017-08-04T05:54:50.000Z</time>
        <extensions>
          <ns3:TrackPointExtension>
            <ns3:atemp>28.0</ns3:atemp>
          </ns3:TrackPointExtension>
        </extensions>
      </trkpt>
      <trkpt lat="31.71508002094924449920654296875" lon="35.04244881682097911834716796875">
        <ele>546.79998779296875</ele>
        <time>2017-08-04T05:54:59.000Z</time>
        <extensions>
          <ns3:TrackPointExtension>
            <ns3:atemp>28.0</ns3:atemp>
          </ns3:TrackPointExtension>
        </extensions>
      </trkpt>
      <trkpt lat="31.71507901512086391448974609375" lon="35.04246943630278110504150390625">
        <ele>546.79998779296875</ele>
        <time>2017-08-04T05:55:00.000Z</time>
        <extensions>
          <ns3:TrackPointExtension>
            <ns3:atemp>28.0</ns3:atemp>
          </ns3:TrackPointExtension>
        </extensions>
      </trkpt>
      <trkpt lat="31.71505051665008068084716796875" lon="35.042606480419635772705078125">
        <ele>547.79998779296875</ele>
        <time>2017-08-04T05:55:07.000Z</time>
        <extensions>
          <ns3:TrackPointExtension>
            <ns3:atemp>28.0</ns3:atemp>
          </ns3:TrackPointExtension>
        </extensions>
      </trkpt>
      <trkpt lat="31.7150182463228702545166015625" lon="35.04276908934116363525390625">
        <ele>548.79998779296875</ele>
        <time>2017-08-04T05:55:15.000Z</time>
        <extensions>
          <ns3:TrackPointExtension>
            <ns3:atemp>28.0</ns3:atemp>
          </ns3:TrackPointExtension>
        </extensions>
      </trkpt>
      <trkpt lat="31.71501338481903076171875" lon="35.04278928972780704498291015625">
        <ele>549</ele>
        <time>2017-08-04T05:55:16.000Z</time>
        <extensions>
          <ns3:TrackPointExtension>
            <ns3:atemp>28.0</ns3:atemp>
          </ns3:TrackPointExtension>
        </extensions>
      </trkpt>
      <trkpt lat="31.714988239109516143798828125" lon="35.04295122809708118438720703125">
        <ele>549.79998779296875</ele>
        <time>2017-08-04T05:55:24.000Z</time>
        <extensions>
          <ns3:TrackPointExtension>
            <ns3:atemp>28.0</ns3:atemp>
          </ns3:TrackPointExtension>
        </extensions>
      </trkpt>
      <trkpt lat="31.71498128212988376617431640625" lon="35.04297201521694660186767578125">
        <ele>550.20001220703125</ele>
        <time>2017-08-04T05:55:25.000Z</time>
        <extensions>
          <ns3:TrackPointExtension>
            <ns3:atemp>28.0</ns3:atemp>
          </ns3:TrackPointExtension>
        </extensions>
      </trkpt>
      <trkpt lat="31.71494004316627979278564453125" lon="35.04309740848839282989501953125">
        <ele>550.79998779296875</ele>
        <time>2017-08-04T05:55:31.000Z</time>
        <extensions>
          <ns3:TrackPointExtension>
            <ns3:atemp>28.0</ns3:atemp>
          </ns3:TrackPointExtension>
        </extensions>
      </trkpt>
      <trkpt lat="31.71492059715092182159423828125" lon="35.0431565009057521820068359375">
        <ele>551.20001220703125</ele>
        <time>2017-08-04T05:55:34.000Z</time>
        <extensions>
          <ns3:TrackPointExtension>
            <ns3:atemp>28.0</ns3:atemp>
          </ns3:TrackPointExtension>
        </extensions>
      </trkpt>
      <trkpt lat="31.7149106226861476898193359375" lon="35.04317636601626873016357421875">
        <ele>551.4000244140625</ele>
        <time>2017-08-04T05:55:35.000Z</time>
        <extensions>
          <ns3:TrackPointExtension>
            <ns3:atemp>28.0</ns3:atemp>
          </ns3:TrackPointExtension>
        </extensions>
      </trkpt>
      <trkpt lat="31.714884974062442779541015625" lon="35.043237470090389251708984375">
        <ele>551.79998779296875</ele>
        <time>2017-08-04T05:55:38.000Z</time>
        <extensions>
          <ns3:TrackPointExtension>
            <ns3:atemp>28.0</ns3:atemp>
          </ns3:TrackPointExtension>
        </extensions>
      </trkpt>
      <trkpt lat="31.71483912505209445953369140625" lon="35.04332791082561016082763671875">
        <ele>552.5999755859375</ele>
        <time>2017-08-04T05:55:43.000Z</time>
        <extensions>
          <ns3:TrackPointExtension>
            <ns3:atemp>28.0</ns3:atemp>
          </ns3:TrackPointExtension>
        </extensions>
      </trkpt>
      <trkpt lat="31.71478028409183025360107421875" lon="35.04337434656918048858642578125">
        <ele>553</ele>
        <time>2017-08-04T05:55:47.000Z</time>
        <extensions>
          <ns3:TrackPointExtension>
            <ns3:atemp>28.0</ns3:atemp>
          </ns3:TrackPointExtension>
        </extensions>
      </trkpt>
      <trkpt lat="31.71475279144942760467529296875" lon="35.04339345730841159820556640625">
        <ele>553.5999755859375</ele>
        <time>2017-08-04T05:55:49.000Z</time>
        <extensions>
          <ns3:TrackPointExtension>
            <ns3:atemp>28.0</ns3:atemp>
          </ns3:TrackPointExtension>
        </extensions>
      </trkpt>
      <trkpt lat="31.714707277715206146240234375" lon="35.043472833931446075439453125">
        <ele>554.79998779296875</ele>
        <time>2017-08-04T05:55:54.000Z</time>
        <extensions>
          <ns3:TrackPointExtension>
            <ns3:atemp>28.0</ns3:atemp>
          </ns3:TrackPointExtension>
        </extensions>
      </trkpt>
      <trkpt lat="31.71462186612188816070556640625" lon="35.0435108877718448638916015625">
        <ele>555.5999755859375</ele>
        <time>2017-08-04T05:56:00.000Z</time>
        <extensions>
          <ns3:TrackPointExtension>
            <ns3:atemp>28.0</ns3:atemp>
          </ns3:TrackPointExtension>
        </extensions>
      </trkpt>
      <trkpt lat="31.714604683220386505126953125" lon="35.04351231269538402557373046875">
        <ele>555.79998779296875</ele>
        <time>2017-08-04T05:56:01.000Z</time>
        <extensions>
          <ns3:TrackPointExtension>
            <ns3:atemp>28.0</ns3:atemp>
          </ns3:TrackPointExtension>
        </extensions>
      </trkpt>
      <trkpt lat="31.714534945785999298095703125" lon="35.043557323515415191650390625">
        <ele>556.4000244140625</ele>
        <time>2017-08-04T05:56:06.000Z</time>
        <extensions>
          <ns3:TrackPointExtension>
            <ns3:atemp>28.0</ns3:atemp>
          </ns3:TrackPointExtension>
        </extensions>
      </trkpt>
      <trkpt lat="31.714491359889507293701171875" lon="35.04358137957751750946044921875">
        <ele>557</ele>
        <time>2017-08-04T05:56:09.000Z</time>
        <extensions>
          <ns3:TrackPointExtension>
            <ns3:atemp>28.0</ns3:atemp>
          </ns3:TrackPointExtension>
        </extensions>
      </trkpt>
      <trkpt lat="31.71441382728517055511474609375" lon="35.0436533801257610321044921875">
        <ele>558</ele>
        <time>2017-08-04T05:56:15.000Z</time>
        <extensions>
          <ns3:TrackPointExtension>
            <ns3:atemp>28.0</ns3:atemp>
          </ns3:TrackPointExtension>
        </extensions>
      </trkpt>
      <trkpt lat="31.71432782895863056182861328125" lon="35.04375488497316837310791015625">
        <ele>559</ele>
        <time>2017-08-04T05:56:23.000Z</time>
        <extensions>
          <ns3:TrackPointExtension>
            <ns3:atemp>28.0</ns3:atemp>
          </ns3:TrackPointExtension>
        </extensions>
      </trkpt>
      <trkpt lat="31.71423495747148990631103515625" lon="35.04383551888167858123779296875">
        <ele>560.20001220703125</ele>
        <time>2017-08-04T05:56:31.000Z</time>
        <extensions>
          <ns3:TrackPointExtension>
            <ns3:atemp>28.0</ns3:atemp>
          </ns3:TrackPointExtension>
        </extensions>
      </trkpt>
      <trkpt lat="31.71415532939136028289794921875" lon="35.04390693269670009613037109375">
        <ele>561.20001220703125</ele>
        <time>2017-08-04T05:56:37.000Z</time>
        <extensions>
          <ns3:TrackPointExtension>
            <ns3:atemp>28.0</ns3:atemp>
          </ns3:TrackPointExtension>
        </extensions>
      </trkpt>
      <trkpt lat="31.71414610929787158966064453125" lon="35.04391849972307682037353515625">
        <ele>561.4000244140625</ele>
        <time>2017-08-04T05:56:38.000Z</time>
        <extensions>
          <ns3:TrackPointExtension>
            <ns3:atemp>28.0</ns3:atemp>
          </ns3:TrackPointExtension>
        </extensions>
      </trkpt>
      <trkpt lat="31.71407662332057952880859375" lon="35.0439708866178989410400390625">
        <ele>562.4000244140625</ele>
        <time>2017-08-04T05:56:44.000Z</time>
        <extensions>
          <ns3:TrackPointExtension>
            <ns3:atemp>28.0</ns3:atemp>
          </ns3:TrackPointExtension>
        </extensions>
      </trkpt>
      <trkpt lat="31.71406413428485393524169921875" lon="35.0439821183681488037109375">
        <ele>562.5999755859375</ele>
        <time>2017-08-04T05:56:45.000Z</time>
        <extensions>
          <ns3:TrackPointExtension>
            <ns3:atemp>28.0</ns3:atemp>
          </ns3:TrackPointExtension>
        </extensions>
      </trkpt>
      <trkpt lat="31.71399087645113468170166015625" lon="35.04403182305395603179931640625">
        <ele>563.4000244140625</ele>
        <time>2017-08-04T05:56:51.000Z</time>
        <extensions>
          <ns3:TrackPointExtension>
            <ns3:atemp>28.0</ns3:atemp>
          </ns3:TrackPointExtension>
        </extensions>
      </trkpt>
      <trkpt lat="31.7139731906354427337646484375" lon="35.0440533645451068878173828125">
        <ele>563.5999755859375</ele>
        <time>2017-08-04T05:56:53.000Z</time>
        <extensions>
          <ns3:TrackPointExtension>
            <ns3:atemp>28.0</ns3:atemp>
          </ns3:TrackPointExtension>
        </extensions>
      </trkpt>
      <trkpt lat="31.71391158364713191986083984375" lon="35.044109523296356201171875">
        <ele>564.4000244140625</ele>
        <time>2017-08-04T05:56:58.000Z</time>
        <extensions>
          <ns3:TrackPointExtension>
            <ns3:atemp>28.0</ns3:atemp>
          </ns3:TrackPointExtension>
        </extensions>
      </trkpt>
      <trkpt lat="31.71388459391891956329345703125" lon="35.04412737675011157989501953125">
        <ele>564.5999755859375</ele>
        <time>2017-08-04T05:57:00.000Z</time>
        <extensions>
          <ns3:TrackPointExtension>
            <ns3:atemp>28.0</ns3:atemp>
          </ns3:TrackPointExtension>
        </extensions>
      </trkpt>
      <trkpt lat="31.7138156108558177947998046875" lon="35.0441874749958515167236328125">
        <ele>565.5999755859375</ele>
        <time>2017-08-04T05:57:06.000Z</time>
        <extensions>
          <ns3:TrackPointExtension>
            <ns3:atemp>28.0</ns3:atemp>
          </ns3:TrackPointExtension>
        </extensions>
      </trkpt>
      <trkpt lat="31.7137924768030643463134765625" lon="35.0442159734666347503662109375">
        <ele>566</ele>
        <time>2017-08-04T05:57:08.000Z</time>
        <extensions>
          <ns3:TrackPointExtension>
            <ns3:atemp>28.0</ns3:atemp>
          </ns3:TrackPointExtension>
        </extensions>
      </trkpt>
      <trkpt lat="31.71372097916901111602783203125" lon="35.04429283551871776580810546875">
        <ele>566.5999755859375</ele>
        <time>2017-08-04T05:57:14.000Z</time>
        <extensions>
          <ns3:TrackPointExtension>
            <ns3:atemp>28.0</ns3:atemp>
          </ns3:TrackPointExtension>
        </extensions>
      </trkpt>
      <trkpt lat="31.71365107409656047821044921875" lon="35.04434949718415737152099609375">
        <ele>567.5999755859375</ele>
        <time>2017-08-04T05:57:20.000Z</time>
        <extensions>
          <ns3:TrackPointExtension>
            <ns3:atemp>28.0</ns3:atemp>
          </ns3:TrackPointExtension>
        </extensions>
      </trkpt>
      <trkpt lat="31.7136097513139247894287109375" lon="35.04438185133039951324462890625">
        <ele>567.79998779296875</ele>
        <time>2017-08-04T05:57:23.000Z</time>
        <extensions>
          <ns3:TrackPointExtension>
            <ns3:atemp>28.0</ns3:atemp>
          </ns3:TrackPointExtension>
        </extensions>
      </trkpt>
      <trkpt lat="31.71358083374798297882080078125" lon="35.04441504366695880889892578125">
        <ele>568.4000244140625</ele>
        <time>2017-08-04T05:57:26.000Z</time>
        <extensions>
          <ns3:TrackPointExtension>
            <ns3:atemp>28.0</ns3:atemp>
          </ns3:TrackPointExtension>
        </extensions>
      </trkpt>
      <trkpt lat="31.71356943435966968536376953125" lon="35.04442677833139896392822265625">
        <ele>568.5999755859375</ele>
        <time>2017-08-04T05:57:27.000Z</time>
        <extensions>
          <ns3:TrackPointExtension>
            <ns3:atemp>28.0</ns3:atemp>
          </ns3:TrackPointExtension>
        </extensions>
      </trkpt>
      <trkpt lat="31.7135255970060825347900390625" lon="35.04448167979717254638671875">
        <ele>568.79998779296875</ele>
        <time>2017-08-04T05:57:31.000Z</time>
        <extensions>
          <ns3:TrackPointExtension>
            <ns3:atemp>28.0</ns3:atemp>
          </ns3:TrackPointExtension>
        </extensions>
      </trkpt>
      <trkpt lat="31.713487543165683746337890625" lon="35.04452149383723735809326171875">
        <ele>569.20001220703125</ele>
        <time>2017-08-04T05:57:34.000Z</time>
        <extensions>
          <ns3:TrackPointExtension>
            <ns3:atemp>28.0</ns3:atemp>
          </ns3:TrackPointExtension>
        </extensions>
      </trkpt>
      <trkpt lat="31.7134437896311283111572265625" lon="35.0445748865604400634765625">
        <ele>569.79998779296875</ele>
        <time>2017-08-04T05:57:38.000Z</time>
        <extensions>
          <ns3:TrackPointExtension>
            <ns3:atemp>28.0</ns3:atemp>
          </ns3:TrackPointExtension>
        </extensions>
      </trkpt>
      <trkpt lat="31.71337011270225048065185546875" lon="35.04466733895242214202880859375">
        <ele>570.79998779296875</ele>
        <time>2017-08-04T05:57:45.000Z</time>
        <extensions>
          <ns3:TrackPointExtension>
            <ns3:atemp>28.0</ns3:atemp>
          </ns3:TrackPointExtension>
        </extensions>
      </trkpt>
      <trkpt lat="31.7133589647710323333740234375" lon="35.04467940889298915863037109375">
        <ele>571</ele>
        <time>2017-08-04T05:57:46.000Z</time>
        <extensions>
          <ns3:TrackPointExtension>
            <ns3:atemp>28.0</ns3:atemp>
          </ns3:TrackPointExtension>
        </extensions>
      </trkpt>
      <trkpt lat="31.7132932506501674652099609375" lon="35.0447467155754566192626953125">
        <ele>572</ele>
        <time>2017-08-04T05:57:52.000Z</time>
        <extensions>
          <ns3:TrackPointExtension>
            <ns3:atemp>29.0</ns3:atemp>
          </ns3:TrackPointExtension>
        </extensions>
      </trkpt>
      <trkpt lat="31.71327874995768070220947265625" lon="35.04477848298847675323486328125">
        <ele>572.20001220703125</ele>
        <time>2017-08-04T05:57:54.000Z</time>
        <extensions>
          <ns3:TrackPointExtension>
            <ns3:atemp>29.0</ns3:atemp>
          </ns3:TrackPointExtension>
        </extensions>
      </trkpt>
      <trkpt lat="31.71319744549691677093505859375" lon="35.0448643974959850311279296875">
        <ele>573</ele>
        <time>2017-08-04T05:58:01.000Z</time>
        <extensions>
          <ns3:TrackPointExtension>
            <ns3:atemp>29.0</ns3:atemp>
          </ns3:TrackPointExtension>
        </extensions>
      </trkpt>
      <trkpt lat="31.71318638138473033905029296875" lon="35.044876635074615478515625">
        <ele>573</ele>
        <time>2017-08-04T05:58:02.000Z</time>
        <extensions>
          <ns3:TrackPointExtension>
            <ns3:atemp>29.0</ns3:atemp>
          </ns3:TrackPointExtension>
        </extensions>
      </trkpt>
      <trkpt lat="31.71312670223414897918701171875" lon="35.04496322013437747955322265625">
        <ele>574</ele>
        <time>2017-08-04T05:58:08.000Z</time>
        <extensions>
          <ns3:TrackPointExtension>
            <ns3:atemp>29.0</ns3:atemp>
          </ns3:TrackPointExtension>
        </extensions>
      </trkpt>
      <trkpt lat="31.71310298144817352294921875" lon="35.0449874438345432281494140625">
        <ele>574.20001220703125</ele>
        <time>2017-08-04T05:58:10.000Z</time>
        <extensions>
          <ns3:TrackPointExtension>
            <ns3:atemp>29.0</ns3:atemp>
          </ns3:TrackPointExtension>
        </extensions>
      </trkpt>
      <trkpt lat="31.713035590946674346923828125" lon="35.0451011024415493011474609375">
        <ele>574.79998779296875</ele>
        <time>2017-08-04T05:58:17.000Z</time>
        <extensions>
          <ns3:TrackPointExtension>
            <ns3:atemp>29.0</ns3:atemp>
          </ns3:TrackPointExtension>
        </extensions>
      </trkpt>
      <trkpt lat="31.7130143009126186370849609375" lon="35.04513052292168140411376953125">
        <ele>575.20001220703125</ele>
        <time>2017-08-04T05:58:19.000Z</time>
        <extensions>
          <ns3:TrackPointExtension>
            <ns3:atemp>29.0</ns3:atemp>
          </ns3:TrackPointExtension>
        </extensions>
      </trkpt>
      <trkpt lat="31.71296677552163600921630859375" lon="35.04521467722952365875244140625">
        <ele>575.5999755859375</ele>
        <time>2017-08-04T05:58:24.000Z</time>
        <extensions>
          <ns3:TrackPointExtension>
            <ns3:atemp>29.0</ns3:atemp>
          </ns3:TrackPointExtension>
        </extensions>
      </trkpt>
      <trkpt lat="31.7129428870975971221923828125" lon="35.0452710874378681182861328125">
        <ele>576.4000244140625</ele>
        <time>2017-08-04T05:58:27.000Z</time>
        <extensions>
          <ns3:TrackPointExtension>
            <ns3:atemp>29.0</ns3:atemp>
          </ns3:TrackPointExtension>
        </extensions>
      </trkpt>
      <trkpt lat="31.71289586462080478668212890625" lon="35.045357756316661834716796875">
        <ele>577.20001220703125</ele>
        <time>2017-08-04T05:58:32.000Z</time>
        <extensions>
          <ns3:TrackPointExtension>
            <ns3:atemp>29.0</ns3:atemp>
          </ns3:TrackPointExtension>
        </extensions>
      </trkpt>
      <trkpt lat="31.71285965479910373687744140625" lon="35.0454318523406982421875">
        <ele>577.4000244140625</ele>
        <time>2017-08-04T05:58:36.000Z</time>
        <extensions>
          <ns3:TrackPointExtension>
            <ns3:atemp>29.0</ns3:atemp>
          </ns3:TrackPointExtension>
        </extensions>
      </trkpt>
      <trkpt lat="31.712852530181407928466796875" lon="35.04545590840280055999755859375">
        <ele>577.5999755859375</ele>
        <time>2017-08-04T05:58:37.000Z</time>
        <extensions>
          <ns3:TrackPointExtension>
            <ns3:atemp>29.0</ns3:atemp>
          </ns3:TrackPointExtension>
        </extensions>
      </trkpt>
      <trkpt lat="31.7127858102321624755859375" lon="35.04558364860713481903076171875">
        <ele>578.4000244140625</ele>
        <time>2017-08-04T05:58:44.000Z</time>
        <extensions>
          <ns3:TrackPointExtension>
            <ns3:atemp>29.0</ns3:atemp>
          </ns3:TrackPointExtension>
        </extensions>
      </trkpt>
      <trkpt lat="31.71277709305286407470703125" lon="35.04559990949928760528564453125">
        <ele>578.5999755859375</ele>
        <time>2017-08-04T05:58:45.000Z</time>
        <extensions>
          <ns3:TrackPointExtension>
            <ns3:atemp>29.0</ns3:atemp>
          </ns3:TrackPointExtension>
        </extensions>
      </trkpt>
      <trkpt lat="31.71276141889393329620361328125" lon="35.045636035501956939697265625">
        <ele>578.5999755859375</ele>
        <time>2017-08-04T05:58:47.000Z</time>
        <extensions>
          <ns3:TrackPointExtension>
            <ns3:atemp>29.0</ns3:atemp>
          </ns3:TrackPointExtension>
        </extensions>
      </trkpt>
      <trkpt lat="31.712698638439178466796875" lon="35.04575614817440509796142578125">
        <ele>579.5999755859375</ele>
        <time>2017-08-04T05:58:54.000Z</time>
        <extensions>
          <ns3:TrackPointExtension>
            <ns3:atemp>29.0</ns3:atemp>
          </ns3:TrackPointExtension>
        </extensions>
      </trkpt>
      <trkpt lat="31.71264356933534145355224609375" lon="35.04585086368024349212646484375">
        <ele>580.5999755859375</ele>
        <time>2017-08-04T05:59:00.000Z</time>
        <extensions>
          <ns3:TrackPointExtension>
            <ns3:atemp>29.0</ns3:atemp>
          </ns3:TrackPointExtension>
        </extensions>
      </trkpt>
      <trkpt lat="31.7126361094415187835693359375" lon="35.04586561582982540130615234375">
        <ele>580.79998779296875</ele>
        <time>2017-08-04T05:59:01.000Z</time>
        <extensions>
          <ns3:TrackPointExtension>
            <ns3:atemp>29.0</ns3:atemp>
          </ns3:TrackPointExtension>
        </extensions>
      </trkpt>
      <trkpt lat="31.71258506365120410919189453125" lon="35.0459803640842437744140625">
        <ele>582</ele>
        <time>2017-08-04T05:59:08.000Z</time>
        <extensions>
          <ns3:TrackPointExtension>
            <ns3:atemp>29.0</ns3:atemp>
          </ns3:TrackPointExtension>
        </extensions>
      </trkpt>
      <trkpt lat="31.71255187131464481353759765625" lon="35.04601657390594482421875">
        <ele>582.20001220703125</ele>
        <time>2017-08-04T05:59:11.000Z</time>
        <extensions>
          <ns3:TrackPointExtension>
            <ns3:atemp>29.0</ns3:atemp>
          </ns3:TrackPointExtension>
        </extensions>
      </trkpt>
      <trkpt lat="31.71253074891865253448486328125" lon="35.046075917780399322509765625">
        <ele>582.20001220703125</ele>
        <time>2017-08-04T05:59:14.000Z</time>
        <extensions>
          <ns3:TrackPointExtension>
            <ns3:atemp>29.0</ns3:atemp>
          </ns3:TrackPointExtension>
        </extensions>
      </trkpt>
      <trkpt lat="31.7124946229159832000732421875" lon="35.04615512676537036895751953125">
        <ele>583</ele>
        <time>2017-08-04T05:59:18.000Z</time>
        <extensions>
          <ns3:TrackPointExtension>
            <ns3:atemp>29.0</ns3:atemp>
          </ns3:TrackPointExtension>
        </extensions>
      </trkpt>
      <trkpt lat="31.71246620826423168182373046875" lon="35.0462125428020954132080078125">
        <ele>583.20001220703125</ele>
        <time>2017-08-04T05:59:21.000Z</time>
        <extensions>
          <ns3:TrackPointExtension>
            <ns3:atemp>29.0</ns3:atemp>
          </ns3:TrackPointExtension>
        </extensions>
      </trkpt>
      <trkpt lat="31.71241373755037784576416015625" lon="35.04629828967154026031494140625">
        <ele>584.20001220703125</ele>
        <time>2017-08-04T05:59:26.000Z</time>
        <extensions>
          <ns3:TrackPointExtension>
            <ns3:atemp>29.0</ns3:atemp>
          </ns3:TrackPointExtension>
        </extensions>
      </trkpt>
      <trkpt lat="31.71239110641181468963623046875" lon="35.04635210148990154266357421875">
        <ele>584.4000244140625</ele>
        <time>2017-08-04T05:59:29.000Z</time>
        <extensions>
          <ns3:TrackPointExtension>
            <ns3:atemp>29.0</ns3:atemp>
          </ns3:TrackPointExtension>
        </extensions>
      </trkpt>
      <trkpt lat="31.71234684996306896209716796875" lon="35.04642485640943050384521484375">
        <ele>585.4000244140625</ele>
        <time>2017-08-04T05:59:34.000Z</time>
        <extensions>
          <ns3:TrackPointExtension>
            <ns3:atemp>29.0</ns3:atemp>
          </ns3:TrackPointExtension>
        </extensions>
      </trkpt>
      <trkpt lat="31.712326146662235260009765625" lon="35.04645771346986293792724609375">
        <ele>585.5999755859375</ele>
        <time>2017-08-04T05:59:36.000Z</time>
        <extensions>
          <ns3:TrackPointExtension>
            <ns3:atemp>29.0</ns3:atemp>
          </ns3:TrackPointExtension>
        </extensions>
      </trkpt>
      <trkpt lat="31.7123015038669109344482421875" lon="35.0465436279773712158203125">
        <ele>586.4000244140625</ele>
        <time>2017-08-04T05:59:41.000Z</time>
        <extensions>
          <ns3:TrackPointExtension>
            <ns3:atemp>29.0</ns3:atemp>
          </ns3:TrackPointExtension>
        </extensions>
      </trkpt>
      <trkpt lat="31.7122896015644073486328125" lon="35.04666910506784915924072265625">
        <ele>587</ele>
        <time>2017-08-04T05:59:47.000Z</time>
        <extensions>
          <ns3:TrackPointExtension>
            <ns3:atemp>29.0</ns3:atemp>
          </ns3:TrackPointExtension>
        </extensions>
      </trkpt>
      <trkpt lat="31.71228532679378986358642578125" lon="35.046735070645809173583984375">
        <ele>587.5999755859375</ele>
        <time>2017-08-04T05:59:50.000Z</time>
        <extensions>
          <ns3:TrackPointExtension>
            <ns3:atemp>29.0</ns3:atemp>
          </ns3:TrackPointExtension>
        </extensions>
      </trkpt>
      <trkpt lat="31.71228650026023387908935546875" lon="35.0468113459646701812744140625">
        <ele>588.20001220703125</ele>
        <time>2017-08-04T05:59:54.000Z</time>
        <extensions>
          <ns3:TrackPointExtension>
            <ns3:atemp>29.0</ns3:atemp>
          </ns3:TrackPointExtension>
        </extensions>
      </trkpt>
      <trkpt lat="31.71228549443185329437255859375" lon="35.04683188162744045257568359375">
        <ele>588.4000244140625</ele>
        <time>2017-08-04T05:59:55.000Z</time>
        <extensions>
          <ns3:TrackPointExtension>
            <ns3:atemp>29.0</ns3:atemp>
          </ns3:TrackPointExtension>
        </extensions>
      </trkpt>
      <trkpt lat="31.71229027211666107177734375" lon="35.0468520820140838623046875">
        <ele>588.5999755859375</ele>
        <time>2017-08-04T05:59:56.000Z</time>
        <extensions>
          <ns3:TrackPointExtension>
            <ns3:atemp>29.0</ns3:atemp>
          </ns3:TrackPointExtension>
        </extensions>
      </trkpt>
      <trkpt lat="31.71228758990764617919921875" lon="35.04691234789788722991943359375">
        <ele>588.79998779296875</ele>
        <time>2017-08-04T05:59:59.000Z</time>
        <extensions>
          <ns3:TrackPointExtension>
            <ns3:atemp>29.0</ns3:atemp>
          </ns3:TrackPointExtension>
        </extensions>
      </trkpt>
      <trkpt lat="31.7122860811650753021240234375" lon="35.0469338893890380859375">
        <ele>589</ele>
        <time>2017-08-04T06:00:00.000Z</time>
        <extensions>
          <ns3:TrackPointExtension>
            <ns3:atemp>29.0</ns3:atemp>
          </ns3:TrackPointExtension>
        </extensions>
      </trkpt>
      <trkpt lat="31.71226537786424160003662109375" lon="35.0470517389476299285888671875">
        <ele>589.79998779296875</ele>
        <time>2017-08-04T06:00:06.000Z</time>
        <extensions>
          <ns3:TrackPointExtension>
            <ns3:atemp>29.0</ns3:atemp>
          </ns3:TrackPointExtension>
        </extensions>
      </trkpt>
      <trkpt lat="31.71225481666624546051025390625" lon="35.04706732928752899169921875">
        <ele>590</ele>
        <time>2017-08-04T06:00:07.000Z</time>
        <extensions>
          <ns3:TrackPointExtension>
            <ns3:atemp>29.0</ns3:atemp>
          </ns3:TrackPointExtension>
        </extensions>
      </trkpt>
      <trkpt lat="31.712177284061908721923828125" lon="35.04713145084679126739501953125">
        <ele>590.5999755859375</ele>
        <time>2017-08-04T06:00:13.000Z</time>
        <extensions>
          <ns3:TrackPointExtension>
            <ns3:atemp>29.0</ns3:atemp>
          </ns3:TrackPointExtension>
        </extensions>
      </trkpt>
      <trkpt lat="31.71214283443987369537353515625" lon="35.0471288524568080902099609375">
        <ele>590.79998779296875</ele>
        <time>2017-08-04T06:00:15.000Z</time>
        <extensions>
          <ns3:TrackPointExtension>
            <ns3:atemp>29.0</ns3:atemp>
          </ns3:TrackPointExtension>
        </extensions>
      </trkpt>
      <trkpt lat="31.712131686508655548095703125" lon="35.04711887799203395843505859375">
        <ele>590.79998779296875</ele>
        <time>2017-08-04T06:00:16.000Z</time>
        <extensions>
          <ns3:TrackPointExtension>
            <ns3:atemp>29.0</ns3:atemp>
          </ns3:TrackPointExtension>
        </extensions>
      </trkpt>
      <trkpt lat="31.7121181078255176544189453125" lon="35.04711066372692584991455078125">
        <ele>591</ele>
        <time>2017-08-04T06:00:17.000Z</time>
        <extensions>
          <ns3:TrackPointExtension>
            <ns3:atemp>29.0</ns3:atemp>
          </ns3:TrackPointExtension>
        </extensions>
      </trkpt>
      <trkpt lat="31.7121127434074878692626953125" lon="35.0470933131873607635498046875">
        <ele>591</ele>
        <time>2017-08-04T06:00:18.000Z</time>
        <extensions>
          <ns3:TrackPointExtension>
            <ns3:atemp>29.0</ns3:atemp>
          </ns3:TrackPointExtension>
        </extensions>
      </trkpt>
      <trkpt lat="31.71211098320782184600830078125" lon="35.04705919884145259857177734375">
        <ele>591.20001220703125</ele>
        <time>2017-08-04T06:00:20.000Z</time>
        <extensions>
          <ns3:TrackPointExtension>
            <ns3:atemp>29.0</ns3:atemp>
          </ns3:TrackPointExtension>
        </extensions>
      </trkpt>
      <trkpt lat="31.7120748572051525115966796875" lon="35.04697219468653202056884765625">
        <ele>591.5999755859375</ele>
        <time>2017-08-04T06:00:26.000Z</time>
        <extensions>
          <ns3:TrackPointExtension>
            <ns3:atemp>29.0</ns3:atemp>
          </ns3:TrackPointExtension>
        </extensions>
      </trkpt>
      <trkpt lat="31.712071336805820465087890625" lon="35.046893991529941558837890625">
        <ele>591.79998779296875</ele>
        <time>2017-08-04T06:00:30.000Z</time>
        <extensions>
          <ns3:TrackPointExtension>
            <ns3:atemp>29.0</ns3:atemp>
          </ns3:TrackPointExtension>
        </extensions>
      </trkpt>
      <trkpt lat="31.71207879669964313507080078125" lon="35.04685635678470134735107421875">
        <ele>592</ele>
        <time>2017-08-04T06:00:32.000Z</time>
        <extensions>
          <ns3:TrackPointExtension>
            <ns3:atemp>29.0</ns3:atemp>
          </ns3:TrackPointExtension>
        </extensions>
      </trkpt>
      <trkpt lat="31.71207158826291561126708984375" lon="35.0468385033309459686279296875">
        <ele>592.20001220703125</ele>
        <time>2017-08-04T06:00:33.000Z</time>
        <extensions>
          <ns3:TrackPointExtension>
            <ns3:atemp>29.0</ns3:atemp>
          </ns3:TrackPointExtension>
        </extensions>
      </trkpt>
      <trkpt lat="31.712045855820178985595703125" lon="35.0467784889042377471923828125">
        <ele>592.20001220703125</ele>
        <time>2017-08-04T06:00:37.000Z</time>
        <extensions>
          <ns3:TrackPointExtension>
            <ns3:atemp>29.0</ns3:atemp>
          </ns3:TrackPointExtension>
        </extensions>
      </trkpt>
      <trkpt lat="31.712037138640880584716796875" lon="35.04676960408687591552734375">
        <ele>592.4000244140625</ele>
        <time>2017-08-04T06:00:42.000Z</time>
        <extensions>
          <ns3:TrackPointExtension>
            <ns3:atemp>29.0</ns3:atemp>
          </ns3:TrackPointExtension>
        </extensions>
      </trkpt>
      <trkpt lat="31.712027750909328460693359375" lon="35.04676080308854579925537109375">
        <ele>592.79998779296875</ele>
        <time>2017-08-04T06:00:50.000Z</time>
        <extensions>
          <ns3:TrackPointExtension>
            <ns3:atemp>29.0</ns3:atemp>
          </ns3:TrackPointExtension>
        </extensions>
      </trkpt>
      <trkpt lat="31.7120289243757724761962890625" lon="35.0467607192695140838623046875">
        <ele>592.5999755859375</ele>
        <time>2017-08-04T06:00:55.000Z</time>
        <extensions>
          <ns3:TrackPointExtension>
            <ns3:atemp>29.0</ns3:atemp>
          </ns3:TrackPointExtension>
        </extensions>
      </trkpt>
      <trkpt lat="31.7120369710028171539306640625" lon="35.0467634014785289764404296875">
        <ele>592.5999755859375</ele>
        <time>2017-08-04T06:01:01.000Z</time>
        <extensions>
          <ns3:TrackPointExtension>
            <ns3:atemp>29.0</ns3:atemp>
          </ns3:TrackPointExtension>
        </extensions>
      </trkpt>
      <trkpt lat="31.71206722967326641082763671875" lon="35.0467851944267749786376953125">
        <ele>592.20001220703125</ele>
        <time>2017-08-04T06:01:03.000Z</time>
        <extensions>
          <ns3:TrackPointExtension>
            <ns3:atemp>29.0</ns3:atemp>
          </ns3:TrackPointExtension>
        </extensions>
      </trkpt>
      <trkpt lat="31.7120750248432159423828125" lon="35.04682349972426891326904296875">
        <ele>592.20001220703125</ele>
        <time>2017-08-04T06:01:05.000Z</time>
        <extensions>
          <ns3:TrackPointExtension>
            <ns3:atemp>29.0</ns3:atemp>
          </ns3:TrackPointExtension>
        </extensions>
      </trkpt>
      <trkpt lat="31.7120852507650852203369140625" lon="35.04695526324212551116943359375">
        <ele>592.20001220703125</ele>
        <time>2017-08-04T06:01:11.000Z</time>
        <extensions>
          <ns3:TrackPointExtension>
            <ns3:atemp>29.0</ns3:atemp>
          </ns3:TrackPointExtension>
        </extensions>
      </trkpt>
      <trkpt lat="31.71210176311433315277099609375" lon="35.04708015359938144683837890625">
        <ele>591.79998779296875</ele>
        <time>2017-08-04T06:01:18.000Z</time>
        <extensions>
          <ns3:TrackPointExtension>
            <ns3:atemp>29.0</ns3:atemp>
          </ns3:TrackPointExtension>
        </extensions>
      </trkpt>
      <trkpt lat="31.7121060378849506378173828125" lon="35.0471127592027187347412109375">
        <ele>591.79998779296875</ele>
        <time>2017-08-04T06:01:21.000Z</time>
        <extensions>
          <ns3:TrackPointExtension>
            <ns3:atemp>29.0</ns3:atemp>
          </ns3:TrackPointExtension>
        </extensions>
      </trkpt>
      <trkpt lat="31.71207209117710590362548828125" lon="35.047139413654804229736328125">
        <ele>591.5999755859375</ele>
        <time>2017-08-04T06:01:24.000Z</time>
        <extensions>
          <ns3:TrackPointExtension>
            <ns3:atemp>29.0</ns3:atemp>
          </ns3:TrackPointExtension>
        </extensions>
      </trkpt>
      <trkpt lat="31.712020374834537506103515625" lon="35.0470840930938720703125">
        <ele>592.20001220703125</ele>
        <time>2017-08-04T06:01:28.000Z</time>
        <extensions>
          <ns3:TrackPointExtension>
            <ns3:atemp>29.0</ns3:atemp>
          </ns3:TrackPointExtension>
        </extensions>
      </trkpt>
      <trkpt lat="31.71202339231967926025390625" lon="35.04700689576566219329833984375">
        <ele>592.20001220703125</ele>
        <time>2017-08-04T06:01:32.000Z</time>
        <extensions>
          <ns3:TrackPointExtension>
            <ns3:atemp>29.0</ns3:atemp>
          </ns3:TrackPointExtension>
        </extensions>
      </trkpt>
      <trkpt lat="31.7120255716145038604736328125" lon="35.046991221606731414794921875">
        <ele>592.79998779296875</ele>
        <time>2017-08-04T06:01:36.000Z</time>
        <extensions>
          <ns3:TrackPointExtension>
            <ns3:atemp>29.0</ns3:atemp>
          </ns3:TrackPointExtension>
        </extensions>
      </trkpt>
      <trkpt lat="31.71202833764255046844482421875" lon="35.046992562711238861083984375">
        <ele>592.79998779296875</ele>
        <time>2017-08-04T06:01:42.000Z</time>
        <extensions>
          <ns3:TrackPointExtension>
            <ns3:atemp>29.0</ns3:atemp>
          </ns3:TrackPointExtension>
        </extensions>
      </trkpt>
      <trkpt lat="31.71202833764255046844482421875" lon="35.046992562711238861083984375">
        <ele>592.5999755859375</ele>
        <time>2017-08-04T06:02:05.000Z</time>
        <extensions>
          <ns3:TrackPointExtension>
            <ns3:atemp>29.0</ns3:atemp>
          </ns3:TrackPointExtension>
        </extensions>
      </trkpt>
      <trkpt lat="31.71203169040381908416748046875" lon="35.046985857188701629638671875">
        <ele>592.5999755859375</ele>
        <time>2017-08-04T06:02:22.000Z</time>
        <extensions>
          <ns3:TrackPointExtension>
            <ns3:atemp>29.0</ns3:atemp>
          </ns3:TrackPointExtension>
        </extensions>
      </trkpt>
      <trkpt lat="31.71203169040381908416748046875" lon="35.046985857188701629638671875">
        <ele>592.5999755859375</ele>
        <time>2017-08-04T06:02:40.000Z</time>
        <extensions>
          <ns3:TrackPointExtension>
            <ns3:atemp>29.0</ns3:atemp>
          </ns3:TrackPointExtension>
        </extensions>
      </trkpt>
      <trkpt lat="31.71203169040381908416748046875" lon="35.046985857188701629638671875">
        <ele>592.5999755859375</ele>
        <time>2017-08-04T06:02:57.000Z</time>
        <extensions>
          <ns3:TrackPointExtension>
            <ns3:atemp>30.0</ns3:atemp>
          </ns3:TrackPointExtension>
        </extensions>
      </trkpt>
      <trkpt lat="31.7120309360325336456298828125" lon="35.0469877012073993682861328125">
        <ele>592.4000244140625</ele>
        <time>2017-08-04T06:03:11.000Z</time>
        <extensions>
          <ns3:TrackPointExtension>
            <ns3:atemp>30.0</ns3:atemp>
          </ns3:TrackPointExtension>
        </extensions>
      </trkpt>
      <trkpt lat="31.7120309360325336456298828125" lon="35.0469877012073993682861328125">
        <ele>592.4000244140625</ele>
        <time>2017-08-04T06:03:13.000Z</time>
        <extensions>
          <ns3:TrackPointExtension>
            <ns3:atemp>30.0</ns3:atemp>
          </ns3:TrackPointExtension>
        </extensions>
      </trkpt>
      <trkpt lat="31.7120309360325336456298828125" lon="35.0469877012073993682861328125">
        <ele>592.4000244140625</ele>
        <time>2017-08-04T06:03:27.000Z</time>
        <extensions>
          <ns3:TrackPointExtension>
            <ns3:atemp>30.0</ns3:atemp>
          </ns3:TrackPointExtension>
        </extensions>
      </trkpt>
      <trkpt lat="31.71203236095607280731201171875" lon="35.04698677919805049896240234375">
        <ele>592.4000244140625</ele>
        <time>2017-08-04T06:03:46.000Z</time>
        <extensions>
          <ns3:TrackPointExtension>
            <ns3:atemp>30.0</ns3:atemp>
          </ns3:TrackPointExtension>
        </extensions>
      </trkpt>
      <trkpt lat="31.71203236095607280731201171875" lon="35.04698677919805049896240234375">
        <ele>592.20001220703125</ele>
        <time>2017-08-04T06:04:00.000Z</time>
        <extensions>
          <ns3:TrackPointExtension>
            <ns3:atemp>31.0</ns3:atemp>
          </ns3:TrackPointExtension>
        </extensions>
      </trkpt>
      <trkpt lat="31.71203236095607280731201171875" lon="35.04698677919805049896240234375">
        <ele>592.4000244140625</ele>
        <time>2017-08-04T06:04:16.000Z</time>
        <extensions>
          <ns3:TrackPointExtension>
            <ns3:atemp>31.0</ns3:atemp>
          </ns3:TrackPointExtension>
        </extensions>
      </trkpt>
      <trkpt lat="31.712031103670597076416015625" lon="35.04698309116065502166748046875">
        <ele>592.4000244140625</ele>
        <time>2017-08-04T06:04:21.000Z</time>
        <extensions>
          <ns3:TrackPointExtension>
            <ns3:atemp>31.0</ns3:atemp>
          </ns3:TrackPointExtension>
        </extensions>
      </trkpt>
      <trkpt lat="31.712031103670597076416015625" lon="35.04698309116065502166748046875">
        <ele>592.4000244140625</ele>
        <time>2017-08-04T06:04:37.000Z</time>
        <extensions>
          <ns3:TrackPointExtension>
            <ns3:atemp>31.0</ns3:atemp>
          </ns3:TrackPointExtension>
        </extensions>
      </trkpt>
      <trkpt lat="31.712031103670597076416015625" lon="35.04698309116065502166748046875">
        <ele>592.20001220703125</ele>
        <time>2017-08-04T06:04:51.000Z</time>
        <extensions>
          <ns3:TrackPointExtension>
            <ns3:atemp>31.0</ns3:atemp>
          </ns3:TrackPointExtension>
        </extensions>
      </trkpt>
      <trkpt lat="31.71203068457543849945068359375" lon="35.0469820015132427215576171875">
        <ele>592.20001220703125</ele>
        <time>2017-08-04T06:05:08.000Z</time>
        <extensions>
          <ns3:TrackPointExtension>
            <ns3:atemp>32.0</ns3:atemp>
          </ns3:TrackPointExtension>
        </extensions>
      </trkpt>
      <trkpt lat="31.71203068457543849945068359375" lon="35.0469820015132427215576171875">
        <ele>592.20001220703125</ele>
        <time>2017-08-04T06:05:26.000Z</time>
        <extensions>
          <ns3:TrackPointExtension>
            <ns3:atemp>32.0</ns3:atemp>
          </ns3:TrackPointExtension>
        </extensions>
      </trkpt>
      <trkpt lat="31.71203068457543849945068359375" lon="35.0469820015132427215576171875">
        <ele>592.20001220703125</ele>
        <time>2017-08-04T06:05:28.000Z</time>
        <extensions>
          <ns3:TrackPointExtension>
            <ns3:atemp>32.0</ns3:atemp>
          </ns3:TrackPointExtension>
        </extensions>
      </trkpt>
      <trkpt lat="31.7120282538235187530517578125" lon="35.04698275588452816009521484375">
        <ele>592</ele>
        <time>2017-08-04T06:05:47.000Z</time>
        <extensions>
          <ns3:TrackPointExtension>
            <ns3:atemp>32.0</ns3:atemp>
          </ns3:TrackPointExtension>
        </extensions>
      </trkpt>
      <trkpt lat="31.71205985359847545623779296875" lon="35.04699113778769969940185546875">
        <ele>588.4000244140625</ele>
        <time>2017-08-04T06:34:02.000Z</time>
        <extensions>
          <ns3:TrackPointExtension>
            <ns3:atemp>42.0</ns3:atemp>
          </ns3:TrackPointExtension>
        </extensions>
      </trkpt>
      <trkpt lat="31.71205683611333370208740234375" lon="35.046992562711238861083984375">
        <ele>588.5999755859375</ele>
        <time>2017-08-04T06:34:06.000Z</time>
        <extensions>
          <ns3:TrackPointExtension>
            <ns3:atemp>42.0</ns3:atemp>
          </ns3:TrackPointExtension>
        </extensions>
      </trkpt>
      <trkpt lat="31.7120567522943019866943359375" lon="35.04698812030255794525146484375">
        <ele>588.5999755859375</ele>
        <time>2017-08-04T06:34:12.000Z</time>
        <extensions>
          <ns3:TrackPointExtension>
            <ns3:atemp>42.0</ns3:atemp>
          </ns3:TrackPointExtension>
        </extensions>
      </trkpt>
      <trkpt lat="31.71202666126191616058349609375" lon="35.04697102122008800506591796875">
        <ele>589</ele>
        <time>2017-08-04T06:34:17.000Z</time>
        <extensions>
          <ns3:TrackPointExtension>
            <ns3:atemp>42.0</ns3:atemp>
          </ns3:TrackPointExtension>
        </extensions>
      </trkpt>
      <trkpt lat="31.7119850032031536102294921875" lon="35.0469655729830265045166015625">
        <ele>589.20001220703125</ele>
        <time>2017-08-04T06:34:20.000Z</time>
        <extensions>
          <ns3:TrackPointExtension>
            <ns3:atemp>42.0</ns3:atemp>
          </ns3:TrackPointExtension>
        </extensions>
      </trkpt>
      <trkpt lat="31.71199045144021511077880859375" lon="35.04699247889220714569091796875">
        <ele>589.20001220703125</ele>
        <time>2017-08-04T06:34:22.000Z</time>
        <extensions>
          <ns3:TrackPointExtension>
            <ns3:atemp>42.0</ns3:atemp>
          </ns3:TrackPointExtension>
        </extensions>
      </trkpt>
      <trkpt lat="31.71200889162719249725341796875" lon="35.04705660045146942138671875">
        <ele>589.20001220703125</ele>
        <time>2017-08-04T06:34:26.000Z</time>
        <extensions>
          <ns3:TrackPointExtension>
            <ns3:atemp>42.0</ns3:atemp>
          </ns3:TrackPointExtension>
        </extensions>
      </trkpt>
      <trkpt lat="31.71201660297811031341552734375" lon="35.0470731966197490692138671875">
        <ele>589</ele>
        <time>2017-08-04T06:34:27.000Z</time>
        <extensions>
          <ns3:TrackPointExtension>
            <ns3:atemp>42.0</ns3:atemp>
          </ns3:TrackPointExtension>
        </extensions>
      </trkpt>
      <trkpt lat="31.71203822828829288482666015625" lon="35.047100521624088287353515625">
        <ele>588.5999755859375</ele>
        <time>2017-08-04T06:34:30.000Z</time>
        <extensions>
          <ns3:TrackPointExtension>
            <ns3:atemp>42.0</ns3:atemp>
          </ns3:TrackPointExtension>
        </extensions>
      </trkpt>
      <trkpt lat="31.71206002123653888702392578125" lon="35.04709959961473941802978515625">
        <ele>588.4000244140625</ele>
        <time>2017-08-04T06:34:32.000Z</time>
        <extensions>
          <ns3:TrackPointExtension>
            <ns3:atemp>42.0</ns3:atemp>
          </ns3:TrackPointExtension>
        </extensions>
      </trkpt>
      <trkpt lat="31.7121057026088237762451171875" lon="35.047106556594371795654296875">
        <ele>587.4000244140625</ele>
        <time>2017-08-04T06:34:37.000Z</time>
        <extensions>
          <ns3:TrackPointExtension>
            <ns3:atemp>42.0</ns3:atemp>
          </ns3:TrackPointExtension>
        </extensions>
      </trkpt>
      <trkpt lat="31.7121117375791072845458984375" lon="35.04710596986114978790283203125">
        <ele>587.20001220703125</ele>
        <time>2017-08-04T06:34:40.000Z</time>
        <extensions>
          <ns3:TrackPointExtension>
            <ns3:atemp>42.0</ns3:atemp>
          </ns3:TrackPointExtension>
        </extensions>
      </trkpt>
      <trkpt lat="31.7121117375791072845458984375" lon="35.04710596986114978790283203125">
        <ele>587.20001220703125</ele>
        <time>2017-08-04T06:34:42.000Z</time>
        <extensions>
          <ns3:TrackPointExtension>
            <ns3:atemp>42.0</ns3:atemp>
          </ns3:TrackPointExtension>
        </extensions>
      </trkpt>
      <trkpt lat="31.7121117375791072845458984375" lon="35.04710596986114978790283203125">
        <ele>587.4000244140625</ele>
        <time>2017-08-04T06:34:57.000Z</time>
        <extensions>
          <ns3:TrackPointExtension>
            <ns3:atemp>42.0</ns3:atemp>
          </ns3:TrackPointExtension>
        </extensions>
      </trkpt>
      <trkpt lat="31.71218432486057281494140625" lon="35.04715709947049617767333984375">
        <ele>587</ele>
        <time>2017-08-04T06:35:02.000Z</time>
        <extensions>
          <ns3:TrackPointExtension>
            <ns3:atemp>42.0</ns3:atemp>
          </ns3:TrackPointExtension>
        </extensions>
      </trkpt>
      <trkpt lat="31.71223931014537811279296875" lon="35.0472250767052173614501953125">
        <ele>586.20001220703125</ele>
        <time>2017-08-04T06:35:05.000Z</time>
        <extensions>
          <ns3:TrackPointExtension>
            <ns3:atemp>42.0</ns3:atemp>
          </ns3:TrackPointExtension>
        </extensions>
      </trkpt>
      <trkpt lat="31.712270490825176239013671875" lon="35.047286264598369598388671875">
        <ele>585</ele>
        <time>2017-08-04T06:35:07.000Z</time>
        <extensions>
          <ns3:TrackPointExtension>
            <ns3:atemp>42.0</ns3:atemp>
          </ns3:TrackPointExtension>
        </extensions>
      </trkpt>
      <trkpt lat="31.71228683553636074066162109375" lon="35.04736497066915035247802734375">
        <ele>584</ele>
        <time>2017-08-04T06:35:09.000Z</time>
        <extensions>
          <ns3:TrackPointExtension>
            <ns3:atemp>42.0</ns3:atemp>
          </ns3:TrackPointExtension>
        </extensions>
      </trkpt>
      <trkpt lat="31.71225716359913349151611328125" lon="35.0474661402404308319091796875">
        <ele>583</ele>
        <time>2017-08-04T06:35:11.000Z</time>
        <extensions>
          <ns3:TrackPointExtension>
            <ns3:atemp>42.0</ns3:atemp>
          </ns3:TrackPointExtension>
        </extensions>
      </trkpt>
      <trkpt lat="31.712225563824176788330078125" lon="35.04751936532557010650634765625">
        <ele>582.4000244140625</ele>
        <time>2017-08-04T06:35:12.000Z</time>
        <extensions>
          <ns3:TrackPointExtension>
            <ns3:atemp>42.0</ns3:atemp>
          </ns3:TrackPointExtension>
        </extensions>
      </trkpt>
      <trkpt lat="31.7121124081313610076904296875" lon="35.0476532243192195892333984375">
        <ele>581.79998779296875</ele>
        <time>2017-08-04T06:35:15.000Z</time>
        <extensions>
          <ns3:TrackPointExtension>
            <ns3:atemp>42.0</ns3:atemp>
          </ns3:TrackPointExtension>
        </extensions>
      </trkpt>
      <trkpt lat="31.71209824271500110626220703125" lon="35.04769756458699703216552734375">
        <ele>582.20001220703125</ele>
        <time>2017-08-04T06:35:16.000Z</time>
        <extensions>
          <ns3:TrackPointExtension>
            <ns3:atemp>42.0</ns3:atemp>
          </ns3:TrackPointExtension>
        </extensions>
      </trkpt>
      <trkpt lat="31.71209321357309818267822265625" lon="35.0477920286357402801513671875">
        <ele>581.79998779296875</ele>
        <time>2017-08-04T06:35:18.000Z</time>
        <extensions>
          <ns3:TrackPointExtension>
            <ns3:atemp>42.0</ns3:atemp>
          </ns3:TrackPointExtension>
        </extensions>
      </trkpt>
      <trkpt lat="31.71208776533603668212890625" lon="35.04784776829183101654052734375">
        <ele>581.4000244140625</ele>
        <time>2017-08-04T06:35:19.000Z</time>
        <extensions>
          <ns3:TrackPointExtension>
            <ns3:atemp>42.0</ns3:atemp>
          </ns3:TrackPointExtension>
        </extensions>
      </trkpt>
      <trkpt lat="31.71208784915506839752197265625" lon="35.04790007136762142181396484375">
        <ele>580.5999755859375</ele>
        <time>2017-08-04T06:35:20.000Z</time>
        <extensions>
          <ns3:TrackPointExtension>
            <ns3:atemp>42.0</ns3:atemp>
          </ns3:TrackPointExtension>
        </extensions>
      </trkpt>
      <trkpt lat="31.71209053136408329010009765625" lon="35.0479559786617755889892578125">
        <ele>580.20001220703125</ele>
        <time>2017-08-04T06:35:21.000Z</time>
        <extensions>
          <ns3:TrackPointExtension>
            <ns3:atemp>42.0</ns3:atemp>
          </ns3:TrackPointExtension>
        </extensions>
      </trkpt>
      <trkpt lat="31.71209958381950855255126953125" lon="35.04800719209015369415283203125">
        <ele>579.5999755859375</ele>
        <time>2017-08-04T06:35:22.000Z</time>
        <extensions>
          <ns3:TrackPointExtension>
            <ns3:atemp>42.0</ns3:atemp>
          </ns3:TrackPointExtension>
        </extensions>
      </trkpt>
      <trkpt lat="31.71211249195039272308349609375" lon="35.0480622611939907073974609375">
        <ele>579.20001220703125</ele>
        <time>2017-08-04T06:35:23.000Z</time>
        <extensions>
          <ns3:TrackPointExtension>
            <ns3:atemp>42.0</ns3:atemp>
          </ns3:TrackPointExtension>
        </extensions>
      </trkpt>
      <trkpt lat="31.71213663183152675628662109375" lon="35.0481903366744518280029296875">
        <ele>577.20001220703125</ele>
        <time>2017-08-04T06:35:25.000Z</time>
        <extensions>
          <ns3:TrackPointExtension>
            <ns3:atemp>42.0</ns3:atemp>
          </ns3:TrackPointExtension>
        </extensions>
      </trkpt>
      <trkpt lat="31.71213562600314617156982421875" lon="35.04826820455491542816162109375">
        <ele>576.4000244140625</ele>
        <time>2017-08-04T06:35:26.000Z</time>
        <extensions>
          <ns3:TrackPointExtension>
            <ns3:atemp>42.0</ns3:atemp>
          </ns3:TrackPointExtension>
        </extensions>
      </trkpt>
      <trkpt lat="31.7121278308331966400146484375" lon="35.0483500957489013671875">
        <ele>575.20001220703125</ele>
        <time>2017-08-04T06:35:27.000Z</time>
        <extensions>
          <ns3:TrackPointExtension>
            <ns3:atemp>41.0</ns3:atemp>
          </ns3:TrackPointExtension>
        </extensions>
      </trkpt>
      <trkpt lat="31.7121045291423797607421875" lon="35.04842980764806270599365234375">
        <ele>573.4000244140625</ele>
        <time>2017-08-04T06:35:28.000Z</time>
        <extensions>
          <ns3:TrackPointExtension>
            <ns3:atemp>41.0</ns3:atemp>
          </ns3:TrackPointExtension>
        </extensions>
      </trkpt>
      <trkpt lat="31.7120725102722644805908203125" lon="35.048506669700145721435546875">
        <ele>572.4000244140625</ele>
        <time>2017-08-04T06:35:29.000Z</time>
        <extensions>
          <ns3:TrackPointExtension>
            <ns3:atemp>41.0</ns3:atemp>
          </ns3:TrackPointExtension>
        </extensions>
      </trkpt>
      <trkpt lat="31.71203412115573883056640625" lon="35.04857950843870639801025390625">
        <ele>572.4000244140625</ele>
        <time>2017-08-04T06:35:30.000Z</time>
        <extensions>
          <ns3:TrackPointExtension>
            <ns3:atemp>41.0</ns3:atemp>
          </ns3:TrackPointExtension>
        </extensions>
      </trkpt>
      <trkpt lat="31.71189825050532817840576171875" lon="35.0487502478063106536865234375">
        <ele>573.4000244140625</ele>
        <time>2017-08-04T06:35:33.000Z</time>
        <extensions>
          <ns3:TrackPointExtension>
            <ns3:atemp>41.0</ns3:atemp>
          </ns3:TrackPointExtension>
        </extensions>
      </trkpt>
      <trkpt lat="31.71186287887394428253173828125" lon="35.0487978570163249969482421875">
        <ele>574</ele>
        <time>2017-08-04T06:35:34.000Z</time>
        <extensions>
          <ns3:TrackPointExtension>
            <ns3:atemp>41.0</ns3:atemp>
          </ns3:TrackPointExtension>
        </extensions>
      </trkpt>
      <trkpt lat="31.71183370985090732574462890625" lon="35.04884119145572185516357421875">
        <ele>574.5999755859375</ele>
        <time>2017-08-04T06:35:35.000Z</time>
        <extensions>
          <ns3:TrackPointExtension>
            <ns3:atemp>41.0</ns3:atemp>
          </ns3:TrackPointExtension>
        </extensions>
      </trkpt>
      <trkpt lat="31.71174720861017704010009765625" lon="35.04894428886473178863525390625">
        <ele>576</ele>
        <time>2017-08-04T06:35:38.000Z</time>
        <extensions>
          <ns3:TrackPointExtension>
            <ns3:atemp>41.0</ns3:atemp>
          </ns3:TrackPointExtension>
        </extensions>
      </trkpt>
      <trkpt lat="31.711720637977123260498046875" lon="35.04897614009678363800048828125">
        <ele>576.5999755859375</ele>
        <time>2017-08-04T06:35:39.000Z</time>
        <extensions>
          <ns3:TrackPointExtension>
            <ns3:atemp>41.0</ns3:atemp>
          </ns3:TrackPointExtension>
        </extensions>
      </trkpt>
      <trkpt lat="31.71169825829565525054931640625" lon="35.0490084104239940643310546875">
        <ele>577.20001220703125</ele>
        <time>2017-08-04T06:35:40.000Z</time>
        <extensions>
          <ns3:TrackPointExtension>
            <ns3:atemp>41.0</ns3:atemp>
          </ns3:TrackPointExtension>
        </extensions>
      </trkpt>
      <trkpt lat="31.71160228550434112548828125" lon="35.04917177371680736541748046875">
        <ele>578</ele>
        <time>2017-08-04T06:35:45.000Z</time>
        <extensions>
          <ns3:TrackPointExtension>
            <ns3:atemp>41.0</ns3:atemp>
          </ns3:TrackPointExtension>
        </extensions>
      </trkpt>
      <trkpt lat="31.711592562496662139892578125" lon="35.04920664243400096893310546875">
        <ele>578.20001220703125</ele>
        <time>2017-08-04T06:35:46.000Z</time>
        <extensions>
          <ns3:TrackPointExtension>
            <ns3:atemp>41.0</ns3:atemp>
          </ns3:TrackPointExtension>
        </extensions>
      </trkpt>
      <trkpt lat="31.71152927912771701812744140625" lon="35.04941719584167003631591796875">
        <ele>577.79998779296875</ele>
        <time>2017-08-04T06:35:51.000Z</time>
        <extensions>
          <ns3:TrackPointExtension>
            <ns3:atemp>41.0</ns3:atemp>
          </ns3:TrackPointExtension>
        </extensions>
      </trkpt>
      <trkpt lat="31.71141109429299831390380859375" lon="35.04980427213013172149658203125">
        <ele>577.79998779296875</ele>
        <time>2017-08-04T06:35:59.000Z</time>
        <extensions>
          <ns3:TrackPointExtension>
            <ns3:atemp>41.0</ns3:atemp>
          </ns3:TrackPointExtension>
        </extensions>
      </trkpt>
      <trkpt lat="31.7114002816379070281982421875" lon="35.04985439591109752655029296875">
        <ele>577.5999755859375</ele>
        <time>2017-08-04T06:36:00.000Z</time>
        <extensions>
          <ns3:TrackPointExtension>
            <ns3:atemp>41.0</ns3:atemp>
          </ns3:TrackPointExtension>
        </extensions>
      </trkpt>
      <trkpt lat="31.7113553546369075775146484375" lon="35.0500769354403018951416015625">
        <ele>577</ele>
        <time>2017-08-04T06:36:04.000Z</time>
        <extensions>
          <ns3:TrackPointExtension>
            <ns3:atemp>41.0</ns3:atemp>
          </ns3:TrackPointExtension>
        </extensions>
      </trkpt>
      <trkpt lat="31.71137220226228237152099609375" lon="35.050248764455318450927734375">
        <ele>576.4000244140625</ele>
        <time>2017-08-04T06:36:08.000Z</time>
        <extensions>
          <ns3:TrackPointExtension>
            <ns3:atemp>41.0</ns3:atemp>
          </ns3:TrackPointExtension>
        </extensions>
      </trkpt>
      <trkpt lat="31.71137236990034580230712890625" lon="35.05028371699154376983642578125">
        <ele>576.20001220703125</ele>
        <time>2017-08-04T06:36:09.000Z</time>
        <extensions>
          <ns3:TrackPointExtension>
            <ns3:atemp>41.0</ns3:atemp>
          </ns3:TrackPointExtension>
        </extensions>
      </trkpt>
      <trkpt lat="31.71135485172271728515625" lon="35.0503662787377834320068359375">
        <ele>576</ele>
        <time>2017-08-04T06:36:12.000Z</time>
        <extensions>
          <ns3:TrackPointExtension>
            <ns3:atemp>41.0</ns3:atemp>
          </ns3:TrackPointExtension>
        </extensions>
      </trkpt>
      <trkpt lat="31.71135820448398590087890625" lon="35.0503860600292682647705078125">
        <ele>576</ele>
        <time>2017-08-04T06:36:13.000Z</time>
        <extensions>
          <ns3:TrackPointExtension>
            <ns3:atemp>41.0</ns3:atemp>
          </ns3:TrackPointExtension>
        </extensions>
      </trkpt>
      <trkpt lat="31.71136532910168170928955078125" lon="35.050408355891704559326171875">
        <ele>575.79998779296875</ele>
        <time>2017-08-04T06:36:14.000Z</time>
        <extensions>
          <ns3:TrackPointExtension>
            <ns3:atemp>41.0</ns3:atemp>
          </ns3:TrackPointExtension>
        </extensions>
      </trkpt>
      <trkpt lat="31.7113959230482578277587890625" lon="35.050425119698047637939453125">
        <ele>575.5999755859375</ele>
        <time>2017-08-04T06:36:16.000Z</time>
        <extensions>
          <ns3:TrackPointExtension>
            <ns3:atemp>41.0</ns3:atemp>
          </ns3:TrackPointExtension>
        </extensions>
      </trkpt>
      <trkpt lat="31.71142584644258022308349609375" lon="35.05043752491474151611328125">
        <ele>575.4000244140625</ele>
        <time>2017-08-04T06:36:21.000Z</time>
        <extensions>
          <ns3:TrackPointExtension>
            <ns3:atemp>41.0</ns3:atemp>
          </ns3:TrackPointExtension>
        </extensions>
      </trkpt>
      <trkpt lat="31.71142584644258022308349609375" lon="35.05043752491474151611328125">
        <ele>574.79998779296875</ele>
        <time>2017-08-04T06:36:28.000Z</time>
        <extensions>
          <ns3:TrackPointExtension>
            <ns3:atemp>41.0</ns3:atemp>
          </ns3:TrackPointExtension>
        </extensions>
      </trkpt>
      <trkpt lat="31.71142970211803913116455078125" lon="35.05043442361056804656982421875">
        <ele>574.79998779296875</ele>
        <time>2017-08-04T06:36:30.000Z</time>
        <extensions>
          <ns3:TrackPointExtension>
            <ns3:atemp>40.0</ns3:atemp>
          </ns3:TrackPointExtension>
        </extensions>
      </trkpt>
      <trkpt lat="31.71144948340952396392822265625" lon="35.05042520351707935333251953125">
        <ele>574.5999755859375</ele>
        <time>2017-08-04T06:36:31.000Z</time>
        <extensions>
          <ns3:TrackPointExtension>
            <ns3:atemp>40.0</ns3:atemp>
          </ns3:TrackPointExtension>
        </extensions>
      </trkpt>
      <trkpt lat="31.7114715278148651123046875" lon="35.05036384798586368560791015625">
        <ele>573.79998779296875</ele>
        <time>2017-08-04T06:36:33.000Z</time>
        <extensions>
          <ns3:TrackPointExtension>
            <ns3:atemp>40.0</ns3:atemp>
          </ns3:TrackPointExtension>
        </extensions>
      </trkpt>
      <trkpt lat="31.711478568613529205322265625" lon="35.0503310747444629669189453125">
        <ele>573.4000244140625</ele>
        <time>2017-08-04T06:36:34.000Z</time>
        <extensions>
          <ns3:TrackPointExtension>
            <ns3:atemp>40.0</ns3:atemp>
          </ns3:TrackPointExtension>
        </extensions>
      </trkpt>
      <trkpt lat="31.71148619614541530609130859375" lon="35.050303079187870025634765625">
        <ele>573</ele>
        <time>2017-08-04T06:36:35.000Z</time>
        <extensions>
          <ns3:TrackPointExtension>
            <ns3:atemp>40.0</ns3:atemp>
          </ns3:TrackPointExtension>
        </extensions>
      </trkpt>
      <trkpt lat="31.711561381816864013671875" lon="35.05018028430640697479248046875">
        <ele>572.4000244140625</ele>
        <time>2017-08-04T06:36:39.000Z</time>
        <extensions>
          <ns3:TrackPointExtension>
            <ns3:atemp>40.0</ns3:atemp>
          </ns3:TrackPointExtension>
        </extensions>
      </trkpt>
      <trkpt lat="31.71158208511769771575927734375" lon="35.0501453317701816558837890625">
        <ele>570.5999755859375</ele>
        <time>2017-08-04T06:36:40.000Z</time>
        <extensions>
          <ns3:TrackPointExtension>
            <ns3:atemp>40.0</ns3:atemp>
          </ns3:TrackPointExtension>
        </extensions>
      </trkpt>
      <trkpt lat="31.71163983643054962158203125" lon="35.050051622092723846435546875">
        <ele>570.20001220703125</ele>
        <time>2017-08-04T06:36:43.000Z</time>
        <extensions>
          <ns3:TrackPointExtension>
            <ns3:atemp>40.0</ns3:atemp>
          </ns3:TrackPointExtension>
        </extensions>
      </trkpt>
      <trkpt lat="31.71165919862687587738037109375" lon="35.0500363670289516448974609375">
        <ele>569.4000244140625</ele>
        <time>2017-08-04T06:36:44.000Z</time>
        <extensions>
          <ns3:TrackPointExtension>
            <ns3:atemp>40.0</ns3:atemp>
          </ns3:TrackPointExtension>
        </extensions>
      </trkpt>
      <trkpt lat="31.711679399013519287109375" lon="35.050026476383209228515625">
        <ele>569.20001220703125</ele>
        <time>2017-08-04T06:36:45.000Z</time>
        <extensions>
          <ns3:TrackPointExtension>
            <ns3:atemp>40.0</ns3:atemp>
          </ns3:TrackPointExtension>
        </extensions>
      </trkpt>
      <trkpt lat="31.711759530007839202880859375" lon="35.04997911863029003143310546875">
        <ele>568</ele>
        <time>2017-08-04T06:36:49.000Z</time>
        <extensions>
          <ns3:TrackPointExtension>
            <ns3:atemp>40.0</ns3:atemp>
          </ns3:TrackPointExtension>
        </extensions>
      </trkpt>
      <trkpt lat="31.71177453361451625823974609375" lon="35.04996319301426410675048828125">
        <ele>567.4000244140625</ele>
        <time>2017-08-04T06:36:50.000Z</time>
        <extensions>
          <ns3:TrackPointExtension>
            <ns3:atemp>40.0</ns3:atemp>
          </ns3:TrackPointExtension>
        </extensions>
      </trkpt>
      <trkpt lat="31.71181149780750274658203125" lon="35.04992111586034297943115234375">
        <ele>566.4000244140625</ele>
        <time>2017-08-04T06:36:52.000Z</time>
        <extensions>
          <ns3:TrackPointExtension>
            <ns3:atemp>40.0</ns3:atemp>
          </ns3:TrackPointExtension>
        </extensions>
      </trkpt>
      <trkpt lat="31.7118415050208568572998046875" lon="35.0498814694583415985107421875">
        <ele>565.79998779296875</ele>
        <time>2017-08-04T06:36:54.000Z</time>
        <extensions>
          <ns3:TrackPointExtension>
            <ns3:atemp>40.0</ns3:atemp>
          </ns3:TrackPointExtension>
        </extensions>
      </trkpt>
      <trkpt lat="31.71187293715775012969970703125" lon="35.04983914084732532501220703125">
        <ele>565.4000244140625</ele>
        <time>2017-08-04T06:36:56.000Z</time>
        <extensions>
          <ns3:TrackPointExtension>
            <ns3:atemp>40.0</ns3:atemp>
          </ns3:TrackPointExtension>
        </extensions>
      </trkpt>
      <trkpt lat="31.71194870956242084503173828125" lon="35.049755908548831939697265625">
        <ele>564</ele>
        <time>2017-08-04T06:37:00.000Z</time>
        <extensions>
          <ns3:TrackPointExtension>
            <ns3:atemp>40.0</ns3:atemp>
          </ns3:TrackPointExtension>
        </extensions>
      </trkpt>
      <trkpt lat="31.711963713169097900390625" lon="35.04973704926669597625732421875">
        <ele>563.5999755859375</ele>
        <time>2017-08-04T06:37:01.000Z</time>
        <extensions>
          <ns3:TrackPointExtension>
            <ns3:atemp>40.0</ns3:atemp>
          </ns3:TrackPointExtension>
        </extensions>
      </trkpt>
      <trkpt lat="31.71197586692869663238525390625" lon="35.04971676506102085113525390625">
        <ele>563.4000244140625</ele>
        <time>2017-08-04T06:37:02.000Z</time>
        <extensions>
          <ns3:TrackPointExtension>
            <ns3:atemp>40.0</ns3:atemp>
          </ns3:TrackPointExtension>
        </extensions>
      </trkpt>
      <trkpt lat="31.7119945585727691650390625" lon="35.04970720969140529632568359375">
        <ele>563</ele>
        <time>2017-08-04T06:37:03.000Z</time>
        <extensions>
          <ns3:TrackPointExtension>
            <ns3:atemp>40.0</ns3:atemp>
          </ns3:TrackPointExtension>
        </extensions>
      </trkpt>
      <trkpt lat="31.71201727353036403656005859375" lon="35.04969991743564605712890625">
        <ele>562.5999755859375</ele>
        <time>2017-08-04T06:37:04.000Z</time>
        <extensions>
          <ns3:TrackPointExtension>
            <ns3:atemp>40.0</ns3:atemp>
          </ns3:TrackPointExtension>
        </extensions>
      </trkpt>
      <trkpt lat="31.71205935068428516387939453125" lon="35.04969329573214054107666015625">
        <ele>561.4000244140625</ele>
        <time>2017-08-04T06:37:06.000Z</time>
        <extensions>
          <ns3:TrackPointExtension>
            <ns3:atemp>40.0</ns3:atemp>
          </ns3:TrackPointExtension>
        </extensions>
      </trkpt>
      <trkpt lat="31.71210561878979206085205078125" lon="35.049672760069370269775390625">
        <ele>560.20001220703125</ele>
        <time>2017-08-04T06:37:08.000Z</time>
        <extensions>
          <ns3:TrackPointExtension>
            <ns3:atemp>40.0</ns3:atemp>
          </ns3:TrackPointExtension>
        </extensions>
      </trkpt>
      <trkpt lat="31.71218005008995532989501953125" lon="35.04961903207004070281982421875">
        <ele>559</ele>
        <time>2017-08-04T06:37:11.000Z</time>
        <extensions>
          <ns3:TrackPointExtension>
            <ns3:atemp>40.0</ns3:atemp>
          </ns3:TrackPointExtension>
        </extensions>
      </trkpt>
      <trkpt lat="31.71226336620748043060302734375" lon="35.04955180920660495758056640625">
        <ele>557.79998779296875</ele>
        <time>2017-08-04T06:37:15.000Z</time>
        <extensions>
          <ns3:TrackPointExtension>
            <ns3:atemp>40.0</ns3:atemp>
          </ns3:TrackPointExtension>
        </extensions>
      </trkpt>
      <trkpt lat="31.7122813872992992401123046875" lon="35.0495508871972560882568359375">
        <ele>557.4000244140625</ele>
        <time>2017-08-04T06:37:16.000Z</time>
        <extensions>
          <ns3:TrackPointExtension>
            <ns3:atemp>40.0</ns3:atemp>
          </ns3:TrackPointExtension>
        </extensions>
      </trkpt>
      <trkpt lat="31.7122901044785976409912109375" lon="35.04955197684466838836669921875">
        <ele>557.20001220703125</ele>
        <time>2017-08-04T06:37:17.000Z</time>
        <extensions>
          <ns3:TrackPointExtension>
            <ns3:atemp>40.0</ns3:atemp>
          </ns3:TrackPointExtension>
        </extensions>
      </trkpt>
      <trkpt lat="31.71230309642851352691650390625" lon="35.0496330298483371734619140625">
        <ele>556.5999755859375</ele>
        <time>2017-08-04T06:37:21.000Z</time>
        <extensions>
          <ns3:TrackPointExtension>
            <ns3:atemp>39.0</ns3:atemp>
          </ns3:TrackPointExtension>
        </extensions>
      </trkpt>
      <trkpt lat="31.71230074949562549591064453125" lon="35.04965943284332752227783203125">
        <ele>556.20001220703125</ele>
        <time>2017-08-04T06:37:22.000Z</time>
        <extensions>
          <ns3:TrackPointExtension>
            <ns3:atemp>39.0</ns3:atemp>
          </ns3:TrackPointExtension>
        </extensions>
      </trkpt>
      <trkpt lat="31.71228331513702869415283203125" lon="35.0497020967304706573486328125">
        <ele>556.20001220703125</ele>
        <time>2017-08-04T06:37:26.000Z</time>
        <extensions>
          <ns3:TrackPointExtension>
            <ns3:atemp>39.0</ns3:atemp>
          </ns3:TrackPointExtension>
        </extensions>
      </trkpt>
      <trkpt lat="31.7122600972652435302734375" lon="35.04978113807737827301025390625">
        <ele>556.20001220703125</ele>
        <time>2017-08-04T06:37:32.000Z</time>
        <extensions>
          <ns3:TrackPointExtension>
            <ns3:atemp>39.0</ns3:atemp>
          </ns3:TrackPointExtension>
        </extensions>
      </trkpt>
      <trkpt lat="31.7122223787009716033935546875" lon="35.04991583526134490966796875">
        <ele>556.4000244140625</ele>
        <time>2017-08-04T06:37:38.000Z</time>
        <extensions>
          <ns3:TrackPointExtension>
            <ns3:atemp>39.0</ns3:atemp>
          </ns3:TrackPointExtension>
        </extensions>
      </trkpt>
      <trkpt lat="31.7122354544699192047119140625" lon="35.04995028488337993621826171875">
        <ele>556.5999755859375</ele>
        <time>2017-08-04T06:37:41.000Z</time>
        <extensions>
          <ns3:TrackPointExtension>
            <ns3:atemp>39.0</ns3:atemp>
          </ns3:TrackPointExtension>
        </extensions>
      </trkpt>
      <trkpt lat="31.712253056466579437255859375" lon="35.049951374530792236328125">
        <ele>556.4000244140625</ele>
        <time>2017-08-04T06:37:42.000Z</time>
        <extensions>
          <ns3:TrackPointExtension>
            <ns3:atemp>39.0</ns3:atemp>
          </ns3:TrackPointExtension>
        </extensions>
      </trkpt>
      <trkpt lat="31.71228733845055103302001953125" lon="35.04992463625967502593994140625">
        <ele>555.4000244140625</ele>
        <time>2017-08-04T06:37:44.000Z</time>
        <extensions>
          <ns3:TrackPointExtension>
            <ns3:atemp>39.0</ns3:atemp>
          </ns3:TrackPointExtension>
        </extensions>
      </trkpt>
      <trkpt lat="31.71231265179812908172607421875" lon="35.0498978979885578155517578125">
        <ele>554.79998779296875</ele>
        <time>2017-08-04T06:37:46.000Z</time>
        <extensions>
          <ns3:TrackPointExtension>
            <ns3:atemp>39.0</ns3:atemp>
          </ns3:TrackPointExtension>
        </extensions>
      </trkpt>
      <trkpt lat="31.7123279906809329986572265625" lon="35.04988390021026134490966796875">
        <ele>554.4000244140625</ele>
        <time>2017-08-04T06:37:48.000Z</time>
        <extensions>
          <ns3:TrackPointExtension>
            <ns3:atemp>39.0</ns3:atemp>
          </ns3:TrackPointExtension>
        </extensions>
      </trkpt>
      <trkpt lat="31.7123298346996307373046875" lon="35.0498818047344684600830078125">
        <ele>554</ele>
        <time>2017-08-04T06:37:51.000Z</time>
        <extensions>
          <ns3:TrackPointExtension>
            <ns3:atemp>39.0</ns3:atemp>
          </ns3:TrackPointExtension>
        </extensions>
      </trkpt>
      <trkpt lat="31.71233721077442169189453125" lon="35.04987468011677265167236328125">
        <ele>554</ele>
        <time>2017-08-04T06:37:52.000Z</time>
        <extensions>
          <ns3:TrackPointExtension>
            <ns3:atemp>39.0</ns3:atemp>
          </ns3:TrackPointExtension>
        </extensions>
      </trkpt>
      <trkpt lat="31.7123564891517162322998046875" lon="35.04985791631042957305908203125">
        <ele>553.20001220703125</ele>
        <time>2017-08-04T06:37:54.000Z</time>
        <extensions>
          <ns3:TrackPointExtension>
            <ns3:atemp>39.0</ns3:atemp>
          </ns3:TrackPointExtension>
        </extensions>
      </trkpt>
      <trkpt lat="31.71236663125455379486083984375" lon="35.0498409010469913482666015625">
        <ele>553</ele>
        <time>2017-08-04T06:37:56.000Z</time>
        <extensions>
          <ns3:TrackPointExtension>
            <ns3:atemp>39.0</ns3:atemp>
          </ns3:TrackPointExtension>
        </extensions>
      </trkpt>
      <trkpt lat="31.71244910918176174163818359375" lon="35.04974291659891605377197265625">
        <ele>551.79998779296875</ele>
        <time>2017-08-04T06:38:01.000Z</time>
        <extensions>
          <ns3:TrackPointExtension>
            <ns3:atemp>39.0</ns3:atemp>
          </ns3:TrackPointExtension>
        </extensions>
      </trkpt>
      <trkpt lat="31.71252739615738391876220703125" lon="35.04961802624166011810302734375">
        <ele>551</ele>
        <time>2017-08-04T06:38:07.000Z</time>
        <extensions>
          <ns3:TrackPointExtension>
            <ns3:atemp>39.0</ns3:atemp>
          </ns3:TrackPointExtension>
        </extensions>
      </trkpt>
      <trkpt lat="31.71258531510829925537109375" lon="35.04950637929141521453857421875">
        <ele>550.4000244140625</ele>
        <time>2017-08-04T06:38:12.000Z</time>
        <extensions>
          <ns3:TrackPointExtension>
            <ns3:atemp>39.0</ns3:atemp>
          </ns3:TrackPointExtension>
        </extensions>
      </trkpt>
      <trkpt lat="31.7126220278441905975341796875" lon="35.0494560040533542633056640625">
        <ele>549</ele>
        <time>2017-08-04T06:38:14.000Z</time>
        <extensions>
          <ns3:TrackPointExtension>
            <ns3:atemp>38.0</ns3:atemp>
          </ns3:TrackPointExtension>
        </extensions>
      </trkpt>
      <trkpt lat="31.71267692930996417999267578125" lon="35.04939171485602855682373046875">
        <ele>548</ele>
        <time>2017-08-04T06:38:17.000Z</time>
        <extensions>
          <ns3:TrackPointExtension>
            <ns3:atemp>38.0</ns3:atemp>
          </ns3:TrackPointExtension>
        </extensions>
      </trkpt>
      <trkpt lat="31.7127008177340030670166015625" lon="35.0493787229061126708984375">
        <ele>547.79998779296875</ele>
        <time>2017-08-04T06:38:18.000Z</time>
        <extensions>
          <ns3:TrackPointExtension>
            <ns3:atemp>38.0</ns3:atemp>
          </ns3:TrackPointExtension>
        </extensions>
      </trkpt>
      <trkpt lat="31.712772734463214874267578125" lon="35.04932214505970478057861328125">
        <ele>546.79998779296875</ele>
        <time>2017-08-04T06:38:21.000Z</time>
        <extensions>
          <ns3:TrackPointExtension>
            <ns3:atemp>38.0</ns3:atemp>
          </ns3:TrackPointExtension>
        </extensions>
      </trkpt>
      <trkpt lat="31.7128077708184719085693359375" lon="35.049286521971225738525390625">
        <ele>545.79998779296875</ele>
        <time>2017-08-04T06:38:23.000Z</time>
        <extensions>
          <ns3:TrackPointExtension>
            <ns3:atemp>38.0</ns3:atemp>
          </ns3:TrackPointExtension>
        </extensions>
      </trkpt>
      <trkpt lat="31.71285085380077362060546875" lon="35.04924737848341464996337890625">
        <ele>545.5999755859375</ele>
        <time>2017-08-04T06:38:25.000Z</time>
        <extensions>
          <ns3:TrackPointExtension>
            <ns3:atemp>38.0</ns3:atemp>
          </ns3:TrackPointExtension>
        </extensions>
      </trkpt>
      <trkpt lat="31.7128714732825756072998046875" lon="35.0492441095411777496337890625">
        <ele>545.20001220703125</ele>
        <time>2017-08-04T06:38:26.000Z</time>
        <extensions>
          <ns3:TrackPointExtension>
            <ns3:atemp>38.0</ns3:atemp>
          </ns3:TrackPointExtension>
        </extensions>
      </trkpt>
      <trkpt lat="31.71291866339743137359619140625" lon="35.04929062910377979278564453125">
        <ele>544.79998779296875</ele>
        <time>2017-08-04T06:38:29.000Z</time>
        <extensions>
          <ns3:TrackPointExtension>
            <ns3:atemp>38.0</ns3:atemp>
          </ns3:TrackPointExtension>
        </extensions>
      </trkpt>
      <trkpt lat="31.7129251174628734588623046875" lon="35.0493232347071170806884765625">
        <ele>544.5999755859375</ele>
        <time>2017-08-04T06:38:30.000Z</time>
        <extensions>
          <ns3:TrackPointExtension>
            <ns3:atemp>38.0</ns3:atemp>
          </ns3:TrackPointExtension>
        </extensions>
      </trkpt>
      <trkpt lat="31.71293090097606182098388671875" lon="35.049427337944507598876953125">
        <ele>543.20001220703125</ele>
        <time>2017-08-04T06:38:32.000Z</time>
        <extensions>
          <ns3:TrackPointExtension>
            <ns3:atemp>38.0</ns3:atemp>
          </ns3:TrackPointExtension>
        </extensions>
      </trkpt>
      <trkpt lat="31.71292972750961780548095703125" lon="35.049485005438327789306640625">
        <ele>542.20001220703125</ele>
        <time>2017-08-04T06:38:33.000Z</time>
        <extensions>
          <ns3:TrackPointExtension>
            <ns3:atemp>38.0</ns3:atemp>
          </ns3:TrackPointExtension>
        </extensions>
      </trkpt>
      <trkpt lat="31.71291883103549480438232421875" lon="35.04954258911311626434326171875">
        <ele>541.4000244140625</ele>
        <time>2017-08-04T06:38:34.000Z</time>
        <extensions>
          <ns3:TrackPointExtension>
            <ns3:atemp>38.0</ns3:atemp>
          </ns3:TrackPointExtension>
        </extensions>
      </trkpt>
      <trkpt lat="31.712904162704944610595703125" lon="35.0495981611311435699462890625">
        <ele>540.79998779296875</ele>
        <time>2017-08-04T06:38:35.000Z</time>
        <extensions>
          <ns3:TrackPointExtension>
            <ns3:atemp>38.0</ns3:atemp>
          </ns3:TrackPointExtension>
        </extensions>
      </trkpt>
      <trkpt lat="31.71289108693599700927734375" lon="35.04970687441527843475341796875">
        <ele>540.4000244140625</ele>
        <time>2017-08-04T06:38:37.000Z</time>
        <extensions>
          <ns3:TrackPointExtension>
            <ns3:atemp>38.0</ns3:atemp>
          </ns3:TrackPointExtension>
        </extensions>
      </trkpt>
      <trkpt lat="31.71289452351629734039306640625" lon="35.0497882626950740814208984375">
        <ele>540</ele>
        <time>2017-08-04T06:38:39.000Z</time>
        <extensions>
          <ns3:TrackPointExtension>
            <ns3:atemp>38.0</ns3:atemp>
          </ns3:TrackPointExtension>
        </extensions>
      </trkpt>
      <trkpt lat="31.71291598118841648101806640625" lon="35.04983444698154926300048828125">
        <ele>539.5999755859375</ele>
        <time>2017-08-04T06:38:40.000Z</time>
        <extensions>
          <ns3:TrackPointExtension>
            <ns3:atemp>38.0</ns3:atemp>
          </ns3:TrackPointExtension>
        </extensions>
      </trkpt>
      <trkpt lat="31.712948419153690338134765625" lon="35.04992790520191192626953125">
        <ele>538.4000244140625</ele>
        <time>2017-08-04T06:38:42.000Z</time>
        <extensions>
          <ns3:TrackPointExtension>
            <ns3:atemp>38.0</ns3:atemp>
          </ns3:TrackPointExtension>
        </extensions>
      </trkpt>
      <trkpt lat="31.71296627260744571685791015625" lon="35.0500685535371303558349609375">
        <ele>538</ele>
        <time>2017-08-04T06:38:45.000Z</time>
        <extensions>
          <ns3:TrackPointExtension>
            <ns3:atemp>38.0</ns3:atemp>
          </ns3:TrackPointExtension>
        </extensions>
      </trkpt>
      <trkpt lat="31.71296945773065090179443359375" lon="35.05021699704229831695556640625">
        <ele>538.20001220703125</ele>
        <time>2017-08-04T06:38:48.000Z</time>
        <extensions>
          <ns3:TrackPointExtension>
            <ns3:atemp>38.0</ns3:atemp>
          </ns3:TrackPointExtension>
        </extensions>
      </trkpt>
      <trkpt lat="31.71297691762447357177734375" lon="35.05026410333812236785888671875">
        <ele>538.4000244140625</ele>
        <time>2017-08-04T06:38:49.000Z</time>
        <extensions>
          <ns3:TrackPointExtension>
            <ns3:atemp>38.0</ns3:atemp>
          </ns3:TrackPointExtension>
        </extensions>
      </trkpt>
      <trkpt lat="31.713010109961032867431640625" lon="35.05034155212342739105224609375">
        <ele>538.5999755859375</ele>
        <time>2017-08-04T06:38:51.000Z</time>
        <extensions>
          <ns3:TrackPointExtension>
            <ns3:atemp>38.0</ns3:atemp>
          </ns3:TrackPointExtension>
        </extensions>
      </trkpt>
      <trkpt lat="31.71311211772263050079345703125" lon="35.05047381855547428131103515625">
        <ele>537.20001220703125</ele>
        <time>2017-08-04T06:38:55.000Z</time>
        <extensions>
          <ns3:TrackPointExtension>
            <ns3:atemp>38.0</ns3:atemp>
          </ns3:TrackPointExtension>
        </extensions>
      </trkpt>
      <trkpt lat="31.7131906561553478240966796875" lon="35.05051396787166595458984375">
        <ele>535.79998779296875</ele>
        <time>2017-08-04T06:38:57.000Z</time>
        <extensions>
          <ns3:TrackPointExtension>
            <ns3:atemp>38.0</ns3:atemp>
          </ns3:TrackPointExtension>
        </extensions>
      </trkpt>
      <trkpt lat="31.7132337391376495361328125" lon="35.050528049468994140625">
        <ele>535</ele>
        <time>2017-08-04T06:38:58.000Z</time>
        <extensions>
          <ns3:TrackPointExtension>
            <ns3:atemp>38.0</ns3:atemp>
          </ns3:TrackPointExtension>
        </extensions>
      </trkpt>
      <trkpt lat="31.71327020041644573211669921875" lon="35.05053333006799221038818359375">
        <ele>534.4000244140625</ele>
        <time>2017-08-04T06:38:59.000Z</time>
        <extensions>
          <ns3:TrackPointExtension>
            <ns3:atemp>38.0</ns3:atemp>
          </ns3:TrackPointExtension>
        </extensions>
      </trkpt>
      <trkpt lat="31.7133036442101001739501953125" lon="35.05053534172475337982177734375">
        <ele>534.20001220703125</ele>
        <time>2017-08-04T06:39:00.000Z</time>
        <extensions>
          <ns3:TrackPointExtension>
            <ns3:atemp>38.0</ns3:atemp>
          </ns3:TrackPointExtension>
        </extensions>
      </trkpt>
      <trkpt lat="31.7133750580251216888427734375" lon="35.0505285523831844329833984375">
        <ele>533.79998779296875</ele>
        <time>2017-08-04T06:39:02.000Z</time>
        <extensions>
          <ns3:TrackPointExtension>
            <ns3:atemp>38.0</ns3:atemp>
          </ns3:TrackPointExtension>
        </extensions>
      </trkpt>
      <trkpt lat="31.7134126089513301849365234375" lon="35.05052528344094753265380859375">
        <ele>533</ele>
        <time>2017-08-04T06:39:03.000Z</time>
        <extensions>
          <ns3:TrackPointExtension>
            <ns3:atemp>38.0</ns3:atemp>
          </ns3:TrackPointExtension>
        </extensions>
      </trkpt>
      <trkpt lat="31.71347580850124359130859375" lon="35.05052058957517147064208984375">
        <ele>531.20001220703125</ele>
        <time>2017-08-04T06:39:05.000Z</time>
        <extensions>
          <ns3:TrackPointExtension>
            <ns3:atemp>38.0</ns3:atemp>
          </ns3:TrackPointExtension>
        </extensions>
      </trkpt>
      <trkpt lat="31.71350623480975627899169921875" lon="35.050517655909061431884765625">
        <ele>530.79998779296875</ele>
        <time>2017-08-04T06:39:06.000Z</time>
        <extensions>
          <ns3:TrackPointExtension>
            <ns3:atemp>38.0</ns3:atemp>
          </ns3:TrackPointExtension>
        </extensions>
      </trkpt>
      <trkpt lat="31.71356406994163990020751953125" lon="35.05051488988101482391357421875">
        <ele>530.20001220703125</ele>
        <time>2017-08-04T06:39:08.000Z</time>
        <extensions>
          <ns3:TrackPointExtension>
            <ns3:atemp>38.0</ns3:atemp>
          </ns3:TrackPointExtension>
        </extensions>
      </trkpt>
      <trkpt lat="31.71362676657736301422119140625" lon="35.05051002837717533111572265625">
        <ele>529.4000244140625</ele>
        <time>2017-08-04T06:39:12.000Z</time>
        <extensions>
          <ns3:TrackPointExtension>
            <ns3:atemp>37.0</ns3:atemp>
          </ns3:TrackPointExtension>
        </extensions>
      </trkpt>
      <trkpt lat="31.71362525783479213714599609375" lon="35.05050566978752613067626953125">
        <ele>529.20001220703125</ele>
        <time>2017-08-04T06:39:15.000Z</time>
        <extensions>
          <ns3:TrackPointExtension>
            <ns3:atemp>37.0</ns3:atemp>
          </ns3:TrackPointExtension>
        </extensions>
      </trkpt>
      <trkpt lat="31.71362374909222126007080078125" lon="35.0505034066736698150634765625">
        <ele>529</ele>
        <time>2017-08-04T06:39:17.000Z</time>
        <extensions>
          <ns3:TrackPointExtension>
            <ns3:atemp>37.0</ns3:atemp>
          </ns3:TrackPointExtension>
        </extensions>
      </trkpt>
      <trkpt lat="31.71361704356968402862548828125" lon="35.0505024008452892303466796875">
        <ele>528.79998779296875</ele>
        <time>2017-08-04T06:39:18.000Z</time>
        <extensions>
          <ns3:TrackPointExtension>
            <ns3:atemp>37.0</ns3:atemp>
          </ns3:TrackPointExtension>
        </extensions>
      </trkpt>
      <trkpt lat="31.71361754648387432098388671875" lon="35.05050181411206722259521484375">
        <ele>528.79998779296875</ele>
        <time>2017-08-04T06:39:20.000Z</time>
        <extensions>
          <ns3:TrackPointExtension>
            <ns3:atemp>37.0</ns3:atemp>
          </ns3:TrackPointExtension>
        </extensions>
      </trkpt>
      <trkpt lat="31.71361754648387432098388671875" lon="35.05050181411206722259521484375">
        <ele>528.5999755859375</ele>
        <time>2017-08-04T06:39:27.000Z</time>
        <extensions>
          <ns3:TrackPointExtension>
            <ns3:atemp>37.0</ns3:atemp>
          </ns3:TrackPointExtension>
        </extensions>
      </trkpt>
      <trkpt lat="31.71361754648387432098388671875" lon="35.05050181411206722259521484375">
        <ele>528.5999755859375</ele>
        <time>2017-08-04T06:39:45.000Z</time>
        <extensions>
          <ns3:TrackPointExtension>
            <ns3:atemp>37.0</ns3:atemp>
          </ns3:TrackPointExtension>
        </extensions>
      </trkpt>
      <trkpt lat="31.71361670829355716705322265625" lon="35.05050131119787693023681640625">
        <ele>528.79998779296875</ele>
        <time>2017-08-04T06:40:04.000Z</time>
        <extensions>
          <ns3:TrackPointExtension>
            <ns3:atemp>37.0</ns3:atemp>
          </ns3:TrackPointExtension>
        </extensions>
      </trkpt>
      <trkpt lat="31.71361670829355716705322265625" lon="35.05050131119787693023681640625">
        <ele>528.79998779296875</ele>
        <time>2017-08-04T06:40:16.000Z</time>
        <extensions>
          <ns3:TrackPointExtension>
            <ns3:atemp>37.0</ns3:atemp>
          </ns3:TrackPointExtension>
        </extensions>
      </trkpt>
      <trkpt lat="31.71361670829355716705322265625" lon="35.05050131119787693023681640625">
        <ele>528.79998779296875</ele>
        <time>2017-08-04T06:40:28.000Z</time>
        <extensions>
          <ns3:TrackPointExtension>
            <ns3:atemp>37.0</ns3:atemp>
          </ns3:TrackPointExtension>
        </extensions>
      </trkpt>
      <trkpt lat="31.713618300855159759521484375" lon="35.0505025684833526611328125">
        <ele>528.79998779296875</ele>
        <time>2017-08-04T06:40:46.000Z</time>
        <extensions>
          <ns3:TrackPointExtension>
            <ns3:atemp>37.0</ns3:atemp>
          </ns3:TrackPointExtension>
        </extensions>
      </trkpt>
      <trkpt lat="31.713618300855159759521484375" lon="35.0505025684833526611328125">
        <ele>528.79998779296875</ele>
        <time>2017-08-04T06:40:58.000Z</time>
        <extensions>
          <ns3:TrackPointExtension>
            <ns3:atemp>37.0</ns3:atemp>
          </ns3:TrackPointExtension>
        </extensions>
      </trkpt>
      <trkpt lat="31.713618300855159759521484375" lon="35.0505025684833526611328125">
        <ele>528.5999755859375</ele>
        <time>2017-08-04T06:41:14.000Z</time>
        <extensions>
          <ns3:TrackPointExtension>
            <ns3:atemp>37.0</ns3:atemp>
          </ns3:TrackPointExtension>
        </extensions>
      </trkpt>
      <trkpt lat="31.7136174626648426055908203125" lon="35.050501562654972076416015625">
        <ele>528.79998779296875</ele>
        <time>2017-08-04T06:41:26.000Z</time>
        <extensions>
          <ns3:TrackPointExtension>
            <ns3:atemp>37.0</ns3:atemp>
          </ns3:TrackPointExtension>
        </extensions>
      </trkpt>
      <trkpt lat="31.7136174626648426055908203125" lon="35.050501562654972076416015625">
        <ele>529</ele>
        <time>2017-08-04T06:41:36.000Z</time>
        <extensions>
          <ns3:TrackPointExtension>
            <ns3:atemp>37.0</ns3:atemp>
          </ns3:TrackPointExtension>
        </extensions>
      </trkpt>
      <trkpt lat="31.7136174626648426055908203125" lon="35.050501562654972076416015625">
        <ele>529</ele>
        <time>2017-08-04T06:41:48.000Z</time>
        <extensions>
          <ns3:TrackPointExtension>
            <ns3:atemp>37.0</ns3:atemp>
          </ns3:TrackPointExtension>
        </extensions>
      </trkpt>
      <trkpt lat="31.7136174626648426055908203125" lon="35.050501562654972076416015625">
        <ele>528.79998779296875</ele>
        <time>2017-08-04T06:41:57.000Z</time>
        <extensions>
          <ns3:TrackPointExtension>
            <ns3:atemp>37.0</ns3:atemp>
          </ns3:TrackPointExtension>
        </extensions>
      </trkpt>
      <trkpt lat="31.7136174626648426055908203125" lon="35.0505044125020503997802734375">
        <ele>528.79998779296875</ele>
        <time>2017-08-04T06:42:08.000Z</time>
        <extensions>
          <ns3:TrackPointExtension>
            <ns3:atemp>37.0</ns3:atemp>
          </ns3:TrackPointExtension>
        </extensions>
      </trkpt>
      <trkpt lat="31.7136174626648426055908203125" lon="35.0505044125020503997802734375">
        <ele>529</ele>
        <time>2017-08-04T06:42:17.000Z</time>
        <extensions>
          <ns3:TrackPointExtension>
            <ns3:atemp>37.0</ns3:atemp>
          </ns3:TrackPointExtension>
        </extensions>
      </trkpt>
      <trkpt lat="31.7136174626648426055908203125" lon="35.0505044125020503997802734375">
        <ele>529</ele>
        <time>2017-08-04T06:42:27.000Z</time>
        <extensions>
          <ns3:TrackPointExtension>
            <ns3:atemp>37.0</ns3:atemp>
          </ns3:TrackPointExtension>
        </extensions>
      </trkpt>
      <trkpt lat="31.7136174626648426055908203125" lon="35.0505044125020503997802734375">
        <ele>529</ele>
        <time>2017-08-04T06:42:38.000Z</time>
        <extensions>
          <ns3:TrackPointExtension>
            <ns3:atemp>37.0</ns3:atemp>
          </ns3:TrackPointExtension>
        </extensions>
      </trkpt>
      <trkpt lat="31.71361519955098628997802734375" lon="35.0505107827484607696533203125">
        <ele>528.79998779296875</ele>
        <time>2017-08-04T06:42:49.000Z</time>
        <extensions>
          <ns3:TrackPointExtension>
            <ns3:atemp>37.0</ns3:atemp>
          </ns3:TrackPointExtension>
        </extensions>
      </trkpt>
      <trkpt lat="31.71361519955098628997802734375" lon="35.0505107827484607696533203125">
        <ele>529</ele>
        <time>2017-08-04T06:43:00.000Z</time>
        <extensions>
          <ns3:TrackPointExtension>
            <ns3:atemp>37.0</ns3:atemp>
          </ns3:TrackPointExtension>
        </extensions>
      </trkpt>
      <trkpt lat="31.71361519955098628997802734375" lon="35.0505107827484607696533203125">
        <ele>529</ele>
        <time>2017-08-04T06:43:12.000Z</time>
        <extensions>
          <ns3:TrackPointExtension>
            <ns3:atemp>37.0</ns3:atemp>
          </ns3:TrackPointExtension>
        </extensions>
      </trkpt>
      <trkpt lat="31.7136141099035739898681640625" lon="35.05050986073911190032958984375">
        <ele>529.20001220703125</ele>
        <time>2017-08-04T06:43:25.000Z</time>
        <extensions>
          <ns3:TrackPointExtension>
            <ns3:atemp>37.0</ns3:atemp>
          </ns3:TrackPointExtension>
        </extensions>
      </trkpt>
      <trkpt lat="31.7136141099035739898681640625" lon="35.05050986073911190032958984375">
        <ele>529.20001220703125</ele>
        <time>2017-08-04T06:43:34.000Z</time>
        <extensions>
          <ns3:TrackPointExtension>
            <ns3:atemp>37.0</ns3:atemp>
          </ns3:TrackPointExtension>
        </extensions>
      </trkpt>
      <trkpt lat="31.7136141099035739898681640625" lon="35.05050986073911190032958984375">
        <ele>529</ele>
        <time>2017-08-04T06:43:43.000Z</time>
        <extensions>
          <ns3:TrackPointExtension>
            <ns3:atemp>37.0</ns3:atemp>
          </ns3:TrackPointExtension>
        </extensions>
      </trkpt>
      <trkpt lat="31.7136141099035739898681640625" lon="35.05050986073911190032958984375">
        <ele>529.20001220703125</ele>
        <time>2017-08-04T06:43:53.000Z</time>
        <extensions>
          <ns3:TrackPointExtension>
            <ns3:atemp>37.0</ns3:atemp>
          </ns3:TrackPointExtension>
        </extensions>
      </trkpt>
      <trkpt lat="31.7136132717132568359375" lon="35.0504993833601474761962890625">
        <ele>529.20001220703125</ele>
        <time>2017-08-04T06:44:08.000Z</time>
        <extensions>
          <ns3:TrackPointExtension>
            <ns3:atemp>37.0</ns3:atemp>
          </ns3:TrackPointExtension>
        </extensions>
      </trkpt>
      <trkpt lat="31.7135958373546600341796875" lon="35.05042704753577709197998046875">
        <ele>529</ele>
        <time>2017-08-04T06:44:14.000Z</time>
        <extensions>
          <ns3:TrackPointExtension>
            <ns3:atemp>37.0</ns3:atemp>
          </ns3:TrackPointExtension>
        </extensions>
      </trkpt>
      <trkpt lat="31.713583432137966156005859375" lon="35.05045068450272083282470703125">
        <ele>529.20001220703125</ele>
        <time>2017-08-04T06:44:18.000Z</time>
        <extensions>
          <ns3:TrackPointExtension>
            <ns3:atemp>37.0</ns3:atemp>
          </ns3:TrackPointExtension>
        </extensions>
      </trkpt>
      <trkpt lat="31.713589467108249664306640625" lon="35.05046225152909755706787109375">
        <ele>529</ele>
        <time>2017-08-04T06:44:19.000Z</time>
        <extensions>
          <ns3:TrackPointExtension>
            <ns3:atemp>37.0</ns3:atemp>
          </ns3:TrackPointExtension>
        </extensions>
      </trkpt>
      <trkpt lat="31.7136164568364620208740234375" lon="35.05047775804996490478515625">
        <ele>528.79998779296875</ele>
        <time>2017-08-04T06:44:24.000Z</time>
        <extensions>
          <ns3:TrackPointExtension>
            <ns3:atemp>37.0</ns3:atemp>
          </ns3:TrackPointExtension>
        </extensions>
      </trkpt>
      <trkpt lat="31.7136164568364620208740234375" lon="35.05047775804996490478515625">
        <ele>529</ele>
        <time>2017-08-04T06:44:35.000Z</time>
        <extensions>
          <ns3:TrackPointExtension>
            <ns3:atemp>37.0</ns3:atemp>
          </ns3:TrackPointExtension>
        </extensions>
      </trkpt>
      <trkpt lat="31.71365476213395595550537109375" lon="35.05050147883594036102294921875">
        <ele>528.5999755859375</ele>
        <time>2017-08-04T06:44:43.000Z</time>
        <extensions>
          <ns3:TrackPointExtension>
            <ns3:atemp>37.0</ns3:atemp>
          </ns3:TrackPointExtension>
        </extensions>
      </trkpt>
      <trkpt lat="31.7136918939650058746337890625" lon="35.05050801672041416168212890625">
        <ele>528</ele>
        <time>2017-08-04T06:44:44.000Z</time>
        <extensions>
          <ns3:TrackPointExtension>
            <ns3:atemp>37.0</ns3:atemp>
          </ns3:TrackPointExtension>
        </extensions>
      </trkpt>
      <trkpt lat="31.713758446276187896728515625" lon="35.05050935782492160797119140625">
        <ele>526.5999755859375</ele>
        <time>2017-08-04T06:44:46.000Z</time>
        <extensions>
          <ns3:TrackPointExtension>
            <ns3:atemp>37.0</ns3:atemp>
          </ns3:TrackPointExtension>
        </extensions>
      </trkpt>
      <trkpt lat="31.71387000940740108489990234375" lon="35.05051975138485431671142578125">
        <ele>525.79998779296875</ele>
        <time>2017-08-04T06:44:49.000Z</time>
        <extensions>
          <ns3:TrackPointExtension>
            <ns3:atemp>37.0</ns3:atemp>
          </ns3:TrackPointExtension>
        </extensions>
      </trkpt>
      <trkpt lat="31.71391569077968597412109375" lon="35.0505426339805126190185546875">
        <ele>525.4000244140625</ele>
        <time>2017-08-04T06:44:50.000Z</time>
        <extensions>
          <ns3:TrackPointExtension>
            <ns3:atemp>37.0</ns3:atemp>
          </ns3:TrackPointExtension>
        </extensions>
      </trkpt>
      <trkpt lat="31.71400596387684345245361328125" lon="35.0506070069968700408935546875">
        <ele>524.20001220703125</ele>
        <time>2017-08-04T06:44:52.000Z</time>
        <extensions>
          <ns3:TrackPointExtension>
            <ns3:atemp>37.0</ns3:atemp>
          </ns3:TrackPointExtension>
        </extensions>
      </trkpt>
      <trkpt lat="31.71413202770054340362548828125" lon="35.0506780855357646942138671875">
        <ele>523.5999755859375</ele>
        <time>2017-08-04T06:44:55.000Z</time>
        <extensions>
          <ns3:TrackPointExtension>
            <ns3:atemp>37.0</ns3:atemp>
          </ns3:TrackPointExtension>
        </extensions>
      </trkpt>
      <trkpt lat="31.71424694359302520751953125" lon="35.05069878883659839630126953125">
        <ele>524</ele>
        <time>2017-08-04T06:44:58.000Z</time>
        <extensions>
          <ns3:TrackPointExtension>
            <ns3:atemp>37.0</ns3:atemp>
          </ns3:TrackPointExtension>
        </extensions>
      </trkpt>
      <trkpt lat="31.7142990790307521820068359375" lon="35.05079534836113452911376953125">
        <ele>524.5999755859375</ele>
        <time>2017-08-04T06:45:01.000Z</time>
        <extensions>
          <ns3:TrackPointExtension>
            <ns3:atemp>37.0</ns3:atemp>
          </ns3:TrackPointExtension>
        </extensions>
      </trkpt>
      <trkpt lat="31.71431475318968296051025390625" lon="35.05083910189568996429443359375">
        <ele>525.20001220703125</ele>
        <time>2017-08-04T06:45:03.000Z</time>
        <extensions>
          <ns3:TrackPointExtension>
            <ns3:atemp>37.0</ns3:atemp>
          </ns3:TrackPointExtension>
        </extensions>
      </trkpt>
      <trkpt lat="31.71432615257799625396728515625" lon="35.05086592398583889007568359375">
        <ele>525.4000244140625</ele>
        <time>2017-08-04T06:45:04.000Z</time>
        <extensions>
          <ns3:TrackPointExtension>
            <ns3:atemp>37.0</ns3:atemp>
          </ns3:TrackPointExtension>
        </extensions>
      </trkpt>
      <trkpt lat="31.7143383063375949859619140625" lon="35.0508943386375904083251953125">
        <ele>526</ele>
        <time>2017-08-04T06:45:05.000Z</time>
        <extensions>
          <ns3:TrackPointExtension>
            <ns3:atemp>37.0</ns3:atemp>
          </ns3:TrackPointExtension>
        </extensions>
      </trkpt>
      <trkpt lat="31.7143627814948558807373046875" lon="35.05099408328533172607421875">
        <ele>526.4000244140625</ele>
        <time>2017-08-04T06:45:08.000Z</time>
        <extensions>
          <ns3:TrackPointExtension>
            <ns3:atemp>37.0</ns3:atemp>
          </ns3:TrackPointExtension>
        </extensions>
      </trkpt>
      <trkpt lat="31.71439304016530513763427734375" lon="35.0510631501674652099609375">
        <ele>527.4000244140625</ele>
        <time>2017-08-04T06:45:11.000Z</time>
        <extensions>
          <ns3:TrackPointExtension>
            <ns3:atemp>37.0</ns3:atemp>
          </ns3:TrackPointExtension>
        </extensions>
      </trkpt>
      <trkpt lat="31.71440728940069675445556640625" lon="35.0510752201080322265625">
        <ele>527.5999755859375</ele>
        <time>2017-08-04T06:45:12.000Z</time>
        <extensions>
          <ns3:TrackPointExtension>
            <ns3:atemp>37.0</ns3:atemp>
          </ns3:TrackPointExtension>
        </extensions>
      </trkpt>
      <trkpt lat="31.71443411149084568023681640625" lon="35.0510887987911701202392578125">
        <ele>528</ele>
        <time>2017-08-04T06:45:14.000Z</time>
        <extensions>
          <ns3:TrackPointExtension>
            <ns3:atemp>37.0</ns3:atemp>
          </ns3:TrackPointExtension>
        </extensions>
      </trkpt>
      <trkpt lat="31.71446663327515125274658203125" lon="35.0510867871344089508056640625">
        <ele>528.20001220703125</ele>
        <time>2017-08-04T06:45:16.000Z</time>
        <extensions>
          <ns3:TrackPointExtension>
            <ns3:atemp>37.0</ns3:atemp>
          </ns3:TrackPointExtension>
        </extensions>
      </trkpt>
      <trkpt lat="31.71453217975795269012451171875" lon="35.05107983015477657318115234375">
        <ele>528.79998779296875</ele>
        <time>2017-08-04T06:45:19.000Z</time>
        <extensions>
          <ns3:TrackPointExtension>
            <ns3:atemp>37.0</ns3:atemp>
          </ns3:TrackPointExtension>
        </extensions>
      </trkpt>
      <trkpt lat="31.7145800404250621795654296875" lon="35.051075555384159088134765625">
        <ele>529.4000244140625</ele>
        <time>2017-08-04T06:45:21.000Z</time>
        <extensions>
          <ns3:TrackPointExtension>
            <ns3:atemp>37.0</ns3:atemp>
          </ns3:TrackPointExtension>
        </extensions>
      </trkpt>
      <trkpt lat="31.71465338207781314849853515625" lon="35.05107714794576168060302734375">
        <ele>529.79998779296875</ele>
        <time>2017-08-04T06:45:24.000Z</time>
        <extensions>
          <ns3:TrackPointExtension>
            <ns3:atemp>37.0</ns3:atemp>
          </ns3:TrackPointExtension>
        </extensions>
      </trkpt>
      <trkpt lat="31.71474088914692401885986328125" lon="35.05108150653541088104248046875">
        <ele>530.4000244140625</ele>
        <time>2017-08-04T06:45:28.000Z</time>
        <extensions>
          <ns3:TrackPointExtension>
            <ns3:atemp>37.0</ns3:atemp>
          </ns3:TrackPointExtension>
        </extensions>
      </trkpt>
      <trkpt lat="31.71476067043840885162353515625" lon="35.05108905024826526641845703125">
        <ele>530.79998779296875</ele>
        <time>2017-08-04T06:45:29.000Z</time>
        <extensions>
          <ns3:TrackPointExtension>
            <ns3:atemp>37.0</ns3:atemp>
          </ns3:TrackPointExtension>
        </extensions>
      </trkpt>
      <trkpt lat="31.71482789330184459686279296875" lon="35.05114638246595859527587890625">
        <ele>531.4000244140625</ele>
        <time>2017-08-04T06:45:33.000Z</time>
        <extensions>
          <ns3:TrackPointExtension>
            <ns3:atemp>36.0</ns3:atemp>
          </ns3:TrackPointExtension>
        </extensions>
      </trkpt>
      <trkpt lat="31.71486024744808673858642578125" lon="35.05120329558849334716796875">
        <ele>532</ele>
        <time>2017-08-04T06:45:36.000Z</time>
        <extensions>
          <ns3:TrackPointExtension>
            <ns3:atemp>36.0</ns3:atemp>
          </ns3:TrackPointExtension>
        </extensions>
      </trkpt>
      <trkpt lat="31.714866198599338531494140625" lon="35.0512839294970035552978515625">
        <ele>532</ele>
        <time>2017-08-04T06:45:39.000Z</time>
        <extensions>
          <ns3:TrackPointExtension>
            <ns3:atemp>36.0</ns3:atemp>
          </ns3:TrackPointExtension>
        </extensions>
      </trkpt>
      <trkpt lat="31.71484909951686859130859375" lon="35.05142767913639545440673828125">
        <ele>532.20001220703125</ele>
        <time>2017-08-04T06:45:45.000Z</time>
        <extensions>
          <ns3:TrackPointExtension>
            <ns3:atemp>36.0</ns3:atemp>
          </ns3:TrackPointExtension>
        </extensions>
      </trkpt>
      <trkpt lat="31.71484281308948993682861328125" lon="35.051512755453586578369140625">
        <ele>532</ele>
        <time>2017-08-04T06:45:49.000Z</time>
        <extensions>
          <ns3:TrackPointExtension>
            <ns3:atemp>36.0</ns3:atemp>
          </ns3:TrackPointExtension>
        </extensions>
      </trkpt>
      <trkpt lat="31.71485605649650096893310546875" lon="35.05151786841452121734619140625">
        <ele>532.20001220703125</ele>
        <time>2017-08-04T06:45:50.000Z</time>
        <extensions>
          <ns3:TrackPointExtension>
            <ns3:atemp>36.0</ns3:atemp>
          </ns3:TrackPointExtension>
        </extensions>
      </trkpt>
      <trkpt lat="31.714907102286815643310546875" lon="35.0515390746295452117919921875">
        <ele>532.20001220703125</ele>
        <time>2017-08-04T06:45:54.000Z</time>
        <extensions>
          <ns3:TrackPointExtension>
            <ns3:atemp>36.0</ns3:atemp>
          </ns3:TrackPointExtension>
        </extensions>
      </trkpt>
      <trkpt lat="31.7149210162460803985595703125" lon="35.051559694111347198486328125">
        <ele>532.5999755859375</ele>
        <time>2017-08-04T06:45:56.000Z</time>
        <extensions>
          <ns3:TrackPointExtension>
            <ns3:atemp>36.0</ns3:atemp>
          </ns3:TrackPointExtension>
        </extensions>
      </trkpt>
      <trkpt lat="31.7149381153285503387451171875" lon="35.0515736080706119537353515625">
        <ele>532.5999755859375</ele>
        <time>2017-08-04T06:45:58.000Z</time>
        <extensions>
          <ns3:TrackPointExtension>
            <ns3:atemp>36.0</ns3:atemp>
          </ns3:TrackPointExtension>
        </extensions>
      </trkpt>
      <trkpt lat="31.71494205482304096221923828125" lon="35.0515675731003284454345703125">
        <ele>532.5999755859375</ele>
        <time>2017-08-04T06:45:59.000Z</time>
        <extensions>
          <ns3:TrackPointExtension>
            <ns3:atemp>36.0</ns3:atemp>
          </ns3:TrackPointExtension>
        </extensions>
      </trkpt>
      <trkpt lat="31.71497139148414134979248046875" lon="35.05155608989298343658447265625">
        <ele>533</ele>
        <time>2017-08-04T06:46:06.000Z</time>
        <extensions>
          <ns3:TrackPointExtension>
            <ns3:atemp>36.0</ns3:atemp>
          </ns3:TrackPointExtension>
        </extensions>
      </trkpt>
      <trkpt lat="31.71498186886310577392578125" lon="35.0515578500926494598388671875">
        <ele>533</ele>
        <time>2017-08-04T06:46:07.000Z</time>
        <extensions>
          <ns3:TrackPointExtension>
            <ns3:atemp>36.0</ns3:atemp>
          </ns3:TrackPointExtension>
        </extensions>
      </trkpt>
      <trkpt lat="31.71503190882503986358642578125" lon="35.05157033912837505340576171875">
        <ele>533.4000244140625</ele>
        <time>2017-08-04T06:46:12.000Z</time>
        <extensions>
          <ns3:TrackPointExtension>
            <ns3:atemp>36.0</ns3:atemp>
          </ns3:TrackPointExtension>
        </extensions>
      </trkpt>
      <trkpt lat="31.715057976543903350830078125" lon="35.051588527858257293701171875">
        <ele>534</ele>
        <time>2017-08-04T06:46:15.000Z</time>
        <extensions>
          <ns3:TrackPointExtension>
            <ns3:atemp>36.0</ns3:atemp>
          </ns3:TrackPointExtension>
        </extensions>
      </trkpt>
      <trkpt lat="31.7150725610554218292236328125" lon="35.0516121648252010345458984375">
        <ele>534.20001220703125</ele>
        <time>2017-08-04T06:46:17.000Z</time>
        <extensions>
          <ns3:TrackPointExtension>
            <ns3:atemp>36.0</ns3:atemp>
          </ns3:TrackPointExtension>
        </extensions>
      </trkpt>
      <trkpt lat="31.71508320607244968414306640625" lon="35.05163035355508327484130859375">
        <ele>534.20001220703125</ele>
        <time>2017-08-04T06:46:18.000Z</time>
        <extensions>
          <ns3:TrackPointExtension>
            <ns3:atemp>36.0</ns3:atemp>
          </ns3:TrackPointExtension>
        </extensions>
      </trkpt>
      <trkpt lat="31.71509494073688983917236328125" lon="35.0517335347831249237060546875">
        <ele>534.5999755859375</ele>
        <time>2017-08-04T06:46:23.000Z</time>
        <extensions>
          <ns3:TrackPointExtension>
            <ns3:atemp>36.0</ns3:atemp>
          </ns3:TrackPointExtension>
        </extensions>
      </trkpt>
      <trkpt lat="31.715133078396320343017578125" lon="35.05182288587093353271484375">
        <ele>535.20001220703125</ele>
        <time>2017-08-04T06:46:28.000Z</time>
        <extensions>
          <ns3:TrackPointExtension>
            <ns3:atemp>36.0</ns3:atemp>
          </ns3:TrackPointExtension>
        </extensions>
      </trkpt>
      <trkpt lat="31.7151473276317119598388671875" lon="35.05185415036976337432861328125">
        <ele>535.4000244140625</ele>
        <time>2017-08-04T06:46:30.000Z</time>
        <extensions>
          <ns3:TrackPointExtension>
            <ns3:atemp>36.0</ns3:atemp>
          </ns3:TrackPointExtension>
        </extensions>
      </trkpt>
      <trkpt lat="31.715141125023365020751953125" lon="35.05189572460949420928955078125">
        <ele>535.5999755859375</ele>
        <time>2017-08-04T06:46:33.000Z</time>
        <extensions>
          <ns3:TrackPointExtension>
            <ns3:atemp>36.0</ns3:atemp>
          </ns3:TrackPointExtension>
        </extensions>
      </trkpt>
      <trkpt lat="31.7151376046240329742431640625" lon="35.05192372016608715057373046875">
        <ele>535.5999755859375</ele>
        <time>2017-08-04T06:46:35.000Z</time>
        <extensions>
          <ns3:TrackPointExtension>
            <ns3:atemp>36.0</ns3:atemp>
          </ns3:TrackPointExtension>
        </extensions>
      </trkpt>
      <trkpt lat="31.71514640562236309051513671875" lon="35.051973760128021240234375">
        <ele>535.5999755859375</ele>
        <time>2017-08-04T06:46:40.000Z</time>
        <extensions>
          <ns3:TrackPointExtension>
            <ns3:atemp>36.0</ns3:atemp>
          </ns3:TrackPointExtension>
        </extensions>
      </trkpt>
      <trkpt lat="31.71515126712620258331298828125" lon="35.05198356695473194122314453125">
        <ele>535.5999755859375</ele>
        <time>2017-08-04T06:46:41.000Z</time>
        <extensions>
          <ns3:TrackPointExtension>
            <ns3:atemp>36.0</ns3:atemp>
          </ns3:TrackPointExtension>
        </extensions>
      </trkpt>
      <trkpt lat="31.7151657678186893463134765625" lon="35.05203704349696636199951171875">
        <ele>535.4000244140625</ele>
        <time>2017-08-04T06:46:46.000Z</time>
        <extensions>
          <ns3:TrackPointExtension>
            <ns3:atemp>36.0</ns3:atemp>
          </ns3:TrackPointExtension>
        </extensions>
      </trkpt>
      <trkpt lat="31.7151691205799579620361328125" lon="35.05207174457609653472900390625">
        <ele>535.5999755859375</ele>
        <time>2017-08-04T06:46:52.000Z</time>
        <extensions>
          <ns3:TrackPointExtension>
            <ns3:atemp>36.0</ns3:atemp>
          </ns3:TrackPointExtension>
        </extensions>
      </trkpt>
      <trkpt lat="31.7151691205799579620361328125" lon="35.05207174457609653472900390625">
        <ele>535.5999755859375</ele>
        <time>2017-08-04T06:47:05.000Z</time>
        <extensions>
          <ns3:TrackPointExtension>
            <ns3:atemp>36.0</ns3:atemp>
          </ns3:TrackPointExtension>
        </extensions>
      </trkpt>
      <trkpt lat="31.7151691205799579620361328125" lon="35.05207174457609653472900390625">
        <ele>535.4000244140625</ele>
        <time>2017-08-04T06:47:20.000Z</time>
        <extensions>
          <ns3:TrackPointExtension>
            <ns3:atemp>36.0</ns3:atemp>
          </ns3:TrackPointExtension>
        </extensions>
      </trkpt>
      <trkpt lat="31.7151691205799579620361328125" lon="35.05207174457609653472900390625">
        <ele>535.5999755859375</ele>
        <time>2017-08-04T06:47:22.000Z</time>
        <extensions>
          <ns3:TrackPointExtension>
            <ns3:atemp>36.0</ns3:atemp>
          </ns3:TrackPointExtension>
        </extensions>
      </trkpt>
      <trkpt lat="31.71516819857060909271240234375" lon="35.05207845009863376617431640625">
        <ele>535.5999755859375</ele>
        <time>2017-08-04T06:47:30.000Z</time>
        <extensions>
          <ns3:TrackPointExtension>
            <ns3:atemp>36.0</ns3:atemp>
          </ns3:TrackPointExtension>
        </extensions>
      </trkpt>
      <trkpt lat="31.715171299874782562255859375" lon="35.05207878537476062774658203125">
        <ele>535.5999755859375</ele>
        <time>2017-08-04T06:47:43.000Z</time>
        <extensions>
          <ns3:TrackPointExtension>
            <ns3:atemp>36.0</ns3:atemp>
          </ns3:TrackPointExtension>
        </extensions>
      </trkpt>
      <trkpt lat="31.71517507173120975494384765625" lon="35.0520805455744266510009765625">
        <ele>535.79998779296875</ele>
        <time>2017-08-04T06:47:53.000Z</time>
        <extensions>
          <ns3:TrackPointExtension>
            <ns3:atemp>36.0</ns3:atemp>
          </ns3:TrackPointExtension>
        </extensions>
      </trkpt>
      <trkpt lat="31.71517507173120975494384765625" lon="35.0520805455744266510009765625">
        <ele>535.5999755859375</ele>
        <time>2017-08-04T06:48:16.000Z</time>
        <extensions>
          <ns3:TrackPointExtension>
            <ns3:atemp>35.0</ns3:atemp>
          </ns3:TrackPointExtension>
        </extensions>
      </trkpt>
      <trkpt lat="31.71517674811184406280517578125" lon="35.052084065973758697509765625">
        <ele>535.79998779296875</ele>
        <time>2017-08-04T06:48:38.000Z</time>
        <extensions>
          <ns3:TrackPointExtension>
            <ns3:atemp>35.0</ns3:atemp>
          </ns3:TrackPointExtension>
        </extensions>
      </trkpt>
      <trkpt lat="31.71517674811184406280517578125" lon="35.052084065973758697509765625">
        <ele>536</ele>
        <time>2017-08-04T06:48:43.000Z</time>
        <extensions>
          <ns3:TrackPointExtension>
            <ns3:atemp>35.0</ns3:atemp>
          </ns3:TrackPointExtension>
        </extensions>
      </trkpt>
      <trkpt lat="31.71517674811184406280517578125" lon="35.052084065973758697509765625">
        <ele>535.79998779296875</ele>
        <time>2017-08-04T06:49:00.000Z</time>
        <extensions>
          <ns3:TrackPointExtension>
            <ns3:atemp>35.0</ns3:atemp>
          </ns3:TrackPointExtension>
        </extensions>
      </trkpt>
      <trkpt lat="31.71517943032085895538330078125" lon="35.052084736526012420654296875">
        <ele>536</ele>
        <time>2017-08-04T06:49:25.000Z</time>
        <extensions>
          <ns3:TrackPointExtension>
            <ns3:atemp>34.0</ns3:atemp>
          </ns3:TrackPointExtension>
        </extensions>
      </trkpt>
      <trkpt lat="31.7151674441993236541748046875" lon="35.05208079703152179718017578125">
        <ele>536</ele>
        <time>2017-08-04T06:49:43.000Z</time>
        <extensions>
          <ns3:TrackPointExtension>
            <ns3:atemp>34.0</ns3:atemp>
          </ns3:TrackPointExtension>
        </extensions>
      </trkpt>
      <trkpt lat="31.71517238952219486236572265625" lon="35.05207878537476062774658203125">
        <ele>536</ele>
        <time>2017-08-04T06:49:44.000Z</time>
        <extensions>
          <ns3:TrackPointExtension>
            <ns3:atemp>34.0</ns3:atemp>
          </ns3:TrackPointExtension>
        </extensions>
      </trkpt>
      <trkpt lat="31.71516216360032558441162109375" lon="35.0520590879023075103759765625">
        <ele>535.79998779296875</ele>
        <time>2017-08-04T06:49:51.000Z</time>
        <extensions>
          <ns3:TrackPointExtension>
            <ns3:atemp>34.0</ns3:atemp>
          </ns3:TrackPointExtension>
        </extensions>
      </trkpt>
      <trkpt lat="31.715153865516185760498046875" lon="35.05203318782150745391845703125">
        <ele>536</ele>
        <time>2017-08-04T06:49:53.000Z</time>
        <extensions>
          <ns3:TrackPointExtension>
            <ns3:atemp>34.0</ns3:atemp>
          </ns3:TrackPointExtension>
        </extensions>
      </trkpt>
      <trkpt lat="31.7151359282433986663818359375" lon="35.0520041026175022125244140625">
        <ele>536</ele>
        <time>2017-08-04T06:49:56.000Z</time>
        <extensions>
          <ns3:TrackPointExtension>
            <ns3:atemp>34.0</ns3:atemp>
          </ns3:TrackPointExtension>
        </extensions>
      </trkpt>
      <trkpt lat="31.7151315696537494659423828125" lon="35.051988847553730010986328125">
        <ele>536</ele>
        <time>2017-08-04T06:49:57.000Z</time>
        <extensions>
          <ns3:TrackPointExtension>
            <ns3:atemp>34.0</ns3:atemp>
          </ns3:TrackPointExtension>
        </extensions>
      </trkpt>
      <trkpt lat="31.71513986773788928985595703125" lon="35.05193394608795642852783203125">
        <ele>536</ele>
        <time>2017-08-04T06:50:01.000Z</time>
        <extensions>
          <ns3:TrackPointExtension>
            <ns3:atemp>34.0</ns3:atemp>
          </ns3:TrackPointExtension>
        </extensions>
      </trkpt>
      <trkpt lat="31.7151466570794582366943359375" lon="35.05192053504288196563720703125">
        <ele>536.20001220703125</ele>
        <time>2017-08-04T06:50:02.000Z</time>
        <extensions>
          <ns3:TrackPointExtension>
            <ns3:atemp>34.0</ns3:atemp>
          </ns3:TrackPointExtension>
        </extensions>
      </trkpt>
      <trkpt lat="31.715147830545902252197265625" lon="35.051901340484619140625">
        <ele>536.20001220703125</ele>
        <time>2017-08-04T06:50:03.000Z</time>
        <extensions>
          <ns3:TrackPointExtension>
            <ns3:atemp>34.0</ns3:atemp>
          </ns3:TrackPointExtension>
        </extensions>
      </trkpt>
      <trkpt lat="31.7151086032390594482421875" lon="35.05179614759981632232666015625">
        <ele>535.5999755859375</ele>
        <time>2017-08-04T06:50:08.000Z</time>
        <extensions>
          <ns3:TrackPointExtension>
            <ns3:atemp>34.0</ns3:atemp>
          </ns3:TrackPointExtension>
        </extensions>
      </trkpt>
      <trkpt lat="31.71508253552019596099853515625" lon="35.05172439850866794586181640625">
        <ele>535</ele>
        <time>2017-08-04T06:50:10.000Z</time>
        <extensions>
          <ns3:TrackPointExtension>
            <ns3:atemp>34.0</ns3:atemp>
          </ns3:TrackPointExtension>
        </extensions>
      </trkpt>
      <trkpt lat="31.71506560407578945159912109375" lon="35.05158282816410064697265625">
        <ele>534.5999755859375</ele>
        <time>2017-08-04T06:50:13.000Z</time>
        <extensions>
          <ns3:TrackPointExtension>
            <ns3:atemp>34.0</ns3:atemp>
          </ns3:TrackPointExtension>
        </extensions>
      </trkpt>
      <trkpt lat="31.7150215990841388702392578125" lon="35.05151552148163318634033203125">
        <ele>534.4000244140625</ele>
        <time>2017-08-04T06:50:15.000Z</time>
        <extensions>
          <ns3:TrackPointExtension>
            <ns3:atemp>34.0</ns3:atemp>
          </ns3:TrackPointExtension>
        </extensions>
      </trkpt>
      <trkpt lat="31.71498128212988376617431640625" lon="35.05151133053004741668701171875">
        <ele>534</ele>
        <time>2017-08-04T06:50:16.000Z</time>
        <extensions>
          <ns3:TrackPointExtension>
            <ns3:atemp>34.0</ns3:atemp>
          </ns3:TrackPointExtension>
        </extensions>
      </trkpt>
      <trkpt lat="31.71493317000567913055419921875" lon="35.05150445736944675445556640625">
        <ele>533.5999755859375</ele>
        <time>2017-08-04T06:50:17.000Z</time>
        <extensions>
          <ns3:TrackPointExtension>
            <ns3:atemp>34.0</ns3:atemp>
          </ns3:TrackPointExtension>
        </extensions>
      </trkpt>
      <trkpt lat="31.7148948647081851959228515625" lon="35.05149859003722667694091796875">
        <ele>532.4000244140625</ele>
        <time>2017-08-04T06:50:18.000Z</time>
        <extensions>
          <ns3:TrackPointExtension>
            <ns3:atemp>34.0</ns3:atemp>
          </ns3:TrackPointExtension>
        </extensions>
      </trkpt>
      <trkpt lat="31.71485069207847118377685546875" lon="35.05144695751368999481201171875">
        <ele>531.20001220703125</ele>
        <time>2017-08-04T06:50:20.000Z</time>
        <extensions>
          <ns3:TrackPointExtension>
            <ns3:atemp>34.0</ns3:atemp>
          </ns3:TrackPointExtension>
        </extensions>
      </trkpt>
      <trkpt lat="31.71486510895192623138427734375" lon="35.05130924284458160400390625">
        <ele>530.79998779296875</ele>
        <time>2017-08-04T06:50:23.000Z</time>
        <extensions>
          <ns3:TrackPointExtension>
            <ns3:atemp>34.0</ns3:atemp>
          </ns3:TrackPointExtension>
        </extensions>
      </trkpt>
      <trkpt lat="31.7148268036544322967529296875" lon="35.05114822648465633392333984375">
        <ele>531.5999755859375</ele>
        <time>2017-08-04T06:50:27.000Z</time>
        <extensions>
          <ns3:TrackPointExtension>
            <ns3:atemp>34.0</ns3:atemp>
          </ns3:TrackPointExtension>
        </extensions>
      </trkpt>
      <trkpt lat="31.71479503624141216278076171875" lon="35.05111319012939929962158203125">
        <ele>531.4000244140625</ele>
        <time>2017-08-04T06:50:28.000Z</time>
        <extensions>
          <ns3:TrackPointExtension>
            <ns3:atemp>34.0</ns3:atemp>
          </ns3:TrackPointExtension>
        </extensions>
      </trkpt>
      <trkpt lat="31.71466712839901447296142578125" lon="35.05107077769935131072998046875">
        <ele>530.20001220703125</ele>
        <time>2017-08-04T06:50:31.000Z</time>
        <extensions>
          <ns3:TrackPointExtension>
            <ns3:atemp>34.0</ns3:atemp>
          </ns3:TrackPointExtension>
        </extensions>
      </trkpt>
      <trkpt lat="31.7145538888871669769287109375" lon="35.0510636530816555023193359375">
        <ele>529.79998779296875</ele>
        <time>2017-08-04T06:50:35.000Z</time>
        <extensions>
          <ns3:TrackPointExtension>
            <ns3:atemp>33.0</ns3:atemp>
          </ns3:TrackPointExtension>
        </extensions>
      </trkpt>
      <trkpt lat="31.7145297490060329437255859375" lon="35.05106910131871700286865234375">
        <ele>529.79998779296875</ele>
        <time>2017-08-04T06:50:37.000Z</time>
        <extensions>
          <ns3:TrackPointExtension>
            <ns3:atemp>33.0</ns3:atemp>
          </ns3:TrackPointExtension>
        </extensions>
      </trkpt>
      <trkpt lat="31.714529581367969512939453125" lon="35.05106516182422637939453125">
        <ele>530</ele>
        <time>2017-08-04T06:50:39.000Z</time>
        <extensions>
          <ns3:TrackPointExtension>
            <ns3:atemp>33.0</ns3:atemp>
          </ns3:TrackPointExtension>
        </extensions>
      </trkpt>
      <trkpt lat="31.714524887502193450927734375" lon="35.05106373690068721771240234375">
        <ele>529.79998779296875</ele>
        <time>2017-08-04T06:50:47.000Z</time>
        <extensions>
          <ns3:TrackPointExtension>
            <ns3:atemp>33.0</ns3:atemp>
          </ns3:TrackPointExtension>
        </extensions>
      </trkpt>
      <trkpt lat="31.71450703404843807220458984375" lon="35.0510711967945098876953125">
        <ele>529.79998779296875</ele>
        <time>2017-08-04T06:50:53.000Z</time>
        <extensions>
          <ns3:TrackPointExtension>
            <ns3:atemp>33.0</ns3:atemp>
          </ns3:TrackPointExtension>
        </extensions>
      </trkpt>
      <trkpt lat="31.71449345536530017852783203125" lon="35.05107899196445941925048828125">
        <ele>529.79998779296875</ele>
        <time>2017-08-04T06:50:54.000Z</time>
        <extensions>
          <ns3:TrackPointExtension>
            <ns3:atemp>33.0</ns3:atemp>
          </ns3:TrackPointExtension>
        </extensions>
      </trkpt>
      <trkpt lat="31.71440980397164821624755859375" lon="35.0510820932686328887939453125">
        <ele>528.79998779296875</ele>
        <time>2017-08-04T06:50:57.000Z</time>
        <extensions>
          <ns3:TrackPointExtension>
            <ns3:atemp>33.0</ns3:atemp>
          </ns3:TrackPointExtension>
        </extensions>
      </trkpt>
      <trkpt lat="31.7143839038908481597900390625" lon="35.051060803234577178955078125">
        <ele>528.4000244140625</ele>
        <time>2017-08-04T06:50:58.000Z</time>
        <extensions>
          <ns3:TrackPointExtension>
            <ns3:atemp>33.0</ns3:atemp>
          </ns3:TrackPointExtension>
        </extensions>
      </trkpt>
      <trkpt lat="31.7143359594047069549560546875" lon="35.05096365697681903839111328125">
        <ele>527.5999755859375</ele>
        <time>2017-08-04T06:51:00.000Z</time>
        <extensions>
          <ns3:TrackPointExtension>
            <ns3:atemp>33.0</ns3:atemp>
          </ns3:TrackPointExtension>
        </extensions>
      </trkpt>
      <trkpt lat="31.71432246454060077667236328125" lon="35.05090381018817424774169921875">
        <ele>527.4000244140625</ele>
        <time>2017-08-04T06:51:01.000Z</time>
        <extensions>
          <ns3:TrackPointExtension>
            <ns3:atemp>33.0</ns3:atemp>
          </ns3:TrackPointExtension>
        </extensions>
      </trkpt>
      <trkpt lat="31.71430402435362339019775390625" lon="35.05084580741822719573974609375">
        <ele>527</ele>
        <time>2017-08-04T06:51:02.000Z</time>
        <extensions>
          <ns3:TrackPointExtension>
            <ns3:atemp>33.0</ns3:atemp>
          </ns3:TrackPointExtension>
        </extensions>
      </trkpt>
      <trkpt lat="31.7142833210527896881103515625" lon="35.05079048685729503631591796875">
        <ele>526.5999755859375</ele>
        <time>2017-08-04T06:51:03.000Z</time>
        <extensions>
          <ns3:TrackPointExtension>
            <ns3:atemp>33.0</ns3:atemp>
          </ns3:TrackPointExtension>
        </extensions>
      </trkpt>
      <trkpt lat="31.714241914451122283935546875" lon="35.050667859613895416259765625">
        <ele>525.4000244140625</ele>
        <time>2017-08-04T06:51:05.000Z</time>
        <extensions>
          <ns3:TrackPointExtension>
            <ns3:atemp>33.0</ns3:atemp>
          </ns3:TrackPointExtension>
        </extensions>
      </trkpt>
      <trkpt lat="31.71418818645179271697998046875" lon="35.050635002553462982177734375">
        <ele>524</ele>
        <time>2017-08-04T06:51:06.000Z</time>
        <extensions>
          <ns3:TrackPointExtension>
            <ns3:atemp>33.0</ns3:atemp>
          </ns3:TrackPointExtension>
        </extensions>
      </trkpt>
      <trkpt lat="31.7140204645693302154541015625" lon="35.0505942665040493011474609375">
        <ele>524.20001220703125</ele>
        <time>2017-08-04T06:51:09.000Z</time>
        <extensions>
          <ns3:TrackPointExtension>
            <ns3:atemp>33.0</ns3:atemp>
          </ns3:TrackPointExtension>
        </extensions>
      </trkpt>
      <trkpt lat="31.71384503133594989776611328125" lon="35.0505245290696620941162109375">
        <ele>524</ele>
        <time>2017-08-04T06:51:13.000Z</time>
        <extensions>
          <ns3:TrackPointExtension>
            <ns3:atemp>33.0</ns3:atemp>
          </ns3:TrackPointExtension>
        </extensions>
      </trkpt>
      <trkpt lat="31.713794656097888946533203125" lon="35.0504930131137371063232421875">
        <ele>525.20001220703125</ele>
        <time>2017-08-04T06:51:15.000Z</time>
        <extensions>
          <ns3:TrackPointExtension>
            <ns3:atemp>33.0</ns3:atemp>
          </ns3:TrackPointExtension>
        </extensions>
      </trkpt>
      <trkpt lat="31.713746376335620880126953125" lon="35.0504953600466251373291015625">
        <ele>526.4000244140625</ele>
        <time>2017-08-04T06:51:17.000Z</time>
        <extensions>
          <ns3:TrackPointExtension>
            <ns3:atemp>33.0</ns3:atemp>
          </ns3:TrackPointExtension>
        </extensions>
      </trkpt>
      <trkpt lat="31.71364403329789638519287109375" lon="35.05048907361924648284912109375">
        <ele>527.5999755859375</ele>
        <time>2017-08-04T06:51:21.000Z</time>
        <extensions>
          <ns3:TrackPointExtension>
            <ns3:atemp>33.0</ns3:atemp>
          </ns3:TrackPointExtension>
        </extensions>
      </trkpt>
      <trkpt lat="31.71360849402844905853271484375" lon="35.05048924125730991363525390625">
        <ele>528.4000244140625</ele>
        <time>2017-08-04T06:51:23.000Z</time>
        <extensions>
          <ns3:TrackPointExtension>
            <ns3:atemp>33.0</ns3:atemp>
          </ns3:TrackPointExtension>
        </extensions>
      </trkpt>
      <trkpt lat="31.7136000283062458038330078125" lon="35.05048287101089954376220703125">
        <ele>528.5999755859375</ele>
        <time>2017-08-04T06:51:24.000Z</time>
        <extensions>
          <ns3:TrackPointExtension>
            <ns3:atemp>33.0</ns3:atemp>
          </ns3:TrackPointExtension>
        </extensions>
      </trkpt>
      <trkpt lat="31.71359022147953510284423828125" lon="35.0504745729267597198486328125">
        <ele>528.79998779296875</ele>
        <time>2017-08-04T06:51:25.000Z</time>
        <extensions>
          <ns3:TrackPointExtension>
            <ns3:atemp>33.0</ns3:atemp>
          </ns3:TrackPointExtension>
        </extensions>
      </trkpt>
      <trkpt lat="31.713591478765010833740234375" lon="35.0504413805902004241943359375">
        <ele>529.4000244140625</ele>
        <time>2017-08-04T06:51:28.000Z</time>
        <extensions>
          <ns3:TrackPointExtension>
            <ns3:atemp>33.0</ns3:atemp>
          </ns3:TrackPointExtension>
        </extensions>
      </trkpt>
      <trkpt lat="31.71359114348888397216796875" lon="35.05044431425631046295166015625">
        <ele>529.79998779296875</ele>
        <time>2017-08-04T06:51:35.000Z</time>
        <extensions>
          <ns3:TrackPointExtension>
            <ns3:atemp>33.0</ns3:atemp>
          </ns3:TrackPointExtension>
        </extensions>
      </trkpt>
      <trkpt lat="31.71359114348888397216796875" lon="35.05044431425631046295166015625">
        <ele>529.5999755859375</ele>
        <time>2017-08-04T06:51:45.000Z</time>
        <extensions>
          <ns3:TrackPointExtension>
            <ns3:atemp>33.0</ns3:atemp>
          </ns3:TrackPointExtension>
        </extensions>
      </trkpt>
      <trkpt lat="31.71359114348888397216796875" lon="35.05044431425631046295166015625">
        <ele>529.5999755859375</ele>
        <time>2017-08-04T06:52:01.000Z</time>
        <extensions>
          <ns3:TrackPointExtension>
            <ns3:atemp>33.0</ns3:atemp>
          </ns3:TrackPointExtension>
        </extensions>
      </trkpt>
      <trkpt lat="31.71359022147953510284423828125" lon="35.0504435598850250244140625">
        <ele>529.79998779296875</ele>
        <time>2017-08-04T06:52:12.000Z</time>
        <extensions>
          <ns3:TrackPointExtension>
            <ns3:atemp>33.0</ns3:atemp>
          </ns3:TrackPointExtension>
        </extensions>
      </trkpt>
      <trkpt lat="31.71359022147953510284423828125" lon="35.0504435598850250244140625">
        <ele>529.79998779296875</ele>
        <time>2017-08-04T06:52:24.000Z</time>
        <extensions>
          <ns3:TrackPointExtension>
            <ns3:atemp>33.0</ns3:atemp>
          </ns3:TrackPointExtension>
        </extensions>
      </trkpt>
      <trkpt lat="31.71359022147953510284423828125" lon="35.0504435598850250244140625">
        <ele>529.5999755859375</ele>
        <time>2017-08-04T06:52:40.000Z</time>
        <extensions>
          <ns3:TrackPointExtension>
            <ns3:atemp>33.0</ns3:atemp>
          </ns3:TrackPointExtension>
        </extensions>
      </trkpt>
      <trkpt lat="31.71359893865883350372314453125" lon="35.05040743388235569000244140625">
        <ele>529.5999755859375</ele>
        <time>2017-08-04T06:52:47.000Z</time>
        <extensions>
          <ns3:TrackPointExtension>
            <ns3:atemp>33.0</ns3:atemp>
          </ns3:TrackPointExtension>
        </extensions>
      </trkpt>
      <trkpt lat="31.71361754648387432098388671875" lon="35.050307773053646087646484375">
        <ele>529.79998779296875</ele>
        <time>2017-08-04T06:52:52.000Z</time>
        <extensions>
          <ns3:TrackPointExtension>
            <ns3:atemp>33.0</ns3:atemp>
          </ns3:TrackPointExtension>
        </extensions>
      </trkpt>
      <trkpt lat="31.71360723674297332763671875" lon="35.05027600564062595367431640625">
        <ele>529.5999755859375</ele>
        <time>2017-08-04T06:52:53.000Z</time>
        <extensions>
          <ns3:TrackPointExtension>
            <ns3:atemp>33.0</ns3:atemp>
          </ns3:TrackPointExtension>
        </extensions>
      </trkpt>
      <trkpt lat="31.7135815881192684173583984375" lon="35.05014273338019847869873046875">
        <ele>528.4000244140625</ele>
        <time>2017-08-04T06:52:56.000Z</time>
        <extensions>
          <ns3:TrackPointExtension>
            <ns3:atemp>33.0</ns3:atemp>
          </ns3:TrackPointExtension>
        </extensions>
      </trkpt>
      <trkpt lat="31.71358435414731502532958984375" lon="35.0500983931124210357666015625">
        <ele>528.20001220703125</ele>
        <time>2017-08-04T06:52:57.000Z</time>
        <extensions>
          <ns3:TrackPointExtension>
            <ns3:atemp>33.0</ns3:atemp>
          </ns3:TrackPointExtension>
        </extensions>
      </trkpt>
      <trkpt lat="31.71362106688320636749267578125" lon="35.0499706529080867767333984375">
        <ele>527.5999755859375</ele>
        <time>2017-08-04T06:53:00.000Z</time>
        <extensions>
          <ns3:TrackPointExtension>
            <ns3:atemp>33.0</ns3:atemp>
          </ns3:TrackPointExtension>
        </extensions>
      </trkpt>
      <trkpt lat="31.71363917179405689239501953125" lon="35.04991776309907436370849609375">
        <ele>527.4000244140625</ele>
        <time>2017-08-04T06:53:01.000Z</time>
        <extensions>
          <ns3:TrackPointExtension>
            <ns3:atemp>33.0</ns3:atemp>
          </ns3:TrackPointExtension>
        </extensions>
      </trkpt>
      <trkpt lat="31.71364839188754558563232421875" lon="35.0498615205287933349609375">
        <ele>527.20001220703125</ele>
        <time>2017-08-04T06:53:02.000Z</time>
        <extensions>
          <ns3:TrackPointExtension>
            <ns3:atemp>33.0</ns3:atemp>
          </ns3:TrackPointExtension>
        </extensions>
      </trkpt>
      <trkpt lat="31.71371812932193279266357421875" lon="35.049720369279384613037109375">
        <ele>526.5999755859375</ele>
        <time>2017-08-04T06:53:05.000Z</time>
        <extensions>
          <ns3:TrackPointExtension>
            <ns3:atemp>33.0</ns3:atemp>
          </ns3:TrackPointExtension>
        </extensions>
      </trkpt>
      <trkpt lat="31.71373589895665645599365234375" lon="35.04969765432178974151611328125">
        <ele>526.79998779296875</ele>
        <time>2017-08-04T06:53:06.000Z</time>
        <extensions>
          <ns3:TrackPointExtension>
            <ns3:atemp>33.0</ns3:atemp>
          </ns3:TrackPointExtension>
        </extensions>
      </trkpt>
      <trkpt lat="31.713787280023097991943359375" lon="35.04962406121194362640380859375">
        <ele>526.4000244140625</ele>
        <time>2017-08-04T06:53:09.000Z</time>
        <extensions>
          <ns3:TrackPointExtension>
            <ns3:atemp>33.0</ns3:atemp>
          </ns3:TrackPointExtension>
        </extensions>
      </trkpt>
      <trkpt lat="31.71381385065615177154541015625" lon="35.04960813559591770172119140625">
        <ele>526</ele>
        <time>2017-08-04T06:53:10.000Z</time>
        <extensions>
          <ns3:TrackPointExtension>
            <ns3:atemp>33.0</ns3:atemp>
          </ns3:TrackPointExtension>
        </extensions>
      </trkpt>
      <trkpt lat="31.713855005800724029541015625" lon="35.04952582530677318572998046875">
        <ele>525</ele>
        <time>2017-08-04T06:53:12.000Z</time>
        <extensions>
          <ns3:TrackPointExtension>
            <ns3:atemp>33.0</ns3:atemp>
          </ns3:TrackPointExtension>
        </extensions>
      </trkpt>
      <trkpt lat="31.7138667404651641845703125" lon="35.049466229975223541259765625">
        <ele>524.4000244140625</ele>
        <time>2017-08-04T06:53:13.000Z</time>
        <extensions>
          <ns3:TrackPointExtension>
            <ns3:atemp>33.0</ns3:atemp>
          </ns3:TrackPointExtension>
        </extensions>
      </trkpt>
      <trkpt lat="31.7138736136257648468017578125" lon="35.04940328188240528106689453125">
        <ele>524</ele>
        <time>2017-08-04T06:53:14.000Z</time>
        <extensions>
          <ns3:TrackPointExtension>
            <ns3:atemp>33.0</ns3:atemp>
          </ns3:TrackPointExtension>
        </extensions>
      </trkpt>
      <trkpt lat="31.71388216316699981689453125" lon="35.04933245480060577392578125">
        <ele>523.4000244140625</ele>
        <time>2017-08-04T06:53:15.000Z</time>
        <extensions>
          <ns3:TrackPointExtension>
            <ns3:atemp>33.0</ns3:atemp>
          </ns3:TrackPointExtension>
        </extensions>
      </trkpt>
      <trkpt lat="31.713903285562992095947265625" lon="35.04926565103232860565185546875">
        <ele>523.20001220703125</ele>
        <time>2017-08-04T06:53:16.000Z</time>
        <extensions>
          <ns3:TrackPointExtension>
            <ns3:atemp>33.0</ns3:atemp>
          </ns3:TrackPointExtension>
        </extensions>
      </trkpt>
      <trkpt lat="31.71393253840506076812744140625" lon="35.0492025353014469146728515625">
        <ele>523</ele>
        <time>2017-08-04T06:53:17.000Z</time>
        <extensions>
          <ns3:TrackPointExtension>
            <ns3:atemp>33.0</ns3:atemp>
          </ns3:TrackPointExtension>
        </extensions>
      </trkpt>
      <trkpt lat="31.7140281759202480316162109375" lon="35.04907638765871524810791015625">
        <ele>522.4000244140625</ele>
        <time>2017-08-04T06:53:19.000Z</time>
        <extensions>
          <ns3:TrackPointExtension>
            <ns3:atemp>33.0</ns3:atemp>
          </ns3:TrackPointExtension>
        </extensions>
      </trkpt>
      <trkpt lat="31.71406321227550506591796875" lon="35.0489986874163150787353515625">
        <ele>521.5999755859375</ele>
        <time>2017-08-04T06:53:20.000Z</time>
        <extensions>
          <ns3:TrackPointExtension>
            <ns3:atemp>33.0</ns3:atemp>
          </ns3:TrackPointExtension>
        </extensions>
      </trkpt>
      <trkpt lat="31.71408626250922679901123046875" lon="35.04891813732683658599853515625">
        <ele>520.5999755859375</ele>
        <time>2017-08-04T06:53:21.000Z</time>
        <extensions>
          <ns3:TrackPointExtension>
            <ns3:atemp>33.0</ns3:atemp>
          </ns3:TrackPointExtension>
        </extensions>
      </trkpt>
      <trkpt lat="31.7141029424965381622314453125" lon="35.0487569533288478851318359375">
        <ele>520</ele>
        <time>2017-08-04T06:53:23.000Z</time>
        <extensions>
          <ns3:TrackPointExtension>
            <ns3:atemp>33.0</ns3:atemp>
          </ns3:TrackPointExtension>
        </extensions>
      </trkpt>
      <trkpt lat="31.7141119949519634246826171875" lon="35.04868009127676486968994140625">
        <ele>520</ele>
        <time>2017-08-04T06:53:24.000Z</time>
        <extensions>
          <ns3:TrackPointExtension>
            <ns3:atemp>33.0</ns3:atemp>
          </ns3:TrackPointExtension>
        </extensions>
      </trkpt>
      <trkpt lat="31.7141644656658172607421875" lon="35.04836576990783214569091796875">
        <ele>520.5999755859375</ele>
        <time>2017-08-04T06:53:29.000Z</time>
        <extensions>
          <ns3:TrackPointExtension>
            <ns3:atemp>33.0</ns3:atemp>
          </ns3:TrackPointExtension>
        </extensions>
      </trkpt>
      <trkpt lat="31.7142152599990367889404296875" lon="35.0480706430971622467041015625">
        <ele>521</ele>
        <time>2017-08-04T06:53:35.000Z</time>
        <extensions>
          <ns3:TrackPointExtension>
            <ns3:atemp>33.0</ns3:atemp>
          </ns3:TrackPointExtension>
        </extensions>
      </trkpt>
      <trkpt lat="31.714300923049449920654296875" lon="35.0479385443031787872314453125">
        <ele>519.5999755859375</ele>
        <time>2017-08-04T06:53:38.000Z</time>
        <extensions>
          <ns3:TrackPointExtension>
            <ns3:atemp>33.0</ns3:atemp>
          </ns3:TrackPointExtension>
        </extensions>
      </trkpt>
      <trkpt lat="31.7143280804157257080078125" lon="35.04787257872521877288818359375">
        <ele>518.4000244140625</ele>
        <time>2017-08-04T06:53:39.000Z</time>
        <extensions>
          <ns3:TrackPointExtension>
            <ns3:atemp>33.0</ns3:atemp>
          </ns3:TrackPointExtension>
        </extensions>
      </trkpt>
      <trkpt lat="31.71435146592557430267333984375" lon="35.047811307013034820556640625">
        <ele>517.79998779296875</ele>
        <time>2017-08-04T06:53:40.000Z</time>
        <extensions>
          <ns3:TrackPointExtension>
            <ns3:atemp>33.0</ns3:atemp>
          </ns3:TrackPointExtension>
        </extensions>
      </trkpt>
      <trkpt lat="31.71437258832156658172607421875" lon="35.047759674489498138427734375">
        <ele>517.4000244140625</ele>
        <time>2017-08-04T06:53:41.000Z</time>
        <extensions>
          <ns3:TrackPointExtension>
            <ns3:atemp>33.0</ns3:atemp>
          </ns3:TrackPointExtension>
        </extensions>
      </trkpt>
      <trkpt lat="31.71437778510153293609619140625" lon="35.04769622348248958587646484375">
        <ele>517</ele>
        <time>2017-08-04T06:53:42.000Z</time>
        <extensions>
          <ns3:TrackPointExtension>
            <ns3:atemp>33.0</ns3:atemp>
          </ns3:TrackPointExtension>
        </extensions>
      </trkpt>
      <trkpt lat="31.7143973149359226226806640625" lon="35.04756077192723751068115234375">
        <ele>516</ele>
        <time>2017-08-04T06:53:44.000Z</time>
        <extensions>
          <ns3:TrackPointExtension>
            <ns3:atemp>33.0</ns3:atemp>
          </ns3:TrackPointExtension>
        </extensions>
      </trkpt>
      <trkpt lat="31.7144311778247356414794921875" lon="35.047424398362636566162109375">
        <ele>515.4000244140625</ele>
        <time>2017-08-04T06:53:46.000Z</time>
        <extensions>
          <ns3:TrackPointExtension>
            <ns3:atemp>32.0</ns3:atemp>
          </ns3:TrackPointExtension>
        </extensions>
      </trkpt>
      <trkpt lat="31.7144707404077053070068359375" lon="35.0471922196447849273681640625">
        <ele>514.5999755859375</ele>
        <time>2017-08-04T06:53:49.000Z</time>
        <extensions>
          <ns3:TrackPointExtension>
            <ns3:atemp>32.0</ns3:atemp>
          </ns3:TrackPointExtension>
        </extensions>
      </trkpt>
      <trkpt lat="31.71447568573057651519775390625" lon="35.04711292684078216552734375">
        <ele>513.79998779296875</ele>
        <time>2017-08-04T06:53:50.000Z</time>
        <extensions>
          <ns3:TrackPointExtension>
            <ns3:atemp>32.0</ns3:atemp>
          </ns3:TrackPointExtension>
        </extensions>
      </trkpt>
      <trkpt lat="31.7144804634153842926025390625" lon="35.0470356456935405731201171875">
        <ele>513.4000244140625</ele>
        <time>2017-08-04T06:53:51.000Z</time>
        <extensions>
          <ns3:TrackPointExtension>
            <ns3:atemp>32.0</ns3:atemp>
          </ns3:TrackPointExtension>
        </extensions>
      </trkpt>
      <trkpt lat="31.71448155306279659271240234375" lon="35.046795420348644256591796875">
        <ele>513.20001220703125</ele>
        <time>2017-08-04T06:53:54.000Z</time>
        <extensions>
          <ns3:TrackPointExtension>
            <ns3:atemp>32.0</ns3:atemp>
          </ns3:TrackPointExtension>
        </extensions>
      </trkpt>
      <trkpt lat="31.7144621908664703369140625" lon="35.04663809202611446380615234375">
        <ele>512.79998779296875</ele>
        <time>2017-08-04T06:53:56.000Z</time>
        <extensions>
          <ns3:TrackPointExtension>
            <ns3:atemp>32.0</ns3:atemp>
          </ns3:TrackPointExtension>
        </extensions>
      </trkpt>
      <trkpt lat="31.7144261486828327178955078125" lon="35.0464113615453243255615234375">
        <ele>512</ele>
        <time>2017-08-04T06:53:59.000Z</time>
        <extensions>
          <ns3:TrackPointExtension>
            <ns3:atemp>32.0</ns3:atemp>
          </ns3:TrackPointExtension>
        </extensions>
      </trkpt>
      <trkpt lat="31.7144181020557880401611328125" lon="35.046199299395084381103515625">
        <ele>511.399993896484375</ele>
        <time>2017-08-04T06:54:02.000Z</time>
        <extensions>
          <ns3:TrackPointExtension>
            <ns3:atemp>32.0</ns3:atemp>
          </ns3:TrackPointExtension>
        </extensions>
      </trkpt>
      <trkpt lat="31.71443461440503597259521484375" lon="35.0461225211620330810546875">
        <ele>510.600006103515625</ele>
        <time>2017-08-04T06:54:03.000Z</time>
        <extensions>
          <ns3:TrackPointExtension>
            <ns3:atemp>32.0</ns3:atemp>
          </ns3:TrackPointExtension>
        </extensions>
      </trkpt>
      <trkpt lat="31.7144761048257350921630859375" lon="35.04593652673065662384033203125">
        <ele>508.600006103515625</ele>
        <time>2017-08-04T06:54:05.000Z</time>
        <extensions>
          <ns3:TrackPointExtension>
            <ns3:atemp>32.0</ns3:atemp>
          </ns3:TrackPointExtension>
        </extensions>
      </trkpt>
      <trkpt lat="31.71448825858533382415771484375" lon="35.04583158530294895172119140625">
        <ele>507</ele>
        <time>2017-08-04T06:54:06.000Z</time>
        <extensions>
          <ns3:TrackPointExtension>
            <ns3:atemp>32.0</ns3:atemp>
          </ns3:TrackPointExtension>
        </extensions>
      </trkpt>
      <trkpt lat="31.714516170322895050048828125" lon="35.0457287393510341644287109375">
        <ele>505.600006103515625</ele>
        <time>2017-08-04T06:54:07.000Z</time>
        <extensions>
          <ns3:TrackPointExtension>
            <ns3:atemp>32.0</ns3:atemp>
          </ns3:TrackPointExtension>
        </extensions>
      </trkpt>
      <trkpt lat="31.71461499296128749847412109375" lon="35.04552103579044342041015625">
        <ele>503.79998779296875</ele>
        <time>2017-08-04T06:54:09.000Z</time>
        <extensions>
          <ns3:TrackPointExtension>
            <ns3:atemp>32.0</ns3:atemp>
          </ns3:TrackPointExtension>
        </extensions>
      </trkpt>
      <trkpt lat="31.714666374027729034423828125" lon="35.04542204551398754119873046875">
        <ele>502.79998779296875</ele>
        <time>2017-08-04T06:54:10.000Z</time>
        <extensions>
          <ns3:TrackPointExtension>
            <ns3:atemp>32.0</ns3:atemp>
          </ns3:TrackPointExtension>
        </extensions>
      </trkpt>
      <trkpt lat="31.7147201858460903167724609375" lon="35.04533403553068637847900390625">
        <ele>501.600006103515625</ele>
        <time>2017-08-04T06:54:11.000Z</time>
        <extensions>
          <ns3:TrackPointExtension>
            <ns3:atemp>32.0</ns3:atemp>
          </ns3:TrackPointExtension>
        </extensions>
      </trkpt>
      <trkpt lat="31.7147838883101940155029296875" lon="35.04514778964221477508544921875">
        <ele>501.20001220703125</ele>
        <time>2017-08-04T06:54:13.000Z</time>
        <extensions>
          <ns3:TrackPointExtension>
            <ns3:atemp>32.0</ns3:atemp>
          </ns3:TrackPointExtension>
        </extensions>
      </trkpt>
      <trkpt lat="31.71481557190418243408203125" lon="35.0450608693063259124755859375">
        <ele>501.600006103515625</ele>
        <time>2017-08-04T06:54:14.000Z</time>
        <extensions>
          <ns3:TrackPointExtension>
            <ns3:atemp>32.0</ns3:atemp>
          </ns3:TrackPointExtension>
        </extensions>
      </trkpt>
      <trkpt lat="31.71488019637763500213623046875" lon="35.04498216323554515838623046875">
        <ele>502.20001220703125</ele>
        <time>2017-08-04T06:54:15.000Z</time>
        <extensions>
          <ns3:TrackPointExtension>
            <ns3:atemp>32.0</ns3:atemp>
          </ns3:TrackPointExtension>
        </extensions>
      </trkpt>
      <trkpt lat="31.71495278365910053253173828125" lon="35.04491846077144145965576171875">
        <ele>502.600006103515625</ele>
        <time>2017-08-04T06:54:16.000Z</time>
        <extensions>
          <ns3:TrackPointExtension>
            <ns3:atemp>32.0</ns3:atemp>
          </ns3:TrackPointExtension>
        </extensions>
      </trkpt>
      <trkpt lat="31.71501564793288707733154296875" lon="35.04489004611968994140625">
        <ele>502.79998779296875</ele>
        <time>2017-08-04T06:54:17.000Z</time>
        <extensions>
          <ns3:TrackPointExtension>
            <ns3:atemp>32.0</ns3:atemp>
          </ns3:TrackPointExtension>
        </extensions>
      </trkpt>
      <trkpt lat="31.71514975838363170623779296875" lon="35.04482877440750598907470703125">
        <ele>501.20001220703125</ele>
        <time>2017-08-04T06:54:19.000Z</time>
        <extensions>
          <ns3:TrackPointExtension>
            <ns3:atemp>32.0</ns3:atemp>
          </ns3:TrackPointExtension>
        </extensions>
      </trkpt>
      <trkpt lat="31.71527598984539508819580078125" lon="35.0447775609791278839111328125">
        <ele>501.20001220703125</ele>
        <time>2017-08-04T06:54:21.000Z</time>
        <extensions>
          <ns3:TrackPointExtension>
            <ns3:atemp>32.0</ns3:atemp>
          </ns3:TrackPointExtension>
        </extensions>
      </trkpt>
      <trkpt lat="31.71551085077226161956787109375" lon="35.04465878941118717193603515625">
        <ele>501</ele>
        <time>2017-08-04T06:54:25.000Z</time>
        <extensions>
          <ns3:TrackPointExtension>
            <ns3:atemp>32.0</ns3:atemp>
          </ns3:TrackPointExtension>
        </extensions>
      </trkpt>
      <trkpt lat="31.71554991044104099273681640625" lon="35.044611431658267974853515625">
        <ele>501</ele>
        <time>2017-08-04T06:54:26.000Z</time>
        <extensions>
          <ns3:TrackPointExtension>
            <ns3:atemp>32.0</ns3:atemp>
          </ns3:TrackPointExtension>
        </extensions>
      </trkpt>
      <trkpt lat="31.71568301506340503692626953125" lon="35.0445224158465862274169921875">
        <ele>500.20001220703125</ele>
        <time>2017-08-04T06:54:29.000Z</time>
        <extensions>
          <ns3:TrackPointExtension>
            <ns3:atemp>32.0</ns3:atemp>
          </ns3:TrackPointExtension>
        </extensions>
      </trkpt>
      <trkpt lat="31.7157340608537197113037109375" lon="35.04449064843356609344482421875">
        <ele>499.399993896484375</ele>
        <time>2017-08-04T06:54:30.000Z</time>
        <extensions>
          <ns3:TrackPointExtension>
            <ns3:atemp>32.0</ns3:atemp>
          </ns3:TrackPointExtension>
        </extensions>
      </trkpt>
      <trkpt lat="31.715824417769908905029296875" lon="35.04438579082489013671875">
        <ele>497.399993896484375</ele>
        <time>2017-08-04T06:54:32.000Z</time>
        <extensions>
          <ns3:TrackPointExtension>
            <ns3:atemp>32.0</ns3:atemp>
          </ns3:TrackPointExtension>
        </extensions>
      </trkpt>
      <trkpt lat="31.71586188487708568572998046875" lon="35.04431714303791522979736328125">
        <ele>496.20001220703125</ele>
        <time>2017-08-04T06:54:33.000Z</time>
        <extensions>
          <ns3:TrackPointExtension>
            <ns3:atemp>32.0</ns3:atemp>
          </ns3:TrackPointExtension>
        </extensions>
      </trkpt>
      <trkpt lat="31.71590429730713367462158203125" lon="35.04424053244292736053466796875">
        <ele>495.600006103515625</ele>
        <time>2017-08-04T06:54:34.000Z</time>
        <extensions>
          <ns3:TrackPointExtension>
            <ns3:atemp>32.0</ns3:atemp>
          </ns3:TrackPointExtension>
        </extensions>
      </trkpt>
      <trkpt lat="31.7159462906420230865478515625" lon="35.0441671907901763916015625">
        <ele>495</ele>
        <time>2017-08-04T06:54:35.000Z</time>
        <extensions>
          <ns3:TrackPointExtension>
            <ns3:atemp>32.0</ns3:atemp>
          </ns3:TrackPointExtension>
        </extensions>
      </trkpt>
      <trkpt lat="31.71613982878625392913818359375" lon="35.04379310645163059234619140625">
        <ele>493.79998779296875</ele>
        <time>2017-08-04T06:54:40.000Z</time>
        <extensions>
          <ns3:TrackPointExtension>
            <ns3:atemp>32.0</ns3:atemp>
          </ns3:TrackPointExtension>
        </extensions>
      </trkpt>
      <trkpt lat="31.71619825065135955810546875" lon="35.043631754815578460693359375">
        <ele>492.600006103515625</ele>
        <time>2017-08-04T06:54:42.000Z</time>
        <extensions>
          <ns3:TrackPointExtension>
            <ns3:atemp>32.0</ns3:atemp>
          </ns3:TrackPointExtension>
        </extensions>
      </trkpt>
      <trkpt lat="31.71626002527773380279541015625" lon="35.04346721805632114410400390625">
        <ele>492</ele>
        <time>2017-08-04T06:54:44.000Z</time>
        <extensions>
          <ns3:TrackPointExtension>
            <ns3:atemp>32.0</ns3:atemp>
          </ns3:TrackPointExtension>
        </extensions>
      </trkpt>
      <trkpt lat="31.7163020186126232147216796875" lon="35.04338423721492290496826171875">
        <ele>491</ele>
        <time>2017-08-04T06:54:45.000Z</time>
        <extensions>
          <ns3:TrackPointExtension>
            <ns3:atemp>32.0</ns3:atemp>
          </ns3:TrackPointExtension>
        </extensions>
      </trkpt>
      <trkpt lat="31.716360859572887420654296875" lon="35.0432088039815425872802734375">
        <ele>489.79998779296875</ele>
        <time>2017-08-04T06:54:47.000Z</time>
        <extensions>
          <ns3:TrackPointExtension>
            <ns3:atemp>32.0</ns3:atemp>
          </ns3:TrackPointExtension>
        </extensions>
      </trkpt>
      <trkpt lat="31.7164307646453380584716796875" lon="35.0429442711174488067626953125">
        <ele>489</ele>
        <time>2017-08-04T06:54:50.000Z</time>
        <extensions>
          <ns3:TrackPointExtension>
            <ns3:atemp>32.0</ns3:atemp>
          </ns3:TrackPointExtension>
        </extensions>
      </trkpt>
      <trkpt lat="31.716451384127140045166015625" lon="35.042855925858020782470703125">
        <ele>488.399993896484375</ele>
        <time>2017-08-04T06:54:51.000Z</time>
        <extensions>
          <ns3:TrackPointExtension>
            <ns3:atemp>32.0</ns3:atemp>
          </ns3:TrackPointExtension>
        </extensions>
      </trkpt>
      <trkpt lat="31.7165290005505084991455078125" lon="35.04251184873282909393310546875">
        <ele>487.79998779296875</ele>
        <time>2017-08-04T06:54:55.000Z</time>
        <extensions>
          <ns3:TrackPointExtension>
            <ns3:atemp>32.0</ns3:atemp>
          </ns3:TrackPointExtension>
        </extensions>
      </trkpt>
      <trkpt lat="31.7165393941104412078857421875" lon="35.04242735914885997772216796875">
        <ele>487.20001220703125</ele>
        <time>2017-08-04T06:54:56.000Z</time>
        <extensions>
          <ns3:TrackPointExtension>
            <ns3:atemp>32.0</ns3:atemp>
          </ns3:TrackPointExtension>
        </extensions>
      </trkpt>
      <trkpt lat="31.71656194142997264862060546875" lon="35.04235091619193553924560546875">
        <ele>487</ele>
        <time>2017-08-04T06:54:57.000Z</time>
        <extensions>
          <ns3:TrackPointExtension>
            <ns3:atemp>32.0</ns3:atemp>
          </ns3:TrackPointExtension>
        </extensions>
      </trkpt>
      <trkpt lat="31.7167100496590137481689453125" lon="35.0419592298567295074462890625">
        <ele>486.79998779296875</ele>
        <time>2017-08-04T06:55:02.000Z</time>
        <extensions>
          <ns3:TrackPointExtension>
            <ns3:atemp>32.0</ns3:atemp>
          </ns3:TrackPointExtension>
        </extensions>
      </trkpt>
      <trkpt lat="31.7167321778833866119384765625" lon="35.04188303835690021514892578125">
        <ele>485.79998779296875</ele>
        <time>2017-08-04T06:55:03.000Z</time>
        <extensions>
          <ns3:TrackPointExtension>
            <ns3:atemp>32.0</ns3:atemp>
          </ns3:TrackPointExtension>
        </extensions>
      </trkpt>
      <trkpt lat="31.7167393863201141357421875" lon="35.0418053381145000457763671875">
        <ele>485.20001220703125</ele>
        <time>2017-08-04T06:55:04.000Z</time>
        <extensions>
          <ns3:TrackPointExtension>
            <ns3:atemp>32.0</ns3:atemp>
          </ns3:TrackPointExtension>
        </extensions>
      </trkpt>
      <trkpt lat="31.71674810349941253662109375" lon="35.0417292304337024688720703125">
        <ele>484.600006103515625</ele>
        <time>2017-08-04T06:55:05.000Z</time>
        <extensions>
          <ns3:TrackPointExtension>
            <ns3:atemp>32.0</ns3:atemp>
          </ns3:TrackPointExtension>
        </extensions>
      </trkpt>
      <trkpt lat="31.71674634329974651336669921875" lon="35.04165488295257091522216796875">
        <ele>485.399993896484375</ele>
        <time>2017-08-04T06:55:06.000Z</time>
        <extensions>
          <ns3:TrackPointExtension>
            <ns3:atemp>32.0</ns3:atemp>
          </ns3:TrackPointExtension>
        </extensions>
      </trkpt>
      <trkpt lat="31.71674885787069797515869140625" lon="35.0415867380797863006591796875">
        <ele>485.600006103515625</ele>
        <time>2017-08-04T06:55:07.000Z</time>
        <extensions>
          <ns3:TrackPointExtension>
            <ns3:atemp>32.0</ns3:atemp>
          </ns3:TrackPointExtension>
        </extensions>
      </trkpt>
      <trkpt lat="31.71671994030475616455078125" lon="35.0413857400417327880859375">
        <ele>486</ele>
        <time>2017-08-04T06:55:10.000Z</time>
        <extensions>
          <ns3:TrackPointExtension>
            <ns3:atemp>32.0</ns3:atemp>
          </ns3:TrackPointExtension>
        </extensions>
      </trkpt>
      <trkpt lat="31.71669781208038330078125" lon="35.04132874310016632080078125">
        <ele>486.20001220703125</ele>
        <time>2017-08-04T06:55:11.000Z</time>
        <extensions>
          <ns3:TrackPointExtension>
            <ns3:atemp>32.0</ns3:atemp>
          </ns3:TrackPointExtension>
        </extensions>
      </trkpt>
      <trkpt lat="31.716680712997913360595703125" lon="35.0411267392337322235107421875">
        <ele>485.399993896484375</ele>
        <time>2017-08-04T06:55:14.000Z</time>
        <extensions>
          <ns3:TrackPointExtension>
            <ns3:atemp>32.0</ns3:atemp>
          </ns3:TrackPointExtension>
        </extensions>
      </trkpt>
      <trkpt lat="31.716651879251003265380859375" lon="35.04105649888515472412109375">
        <ele>484.79998779296875</ele>
        <time>2017-08-04T06:55:15.000Z</time>
        <extensions>
          <ns3:TrackPointExtension>
            <ns3:atemp>32.0</ns3:atemp>
          </ns3:TrackPointExtension>
        </extensions>
      </trkpt>
      <trkpt lat="31.716620028018951416015625" lon="35.04098483361303806304931640625">
        <ele>484.20001220703125</ele>
        <time>2017-08-04T06:55:16.000Z</time>
        <extensions>
          <ns3:TrackPointExtension>
            <ns3:atemp>32.0</ns3:atemp>
          </ns3:TrackPointExtension>
        </extensions>
      </trkpt>
      <trkpt lat="31.7165038548409938812255859375" lon="35.0406898744404315948486328125">
        <ele>483.399993896484375</ele>
        <time>2017-08-04T06:55:20.000Z</time>
        <extensions>
          <ns3:TrackPointExtension>
            <ns3:atemp>32.0</ns3:atemp>
          </ns3:TrackPointExtension>
        </extensions>
      </trkpt>
      <trkpt lat="31.71647141687572002410888671875" lon="35.04062659107148647308349609375">
        <ele>483</ele>
        <time>2017-08-04T06:55:21.000Z</time>
        <extensions>
          <ns3:TrackPointExtension>
            <ns3:atemp>32.0</ns3:atemp>
          </ns3:TrackPointExtension>
        </extensions>
      </trkpt>
      <trkpt lat="31.71643420122563838958740234375" lon="35.04057864658534526824951171875">
        <ele>482.79998779296875</ele>
        <time>2017-08-04T06:55:22.000Z</time>
        <extensions>
          <ns3:TrackPointExtension>
            <ns3:atemp>32.0</ns3:atemp>
          </ns3:TrackPointExtension>
        </extensions>
      </trkpt>
      <trkpt lat="31.7163513042032718658447265625" lon="35.04046968184411525726318359375">
        <ele>482</ele>
        <time>2017-08-04T06:55:24.000Z</time>
        <extensions>
          <ns3:TrackPointExtension>
            <ns3:atemp>32.0</ns3:atemp>
          </ns3:TrackPointExtension>
        </extensions>
      </trkpt>
      <trkpt lat="31.71630444936454296112060546875" lon="35.0404095835983753204345703125">
        <ele>482</ele>
        <time>2017-08-04T06:55:25.000Z</time>
        <extensions>
          <ns3:TrackPointExtension>
            <ns3:atemp>32.0</ns3:atemp>
          </ns3:TrackPointExtension>
        </extensions>
      </trkpt>
      <trkpt lat="31.71624393202364444732666015625" lon="35.04036574624478816986083984375">
        <ele>481.79998779296875</ele>
        <time>2017-08-04T06:55:26.000Z</time>
        <extensions>
          <ns3:TrackPointExtension>
            <ns3:atemp>32.0</ns3:atemp>
          </ns3:TrackPointExtension>
        </extensions>
      </trkpt>
      <trkpt lat="31.7161407507956027984619140625" lon="35.04024839960038661956787109375">
        <ele>481.20001220703125</ele>
        <time>2017-08-04T06:55:28.000Z</time>
        <extensions>
          <ns3:TrackPointExtension>
            <ns3:atemp>32.0</ns3:atemp>
          </ns3:TrackPointExtension>
        </extensions>
      </trkpt>
      <trkpt lat="31.71604997478425502777099609375" lon="35.0401256047189235687255859375">
        <ele>480.600006103515625</ele>
        <time>2017-08-04T06:55:30.000Z</time>
        <extensions>
          <ns3:TrackPointExtension>
            <ns3:atemp>32.0</ns3:atemp>
          </ns3:TrackPointExtension>
        </extensions>
      </trkpt>
      <trkpt lat="31.7159452848136425018310546875" lon="35.04000197164714336395263671875">
        <ele>479</ele>
        <time>2017-08-04T06:55:32.000Z</time>
        <extensions>
          <ns3:TrackPointExtension>
            <ns3:atemp>32.0</ns3:atemp>
          </ns3:TrackPointExtension>
        </extensions>
      </trkpt>
      <trkpt lat="31.71583749353885650634765625" lon="35.03988278098404407501220703125">
        <ele>478.399993896484375</ele>
        <time>2017-08-04T06:55:34.000Z</time>
        <extensions>
          <ns3:TrackPointExtension>
            <ns3:atemp>31.0</ns3:atemp>
          </ns3:TrackPointExtension>
        </extensions>
      </trkpt>
      <trkpt lat="31.7157836817204952239990234375" lon="35.03982326947152614593505859375">
        <ele>477.79998779296875</ele>
        <time>2017-08-04T06:55:35.000Z</time>
        <extensions>
          <ns3:TrackPointExtension>
            <ns3:atemp>31.0</ns3:atemp>
          </ns3:TrackPointExtension>
        </extensions>
      </trkpt>
      <trkpt lat="31.715464331209659576416015625" lon="35.03948380239307880401611328125">
        <ele>477.600006103515625</ele>
        <time>2017-08-04T06:55:41.000Z</time>
        <extensions>
          <ns3:TrackPointExtension>
            <ns3:atemp>31.0</ns3:atemp>
          </ns3:TrackPointExtension>
        </extensions>
      </trkpt>
      <trkpt lat="31.71537439338862895965576171875" lon="35.03935019485652446746826171875">
        <ele>476.399993896484375</ele>
        <time>2017-08-04T06:55:43.000Z</time>
        <extensions>
          <ns3:TrackPointExtension>
            <ns3:atemp>31.0</ns3:atemp>
          </ns3:TrackPointExtension>
        </extensions>
      </trkpt>
      <trkpt lat="31.7152988724410533905029296875" lon="35.03918909467756748199462890625">
        <ele>475.399993896484375</ele>
        <time>2017-08-04T06:55:45.000Z</time>
        <extensions>
          <ns3:TrackPointExtension>
            <ns3:atemp>31.0</ns3:atemp>
          </ns3:TrackPointExtension>
        </extensions>
      </trkpt>
      <trkpt lat="31.7152026481926441192626953125" lon="35.03902832977473735809326171875">
        <ele>473.600006103515625</ele>
        <time>2017-08-04T06:55:47.000Z</time>
        <extensions>
          <ns3:TrackPointExtension>
            <ns3:atemp>31.0</ns3:atemp>
          </ns3:TrackPointExtension>
        </extensions>
      </trkpt>
      <trkpt lat="31.715127713978290557861328125" lon="35.03893327899277210235595703125">
        <ele>473.399993896484375</ele>
        <time>2017-08-04T06:55:49.000Z</time>
        <extensions>
          <ns3:TrackPointExtension>
            <ns3:atemp>31.0</ns3:atemp>
          </ns3:TrackPointExtension>
        </extensions>
      </trkpt>
      <trkpt lat="31.71510550193488597869873046875" lon="35.038883574306964874267578125">
        <ele>473.399993896484375</ele>
        <time>2017-08-04T06:55:50.000Z</time>
        <extensions>
          <ns3:TrackPointExtension>
            <ns3:atemp>31.0</ns3:atemp>
          </ns3:TrackPointExtension>
        </extensions>
      </trkpt>
      <trkpt lat="31.71505001373589038848876953125" lon="35.03884091041982173919677734375">
        <ele>473.20001220703125</ele>
        <time>2017-08-04T06:55:52.000Z</time>
        <extensions>
          <ns3:TrackPointExtension>
            <ns3:atemp>31.0</ns3:atemp>
          </ns3:TrackPointExtension>
        </extensions>
      </trkpt>
      <trkpt lat="31.71490852721035480499267578125" lon="35.03872297704219818115234375">
        <ele>473.20001220703125</ele>
        <time>2017-08-04T06:55:57.000Z</time>
        <extensions>
          <ns3:TrackPointExtension>
            <ns3:atemp>31.0</ns3:atemp>
          </ns3:TrackPointExtension>
        </extensions>
      </trkpt>
      <trkpt lat="31.71475899405777454376220703125" lon="35.03860672004520893096923828125">
        <ele>472.20001220703125</ele>
        <time>2017-08-04T06:56:01.000Z</time>
        <extensions>
          <ns3:TrackPointExtension>
            <ns3:atemp>31.0</ns3:atemp>
          </ns3:TrackPointExtension>
        </extensions>
      </trkpt>
      <trkpt lat="31.7147114686667919158935546875" lon="35.03856983967125415802001953125">
        <ele>472</ele>
        <time>2017-08-04T06:56:02.000Z</time>
        <extensions>
          <ns3:TrackPointExtension>
            <ns3:atemp>31.0</ns3:atemp>
          </ns3:TrackPointExtension>
        </extensions>
      </trkpt>
      <trkpt lat="31.71465103514492511749267578125" lon="35.03855709917843341827392578125">
        <ele>471.600006103515625</ele>
        <time>2017-08-04T06:56:03.000Z</time>
        <extensions>
          <ns3:TrackPointExtension>
            <ns3:atemp>31.0</ns3:atemp>
          </ns3:TrackPointExtension>
        </extensions>
      </trkpt>
      <trkpt lat="31.71455699019134044647216796875" lon="35.03857738338410854339599609375">
        <ele>471.79998779296875</ele>
        <time>2017-08-04T06:56:05.000Z</time>
        <extensions>
          <ns3:TrackPointExtension>
            <ns3:atemp>31.0</ns3:atemp>
          </ns3:TrackPointExtension>
        </extensions>
      </trkpt>
      <trkpt lat="31.71446328051388263702392578125" lon="35.03857956267893314361572265625">
        <ele>472</ele>
        <time>2017-08-04T06:56:07.000Z</time>
        <extensions>
          <ns3:TrackPointExtension>
            <ns3:atemp>31.0</ns3:atemp>
          </ns3:TrackPointExtension>
        </extensions>
      </trkpt>
      <trkpt lat="31.71433587558567523956298828125" lon="35.0385166145861148834228515625">
        <ele>472.600006103515625</ele>
        <time>2017-08-04T06:56:10.000Z</time>
        <extensions>
          <ns3:TrackPointExtension>
            <ns3:atemp>31.0</ns3:atemp>
          </ns3:TrackPointExtension>
        </extensions>
      </trkpt>
      <trkpt lat="31.7142933793365955352783203125" lon="35.03849742002785205841064453125">
        <ele>472.399993896484375</ele>
        <time>2017-08-04T06:56:11.000Z</time>
        <extensions>
          <ns3:TrackPointExtension>
            <ns3:atemp>31.0</ns3:atemp>
          </ns3:TrackPointExtension>
        </extensions>
      </trkpt>
      <trkpt lat="31.714144684374332427978515625" lon="35.0384076498448848724365234375">
        <ele>472</ele>
        <time>2017-08-04T06:56:15.000Z</time>
        <extensions>
          <ns3:TrackPointExtension>
            <ns3:atemp>31.0</ns3:atemp>
          </ns3:TrackPointExtension>
        </extensions>
      </trkpt>
      <trkpt lat="31.714105792343616485595703125" lon="35.0383684225380420684814453125">
        <ele>471.399993896484375</ele>
        <time>2017-08-04T06:56:16.000Z</time>
        <extensions>
          <ns3:TrackPointExtension>
            <ns3:atemp>31.0</ns3:atemp>
          </ns3:TrackPointExtension>
        </extensions>
      </trkpt>
      <trkpt lat="31.714064888656139373779296875" lon="35.03832793794572353363037109375">
        <ele>471</ele>
        <time>2017-08-04T06:56:17.000Z</time>
        <extensions>
          <ns3:TrackPointExtension>
            <ns3:atemp>31.0</ns3:atemp>
          </ns3:TrackPointExtension>
        </extensions>
      </trkpt>
      <trkpt lat="31.71403161250054836273193359375" lon="35.0382708571851253509521484375">
        <ele>470.79998779296875</ele>
        <time>2017-08-04T06:56:18.000Z</time>
        <extensions>
          <ns3:TrackPointExtension>
            <ns3:atemp>31.0</ns3:atemp>
          </ns3:TrackPointExtension>
        </extensions>
      </trkpt>
      <trkpt lat="31.7139845900237560272216796875" lon="35.03815166652202606201171875">
        <ele>470.20001220703125</ele>
        <time>2017-08-04T06:56:20.000Z</time>
        <extensions>
          <ns3:TrackPointExtension>
            <ns3:atemp>31.0</ns3:atemp>
          </ns3:TrackPointExtension>
        </extensions>
      </trkpt>
      <trkpt lat="31.7139624617993831634521484375" lon="35.038088969886302947998046875">
        <ele>469.399993896484375</ele>
        <time>2017-08-04T06:56:21.000Z</time>
        <extensions>
          <ns3:TrackPointExtension>
            <ns3:atemp>31.0</ns3:atemp>
          </ns3:TrackPointExtension>
        </extensions>
      </trkpt>
      <trkpt lat="31.713924407958984375" lon="35.0380261056125164031982421875">
        <ele>468</ele>
        <time>2017-08-04T06:56:22.000Z</time>
        <extensions>
          <ns3:TrackPointExtension>
            <ns3:atemp>31.0</ns3:atemp>
          </ns3:TrackPointExtension>
        </extensions>
      </trkpt>
      <trkpt lat="31.7138203047215938568115234375" lon="35.0378819368779659271240234375">
        <ele>468.20001220703125</ele>
        <time>2017-08-04T06:56:25.000Z</time>
        <extensions>
          <ns3:TrackPointExtension>
            <ns3:atemp>31.0</ns3:atemp>
          </ns3:TrackPointExtension>
        </extensions>
      </trkpt>
      <trkpt lat="31.71376054175198078155517578125" lon="35.0377947650849819183349609375">
        <ele>469</ele>
        <time>2017-08-04T06:56:27.000Z</time>
        <extensions>
          <ns3:TrackPointExtension>
            <ns3:atemp>31.0</ns3:atemp>
          </ns3:TrackPointExtension>
        </extensions>
      </trkpt>
      <trkpt lat="31.71373598277568817138671875" lon="35.0377433001995086669921875">
        <ele>469</ele>
        <time>2017-08-04T06:56:28.000Z</time>
        <extensions>
          <ns3:TrackPointExtension>
            <ns3:atemp>31.0</ns3:atemp>
          </ns3:TrackPointExtension>
        </extensions>
      </trkpt>
      <trkpt lat="31.7136473022401332855224609375" lon="35.03758731298148632049560546875">
        <ele>468.399993896484375</ele>
        <time>2017-08-04T06:56:31.000Z</time>
        <extensions>
          <ns3:TrackPointExtension>
            <ns3:atemp>31.0</ns3:atemp>
          </ns3:TrackPointExtension>
        </extensions>
      </trkpt>
      <trkpt lat="31.71361268498003482818603515625" lon="35.03754548728466033935546875">
        <ele>468</ele>
        <time>2017-08-04T06:56:32.000Z</time>
        <extensions>
          <ns3:TrackPointExtension>
            <ns3:atemp>31.0</ns3:atemp>
          </ns3:TrackPointExtension>
        </extensions>
      </trkpt>
      <trkpt lat="31.71354378573596477508544921875" lon="35.037524364888668060302734375">
        <ele>469</ele>
        <time>2017-08-04T06:56:34.000Z</time>
        <extensions>
          <ns3:TrackPointExtension>
            <ns3:atemp>31.0</ns3:atemp>
          </ns3:TrackPointExtension>
        </extensions>
      </trkpt>
      <trkpt lat="31.71349734999239444732666015625" lon="35.03751656971871852874755859375">
        <ele>470.79998779296875</ele>
        <time>2017-08-04T06:56:36.000Z</time>
        <extensions>
          <ns3:TrackPointExtension>
            <ns3:atemp>31.0</ns3:atemp>
          </ns3:TrackPointExtension>
        </extensions>
      </trkpt>
      <trkpt lat="31.7134756408631801605224609375" lon="35.03752880729734897613525390625">
        <ele>471.20001220703125</ele>
        <time>2017-08-04T06:56:37.000Z</time>
        <extensions>
          <ns3:TrackPointExtension>
            <ns3:atemp>31.0</ns3:atemp>
          </ns3:TrackPointExtension>
        </extensions>
      </trkpt>
      <trkpt lat="31.71345837414264678955078125" lon="35.03752059303224086761474609375">
        <ele>471.600006103515625</ele>
        <time>2017-08-04T06:56:38.000Z</time>
        <extensions>
          <ns3:TrackPointExtension>
            <ns3:atemp>31.0</ns3:atemp>
          </ns3:TrackPointExtension>
        </extensions>
      </trkpt>
      <trkpt lat="31.71344018541276454925537109375" lon="35.0375151447951793670654296875">
        <ele>472.20001220703125</ele>
        <time>2017-08-04T06:56:39.000Z</time>
        <extensions>
          <ns3:TrackPointExtension>
            <ns3:atemp>31.0</ns3:atemp>
          </ns3:TrackPointExtension>
        </extensions>
      </trkpt>
      <trkpt lat="31.7133951745927333831787109375" lon="35.037488155066967010498046875">
        <ele>473.600006103515625</ele>
        <time>2017-08-04T06:56:42.000Z</time>
        <extensions>
          <ns3:TrackPointExtension>
            <ns3:atemp>31.0</ns3:atemp>
          </ns3:TrackPointExtension>
        </extensions>
      </trkpt>
      <trkpt lat="31.71333893202245235443115234375" lon="35.037446580827236175537109375">
        <ele>474.20001220703125</ele>
        <time>2017-08-04T06:56:45.000Z</time>
        <extensions>
          <ns3:TrackPointExtension>
            <ns3:atemp>31.0</ns3:atemp>
          </ns3:TrackPointExtension>
        </extensions>
      </trkpt>
      <trkpt lat="31.71329735778272151947021484375" lon="35.0374306552112102508544921875">
        <ele>474.79998779296875</ele>
        <time>2017-08-04T06:56:47.000Z</time>
        <extensions>
          <ns3:TrackPointExtension>
            <ns3:atemp>31.0</ns3:atemp>
          </ns3:TrackPointExtension>
        </extensions>
      </trkpt>
      <trkpt lat="31.71328830532729625701904296875" lon="35.03741498105227947235107421875">
        <ele>475</ele>
        <time>2017-08-04T06:56:48.000Z</time>
        <extensions>
          <ns3:TrackPointExtension>
            <ns3:atemp>31.0</ns3:atemp>
          </ns3:TrackPointExtension>
        </extensions>
      </trkpt>
      <trkpt lat="31.7132624052464962005615234375" lon="35.037390924990177154541015625">
        <ele>475.600006103515625</ele>
        <time>2017-08-04T06:56:50.000Z</time>
        <extensions>
          <ns3:TrackPointExtension>
            <ns3:atemp>31.0</ns3:atemp>
          </ns3:TrackPointExtension>
        </extensions>
      </trkpt>
      <trkpt lat="31.71323030255734920501708984375" lon="35.0373723171651363372802734375">
        <ele>475.79998779296875</ele>
        <time>2017-08-04T06:56:52.000Z</time>
        <extensions>
          <ns3:TrackPointExtension>
            <ns3:atemp>31.0</ns3:atemp>
          </ns3:TrackPointExtension>
        </extensions>
      </trkpt>
      <trkpt lat="31.7131165601313114166259765625" lon="35.03732110373675823211669921875">
        <ele>476.20001220703125</ele>
        <time>2017-08-04T06:56:57.000Z</time>
        <extensions>
          <ns3:TrackPointExtension>
            <ns3:atemp>31.0</ns3:atemp>
          </ns3:TrackPointExtension>
        </extensions>
      </trkpt>
      <trkpt lat="31.71303835697472095489501953125" lon="35.03725639544427394866943359375">
        <ele>477</ele>
        <time>2017-08-04T06:57:01.000Z</time>
        <extensions>
          <ns3:TrackPointExtension>
            <ns3:atemp>31.0</ns3:atemp>
          </ns3:TrackPointExtension>
        </extensions>
      </trkpt>
      <trkpt lat="31.7130191624164581298828125" lon="35.03724130801856517791748046875">
        <ele>477.399993896484375</ele>
        <time>2017-08-04T06:57:02.000Z</time>
        <extensions>
          <ns3:TrackPointExtension>
            <ns3:atemp>31.0</ns3:atemp>
          </ns3:TrackPointExtension>
        </extensions>
      </trkpt>
      <trkpt lat="31.71296107582747936248779296875" lon="35.03719621337950229644775390625">
        <ele>478</ele>
        <time>2017-08-04T06:57:05.000Z</time>
        <extensions>
          <ns3:TrackPointExtension>
            <ns3:atemp>31.0</ns3:atemp>
          </ns3:TrackPointExtension>
        </extensions>
      </trkpt>
      <trkpt lat="31.7129413783550262451171875" lon="35.037182383239269256591796875">
        <ele>478.399993896484375</ele>
        <time>2017-08-04T06:57:06.000Z</time>
        <extensions>
          <ns3:TrackPointExtension>
            <ns3:atemp>31.0</ns3:atemp>
          </ns3:TrackPointExtension>
        </extensions>
      </trkpt>
      <trkpt lat="31.71292503364384174346923828125" lon="35.03717123530805110931396484375">
        <ele>478.79998779296875</ele>
        <time>2017-08-04T06:57:07.000Z</time>
        <extensions>
          <ns3:TrackPointExtension>
            <ns3:atemp>31.0</ns3:atemp>
          </ns3:TrackPointExtension>
        </extensions>
      </trkpt>
      <trkpt lat="31.71290181577205657958984375" lon="35.03715254366397857666015625">
        <ele>479.600006103515625</ele>
        <time>2017-08-04T06:57:09.000Z</time>
        <extensions>
          <ns3:TrackPointExtension>
            <ns3:atemp>31.0</ns3:atemp>
          </ns3:TrackPointExtension>
        </extensions>
      </trkpt>
      <trkpt lat="31.712892763316631317138671875" lon="35.03714458085596561431884765625">
        <ele>479.79998779296875</ele>
        <time>2017-08-04T06:57:12.000Z</time>
        <extensions>
          <ns3:TrackPointExtension>
            <ns3:atemp>31.0</ns3:atemp>
          </ns3:TrackPointExtension>
        </extensions>
      </trkpt>
      <trkpt lat="31.712892763316631317138671875" lon="35.03714458085596561431884765625">
        <ele>480</ele>
        <time>2017-08-04T06:57:22.000Z</time>
        <extensions>
          <ns3:TrackPointExtension>
            <ns3:atemp>31.0</ns3:atemp>
          </ns3:TrackPointExtension>
        </extensions>
      </trkpt>
      <trkpt lat="31.712892763316631317138671875" lon="35.03714458085596561431884765625">
        <ele>480</ele>
        <time>2017-08-04T06:57:33.000Z</time>
        <extensions>
          <ns3:TrackPointExtension>
            <ns3:atemp>31.0</ns3:atemp>
          </ns3:TrackPointExtension>
        </extensions>
      </trkpt>
      <trkpt lat="31.71288765035569667816162109375" lon="35.037138462066650390625">
        <ele>479.79998779296875</ele>
        <time>2017-08-04T06:57:41.000Z</time>
        <extensions>
          <ns3:TrackPointExtension>
            <ns3:atemp>32.0</ns3:atemp>
          </ns3:TrackPointExtension>
        </extensions>
      </trkpt>
      <trkpt lat="31.71288765035569667816162109375" lon="35.037138462066650390625">
        <ele>479.600006103515625</ele>
        <time>2017-08-04T06:57:49.000Z</time>
        <extensions>
          <ns3:TrackPointExtension>
            <ns3:atemp>32.0</ns3:atemp>
          </ns3:TrackPointExtension>
        </extensions>
      </trkpt>
      <trkpt lat="31.712884046137332916259765625" lon="35.03712161444127559661865234375">
        <ele>479.600006103515625</ele>
        <time>2017-08-04T06:57:56.000Z</time>
        <extensions>
          <ns3:TrackPointExtension>
            <ns3:atemp>32.0</ns3:atemp>
          </ns3:TrackPointExtension>
        </extensions>
      </trkpt>
      <trkpt lat="31.7128771729767322540283203125" lon="35.03710468299686908721923828125">
        <ele>479.20001220703125</ele>
        <time>2017-08-04T06:57:57.000Z</time>
        <extensions>
          <ns3:TrackPointExtension>
            <ns3:atemp>32.0</ns3:atemp>
          </ns3:TrackPointExtension>
        </extensions>
      </trkpt>
      <trkpt lat="31.7128446511924266815185546875" lon="35.03701348789036273956298828125">
        <ele>478.600006103515625</ele>
        <time>2017-08-04T06:58:00.000Z</time>
        <extensions>
          <ns3:TrackPointExtension>
            <ns3:atemp>32.0</ns3:atemp>
          </ns3:TrackPointExtension>
        </extensions>
      </trkpt>
      <trkpt lat="31.7128292284905910491943359375" lon="35.0369666330516338348388671875">
        <ele>478</ele>
        <time>2017-08-04T06:58:01.000Z</time>
        <extensions>
          <ns3:TrackPointExtension>
            <ns3:atemp>32.0</ns3:atemp>
          </ns3:TrackPointExtension>
        </extensions>
      </trkpt>
      <trkpt lat="31.71279109083116054534912109375" lon="35.03685238771140575408935546875">
        <ele>475</ele>
        <time>2017-08-04T06:58:03.000Z</time>
        <extensions>
          <ns3:TrackPointExtension>
            <ns3:atemp>32.0</ns3:atemp>
          </ns3:TrackPointExtension>
        </extensions>
      </trkpt>
      <trkpt lat="31.7127430625259876251220703125" lon="35.03672548569738864898681640625">
        <ele>473.79998779296875</ele>
        <time>2017-08-04T06:58:05.000Z</time>
        <extensions>
          <ns3:TrackPointExtension>
            <ns3:atemp>32.0</ns3:atemp>
          </ns3:TrackPointExtension>
        </extensions>
      </trkpt>
      <trkpt lat="31.71270123682916164398193359375" lon="35.0366028584539890289306640625">
        <ele>474.399993896484375</ele>
        <time>2017-08-04T06:58:07.000Z</time>
        <extensions>
          <ns3:TrackPointExtension>
            <ns3:atemp>32.0</ns3:atemp>
          </ns3:TrackPointExtension>
        </extensions>
      </trkpt>
      <trkpt lat="31.71265195123851299285888671875" lon="35.0364090688526630401611328125">
        <ele>474</ele>
        <time>2017-08-04T06:58:10.000Z</time>
        <extensions>
          <ns3:TrackPointExtension>
            <ns3:atemp>32.0</ns3:atemp>
          </ns3:TrackPointExtension>
        </extensions>
      </trkpt>
      <trkpt lat="31.712614484131336212158203125" lon="35.0362079031765460968017578125">
        <ele>472.600006103515625</ele>
        <time>2017-08-04T06:58:13.000Z</time>
        <extensions>
          <ns3:TrackPointExtension>
            <ns3:atemp>32.0</ns3:atemp>
          </ns3:TrackPointExtension>
        </extensions>
      </trkpt>
      <trkpt lat="31.712559498846530914306640625" lon="35.0359185598790645599365234375">
        <ele>472</ele>
        <time>2017-08-04T06:58:18.000Z</time>
        <extensions>
          <ns3:TrackPointExtension>
            <ns3:atemp>32.0</ns3:atemp>
          </ns3:TrackPointExtension>
        </extensions>
      </trkpt>
      <trkpt lat="31.7125724069774150848388671875" lon="35.0358065776526927947998046875">
        <ele>471.399993896484375</ele>
        <time>2017-08-04T06:58:20.000Z</time>
        <extensions>
          <ns3:TrackPointExtension>
            <ns3:atemp>32.0</ns3:atemp>
          </ns3:TrackPointExtension>
        </extensions>
      </trkpt>
      <trkpt lat="31.71261507086455821990966796875" lon="35.035712532699108123779296875">
        <ele>470.600006103515625</ele>
        <time>2017-08-04T06:58:22.000Z</time>
        <extensions>
          <ns3:TrackPointExtension>
            <ns3:atemp>32.0</ns3:atemp>
          </ns3:TrackPointExtension>
        </extensions>
      </trkpt>
      <trkpt lat="31.7126344330608844757080078125" lon="35.03566500730812549591064453125">
        <ele>470.399993896484375</ele>
        <time>2017-08-04T06:58:23.000Z</time>
        <extensions>
          <ns3:TrackPointExtension>
            <ns3:atemp>32.0</ns3:atemp>
          </ns3:TrackPointExtension>
        </extensions>
      </trkpt>
      <trkpt lat="31.7126760073006153106689453125" lon="35.0355584733188152313232421875">
        <ele>469.20001220703125</ele>
        <time>2017-08-04T06:58:25.000Z</time>
        <extensions>
          <ns3:TrackPointExtension>
            <ns3:atemp>32.0</ns3:atemp>
          </ns3:TrackPointExtension>
        </extensions>
      </trkpt>
      <trkpt lat="31.71268631704151630401611328125" lon="35.0354927591979503631591796875">
        <ele>468.20001220703125</ele>
        <time>2017-08-04T06:58:26.000Z</time>
        <extensions>
          <ns3:TrackPointExtension>
            <ns3:atemp>32.0</ns3:atemp>
          </ns3:TrackPointExtension>
        </extensions>
      </trkpt>
      <trkpt lat="31.7126773484051227569580078125" lon="35.0354280509054660797119140625">
        <ele>466.600006103515625</ele>
        <time>2017-08-04T06:58:27.000Z</time>
        <extensions>
          <ns3:TrackPointExtension>
            <ns3:atemp>32.0</ns3:atemp>
          </ns3:TrackPointExtension>
        </extensions>
      </trkpt>
      <trkpt lat="31.71264457516372203826904296875" lon="35.035309530794620513916015625">
        <ele>465</ele>
        <time>2017-08-04T06:58:29.000Z</time>
        <extensions>
          <ns3:TrackPointExtension>
            <ns3:atemp>32.0</ns3:atemp>
          </ns3:TrackPointExtension>
        </extensions>
      </trkpt>
      <trkpt lat="31.7126226983964443206787109375" lon="35.03525211475789546966552734375">
        <ele>465.20001220703125</ele>
        <time>2017-08-04T06:58:30.000Z</time>
        <extensions>
          <ns3:TrackPointExtension>
            <ns3:atemp>32.0</ns3:atemp>
          </ns3:TrackPointExtension>
        </extensions>
      </trkpt>
      <trkpt lat="31.71260132454335689544677734375" lon="35.035190172493457794189453125">
        <ele>465.20001220703125</ele>
        <time>2017-08-04T06:58:31.000Z</time>
        <extensions>
          <ns3:TrackPointExtension>
            <ns3:atemp>32.0</ns3:atemp>
          </ns3:TrackPointExtension>
        </extensions>
      </trkpt>
      <trkpt lat="31.7125771008431911468505859375" lon="35.03512873314321041107177734375">
        <ele>465.20001220703125</ele>
        <time>2017-08-04T06:58:32.000Z</time>
        <extensions>
          <ns3:TrackPointExtension>
            <ns3:atemp>32.0</ns3:atemp>
          </ns3:TrackPointExtension>
        </extensions>
      </trkpt>
      <trkpt lat="31.71250392682850360870361328125" lon="35.0349710695445537567138671875">
        <ele>464.600006103515625</ele>
        <time>2017-08-04T06:58:35.000Z</time>
        <extensions>
          <ns3:TrackPointExtension>
            <ns3:atemp>32.0</ns3:atemp>
          </ns3:TrackPointExtension>
        </extensions>
      </trkpt>
      <trkpt lat="31.712489090859889984130859375" lon="35.03492094576358795166015625">
        <ele>464.79998779296875</ele>
        <time>2017-08-04T06:58:36.000Z</time>
        <extensions>
          <ns3:TrackPointExtension>
            <ns3:atemp>32.0</ns3:atemp>
          </ns3:TrackPointExtension>
        </extensions>
      </trkpt>
      <trkpt lat="31.7124451696872711181640625" lon="35.0347383879125118255615234375">
        <ele>464.20001220703125</ele>
        <time>2017-08-04T06:58:40.000Z</time>
        <extensions>
          <ns3:TrackPointExtension>
            <ns3:atemp>32.0</ns3:atemp>
          </ns3:TrackPointExtension>
        </extensions>
      </trkpt>
      <trkpt lat="31.71244449913501739501953125" lon="35.03465138375759124755859375">
        <ele>462.79998779296875</ele>
        <time>2017-08-04T06:58:42.000Z</time>
        <extensions>
          <ns3:TrackPointExtension>
            <ns3:atemp>32.0</ns3:atemp>
          </ns3:TrackPointExtension>
        </extensions>
      </trkpt>
      <trkpt lat="31.71244852244853973388671875" lon="35.0345461070537567138671875">
        <ele>462.20001220703125</ele>
        <time>2017-08-04T06:58:45.000Z</time>
        <extensions>
          <ns3:TrackPointExtension>
            <ns3:atemp>32.0</ns3:atemp>
          </ns3:TrackPointExtension>
        </extensions>
      </trkpt>
      <trkpt lat="31.712435781955718994140625" lon="35.03448785282671451568603515625">
        <ele>461.399993896484375</ele>
        <time>2017-08-04T06:58:47.000Z</time>
        <extensions>
          <ns3:TrackPointExtension>
            <ns3:atemp>32.0</ns3:atemp>
          </ns3:TrackPointExtension>
        </extensions>
      </trkpt>
      <trkpt lat="31.71243435703217983245849609375" lon="35.0344614498317241668701171875">
        <ele>461</ele>
        <time>2017-08-04T06:58:48.000Z</time>
        <extensions>
          <ns3:TrackPointExtension>
            <ns3:atemp>32.0</ns3:atemp>
          </ns3:TrackPointExtension>
        </extensions>
      </trkpt>
      <trkpt lat="31.712442822754383087158203125" lon="35.0343927182257175445556640625">
        <ele>460</ele>
        <time>2017-08-04T06:58:50.000Z</time>
        <extensions>
          <ns3:TrackPointExtension>
            <ns3:atemp>32.0</ns3:atemp>
          </ns3:TrackPointExtension>
        </extensions>
      </trkpt>
      <trkpt lat="31.71244860626757144927978515625" lon="35.03429607488214969635009765625">
        <ele>458.600006103515625</ele>
        <time>2017-08-04T06:58:52.000Z</time>
        <extensions>
          <ns3:TrackPointExtension>
            <ns3:atemp>32.0</ns3:atemp>
          </ns3:TrackPointExtension>
        </extensions>
      </trkpt>
      <trkpt lat="31.7124349437654018402099609375" lon="35.03424704074859619140625">
        <ele>457.600006103515625</ele>
        <time>2017-08-04T06:58:53.000Z</time>
        <extensions>
          <ns3:TrackPointExtension>
            <ns3:atemp>32.0</ns3:atemp>
          </ns3:TrackPointExtension>
        </extensions>
      </trkpt>
      <trkpt lat="31.7124258913099765777587890625" lon="35.0341855175793170928955078125">
        <ele>457</ele>
        <time>2017-08-04T06:58:54.000Z</time>
        <extensions>
          <ns3:TrackPointExtension>
            <ns3:atemp>32.0</ns3:atemp>
          </ns3:TrackPointExtension>
        </extensions>
      </trkpt>
      <trkpt lat="31.712418682873249053955078125" lon="35.03412223421037197113037109375">
        <ele>456.600006103515625</ele>
        <time>2017-08-04T06:58:55.000Z</time>
        <extensions>
          <ns3:TrackPointExtension>
            <ns3:atemp>32.0</ns3:atemp>
          </ns3:TrackPointExtension>
        </extensions>
      </trkpt>
      <trkpt lat="31.71240451745688915252685546875" lon="35.03398887813091278076171875">
        <ele>455.20001220703125</ele>
        <time>2017-08-04T06:58:57.000Z</time>
        <extensions>
          <ns3:TrackPointExtension>
            <ns3:atemp>32.0</ns3:atemp>
          </ns3:TrackPointExtension>
        </extensions>
      </trkpt>
      <trkpt lat="31.71240300871431827545166015625" lon="35.03393255174160003662109375">
        <ele>455</ele>
        <time>2017-08-04T06:58:58.000Z</time>
        <extensions>
          <ns3:TrackPointExtension>
            <ns3:atemp>32.0</ns3:atemp>
          </ns3:TrackPointExtension>
        </extensions>
      </trkpt>
      <trkpt lat="31.7124017514288425445556640625" lon="35.03387412987649440765380859375">
        <ele>454.399993896484375</ele>
        <time>2017-08-04T06:58:59.000Z</time>
        <extensions>
          <ns3:TrackPointExtension>
            <ns3:atemp>32.0</ns3:atemp>
          </ns3:TrackPointExtension>
        </extensions>
      </trkpt>
      <trkpt lat="31.7123967222869396209716796875" lon="35.03381512127816677093505859375">
        <ele>454.20001220703125</ele>
        <time>2017-08-04T06:59:00.000Z</time>
        <extensions>
          <ns3:TrackPointExtension>
            <ns3:atemp>32.0</ns3:atemp>
          </ns3:TrackPointExtension>
        </extensions>
      </trkpt>
      <trkpt lat="31.712383814156055450439453125" lon="35.033708922564983367919921875">
        <ele>453.79998779296875</ele>
        <time>2017-08-04T06:59:02.000Z</time>
        <extensions>
          <ns3:TrackPointExtension>
            <ns3:atemp>32.0</ns3:atemp>
          </ns3:TrackPointExtension>
        </extensions>
      </trkpt>
      <trkpt lat="31.712368391454219818115234375" lon="35.0336048193275928497314453125">
        <ele>453.79998779296875</ele>
        <time>2017-08-04T06:59:04.000Z</time>
        <extensions>
          <ns3:TrackPointExtension>
            <ns3:atemp>32.0</ns3:atemp>
          </ns3:TrackPointExtension>
        </extensions>
      </trkpt>
      <trkpt lat="31.71236713416874408721923828125" lon="35.033545978367328643798828125">
        <ele>453.20001220703125</ele>
        <time>2017-08-04T06:59:05.000Z</time>
        <extensions>
          <ns3:TrackPointExtension>
            <ns3:atemp>32.0</ns3:atemp>
          </ns3:TrackPointExtension>
        </extensions>
      </trkpt>
      <trkpt lat="31.71236948110163211822509765625" lon="35.0334824435412883758544921875">
        <ele>451.20001220703125</ele>
        <time>2017-08-04T06:59:06.000Z</time>
        <extensions>
          <ns3:TrackPointExtension>
            <ns3:atemp>32.0</ns3:atemp>
          </ns3:TrackPointExtension>
        </extensions>
      </trkpt>
      <trkpt lat="31.7123755998909473419189453125" lon="35.03342050127685070037841796875">
        <ele>450.600006103515625</ele>
        <time>2017-08-04T06:59:07.000Z</time>
        <extensions>
          <ns3:TrackPointExtension>
            <ns3:atemp>32.0</ns3:atemp>
          </ns3:TrackPointExtension>
        </extensions>
      </trkpt>
      <trkpt lat="31.712392866611480712890625" lon="35.03334783017635345458984375">
        <ele>449.600006103515625</ele>
        <time>2017-08-04T06:59:08.000Z</time>
        <extensions>
          <ns3:TrackPointExtension>
            <ns3:atemp>32.0</ns3:atemp>
          </ns3:TrackPointExtension>
        </extensions>
      </trkpt>
      <trkpt lat="31.71238775365054607391357421875" lon="35.0332755781710147857666015625">
        <ele>449.600006103515625</ele>
        <time>2017-08-04T06:59:09.000Z</time>
        <extensions>
          <ns3:TrackPointExtension>
            <ns3:atemp>32.0</ns3:atemp>
          </ns3:TrackPointExtension>
        </extensions>
      </trkpt>
      <trkpt lat="31.71239345334470272064208984375" lon="35.0331263802945613861083984375">
        <ele>448.20001220703125</ele>
        <time>2017-08-04T06:59:11.000Z</time>
        <extensions>
          <ns3:TrackPointExtension>
            <ns3:atemp>32.0</ns3:atemp>
          </ns3:TrackPointExtension>
        </extensions>
      </trkpt>
      <trkpt lat="31.71240200288593769073486328125" lon="35.0330496020615100860595703125">
        <ele>448</ele>
        <time>2017-08-04T06:59:12.000Z</time>
        <extensions>
          <ns3:TrackPointExtension>
            <ns3:atemp>32.0</ns3:atemp>
          </ns3:TrackPointExtension>
        </extensions>
      </trkpt>
      <trkpt lat="31.7124116420745849609375" lon="35.032973997294902801513671875">
        <ele>447.600006103515625</ele>
        <time>2017-08-04T06:59:13.000Z</time>
        <extensions>
          <ns3:TrackPointExtension>
            <ns3:atemp>32.0</ns3:atemp>
          </ns3:TrackPointExtension>
        </extensions>
      </trkpt>
      <trkpt lat="31.71243016608059406280517578125" lon="35.032905600965023040771484375">
        <ele>447.600006103515625</ele>
        <time>2017-08-04T06:59:14.000Z</time>
        <extensions>
          <ns3:TrackPointExtension>
            <ns3:atemp>32.0</ns3:atemp>
          </ns3:TrackPointExtension>
        </extensions>
      </trkpt>
      <trkpt lat="31.7124587483704090118408203125" lon="35.03283879719674587249755859375">
        <ele>447.20001220703125</ele>
        <time>2017-08-04T06:59:15.000Z</time>
        <extensions>
          <ns3:TrackPointExtension>
            <ns3:atemp>32.0</ns3:atemp>
          </ns3:TrackPointExtension>
        </extensions>
      </trkpt>
      <trkpt lat="31.7124899290502071380615234375" lon="35.0327676348388195037841796875">
        <ele>447</ele>
        <time>2017-08-04T06:59:16.000Z</time>
        <extensions>
          <ns3:TrackPointExtension>
            <ns3:atemp>32.0</ns3:atemp>
          </ns3:TrackPointExtension>
        </extensions>
      </trkpt>
      <trkpt lat="31.71253158710896968841552734375" lon="35.03263193182647228240966796875">
        <ele>445.20001220703125</ele>
        <time>2017-08-04T06:59:18.000Z</time>
        <extensions>
          <ns3:TrackPointExtension>
            <ns3:atemp>32.0</ns3:atemp>
          </ns3:TrackPointExtension>
        </extensions>
      </trkpt>
      <trkpt lat="31.71257316134870052337646484375" lon="35.03250838257372379302978515625">
        <ele>445</ele>
        <time>2017-08-04T06:59:20.000Z</time>
        <extensions>
          <ns3:TrackPointExtension>
            <ns3:atemp>32.0</ns3:atemp>
          </ns3:TrackPointExtension>
        </extensions>
      </trkpt>
      <trkpt lat="31.71260484494268894195556640625" lon="35.03245540894567966461181640625">
        <ele>445.79998779296875</ele>
        <time>2017-08-04T06:59:21.000Z</time>
        <extensions>
          <ns3:TrackPointExtension>
            <ns3:atemp>32.0</ns3:atemp>
          </ns3:TrackPointExtension>
        </extensions>
      </trkpt>
      <trkpt lat="31.7126820422708988189697265625" lon="35.03237158991396427154541015625">
        <ele>446.399993896484375</ele>
        <time>2017-08-04T06:59:23.000Z</time>
        <extensions>
          <ns3:TrackPointExtension>
            <ns3:atemp>32.0</ns3:atemp>
          </ns3:TrackPointExtension>
        </extensions>
      </trkpt>
      <trkpt lat="31.7127574793994426727294921875" lon="35.03229439258575439453125">
        <ele>446.79998779296875</ele>
        <time>2017-08-04T06:59:25.000Z</time>
        <extensions>
          <ns3:TrackPointExtension>
            <ns3:atemp>32.0</ns3:atemp>
          </ns3:TrackPointExtension>
        </extensions>
      </trkpt>
      <trkpt lat="31.71285965479910373687744140625" lon="35.03216640092432498931884765625">
        <ele>447.399993896484375</ele>
        <time>2017-08-04T06:59:28.000Z</time>
        <extensions>
          <ns3:TrackPointExtension>
            <ns3:atemp>32.0</ns3:atemp>
          </ns3:TrackPointExtension>
        </extensions>
      </trkpt>
      <trkpt lat="31.71291925013065338134765625" lon="35.03208895213901996612548828125">
        <ele>448</ele>
        <time>2017-08-04T06:59:30.000Z</time>
        <extensions>
          <ns3:TrackPointExtension>
            <ns3:atemp>32.0</ns3:atemp>
          </ns3:TrackPointExtension>
        </extensions>
      </trkpt>
      <trkpt lat="31.71297700144350528717041015625" lon="35.03203078173100948333740234375">
        <ele>448.600006103515625</ele>
        <time>2017-08-04T06:59:32.000Z</time>
        <extensions>
          <ns3:TrackPointExtension>
            <ns3:atemp>32.0</ns3:atemp>
          </ns3:TrackPointExtension>
        </extensions>
      </trkpt>
      <trkpt lat="31.713128127157688140869140625" lon="35.03185995854437351226806640625">
        <ele>448.600006103515625</ele>
        <time>2017-08-04T06:59:37.000Z</time>
        <extensions>
          <ns3:TrackPointExtension>
            <ns3:atemp>31.0</ns3:atemp>
          </ns3:TrackPointExtension>
        </extensions>
      </trkpt>
      <trkpt lat="31.7131577990949153900146484375" lon="35.03181519918143749237060546875">
        <ele>448.600006103515625</ele>
        <time>2017-08-04T06:59:38.000Z</time>
        <extensions>
          <ns3:TrackPointExtension>
            <ns3:atemp>31.0</ns3:atemp>
          </ns3:TrackPointExtension>
        </extensions>
      </trkpt>
      <trkpt lat="31.7132315598428249359130859375" lon="35.0316783227026462554931640625">
        <ele>449.20001220703125</ele>
        <time>2017-08-04T06:59:41.000Z</time>
        <extensions>
          <ns3:TrackPointExtension>
            <ns3:atemp>31.0</ns3:atemp>
          </ns3:TrackPointExtension>
        </extensions>
      </trkpt>
      <trkpt lat="31.7132563702762126922607421875" lon="35.03163230605423450469970703125">
        <ele>449.600006103515625</ele>
        <time>2017-08-04T06:59:42.000Z</time>
        <extensions>
          <ns3:TrackPointExtension>
            <ns3:atemp>31.0</ns3:atemp>
          </ns3:TrackPointExtension>
        </extensions>
      </trkpt>
      <trkpt lat="31.7132820188999176025390625" lon="35.03158637322485446929931640625">
        <ele>449.79998779296875</ele>
        <time>2017-08-04T06:59:43.000Z</time>
        <extensions>
          <ns3:TrackPointExtension>
            <ns3:atemp>31.0</ns3:atemp>
          </ns3:TrackPointExtension>
        </extensions>
      </trkpt>
      <trkpt lat="31.71330817043781280517578125" lon="35.03154404461383819580078125">
        <ele>450.20001220703125</ele>
        <time>2017-08-04T06:59:44.000Z</time>
        <extensions>
          <ns3:TrackPointExtension>
            <ns3:atemp>31.0</ns3:atemp>
          </ns3:TrackPointExtension>
        </extensions>
      </trkpt>
      <trkpt lat="31.713374555110931396484375" lon="35.031370706856250762939453125">
        <ele>450.79998779296875</ele>
        <time>2017-08-04T06:59:49.000Z</time>
        <extensions>
          <ns3:TrackPointExtension>
            <ns3:atemp>31.0</ns3:atemp>
          </ns3:TrackPointExtension>
        </extensions>
      </trkpt>
      <trkpt lat="31.71337447129189968109130859375" lon="35.03135721199214458465576171875">
        <ele>451.79998779296875</ele>
        <time>2017-08-04T06:59:53.000Z</time>
        <extensions>
          <ns3:TrackPointExtension>
            <ns3:atemp>31.0</ns3:atemp>
          </ns3:TrackPointExtension>
        </extensions>
      </trkpt>
      <trkpt lat="31.7133753933012485504150390625" lon="35.03135972656309604644775390625">
        <ele>451.79998779296875</ele>
        <time>2017-08-04T06:59:55.000Z</time>
        <extensions>
          <ns3:TrackPointExtension>
            <ns3:atemp>31.0</ns3:atemp>
          </ns3:TrackPointExtension>
        </extensions>
      </trkpt>
      <trkpt lat="31.7133753933012485504150390625" lon="35.03135972656309604644775390625">
        <ele>451.79998779296875</ele>
        <time>2017-08-04T07:00:02.000Z</time>
        <extensions>
          <ns3:TrackPointExtension>
            <ns3:atemp>31.0</ns3:atemp>
          </ns3:TrackPointExtension>
        </extensions>
      </trkpt>
      <trkpt lat="31.7133753933012485504150390625" lon="35.03135972656309604644775390625">
        <ele>452</ele>
        <time>2017-08-04T07:00:14.000Z</time>
        <extensions>
          <ns3:TrackPointExtension>
            <ns3:atemp>31.0</ns3:atemp>
          </ns3:TrackPointExtension>
        </extensions>
      </trkpt>
      <trkpt lat="31.7133753933012485504150390625" lon="35.03135972656309604644775390625">
        <ele>451.79998779296875</ele>
        <time>2017-08-04T07:00:27.000Z</time>
        <extensions>
          <ns3:TrackPointExtension>
            <ns3:atemp>31.0</ns3:atemp>
          </ns3:TrackPointExtension>
        </extensions>
      </trkpt>
      <trkpt lat="31.71337916515767574310302734375" lon="35.03134463913738727569580078125">
        <ele>451.79998779296875</ele>
        <time>2017-08-04T07:00:35.000Z</time>
        <extensions>
          <ns3:TrackPointExtension>
            <ns3:atemp>31.0</ns3:atemp>
          </ns3:TrackPointExtension>
        </extensions>
      </trkpt>
      <trkpt lat="31.7133810929954051971435546875" lon="35.03132569603621959686279296875">
        <ele>451.79998779296875</ele>
        <time>2017-08-04T07:00:36.000Z</time>
        <extensions>
          <ns3:TrackPointExtension>
            <ns3:atemp>31.0</ns3:atemp>
          </ns3:TrackPointExtension>
        </extensions>
      </trkpt>
      <trkpt lat="31.7134109325706958770751953125" lon="35.031195692718029022216796875">
        <ele>450.600006103515625</ele>
        <time>2017-08-04T07:00:40.000Z</time>
        <extensions>
          <ns3:TrackPointExtension>
            <ns3:atemp>31.0</ns3:atemp>
          </ns3:TrackPointExtension>
        </extensions>
      </trkpt>
      <trkpt lat="31.713433898985385894775390625" lon="35.03114649094641208648681640625">
        <ele>450.20001220703125</ele>
        <time>2017-08-04T07:00:43.000Z</time>
        <extensions>
          <ns3:TrackPointExtension>
            <ns3:atemp>31.0</ns3:atemp>
          </ns3:TrackPointExtension>
        </extensions>
      </trkpt>
      <trkpt lat="31.7134340666234493255615234375" lon="35.03114749677479267120361328125">
        <ele>450.399993896484375</ele>
        <time>2017-08-04T07:00:44.000Z</time>
        <extensions>
          <ns3:TrackPointExtension>
            <ns3:atemp>31.0</ns3:atemp>
          </ns3:TrackPointExtension>
        </extensions>
      </trkpt>
      <trkpt lat="31.71343289315700531005859375" lon="35.03113995306193828582763671875">
        <ele>450.399993896484375</ele>
        <time>2017-08-04T07:00:52.000Z</time>
        <extensions>
          <ns3:TrackPointExtension>
            <ns3:atemp>31.0</ns3:atemp>
          </ns3:TrackPointExtension>
        </extensions>
      </trkpt>
      <trkpt lat="31.71343289315700531005859375" lon="35.03113995306193828582763671875">
        <ele>450.20001220703125</ele>
        <time>2017-08-04T07:01:04.000Z</time>
        <extensions>
          <ns3:TrackPointExtension>
            <ns3:atemp>31.0</ns3:atemp>
          </ns3:TrackPointExtension>
        </extensions>
      </trkpt>
      <trkpt lat="31.71343289315700531005859375" lon="35.03113995306193828582763671875">
        <ele>450.399993896484375</ele>
        <time>2017-08-04T07:01:15.000Z</time>
        <extensions>
          <ns3:TrackPointExtension>
            <ns3:atemp>31.0</ns3:atemp>
          </ns3:TrackPointExtension>
        </extensions>
      </trkpt>
      <trkpt lat="31.71342744491994380950927734375" lon="35.03114129416644573211669921875">
        <ele>450.20001220703125</ele>
        <time>2017-08-04T07:01:33.000Z</time>
        <extensions>
          <ns3:TrackPointExtension>
            <ns3:atemp>31.0</ns3:atemp>
          </ns3:TrackPointExtension>
        </extensions>
      </trkpt>
      <trkpt lat="31.71342744491994380950927734375" lon="35.03114129416644573211669921875">
        <ele>450.20001220703125</ele>
        <time>2017-08-04T07:01:45.000Z</time>
        <extensions>
          <ns3:TrackPointExtension>
            <ns3:atemp>31.0</ns3:atemp>
          </ns3:TrackPointExtension>
        </extensions>
      </trkpt>
      <trkpt lat="31.71342744491994380950927734375" lon="35.03114129416644573211669921875">
        <ele>450.600006103515625</ele>
        <time>2017-08-04T07:02:02.000Z</time>
        <extensions>
          <ns3:TrackPointExtension>
            <ns3:atemp>31.0</ns3:atemp>
          </ns3:TrackPointExtension>
        </extensions>
      </trkpt>
      <trkpt lat="31.71342643909156322479248046875" lon="35.03114246763288974761962890625">
        <ele>450.399993896484375</ele>
        <time>2017-08-04T07:02:17.000Z</time>
        <extensions>
          <ns3:TrackPointExtension>
            <ns3:atemp>31.0</ns3:atemp>
          </ns3:TrackPointExtension>
        </extensions>
      </trkpt>
      <trkpt lat="31.7134313844144344329833984375" lon="35.03113576211035251617431640625">
        <ele>450.399993896484375</ele>
        <time>2017-08-04T07:02:29.000Z</time>
        <extensions>
          <ns3:TrackPointExtension>
            <ns3:atemp>31.0</ns3:atemp>
          </ns3:TrackPointExtension>
        </extensions>
      </trkpt>
      <trkpt lat="31.7134726233780384063720703125" lon="35.0310416333377361297607421875">
        <ele>449.79998779296875</ele>
        <time>2017-08-04T07:02:33.000Z</time>
        <extensions>
          <ns3:TrackPointExtension>
            <ns3:atemp>31.0</ns3:atemp>
          </ns3:TrackPointExtension>
        </extensions>
      </trkpt>
      <trkpt lat="31.7134880460798740386962890625" lon="35.03098078072071075439453125">
        <ele>449.399993896484375</ele>
        <time>2017-08-04T07:02:35.000Z</time>
        <extensions>
          <ns3:TrackPointExtension>
            <ns3:atemp>31.0</ns3:atemp>
          </ns3:TrackPointExtension>
        </extensions>
      </trkpt>
      <trkpt lat="31.71352853067219257354736328125" lon="35.03087961114943027496337890625">
        <ele>448.600006103515625</ele>
        <time>2017-08-04T07:02:38.000Z</time>
        <extensions>
          <ns3:TrackPointExtension>
            <ns3:atemp>31.0</ns3:atemp>
          </ns3:TrackPointExtension>
        </extensions>
      </trkpt>
      <trkpt lat="31.7135433666408061981201171875" lon="35.0308364443480968475341796875">
        <ele>448.399993896484375</ele>
        <time>2017-08-04T07:02:39.000Z</time>
        <extensions>
          <ns3:TrackPointExtension>
            <ns3:atemp>31.0</ns3:atemp>
          </ns3:TrackPointExtension>
        </extensions>
      </trkpt>
      <trkpt lat="31.7135795764625072479248046875" lon="35.03073611296713352203369140625">
        <ele>447.20001220703125</ele>
        <time>2017-08-04T07:02:41.000Z</time>
        <extensions>
          <ns3:TrackPointExtension>
            <ns3:atemp>31.0</ns3:atemp>
          </ns3:TrackPointExtension>
        </extensions>
      </trkpt>
      <trkpt lat="31.71361134387552738189697265625" lon="35.03060099668800830841064453125">
        <ele>445.79998779296875</ele>
        <time>2017-08-04T07:02:43.000Z</time>
        <extensions>
          <ns3:TrackPointExtension>
            <ns3:atemp>31.0</ns3:atemp>
          </ns3:TrackPointExtension>
        </extensions>
      </trkpt>
      <trkpt lat="31.7136459611356258392333984375" lon="35.03045397810637950897216796875">
        <ele>444.20001220703125</ele>
        <time>2017-08-04T07:02:45.000Z</time>
        <extensions>
          <ns3:TrackPointExtension>
            <ns3:atemp>31.0</ns3:atemp>
          </ns3:TrackPointExtension>
        </extensions>
      </trkpt>
      <trkpt lat="31.71367621980607509613037109375" lon="35.03020671196281909942626953125">
        <ele>442.600006103515625</ele>
        <time>2017-08-04T07:02:48.000Z</time>
        <extensions>
          <ns3:TrackPointExtension>
            <ns3:atemp>31.0</ns3:atemp>
          </ns3:TrackPointExtension>
        </extensions>
      </trkpt>
      <trkpt lat="31.713696755468845367431640625" lon="35.03003890626132488250732421875">
        <ele>440.79998779296875</ele>
        <time>2017-08-04T07:02:50.000Z</time>
        <extensions>
          <ns3:TrackPointExtension>
            <ns3:atemp>31.0</ns3:atemp>
          </ns3:TrackPointExtension>
        </extensions>
      </trkpt>
      <trkpt lat="31.7137301154434680938720703125" lon="35.02977018244564533233642578125">
        <ele>440.600006103515625</ele>
        <time>2017-08-04T07:02:53.000Z</time>
        <extensions>
          <ns3:TrackPointExtension>
            <ns3:atemp>31.0</ns3:atemp>
          </ns3:TrackPointExtension>
        </extensions>
      </trkpt>
      <trkpt lat="31.71374268829822540283203125" lon="35.0295759737491607666015625">
        <ele>439.399993896484375</ele>
        <time>2017-08-04T07:02:55.000Z</time>
        <extensions>
          <ns3:TrackPointExtension>
            <ns3:atemp>31.0</ns3:atemp>
          </ns3:TrackPointExtension>
        </extensions>
      </trkpt>
      <trkpt lat="31.7137478850781917572021484375" lon="35.029373802244663238525390625">
        <ele>437.399993896484375</ele>
        <time>2017-08-04T07:02:57.000Z</time>
        <extensions>
          <ns3:TrackPointExtension>
            <ns3:atemp>31.0</ns3:atemp>
          </ns3:TrackPointExtension>
        </extensions>
      </trkpt>
      <trkpt lat="31.71374629251658916473388671875" lon="35.02927028574049472808837890625">
        <ele>436.20001220703125</ele>
        <time>2017-08-04T07:02:58.000Z</time>
        <extensions>
          <ns3:TrackPointExtension>
            <ns3:atemp>31.0</ns3:atemp>
          </ns3:TrackPointExtension>
        </extensions>
      </trkpt>
      <trkpt lat="31.713741682469844818115234375" lon="35.02916534431278705596923828125">
        <ele>435.20001220703125</ele>
        <time>2017-08-04T07:02:59.000Z</time>
        <extensions>
          <ns3:TrackPointExtension>
            <ns3:atemp>31.0</ns3:atemp>
          </ns3:TrackPointExtension>
        </extensions>
      </trkpt>
      <trkpt lat="31.71371997334063053131103515625" lon="35.0289832055568695068359375">
        <ele>434.20001220703125</ele>
        <time>2017-08-04T07:03:01.000Z</time>
        <extensions>
          <ns3:TrackPointExtension>
            <ns3:atemp>31.0</ns3:atemp>
          </ns3:TrackPointExtension>
        </extensions>
      </trkpt>
      <trkpt lat="31.71369868330657482147216796875" lon="35.0289049185812473297119140625">
        <ele>433.399993896484375</ele>
        <time>2017-08-04T07:03:02.000Z</time>
        <extensions>
          <ns3:TrackPointExtension>
            <ns3:atemp>31.0</ns3:atemp>
          </ns3:TrackPointExtension>
        </extensions>
      </trkpt>
      <trkpt lat="31.71354345045983791351318359375" lon="35.0285917706787586212158203125">
        <ele>431.600006103515625</ele>
        <time>2017-08-04T07:03:06.000Z</time>
        <extensions>
          <ns3:TrackPointExtension>
            <ns3:atemp>31.0</ns3:atemp>
          </ns3:TrackPointExtension>
        </extensions>
      </trkpt>
      <trkpt lat="31.71344571746885776519775390625" lon="35.02843528054654598236083984375">
        <ele>429.79998779296875</ele>
        <time>2017-08-04T07:03:08.000Z</time>
        <extensions>
          <ns3:TrackPointExtension>
            <ns3:atemp>31.0</ns3:atemp>
          </ns3:TrackPointExtension>
        </extensions>
      </trkpt>
      <trkpt lat="31.71330003999173641204833984375" lon="35.02819740213453769683837890625">
        <ele>428</ele>
        <time>2017-08-04T07:03:11.000Z</time>
        <extensions>
          <ns3:TrackPointExtension>
            <ns3:atemp>31.0</ns3:atemp>
          </ns3:TrackPointExtension>
        </extensions>
      </trkpt>
      <trkpt lat="31.71319141052663326263427734375" lon="35.0280497968196868896484375">
        <ele>426.600006103515625</ele>
        <time>2017-08-04T07:03:13.000Z</time>
        <extensions>
          <ns3:TrackPointExtension>
            <ns3:atemp>31.0</ns3:atemp>
          </ns3:TrackPointExtension>
        </extensions>
      </trkpt>
      <trkpt lat="31.71313290484249591827392578125" lon="35.027981735765933990478515625">
        <ele>426</ele>
        <time>2017-08-04T07:03:14.000Z</time>
        <extensions>
          <ns3:TrackPointExtension>
            <ns3:atemp>31.0</ns3:atemp>
          </ns3:TrackPointExtension>
        </extensions>
      </trkpt>
      <trkpt lat="31.7130226828157901763916015625" lon="35.02784184180200099945068359375">
        <ele>425.600006103515625</ele>
        <time>2017-08-04T07:03:16.000Z</time>
        <extensions>
          <ns3:TrackPointExtension>
            <ns3:atemp>31.0</ns3:atemp>
          </ns3:TrackPointExtension>
        </extensions>
      </trkpt>
      <trkpt lat="31.71293257735669612884521484375" lon="35.02767319791018962860107421875">
        <ele>425.399993896484375</ele>
        <time>2017-08-04T07:03:18.000Z</time>
        <extensions>
          <ns3:TrackPointExtension>
            <ns3:atemp>31.0</ns3:atemp>
          </ns3:TrackPointExtension>
        </extensions>
      </trkpt>
      <trkpt lat="31.71285361982882022857666015625" lon="35.02748393453657627105712890625">
        <ele>424.20001220703125</ele>
        <time>2017-08-04T07:03:20.000Z</time>
        <extensions>
          <ns3:TrackPointExtension>
            <ns3:atemp>31.0</ns3:atemp>
          </ns3:TrackPointExtension>
        </extensions>
      </trkpt>
      <trkpt lat="31.71277575194835662841796875" lon="35.02729006111621856689453125">
        <ele>422.79998779296875</ele>
        <time>2017-08-04T07:03:22.000Z</time>
        <extensions>
          <ns3:TrackPointExtension>
            <ns3:atemp>31.0</ns3:atemp>
          </ns3:TrackPointExtension>
        </extensions>
      </trkpt>
      <trkpt lat="31.71273685991764068603515625" lon="35.0271990336477756500244140625">
        <ele>422.600006103515625</ele>
        <time>2017-08-04T07:03:23.000Z</time>
        <extensions>
          <ns3:TrackPointExtension>
            <ns3:atemp>31.0</ns3:atemp>
          </ns3:TrackPointExtension>
        </extensions>
      </trkpt>
      <trkpt lat="31.71260300092399120330810546875" lon="35.02693089656531810760498046875">
        <ele>420.79998779296875</ele>
        <time>2017-08-04T07:03:26.000Z</time>
        <extensions>
          <ns3:TrackPointExtension>
            <ns3:atemp>31.0</ns3:atemp>
          </ns3:TrackPointExtension>
        </extensions>
      </trkpt>
      <trkpt lat="31.7125605046749114990234375" lon="35.02683768980205059051513671875">
        <ele>419.399993896484375</ele>
        <time>2017-08-04T07:03:27.000Z</time>
        <extensions>
          <ns3:TrackPointExtension>
            <ns3:atemp>31.0</ns3:atemp>
          </ns3:TrackPointExtension>
        </extensions>
      </trkpt>
      <trkpt lat="31.7125211097300052642822265625" lon="35.02674347721040248870849609375">
        <ele>419</ele>
        <time>2017-08-04T07:03:28.000Z</time>
        <extensions>
          <ns3:TrackPointExtension>
            <ns3:atemp>31.0</ns3:atemp>
          </ns3:TrackPointExtension>
        </extensions>
      </trkpt>
      <trkpt lat="31.712435781955718994140625" lon="35.02655672840774059295654296875">
        <ele>417.600006103515625</ele>
        <time>2017-08-04T07:03:30.000Z</time>
        <extensions>
          <ns3:TrackPointExtension>
            <ns3:atemp>31.0</ns3:atemp>
          </ns3:TrackPointExtension>
        </extensions>
      </trkpt>
      <trkpt lat="31.7123920284211635589599609375" lon="35.02646000124514102935791015625">
        <ele>416.600006103515625</ele>
        <time>2017-08-04T07:03:31.000Z</time>
        <extensions>
          <ns3:TrackPointExtension>
            <ns3:atemp>31.0</ns3:atemp>
          </ns3:TrackPointExtension>
        </extensions>
      </trkpt>
      <trkpt lat="31.7123472690582275390625" lon="35.02637006342411041259765625">
        <ele>416</ele>
        <time>2017-08-04T07:03:32.000Z</time>
        <extensions>
          <ns3:TrackPointExtension>
            <ns3:atemp>31.0</ns3:atemp>
          </ns3:TrackPointExtension>
        </extensions>
      </trkpt>
      <trkpt lat="31.71226118691265583038330078125" lon="35.02618591301143169403076171875">
        <ele>415.399993896484375</ele>
        <time>2017-08-04T07:03:34.000Z</time>
        <extensions>
          <ns3:TrackPointExtension>
            <ns3:atemp>31.0</ns3:atemp>
          </ns3:TrackPointExtension>
        </extensions>
      </trkpt>
      <trkpt lat="31.71220955438911914825439453125" lon="35.02609689719974994659423828125">
        <ele>415</ele>
        <time>2017-08-04T07:03:35.000Z</time>
        <extensions>
          <ns3:TrackPointExtension>
            <ns3:atemp>31.0</ns3:atemp>
          </ns3:TrackPointExtension>
        </extensions>
      </trkpt>
      <trkpt lat="31.71215171925723552703857421875" lon="35.02600922249257564544677734375">
        <ele>414</ele>
        <time>2017-08-04T07:03:36.000Z</time>
        <extensions>
          <ns3:TrackPointExtension>
            <ns3:atemp>31.0</ns3:atemp>
          </ns3:TrackPointExtension>
        </extensions>
      </trkpt>
      <trkpt lat="31.7120316065847873687744140625" lon="35.02583320252597332000732421875">
        <ele>411.79998779296875</ele>
        <time>2017-08-04T07:03:38.000Z</time>
        <extensions>
          <ns3:TrackPointExtension>
            <ns3:atemp>31.0</ns3:atemp>
          </ns3:TrackPointExtension>
        </extensions>
      </trkpt>
      <trkpt lat="31.71193093992769718170166015625" lon="35.0256621278822422027587890625">
        <ele>410</ele>
        <time>2017-08-04T07:03:40.000Z</time>
        <extensions>
          <ns3:TrackPointExtension>
            <ns3:atemp>31.0</ns3:atemp>
          </ns3:TrackPointExtension>
        </extensions>
      </trkpt>
      <trkpt lat="31.71189506538212299346923828125" lon="35.02557956613600254058837890625">
        <ele>409.79998779296875</ele>
        <time>2017-08-04T07:03:41.000Z</time>
        <extensions>
          <ns3:TrackPointExtension>
            <ns3:atemp>31.0</ns3:atemp>
          </ns3:TrackPointExtension>
        </extensions>
      </trkpt>
      <trkpt lat="31.71186271123588085174560546875" lon="35.02549432218074798583984375">
        <ele>409</ele>
        <time>2017-08-04T07:03:42.000Z</time>
        <extensions>
          <ns3:TrackPointExtension>
            <ns3:atemp>31.0</ns3:atemp>
          </ns3:TrackPointExtension>
        </extensions>
      </trkpt>
      <trkpt lat="31.7117451131343841552734375" lon="35.0252279452979564666748046875">
        <ele>407.79998779296875</ele>
        <time>2017-08-04T07:03:45.000Z</time>
        <extensions>
          <ns3:TrackPointExtension>
            <ns3:atemp>31.0</ns3:atemp>
          </ns3:TrackPointExtension>
        </extensions>
      </trkpt>
      <trkpt lat="31.711695492267608642578125" lon="35.0251411087810993194580078125">
        <ele>406.600006103515625</ele>
        <time>2017-08-04T07:03:46.000Z</time>
        <extensions>
          <ns3:TrackPointExtension>
            <ns3:atemp>31.0</ns3:atemp>
          </ns3:TrackPointExtension>
        </extensions>
      </trkpt>
      <trkpt lat="31.71159549616277217864990234375" lon="35.02497238107025623321533203125">
        <ele>405.20001220703125</ele>
        <time>2017-08-04T07:03:48.000Z</time>
        <extensions>
          <ns3:TrackPointExtension>
            <ns3:atemp>31.0</ns3:atemp>
          </ns3:TrackPointExtension>
        </extensions>
      </trkpt>
      <trkpt lat="31.71153833158314228057861328125" lon="35.0248919986188411712646484375">
        <ele>404.20001220703125</ele>
        <time>2017-08-04T07:03:49.000Z</time>
        <extensions>
          <ns3:TrackPointExtension>
            <ns3:atemp>31.0</ns3:atemp>
          </ns3:TrackPointExtension>
        </extensions>
      </trkpt>
      <trkpt lat="31.711493991315364837646484375" lon="35.0248158909380435943603515625">
        <ele>403.399993896484375</ele>
        <time>2017-08-04T07:03:50.000Z</time>
        <extensions>
          <ns3:TrackPointExtension>
            <ns3:atemp>31.0</ns3:atemp>
          </ns3:TrackPointExtension>
        </extensions>
      </trkpt>
      <trkpt lat="31.71140120364725589752197265625" lon="35.02465185709297657012939453125">
        <ele>401.79998779296875</ele>
        <time>2017-08-04T07:03:52.000Z</time>
        <extensions>
          <ns3:TrackPointExtension>
            <ns3:atemp>31.0</ns3:atemp>
          </ns3:TrackPointExtension>
        </extensions>
      </trkpt>
      <trkpt lat="31.7113117687404155731201171875" lon="35.02448170445859432220458984375">
        <ele>399.600006103515625</ele>
        <time>2017-08-04T07:03:54.000Z</time>
        <extensions>
          <ns3:TrackPointExtension>
            <ns3:atemp>31.0</ns3:atemp>
          </ns3:TrackPointExtension>
        </extensions>
      </trkpt>
      <trkpt lat="31.711227782070636749267578125" lon="35.02430601976811885833740234375">
        <ele>398.399993896484375</ele>
        <time>2017-08-04T07:03:56.000Z</time>
        <extensions>
          <ns3:TrackPointExtension>
            <ns3:atemp>31.0</ns3:atemp>
          </ns3:TrackPointExtension>
        </extensions>
      </trkpt>
      <trkpt lat="31.71118595637381076812744140625" lon="35.0242214463651180267333984375">
        <ele>397</ele>
        <time>2017-08-04T07:03:57.000Z</time>
        <extensions>
          <ns3:TrackPointExtension>
            <ns3:atemp>31.0</ns3:atemp>
          </ns3:TrackPointExtension>
        </extensions>
      </trkpt>
      <trkpt lat="31.71109911985695362091064453125" lon="35.02404534257948398590087890625">
        <ele>395.600006103515625</ele>
        <time>2017-08-04T07:03:59.000Z</time>
        <extensions>
          <ns3:TrackPointExtension>
            <ns3:atemp>31.0</ns3:atemp>
          </ns3:TrackPointExtension>
        </extensions>
      </trkpt>
      <trkpt lat="31.711031980812549591064453125" lon="35.02387317828834056854248046875">
        <ele>394.20001220703125</ele>
        <time>2017-08-04T07:04:01.000Z</time>
        <extensions>
          <ns3:TrackPointExtension>
            <ns3:atemp>31.0</ns3:atemp>
          </ns3:TrackPointExtension>
        </extensions>
      </trkpt>
      <trkpt lat="31.711010523140430450439453125" lon="35.0237879343330860137939453125">
        <ele>394</ele>
        <time>2017-08-04T07:04:02.000Z</time>
        <extensions>
          <ns3:TrackPointExtension>
            <ns3:atemp>31.0</ns3:atemp>
          </ns3:TrackPointExtension>
        </extensions>
      </trkpt>
      <trkpt lat="31.71097934246063232421875" lon="35.02360604703426361083984375">
        <ele>392.600006103515625</ele>
        <time>2017-08-04T07:04:04.000Z</time>
        <extensions>
          <ns3:TrackPointExtension>
            <ns3:atemp>31.0</ns3:atemp>
          </ns3:TrackPointExtension>
        </extensions>
      </trkpt>
      <trkpt lat="31.7109650932252407073974609375" lon="35.02351292409002780914306640625">
        <ele>390.79998779296875</ele>
        <time>2017-08-04T07:04:05.000Z</time>
        <extensions>
          <ns3:TrackPointExtension>
            <ns3:atemp>31.0</ns3:atemp>
          </ns3:TrackPointExtension>
        </extensions>
      </trkpt>
      <trkpt lat="31.710951514542102813720703125" lon="35.0234151072800159454345703125">
        <ele>389.20001220703125</ele>
        <time>2017-08-04T07:04:06.000Z</time>
        <extensions>
          <ns3:TrackPointExtension>
            <ns3:atemp>31.0</ns3:atemp>
          </ns3:TrackPointExtension>
        </extensions>
      </trkpt>
      <trkpt lat="31.71093600802123546600341796875" lon="35.02331410534679889678955078125">
        <ele>388</ele>
        <time>2017-08-04T07:04:07.000Z</time>
        <extensions>
          <ns3:TrackPointExtension>
            <ns3:atemp>31.0</ns3:atemp>
          </ns3:TrackPointExtension>
        </extensions>
      </trkpt>
      <trkpt lat="31.710917651653289794921875" lon="35.023212432861328125">
        <ele>386.79998779296875</ele>
        <time>2017-08-04T07:04:08.000Z</time>
        <extensions>
          <ns3:TrackPointExtension>
            <ns3:atemp>31.0</ns3:atemp>
          </ns3:TrackPointExtension>
        </extensions>
      </trkpt>
      <trkpt lat="31.71088672243058681488037109375" lon="35.0230436213314533233642578125">
        <ele>385.399993896484375</ele>
        <time>2017-08-04T07:04:10.000Z</time>
        <extensions>
          <ns3:TrackPointExtension>
            <ns3:atemp>31.0</ns3:atemp>
          </ns3:TrackPointExtension>
        </extensions>
      </trkpt>
      <trkpt lat="31.7108787596225738525390625" lon="35.02296742983162403106689453125">
        <ele>385.79998779296875</ele>
        <time>2017-08-04T07:04:11.000Z</time>
        <extensions>
          <ns3:TrackPointExtension>
            <ns3:atemp>31.0</ns3:atemp>
          </ns3:TrackPointExtension>
        </extensions>
      </trkpt>
      <trkpt lat="31.710894517600536346435546875" lon="35.02271513454616069793701171875">
        <ele>385.399993896484375</ele>
        <time>2017-08-04T07:04:14.000Z</time>
        <extensions>
          <ns3:TrackPointExtension>
            <ns3:atemp>31.0</ns3:atemp>
          </ns3:TrackPointExtension>
        </extensions>
      </trkpt>
      <trkpt lat="31.7109158076345920562744140625" lon="35.02262813039124011993408203125">
        <ele>384.600006103515625</ele>
        <time>2017-08-04T07:04:15.000Z</time>
        <extensions>
          <ns3:TrackPointExtension>
            <ns3:atemp>31.0</ns3:atemp>
          </ns3:TrackPointExtension>
        </extensions>
      </trkpt>
      <trkpt lat="31.71094723977148532867431640625" lon="35.0225427187979221343994140625">
        <ele>383.79998779296875</ele>
        <time>2017-08-04T07:04:16.000Z</time>
        <extensions>
          <ns3:TrackPointExtension>
            <ns3:atemp>31.0</ns3:atemp>
          </ns3:TrackPointExtension>
        </extensions>
      </trkpt>
      <trkpt lat="31.71097959391772747039794921875" lon="35.02246334217488765716552734375">
        <ele>382.79998779296875</ele>
        <time>2017-08-04T07:04:17.000Z</time>
        <extensions>
          <ns3:TrackPointExtension>
            <ns3:atemp>31.0</ns3:atemp>
          </ns3:TrackPointExtension>
        </extensions>
      </trkpt>
      <trkpt lat="31.7110123671591281890869140625" lon="35.02238321118056774139404296875">
        <ele>382.399993896484375</ele>
        <time>2017-08-04T07:04:18.000Z</time>
        <extensions>
          <ns3:TrackPointExtension>
            <ns3:atemp>31.0</ns3:atemp>
          </ns3:TrackPointExtension>
        </extensions>
      </trkpt>
      <trkpt lat="31.71109291724860668182373046875" lon="35.0222175009548664093017578125">
        <ele>382.20001220703125</ele>
        <time>2017-08-04T07:04:20.000Z</time>
        <extensions>
          <ns3:TrackPointExtension>
            <ns3:atemp>31.0</ns3:atemp>
          </ns3:TrackPointExtension>
        </extensions>
      </trkpt>
      <trkpt lat="31.71114991419017314910888671875" lon="35.02214633859694004058837890625">
        <ele>381</ele>
        <time>2017-08-04T07:04:21.000Z</time>
        <extensions>
          <ns3:TrackPointExtension>
            <ns3:atemp>31.0</ns3:atemp>
          </ns3:TrackPointExtension>
        </extensions>
      </trkpt>
      <trkpt lat="31.7112829349935054779052734375" lon="35.02202622592449188232421875">
        <ele>378.79998779296875</ele>
        <time>2017-08-04T07:04:23.000Z</time>
        <extensions>
          <ns3:TrackPointExtension>
            <ns3:atemp>31.0</ns3:atemp>
          </ns3:TrackPointExtension>
        </extensions>
      </trkpt>
      <trkpt lat="31.7114240862429141998291015625" lon="35.0219201110303401947021484375">
        <ele>376.79998779296875</ele>
        <time>2017-08-04T07:04:25.000Z</time>
        <extensions>
          <ns3:TrackPointExtension>
            <ns3:atemp>31.0</ns3:atemp>
          </ns3:TrackPointExtension>
        </extensions>
      </trkpt>
      <trkpt lat="31.711488626897335052490234375" lon="35.0218807160854339599609375">
        <ele>376.20001220703125</ele>
        <time>2017-08-04T07:04:26.000Z</time>
        <extensions>
          <ns3:TrackPointExtension>
            <ns3:atemp>31.0</ns3:atemp>
          </ns3:TrackPointExtension>
        </extensions>
      </trkpt>
      <trkpt lat="31.7115524969995021820068359375" lon="35.02184140495955944061279296875">
        <ele>375.600006103515625</ele>
        <time>2017-08-04T07:04:27.000Z</time>
        <extensions>
          <ns3:TrackPointExtension>
            <ns3:atemp>31.0</ns3:atemp>
          </ns3:TrackPointExtension>
        </extensions>
      </trkpt>
      <trkpt lat="31.7116198875010013580322265625" lon="35.02179547213017940521240234375">
        <ele>375.20001220703125</ele>
        <time>2017-08-04T07:04:28.000Z</time>
        <extensions>
          <ns3:TrackPointExtension>
            <ns3:atemp>31.0</ns3:atemp>
          </ns3:TrackPointExtension>
        </extensions>
      </trkpt>
      <trkpt lat="31.71168618835508823394775390625" lon="35.02173864282667636871337890625">
        <ele>374.600006103515625</ele>
        <time>2017-08-04T07:04:29.000Z</time>
        <extensions>
          <ns3:TrackPointExtension>
            <ns3:atemp>31.0</ns3:atemp>
          </ns3:TrackPointExtension>
        </extensions>
      </trkpt>
      <trkpt lat="31.7118170298635959625244140625" lon="35.02161744050681591033935546875">
        <ele>373.20001220703125</ele>
        <time>2017-08-04T07:04:31.000Z</time>
        <extensions>
          <ns3:TrackPointExtension>
            <ns3:atemp>31.0</ns3:atemp>
          </ns3:TrackPointExtension>
        </extensions>
      </trkpt>
      <trkpt lat="31.71188232488930225372314453125" lon="35.021554492413997650146484375">
        <ele>372.399993896484375</ele>
        <time>2017-08-04T07:04:32.000Z</time>
        <extensions>
          <ns3:TrackPointExtension>
            <ns3:atemp>31.0</ns3:atemp>
          </ns3:TrackPointExtension>
        </extensions>
      </trkpt>
      <trkpt lat="31.71193831600248813629150390625" lon="35.021480061113834381103515625">
        <ele>371.79998779296875</ele>
        <time>2017-08-04T07:04:33.000Z</time>
        <extensions>
          <ns3:TrackPointExtension>
            <ns3:atemp>31.0</ns3:atemp>
          </ns3:TrackPointExtension>
        </extensions>
      </trkpt>
      <trkpt lat="31.71202146448194980621337890625" lon="35.02130278386175632476806640625">
        <ele>370.20001220703125</ele>
        <time>2017-08-04T07:04:35.000Z</time>
        <extensions>
          <ns3:TrackPointExtension>
            <ns3:atemp>31.0</ns3:atemp>
          </ns3:TrackPointExtension>
        </extensions>
      </trkpt>
      <trkpt lat="31.71209002844989299774169921875" lon="35.021024756133556365966796875">
        <ele>369.20001220703125</ele>
        <time>2017-08-04T07:04:38.000Z</time>
        <extensions>
          <ns3:TrackPointExtension>
            <ns3:atemp>31.0</ns3:atemp>
          </ns3:TrackPointExtension>
        </extensions>
      </trkpt>
      <trkpt lat="31.71208902262151241302490234375" lon="35.02093062736093997955322265625">
        <ele>369.20001220703125</ele>
        <time>2017-08-04T07:04:39.000Z</time>
        <extensions>
          <ns3:TrackPointExtension>
            <ns3:atemp>31.0</ns3:atemp>
          </ns3:TrackPointExtension>
        </extensions>
      </trkpt>
      <trkpt lat="31.71206287108361721038818359375" lon="35.02074538730084896087646484375">
        <ele>367.79998779296875</ele>
        <time>2017-08-04T07:04:41.000Z</time>
        <extensions>
          <ns3:TrackPointExtension>
            <ns3:atemp>31.0</ns3:atemp>
          </ns3:TrackPointExtension>
        </extensions>
      </trkpt>
      <trkpt lat="31.71201534569263458251953125" lon="35.02055327408015727996826171875">
        <ele>366.600006103515625</ele>
        <time>2017-08-04T07:04:43.000Z</time>
        <extensions>
          <ns3:TrackPointExtension>
            <ns3:atemp>31.0</ns3:atemp>
          </ns3:TrackPointExtension>
        </extensions>
      </trkpt>
      <trkpt lat="31.7119457758963108062744140625" lon="35.02036727964878082275390625">
        <ele>365.20001220703125</ele>
        <time>2017-08-04T07:04:45.000Z</time>
        <extensions>
          <ns3:TrackPointExtension>
            <ns3:atemp>31.0</ns3:atemp>
          </ns3:TrackPointExtension>
        </extensions>
      </trkpt>
      <trkpt lat="31.71187989413738250732421875" lon="35.02017072401940822601318359375">
        <ele>364.20001220703125</ele>
        <time>2017-08-04T07:04:47.000Z</time>
        <extensions>
          <ns3:TrackPointExtension>
            <ns3:atemp>31.0</ns3:atemp>
          </ns3:TrackPointExtension>
        </extensions>
      </trkpt>
      <trkpt lat="31.71182616613805294036865234375" lon="35.01997743733227252960205078125">
        <ele>363.79998779296875</ele>
        <time>2017-08-04T07:04:49.000Z</time>
        <extensions>
          <ns3:TrackPointExtension>
            <ns3:atemp>31.0</ns3:atemp>
          </ns3:TrackPointExtension>
        </extensions>
      </trkpt>
      <trkpt lat="31.711811162531375885009765625" lon="35.01988179981708526611328125">
        <ele>363.600006103515625</ele>
        <time>2017-08-04T07:04:50.000Z</time>
        <extensions>
          <ns3:TrackPointExtension>
            <ns3:atemp>31.0</ns3:atemp>
          </ns3:TrackPointExtension>
        </extensions>
      </trkpt>
      <trkpt lat="31.711792051792144775390625" lon="35.01978750340640544891357421875">
        <ele>363.600006103515625</ele>
        <time>2017-08-04T07:04:51.000Z</time>
        <extensions>
          <ns3:TrackPointExtension>
            <ns3:atemp>31.0</ns3:atemp>
          </ns3:TrackPointExtension>
        </extensions>
      </trkpt>
      <trkpt lat="31.71170563437044620513916015625" lon="35.01952297054231166839599609375">
        <ele>363.600006103515625</ele>
        <time>2017-08-04T07:04:54.000Z</time>
        <extensions>
          <ns3:TrackPointExtension>
            <ns3:atemp>31.0</ns3:atemp>
          </ns3:TrackPointExtension>
        </extensions>
      </trkpt>
      <trkpt lat="31.7115246690809726715087890625" lon="35.019144527614116668701171875">
        <ele>363.79998779296875</ele>
        <time>2017-08-04T07:04:59.000Z</time>
        <extensions>
          <ns3:TrackPointExtension>
            <ns3:atemp>31.0</ns3:atemp>
          </ns3:TrackPointExtension>
        </extensions>
      </trkpt>
      <trkpt lat="31.71133917756378650665283203125" lon="35.0188825093209743499755859375">
        <ele>365.399993896484375</ele>
        <time>2017-08-04T07:05:04.000Z</time>
        <extensions>
          <ns3:TrackPointExtension>
            <ns3:atemp>31.0</ns3:atemp>
          </ns3:TrackPointExtension>
        </extensions>
      </trkpt>
      <trkpt lat="31.7112903110682964324951171875" lon="35.01882928423583507537841796875">
        <ele>366.79998779296875</ele>
        <time>2017-08-04T07:05:06.000Z</time>
        <extensions>
          <ns3:TrackPointExtension>
            <ns3:atemp>31.0</ns3:atemp>
          </ns3:TrackPointExtension>
        </extensions>
      </trkpt>
      <trkpt lat="31.71125468797981739044189453125" lon="35.01880195923149585723876953125">
        <ele>367.399993896484375</ele>
        <time>2017-08-04T07:05:08.000Z</time>
        <extensions>
          <ns3:TrackPointExtension>
            <ns3:atemp>31.0</ns3:atemp>
          </ns3:TrackPointExtension>
        </extensions>
      </trkpt>
      <trkpt lat="31.71123071573674678802490234375" lon="35.01880095340311527252197265625">
        <ele>367.79998779296875</ele>
        <time>2017-08-04T07:05:10.000Z</time>
        <extensions>
          <ns3:TrackPointExtension>
            <ns3:atemp>31.0</ns3:atemp>
          </ns3:TrackPointExtension>
        </extensions>
      </trkpt>
      <trkpt lat="31.7112199030816555023193359375" lon="35.01883305609226226806640625">
        <ele>368</ele>
        <time>2017-08-04T07:05:13.000Z</time>
        <extensions>
          <ns3:TrackPointExtension>
            <ns3:atemp>31.0</ns3:atemp>
          </ns3:TrackPointExtension>
        </extensions>
      </trkpt>
      <trkpt lat="31.7112703621387481689453125" lon="35.01885124482214450836181640625">
        <ele>367.600006103515625</ele>
        <time>2017-08-04T07:05:19.000Z</time>
        <extensions>
          <ns3:TrackPointExtension>
            <ns3:atemp>30.0</ns3:atemp>
          </ns3:TrackPointExtension>
        </extensions>
      </trkpt>
      <trkpt lat="31.71126977540552616119384765625" lon="35.0188449583947658538818359375">
        <ele>367.79998779296875</ele>
        <time>2017-08-04T07:05:25.000Z</time>
        <extensions>
          <ns3:TrackPointExtension>
            <ns3:atemp>30.0</ns3:atemp>
          </ns3:TrackPointExtension>
        </extensions>
      </trkpt>
      <trkpt lat="31.71126977540552616119384765625" lon="35.0188449583947658538818359375">
        <ele>367.79998779296875</ele>
        <time>2017-08-04T07:05:37.000Z</time>
        <extensions>
          <ns3:TrackPointExtension>
            <ns3:atemp>30.0</ns3:atemp>
          </ns3:TrackPointExtension>
        </extensions>
      </trkpt>
      <trkpt lat="31.71126977540552616119384765625" lon="35.0188449583947658538818359375">
        <ele>367.79998779296875</ele>
        <time>2017-08-04T07:05:50.000Z</time>
        <extensions>
          <ns3:TrackPointExtension>
            <ns3:atemp>30.0</ns3:atemp>
          </ns3:TrackPointExtension>
        </extensions>
      </trkpt>
      <trkpt lat="31.71126977540552616119384765625" lon="35.0188449583947658538818359375">
        <ele>367.79998779296875</ele>
        <time>2017-08-04T07:05:58.000Z</time>
        <extensions>
          <ns3:TrackPointExtension>
            <ns3:atemp>30.0</ns3:atemp>
          </ns3:TrackPointExtension>
        </extensions>
      </trkpt>
      <trkpt lat="31.711258627474308013916015625" lon="35.01881838776171207427978515625">
        <ele>368</ele>
        <time>2017-08-04T07:06:02.000Z</time>
        <extensions>
          <ns3:TrackPointExtension>
            <ns3:atemp>30.0</ns3:atemp>
          </ns3:TrackPointExtension>
        </extensions>
      </trkpt>
      <trkpt lat="31.71123038046061992645263671875" lon="35.01879139803349971771240234375">
        <ele>368</ele>
        <time>2017-08-04T07:06:04.000Z</time>
        <extensions>
          <ns3:TrackPointExtension>
            <ns3:atemp>30.0</ns3:atemp>
          </ns3:TrackPointExtension>
        </extensions>
      </trkpt>
      <trkpt lat="31.7111577093601226806640625" lon="35.01870104111731052398681640625">
        <ele>368.79998779296875</ele>
        <time>2017-08-04T07:06:10.000Z</time>
        <extensions>
          <ns3:TrackPointExtension>
            <ns3:atemp>30.0</ns3:atemp>
          </ns3:TrackPointExtension>
        </extensions>
      </trkpt>
      <trkpt lat="31.71114354394376277923583984375" lon="35.01867790706455707550048828125">
        <ele>368.79998779296875</ele>
        <time>2017-08-04T07:06:11.000Z</time>
        <extensions>
          <ns3:TrackPointExtension>
            <ns3:atemp>30.0</ns3:atemp>
          </ns3:TrackPointExtension>
        </extensions>
      </trkpt>
      <trkpt lat="31.71112895943224430084228515625" lon="35.0186518393456935882568359375">
        <ele>368.79998779296875</ele>
        <time>2017-08-04T07:06:12.000Z</time>
        <extensions>
          <ns3:TrackPointExtension>
            <ns3:atemp>30.0</ns3:atemp>
          </ns3:TrackPointExtension>
        </extensions>
      </trkpt>
      <trkpt lat="31.71111068688333034515380859375" lon="35.01861034892499446868896484375">
        <ele>368.600006103515625</ele>
        <time>2017-08-04T07:06:14.000Z</time>
        <extensions>
          <ns3:TrackPointExtension>
            <ns3:atemp>30.0</ns3:atemp>
          </ns3:TrackPointExtension>
        </extensions>
      </trkpt>
      <trkpt lat="31.71108704991638660430908203125" lon="35.018535666167736053466796875">
        <ele>370</ele>
        <time>2017-08-04T07:06:18.000Z</time>
        <extensions>
          <ns3:TrackPointExtension>
            <ns3:atemp>30.0</ns3:atemp>
          </ns3:TrackPointExtension>
        </extensions>
      </trkpt>
      <trkpt lat="31.7110799252986907958984375" lon="35.01848562620580196380615234375">
        <ele>370.399993896484375</ele>
        <time>2017-08-04T07:06:20.000Z</time>
        <extensions>
          <ns3:TrackPointExtension>
            <ns3:atemp>30.0</ns3:atemp>
          </ns3:TrackPointExtension>
        </extensions>
      </trkpt>
      <trkpt lat="31.7110834456980228424072265625" lon="35.01829066313803195953369140625">
        <ele>371</ele>
        <time>2017-08-04T07:06:27.000Z</time>
        <extensions>
          <ns3:TrackPointExtension>
            <ns3:atemp>30.0</ns3:atemp>
          </ns3:TrackPointExtension>
        </extensions>
      </trkpt>
      <trkpt lat="31.7111082561314105987548828125" lon="35.01811648719012737274169921875">
        <ele>372.20001220703125</ele>
        <time>2017-08-04T07:06:33.000Z</time>
        <extensions>
          <ns3:TrackPointExtension>
            <ns3:atemp>30.0</ns3:atemp>
          </ns3:TrackPointExtension>
        </extensions>
      </trkpt>
      <trkpt lat="31.71111973933875560760498046875" lon="35.01808765344321727752685546875">
        <ele>372.20001220703125</ele>
        <time>2017-08-04T07:06:34.000Z</time>
        <extensions>
          <ns3:TrackPointExtension>
            <ns3:atemp>30.0</ns3:atemp>
          </ns3:TrackPointExtension>
        </extensions>
      </trkpt>
      <trkpt lat="31.7112302966415882110595703125" lon="35.0178696401417255401611328125">
        <ele>373.399993896484375</ele>
        <time>2017-08-04T07:06:42.000Z</time>
        <extensions>
          <ns3:TrackPointExtension>
            <ns3:atemp>30.0</ns3:atemp>
          </ns3:TrackPointExtension>
        </extensions>
      </trkpt>
      <trkpt lat="31.71132157556712627410888671875" lon="35.01769311726093292236328125">
        <ele>374.20001220703125</ele>
        <time>2017-08-04T07:06:48.000Z</time>
        <extensions>
          <ns3:TrackPointExtension>
            <ns3:atemp>31.0</ns3:atemp>
          </ns3:TrackPointExtension>
        </extensions>
      </trkpt>
      <trkpt lat="31.71133582480251789093017578125" lon="35.017669983208179473876953125">
        <ele>374.600006103515625</ele>
        <time>2017-08-04T07:06:49.000Z</time>
        <extensions>
          <ns3:TrackPointExtension>
            <ns3:atemp>31.0</ns3:atemp>
          </ns3:TrackPointExtension>
        </extensions>
      </trkpt>
      <trkpt lat="31.7114056460559368133544921875" lon="35.01751734875142574310302734375">
        <ele>374.20001220703125</ele>
        <time>2017-08-04T07:06:54.000Z</time>
        <extensions>
          <ns3:TrackPointExtension>
            <ns3:atemp>31.0</ns3:atemp>
          </ns3:TrackPointExtension>
        </extensions>
      </trkpt>
      <trkpt lat="31.71151218004524707794189453125" lon="35.0173174403607845306396484375">
        <ele>375.399993896484375</ele>
        <time>2017-08-04T07:07:01.000Z</time>
        <extensions>
          <ns3:TrackPointExtension>
            <ns3:atemp>31.0</ns3:atemp>
          </ns3:TrackPointExtension>
        </extensions>
      </trkpt>
      <trkpt lat="31.7115256749093532562255859375" lon="35.01728810369968414306640625">
        <ele>375.600006103515625</ele>
        <time>2017-08-04T07:07:02.000Z</time>
        <extensions>
          <ns3:TrackPointExtension>
            <ns3:atemp>31.0</ns3:atemp>
          </ns3:TrackPointExtension>
        </extensions>
      </trkpt>
      <trkpt lat="31.7116155289113521575927734375" lon="35.017143599689006805419921875">
        <ele>376.600006103515625</ele>
        <time>2017-08-04T07:07:07.000Z</time>
        <extensions>
          <ns3:TrackPointExtension>
            <ns3:atemp>31.0</ns3:atemp>
          </ns3:TrackPointExtension>
        </extensions>
      </trkpt>
      <trkpt lat="31.7117477953433990478515625" lon="35.01692508347332477569580078125">
        <ele>377.600006103515625</ele>
        <time>2017-08-04T07:07:16.000Z</time>
        <extensions>
          <ns3:TrackPointExtension>
            <ns3:atemp>31.0</ns3:atemp>
          </ns3:TrackPointExtension>
        </extensions>
      </trkpt>
      <trkpt lat="31.71182985417544841766357421875" lon="35.01678544096648693084716796875">
        <ele>379</ele>
        <time>2017-08-04T07:07:22.000Z</time>
        <extensions>
          <ns3:TrackPointExtension>
            <ns3:atemp>31.0</ns3:atemp>
          </ns3:TrackPointExtension>
        </extensions>
      </trkpt>
      <trkpt lat="31.71183991245925426483154296875" lon="35.01675861887633800506591796875">
        <ele>379.20001220703125</ele>
        <time>2017-08-04T07:07:23.000Z</time>
        <extensions>
          <ns3:TrackPointExtension>
            <ns3:atemp>31.0</ns3:atemp>
          </ns3:TrackPointExtension>
        </extensions>
      </trkpt>
      <trkpt lat="31.71188567765057086944580078125" lon="35.01664278097450733184814453125">
        <ele>380</ele>
        <time>2017-08-04T07:07:27.000Z</time>
        <extensions>
          <ns3:TrackPointExtension>
            <ns3:atemp>31.0</ns3:atemp>
          </ns3:TrackPointExtension>
        </extensions>
      </trkpt>
      <trkpt lat="31.71190830878913402557373046875" lon="35.01654488034546375274658203125">
        <ele>380.399993896484375</ele>
        <time>2017-08-04T07:07:30.000Z</time>
        <extensions>
          <ns3:TrackPointExtension>
            <ns3:atemp>31.0</ns3:atemp>
          </ns3:TrackPointExtension>
        </extensions>
      </trkpt>
      <trkpt lat="31.71191602014005184173583984375" lon="35.01640406437218189239501953125">
        <ele>381</ele>
        <time>2017-08-04T07:07:34.000Z</time>
        <extensions>
          <ns3:TrackPointExtension>
            <ns3:atemp>31.0</ns3:atemp>
          </ns3:TrackPointExtension>
        </extensions>
      </trkpt>
      <trkpt lat="31.71191266737878322601318359375" lon="35.01629828475415706634521484375">
        <ele>381</ele>
        <time>2017-08-04T07:07:37.000Z</time>
        <extensions>
          <ns3:TrackPointExtension>
            <ns3:atemp>31.0</ns3:atemp>
          </ns3:TrackPointExtension>
        </extensions>
      </trkpt>
      <trkpt lat="31.7118803970515727996826171875" lon="35.01606157980859279632568359375">
        <ele>381.399993896484375</ele>
        <time>2017-08-04T07:07:43.000Z</time>
        <extensions>
          <ns3:TrackPointExtension>
            <ns3:atemp>31.0</ns3:atemp>
          </ns3:TrackPointExtension>
        </extensions>
      </trkpt>
      <trkpt lat="31.711856424808502197265625" lon="35.0158499367535114288330078125">
        <ele>381</ele>
        <time>2017-08-04T07:07:48.000Z</time>
        <extensions>
          <ns3:TrackPointExtension>
            <ns3:atemp>31.0</ns3:atemp>
          </ns3:TrackPointExtension>
        </extensions>
      </trkpt>
      <trkpt lat="31.711833290755748748779296875" lon="35.0156551413238048553466796875">
        <ele>382</ele>
        <time>2017-08-04T07:07:53.000Z</time>
        <extensions>
          <ns3:TrackPointExtension>
            <ns3:atemp>31.0</ns3:atemp>
          </ns3:TrackPointExtension>
        </extensions>
      </trkpt>
      <trkpt lat="31.711821891367435455322265625" lon="35.01562035642564296722412109375">
        <ele>382.399993896484375</ele>
        <time>2017-08-04T07:07:54.000Z</time>
        <extensions>
          <ns3:TrackPointExtension>
            <ns3:atemp>31.0</ns3:atemp>
          </ns3:TrackPointExtension>
        </extensions>
      </trkpt>
      <trkpt lat="31.71177486889064311981201171875" lon="35.0154616869986057281494140625">
        <ele>383.20001220703125</ele>
        <time>2017-08-04T07:07:59.000Z</time>
        <extensions>
          <ns3:TrackPointExtension>
            <ns3:atemp>31.0</ns3:atemp>
          </ns3:TrackPointExtension>
        </extensions>
      </trkpt>
      <trkpt lat="31.71175978146493434906005859375" lon="35.0154328532516956329345703125">
        <ele>383.399993896484375</ele>
        <time>2017-08-04T07:08:00.000Z</time>
        <extensions>
          <ns3:TrackPointExtension>
            <ns3:atemp>31.0</ns3:atemp>
          </ns3:TrackPointExtension>
        </extensions>
      </trkpt>
      <trkpt lat="31.7116819135844707489013671875" lon="35.0152638740837574005126953125">
        <ele>384.600006103515625</ele>
        <time>2017-08-04T07:08:06.000Z</time>
        <extensions>
          <ns3:TrackPointExtension>
            <ns3:atemp>31.0</ns3:atemp>
          </ns3:TrackPointExtension>
        </extensions>
      </trkpt>
      <trkpt lat="31.711669676005840301513671875" lon="35.01523411832749843597412109375">
        <ele>384.79998779296875</ele>
        <time>2017-08-04T07:08:07.000Z</time>
        <extensions>
          <ns3:TrackPointExtension>
            <ns3:atemp>31.0</ns3:atemp>
          </ns3:TrackPointExtension>
        </extensions>
      </trkpt>
      <trkpt lat="31.71156481839716434478759765625" lon="35.0150405801832675933837890625">
        <ele>385.20001220703125</ele>
        <time>2017-08-04T07:08:14.000Z</time>
        <extensions>
          <ns3:TrackPointExtension>
            <ns3:atemp>31.0</ns3:atemp>
          </ns3:TrackPointExtension>
        </extensions>
      </trkpt>
      <trkpt lat="31.7115337215363979339599609375" lon="35.0149949826300144195556640625">
        <ele>385.600006103515625</ele>
        <time>2017-08-04T07:08:16.000Z</time>
        <extensions>
          <ns3:TrackPointExtension>
            <ns3:atemp>31.0</ns3:atemp>
          </ns3:TrackPointExtension>
        </extensions>
      </trkpt>
      <trkpt lat="31.711466498672962188720703125" lon="35.0149021111428737640380859375">
        <ele>385.600006103515625</ele>
        <time>2017-08-04T07:08:20.000Z</time>
        <extensions>
          <ns3:TrackPointExtension>
            <ns3:atemp>31.0</ns3:atemp>
          </ns3:TrackPointExtension>
        </extensions>
      </trkpt>
      <trkpt lat="31.71140774153172969818115234375" lon="35.0148437730967998504638671875">
        <ele>386.79998779296875</ele>
        <time>2017-08-04T07:08:24.000Z</time>
        <extensions>
          <ns3:TrackPointExtension>
            <ns3:atemp>32.0</ns3:atemp>
          </ns3:TrackPointExtension>
        </extensions>
      </trkpt>
      <trkpt lat="31.7113885469734668731689453125" lon="35.0148280151188373565673828125">
        <ele>387</ele>
        <time>2017-08-04T07:08:25.000Z</time>
        <extensions>
          <ns3:TrackPointExtension>
            <ns3:atemp>32.0</ns3:atemp>
          </ns3:TrackPointExtension>
        </extensions>
      </trkpt>
      <trkpt lat="31.711299531161785125732421875" lon="35.01476070843636989593505859375">
        <ele>388</ele>
        <time>2017-08-04T07:08:30.000Z</time>
        <extensions>
          <ns3:TrackPointExtension>
            <ns3:atemp>32.0</ns3:atemp>
          </ns3:TrackPointExtension>
        </extensions>
      </trkpt>
      <trkpt lat="31.71127748675644397735595703125" lon="35.01475199125707149505615234375">
        <ele>388.20001220703125</ele>
        <time>2017-08-04T07:08:31.000Z</time>
        <extensions>
          <ns3:TrackPointExtension>
            <ns3:atemp>32.0</ns3:atemp>
          </ns3:TrackPointExtension>
        </extensions>
      </trkpt>
      <trkpt lat="31.7112152092158794403076171875" lon="35.01473958604037761688232421875">
        <ele>389</ele>
        <time>2017-08-04T07:08:34.000Z</time>
        <extensions>
          <ns3:TrackPointExtension>
            <ns3:atemp>32.0</ns3:atemp>
          </ns3:TrackPointExtension>
        </extensions>
      </trkpt>
      <trkpt lat="31.71109090559184551239013671875" lon="35.0147220678627490997314453125">
        <ele>390.20001220703125</ele>
        <time>2017-08-04T07:08:40.000Z</time>
        <extensions>
          <ns3:TrackPointExtension>
            <ns3:atemp>32.0</ns3:atemp>
          </ns3:TrackPointExtension>
        </extensions>
      </trkpt>
      <trkpt lat="31.71099744737148284912109375" lon="35.014720894396305084228515625">
        <ele>391.399993896484375</ele>
        <time>2017-08-04T07:08:44.000Z</time>
        <extensions>
          <ns3:TrackPointExtension>
            <ns3:atemp>32.0</ns3:atemp>
          </ns3:TrackPointExtension>
        </extensions>
      </trkpt>
      <trkpt lat="31.710926704108715057373046875" lon="35.0147307850420475006103515625">
        <ele>392</ele>
        <time>2017-08-04T07:08:47.000Z</time>
        <extensions>
          <ns3:TrackPointExtension>
            <ns3:atemp>32.0</ns3:atemp>
          </ns3:TrackPointExtension>
        </extensions>
      </trkpt>
      <trkpt lat="31.71089326031506061553955078125" lon="35.01473757438361644744873046875">
        <ele>392.600006103515625</ele>
        <time>2017-08-04T07:08:49.000Z</time>
        <extensions>
          <ns3:TrackPointExtension>
            <ns3:atemp>32.0</ns3:atemp>
          </ns3:TrackPointExtension>
        </extensions>
      </trkpt>
      <trkpt lat="31.7108162306249141693115234375" lon="35.014757104218006134033203125">
        <ele>393</ele>
        <time>2017-08-04T07:08:53.000Z</time>
        <extensions>
          <ns3:TrackPointExtension>
            <ns3:atemp>32.0</ns3:atemp>
          </ns3:TrackPointExtension>
        </extensions>
      </trkpt>
      <trkpt lat="31.7107008956372737884521484375" lon="35.0147901289165019989013671875">
        <ele>393.399993896484375</ele>
        <time>2017-08-04T07:08:58.000Z</time>
        <extensions>
          <ns3:TrackPointExtension>
            <ns3:atemp>32.0</ns3:atemp>
          </ns3:TrackPointExtension>
        </extensions>
      </trkpt>
      <trkpt lat="31.7106552980840206146240234375" lon="35.01481167040765285491943359375">
        <ele>393.600006103515625</ele>
        <time>2017-08-04T07:09:00.000Z</time>
        <extensions>
          <ns3:TrackPointExtension>
            <ns3:atemp>32.0</ns3:atemp>
          </ns3:TrackPointExtension>
        </extensions>
      </trkpt>
      <trkpt lat="31.71056049875915050506591796875" lon="35.01487922854721546173095703125">
        <ele>394.20001220703125</ele>
        <time>2017-08-04T07:09:05.000Z</time>
        <extensions>
          <ns3:TrackPointExtension>
            <ns3:atemp>32.0</ns3:atemp>
          </ns3:TrackPointExtension>
        </extensions>
      </trkpt>
      <trkpt lat="31.71048405580222606658935546875" lon="35.01500814221799373626708984375">
        <ele>394.600006103515625</ele>
        <time>2017-08-04T07:09:10.000Z</time>
        <extensions>
          <ns3:TrackPointExtension>
            <ns3:atemp>32.0</ns3:atemp>
          </ns3:TrackPointExtension>
        </extensions>
      </trkpt>
      <trkpt lat="31.710468046367168426513671875" lon="35.01503312028944492340087890625">
        <ele>394.600006103515625</ele>
        <time>2017-08-04T07:09:11.000Z</time>
        <extensions>
          <ns3:TrackPointExtension>
            <ns3:atemp>32.0</ns3:atemp>
          </ns3:TrackPointExtension>
        </extensions>
      </trkpt>
      <trkpt lat="31.71038900502026081085205078125" lon="35.01516018994152545928955078125">
        <ele>395.20001220703125</ele>
        <time>2017-08-04T07:09:16.000Z</time>
        <extensions>
          <ns3:TrackPointExtension>
            <ns3:atemp>32.0</ns3:atemp>
          </ns3:TrackPointExtension>
        </extensions>
      </trkpt>
      <trkpt lat="31.7103082872927188873291015625" lon="35.0153052806854248046875">
        <ele>395.600006103515625</ele>
        <time>2017-08-04T07:09:22.000Z</time>
        <extensions>
          <ns3:TrackPointExtension>
            <ns3:atemp>32.0</ns3:atemp>
          </ns3:TrackPointExtension>
        </extensions>
      </trkpt>
      <trkpt lat="31.71029345132410526275634765625" lon="35.015327744185924530029296875">
        <ele>396</ele>
        <time>2017-08-04T07:09:23.000Z</time>
        <extensions>
          <ns3:TrackPointExtension>
            <ns3:atemp>32.0</ns3:atemp>
          </ns3:TrackPointExtension>
        </extensions>
      </trkpt>
      <trkpt lat="31.71021164394915103912353515625" lon="35.0154321826994419097900390625">
        <ele>396</ele>
        <time>2017-08-04T07:09:27.000Z</time>
        <extensions>
          <ns3:TrackPointExtension>
            <ns3:atemp>32.0</ns3:atemp>
          </ns3:TrackPointExtension>
        </extensions>
      </trkpt>
      <trkpt lat="31.7101517133414745330810546875" lon="35.01547937281429767608642578125">
        <ele>397</ele>
        <time>2017-08-04T07:09:30.000Z</time>
        <extensions>
          <ns3:TrackPointExtension>
            <ns3:atemp>32.0</ns3:atemp>
          </ns3:TrackPointExtension>
        </extensions>
      </trkpt>
      <trkpt lat="31.71009664423763751983642578125" lon="35.01554257236421108245849609375">
        <ele>397.20001220703125</ele>
        <time>2017-08-04T07:09:33.000Z</time>
        <extensions>
          <ns3:TrackPointExtension>
            <ns3:atemp>32.0</ns3:atemp>
          </ns3:TrackPointExtension>
        </extensions>
      </trkpt>
      <trkpt lat="31.7099909484386444091796875" lon="35.01569294370710849761962890625">
        <ele>398</ele>
        <time>2017-08-04T07:09:39.000Z</time>
        <extensions>
          <ns3:TrackPointExtension>
            <ns3:atemp>32.0</ns3:atemp>
          </ns3:TrackPointExtension>
        </extensions>
      </trkpt>
      <trkpt lat="31.70997552573680877685546875" lon="35.01572060398757457733154296875">
        <ele>398.20001220703125</ele>
        <time>2017-08-04T07:09:40.000Z</time>
        <extensions>
          <ns3:TrackPointExtension>
            <ns3:atemp>32.0</ns3:atemp>
          </ns3:TrackPointExtension>
        </extensions>
      </trkpt>
      <trkpt lat="31.7099096439778804779052734375" lon="35.01587801612913608551025390625">
        <ele>398.600006103515625</ele>
        <time>2017-08-04T07:09:45.000Z</time>
        <extensions>
          <ns3:TrackPointExtension>
            <ns3:atemp>32.0</ns3:atemp>
          </ns3:TrackPointExtension>
        </extensions>
      </trkpt>
      <trkpt lat="31.70988022349774837493896484375" lon="35.01597088761627674102783203125">
        <ele>399.399993896484375</ele>
        <time>2017-08-04T07:09:48.000Z</time>
        <extensions>
          <ns3:TrackPointExtension>
            <ns3:atemp>32.0</ns3:atemp>
          </ns3:TrackPointExtension>
        </extensions>
      </trkpt>
      <trkpt lat="31.70985306613147258758544921875" lon="35.01606795005500316619873046875">
        <ele>399.600006103515625</ele>
        <time>2017-08-04T07:09:51.000Z</time>
        <extensions>
          <ns3:TrackPointExtension>
            <ns3:atemp>32.0</ns3:atemp>
          </ns3:TrackPointExtension>
        </extensions>
      </trkpt>
      <trkpt lat="31.70977846719324588775634765625" lon="35.0162586383521556854248046875">
        <ele>400</ele>
        <time>2017-08-04T07:09:57.000Z</time>
        <extensions>
          <ns3:TrackPointExtension>
            <ns3:atemp>32.0</ns3:atemp>
          </ns3:TrackPointExtension>
        </extensions>
      </trkpt>
      <trkpt lat="31.709726415574550628662109375" lon="35.016387887299060821533203125">
        <ele>400.600006103515625</ele>
        <time>2017-08-04T07:10:01.000Z</time>
        <extensions>
          <ns3:TrackPointExtension>
            <ns3:atemp>32.0</ns3:atemp>
          </ns3:TrackPointExtension>
        </extensions>
      </trkpt>
      <trkpt lat="31.7097017727792263031005859375" lon="35.01645904965698719024658203125">
        <ele>400.79998779296875</ele>
        <time>2017-08-04T07:10:03.000Z</time>
        <extensions>
          <ns3:TrackPointExtension>
            <ns3:atemp>32.0</ns3:atemp>
          </ns3:TrackPointExtension>
        </extensions>
      </trkpt>
      <trkpt lat="31.709656007587909698486328125" lon="35.01657438464462757110595703125">
        <ele>401.600006103515625</ele>
        <time>2017-08-04T07:10:07.000Z</time>
        <extensions>
          <ns3:TrackPointExtension>
            <ns3:atemp>32.0</ns3:atemp>
          </ns3:TrackPointExtension>
        </extensions>
      </trkpt>
      <trkpt lat="31.709613762795925140380859375" lon="35.016664154827594757080078125">
        <ele>401.79998779296875</ele>
        <time>2017-08-04T07:10:10.000Z</time>
        <extensions>
          <ns3:TrackPointExtension>
            <ns3:atemp>32.0</ns3:atemp>
          </ns3:TrackPointExtension>
        </extensions>
      </trkpt>
      <trkpt lat="31.70957394875586032867431640625" lon="35.01674420200288295745849609375">
        <ele>402.600006103515625</ele>
        <time>2017-08-04T07:10:13.000Z</time>
        <extensions>
          <ns3:TrackPointExtension>
            <ns3:atemp>32.0</ns3:atemp>
          </ns3:TrackPointExtension>
        </extensions>
      </trkpt>
      <trkpt lat="31.70952499844133853912353515625" lon="35.01685350202023983001708984375">
        <ele>403.399993896484375</ele>
        <time>2017-08-04T07:10:17.000Z</time>
        <extensions>
          <ns3:TrackPointExtension>
            <ns3:atemp>32.0</ns3:atemp>
          </ns3:TrackPointExtension>
        </extensions>
      </trkpt>
      <trkpt lat="31.70950219966471195220947265625" lon="35.01690094359219074249267578125">
        <ele>403.79998779296875</ele>
        <time>2017-08-04T07:10:19.000Z</time>
        <extensions>
          <ns3:TrackPointExtension>
            <ns3:atemp>32.0</ns3:atemp>
          </ns3:TrackPointExtension>
        </extensions>
      </trkpt>
      <trkpt lat="31.70944000594317913055419921875" lon="35.0169731117784976959228515625">
        <ele>404.600006103515625</ele>
        <time>2017-08-04T07:10:23.000Z</time>
        <extensions>
          <ns3:TrackPointExtension>
            <ns3:atemp>32.0</ns3:atemp>
          </ns3:TrackPointExtension>
        </extensions>
      </trkpt>
      <trkpt lat="31.7093628086149692535400390625" lon="35.0170475430786609649658203125">
        <ele>404.79998779296875</ele>
        <time>2017-08-04T07:10:27.000Z</time>
        <extensions>
          <ns3:TrackPointExtension>
            <ns3:atemp>32.0</ns3:atemp>
          </ns3:TrackPointExtension>
        </extensions>
      </trkpt>
      <trkpt lat="31.709323413670063018798828125" lon="35.01707553863525390625">
        <ele>405.20001220703125</ele>
        <time>2017-08-04T07:10:29.000Z</time>
        <extensions>
          <ns3:TrackPointExtension>
            <ns3:atemp>32.0</ns3:atemp>
          </ns3:TrackPointExtension>
        </extensions>
      </trkpt>
      <trkpt lat="31.70920950360596179962158203125" lon="35.01713831909000873565673828125">
        <ele>406</ele>
        <time>2017-08-04T07:10:34.000Z</time>
        <extensions>
          <ns3:TrackPointExtension>
            <ns3:atemp>32.0</ns3:atemp>
          </ns3:TrackPointExtension>
        </extensions>
      </trkpt>
      <trkpt lat="31.7090724594891071319580078125" lon="35.017193220555782318115234375">
        <ele>406.79998779296875</ele>
        <time>2017-08-04T07:10:40.000Z</time>
        <extensions>
          <ns3:TrackPointExtension>
            <ns3:atemp>32.0</ns3:atemp>
          </ns3:TrackPointExtension>
        </extensions>
      </trkpt>
      <trkpt lat="31.70904840342700481414794921875" lon="35.01720101572573184967041015625">
        <ele>407</ele>
        <time>2017-08-04T07:10:41.000Z</time>
        <extensions>
          <ns3:TrackPointExtension>
            <ns3:atemp>32.0</ns3:atemp>
          </ns3:TrackPointExtension>
        </extensions>
      </trkpt>
      <trkpt lat="31.7089427076280117034912109375" lon="35.01721057109534740447998046875">
        <ele>408.20001220703125</ele>
        <time>2017-08-04T07:10:46.000Z</time>
        <extensions>
          <ns3:TrackPointExtension>
            <ns3:atemp>32.0</ns3:atemp>
          </ns3:TrackPointExtension>
        </extensions>
      </trkpt>
      <trkpt lat="31.70883290469646453857421875" lon="35.0171689130365848541259765625">
        <ele>407.79998779296875</ele>
        <time>2017-08-04T07:10:50.000Z</time>
        <extensions>
          <ns3:TrackPointExtension>
            <ns3:atemp>32.0</ns3:atemp>
          </ns3:TrackPointExtension>
        </extensions>
      </trkpt>
      <trkpt lat="31.7087351717054843902587890625" lon="35.01712809316813945770263671875">
        <ele>408.600006103515625</ele>
        <time>2017-08-04T07:10:54.000Z</time>
        <extensions>
          <ns3:TrackPointExtension>
            <ns3:atemp>32.0</ns3:atemp>
          </ns3:TrackPointExtension>
        </extensions>
      </trkpt>
      <trkpt lat="31.708624362945556640625" lon="35.01704980619251728057861328125">
        <ele>409.20001220703125</ele>
        <time>2017-08-04T07:10:59.000Z</time>
        <extensions>
          <ns3:TrackPointExtension>
            <ns3:atemp>32.0</ns3:atemp>
          </ns3:TrackPointExtension>
        </extensions>
      </trkpt>
      <trkpt lat="31.7086030729115009307861328125" lon="35.01703203655779361724853515625">
        <ele>409.20001220703125</ele>
        <time>2017-08-04T07:11:00.000Z</time>
        <extensions>
          <ns3:TrackPointExtension>
            <ns3:atemp>32.0</ns3:atemp>
          </ns3:TrackPointExtension>
        </extensions>
      </trkpt>
      <trkpt lat="31.70850659720599651336669921875" lon="35.01692156307399272918701171875">
        <ele>409.600006103515625</ele>
        <time>2017-08-04T07:11:05.000Z</time>
        <extensions>
          <ns3:TrackPointExtension>
            <ns3:atemp>32.0</ns3:atemp>
          </ns3:TrackPointExtension>
        </extensions>
      </trkpt>
      <trkpt lat="31.70842629857361316680908203125" lon="35.016739256680011749267578125">
        <ele>409.79998779296875</ele>
        <time>2017-08-04T07:11:11.000Z</time>
        <extensions>
          <ns3:TrackPointExtension>
            <ns3:atemp>32.0</ns3:atemp>
          </ns3:TrackPointExtension>
        </extensions>
      </trkpt>
      <trkpt lat="31.70840509235858917236328125" lon="35.01660908572375774383544921875">
        <ele>410.20001220703125</ele>
        <time>2017-08-04T07:11:15.000Z</time>
        <extensions>
          <ns3:TrackPointExtension>
            <ns3:atemp>32.0</ns3:atemp>
          </ns3:TrackPointExtension>
        </extensions>
      </trkpt>
      <trkpt lat="31.70840467326343059539794921875" lon="35.016530044376850128173828125">
        <ele>410</ele>
        <time>2017-08-04T07:11:17.000Z</time>
        <extensions>
          <ns3:TrackPointExtension>
            <ns3:atemp>32.0</ns3:atemp>
          </ns3:TrackPointExtension>
        </extensions>
      </trkpt>
      <trkpt lat="31.7084407992660999298095703125" lon="35.0163427926599979400634765625">
        <ele>409.399993896484375</ele>
        <time>2017-08-04T07:11:21.000Z</time>
        <extensions>
          <ns3:TrackPointExtension>
            <ns3:atemp>32.0</ns3:atemp>
          </ns3:TrackPointExtension>
        </extensions>
      </trkpt>
      <trkpt lat="31.708516739308834075927734375" lon="35.01614271663129329681396484375">
        <ele>411</ele>
        <time>2017-08-04T07:11:27.000Z</time>
        <extensions>
          <ns3:TrackPointExtension>
            <ns3:atemp>32.0</ns3:atemp>
          </ns3:TrackPointExtension>
        </extensions>
      </trkpt>
      <trkpt lat="31.7085707187652587890625" lon="35.015936605632305145263671875">
        <ele>411.399993896484375</ele>
        <time>2017-08-04T07:11:33.000Z</time>
        <extensions>
          <ns3:TrackPointExtension>
            <ns3:atemp>32.0</ns3:atemp>
          </ns3:TrackPointExtension>
        </extensions>
      </trkpt>
      <trkpt lat="31.70859821140766143798828125" lon="35.015849769115447998046875">
        <ele>412.399993896484375</ele>
        <time>2017-08-04T07:11:38.000Z</time>
        <extensions>
          <ns3:TrackPointExtension>
            <ns3:atemp>32.0</ns3:atemp>
          </ns3:TrackPointExtension>
        </extensions>
      </trkpt>
      <trkpt lat="31.7086030729115009307861328125" lon="35.01580760814249515533447265625">
        <ele>412.399993896484375</ele>
        <time>2017-08-04T07:11:41.000Z</time>
        <extensions>
          <ns3:TrackPointExtension>
            <ns3:atemp>32.0</ns3:atemp>
          </ns3:TrackPointExtension>
        </extensions>
      </trkpt>
      <trkpt lat="31.70861690305173397064208984375" lon="35.01574524678289890289306640625">
        <ele>411.600006103515625</ele>
        <time>2017-08-04T07:11:43.000Z</time>
        <extensions>
          <ns3:TrackPointExtension>
            <ns3:atemp>32.0</ns3:atemp>
          </ns3:TrackPointExtension>
        </extensions>
      </trkpt>
      <trkpt lat="31.7086228542029857635498046875" lon="35.0157081149518489837646484375">
        <ele>411.600006103515625</ele>
        <time>2017-08-04T07:11:45.000Z</time>
        <extensions>
          <ns3:TrackPointExtension>
            <ns3:atemp>32.0</ns3:atemp>
          </ns3:TrackPointExtension>
        </extensions>
      </trkpt>
      <trkpt lat="31.70863383449614048004150390625" lon="35.015671737492084503173828125">
        <ele>412.20001220703125</ele>
        <time>2017-08-04T07:11:47.000Z</time>
        <extensions>
          <ns3:TrackPointExtension>
            <ns3:atemp>32.0</ns3:atemp>
          </ns3:TrackPointExtension>
        </extensions>
      </trkpt>
      <trkpt lat="31.70864104293286800384521484375" lon="35.01560023985803127288818359375">
        <ele>412.399993896484375</ele>
        <time>2017-08-04T07:11:51.000Z</time>
        <extensions>
          <ns3:TrackPointExtension>
            <ns3:atemp>32.0</ns3:atemp>
          </ns3:TrackPointExtension>
        </extensions>
      </trkpt>
      <trkpt lat="31.70862796716392040252685546875" lon="35.01557014882564544677734375">
        <ele>412.600006103515625</ele>
        <time>2017-08-04T07:11:53.000Z</time>
        <extensions>
          <ns3:TrackPointExtension>
            <ns3:atemp>32.0</ns3:atemp>
          </ns3:TrackPointExtension>
        </extensions>
      </trkpt>
      <trkpt lat="31.70862545259296894073486328125" lon="35.01551055349409580230712890625">
        <ele>413</ele>
        <time>2017-08-04T07:11:58.000Z</time>
        <extensions>
          <ns3:TrackPointExtension>
            <ns3:atemp>32.0</ns3:atemp>
          </ns3:TrackPointExtension>
        </extensions>
      </trkpt>
      <trkpt lat="31.7086262069642543792724609375" lon="35.0155911035835742950439453125">
        <ele>412.79998779296875</ele>
        <time>2017-08-04T07:12:02.000Z</time>
        <extensions>
          <ns3:TrackPointExtension>
            <ns3:atemp>32.0</ns3:atemp>
          </ns3:TrackPointExtension>
        </extensions>
      </trkpt>
      <trkpt lat="31.7085883207619190216064453125" lon="35.01580056734383106231689453125">
        <ele>411.600006103515625</ele>
        <time>2017-08-04T07:12:08.000Z</time>
        <extensions>
          <ns3:TrackPointExtension>
            <ns3:atemp>32.0</ns3:atemp>
          </ns3:TrackPointExtension>
        </extensions>
      </trkpt>
      <trkpt lat="31.70856879092752933502197265625" lon="35.0159315764904022216796875">
        <ele>412</ele>
        <time>2017-08-04T07:12:12.000Z</time>
        <extensions>
          <ns3:TrackPointExtension>
            <ns3:atemp>32.0</ns3:atemp>
          </ns3:TrackPointExtension>
        </extensions>
      </trkpt>
      <trkpt lat="31.7085259594023227691650390625" lon="35.0160490907728672027587890625">
        <ele>411.399993896484375</ele>
        <time>2017-08-04T07:12:15.000Z</time>
        <extensions>
          <ns3:TrackPointExtension>
            <ns3:atemp>32.0</ns3:atemp>
          </ns3:TrackPointExtension>
        </extensions>
      </trkpt>
      <trkpt lat="31.708480529487133026123046875" lon="35.0162200815975666046142578125">
        <ele>410.79998779296875</ele>
        <time>2017-08-04T07:12:19.000Z</time>
        <extensions>
          <ns3:TrackPointExtension>
            <ns3:atemp>32.0</ns3:atemp>
          </ns3:TrackPointExtension>
        </extensions>
      </trkpt>
      <trkpt lat="31.708445660769939422607421875" lon="35.0163484923541545867919921875">
        <ele>410.399993896484375</ele>
        <time>2017-08-04T07:12:22.000Z</time>
        <extensions>
          <ns3:TrackPointExtension>
            <ns3:atemp>32.0</ns3:atemp>
          </ns3:TrackPointExtension>
        </extensions>
      </trkpt>
      <trkpt lat="31.70840987004339694976806640625" lon="35.01644379459321498870849609375">
        <ele>410.399993896484375</ele>
        <time>2017-08-04T07:12:25.000Z</time>
        <extensions>
          <ns3:TrackPointExtension>
            <ns3:atemp>32.0</ns3:atemp>
          </ns3:TrackPointExtension>
        </extensions>
      </trkpt>
      <trkpt lat="31.7084102891385555267333984375" lon="35.01645619980990886688232421875">
        <ele>410.600006103515625</ele>
        <time>2017-08-04T07:12:26.000Z</time>
        <extensions>
          <ns3:TrackPointExtension>
            <ns3:atemp>32.0</ns3:atemp>
          </ns3:TrackPointExtension>
        </extensions>
      </trkpt>
      <trkpt lat="31.70844138599932193756103515625" lon="35.016442872583866119384765625">
        <ele>410.399993896484375</ele>
        <time>2017-08-04T07:12:29.000Z</time>
        <extensions>
          <ns3:TrackPointExtension>
            <ns3:atemp>32.0</ns3:atemp>
          </ns3:TrackPointExtension>
        </extensions>
      </trkpt>
      <trkpt lat="31.7084481753408908843994140625" lon="35.01633449457585811614990234375">
        <ele>409.600006103515625</ele>
        <time>2017-08-04T07:12:33.000Z</time>
        <extensions>
          <ns3:TrackPointExtension>
            <ns3:atemp>33.0</ns3:atemp>
          </ns3:TrackPointExtension>
        </extensions>
      </trkpt>
      <trkpt lat="31.70848715119063854217529296875" lon="35.0161890685558319091796875">
        <ele>410.600006103515625</ele>
        <time>2017-08-04T07:12:38.000Z</time>
        <extensions>
          <ns3:TrackPointExtension>
            <ns3:atemp>33.0</ns3:atemp>
          </ns3:TrackPointExtension>
        </extensions>
      </trkpt>
      <trkpt lat="31.70849687419831752777099609375" lon="35.01615663059055805206298828125">
        <ele>410.79998779296875</ele>
        <time>2017-08-04T07:12:39.000Z</time>
        <extensions>
          <ns3:TrackPointExtension>
            <ns3:atemp>33.0</ns3:atemp>
          </ns3:TrackPointExtension>
        </extensions>
      </trkpt>
      <trkpt lat="31.7085819505155086517333984375" lon="35.01591204665601253509521484375">
        <ele>411.399993896484375</ele>
        <time>2017-08-04T07:12:46.000Z</time>
        <extensions>
          <ns3:TrackPointExtension>
            <ns3:atemp>33.0</ns3:atemp>
          </ns3:TrackPointExtension>
        </extensions>
      </trkpt>
      <trkpt lat="31.7085881531238555908203125" lon="35.01588002778589725494384765625">
        <ele>411.399993896484375</ele>
        <time>2017-08-04T07:12:47.000Z</time>
        <extensions>
          <ns3:TrackPointExtension>
            <ns3:atemp>33.0</ns3:atemp>
          </ns3:TrackPointExtension>
        </extensions>
      </trkpt>
      <trkpt lat="31.70861028134822845458984375" lon="35.015728734433650970458984375">
        <ele>411.399993896484375</ele>
        <time>2017-08-04T07:12:51.000Z</time>
        <extensions>
          <ns3:TrackPointExtension>
            <ns3:atemp>33.0</ns3:atemp>
          </ns3:TrackPointExtension>
        </extensions>
      </trkpt>
      <trkpt lat="31.70862796716392040252685546875" lon="35.01554843969643115997314453125">
        <ele>412.20001220703125</ele>
        <time>2017-08-04T07:12:56.000Z</time>
        <extensions>
          <ns3:TrackPointExtension>
            <ns3:atemp>33.0</ns3:atemp>
          </ns3:TrackPointExtension>
        </extensions>
      </trkpt>
      <trkpt lat="31.7085908353328704833984375" lon="35.0154097191989421844482421875">
        <ele>412.399993896484375</ele>
        <time>2017-08-04T07:13:00.000Z</time>
        <extensions>
          <ns3:TrackPointExtension>
            <ns3:atemp>33.0</ns3:atemp>
          </ns3:TrackPointExtension>
        </extensions>
      </trkpt>
      <trkpt lat="31.70855403877794742584228515625" lon="35.0153084658086299896240234375">
        <ele>412.79998779296875</ele>
        <time>2017-08-04T07:13:03.000Z</time>
        <extensions>
          <ns3:TrackPointExtension>
            <ns3:atemp>33.0</ns3:atemp>
          </ns3:TrackPointExtension>
        </extensions>
      </trkpt>
      <trkpt lat="31.70849922113120555877685546875" lon="35.01518198288977146148681640625">
        <ele>413.79998779296875</ele>
        <time>2017-08-04T07:13:07.000Z</time>
        <extensions>
          <ns3:TrackPointExtension>
            <ns3:atemp>33.0</ns3:atemp>
          </ns3:TrackPointExtension>
        </extensions>
      </trkpt>
      <trkpt lat="31.70845127664506435394287109375" lon="35.0151322782039642333984375">
        <ele>414</ele>
        <time>2017-08-04T07:13:09.000Z</time>
        <extensions>
          <ns3:TrackPointExtension>
            <ns3:atemp>33.0</ns3:atemp>
          </ns3:TrackPointExtension>
        </extensions>
      </trkpt>
      <trkpt lat="31.70835454948246479034423828125" lon="35.01499883830547332763671875">
        <ele>414.20001220703125</ele>
        <time>2017-08-04T07:13:14.000Z</time>
        <extensions>
          <ns3:TrackPointExtension>
            <ns3:atemp>33.0</ns3:atemp>
          </ns3:TrackPointExtension>
        </extensions>
      </trkpt>
      <trkpt lat="31.708312891423702239990234375" lon="35.01491392962634563446044921875">
        <ele>415.20001220703125</ele>
        <time>2017-08-04T07:13:17.000Z</time>
        <extensions>
          <ns3:TrackPointExtension>
            <ns3:atemp>33.0</ns3:atemp>
          </ns3:TrackPointExtension>
        </extensions>
      </trkpt>
      <trkpt lat="31.70828028582036495208740234375" lon="35.01485760323703289031982421875">
        <ele>415.399993896484375</ele>
        <time>2017-08-04T07:13:19.000Z</time>
        <extensions>
          <ns3:TrackPointExtension>
            <ns3:atemp>33.0</ns3:atemp>
          </ns3:TrackPointExtension>
        </extensions>
      </trkpt>
      <trkpt lat="31.7081429064273834228515625" lon="35.0146285258233547210693359375">
        <ele>416.399993896484375</ele>
        <time>2017-08-04T07:13:27.000Z</time>
        <extensions>
          <ns3:TrackPointExtension>
            <ns3:atemp>33.0</ns3:atemp>
          </ns3:TrackPointExtension>
        </extensions>
      </trkpt>
      <trkpt lat="31.70804525725543498992919921875" lon="35.0145175494253635406494140625">
        <ele>417.600006103515625</ele>
        <time>2017-08-04T07:13:32.000Z</time>
        <extensions>
          <ns3:TrackPointExtension>
            <ns3:atemp>33.0</ns3:atemp>
          </ns3:TrackPointExtension>
        </extensions>
      </trkpt>
      <trkpt lat="31.70800502412021160125732421875" lon="35.014479160308837890625">
        <ele>418</ele>
        <time>2017-08-04T07:13:34.000Z</time>
        <extensions>
          <ns3:TrackPointExtension>
            <ns3:atemp>33.0</ns3:atemp>
          </ns3:TrackPointExtension>
        </extensions>
      </trkpt>
      <trkpt lat="31.7078996635973453521728515625" lon="35.014372877776622772216796875">
        <ele>418.20001220703125</ele>
        <time>2017-08-04T07:13:39.000Z</time>
        <extensions>
          <ns3:TrackPointExtension>
            <ns3:atemp>33.0</ns3:atemp>
          </ns3:TrackPointExtension>
        </extensions>
      </trkpt>
      <trkpt lat="31.70785163529217243194580078125" lon="35.01433339901268482208251953125">
        <ele>418.79998779296875</ele>
        <time>2017-08-04T07:13:41.000Z</time>
        <extensions>
          <ns3:TrackPointExtension>
            <ns3:atemp>33.0</ns3:atemp>
          </ns3:TrackPointExtension>
        </extensions>
      </trkpt>
      <trkpt lat="31.707747615873813629150390625" lon="35.014252848923206329345703125">
        <ele>418.79998779296875</ele>
        <time>2017-08-04T07:13:45.000Z</time>
        <extensions>
          <ns3:TrackPointExtension>
            <ns3:atemp>33.0</ns3:atemp>
          </ns3:TrackPointExtension>
        </extensions>
      </trkpt>
      <trkpt lat="31.70757553540170192718505859375" lon="35.0141581334173679351806640625">
        <ele>419.600006103515625</ele>
        <time>2017-08-04T07:13:51.000Z</time>
        <extensions>
          <ns3:TrackPointExtension>
            <ns3:atemp>33.0</ns3:atemp>
          </ns3:TrackPointExtension>
        </extensions>
      </trkpt>
      <trkpt lat="31.70750160701572895050048828125" lon="35.0141400285065174102783203125">
        <ele>419.399993896484375</ele>
        <time>2017-08-04T07:13:53.000Z</time>
        <extensions>
          <ns3:TrackPointExtension>
            <ns3:atemp>33.0</ns3:atemp>
          </ns3:TrackPointExtension>
        </extensions>
      </trkpt>
      <trkpt lat="31.7074322886765003204345703125" lon="35.01410725526511669158935546875">
        <ele>419.79998779296875</ele>
        <time>2017-08-04T07:13:55.000Z</time>
        <extensions>
          <ns3:TrackPointExtension>
            <ns3:atemp>33.0</ns3:atemp>
          </ns3:TrackPointExtension>
        </extensions>
      </trkpt>
      <trkpt lat="31.70739834196865558624267578125" lon="35.01408915035426616668701171875">
        <ele>419.79998779296875</ele>
        <time>2017-08-04T07:13:56.000Z</time>
        <extensions>
          <ns3:TrackPointExtension>
            <ns3:atemp>33.0</ns3:atemp>
          </ns3:TrackPointExtension>
        </extensions>
      </trkpt>
      <trkpt lat="31.707256101071834564208984375" lon="35.01400373876094818115234375">
        <ele>419.20001220703125</ele>
        <time>2017-08-04T07:14:00.000Z</time>
        <extensions>
          <ns3:TrackPointExtension>
            <ns3:atemp>33.0</ns3:atemp>
          </ns3:TrackPointExtension>
        </extensions>
      </trkpt>
      <trkpt lat="31.707176975905895233154296875" lon="35.0139589793980121612548828125">
        <ele>419.20001220703125</ele>
        <time>2017-08-04T07:14:02.000Z</time>
        <extensions>
          <ns3:TrackPointExtension>
            <ns3:atemp>33.0</ns3:atemp>
          </ns3:TrackPointExtension>
        </extensions>
      </trkpt>
      <trkpt lat="31.70704646967351436614990234375" lon="35.01390575431287288665771484375">
        <ele>418.600006103515625</ele>
        <time>2017-08-04T07:14:05.000Z</time>
        <extensions>
          <ns3:TrackPointExtension>
            <ns3:atemp>33.0</ns3:atemp>
          </ns3:TrackPointExtension>
        </extensions>
      </trkpt>
      <trkpt lat="31.7069984413683414459228515625" lon="35.0138770043849945068359375">
        <ele>418.20001220703125</ele>
        <time>2017-08-04T07:14:06.000Z</time>
        <extensions>
          <ns3:TrackPointExtension>
            <ns3:atemp>33.0</ns3:atemp>
          </ns3:TrackPointExtension>
        </extensions>
      </trkpt>
      <trkpt lat="31.706919483840465545654296875" lon="35.0138111226260662078857421875">
        <ele>417.79998779296875</ele>
        <time>2017-08-04T07:14:08.000Z</time>
        <extensions>
          <ns3:TrackPointExtension>
            <ns3:atemp>33.0</ns3:atemp>
          </ns3:TrackPointExtension>
        </extensions>
      </trkpt>
      <trkpt lat="31.70687891542911529541015625" lon="35.0137749128043651580810546875">
        <ele>417.600006103515625</ele>
        <time>2017-08-04T07:14:09.000Z</time>
        <extensions>
          <ns3:TrackPointExtension>
            <ns3:atemp>33.0</ns3:atemp>
          </ns3:TrackPointExtension>
        </extensions>
      </trkpt>
      <trkpt lat="31.706832312047481536865234375" lon="35.0137393735349178314208984375">
        <ele>417</ele>
        <time>2017-08-04T07:14:10.000Z</time>
        <extensions>
          <ns3:TrackPointExtension>
            <ns3:atemp>33.0</ns3:atemp>
          </ns3:TrackPointExtension>
        </extensions>
      </trkpt>
      <trkpt lat="31.70677489601075649261474609375" lon="35.01371447928249835968017578125">
        <ele>416.600006103515625</ele>
        <time>2017-08-04T07:14:11.000Z</time>
        <extensions>
          <ns3:TrackPointExtension>
            <ns3:atemp>33.0</ns3:atemp>
          </ns3:TrackPointExtension>
        </extensions>
      </trkpt>
      <trkpt lat="31.70664422214031219482421875" lon="35.01366837881505489349365234375">
        <ele>415.399993896484375</ele>
        <time>2017-08-04T07:14:13.000Z</time>
        <extensions>
          <ns3:TrackPointExtension>
            <ns3:atemp>33.0</ns3:atemp>
          </ns3:TrackPointExtension>
        </extensions>
      </trkpt>
      <trkpt lat="31.706573478877544403076171875" lon="35.013650357723236083984375">
        <ele>414.79998779296875</ele>
        <time>2017-08-04T07:14:14.000Z</time>
        <extensions>
          <ns3:TrackPointExtension>
            <ns3:atemp>33.0</ns3:atemp>
          </ns3:TrackPointExtension>
        </extensions>
      </trkpt>
      <trkpt lat="31.70649711973965167999267578125" lon="35.0136347673833370208740234375">
        <ele>414.20001220703125</ele>
        <time>2017-08-04T07:14:15.000Z</time>
        <extensions>
          <ns3:TrackPointExtension>
            <ns3:atemp>33.0</ns3:atemp>
          </ns3:TrackPointExtension>
        </extensions>
      </trkpt>
      <trkpt lat="31.70641765929758548736572265625" lon="35.01362881623208522796630859375">
        <ele>413.600006103515625</ele>
        <time>2017-08-04T07:14:16.000Z</time>
        <extensions>
          <ns3:TrackPointExtension>
            <ns3:atemp>33.0</ns3:atemp>
          </ns3:TrackPointExtension>
        </extensions>
      </trkpt>
      <trkpt lat="31.7063349299132823944091796875" lon="35.01363116316497325897216796875">
        <ele>413</ele>
        <time>2017-08-04T07:14:17.000Z</time>
        <extensions>
          <ns3:TrackPointExtension>
            <ns3:atemp>33.0</ns3:atemp>
          </ns3:TrackPointExtension>
        </extensions>
      </trkpt>
      <trkpt lat="31.70618246309459209442138671875" lon="35.01365236937999725341796875">
        <ele>410.79998779296875</ele>
        <time>2017-08-04T07:14:19.000Z</time>
        <extensions>
          <ns3:TrackPointExtension>
            <ns3:atemp>33.0</ns3:atemp>
          </ns3:TrackPointExtension>
        </extensions>
      </trkpt>
      <trkpt lat="31.706042401492595672607421875" lon="35.01370827667415142059326171875">
        <ele>410.20001220703125</ele>
        <time>2017-08-04T07:14:21.000Z</time>
        <extensions>
          <ns3:TrackPointExtension>
            <ns3:atemp>33.0</ns3:atemp>
          </ns3:TrackPointExtension>
        </extensions>
      </trkpt>
      <trkpt lat="31.70598247088491916656494140625" lon="35.01372990198433399200439453125">
        <ele>409.600006103515625</ele>
        <time>2017-08-04T07:14:22.000Z</time>
        <extensions>
          <ns3:TrackPointExtension>
            <ns3:atemp>33.0</ns3:atemp>
          </ns3:TrackPointExtension>
        </extensions>
      </trkpt>
      <trkpt lat="31.705921031534671783447265625" lon="35.01375697553157806396484375">
        <ele>409</ele>
        <time>2017-08-04T07:14:23.000Z</time>
        <extensions>
          <ns3:TrackPointExtension>
            <ns3:atemp>33.0</ns3:atemp>
          </ns3:TrackPointExtension>
        </extensions>
      </trkpt>
      <trkpt lat="31.70585808344185352325439453125" lon="35.0137886591255664825439453125">
        <ele>408.600006103515625</ele>
        <time>2017-08-04T07:14:24.000Z</time>
        <extensions>
          <ns3:TrackPointExtension>
            <ns3:atemp>33.0</ns3:atemp>
          </ns3:TrackPointExtension>
        </extensions>
      </trkpt>
      <trkpt lat="31.70579086057841777801513671875" lon="35.01382009126245975494384765625">
        <ele>407.600006103515625</ele>
        <time>2017-08-04T07:14:25.000Z</time>
        <extensions>
          <ns3:TrackPointExtension>
            <ns3:atemp>33.0</ns3:atemp>
          </ns3:TrackPointExtension>
        </extensions>
      </trkpt>
      <trkpt lat="31.70571542344987392425537109375" lon="35.0138476677238941192626953125">
        <ele>407</ele>
        <time>2017-08-04T07:14:26.000Z</time>
        <extensions>
          <ns3:TrackPointExtension>
            <ns3:atemp>33.0</ns3:atemp>
          </ns3:TrackPointExtension>
        </extensions>
      </trkpt>
      <trkpt lat="31.70563495717942714691162109375" lon="35.01387004740536212921142578125">
        <ele>405.600006103515625</ele>
        <time>2017-08-04T07:14:27.000Z</time>
        <extensions>
          <ns3:TrackPointExtension>
            <ns3:atemp>33.0</ns3:atemp>
          </ns3:TrackPointExtension>
        </extensions>
      </trkpt>
      <trkpt lat="31.7054595239460468292236328125" lon="35.013916231691837310791015625">
        <ele>403.600006103515625</ele>
        <time>2017-08-04T07:14:29.000Z</time>
        <extensions>
          <ns3:TrackPointExtension>
            <ns3:atemp>33.0</ns3:atemp>
          </ns3:TrackPointExtension>
        </extensions>
      </trkpt>
      <trkpt lat="31.7053763754665851593017578125" lon="35.013944394886493682861328125">
        <ele>402.20001220703125</ele>
        <time>2017-08-04T07:14:30.000Z</time>
        <extensions>
          <ns3:TrackPointExtension>
            <ns3:atemp>33.0</ns3:atemp>
          </ns3:TrackPointExtension>
        </extensions>
      </trkpt>
      <trkpt lat="31.7053016088902950286865234375" lon="35.01397423446178436279296875">
        <ele>401</ele>
        <time>2017-08-04T07:14:31.000Z</time>
        <extensions>
          <ns3:TrackPointExtension>
            <ns3:atemp>33.0</ns3:atemp>
          </ns3:TrackPointExtension>
        </extensions>
      </trkpt>
      <trkpt lat="31.705155260860919952392578125" lon="35.01404271461069583892822265625">
        <ele>400.79998779296875</ele>
        <time>2017-08-04T07:14:33.000Z</time>
        <extensions>
          <ns3:TrackPointExtension>
            <ns3:atemp>33.0</ns3:atemp>
          </ns3:TrackPointExtension>
        </extensions>
      </trkpt>
      <trkpt lat="31.70508175157010555267333984375" lon="35.0140689499676227569580078125">
        <ele>400.600006103515625</ele>
        <time>2017-08-04T07:14:34.000Z</time>
        <extensions>
          <ns3:TrackPointExtension>
            <ns3:atemp>33.0</ns3:atemp>
          </ns3:TrackPointExtension>
        </extensions>
      </trkpt>
      <trkpt lat="31.70500765554606914520263671875" lon="35.0140894018113613128662109375">
        <ele>399.79998779296875</ele>
        <time>2017-08-04T07:14:35.000Z</time>
        <extensions>
          <ns3:TrackPointExtension>
            <ns3:atemp>33.0</ns3:atemp>
          </ns3:TrackPointExtension>
        </extensions>
      </trkpt>
      <trkpt lat="31.70485191978514194488525390625" lon="35.01414547674357891082763671875">
        <ele>398.20001220703125</ele>
        <time>2017-08-04T07:14:37.000Z</time>
        <extensions>
          <ns3:TrackPointExtension>
            <ns3:atemp>33.0</ns3:atemp>
          </ns3:TrackPointExtension>
        </extensions>
      </trkpt>
      <trkpt lat="31.70468411408364772796630859375" lon="35.01419459469616413116455078125">
        <ele>396.399993896484375</ele>
        <time>2017-08-04T07:14:39.000Z</time>
        <extensions>
          <ns3:TrackPointExtension>
            <ns3:atemp>33.0</ns3:atemp>
          </ns3:TrackPointExtension>
        </extensions>
      </trkpt>
      <trkpt lat="31.7044245265424251556396484375" lon="35.014277994632720947265625">
        <ele>395.600006103515625</ele>
        <time>2017-08-04T07:14:42.000Z</time>
        <extensions>
          <ns3:TrackPointExtension>
            <ns3:atemp>33.0</ns3:atemp>
          </ns3:TrackPointExtension>
        </extensions>
      </trkpt>
      <trkpt lat="31.7043420486152172088623046875" lon="35.01429735682904720306396484375">
        <ele>394.399993896484375</ele>
        <time>2017-08-04T07:14:43.000Z</time>
        <extensions>
          <ns3:TrackPointExtension>
            <ns3:atemp>33.0</ns3:atemp>
          </ns3:TrackPointExtension>
        </extensions>
      </trkpt>
      <trkpt lat="31.704255044460296630859375" lon="35.01431931741535663604736328125">
        <ele>393.399993896484375</ele>
        <time>2017-08-04T07:14:44.000Z</time>
        <extensions>
          <ns3:TrackPointExtension>
            <ns3:atemp>33.0</ns3:atemp>
          </ns3:TrackPointExtension>
        </extensions>
      </trkpt>
      <trkpt lat="31.70417348854243755340576171875" lon="35.0143274478614330291748046875">
        <ele>392.79998779296875</ele>
        <time>2017-08-04T07:14:45.000Z</time>
        <extensions>
          <ns3:TrackPointExtension>
            <ns3:atemp>33.0</ns3:atemp>
          </ns3:TrackPointExtension>
        </extensions>
      </trkpt>
      <trkpt lat="31.7040808685123920440673828125" lon="35.014321915805339813232421875">
        <ele>393.20001220703125</ele>
        <time>2017-08-04T07:14:47.000Z</time>
        <extensions>
          <ns3:TrackPointExtension>
            <ns3:atemp>33.0</ns3:atemp>
          </ns3:TrackPointExtension>
        </extensions>
      </trkpt>
      <trkpt lat="31.704052202403545379638671875" lon="35.01433004625141620635986328125">
        <ele>394.20001220703125</ele>
        <time>2017-08-04T07:14:50.000Z</time>
        <extensions>
          <ns3:TrackPointExtension>
            <ns3:atemp>33.0</ns3:atemp>
          </ns3:TrackPointExtension>
        </extensions>
      </trkpt>
      <trkpt lat="31.70404423959553241729736328125" lon="35.01433742232620716094970703125">
        <ele>394.20001220703125</ele>
        <time>2017-08-04T07:14:55.000Z</time>
        <extensions>
          <ns3:TrackPointExtension>
            <ns3:atemp>33.0</ns3:atemp>
          </ns3:TrackPointExtension>
        </extensions>
      </trkpt>
      <trkpt lat="31.70404423959553241729736328125" lon="35.01433742232620716094970703125">
        <ele>394</ele>
        <time>2017-08-04T07:15:03.000Z</time>
        <extensions>
          <ns3:TrackPointExtension>
            <ns3:atemp>33.0</ns3:atemp>
          </ns3:TrackPointExtension>
        </extensions>
      </trkpt>
      <trkpt lat="31.70404423959553241729736328125" lon="35.01433742232620716094970703125">
        <ele>394</ele>
        <time>2017-08-04T07:15:21.000Z</time>
        <extensions>
          <ns3:TrackPointExtension>
            <ns3:atemp>33.0</ns3:atemp>
          </ns3:TrackPointExtension>
        </extensions>
      </trkpt>
      <trkpt lat="31.70403485186398029327392578125" lon="35.01432769931852817535400390625">
        <ele>394</ele>
        <time>2017-08-04T07:15:29.000Z</time>
        <extensions>
          <ns3:TrackPointExtension>
            <ns3:atemp>33.0</ns3:atemp>
          </ns3:TrackPointExtension>
        </extensions>
      </trkpt>
      <trkpt lat="31.703994534909725189208984375" lon="35.0143019668757915496826171875">
        <ele>393.399993896484375</ele>
        <time>2017-08-04T07:15:31.000Z</time>
        <extensions>
          <ns3:TrackPointExtension>
            <ns3:atemp>33.0</ns3:atemp>
          </ns3:TrackPointExtension>
        </extensions>
      </trkpt>
      <trkpt lat="31.70388749800622463226318359375" lon="35.0142275355756282806396484375">
        <ele>392.399993896484375</ele>
        <time>2017-08-04T07:15:34.000Z</time>
        <extensions>
          <ns3:TrackPointExtension>
            <ns3:atemp>33.0</ns3:atemp>
          </ns3:TrackPointExtension>
        </extensions>
      </trkpt>
      <trkpt lat="31.70385883189737796783447265625" lon="35.01420800574123859405517578125">
        <ele>392.399993896484375</ele>
        <time>2017-08-04T07:15:35.000Z</time>
        <extensions>
          <ns3:TrackPointExtension>
            <ns3:atemp>33.0</ns3:atemp>
          </ns3:TrackPointExtension>
        </extensions>
      </trkpt>
      <trkpt lat="31.70384910888969898223876953125" lon="35.0142017193138599395751953125">
        <ele>392.399993896484375</ele>
        <time>2017-08-04T07:15:36.000Z</time>
        <extensions>
          <ns3:TrackPointExtension>
            <ns3:atemp>32.0</ns3:atemp>
          </ns3:TrackPointExtension>
        </extensions>
      </trkpt>
      <trkpt lat="31.70384609140455722808837890625" lon="35.0142020545899868011474609375">
        <ele>392.399993896484375</ele>
        <time>2017-08-04T07:15:38.000Z</time>
        <extensions>
          <ns3:TrackPointExtension>
            <ns3:atemp>32.0</ns3:atemp>
          </ns3:TrackPointExtension>
        </extensions>
      </trkpt>
      <trkpt lat="31.70385011471807956695556640625" lon="35.0141960196197032928466796875">
        <ele>392.399993896484375</ele>
        <time>2017-08-04T07:15:45.000Z</time>
        <extensions>
          <ns3:TrackPointExtension>
            <ns3:atemp>32.0</ns3:atemp>
          </ns3:TrackPointExtension>
        </extensions>
      </trkpt>
      <trkpt lat="31.703775264322757720947265625" lon="35.01416659913957118988037109375">
        <ele>392.20001220703125</ele>
        <time>2017-08-04T07:15:50.000Z</time>
        <extensions>
          <ns3:TrackPointExtension>
            <ns3:atemp>32.0</ns3:atemp>
          </ns3:TrackPointExtension>
        </extensions>
      </trkpt>
      <trkpt lat="31.7037355341017246246337890625" lon="35.0141534395515918731689453125">
        <ele>392</ele>
        <time>2017-08-04T07:15:51.000Z</time>
        <extensions>
          <ns3:TrackPointExtension>
            <ns3:atemp>32.0</ns3:atemp>
          </ns3:TrackPointExtension>
        </extensions>
      </trkpt>
      <trkpt lat="31.7036475241184234619140625" lon="35.01410708762705326080322265625">
        <ele>391</ele>
        <time>2017-08-04T07:15:53.000Z</time>
        <extensions>
          <ns3:TrackPointExtension>
            <ns3:atemp>32.0</ns3:atemp>
          </ns3:TrackPointExtension>
        </extensions>
      </trkpt>
      <trkpt lat="31.70359513722360134124755859375" lon="35.014075152575969696044921875">
        <ele>390</ele>
        <time>2017-08-04T07:15:54.000Z</time>
        <extensions>
          <ns3:TrackPointExtension>
            <ns3:atemp>32.0</ns3:atemp>
          </ns3:TrackPointExtension>
        </extensions>
      </trkpt>
      <trkpt lat="31.70353663153946399688720703125" lon="35.01404455862939357757568359375">
        <ele>388.399993896484375</ele>
        <time>2017-08-04T07:15:55.000Z</time>
        <extensions>
          <ns3:TrackPointExtension>
            <ns3:atemp>32.0</ns3:atemp>
          </ns3:TrackPointExtension>
        </extensions>
      </trkpt>
      <trkpt lat="31.7034116573631763458251953125" lon="35.013983957469463348388671875">
        <ele>387.20001220703125</ele>
        <time>2017-08-04T07:15:57.000Z</time>
        <extensions>
          <ns3:TrackPointExtension>
            <ns3:atemp>32.0</ns3:atemp>
          </ns3:TrackPointExtension>
        </extensions>
      </trkpt>
      <trkpt lat="31.70334803871810436248779296875" lon="35.01395068131387233734130859375">
        <ele>386.79998779296875</ele>
        <time>2017-08-04T07:15:58.000Z</time>
        <extensions>
          <ns3:TrackPointExtension>
            <ns3:atemp>32.0</ns3:atemp>
          </ns3:TrackPointExtension>
        </extensions>
      </trkpt>
      <trkpt lat="31.7032104916870594024658203125" lon="35.013877339661121368408203125">
        <ele>386.20001220703125</ele>
        <time>2017-08-04T07:16:00.000Z</time>
        <extensions>
          <ns3:TrackPointExtension>
            <ns3:atemp>32.0</ns3:atemp>
          </ns3:TrackPointExtension>
        </extensions>
      </trkpt>
      <trkpt lat="31.702990047633647918701171875" lon="35.01374130137264728546142578125">
        <ele>384.600006103515625</ele>
        <time>2017-08-04T07:16:03.000Z</time>
        <extensions>
          <ns3:TrackPointExtension>
            <ns3:atemp>32.0</ns3:atemp>
          </ns3:TrackPointExtension>
        </extensions>
      </trkpt>
      <trkpt lat="31.702833473682403564453125" lon="35.013662762939929962158203125">
        <ele>383.399993896484375</ele>
        <time>2017-08-04T07:16:05.000Z</time>
        <extensions>
          <ns3:TrackPointExtension>
            <ns3:atemp>32.0</ns3:atemp>
          </ns3:TrackPointExtension>
        </extensions>
      </trkpt>
      <trkpt lat="31.7025969363749027252197265625" lon="35.01352990977466106414794921875">
        <ele>382.399993896484375</ele>
        <time>2017-08-04T07:16:08.000Z</time>
        <extensions>
          <ns3:TrackPointExtension>
            <ns3:atemp>32.0</ns3:atemp>
          </ns3:TrackPointExtension>
        </extensions>
      </trkpt>
      <trkpt lat="31.7023712955415248870849609375" lon="35.01338540576398372650146484375">
        <ele>380.79998779296875</ele>
        <time>2017-08-04T07:16:11.000Z</time>
        <extensions>
          <ns3:TrackPointExtension>
            <ns3:atemp>32.0</ns3:atemp>
          </ns3:TrackPointExtension>
        </extensions>
      </trkpt>
      <trkpt lat="31.70222033746540546417236328125" lon="35.01329035498201847076416015625">
        <ele>379.399993896484375</ele>
        <time>2017-08-04T07:16:13.000Z</time>
        <extensions>
          <ns3:TrackPointExtension>
            <ns3:atemp>32.0</ns3:atemp>
          </ns3:TrackPointExtension>
        </extensions>
      </trkpt>
      <trkpt lat="31.7021376080811023712158203125" lon="35.013251043856143951416015625">
        <ele>379.20001220703125</ele>
        <time>2017-08-04T07:16:14.000Z</time>
        <extensions>
          <ns3:TrackPointExtension>
            <ns3:atemp>32.0</ns3:atemp>
          </ns3:TrackPointExtension>
        </extensions>
      </trkpt>
      <trkpt lat="31.70187450014054775238037109375" lon="35.01317954622209072113037109375">
        <ele>377.79998779296875</ele>
        <time>2017-08-04T07:16:17.000Z</time>
        <extensions>
          <ns3:TrackPointExtension>
            <ns3:atemp>32.0</ns3:atemp>
          </ns3:TrackPointExtension>
        </extensions>
      </trkpt>
      <trkpt lat="31.70173033140599727630615234375" lon="35.01318558119237422943115234375">
        <ele>378.20001220703125</ele>
        <time>2017-08-04T07:16:20.000Z</time>
        <extensions>
          <ns3:TrackPointExtension>
            <ns3:atemp>32.0</ns3:atemp>
          </ns3:TrackPointExtension>
        </extensions>
      </trkpt>
      <trkpt lat="31.70171490870416164398193359375" lon="35.01318876631557941436767578125">
        <ele>378.600006103515625</ele>
        <time>2017-08-04T07:16:21.000Z</time>
        <extensions>
          <ns3:TrackPointExtension>
            <ns3:atemp>32.0</ns3:atemp>
          </ns3:TrackPointExtension>
        </extensions>
      </trkpt>
      <trkpt lat="31.70170493423938751220703125" lon="35.013186670839786529541015625">
        <ele>378.399993896484375</ele>
        <time>2017-08-04T07:16:22.000Z</time>
        <extensions>
          <ns3:TrackPointExtension>
            <ns3:atemp>32.0</ns3:atemp>
          </ns3:TrackPointExtension>
        </extensions>
      </trkpt>
      <trkpt lat="31.70169143937528133392333984375" lon="35.01315775327384471893310546875">
        <ele>378.399993896484375</ele>
        <time>2017-08-04T07:16:24.000Z</time>
        <extensions>
          <ns3:TrackPointExtension>
            <ns3:atemp>32.0</ns3:atemp>
          </ns3:TrackPointExtension>
        </extensions>
      </trkpt>
      <trkpt lat="31.7017349414527416229248046875" lon="35.013053901493549346923828125">
        <ele>377.79998779296875</ele>
        <time>2017-08-04T07:16:28.000Z</time>
        <extensions>
          <ns3:TrackPointExtension>
            <ns3:atemp>32.0</ns3:atemp>
          </ns3:TrackPointExtension>
        </extensions>
      </trkpt>
      <trkpt lat="31.70175128616392612457275390625" lon="35.0129326991736888885498046875">
        <ele>377.20001220703125</ele>
        <time>2017-08-04T07:16:32.000Z</time>
        <extensions>
          <ns3:TrackPointExtension>
            <ns3:atemp>32.0</ns3:atemp>
          </ns3:TrackPointExtension>
        </extensions>
      </trkpt>
      <trkpt lat="31.70175882987678050994873046875" lon="35.0128810666501522064208984375">
        <ele>376.79998779296875</ele>
        <time>2017-08-04T07:16:34.000Z</time>
        <extensions>
          <ns3:TrackPointExtension>
            <ns3:atemp>32.0</ns3:atemp>
          </ns3:TrackPointExtension>
        </extensions>
      </trkpt>
      <trkpt lat="31.70175782404839992523193359375" lon="35.01285851933062076568603515625">
        <ele>376.600006103515625</ele>
        <time>2017-08-04T07:16:35.000Z</time>
        <extensions>
          <ns3:TrackPointExtension>
            <ns3:atemp>32.0</ns3:atemp>
          </ns3:TrackPointExtension>
        </extensions>
      </trkpt>
      <trkpt lat="31.7017671279609203338623046875" lon="35.0127358920872211456298828125">
        <ele>376</ele>
        <time>2017-08-04T07:16:40.000Z</time>
        <extensions>
          <ns3:TrackPointExtension>
            <ns3:atemp>32.0</ns3:atemp>
          </ns3:TrackPointExtension>
        </extensions>
      </trkpt>
      <trkpt lat="31.70181632973253726959228515625" lon="35.0126611255109310150146484375">
        <ele>375.79998779296875</ele>
        <time>2017-08-04T07:16:45.000Z</time>
        <extensions>
          <ns3:TrackPointExtension>
            <ns3:atemp>32.0</ns3:atemp>
          </ns3:TrackPointExtension>
        </extensions>
      </trkpt>
      <trkpt lat="31.70182135887444019317626953125" lon="35.01264117658138275146484375">
        <ele>376</ele>
        <time>2017-08-04T07:16:47.000Z</time>
        <extensions>
          <ns3:TrackPointExtension>
            <ns3:atemp>32.0</ns3:atemp>
          </ns3:TrackPointExtension>
        </extensions>
      </trkpt>
      <trkpt lat="31.701789088547229766845703125" lon="35.01262986101210117340087890625">
        <ele>375.79998779296875</ele>
        <time>2017-08-04T07:16:50.000Z</time>
        <extensions>
          <ns3:TrackPointExtension>
            <ns3:atemp>32.0</ns3:atemp>
          </ns3:TrackPointExtension>
        </extensions>
      </trkpt>
      <trkpt lat="31.70178866945207118988037109375" lon="35.0126775540411472320556640625">
        <ele>375.79998779296875</ele>
        <time>2017-08-04T07:16:54.000Z</time>
        <extensions>
          <ns3:TrackPointExtension>
            <ns3:atemp>32.0</ns3:atemp>
          </ns3:TrackPointExtension>
        </extensions>
      </trkpt>
      <trkpt lat="31.7017592489719390869140625" lon="35.01272440887987613677978515625">
        <ele>376</ele>
        <time>2017-08-04T07:16:58.000Z</time>
        <extensions>
          <ns3:TrackPointExtension>
            <ns3:atemp>32.0</ns3:atemp>
          </ns3:TrackPointExtension>
        </extensions>
      </trkpt>
      <trkpt lat="31.70173519290983676910400390625" lon="35.01276833005249500274658203125">
        <ele>376.20001220703125</ele>
        <time>2017-08-04T07:17:04.000Z</time>
        <extensions>
          <ns3:TrackPointExtension>
            <ns3:atemp>32.0</ns3:atemp>
          </ns3:TrackPointExtension>
        </extensions>
      </trkpt>
      <trkpt lat="31.70173519290983676910400390625" lon="35.01276833005249500274658203125">
        <ele>376</ele>
        <time>2017-08-04T07:17:15.000Z</time>
        <extensions>
          <ns3:TrackPointExtension>
            <ns3:atemp>32.0</ns3:atemp>
          </ns3:TrackPointExtension>
        </extensions>
      </trkpt>
      <trkpt lat="31.70173519290983676910400390625" lon="35.01276833005249500274658203125">
        <ele>376.20001220703125</ele>
        <time>2017-08-04T07:17:30.000Z</time>
        <extensions>
          <ns3:TrackPointExtension>
            <ns3:atemp>32.0</ns3:atemp>
          </ns3:TrackPointExtension>
        </extensions>
      </trkpt>
      <trkpt lat="31.7017364501953125" lon="35.0127724371850490570068359375">
        <ele>376.20001220703125</ele>
        <time>2017-08-04T07:17:43.000Z</time>
        <extensions>
          <ns3:TrackPointExtension>
            <ns3:atemp>32.0</ns3:atemp>
          </ns3:TrackPointExtension>
        </extensions>
      </trkpt>
      <trkpt lat="31.7017364501953125" lon="35.0127724371850490570068359375">
        <ele>376.20001220703125</ele>
        <time>2017-08-04T07:18:00.000Z</time>
        <extensions>
          <ns3:TrackPointExtension>
            <ns3:atemp>32.0</ns3:atemp>
          </ns3:TrackPointExtension>
        </extensions>
      </trkpt>
      <trkpt lat="31.7017364501953125" lon="35.0127724371850490570068359375">
        <ele>376.20001220703125</ele>
        <time>2017-08-04T07:18:14.000Z</time>
        <extensions>
          <ns3:TrackPointExtension>
            <ns3:atemp>32.0</ns3:atemp>
          </ns3:TrackPointExtension>
        </extensions>
      </trkpt>
      <trkpt lat="31.70173619873821735382080078125" lon="35.0127764604985713958740234375">
        <ele>376.20001220703125</ele>
        <time>2017-08-04T07:18:29.000Z</time>
        <extensions>
          <ns3:TrackPointExtension>
            <ns3:atemp>32.0</ns3:atemp>
          </ns3:TrackPointExtension>
        </extensions>
      </trkpt>
      <trkpt lat="31.70173133723437786102294921875" lon="35.01278308220207691192626953125">
        <ele>376</ele>
        <time>2017-08-04T07:18:42.000Z</time>
        <extensions>
          <ns3:TrackPointExtension>
            <ns3:atemp>32.0</ns3:atemp>
          </ns3:TrackPointExtension>
        </extensions>
      </trkpt>
      <trkpt lat="31.70173200778663158416748046875" lon="35.01277855597436428070068359375">
        <ele>376</ele>
        <time>2017-08-04T07:18:44.000Z</time>
        <extensions>
          <ns3:TrackPointExtension>
            <ns3:atemp>32.0</ns3:atemp>
          </ns3:TrackPointExtension>
        </extensions>
      </trkpt>
      <trkpt lat="31.701728068292140960693359375" lon="35.0127087347209453582763671875">
        <ele>375.600006103515625</ele>
        <time>2017-08-04T07:18:47.000Z</time>
        <extensions>
          <ns3:TrackPointExtension>
            <ns3:atemp>32.0</ns3:atemp>
          </ns3:TrackPointExtension>
        </extensions>
      </trkpt>
      <trkpt lat="31.70174575410783290863037109375" lon="35.0126530788838863372802734375">
        <ele>375.20001220703125</ele>
        <time>2017-08-04T07:18:49.000Z</time>
        <extensions>
          <ns3:TrackPointExtension>
            <ns3:atemp>32.0</ns3:atemp>
          </ns3:TrackPointExtension>
        </extensions>
      </trkpt>
      <trkpt lat="31.7017833888530731201171875" lon="35.0126188807189464569091796875">
        <ele>374.79998779296875</ele>
        <time>2017-08-04T07:18:51.000Z</time>
        <extensions>
          <ns3:TrackPointExtension>
            <ns3:atemp>32.0</ns3:atemp>
          </ns3:TrackPointExtension>
        </extensions>
      </trkpt>
      <trkpt lat="31.70179788954555988311767578125" lon="35.01249642111361026763916015625">
        <ele>374.600006103515625</ele>
        <time>2017-08-04T07:18:55.000Z</time>
        <extensions>
          <ns3:TrackPointExtension>
            <ns3:atemp>32.0</ns3:atemp>
          </ns3:TrackPointExtension>
        </extensions>
      </trkpt>
      <trkpt lat="31.7017222009599208831787109375" lon="35.0123910605907440185546875">
        <ele>374.20001220703125</ele>
        <time>2017-08-04T07:18:59.000Z</time>
        <extensions>
          <ns3:TrackPointExtension>
            <ns3:atemp>32.0</ns3:atemp>
          </ns3:TrackPointExtension>
        </extensions>
      </trkpt>
      <trkpt lat="31.70165522955358028411865234375" lon="35.01230321824550628662109375">
        <ele>373.399993896484375</ele>
        <time>2017-08-04T07:19:01.000Z</time>
        <extensions>
          <ns3:TrackPointExtension>
            <ns3:atemp>32.0</ns3:atemp>
          </ns3:TrackPointExtension>
        </extensions>
      </trkpt>
      <trkpt lat="31.7016209475696086883544921875" lon="35.0121743045747280120849609375">
        <ele>372</ele>
        <time>2017-08-04T07:19:03.000Z</time>
        <extensions>
          <ns3:TrackPointExtension>
            <ns3:atemp>32.0</ns3:atemp>
          </ns3:TrackPointExtension>
        </extensions>
      </trkpt>
      <trkpt lat="31.7016492784023284912109375" lon="35.01203390769660472869873046875">
        <ele>370.399993896484375</ele>
        <time>2017-08-04T07:19:05.000Z</time>
        <extensions>
          <ns3:TrackPointExtension>
            <ns3:atemp>32.0</ns3:atemp>
          </ns3:TrackPointExtension>
        </extensions>
      </trkpt>
      <trkpt lat="31.7016873322427272796630859375" lon="35.01197791658341884613037109375">
        <ele>369.79998779296875</ele>
        <time>2017-08-04T07:19:06.000Z</time>
        <extensions>
          <ns3:TrackPointExtension>
            <ns3:atemp>32.0</ns3:atemp>
          </ns3:TrackPointExtension>
        </extensions>
      </trkpt>
      <trkpt lat="31.7017547227442264556884765625" lon="35.01186668872833251953125">
        <ele>370.79998779296875</ele>
        <time>2017-08-04T07:19:09.000Z</time>
        <extensions>
          <ns3:TrackPointExtension>
            <ns3:atemp>32.0</ns3:atemp>
          </ns3:TrackPointExtension>
        </extensions>
      </trkpt>
      <trkpt lat="31.70170417986810207366943359375" lon="35.01178278587758541107177734375">
        <ele>370.20001220703125</ele>
        <time>2017-08-04T07:19:12.000Z</time>
        <extensions>
          <ns3:TrackPointExtension>
            <ns3:atemp>32.0</ns3:atemp>
          </ns3:TrackPointExtension>
        </extensions>
      </trkpt>
      <trkpt lat="31.70165355317294597625732421875" lon="35.01175596378743648529052734375">
        <ele>369</ele>
        <time>2017-08-04T07:19:13.000Z</time>
        <extensions>
          <ns3:TrackPointExtension>
            <ns3:atemp>32.0</ns3:atemp>
          </ns3:TrackPointExtension>
        </extensions>
      </trkpt>
      <trkpt lat="31.70160032808780670166015625" lon="35.01173551194369792938232421875">
        <ele>367.600006103515625</ele>
        <time>2017-08-04T07:19:14.000Z</time>
        <extensions>
          <ns3:TrackPointExtension>
            <ns3:atemp>32.0</ns3:atemp>
          </ns3:TrackPointExtension>
        </extensions>
      </trkpt>
      <trkpt lat="31.70154668390750885009765625" lon="35.01170952804386615753173828125">
        <ele>366.20001220703125</ele>
        <time>2017-08-04T07:19:15.000Z</time>
        <extensions>
          <ns3:TrackPointExtension>
            <ns3:atemp>32.0</ns3:atemp>
          </ns3:TrackPointExtension>
        </extensions>
      </trkpt>
      <trkpt lat="31.7014891840517520904541015625" lon="35.01168119721114635467529296875">
        <ele>365.399993896484375</ele>
        <time>2017-08-04T07:19:16.000Z</time>
        <extensions>
          <ns3:TrackPointExtension>
            <ns3:atemp>32.0</ns3:atemp>
          </ns3:TrackPointExtension>
        </extensions>
      </trkpt>
      <trkpt lat="31.70143461786210536956787109375" lon="35.0116462446749210357666015625">
        <ele>364.600006103515625</ele>
        <time>2017-08-04T07:19:17.000Z</time>
        <extensions>
          <ns3:TrackPointExtension>
            <ns3:atemp>32.0</ns3:atemp>
          </ns3:TrackPointExtension>
        </extensions>
      </trkpt>
      <trkpt lat="31.7013946361839771270751953125" lon="35.0116103701293468475341796875">
        <ele>364</ele>
        <time>2017-08-04T07:19:18.000Z</time>
        <extensions>
          <ns3:TrackPointExtension>
            <ns3:atemp>32.0</ns3:atemp>
          </ns3:TrackPointExtension>
        </extensions>
      </trkpt>
      <trkpt lat="31.7013634555041790008544921875" lon="35.01157005317509174346923828125">
        <ele>363.399993896484375</ele>
        <time>2017-08-04T07:19:19.000Z</time>
        <extensions>
          <ns3:TrackPointExtension>
            <ns3:atemp>32.0</ns3:atemp>
          </ns3:TrackPointExtension>
        </extensions>
      </trkpt>
      <trkpt lat="31.701294891536235809326171875" lon="35.01146008260548114776611328125">
        <ele>362.20001220703125</ele>
        <time>2017-08-04T07:19:21.000Z</time>
        <extensions>
          <ns3:TrackPointExtension>
            <ns3:atemp>32.0</ns3:atemp>
          </ns3:TrackPointExtension>
        </extensions>
      </trkpt>
      <trkpt lat="31.70126345939934253692626953125" lon="35.01139252446591854095458984375">
        <ele>360.79998779296875</ele>
        <time>2017-08-04T07:19:22.000Z</time>
        <extensions>
          <ns3:TrackPointExtension>
            <ns3:atemp>32.0</ns3:atemp>
          </ns3:TrackPointExtension>
        </extensions>
      </trkpt>
      <trkpt lat="31.70123529620468616485595703125" lon="35.011319182813167572021484375">
        <ele>359.79998779296875</ele>
        <time>2017-08-04T07:19:23.000Z</time>
        <extensions>
          <ns3:TrackPointExtension>
            <ns3:atemp>32.0</ns3:atemp>
          </ns3:TrackPointExtension>
        </extensions>
      </trkpt>
      <trkpt lat="31.701186597347259521484375" lon="35.011160932481288909912109375">
        <ele>358.399993896484375</ele>
        <time>2017-08-04T07:19:26.000Z</time>
        <extensions>
          <ns3:TrackPointExtension>
            <ns3:atemp>32.0</ns3:atemp>
          </ns3:TrackPointExtension>
        </extensions>
      </trkpt>
      <trkpt lat="31.70115231536328792572021484375" lon="35.01108306460082530975341796875">
        <ele>357.600006103515625</ele>
        <time>2017-08-04T07:19:27.000Z</time>
        <extensions>
          <ns3:TrackPointExtension>
            <ns3:atemp>32.0</ns3:atemp>
          </ns3:TrackPointExtension>
        </extensions>
      </trkpt>
      <trkpt lat="31.7011109925806522369384765625" lon="35.01099924556910991668701171875">
        <ele>357</ele>
        <time>2017-08-04T07:19:28.000Z</time>
        <extensions>
          <ns3:TrackPointExtension>
            <ns3:atemp>32.0</ns3:atemp>
          </ns3:TrackPointExtension>
        </extensions>
      </trkpt>
      <trkpt lat="31.70106648467481136322021484375" lon="35.01091391779482364654541015625">
        <ele>355.79998779296875</ele>
        <time>2017-08-04T07:19:29.000Z</time>
        <extensions>
          <ns3:TrackPointExtension>
            <ns3:atemp>32.0</ns3:atemp>
          </ns3:TrackPointExtension>
        </extensions>
      </trkpt>
      <trkpt lat="31.70101954601705074310302734375" lon="35.010821633040904998779296875">
        <ele>354.399993896484375</ele>
        <time>2017-08-04T07:19:30.000Z</time>
        <extensions>
          <ns3:TrackPointExtension>
            <ns3:atemp>32.0</ns3:atemp>
          </ns3:TrackPointExtension>
        </extensions>
      </trkpt>
      <trkpt lat="31.700970344245433807373046875" lon="35.010729096829891204833984375">
        <ele>352.600006103515625</ele>
        <time>2017-08-04T07:19:31.000Z</time>
        <extensions>
          <ns3:TrackPointExtension>
            <ns3:atemp>32.0</ns3:atemp>
          </ns3:TrackPointExtension>
        </extensions>
      </trkpt>
      <trkpt lat="31.7009255848824977874755859375" lon="35.01063697971403598785400390625">
        <ele>351.20001220703125</ele>
        <time>2017-08-04T07:19:32.000Z</time>
        <extensions>
          <ns3:TrackPointExtension>
            <ns3:atemp>32.0</ns3:atemp>
          </ns3:TrackPointExtension>
        </extensions>
      </trkpt>
      <trkpt lat="31.70088057406246662139892578125" lon="35.0105475448071956634521484375">
        <ele>350.20001220703125</ele>
        <time>2017-08-04T07:19:33.000Z</time>
        <extensions>
          <ns3:TrackPointExtension>
            <ns3:atemp>32.0</ns3:atemp>
          </ns3:TrackPointExtension>
        </extensions>
      </trkpt>
      <trkpt lat="31.70080848969519138336181640625" lon="35.0103686749935150146484375">
        <ele>348.600006103515625</ele>
        <time>2017-08-04T07:19:35.000Z</time>
        <extensions>
          <ns3:TrackPointExtension>
            <ns3:atemp>32.0</ns3:atemp>
          </ns3:TrackPointExtension>
        </extensions>
      </trkpt>
      <trkpt lat="31.70076590962707996368408203125" lon="35.01018603332340717315673828125">
        <ele>347.79998779296875</ele>
        <time>2017-08-04T07:19:37.000Z</time>
        <extensions>
          <ns3:TrackPointExtension>
            <ns3:atemp>32.0</ns3:atemp>
          </ns3:TrackPointExtension>
        </extensions>
      </trkpt>
      <trkpt lat="31.70070304535329341888427734375" lon="35.01001688651740550994873046875">
        <ele>347</ele>
        <time>2017-08-04T07:19:40.000Z</time>
        <extensions>
          <ns3:TrackPointExtension>
            <ns3:atemp>32.0</ns3:atemp>
          </ns3:TrackPointExtension>
        </extensions>
      </trkpt>
      <trkpt lat="31.70065090991556644439697265625" lon="35.00993616878986358642578125">
        <ele>346</ele>
        <time>2017-08-04T07:19:42.000Z</time>
        <extensions>
          <ns3:TrackPointExtension>
            <ns3:atemp>32.0</ns3:atemp>
          </ns3:TrackPointExtension>
        </extensions>
      </trkpt>
      <trkpt lat="31.7005597986280918121337890625" lon="35.00991160981357097625732421875">
        <ele>345.600006103515625</ele>
        <time>2017-08-04T07:19:44.000Z</time>
        <extensions>
          <ns3:TrackPointExtension>
            <ns3:atemp>32.0</ns3:atemp>
          </ns3:TrackPointExtension>
        </extensions>
      </trkpt>
      <trkpt lat="31.70033658854663372039794921875" lon="35.00994689762592315673828125">
        <ele>346.20001220703125</ele>
        <time>2017-08-04T07:19:49.000Z</time>
        <extensions>
          <ns3:TrackPointExtension>
            <ns3:atemp>32.0</ns3:atemp>
          </ns3:TrackPointExtension>
        </extensions>
      </trkpt>
      <trkpt lat="31.70028730295598506927490234375" lon="35.0099480710923671722412109375">
        <ele>346.399993896484375</ele>
        <time>2017-08-04T07:19:50.000Z</time>
        <extensions>
          <ns3:TrackPointExtension>
            <ns3:atemp>32.0</ns3:atemp>
          </ns3:TrackPointExtension>
        </extensions>
      </trkpt>
      <trkpt lat="31.7001863010227680206298828125" lon="35.00996273942291736602783203125">
        <ele>345.79998779296875</ele>
        <time>2017-08-04T07:19:52.000Z</time>
        <extensions>
          <ns3:TrackPointExtension>
            <ns3:atemp>32.0</ns3:atemp>
          </ns3:TrackPointExtension>
        </extensions>
      </trkpt>
      <trkpt lat="31.7000894062221050262451171875" lon="35.009994171559810638427734375">
        <ele>346</ele>
        <time>2017-08-04T07:19:54.000Z</time>
        <extensions>
          <ns3:TrackPointExtension>
            <ns3:atemp>32.0</ns3:atemp>
          </ns3:TrackPointExtension>
        </extensions>
      </trkpt>
      <trkpt lat="31.69983803294599056243896484375" lon="35.01008511520922183990478515625">
        <ele>345.600006103515625</ele>
        <time>2017-08-04T07:19:59.000Z</time>
        <extensions>
          <ns3:TrackPointExtension>
            <ns3:atemp>32.0</ns3:atemp>
          </ns3:TrackPointExtension>
        </extensions>
      </trkpt>
      <trkpt lat="31.69978505931794643402099609375" lon="35.0101036392152309417724609375">
        <ele>345.399993896484375</ele>
        <time>2017-08-04T07:20:00.000Z</time>
        <extensions>
          <ns3:TrackPointExtension>
            <ns3:atemp>32.0</ns3:atemp>
          </ns3:TrackPointExtension>
        </extensions>
      </trkpt>
      <trkpt lat="31.6996729932725429534912109375" lon="35.01013725064694881439208984375">
        <ele>344.600006103515625</ele>
        <time>2017-08-04T07:20:02.000Z</time>
        <extensions>
          <ns3:TrackPointExtension>
            <ns3:atemp>32.0</ns3:atemp>
          </ns3:TrackPointExtension>
        </extensions>
      </trkpt>
      <trkpt lat="31.699557490646839141845703125" lon="35.01015451736748218536376953125">
        <ele>343.79998779296875</ele>
        <time>2017-08-04T07:20:04.000Z</time>
        <extensions>
          <ns3:TrackPointExtension>
            <ns3:atemp>32.0</ns3:atemp>
          </ns3:TrackPointExtension>
        </extensions>
      </trkpt>
      <trkpt lat="31.69945330359041690826416015625" lon="35.01015074551105499267578125">
        <ele>344.399993896484375</ele>
        <time>2017-08-04T07:20:06.000Z</time>
        <extensions>
          <ns3:TrackPointExtension>
            <ns3:atemp>32.0</ns3:atemp>
          </ns3:TrackPointExtension>
        </extensions>
      </trkpt>
      <trkpt lat="31.6992180235683917999267578125" lon="35.01009969972074031829833984375">
        <ele>344.79998779296875</ele>
        <time>2017-08-04T07:20:11.000Z</time>
        <extensions>
          <ns3:TrackPointExtension>
            <ns3:atemp>32.0</ns3:atemp>
          </ns3:TrackPointExtension>
        </extensions>
      </trkpt>
      <trkpt lat="31.6990188695490360260009765625" lon="35.010108835995197296142578125">
        <ele>344</ele>
        <time>2017-08-04T07:20:15.000Z</time>
        <extensions>
          <ns3:TrackPointExtension>
            <ns3:atemp>32.0</ns3:atemp>
          </ns3:TrackPointExtension>
        </extensions>
      </trkpt>
      <trkpt lat="31.698970086872577667236328125" lon="35.01011730171740055084228515625">
        <ele>344.399993896484375</ele>
        <time>2017-08-04T07:20:16.000Z</time>
        <extensions>
          <ns3:TrackPointExtension>
            <ns3:atemp>32.0</ns3:atemp>
          </ns3:TrackPointExtension>
        </extensions>
      </trkpt>
      <trkpt lat="31.6986742056906223297119140625" lon="35.010192655026912689208984375">
        <ele>345.399993896484375</ele>
        <time>2017-08-04T07:20:22.000Z</time>
        <extensions>
          <ns3:TrackPointExtension>
            <ns3:atemp>32.0</ns3:atemp>
          </ns3:TrackPointExtension>
        </extensions>
      </trkpt>
      <trkpt lat="31.6982943378388881683349609375" lon="35.0102820061147212982177734375">
        <ele>345.20001220703125</ele>
        <time>2017-08-04T07:20:30.000Z</time>
        <extensions>
          <ns3:TrackPointExtension>
            <ns3:atemp>32.0</ns3:atemp>
          </ns3:TrackPointExtension>
        </extensions>
      </trkpt>
      <trkpt lat="31.6980100236833095550537109375" lon="35.0103379972279071807861328125">
        <ele>343.399993896484375</ele>
        <time>2017-08-04T07:20:35.000Z</time>
        <extensions>
          <ns3:TrackPointExtension>
            <ns3:atemp>32.0</ns3:atemp>
          </ns3:TrackPointExtension>
        </extensions>
      </trkpt>
      <trkpt lat="31.697942800819873809814453125" lon="35.01034998334944248199462890625">
        <ele>342.79998779296875</ele>
        <time>2017-08-04T07:20:36.000Z</time>
        <extensions>
          <ns3:TrackPointExtension>
            <ns3:atemp>32.0</ns3:atemp>
          </ns3:TrackPointExtension>
        </extensions>
      </trkpt>
      <trkpt lat="31.69787784107029438018798828125" lon="35.0103633105754852294921875">
        <ele>342.20001220703125</ele>
        <time>2017-08-04T07:20:37.000Z</time>
        <extensions>
          <ns3:TrackPointExtension>
            <ns3:atemp>32.0</ns3:atemp>
          </ns3:TrackPointExtension>
        </extensions>
      </trkpt>
      <trkpt lat="31.697821430861949920654296875" lon="35.0103835947811603546142578125">
        <ele>342</ele>
        <time>2017-08-04T07:20:38.000Z</time>
        <extensions>
          <ns3:TrackPointExtension>
            <ns3:atemp>32.0</ns3:atemp>
          </ns3:TrackPointExtension>
        </extensions>
      </trkpt>
      <trkpt lat="31.697723865509033203125" lon="35.01046766526997089385986328125">
        <ele>341.399993896484375</ele>
        <time>2017-08-04T07:20:40.000Z</time>
        <extensions>
          <ns3:TrackPointExtension>
            <ns3:atemp>32.0</ns3:atemp>
          </ns3:TrackPointExtension>
        </extensions>
      </trkpt>
      <trkpt lat="31.69770282693207263946533203125" lon="35.0105026178061962127685546875">
        <ele>341</ele>
        <time>2017-08-04T07:20:41.000Z</time>
        <extensions>
          <ns3:TrackPointExtension>
            <ns3:atemp>32.0</ns3:atemp>
          </ns3:TrackPointExtension>
        </extensions>
      </trkpt>
      <trkpt lat="31.6976951994001865386962890625" lon="35.0105188786983489990234375">
        <ele>341</ele>
        <time>2017-08-04T07:20:42.000Z</time>
        <extensions>
          <ns3:TrackPointExtension>
            <ns3:atemp>32.0</ns3:atemp>
          </ns3:TrackPointExtension>
        </extensions>
      </trkpt>
      <trkpt lat="31.6977019049227237701416015625" lon="35.01051577739417552947998046875">
        <ele>341</ele>
        <time>2017-08-04T07:20:43.000Z</time>
        <extensions>
          <ns3:TrackPointExtension>
            <ns3:atemp>32.0</ns3:atemp>
          </ns3:TrackPointExtension>
        </extensions>
      </trkpt>
      <trkpt lat="31.69769905507564544677734375" lon="35.0105188786983489990234375">
        <ele>341.399993896484375</ele>
        <time>2017-08-04T07:20:48.000Z</time>
        <extensions>
          <ns3:TrackPointExtension>
            <ns3:atemp>32.0</ns3:atemp>
          </ns3:TrackPointExtension>
        </extensions>
      </trkpt>
      <trkpt lat="31.69769478030502796173095703125" lon="35.0105237402021884918212890625">
        <ele>341.399993896484375</ele>
        <time>2017-08-04T07:20:49.000Z</time>
        <extensions>
          <ns3:TrackPointExtension>
            <ns3:atemp>32.0</ns3:atemp>
          </ns3:TrackPointExtension>
        </extensions>
      </trkpt>
      <trkpt lat="31.697665862739086151123046875" lon="35.01058769412338733673095703125">
        <ele>341.20001220703125</ele>
        <time>2017-08-04T07:20:52.000Z</time>
        <extensions>
          <ns3:TrackPointExtension>
            <ns3:atemp>32.0</ns3:atemp>
          </ns3:TrackPointExtension>
        </extensions>
      </trkpt>
      <trkpt lat="31.6976553015410900115966796875" lon="35.010616444051265716552734375">
        <ele>341</ele>
        <time>2017-08-04T07:20:53.000Z</time>
        <extensions>
          <ns3:TrackPointExtension>
            <ns3:atemp>32.0</ns3:atemp>
          </ns3:TrackPointExtension>
        </extensions>
      </trkpt>
      <trkpt lat="31.69765035621821880340576171875" lon="35.0107078067958354949951171875">
        <ele>340.600006103515625</ele>
        <time>2017-08-04T07:20:57.000Z</time>
        <extensions>
          <ns3:TrackPointExtension>
            <ns3:atemp>32.0</ns3:atemp>
          </ns3:TrackPointExtension>
        </extensions>
      </trkpt>
      <trkpt lat="31.69764004647731781005859375" lon="35.0107185356318950653076171875">
        <ele>340.600006103515625</ele>
        <time>2017-08-04T07:20:58.000Z</time>
        <extensions>
          <ns3:TrackPointExtension>
            <ns3:atemp>32.0</ns3:atemp>
          </ns3:TrackPointExtension>
        </extensions>
      </trkpt>
      <trkpt lat="31.69762403704226016998291015625" lon="35.01073504798114299774169921875">
        <ele>340.600006103515625</ele>
        <time>2017-08-04T07:21:01.000Z</time>
        <extensions>
          <ns3:TrackPointExtension>
            <ns3:atemp>32.0</ns3:atemp>
          </ns3:TrackPointExtension>
        </extensions>
      </trkpt>
      <trkpt lat="31.697619594633579254150390625" lon="35.01073814928531646728515625">
        <ele>340.600006103515625</ele>
        <time>2017-08-04T07:21:11.000Z</time>
        <extensions>
          <ns3:TrackPointExtension>
            <ns3:atemp>32.0</ns3:atemp>
          </ns3:TrackPointExtension>
        </extensions>
      </trkpt>
      <trkpt lat="31.6976143978536128997802734375" lon="35.01073789782822132110595703125">
        <ele>340.79998779296875</ele>
        <time>2017-08-04T07:21:17.000Z</time>
        <extensions>
          <ns3:TrackPointExtension>
            <ns3:atemp>32.0</ns3:atemp>
          </ns3:TrackPointExtension>
        </extensions>
      </trkpt>
      <trkpt lat="31.6975795291364192962646484375" lon="35.01070353202521800994873046875">
        <ele>340.20001220703125</ele>
        <time>2017-08-04T07:21:20.000Z</time>
        <extensions>
          <ns3:TrackPointExtension>
            <ns3:atemp>32.0</ns3:atemp>
          </ns3:TrackPointExtension>
        </extensions>
      </trkpt>
      <trkpt lat="31.69754541479051113128662109375" lon="35.0106679089367389678955078125">
        <ele>340</ele>
        <time>2017-08-04T07:21:22.000Z</time>
        <extensions>
          <ns3:TrackPointExtension>
            <ns3:atemp>32.0</ns3:atemp>
          </ns3:TrackPointExtension>
        </extensions>
      </trkpt>
      <trkpt lat="31.69752965681254863739013671875" lon="35.0106357224285602569580078125">
        <ele>339.79998779296875</ele>
        <time>2017-08-04T07:21:23.000Z</time>
        <extensions>
          <ns3:TrackPointExtension>
            <ns3:atemp>32.0</ns3:atemp>
          </ns3:TrackPointExtension>
        </extensions>
      </trkpt>
      <trkpt lat="31.6975101269781589508056640625" lon="35.01060797832906246185302734375">
        <ele>339.600006103515625</ele>
        <time>2017-08-04T07:21:24.000Z</time>
        <extensions>
          <ns3:TrackPointExtension>
            <ns3:atemp>32.0</ns3:atemp>
          </ns3:TrackPointExtension>
        </extensions>
      </trkpt>
      <trkpt lat="31.69740593992173671722412109375" lon="35.01049012877047061920166015625">
        <ele>338.79998779296875</ele>
        <time>2017-08-04T07:21:28.000Z</time>
        <extensions>
          <ns3:TrackPointExtension>
            <ns3:atemp>32.0</ns3:atemp>
          </ns3:TrackPointExtension>
        </extensions>
      </trkpt>
      <trkpt lat="31.6973079554736614227294921875" lon="35.01042558811604976654052734375">
        <ele>339.20001220703125</ele>
        <time>2017-08-04T07:21:32.000Z</time>
        <extensions>
          <ns3:TrackPointExtension>
            <ns3:atemp>32.0</ns3:atemp>
          </ns3:TrackPointExtension>
        </extensions>
      </trkpt>
      <trkpt lat="31.69726294465363025665283203125" lon="35.01043112017214298248291015625">
        <ele>338.600006103515625</ele>
        <time>2017-08-04T07:21:33.000Z</time>
        <extensions>
          <ns3:TrackPointExtension>
            <ns3:atemp>32.0</ns3:atemp>
          </ns3:TrackPointExtension>
        </extensions>
      </trkpt>
      <trkpt lat="31.697148866951465606689453125" lon="35.0104456208646297454833984375">
        <ele>338</ele>
        <time>2017-08-04T07:21:36.000Z</time>
        <extensions>
          <ns3:TrackPointExtension>
            <ns3:atemp>32.0</ns3:atemp>
          </ns3:TrackPointExtension>
        </extensions>
      </trkpt>
      <trkpt lat="31.69710435904562473297119140625" lon="35.01048468053340911865234375">
        <ele>338</ele>
        <time>2017-08-04T07:21:39.000Z</time>
        <extensions>
          <ns3:TrackPointExtension>
            <ns3:atemp>32.0</ns3:atemp>
          </ns3:TrackPointExtension>
        </extensions>
      </trkpt>
      <trkpt lat="31.6970779560506343841552734375" lon="35.01047822646796703338623046875">
        <ele>337.20001220703125</ele>
        <time>2017-08-04T07:21:41.000Z</time>
        <extensions>
          <ns3:TrackPointExtension>
            <ns3:atemp>32.0</ns3:atemp>
          </ns3:TrackPointExtension>
        </extensions>
      </trkpt>
      <trkpt lat="31.69708206318318843841552734375" lon="35.0104786455631256103515625">
        <ele>337.20001220703125</ele>
        <time>2017-08-04T07:21:42.000Z</time>
        <extensions>
          <ns3:TrackPointExtension>
            <ns3:atemp>32.0</ns3:atemp>
          </ns3:TrackPointExtension>
        </extensions>
      </trkpt>
      <trkpt lat="31.69706982560455799102783203125" lon="35.010476298630237579345703125">
        <ele>337.20001220703125</ele>
        <time>2017-08-04T07:21:50.000Z</time>
        <extensions>
          <ns3:TrackPointExtension>
            <ns3:atemp>33.0</ns3:atemp>
          </ns3:TrackPointExtension>
        </extensions>
      </trkpt>
      <trkpt lat="31.69704057276248931884765625" lon="35.01046028919517993927001953125">
        <ele>337.399993896484375</ele>
        <time>2017-08-04T07:21:55.000Z</time>
        <extensions>
          <ns3:TrackPointExtension>
            <ns3:atemp>33.0</ns3:atemp>
          </ns3:TrackPointExtension>
        </extensions>
      </trkpt>
      <trkpt lat="31.6970186121761798858642578125" lon="35.010446794331073760986328125">
        <ele>337.20001220703125</ele>
        <time>2017-08-04T07:21:57.000Z</time>
        <extensions>
          <ns3:TrackPointExtension>
            <ns3:atemp>33.0</ns3:atemp>
          </ns3:TrackPointExtension>
        </extensions>
      </trkpt>
      <trkpt lat="31.69675349257886409759521484375" lon="35.01023012213408946990966796875">
        <ele>336.20001220703125</ele>
        <time>2017-08-04T07:22:22.000Z</time>
        <extensions>
          <ns3:TrackPointExtension>
            <ns3:atemp>33.0</ns3:atemp>
          </ns3:TrackPointExtension>
        </extensions>
      </trkpt>
      <trkpt lat="31.69674611650407314300537109375" lon="35.01021302305161952972412109375">
        <ele>336.20001220703125</ele>
        <time>2017-08-04T07:22:23.000Z</time>
        <extensions>
          <ns3:TrackPointExtension>
            <ns3:atemp>33.0</ns3:atemp>
          </ns3:TrackPointExtension>
        </extensions>
      </trkpt>
      <trkpt lat="31.696737818419933319091796875" lon="35.010143034160137176513671875">
        <ele>336</ele>
        <time>2017-08-04T07:22:27.000Z</time>
        <extensions>
          <ns3:TrackPointExtension>
            <ns3:atemp>33.0</ns3:atemp>
          </ns3:TrackPointExtension>
        </extensions>
      </trkpt>
      <trkpt lat="31.69676958583295345306396484375" lon="35.01006969250738620758056640625">
        <ele>336.600006103515625</ele>
        <time>2017-08-04T07:22:31.000Z</time>
        <extensions>
          <ns3:TrackPointExtension>
            <ns3:atemp>33.0</ns3:atemp>
          </ns3:TrackPointExtension>
        </extensions>
      </trkpt>
      <trkpt lat="31.69676539488136768341064453125" lon="35.01003046520054340362548828125">
        <ele>337.20001220703125</ele>
        <time>2017-08-04T07:22:33.000Z</time>
        <extensions>
          <ns3:TrackPointExtension>
            <ns3:atemp>33.0</ns3:atemp>
          </ns3:TrackPointExtension>
        </extensions>
      </trkpt>
      <trkpt lat="31.69675466604530811309814453125" lon="35.0099430419504642486572265625">
        <ele>337</ele>
        <time>2017-08-04T07:22:36.000Z</time>
        <extensions>
          <ns3:TrackPointExtension>
            <ns3:atemp>33.0</ns3:atemp>
          </ns3:TrackPointExtension>
        </extensions>
      </trkpt>
      <trkpt lat="31.69675617478787899017333984375" lon="35.00991596840322017669677734375">
        <ele>337.20001220703125</ele>
        <time>2017-08-04T07:22:37.000Z</time>
        <extensions>
          <ns3:TrackPointExtension>
            <ns3:atemp>33.0</ns3:atemp>
          </ns3:TrackPointExtension>
        </extensions>
      </trkpt>
      <trkpt lat="31.69675516895949840545654296875" lon="35.0098893977701663970947265625">
        <ele>337.399993896484375</ele>
        <time>2017-08-04T07:22:38.000Z</time>
        <extensions>
          <ns3:TrackPointExtension>
            <ns3:atemp>33.0</ns3:atemp>
          </ns3:TrackPointExtension>
        </extensions>
      </trkpt>
      <trkpt lat="31.696744859218597412109375" lon="35.00980499200522899627685546875">
        <ele>338</ele>
        <time>2017-08-04T07:22:42.000Z</time>
        <extensions>
          <ns3:TrackPointExtension>
            <ns3:atemp>33.0</ns3:atemp>
          </ns3:TrackPointExtension>
        </extensions>
      </trkpt>
      <trkpt lat="31.6967175342142581939697265625" lon="35.00978219322860240936279296875">
        <ele>337.79998779296875</ele>
        <time>2017-08-04T07:22:44.000Z</time>
        <extensions>
          <ns3:TrackPointExtension>
            <ns3:atemp>33.0</ns3:atemp>
          </ns3:TrackPointExtension>
        </extensions>
      </trkpt>
      <trkpt lat="31.6966952383518218994140625" lon="35.00977045856416225433349609375">
        <ele>337.79998779296875</ele>
        <time>2017-08-04T07:22:46.000Z</time>
        <extensions>
          <ns3:TrackPointExtension>
            <ns3:atemp>33.0</ns3:atemp>
          </ns3:TrackPointExtension>
        </extensions>
      </trkpt>
      <trkpt lat="31.69659138657152652740478515625" lon="35.009780265390872955322265625">
        <ele>337.399993896484375</ele>
        <time>2017-08-04T07:22:52.000Z</time>
        <extensions>
          <ns3:TrackPointExtension>
            <ns3:atemp>33.0</ns3:atemp>
          </ns3:TrackPointExtension>
        </extensions>
      </trkpt>
      <trkpt lat="31.69648694805800914764404296875" lon="35.0098330713808536529541015625">
        <ele>337</ele>
        <time>2017-08-04T07:22:58.000Z</time>
        <extensions>
          <ns3:TrackPointExtension>
            <ns3:atemp>33.0</ns3:atemp>
          </ns3:TrackPointExtension>
        </extensions>
      </trkpt>
      <trkpt lat="31.6963396780192852020263671875" lon="35.00988864339888095855712890625">
        <ele>336.20001220703125</ele>
        <time>2017-08-04T07:23:04.000Z</time>
        <extensions>
          <ns3:TrackPointExtension>
            <ns3:atemp>33.0</ns3:atemp>
          </ns3:TrackPointExtension>
        </extensions>
      </trkpt>
      <trkpt lat="31.69611294753849506378173828125" lon="35.0099839456379413604736328125">
        <ele>335.399993896484375</ele>
        <time>2017-08-04T07:23:11.000Z</time>
        <extensions>
          <ns3:TrackPointExtension>
            <ns3:atemp>33.0</ns3:atemp>
          </ns3:TrackPointExtension>
        </extensions>
      </trkpt>
      <trkpt lat="31.69603751040995121002197265625" lon="35.0100017152726650238037109375">
        <ele>335.20001220703125</ele>
        <time>2017-08-04T07:23:13.000Z</time>
        <extensions>
          <ns3:TrackPointExtension>
            <ns3:atemp>33.0</ns3:atemp>
          </ns3:TrackPointExtension>
        </extensions>
      </trkpt>
      <trkpt lat="31.695867441594600677490234375" lon="35.01003029756247997283935546875">
        <ele>334.399993896484375</ele>
        <time>2017-08-04T07:23:17.000Z</time>
        <extensions>
          <ns3:TrackPointExtension>
            <ns3:atemp>33.0</ns3:atemp>
          </ns3:TrackPointExtension>
        </extensions>
      </trkpt>
      <trkpt lat="31.69582343660295009613037109375" lon="35.01003742218017578125">
        <ele>334.20001220703125</ele>
        <time>2017-08-04T07:23:18.000Z</time>
        <extensions>
          <ns3:TrackPointExtension>
            <ns3:atemp>33.0</ns3:atemp>
          </ns3:TrackPointExtension>
        </extensions>
      </trkpt>
      <trkpt lat="31.69554582796990871429443359375" lon="35.01006625592708587646484375">
        <ele>334</ele>
        <time>2017-08-04T07:23:24.000Z</time>
        <extensions>
          <ns3:TrackPointExtension>
            <ns3:atemp>33.0</ns3:atemp>
          </ns3:TrackPointExtension>
        </extensions>
      </trkpt>
      <trkpt lat="31.6952912695705890655517578125" lon="35.01012333668768405914306640625">
        <ele>333.20001220703125</ele>
        <time>2017-08-04T07:23:29.000Z</time>
        <extensions>
          <ns3:TrackPointExtension>
            <ns3:atemp>33.0</ns3:atemp>
          </ns3:TrackPointExtension>
        </extensions>
      </trkpt>
      <trkpt lat="31.69518984854221343994140625" lon="35.01013104803860187530517578125">
        <ele>332.399993896484375</ele>
        <time>2017-08-04T07:23:31.000Z</time>
        <extensions>
          <ns3:TrackPointExtension>
            <ns3:atemp>33.0</ns3:atemp>
          </ns3:TrackPointExtension>
        </extensions>
      </trkpt>
      <trkpt lat="31.695041991770267486572265625" lon="35.0101307965815067291259765625">
        <ele>332</ele>
        <time>2017-08-04T07:23:34.000Z</time>
        <extensions>
          <ns3:TrackPointExtension>
            <ns3:atemp>33.0</ns3:atemp>
          </ns3:TrackPointExtension>
        </extensions>
      </trkpt>
      <trkpt lat="31.69490159489214420318603515625" lon="35.0101406872272491455078125">
        <ele>332.20001220703125</ele>
        <time>2017-08-04T07:23:37.000Z</time>
        <extensions>
          <ns3:TrackPointExtension>
            <ns3:atemp>33.0</ns3:atemp>
          </ns3:TrackPointExtension>
        </extensions>
      </trkpt>
      <trkpt lat="31.69476195238530635833740234375" lon="35.0101519189774990081787109375">
        <ele>331.399993896484375</ele>
        <time>2017-08-04T07:23:40.000Z</time>
        <extensions>
          <ns3:TrackPointExtension>
            <ns3:atemp>33.0</ns3:atemp>
          </ns3:TrackPointExtension>
        </extensions>
      </trkpt>
      <trkpt lat="31.69468425214290618896484375" lon="35.0101433694362640380859375">
        <ele>331.79998779296875</ele>
        <time>2017-08-04T07:23:42.000Z</time>
        <extensions>
          <ns3:TrackPointExtension>
            <ns3:atemp>33.0</ns3:atemp>
          </ns3:TrackPointExtension>
        </extensions>
      </trkpt>
      <trkpt lat="31.69458241201937198638916015625" lon="35.0101096741855144500732421875">
        <ele>331.79998779296875</ele>
        <time>2017-08-04T07:23:45.000Z</time>
        <extensions>
          <ns3:TrackPointExtension>
            <ns3:atemp>33.0</ns3:atemp>
          </ns3:TrackPointExtension>
        </extensions>
      </trkpt>
      <trkpt lat="31.694463975727558135986328125" lon="35.0100768171250820159912109375">
        <ele>331.399993896484375</ele>
        <time>2017-08-04T07:23:49.000Z</time>
        <extensions>
          <ns3:TrackPointExtension>
            <ns3:atemp>33.0</ns3:atemp>
          </ns3:TrackPointExtension>
        </extensions>
      </trkpt>
      <trkpt lat="31.6943045519292354583740234375" lon="35.010037757456302642822265625">
        <ele>331.79998779296875</ele>
        <time>2017-08-04T07:23:55.000Z</time>
        <extensions>
          <ns3:TrackPointExtension>
            <ns3:atemp>33.0</ns3:atemp>
          </ns3:TrackPointExtension>
        </extensions>
      </trkpt>
      <trkpt lat="31.69416029937565326690673828125" lon="35.01000347547233104705810546875">
        <ele>331.79998779296875</ele>
        <time>2017-08-04T07:24:00.000Z</time>
        <extensions>
          <ns3:TrackPointExtension>
            <ns3:atemp>33.0</ns3:atemp>
          </ns3:TrackPointExtension>
        </extensions>
      </trkpt>
      <trkpt lat="31.693959049880504608154296875" lon="35.00994966365396976470947265625">
        <ele>331.600006103515625</ele>
        <time>2017-08-04T07:24:06.000Z</time>
        <extensions>
          <ns3:TrackPointExtension>
            <ns3:atemp>34.0</ns3:atemp>
          </ns3:TrackPointExtension>
        </extensions>
      </trkpt>
      <trkpt lat="31.69384011067450046539306640625" lon="35.00984069891273975372314453125">
        <ele>331.600006103515625</ele>
        <time>2017-08-04T07:24:11.000Z</time>
        <extensions>
          <ns3:TrackPointExtension>
            <ns3:atemp>34.0</ns3:atemp>
          </ns3:TrackPointExtension>
        </extensions>
      </trkpt>
      <trkpt lat="31.6938227601349353790283203125" lon="35.0097874738276004791259765625">
        <ele>331</ele>
        <time>2017-08-04T07:24:13.000Z</time>
        <extensions>
          <ns3:TrackPointExtension>
            <ns3:atemp>34.0</ns3:atemp>
          </ns3:TrackPointExtension>
        </extensions>
      </trkpt>
      <trkpt lat="31.6937788389623165130615234375" lon="35.0097070075571537017822265625">
        <ele>331</ele>
        <time>2017-08-04T07:24:16.000Z</time>
        <extensions>
          <ns3:TrackPointExtension>
            <ns3:atemp>34.0</ns3:atemp>
          </ns3:TrackPointExtension>
        </extensions>
      </trkpt>
      <trkpt lat="31.69375780038535594940185546875" lon="35.0095479190349578857421875">
        <ele>331</ele>
        <time>2017-08-04T07:24:21.000Z</time>
        <extensions>
          <ns3:TrackPointExtension>
            <ns3:atemp>34.0</ns3:atemp>
          </ns3:TrackPointExtension>
        </extensions>
      </trkpt>
      <trkpt lat="31.69381328858435153961181640625" lon="35.009408108890056610107421875">
        <ele>331.79998779296875</ele>
        <time>2017-08-04T07:24:26.000Z</time>
        <extensions>
          <ns3:TrackPointExtension>
            <ns3:atemp>34.0</ns3:atemp>
          </ns3:TrackPointExtension>
        </extensions>
      </trkpt>
      <trkpt lat="31.693837344646453857421875" lon="35.00934247858822345733642578125">
        <ele>332.399993896484375</ele>
        <time>2017-08-04T07:24:28.000Z</time>
        <extensions>
          <ns3:TrackPointExtension>
            <ns3:atemp>34.0</ns3:atemp>
          </ns3:TrackPointExtension>
        </extensions>
      </trkpt>
      <trkpt lat="31.69386358000338077545166015625" lon="35.00921406783163547515869140625">
        <ele>333.20001220703125</ele>
        <time>2017-08-04T07:24:32.000Z</time>
        <extensions>
          <ns3:TrackPointExtension>
            <ns3:atemp>34.0</ns3:atemp>
          </ns3:TrackPointExtension>
        </extensions>
      </trkpt>
      <trkpt lat="31.69386575929820537567138671875" lon="35.009180791676044464111328125">
        <ele>333.399993896484375</ele>
        <time>2017-08-04T07:24:33.000Z</time>
        <extensions>
          <ns3:TrackPointExtension>
            <ns3:atemp>34.0</ns3:atemp>
          </ns3:TrackPointExtension>
        </extensions>
      </trkpt>
      <trkpt lat="31.6938789188861846923828125" lon="35.00899831764400005340576171875">
        <ele>334.20001220703125</ele>
        <time>2017-08-04T07:24:39.000Z</time>
        <extensions>
          <ns3:TrackPointExtension>
            <ns3:atemp>34.0</ns3:atemp>
          </ns3:TrackPointExtension>
        </extensions>
      </trkpt>
      <trkpt lat="31.69387883506715297698974609375" lon="35.00887627713382244110107421875">
        <ele>334.399993896484375</ele>
        <time>2017-08-04T07:24:44.000Z</time>
        <extensions>
          <ns3:TrackPointExtension>
            <ns3:atemp>34.0</ns3:atemp>
          </ns3:TrackPointExtension>
        </extensions>
      </trkpt>
      <trkpt lat="31.69387288391590118408203125" lon="35.00885314308106899261474609375">
        <ele>334.399993896484375</ele>
        <time>2017-08-04T07:24:45.000Z</time>
        <extensions>
          <ns3:TrackPointExtension>
            <ns3:atemp>34.0</ns3:atemp>
          </ns3:TrackPointExtension>
        </extensions>
      </trkpt>
      <trkpt lat="31.69387296773493289947509765625" lon="35.0087652169167995452880859375">
        <ele>335.399993896484375</ele>
        <time>2017-08-04T07:24:49.000Z</time>
        <extensions>
          <ns3:TrackPointExtension>
            <ns3:atemp>34.0</ns3:atemp>
          </ns3:TrackPointExtension>
        </extensions>
      </trkpt>
      <trkpt lat="31.69386844150722026824951171875" lon="35.0087271630764007568359375">
        <ele>335.600006103515625</ele>
        <time>2017-08-04T07:24:51.000Z</time>
        <extensions>
          <ns3:TrackPointExtension>
            <ns3:atemp>34.0</ns3:atemp>
          </ns3:TrackPointExtension>
        </extensions>
      </trkpt>
      <trkpt lat="31.6938784159719944000244140625" lon="35.00869028270244598388671875">
        <ele>335.600006103515625</ele>
        <time>2017-08-04T07:24:53.000Z</time>
        <extensions>
          <ns3:TrackPointExtension>
            <ns3:atemp>34.0</ns3:atemp>
          </ns3:TrackPointExtension>
        </extensions>
      </trkpt>
      <trkpt lat="31.69388067908585071563720703125" lon="35.00862565822899341583251953125">
        <ele>336</ele>
        <time>2017-08-04T07:24:56.000Z</time>
        <extensions>
          <ns3:TrackPointExtension>
            <ns3:atemp>34.0</ns3:atemp>
          </ns3:TrackPointExtension>
        </extensions>
      </trkpt>
      <trkpt lat="31.693899370729923248291015625" lon="35.008565224707126617431640625">
        <ele>336.399993896484375</ele>
        <time>2017-08-04T07:24:59.000Z</time>
        <extensions>
          <ns3:TrackPointExtension>
            <ns3:atemp>34.0</ns3:atemp>
          </ns3:TrackPointExtension>
        </extensions>
      </trkpt>
      <trkpt lat="31.69391177594661712646484375" lon="35.0084976665675640106201171875">
        <ele>337.20001220703125</ele>
        <time>2017-08-04T07:25:02.000Z</time>
        <extensions>
          <ns3:TrackPointExtension>
            <ns3:atemp>34.0</ns3:atemp>
          </ns3:TrackPointExtension>
        </extensions>
      </trkpt>
      <trkpt lat="31.69391789473593235015869140625" lon="35.00847344286739826202392578125">
        <ele>337.600006103515625</ele>
        <time>2017-08-04T07:25:03.000Z</time>
        <extensions>
          <ns3:TrackPointExtension>
            <ns3:atemp>34.0</ns3:atemp>
          </ns3:TrackPointExtension>
        </extensions>
      </trkpt>
      <trkpt lat="31.69394639320671558380126953125" lon="35.00838342122733592987060546875">
        <ele>338.600006103515625</ele>
        <time>2017-08-04T07:25:07.000Z</time>
        <extensions>
          <ns3:TrackPointExtension>
            <ns3:atemp>34.0</ns3:atemp>
          </ns3:TrackPointExtension>
        </extensions>
      </trkpt>
      <trkpt lat="31.6939608938992023468017578125" lon="35.00832441262900829315185546875">
        <ele>339.79998779296875</ele>
        <time>2017-08-04T07:25:10.000Z</time>
        <extensions>
          <ns3:TrackPointExtension>
            <ns3:atemp>34.0</ns3:atemp>
          </ns3:TrackPointExtension>
        </extensions>
      </trkpt>
      <trkpt lat="31.693969108164310455322265625" lon="35.00824444927275180816650390625">
        <ele>340.79998779296875</ele>
        <time>2017-08-04T07:25:15.000Z</time>
        <extensions>
          <ns3:TrackPointExtension>
            <ns3:atemp>34.0</ns3:atemp>
          </ns3:TrackPointExtension>
        </extensions>
      </trkpt>
      <trkpt lat="31.6939749754965305328369140625" lon="35.008226595818996429443359375">
        <ele>341.20001220703125</ele>
        <time>2017-08-04T07:25:16.000Z</time>
        <extensions>
          <ns3:TrackPointExtension>
            <ns3:atemp>34.0</ns3:atemp>
          </ns3:TrackPointExtension>
        </extensions>
      </trkpt>
      <trkpt lat="31.6940098442137241363525390625" lon="35.00816280953586101531982421875">
        <ele>342</ele>
        <time>2017-08-04T07:25:20.000Z</time>
        <extensions>
          <ns3:TrackPointExtension>
            <ns3:atemp>34.0</ns3:atemp>
          </ns3:TrackPointExtension>
        </extensions>
      </trkpt>
      <trkpt lat="31.69402015395462512969970703125" lon="35.00814604572951793670654296875">
        <ele>342.20001220703125</ele>
        <time>2017-08-04T07:25:21.000Z</time>
        <extensions>
          <ns3:TrackPointExtension>
            <ns3:atemp>34.0</ns3:atemp>
          </ns3:TrackPointExtension>
        </extensions>
      </trkpt>
      <trkpt lat="31.694040857255458831787109375" lon="35.0080641545355319976806640625">
        <ele>343.20001220703125</ele>
        <time>2017-08-04T07:25:25.000Z</time>
        <extensions>
          <ns3:TrackPointExtension>
            <ns3:atemp>34.0</ns3:atemp>
          </ns3:TrackPointExtension>
        </extensions>
      </trkpt>
      <trkpt lat="31.694047562777996063232421875" lon="35.00804345123469829559326171875">
        <ele>343.20001220703125</ele>
        <time>2017-08-04T07:25:26.000Z</time>
        <extensions>
          <ns3:TrackPointExtension>
            <ns3:atemp>34.0</ns3:atemp>
          </ns3:TrackPointExtension>
        </extensions>
      </trkpt>
      <trkpt lat="31.694091148674488067626953125" lon="35.00790716148912906646728515625">
        <ele>344.399993896484375</ele>
        <time>2017-08-04T07:25:33.000Z</time>
        <extensions>
          <ns3:TrackPointExtension>
            <ns3:atemp>34.0</ns3:atemp>
          </ns3:TrackPointExtension>
        </extensions>
      </trkpt>
      <trkpt lat="31.6941114328801631927490234375" lon="35.0078509189188480377197265625">
        <ele>345.20001220703125</ele>
        <time>2017-08-04T07:25:36.000Z</time>
        <extensions>
          <ns3:TrackPointExtension>
            <ns3:atemp>34.0</ns3:atemp>
          </ns3:TrackPointExtension>
        </extensions>
      </trkpt>
      <trkpt lat="31.69412073679268360137939453125" lon="35.00782032497227191925048828125">
        <ele>345.600006103515625</ele>
        <time>2017-08-04T07:25:38.000Z</time>
        <extensions>
          <ns3:TrackPointExtension>
            <ns3:atemp>34.0</ns3:atemp>
          </ns3:TrackPointExtension>
        </extensions>
      </trkpt>
      <trkpt lat="31.69414320029318332672119140625" lon="35.00775427557528018951416015625">
        <ele>346.79998779296875</ele>
        <time>2017-08-04T07:25:42.000Z</time>
        <extensions>
          <ns3:TrackPointExtension>
            <ns3:atemp>34.0</ns3:atemp>
          </ns3:TrackPointExtension>
        </extensions>
      </trkpt>
      <trkpt lat="31.6941553540527820587158203125" lon="35.0077064149081707000732421875">
        <ele>347.399993896484375</ele>
        <time>2017-08-04T07:25:45.000Z</time>
        <extensions>
          <ns3:TrackPointExtension>
            <ns3:atemp>34.0</ns3:atemp>
          </ns3:TrackPointExtension>
        </extensions>
      </trkpt>
      <trkpt lat="31.694172956049442291259765625" lon="35.00765629112720489501953125">
        <ele>348</ele>
        <time>2017-08-04T07:25:48.000Z</time>
        <extensions>
          <ns3:TrackPointExtension>
            <ns3:atemp>34.0</ns3:atemp>
          </ns3:TrackPointExtension>
        </extensions>
      </trkpt>
      <trkpt lat="31.69418829493224620819091796875" lon="35.007570125162601470947265625">
        <ele>348.79998779296875</ele>
        <time>2017-08-04T07:25:53.000Z</time>
        <extensions>
          <ns3:TrackPointExtension>
            <ns3:atemp>34.0</ns3:atemp>
          </ns3:TrackPointExtension>
        </extensions>
      </trkpt>
      <trkpt lat="31.694204472005367279052734375" lon="35.00752486288547515869140625">
        <ele>349</ele>
        <time>2017-08-04T07:25:56.000Z</time>
        <extensions>
          <ns3:TrackPointExtension>
            <ns3:atemp>34.0</ns3:atemp>
          </ns3:TrackPointExtension>
        </extensions>
      </trkpt>
      <trkpt lat="31.69421779923141002655029296875" lon="35.0074351765215396881103515625">
        <ele>350.20001220703125</ele>
        <time>2017-08-04T07:26:01.000Z</time>
        <extensions>
          <ns3:TrackPointExtension>
            <ns3:atemp>34.0</ns3:atemp>
          </ns3:TrackPointExtension>
        </extensions>
      </trkpt>
      <trkpt lat="31.69416381977498531341552734375" lon="35.007318668067455291748046875">
        <ele>350.399993896484375</ele>
        <time>2017-08-04T07:26:07.000Z</time>
        <extensions>
          <ns3:TrackPointExtension>
            <ns3:atemp>34.0</ns3:atemp>
          </ns3:TrackPointExtension>
        </extensions>
      </trkpt>
      <trkpt lat="31.69407363049685955047607421875" lon="35.007191933691501617431640625">
        <ele>351</ele>
        <time>2017-08-04T07:26:14.000Z</time>
        <extensions>
          <ns3:TrackPointExtension>
            <ns3:atemp>34.0</ns3:atemp>
          </ns3:TrackPointExtension>
        </extensions>
      </trkpt>
      <trkpt lat="31.69405871070921421051025390625" lon="35.0071796961128711700439453125">
        <ele>351.20001220703125</ele>
        <time>2017-08-04T07:26:15.000Z</time>
        <extensions>
          <ns3:TrackPointExtension>
            <ns3:atemp>34.0</ns3:atemp>
          </ns3:TrackPointExtension>
        </extensions>
      </trkpt>
      <trkpt lat="31.69398796744644641876220703125" lon="35.00712781213223934173583984375">
        <ele>351.600006103515625</ele>
        <time>2017-08-04T07:26:19.000Z</time>
        <extensions>
          <ns3:TrackPointExtension>
            <ns3:atemp>34.0</ns3:atemp>
          </ns3:TrackPointExtension>
        </extensions>
      </trkpt>
      <trkpt lat="31.6938596405088901519775390625" lon="35.0070482678711414337158203125">
        <ele>351.600006103515625</ele>
        <time>2017-08-04T07:26:25.000Z</time>
        <extensions>
          <ns3:TrackPointExtension>
            <ns3:atemp>34.0</ns3:atemp>
          </ns3:TrackPointExtension>
        </extensions>
      </trkpt>
      <trkpt lat="31.69368454255163669586181640625" lon="35.00691466033458709716796875">
        <ele>351.600006103515625</ele>
        <time>2017-08-04T07:26:33.000Z</time>
        <extensions>
          <ns3:TrackPointExtension>
            <ns3:atemp>34.0</ns3:atemp>
          </ns3:TrackPointExtension>
        </extensions>
      </trkpt>
      <trkpt lat="31.693554036319255828857421875" lon="35.00679857097566127777099609375">
        <ele>351.600006103515625</ele>
        <time>2017-08-04T07:26:39.000Z</time>
        <extensions>
          <ns3:TrackPointExtension>
            <ns3:atemp>34.0</ns3:atemp>
          </ns3:TrackPointExtension>
        </extensions>
      </trkpt>
      <trkpt lat="31.69346929527819156646728515625" lon="35.006716512143611907958984375">
        <ele>351.399993896484375</ele>
        <time>2017-08-04T07:26:44.000Z</time>
        <extensions>
          <ns3:TrackPointExtension>
            <ns3:atemp>34.0</ns3:atemp>
          </ns3:TrackPointExtension>
        </extensions>
      </trkpt>
      <trkpt lat="31.69340752065181732177734375" lon="35.0066618621349334716796875">
        <ele>351.20001220703125</ele>
        <time>2017-08-04T07:26:50.000Z</time>
        <extensions>
          <ns3:TrackPointExtension>
            <ns3:atemp>34.0</ns3:atemp>
          </ns3:TrackPointExtension>
        </extensions>
      </trkpt>
      <trkpt lat="31.69340752065181732177734375" lon="35.0066618621349334716796875">
        <ele>351</ele>
        <time>2017-08-04T07:27:03.000Z</time>
        <extensions>
          <ns3:TrackPointExtension>
            <ns3:atemp>34.0</ns3:atemp>
          </ns3:TrackPointExtension>
        </extensions>
      </trkpt>
      <trkpt lat="31.69340752065181732177734375" lon="35.0066618621349334716796875">
        <ele>351.20001220703125</ele>
        <time>2017-08-04T07:27:18.000Z</time>
        <extensions>
          <ns3:TrackPointExtension>
            <ns3:atemp>34.0</ns3:atemp>
          </ns3:TrackPointExtension>
        </extensions>
      </trkpt>
      <trkpt lat="31.6934117116034030914306640625" lon="35.00665540806949138641357421875">
        <ele>351</ele>
        <time>2017-08-04T07:27:32.000Z</time>
        <extensions>
          <ns3:TrackPointExtension>
            <ns3:atemp>34.0</ns3:atemp>
          </ns3:TrackPointExtension>
        </extensions>
      </trkpt>
      <trkpt lat="31.6934117116034030914306640625" lon="35.00665540806949138641357421875">
        <ele>351</ele>
        <time>2017-08-04T07:27:50.000Z</time>
        <extensions>
          <ns3:TrackPointExtension>
            <ns3:atemp>35.0</ns3:atemp>
          </ns3:TrackPointExtension>
        </extensions>
      </trkpt>
      <trkpt lat="31.6934117116034030914306640625" lon="35.00665540806949138641357421875">
        <ele>351</ele>
        <time>2017-08-04T07:28:03.000Z</time>
        <extensions>
          <ns3:TrackPointExtension>
            <ns3:atemp>35.0</ns3:atemp>
          </ns3:TrackPointExtension>
        </extensions>
      </trkpt>
      <trkpt lat="31.69340928085148334503173828125" lon="35.0066502951085567474365234375">
        <ele>351</ele>
        <time>2017-08-04T07:28:04.000Z</time>
        <extensions>
          <ns3:TrackPointExtension>
            <ns3:atemp>35.0</ns3:atemp>
          </ns3:TrackPointExtension>
        </extensions>
      </trkpt>
      <trkpt lat="31.69335194863379001617431640625" lon="35.00656689517199993133544921875">
        <ele>350.399993896484375</ele>
        <time>2017-08-04T07:28:08.000Z</time>
        <extensions>
          <ns3:TrackPointExtension>
            <ns3:atemp>35.0</ns3:atemp>
          </ns3:TrackPointExtension>
        </extensions>
      </trkpt>
      <trkpt lat="31.6932645253837108612060546875" lon="35.00649766065180301666259765625">
        <ele>350.20001220703125</ele>
        <time>2017-08-04T07:28:11.000Z</time>
        <extensions>
          <ns3:TrackPointExtension>
            <ns3:atemp>35.0</ns3:atemp>
          </ns3:TrackPointExtension>
        </extensions>
      </trkpt>
      <trkpt lat="31.6932309977710247039794921875" lon="35.0064647197723388671875">
        <ele>349.79998779296875</ele>
        <time>2017-08-04T07:28:12.000Z</time>
        <extensions>
          <ns3:TrackPointExtension>
            <ns3:atemp>35.0</ns3:atemp>
          </ns3:TrackPointExtension>
        </extensions>
      </trkpt>
      <trkpt lat="31.6931981407105922698974609375" lon="35.0064296834170818328857421875">
        <ele>349.600006103515625</ele>
        <time>2017-08-04T07:28:13.000Z</time>
        <extensions>
          <ns3:TrackPointExtension>
            <ns3:atemp>35.0</ns3:atemp>
          </ns3:TrackPointExtension>
        </extensions>
      </trkpt>
      <trkpt lat="31.69316285289824008941650390625" lon="35.00639221630990505218505859375">
        <ele>349.20001220703125</ele>
        <time>2017-08-04T07:28:14.000Z</time>
        <extensions>
          <ns3:TrackPointExtension>
            <ns3:atemp>35.0</ns3:atemp>
          </ns3:TrackPointExtension>
        </extensions>
      </trkpt>
      <trkpt lat="31.6930925287306308746337890625" lon="35.00630185939371585845947265625">
        <ele>348</ele>
        <time>2017-08-04T07:28:16.000Z</time>
        <extensions>
          <ns3:TrackPointExtension>
            <ns3:atemp>35.0</ns3:atemp>
          </ns3:TrackPointExtension>
        </extensions>
      </trkpt>
      <trkpt lat="31.6930268146097660064697265625" lon="35.00619675032794475555419921875">
        <ele>347.600006103515625</ele>
        <time>2017-08-04T07:28:18.000Z</time>
        <extensions>
          <ns3:TrackPointExtension>
            <ns3:atemp>35.0</ns3:atemp>
          </ns3:TrackPointExtension>
        </extensions>
      </trkpt>
      <trkpt lat="31.693002171814441680908203125" lon="35.00614218413829803466796875">
        <ele>347.79998779296875</ele>
        <time>2017-08-04T07:28:19.000Z</time>
        <extensions>
          <ns3:TrackPointExtension>
            <ns3:atemp>35.0</ns3:atemp>
          </ns3:TrackPointExtension>
        </extensions>
      </trkpt>
      <trkpt lat="31.6929550655186176300048828125" lon="35.0059706903994083404541015625">
        <ele>348.20001220703125</ele>
        <time>2017-08-04T07:28:22.000Z</time>
        <extensions>
          <ns3:TrackPointExtension>
            <ns3:atemp>35.0</ns3:atemp>
          </ns3:TrackPointExtension>
        </extensions>
      </trkpt>
      <trkpt lat="31.69283394701778888702392578125" lon="35.005850829184055328369140625">
        <ele>347</ele>
        <time>2017-08-04T07:28:25.000Z</time>
        <extensions>
          <ns3:TrackPointExtension>
            <ns3:atemp>35.0</ns3:atemp>
          </ns3:TrackPointExtension>
        </extensions>
      </trkpt>
      <trkpt lat="31.69277141802012920379638671875" lon="35.0058275274932384490966796875">
        <ele>346</ele>
        <time>2017-08-04T07:28:26.000Z</time>
        <extensions>
          <ns3:TrackPointExtension>
            <ns3:atemp>35.0</ns3:atemp>
          </ns3:TrackPointExtension>
        </extensions>
      </trkpt>
      <trkpt lat="31.692705117166042327880859375" lon="35.00581361353397369384765625">
        <ele>344.79998779296875</ele>
        <time>2017-08-04T07:28:27.000Z</time>
        <extensions>
          <ns3:TrackPointExtension>
            <ns3:atemp>35.0</ns3:atemp>
          </ns3:TrackPointExtension>
        </extensions>
      </trkpt>
      <trkpt lat="31.69263177551329135894775390625" lon="35.0058209896087646484375">
        <ele>343.600006103515625</ele>
        <time>2017-08-04T07:28:28.000Z</time>
        <extensions>
          <ns3:TrackPointExtension>
            <ns3:atemp>35.0</ns3:atemp>
          </ns3:TrackPointExtension>
        </extensions>
      </trkpt>
      <trkpt lat="31.6925466991961002349853515625" lon="35.005826018750667572021484375">
        <ele>342.600006103515625</ele>
        <time>2017-08-04T07:28:29.000Z</time>
        <extensions>
          <ns3:TrackPointExtension>
            <ns3:atemp>35.0</ns3:atemp>
          </ns3:TrackPointExtension>
        </extensions>
      </trkpt>
      <trkpt lat="31.692450977861881256103515625" lon="35.00582543201744556427001953125">
        <ele>340.79998779296875</ele>
        <time>2017-08-04T07:28:30.000Z</time>
        <extensions>
          <ns3:TrackPointExtension>
            <ns3:atemp>35.0</ns3:atemp>
          </ns3:TrackPointExtension>
        </extensions>
      </trkpt>
      <trkpt lat="31.692347712814807891845703125" lon="35.00581403262913227081298828125">
        <ele>339.20001220703125</ele>
        <time>2017-08-04T07:28:31.000Z</time>
        <extensions>
          <ns3:TrackPointExtension>
            <ns3:atemp>35.0</ns3:atemp>
          </ns3:TrackPointExtension>
        </extensions>
      </trkpt>
      <trkpt lat="31.6922372393310070037841796875" lon="35.00579928047955036163330078125">
        <ele>336.600006103515625</ele>
        <time>2017-08-04T07:28:32.000Z</time>
        <extensions>
          <ns3:TrackPointExtension>
            <ns3:atemp>35.0</ns3:atemp>
          </ns3:TrackPointExtension>
        </extensions>
      </trkpt>
      <trkpt lat="31.69211679138243198394775390625" lon="35.0057779066264629364013671875">
        <ele>334.600006103515625</ele>
        <time>2017-08-04T07:28:33.000Z</time>
        <extensions>
          <ns3:TrackPointExtension>
            <ns3:atemp>35.0</ns3:atemp>
          </ns3:TrackPointExtension>
        </extensions>
      </trkpt>
      <trkpt lat="31.692000366747379302978515625" lon="35.00575192272663116455078125">
        <ele>332.399993896484375</ele>
        <time>2017-08-04T07:28:34.000Z</time>
        <extensions>
          <ns3:TrackPointExtension>
            <ns3:atemp>35.0</ns3:atemp>
          </ns3:TrackPointExtension>
        </extensions>
      </trkpt>
      <trkpt lat="31.69188394211232662200927734375" lon="35.0057336501777172088623046875">
        <ele>330.600006103515625</ele>
        <time>2017-08-04T07:28:35.000Z</time>
        <extensions>
          <ns3:TrackPointExtension>
            <ns3:atemp>35.0</ns3:atemp>
          </ns3:TrackPointExtension>
        </extensions>
      </trkpt>
      <trkpt lat="31.6917722113430500030517578125" lon="35.0057188980281352996826171875">
        <ele>329.600006103515625</ele>
        <time>2017-08-04T07:28:36.000Z</time>
        <extensions>
          <ns3:TrackPointExtension>
            <ns3:atemp>35.0</ns3:atemp>
          </ns3:TrackPointExtension>
        </extensions>
      </trkpt>
      <trkpt lat="31.69146015308797359466552734375" lon="35.005631558597087860107421875">
        <ele>328.79998779296875</ele>
        <time>2017-08-04T07:28:39.000Z</time>
        <extensions>
          <ns3:TrackPointExtension>
            <ns3:atemp>35.0</ns3:atemp>
          </ns3:TrackPointExtension>
        </extensions>
      </trkpt>
      <trkpt lat="31.69136811979115009307861328125" lon="35.00558218918740749359130859375">
        <ele>328.399993896484375</ele>
        <time>2017-08-04T07:28:40.000Z</time>
        <extensions>
          <ns3:TrackPointExtension>
            <ns3:atemp>35.0</ns3:atemp>
          </ns3:TrackPointExtension>
        </extensions>
      </trkpt>
      <trkpt lat="31.69086822308599948883056640625" lon="35.005233921110630035400390625">
        <ele>328.20001220703125</ele>
        <time>2017-08-04T07:28:46.000Z</time>
        <extensions>
          <ns3:TrackPointExtension>
            <ns3:atemp>35.0</ns3:atemp>
          </ns3:TrackPointExtension>
        </extensions>
      </trkpt>
      <trkpt lat="31.69065834023058414459228515625" lon="35.00501691363751888275146484375">
        <ele>326.79998779296875</ele>
        <time>2017-08-04T07:28:49.000Z</time>
        <extensions>
          <ns3:TrackPointExtension>
            <ns3:atemp>35.0</ns3:atemp>
          </ns3:TrackPointExtension>
        </extensions>
      </trkpt>
      <trkpt lat="31.69060838408768177032470703125" lon="35.004930831491947174072265625">
        <ele>326.399993896484375</ele>
        <time>2017-08-04T07:28:50.000Z</time>
        <extensions>
          <ns3:TrackPointExtension>
            <ns3:atemp>35.0</ns3:atemp>
          </ns3:TrackPointExtension>
        </extensions>
      </trkpt>
      <trkpt lat="31.69052137993276119232177734375" lon="35.00467677600681781768798828125">
        <ele>328</ele>
        <time>2017-08-04T07:28:53.000Z</time>
        <extensions>
          <ns3:TrackPointExtension>
            <ns3:atemp>36.0</ns3:atemp>
          </ns3:TrackPointExtension>
        </extensions>
      </trkpt>
      <trkpt lat="31.6904886066913604736328125" lon="35.00449975021183490753173828125">
        <ele>329</ele>
        <time>2017-08-04T07:28:55.000Z</time>
        <extensions>
          <ns3:TrackPointExtension>
            <ns3:atemp>36.0</ns3:atemp>
          </ns3:TrackPointExtension>
        </extensions>
      </trkpt>
      <trkpt lat="31.690470837056636810302734375" lon="35.00440821982920169830322265625">
        <ele>329.20001220703125</ele>
        <time>2017-08-04T07:28:56.000Z</time>
        <extensions>
          <ns3:TrackPointExtension>
            <ns3:atemp>36.0</ns3:atemp>
          </ns3:TrackPointExtension>
        </extensions>
      </trkpt>
      <trkpt lat="31.69043362140655517578125" lon="35.00423186458647251129150390625">
        <ele>328.600006103515625</ele>
        <time>2017-08-04T07:28:58.000Z</time>
        <extensions>
          <ns3:TrackPointExtension>
            <ns3:atemp>36.0</ns3:atemp>
          </ns3:TrackPointExtension>
        </extensions>
      </trkpt>
      <trkpt lat="31.69038559310138225555419921875" lon="35.00399767421185970306396484375">
        <ele>330.79998779296875</ele>
        <time>2017-08-04T07:29:01.000Z</time>
        <extensions>
          <ns3:TrackPointExtension>
            <ns3:atemp>36.0</ns3:atemp>
          </ns3:TrackPointExtension>
        </extensions>
      </trkpt>
      <trkpt lat="31.6903848387300968170166015625" lon="35.00394503585994243621826171875">
        <ele>331.20001220703125</ele>
        <time>2017-08-04T07:29:02.000Z</time>
        <extensions>
          <ns3:TrackPointExtension>
            <ns3:atemp>36.0</ns3:atemp>
          </ns3:TrackPointExtension>
        </extensions>
      </trkpt>
      <trkpt lat="31.690377295017242431640625" lon="35.00389759428799152374267578125">
        <ele>332</ele>
        <time>2017-08-04T07:29:03.000Z</time>
        <extensions>
          <ns3:TrackPointExtension>
            <ns3:atemp>36.0</ns3:atemp>
          </ns3:TrackPointExtension>
        </extensions>
      </trkpt>
      <trkpt lat="31.6903663985431194305419921875" lon="35.00382215715944766998291015625">
        <ele>333.79998779296875</ele>
        <time>2017-08-04T07:29:05.000Z</time>
        <extensions>
          <ns3:TrackPointExtension>
            <ns3:atemp>36.0</ns3:atemp>
          </ns3:TrackPointExtension>
        </extensions>
      </trkpt>
      <trkpt lat="31.69034234248101711273193359375" lon="35.003780834376811981201171875">
        <ele>335.399993896484375</ele>
        <time>2017-08-04T07:29:07.000Z</time>
        <extensions>
          <ns3:TrackPointExtension>
            <ns3:atemp>36.0</ns3:atemp>
          </ns3:TrackPointExtension>
        </extensions>
      </trkpt>
      <trkpt lat="31.6903218068182468414306640625" lon="35.00373356044292449951171875">
        <ele>336.600006103515625</ele>
        <time>2017-08-04T07:29:09.000Z</time>
        <extensions>
          <ns3:TrackPointExtension>
            <ns3:atemp>36.0</ns3:atemp>
          </ns3:TrackPointExtension>
        </extensions>
      </trkpt>
      <trkpt lat="31.6902530752122402191162109375" lon="35.0036257691681385040283203125">
        <ele>336.600006103515625</ele>
        <time>2017-08-04T07:29:13.000Z</time>
        <extensions>
          <ns3:TrackPointExtension>
            <ns3:atemp>36.0</ns3:atemp>
          </ns3:TrackPointExtension>
        </extensions>
      </trkpt>
      <trkpt lat="31.6902017779648303985595703125" lon="35.003554187715053558349609375">
        <ele>336.20001220703125</ele>
        <time>2017-08-04T07:29:15.000Z</time>
        <extensions>
          <ns3:TrackPointExtension>
            <ns3:atemp>36.0</ns3:atemp>
          </ns3:TrackPointExtension>
        </extensions>
      </trkpt>
      <trkpt lat="31.69015693478286266326904296875" lon="35.00347145833075046539306640625">
        <ele>335.79998779296875</ele>
        <time>2017-08-04T07:29:17.000Z</time>
        <extensions>
          <ns3:TrackPointExtension>
            <ns3:atemp>36.0</ns3:atemp>
          </ns3:TrackPointExtension>
        </extensions>
      </trkpt>
      <trkpt lat="31.69013924896717071533203125" lon="35.0034259445965290069580078125">
        <ele>336</ele>
        <time>2017-08-04T07:29:18.000Z</time>
        <extensions>
          <ns3:TrackPointExtension>
            <ns3:atemp>36.0</ns3:atemp>
          </ns3:TrackPointExtension>
        </extensions>
      </trkpt>
      <trkpt lat="31.6900750435888767242431640625" lon="35.00329208560287952423095703125">
        <ele>337</ele>
        <time>2017-08-04T07:29:22.000Z</time>
        <extensions>
          <ns3:TrackPointExtension>
            <ns3:atemp>36.0</ns3:atemp>
          </ns3:TrackPointExtension>
        </extensions>
      </trkpt>
      <trkpt lat="31.6900002770125865936279296875" lon="35.0031842105090618133544921875">
        <ele>337.600006103515625</ele>
        <time>2017-08-04T07:29:26.000Z</time>
        <extensions>
          <ns3:TrackPointExtension>
            <ns3:atemp>36.0</ns3:atemp>
          </ns3:TrackPointExtension>
        </extensions>
      </trkpt>
      <trkpt lat="31.68986055068671703338623046875" lon="35.00307549722492694854736328125">
        <ele>336.20001220703125</ele>
        <time>2017-08-04T07:29:30.000Z</time>
        <extensions>
          <ns3:TrackPointExtension>
            <ns3:atemp>36.0</ns3:atemp>
          </ns3:TrackPointExtension>
        </extensions>
      </trkpt>
      <trkpt lat="31.68982677161693572998046875" lon="35.00302654691040515899658203125">
        <ele>335.600006103515625</ele>
        <time>2017-08-04T07:29:31.000Z</time>
        <extensions>
          <ns3:TrackPointExtension>
            <ns3:atemp>36.0</ns3:atemp>
          </ns3:TrackPointExtension>
        </extensions>
      </trkpt>
      <trkpt lat="31.689798273146152496337890625" lon="35.00297424383461475372314453125">
        <ele>335.399993896484375</ele>
        <time>2017-08-04T07:29:32.000Z</time>
        <extensions>
          <ns3:TrackPointExtension>
            <ns3:atemp>36.0</ns3:atemp>
          </ns3:TrackPointExtension>
        </extensions>
      </trkpt>
      <trkpt lat="31.6897483170032501220703125" lon="35.00280006788671016693115234375">
        <ele>335.20001220703125</ele>
        <time>2017-08-04T07:29:35.000Z</time>
        <extensions>
          <ns3:TrackPointExtension>
            <ns3:atemp>36.0</ns3:atemp>
          </ns3:TrackPointExtension>
        </extensions>
      </trkpt>
      <trkpt lat="31.6897350735962390899658203125" lon="35.00274038873612880706787109375">
        <ele>335.20001220703125</ele>
        <time>2017-08-04T07:29:36.000Z</time>
        <extensions>
          <ns3:TrackPointExtension>
            <ns3:atemp>36.0</ns3:atemp>
          </ns3:TrackPointExtension>
        </extensions>
      </trkpt>
      <trkpt lat="31.689657457172870635986328125" lon="35.00243545509874820709228515625">
        <ele>336.399993896484375</ele>
        <time>2017-08-04T07:29:42.000Z</time>
        <extensions>
          <ns3:TrackPointExtension>
            <ns3:atemp>36.0</ns3:atemp>
          </ns3:TrackPointExtension>
        </extensions>
      </trkpt>
      <trkpt lat="31.68964630924165248870849609375" lon="35.00239220447838306427001953125">
        <ele>336.399993896484375</ele>
        <time>2017-08-04T07:29:43.000Z</time>
        <extensions>
          <ns3:TrackPointExtension>
            <ns3:atemp>36.0</ns3:atemp>
          </ns3:TrackPointExtension>
        </extensions>
      </trkpt>
      <trkpt lat="31.68963239528238773345947265625" lon="35.002295561134815216064453125">
        <ele>336.79998779296875</ele>
        <time>2017-08-04T07:29:45.000Z</time>
        <extensions>
          <ns3:TrackPointExtension>
            <ns3:atemp>36.0</ns3:atemp>
          </ns3:TrackPointExtension>
        </extensions>
      </trkpt>
      <trkpt lat="31.6896277852356433868408203125" lon="35.00211275182664394378662109375">
        <ele>336</ele>
        <time>2017-08-04T07:29:48.000Z</time>
        <extensions>
          <ns3:TrackPointExtension>
            <ns3:atemp>36.0</ns3:atemp>
          </ns3:TrackPointExtension>
        </extensions>
      </trkpt>
      <trkpt lat="31.6896230913698673248291015625" lon="35.0019832514226436614990234375">
        <ele>335.20001220703125</ele>
        <time>2017-08-04T07:29:50.000Z</time>
        <extensions>
          <ns3:TrackPointExtension>
            <ns3:atemp>36.0</ns3:atemp>
          </ns3:TrackPointExtension>
        </extensions>
      </trkpt>
      <trkpt lat="31.68960708193480968475341796875" lon="35.00191242434084415435791015625">
        <ele>335</ele>
        <time>2017-08-04T07:29:51.000Z</time>
        <extensions>
          <ns3:TrackPointExtension>
            <ns3:atemp>36.0</ns3:atemp>
          </ns3:TrackPointExtension>
        </extensions>
      </trkpt>
      <trkpt lat="31.6895469836890697479248046875" lon="35.0017636455595493316650390625">
        <ele>333.600006103515625</ele>
        <time>2017-08-04T07:29:53.000Z</time>
        <extensions>
          <ns3:TrackPointExtension>
            <ns3:atemp>36.0</ns3:atemp>
          </ns3:TrackPointExtension>
        </extensions>
      </trkpt>
      <trkpt lat="31.689450256526470184326171875" lon="35.0016127713024616241455078125">
        <ele>331.79998779296875</ele>
        <time>2017-08-04T07:29:55.000Z</time>
        <extensions>
          <ns3:TrackPointExtension>
            <ns3:atemp>36.0</ns3:atemp>
          </ns3:TrackPointExtension>
        </extensions>
      </trkpt>
      <trkpt lat="31.68934531509876251220703125" lon="35.00146466307342052459716796875">
        <ele>330.399993896484375</ele>
        <time>2017-08-04T07:29:57.000Z</time>
        <extensions>
          <ns3:TrackPointExtension>
            <ns3:atemp>36.0</ns3:atemp>
          </ns3:TrackPointExtension>
        </extensions>
      </trkpt>
      <trkpt lat="31.68916686438024044036865234375" lon="35.001238100230693817138671875">
        <ele>332.399993896484375</ele>
        <time>2017-08-04T07:30:01.000Z</time>
        <extensions>
          <ns3:TrackPointExtension>
            <ns3:atemp>36.0</ns3:atemp>
          </ns3:TrackPointExtension>
        </extensions>
      </trkpt>
      <trkpt lat="31.68909193016588687896728515625" lon="35.001199543476104736328125">
        <ele>334</ele>
        <time>2017-08-04T07:30:03.000Z</time>
        <extensions>
          <ns3:TrackPointExtension>
            <ns3:atemp>36.0</ns3:atemp>
          </ns3:TrackPointExtension>
        </extensions>
      </trkpt>
      <trkpt lat="31.68907231651246547698974609375" lon="35.00120281241834163665771484375">
        <ele>334.399993896484375</ele>
        <time>2017-08-04T07:30:04.000Z</time>
        <extensions>
          <ns3:TrackPointExtension>
            <ns3:atemp>36.0</ns3:atemp>
          </ns3:TrackPointExtension>
        </extensions>
      </trkpt>
      <trkpt lat="31.689005009829998016357421875" lon="35.00118655152618885040283203125">
        <ele>334.600006103515625</ele>
        <time>2017-08-04T07:30:09.000Z</time>
        <extensions>
          <ns3:TrackPointExtension>
            <ns3:atemp>36.0</ns3:atemp>
          </ns3:TrackPointExtension>
        </extensions>
      </trkpt>
      <trkpt lat="31.68899620883166790008544921875" lon="35.0011847913265228271484375">
        <ele>334.600006103515625</ele>
        <time>2017-08-04T07:30:10.000Z</time>
        <extensions>
          <ns3:TrackPointExtension>
            <ns3:atemp>36.0</ns3:atemp>
          </ns3:TrackPointExtension>
        </extensions>
      </trkpt>
      <trkpt lat="31.68892563320696353912353515625" lon="35.001223348081111907958984375">
        <ele>333.79998779296875</ele>
        <time>2017-08-04T07:30:15.000Z</time>
        <extensions>
          <ns3:TrackPointExtension>
            <ns3:atemp>36.0</ns3:atemp>
          </ns3:TrackPointExtension>
        </extensions>
      </trkpt>
      <trkpt lat="31.6888620145618915557861328125" lon="35.00125763006508350372314453125">
        <ele>332.600006103515625</ele>
        <time>2017-08-04T07:30:17.000Z</time>
        <extensions>
          <ns3:TrackPointExtension>
            <ns3:atemp>36.0</ns3:atemp>
          </ns3:TrackPointExtension>
        </extensions>
      </trkpt>
      <trkpt lat="31.6887701489031314849853515625" lon="35.0013214163482189178466796875">
        <ele>331.600006103515625</ele>
        <time>2017-08-04T07:30:19.000Z</time>
        <extensions>
          <ns3:TrackPointExtension>
            <ns3:atemp>36.0</ns3:atemp>
          </ns3:TrackPointExtension>
        </extensions>
      </trkpt>
      <trkpt lat="31.6886648721992969512939453125" lon="35.001399032771587371826171875">
        <ele>329.20001220703125</ele>
        <time>2017-08-04T07:30:21.000Z</time>
        <extensions>
          <ns3:TrackPointExtension>
            <ns3:atemp>36.0</ns3:atemp>
          </ns3:TrackPointExtension>
        </extensions>
      </trkpt>
      <trkpt lat="31.68854601681232452392578125" lon="35.00147438608109951019287109375">
        <ele>328</ele>
        <time>2017-08-04T07:30:23.000Z</time>
        <extensions>
          <ns3:TrackPointExtension>
            <ns3:atemp>36.0</ns3:atemp>
          </ns3:TrackPointExtension>
        </extensions>
      </trkpt>
      <trkpt lat="31.68847837485373020172119140625" lon="35.001515708863735198974609375">
        <ele>327.20001220703125</ele>
        <time>2017-08-04T07:30:24.000Z</time>
        <extensions>
          <ns3:TrackPointExtension>
            <ns3:atemp>36.0</ns3:atemp>
          </ns3:TrackPointExtension>
        </extensions>
      </trkpt>
      <trkpt lat="31.68841031379997730255126953125" lon="35.0015527568757534027099609375">
        <ele>326.399993896484375</ele>
        <time>2017-08-04T07:30:25.000Z</time>
        <extensions>
          <ns3:TrackPointExtension>
            <ns3:atemp>36.0</ns3:atemp>
          </ns3:TrackPointExtension>
        </extensions>
      </trkpt>
      <trkpt lat="31.688349545001983642578125" lon="35.00157228671014308929443359375">
        <ele>326.20001220703125</ele>
        <time>2017-08-04T07:30:26.000Z</time>
        <extensions>
          <ns3:TrackPointExtension>
            <ns3:atemp>36.0</ns3:atemp>
          </ns3:TrackPointExtension>
        </extensions>
      </trkpt>
      <trkpt lat="31.688230521976947784423828125" lon="35.0015504099428653717041015625">
        <ele>324.600006103515625</ele>
        <time>2017-08-04T07:30:28.000Z</time>
        <extensions>
          <ns3:TrackPointExtension>
            <ns3:atemp>36.0</ns3:atemp>
          </ns3:TrackPointExtension>
        </extensions>
      </trkpt>
      <trkpt lat="31.688126586377620697021484375" lon="35.00147472135722637176513671875">
        <ele>323.600006103515625</ele>
        <time>2017-08-04T07:30:30.000Z</time>
        <extensions>
          <ns3:TrackPointExtension>
            <ns3:atemp>36.0</ns3:atemp>
          </ns3:TrackPointExtension>
        </extensions>
      </trkpt>
      <trkpt lat="31.68807436712086200714111328125" lon="35.00142811797559261322021484375">
        <ele>323.20001220703125</ele>
        <time>2017-08-04T07:30:31.000Z</time>
        <extensions>
          <ns3:TrackPointExtension>
            <ns3:atemp>36.0</ns3:atemp>
          </ns3:TrackPointExtension>
        </extensions>
      </trkpt>
      <trkpt lat="31.688027679920196533203125" lon="35.00137598253786563873291015625">
        <ele>322.600006103515625</ele>
        <time>2017-08-04T07:30:32.000Z</time>
        <extensions>
          <ns3:TrackPointExtension>
            <ns3:atemp>36.0</ns3:atemp>
          </ns3:TrackPointExtension>
        </extensions>
      </trkpt>
      <trkpt lat="31.68798618949949741363525390625" lon="35.00131630338728427886962890625">
        <ele>322</ele>
        <time>2017-08-04T07:30:33.000Z</time>
        <extensions>
          <ns3:TrackPointExtension>
            <ns3:atemp>36.0</ns3:atemp>
          </ns3:TrackPointExtension>
        </extensions>
      </trkpt>
      <trkpt lat="31.68791661970317363739013671875" lon="35.00119007192552089691162109375">
        <ele>321.79998779296875</ele>
        <time>2017-08-04T07:30:35.000Z</time>
        <extensions>
          <ns3:TrackPointExtension>
            <ns3:atemp>36.0</ns3:atemp>
          </ns3:TrackPointExtension>
        </extensions>
      </trkpt>
      <trkpt lat="31.687689386308193206787109375" lon="35.00078841112554073333740234375">
        <ele>321.600006103515625</ele>
        <time>2017-08-04T07:30:42.000Z</time>
        <extensions>
          <ns3:TrackPointExtension>
            <ns3:atemp>36.0</ns3:atemp>
          </ns3:TrackPointExtension>
        </extensions>
      </trkpt>
      <trkpt lat="31.68763616122305393218994140625" lon="35.000686906278133392333984375">
        <ele>321</ele>
        <time>2017-08-04T07:30:44.000Z</time>
        <extensions>
          <ns3:TrackPointExtension>
            <ns3:atemp>36.0</ns3:atemp>
          </ns3:TrackPointExtension>
        </extensions>
      </trkpt>
      <trkpt lat="31.6875524260103702545166015625" lon="35.000481717288494110107421875">
        <ele>321.20001220703125</ele>
        <time>2017-08-04T07:30:48.000Z</time>
        <extensions>
          <ns3:TrackPointExtension>
            <ns3:atemp>36.0</ns3:atemp>
          </ns3:TrackPointExtension>
        </extensions>
      </trkpt>
      <trkpt lat="31.68747849762439727783203125" lon="35.00033520162105560302734375">
        <ele>321</ele>
        <time>2017-08-04T07:30:51.000Z</time>
        <extensions>
          <ns3:TrackPointExtension>
            <ns3:atemp>36.0</ns3:atemp>
          </ns3:TrackPointExtension>
        </extensions>
      </trkpt>
      <trkpt lat="31.68739224784076213836669921875" lon="35.0001868419349193572998046875">
        <ele>319.600006103515625</ele>
        <time>2017-08-04T07:30:54.000Z</time>
        <extensions>
          <ns3:TrackPointExtension>
            <ns3:atemp>36.0</ns3:atemp>
          </ns3:TrackPointExtension>
        </extensions>
      </trkpt>
      <trkpt lat="31.6873640008270740509033203125" lon="35.000138394534587860107421875">
        <ele>319.20001220703125</ele>
        <time>2017-08-04T07:30:55.000Z</time>
        <extensions>
          <ns3:TrackPointExtension>
            <ns3:atemp>36.0</ns3:atemp>
          </ns3:TrackPointExtension>
        </extensions>
      </trkpt>
      <trkpt lat="31.68731882236897945404052734375" lon="35.0000363029539585113525390625">
        <ele>318.600006103515625</ele>
        <time>2017-08-04T07:30:57.000Z</time>
        <extensions>
          <ns3:TrackPointExtension>
            <ns3:atemp>36.0</ns3:atemp>
          </ns3:TrackPointExtension>
        </extensions>
      </trkpt>
      <trkpt lat="31.6872956044971942901611328125" lon="35.0000004284083843231201171875">
        <ele>318</ele>
        <time>2017-08-04T07:30:58.000Z</time>
        <extensions>
          <ns3:TrackPointExtension>
            <ns3:atemp>36.0</ns3:atemp>
          </ns3:TrackPointExtension>
        </extensions>
      </trkpt>
      <trkpt lat="31.6872463189065456390380859375" lon="34.99995340593159198760986328125">
        <ele>317.20001220703125</ele>
        <time>2017-08-04T07:31:00.000Z</time>
        <extensions>
          <ns3:TrackPointExtension>
            <ns3:atemp>36.0</ns3:atemp>
          </ns3:TrackPointExtension>
        </extensions>
      </trkpt>
      <trkpt lat="31.68719762004911899566650390625" lon="35.0000027753412723541259765625">
        <ele>318.20001220703125</ele>
        <time>2017-08-04T07:31:03.000Z</time>
        <extensions>
          <ns3:TrackPointExtension>
            <ns3:atemp>36.0</ns3:atemp>
          </ns3:TrackPointExtension>
        </extensions>
      </trkpt>
      <trkpt lat="31.6871772520244121551513671875" lon="35.0000242330133914947509765625">
        <ele>318.399993896484375</ele>
        <time>2017-08-04T07:31:04.000Z</time>
        <extensions>
          <ns3:TrackPointExtension>
            <ns3:atemp>36.0</ns3:atemp>
          </ns3:TrackPointExtension>
        </extensions>
      </trkpt>
      <trkpt lat="31.68710340745747089385986328125" lon="35.0001003406941890716552734375">
        <ele>318.20001220703125</ele>
        <time>2017-08-04T07:31:09.000Z</time>
        <extensions>
          <ns3:TrackPointExtension>
            <ns3:atemp>36.0</ns3:atemp>
          </ns3:TrackPointExtension>
        </extensions>
      </trkpt>
      <trkpt lat="31.686986982822418212890625" lon="35.00014551915228366851806640625">
        <ele>317.20001220703125</ele>
        <time>2017-08-04T07:31:14.000Z</time>
        <extensions>
          <ns3:TrackPointExtension>
            <ns3:atemp>36.0</ns3:atemp>
          </ns3:TrackPointExtension>
        </extensions>
      </trkpt>
      <trkpt lat="31.6869454085826873779296875" lon="35.0002012588083744049072265625">
        <ele>317.399993896484375</ele>
        <time>2017-08-04T07:31:16.000Z</time>
        <extensions>
          <ns3:TrackPointExtension>
            <ns3:atemp>36.0</ns3:atemp>
          </ns3:TrackPointExtension>
        </extensions>
      </trkpt>
      <trkpt lat="31.68695638887584209442138671875" lon="35.00021643005311489105224609375">
        <ele>317.600006103515625</ele>
        <time>2017-08-04T07:31:17.000Z</time>
        <extensions>
          <ns3:TrackPointExtension>
            <ns3:atemp>36.0</ns3:atemp>
          </ns3:TrackPointExtension>
        </extensions>
      </trkpt>
      <trkpt lat="31.68695923872292041778564453125" lon="35.00022112391889095306396484375">
        <ele>318.20001220703125</ele>
        <time>2017-08-04T07:31:21.000Z</time>
        <extensions>
          <ns3:TrackPointExtension>
            <ns3:atemp>36.0</ns3:atemp>
          </ns3:TrackPointExtension>
        </extensions>
      </trkpt>
      <trkpt lat="31.68698790483176708221435546875" lon="35.00029153190553188323974609375">
        <ele>318.20001220703125</ele>
        <time>2017-08-04T07:31:24.000Z</time>
        <extensions>
          <ns3:TrackPointExtension>
            <ns3:atemp>36.0</ns3:atemp>
          </ns3:TrackPointExtension>
        </extensions>
      </trkpt>
      <trkpt lat="31.686997376382350921630859375" lon="35.0003149174153804779052734375">
        <ele>318.20001220703125</ele>
        <time>2017-08-04T07:31:25.000Z</time>
        <extensions>
          <ns3:TrackPointExtension>
            <ns3:atemp>36.0</ns3:atemp>
          </ns3:TrackPointExtension>
        </extensions>
      </trkpt>
      <trkpt lat="31.68703903444111347198486328125" lon="35.0004872493445873260498046875">
        <ele>318.399993896484375</ele>
        <time>2017-08-04T07:31:30.000Z</time>
        <extensions>
          <ns3:TrackPointExtension>
            <ns3:atemp>36.0</ns3:atemp>
          </ns3:TrackPointExtension>
        </extensions>
      </trkpt>
      <trkpt lat="31.6869683749973773956298828125" lon="35.0006805360317230224609375">
        <ele>318.20001220703125</ele>
        <time>2017-08-04T07:31:35.000Z</time>
        <extensions>
          <ns3:TrackPointExtension>
            <ns3:atemp>36.0</ns3:atemp>
          </ns3:TrackPointExtension>
        </extensions>
      </trkpt>
      <trkpt lat="31.6868325881659984588623046875" lon="35.00076745636761188507080078125">
        <ele>317.20001220703125</ele>
        <time>2017-08-04T07:31:38.000Z</time>
        <extensions>
          <ns3:TrackPointExtension>
            <ns3:atemp>36.0</ns3:atemp>
          </ns3:TrackPointExtension>
        </extensions>
      </trkpt>
      <trkpt lat="31.68677751906216144561767578125" lon="35.00078237615525722503662109375">
        <ele>316.600006103515625</ele>
        <time>2017-08-04T07:31:39.000Z</time>
        <extensions>
          <ns3:TrackPointExtension>
            <ns3:atemp>36.0</ns3:atemp>
          </ns3:TrackPointExtension>
        </extensions>
      </trkpt>
      <trkpt lat="31.686718426644802093505859375" lon="35.00079578720033168792724609375">
        <ele>315.79998779296875</ele>
        <time>2017-08-04T07:31:40.000Z</time>
        <extensions>
          <ns3:TrackPointExtension>
            <ns3:atemp>36.0</ns3:atemp>
          </ns3:TrackPointExtension>
        </extensions>
      </trkpt>
      <trkpt lat="31.6866569034755229949951171875" lon="35.000826381146907806396484375">
        <ele>315.20001220703125</ele>
        <time>2017-08-04T07:31:41.000Z</time>
        <extensions>
          <ns3:TrackPointExtension>
            <ns3:atemp>36.0</ns3:atemp>
          </ns3:TrackPointExtension>
        </extensions>
      </trkpt>
      <trkpt lat="31.6865948773920536041259765625" lon="35.00085831619799137115478515625">
        <ele>314.399993896484375</ele>
        <time>2017-08-04T07:31:42.000Z</time>
        <extensions>
          <ns3:TrackPointExtension>
            <ns3:atemp>36.0</ns3:atemp>
          </ns3:TrackPointExtension>
        </extensions>
      </trkpt>
      <trkpt lat="31.6865248046815395355224609375" lon="35.00090341083705425262451171875">
        <ele>313.600006103515625</ele>
        <time>2017-08-04T07:31:43.000Z</time>
        <extensions>
          <ns3:TrackPointExtension>
            <ns3:atemp>36.0</ns3:atemp>
          </ns3:TrackPointExtension>
        </extensions>
      </trkpt>
      <trkpt lat="31.6864523850381374359130859375" lon="35.00094540417194366455078125">
        <ele>312.79998779296875</ele>
        <time>2017-08-04T07:31:44.000Z</time>
        <extensions>
          <ns3:TrackPointExtension>
            <ns3:atemp>36.0</ns3:atemp>
          </ns3:TrackPointExtension>
        </extensions>
      </trkpt>
      <trkpt lat="31.68637476861476898193359375" lon="35.0009837932884693145751953125">
        <ele>311.399993896484375</ele>
        <time>2017-08-04T07:31:45.000Z</time>
        <extensions>
          <ns3:TrackPointExtension>
            <ns3:atemp>36.0</ns3:atemp>
          </ns3:TrackPointExtension>
        </extensions>
      </trkpt>
      <trkpt lat="31.6862156800925731658935546875" lon="35.0010528601706027984619140625">
        <ele>309.600006103515625</ele>
        <time>2017-08-04T07:31:47.000Z</time>
        <extensions>
          <ns3:TrackPointExtension>
            <ns3:atemp>36.0</ns3:atemp>
          </ns3:TrackPointExtension>
        </extensions>
      </trkpt>
      <trkpt lat="31.68605550192296504974365234375" lon="35.0011155568063259124755859375">
        <ele>308.79998779296875</ele>
        <time>2017-08-04T07:31:49.000Z</time>
        <extensions>
          <ns3:TrackPointExtension>
            <ns3:atemp>36.0</ns3:atemp>
          </ns3:TrackPointExtension>
        </extensions>
      </trkpt>
      <trkpt lat="31.6858126781880855560302734375" lon="35.0012315623462200164794921875">
        <ele>308.20001220703125</ele>
        <time>2017-08-04T07:31:52.000Z</time>
        <extensions>
          <ns3:TrackPointExtension>
            <ns3:atemp>36.0</ns3:atemp>
          </ns3:TrackPointExtension>
        </extensions>
      </trkpt>
      <trkpt lat="31.68564663268625736236572265625" lon="35.00130792148411273956298828125">
        <ele>307</ele>
        <time>2017-08-04T07:31:54.000Z</time>
        <extensions>
          <ns3:TrackPointExtension>
            <ns3:atemp>36.0</ns3:atemp>
          </ns3:TrackPointExtension>
        </extensions>
      </trkpt>
      <trkpt lat="31.68547597713768482208251953125" lon="35.00137648545205593109130859375">
        <ele>306.600006103515625</ele>
        <time>2017-08-04T07:31:56.000Z</time>
        <extensions>
          <ns3:TrackPointExtension>
            <ns3:atemp>36.0</ns3:atemp>
          </ns3:TrackPointExtension>
        </extensions>
      </trkpt>
      <trkpt lat="31.6852180659770965576171875" lon="35.001477487385272979736328125">
        <ele>305.79998779296875</ele>
        <time>2017-08-04T07:31:59.000Z</time>
        <extensions>
          <ns3:TrackPointExtension>
            <ns3:atemp>36.0</ns3:atemp>
          </ns3:TrackPointExtension>
        </extensions>
      </trkpt>
      <trkpt lat="31.684909947216510772705078125" lon="35.00160992145538330078125">
        <ele>306.600006103515625</ele>
        <time>2017-08-04T07:32:03.000Z</time>
        <extensions>
          <ns3:TrackPointExtension>
            <ns3:atemp>36.0</ns3:atemp>
          </ns3:TrackPointExtension>
        </extensions>
      </trkpt>
      <trkpt lat="31.68483744375407695770263671875" lon="35.00164219178259372711181640625">
        <ele>307.20001220703125</ele>
        <time>2017-08-04T07:32:04.000Z</time>
        <extensions>
          <ns3:TrackPointExtension>
            <ns3:atemp>36.0</ns3:atemp>
          </ns3:TrackPointExtension>
        </extensions>
      </trkpt>
      <trkpt lat="31.68470316566526889801025390625" lon="35.0016949139535427093505859375">
        <ele>308.399993896484375</ele>
        <time>2017-08-04T07:32:06.000Z</time>
        <extensions>
          <ns3:TrackPointExtension>
            <ns3:atemp>36.0</ns3:atemp>
          </ns3:TrackPointExtension>
        </extensions>
      </trkpt>
      <trkpt lat="31.6845795325934886932373046875" lon="35.00175283290445804595947265625">
        <ele>309.600006103515625</ele>
        <time>2017-08-04T07:32:08.000Z</time>
        <extensions>
          <ns3:TrackPointExtension>
            <ns3:atemp>36.0</ns3:atemp>
          </ns3:TrackPointExtension>
        </extensions>
      </trkpt>
      <trkpt lat="31.68452094309031963348388671875" lon="35.0017787329852581024169921875">
        <ele>310.20001220703125</ele>
        <time>2017-08-04T07:32:09.000Z</time>
        <extensions>
          <ns3:TrackPointExtension>
            <ns3:atemp>36.0</ns3:atemp>
          </ns3:TrackPointExtension>
        </extensions>
      </trkpt>
      <trkpt lat="31.6844122298061847686767578125" lon="35.00182919204235076904296875">
        <ele>310.79998779296875</ele>
        <time>2017-08-04T07:32:11.000Z</time>
        <extensions>
          <ns3:TrackPointExtension>
            <ns3:atemp>36.0</ns3:atemp>
          </ns3:TrackPointExtension>
        </extensions>
      </trkpt>
      <trkpt lat="31.6842600144445896148681640625" lon="35.0018987618386745452880859375">
        <ele>312</ele>
        <time>2017-08-04T07:32:14.000Z</time>
        <extensions>
          <ns3:TrackPointExtension>
            <ns3:atemp>36.0</ns3:atemp>
          </ns3:TrackPointExtension>
        </extensions>
      </trkpt>
      <trkpt lat="31.68416035361588001251220703125" lon="35.00194318592548370361328125">
        <ele>312.399993896484375</ele>
        <time>2017-08-04T07:32:16.000Z</time>
        <extensions>
          <ns3:TrackPointExtension>
            <ns3:atemp>36.0</ns3:atemp>
          </ns3:TrackPointExtension>
        </extensions>
      </trkpt>
      <trkpt lat="31.6840142570436000823974609375" lon="35.002011246979236602783203125">
        <ele>313</ele>
        <time>2017-08-04T07:32:19.000Z</time>
        <extensions>
          <ns3:TrackPointExtension>
            <ns3:atemp>36.0</ns3:atemp>
          </ns3:TrackPointExtension>
        </extensions>
      </trkpt>
      <trkpt lat="31.68373136781156063079833984375" lon="35.002133287489414215087890625">
        <ele>313.79998779296875</ele>
        <time>2017-08-04T07:32:25.000Z</time>
        <extensions>
          <ns3:TrackPointExtension>
            <ns3:atemp>36.0</ns3:atemp>
          </ns3:TrackPointExtension>
        </extensions>
      </trkpt>
      <trkpt lat="31.6835472173988819122314453125" lon="35.00220495276153087615966796875">
        <ele>314.20001220703125</ele>
        <time>2017-08-04T07:32:29.000Z</time>
        <extensions>
          <ns3:TrackPointExtension>
            <ns3:atemp>36.0</ns3:atemp>
          </ns3:TrackPointExtension>
        </extensions>
      </trkpt>
      <trkpt lat="31.6833297908306121826171875" lon="35.00229698605835437774658203125">
        <ele>314.600006103515625</ele>
        <time>2017-08-04T07:32:34.000Z</time>
        <extensions>
          <ns3:TrackPointExtension>
            <ns3:atemp>36.0</ns3:atemp>
          </ns3:TrackPointExtension>
        </extensions>
      </trkpt>
      <trkpt lat="31.68320573866367340087890625" lon="35.00234794802963733673095703125">
        <ele>315.20001220703125</ele>
        <time>2017-08-04T07:32:37.000Z</time>
        <extensions>
          <ns3:TrackPointExtension>
            <ns3:atemp>36.0</ns3:atemp>
          </ns3:TrackPointExtension>
        </extensions>
      </trkpt>
      <trkpt lat="31.68308344669640064239501953125" lon="35.00240175984799861907958984375">
        <ele>315.79998779296875</ele>
        <time>2017-08-04T07:32:40.000Z</time>
        <extensions>
          <ns3:TrackPointExtension>
            <ns3:atemp>36.0</ns3:atemp>
          </ns3:TrackPointExtension>
        </extensions>
      </trkpt>
      <trkpt lat="31.68287306092679500579833984375" lon="35.002475939691066741943359375">
        <ele>316.600006103515625</ele>
        <time>2017-08-04T07:32:45.000Z</time>
        <extensions>
          <ns3:TrackPointExtension>
            <ns3:atemp>36.0</ns3:atemp>
          </ns3:TrackPointExtension>
        </extensions>
      </trkpt>
      <trkpt lat="31.68275521136820316314697265625" lon="35.0025312602519989013671875">
        <ele>317.20001220703125</ele>
        <time>2017-08-04T07:32:48.000Z</time>
        <extensions>
          <ns3:TrackPointExtension>
            <ns3:atemp>36.0</ns3:atemp>
          </ns3:TrackPointExtension>
        </extensions>
      </trkpt>
      <trkpt lat="31.682641804218292236328125" lon="35.00257677398622035980224609375">
        <ele>317.600006103515625</ele>
        <time>2017-08-04T07:32:51.000Z</time>
        <extensions>
          <ns3:TrackPointExtension>
            <ns3:atemp>36.0</ns3:atemp>
          </ns3:TrackPointExtension>
        </extensions>
      </trkpt>
      <trkpt lat="31.6824634373188018798828125" lon="35.00266335904598236083984375">
        <ele>318.20001220703125</ele>
        <time>2017-08-04T07:32:56.000Z</time>
        <extensions>
          <ns3:TrackPointExtension>
            <ns3:atemp>36.0</ns3:atemp>
          </ns3:TrackPointExtension>
        </extensions>
      </trkpt>
      <trkpt lat="31.68243619613349437713623046875" lon="35.0026997365057468414306640625">
        <ele>318.399993896484375</ele>
        <time>2017-08-04T07:32:57.000Z</time>
        <extensions>
          <ns3:TrackPointExtension>
            <ns3:atemp>36.0</ns3:atemp>
          </ns3:TrackPointExtension>
        </extensions>
      </trkpt>
      <trkpt lat="31.68238230049610137939453125" lon="35.0027758441865444183349609375">
        <ele>318.399993896484375</ele>
        <time>2017-08-04T07:32:59.000Z</time>
        <extensions>
          <ns3:TrackPointExtension>
            <ns3:atemp>36.0</ns3:atemp>
          </ns3:TrackPointExtension>
        </extensions>
      </trkpt>
      <trkpt lat="31.6823177598416805267333984375" lon="35.002841390669345855712890625">
        <ele>318.399993896484375</ele>
        <time>2017-08-04T07:33:01.000Z</time>
        <extensions>
          <ns3:TrackPointExtension>
            <ns3:atemp>36.0</ns3:atemp>
          </ns3:TrackPointExtension>
        </extensions>
      </trkpt>
      <trkpt lat="31.682190187275409698486328125" lon="35.00289830379188060760498046875">
        <ele>318.20001220703125</ele>
        <time>2017-08-04T07:33:04.000Z</time>
        <extensions>
          <ns3:TrackPointExtension>
            <ns3:atemp>36.0</ns3:atemp>
          </ns3:TrackPointExtension>
        </extensions>
      </trkpt>
      <trkpt lat="31.68202615343034267425537109375" lon="35.0029894150793552398681640625">
        <ele>318.79998779296875</ele>
        <time>2017-08-04T07:33:08.000Z</time>
        <extensions>
          <ns3:TrackPointExtension>
            <ns3:atemp>36.0</ns3:atemp>
          </ns3:TrackPointExtension>
        </extensions>
      </trkpt>
      <trkpt lat="31.68194015510380268096923828125" lon="35.00302922911942005157470703125">
        <ele>319.20001220703125</ele>
        <time>2017-08-04T07:33:10.000Z</time>
        <extensions>
          <ns3:TrackPointExtension>
            <ns3:atemp>36.0</ns3:atemp>
          </ns3:TrackPointExtension>
        </extensions>
      </trkpt>
      <trkpt lat="31.68185331858694553375244140625" lon="35.00306594185531139373779296875">
        <ele>319</ele>
        <time>2017-08-04T07:33:12.000Z</time>
        <extensions>
          <ns3:TrackPointExtension>
            <ns3:atemp>36.0</ns3:atemp>
          </ns3:TrackPointExtension>
        </extensions>
      </trkpt>
      <trkpt lat="31.68155190534889698028564453125" lon="35.00322251580655574798583984375">
        <ele>319</ele>
        <time>2017-08-04T07:33:19.000Z</time>
        <extensions>
          <ns3:TrackPointExtension>
            <ns3:atemp>36.0</ns3:atemp>
          </ns3:TrackPointExtension>
        </extensions>
      </trkpt>
      <trkpt lat="31.68150362558662891387939453125" lon="35.00334824435412883758544921875">
        <ele>319.79998779296875</ele>
        <time>2017-08-04T07:33:22.000Z</time>
        <extensions>
          <ns3:TrackPointExtension>
            <ns3:atemp>36.0</ns3:atemp>
          </ns3:TrackPointExtension>
        </extensions>
      </trkpt>
      <trkpt lat="31.68151418678462505340576171875" lon="35.00342644751071929931640625">
        <ele>320.600006103515625</ele>
        <time>2017-08-04T07:33:24.000Z</time>
        <extensions>
          <ns3:TrackPointExtension>
            <ns3:atemp>36.0</ns3:atemp>
          </ns3:TrackPointExtension>
        </extensions>
      </trkpt>
      <trkpt lat="31.68151251040399074554443359375" lon="35.00346601009368896484375">
        <ele>321</ele>
        <time>2017-08-04T07:33:25.000Z</time>
        <extensions>
          <ns3:TrackPointExtension>
            <ns3:atemp>36.0</ns3:atemp>
          </ns3:TrackPointExtension>
        </extensions>
      </trkpt>
      <trkpt lat="31.68150865472853183746337890625" lon="35.00350532121956348419189453125">
        <ele>321.20001220703125</ele>
        <time>2017-08-04T07:33:26.000Z</time>
        <extensions>
          <ns3:TrackPointExtension>
            <ns3:atemp>36.0</ns3:atemp>
          </ns3:TrackPointExtension>
        </extensions>
      </trkpt>
      <trkpt lat="31.68143925257027149200439453125" lon="35.00365384854376316070556640625">
        <ele>322</ele>
        <time>2017-08-04T07:33:31.000Z</time>
        <extensions>
          <ns3:TrackPointExtension>
            <ns3:atemp>36.0</ns3:atemp>
          </ns3:TrackPointExtension>
        </extensions>
      </trkpt>
      <trkpt lat="31.681410335004329681396484375" lon="35.00366139225661754608154296875">
        <ele>322.399993896484375</ele>
        <time>2017-08-04T07:33:32.000Z</time>
        <extensions>
          <ns3:TrackPointExtension>
            <ns3:atemp>36.0</ns3:atemp>
          </ns3:TrackPointExtension>
        </extensions>
      </trkpt>
      <trkpt lat="31.68132341466844081878662109375" lon="35.0037286989390850067138671875">
        <ele>323</ele>
        <time>2017-08-04T07:33:36.000Z</time>
        <extensions>
          <ns3:TrackPointExtension>
            <ns3:atemp>36.0</ns3:atemp>
          </ns3:TrackPointExtension>
        </extensions>
      </trkpt>
      <trkpt lat="31.68131603859364986419677734375" lon="35.0037484802305698394775390625">
        <ele>323.20001220703125</ele>
        <time>2017-08-04T07:33:37.000Z</time>
        <extensions>
          <ns3:TrackPointExtension>
            <ns3:atemp>36.0</ns3:atemp>
          </ns3:TrackPointExtension>
        </extensions>
      </trkpt>
      <trkpt lat="31.681263148784637451171875" lon="35.00377672724425792694091796875">
        <ele>323.399993896484375</ele>
        <time>2017-08-04T07:33:41.000Z</time>
        <extensions>
          <ns3:TrackPointExtension>
            <ns3:atemp>36.0</ns3:atemp>
          </ns3:TrackPointExtension>
        </extensions>
      </trkpt>
      <trkpt lat="31.68124864809215068817138671875" lon="35.00377488322556018829345703125">
        <ele>323.399993896484375</ele>
        <time>2017-08-04T07:33:42.000Z</time>
        <extensions>
          <ns3:TrackPointExtension>
            <ns3:atemp>36.0</ns3:atemp>
          </ns3:TrackPointExtension>
        </extensions>
      </trkpt>
      <trkpt lat="31.68125174939632415771484375" lon="35.0037773139774799346923828125">
        <ele>323.600006103515625</ele>
        <time>2017-08-04T07:33:46.000Z</time>
        <extensions>
          <ns3:TrackPointExtension>
            <ns3:atemp>36.0</ns3:atemp>
          </ns3:TrackPointExtension>
        </extensions>
      </trkpt>
    </trkseg>
  </trk>
</gpx>
